<?xml version="1.0" encoding="UTF-8" standalone="no" ?>
<gpx xmlns="http://www.topografix.com/GPX/1/1" xmlns:xsi="http://www.w3.org/2001/XMLSchema-instance" xsi:schemaLocation="http://www.topografix.com/GPX/1/1 http://www.topografix.com/GPX/1/1/gpx.xsd" version="1.1" creator="VisuGPX - https://www.visugpx.com">
  <metadata>
    <name>beauregard monflanquin</name>
    <desc><![CDATA[super trace avec différent déniveler   ]]></desc>
  </metadata>
  <trk>
    <name><![CDATA[05_07_2014_08_27_34]]></name>
    <trkseg>
      <trkpt lat="44.53697" lon="0.68481">
        <ele>142.5</ele>
        <time>2014-7-5T8:27:47.000Z</time>
      </trkpt>
      <trkpt lat="44.53702" lon="0.68473">
        <ele>134.5</ele>
        <time>2014-7-5T8:27:47.000Z</time>
      </trkpt>
      <trkpt lat="44.53698" lon="0.68481">
        <ele>145.5</ele>
        <time>2014-7-5T8:27:47.000Z</time>
      </trkpt>
      <trkpt lat="44.53697" lon="0.6848">
        <ele>144.5</ele>
        <time>2014-7-5T8:27:47.000Z</time>
      </trkpt>
      <trkpt lat="44.53698" lon="0.68475">
        <ele>139.5</ele>
        <time>2014-7-5T8:27:47.000Z</time>
      </trkpt>
      <trkpt lat="44.53699" lon="0.68473">
        <ele>137.5</ele>
        <time>2014-7-5T8:27:47.000Z</time>
      </trkpt>
      <trkpt lat="44.53698" lon="0.68475">
        <ele>140.5</ele>
        <time>2014-7-5T8:27:47.000Z</time>
      </trkpt>
      <trkpt lat="44.53699" lon="0.68471">
        <ele>137.5</ele>
        <time>2014-7-5T8:27:47.000Z</time>
      </trkpt>
      <trkpt lat="44.53697" lon="0.6847">
        <ele>135.5</ele>
        <time>2014-7-5T8:27:47.000Z</time>
      </trkpt>
      <trkpt lat="44.53699" lon="0.68466">
        <ele>121.5</ele>
        <time>2014-7-5T8:49:35.000Z</time>
      </trkpt>
      <trkpt lat="44.537" lon="0.6847">
        <ele>120.5</ele>
        <time>2014-7-5T8:49:35.000Z</time>
      </trkpt>
      <trkpt lat="44.537" lon="0.68473">
        <ele>121.5</ele>
        <time>2014-7-5T8:49:35.000Z</time>
      </trkpt>
      <trkpt lat="44.53698" lon="0.68475">
        <ele>121.5</ele>
        <time>2014-7-5T8:49:35.000Z</time>
      </trkpt>
      <trkpt lat="44.53695" lon="0.68475">
        <ele>122.5</ele>
        <time>2014-7-5T8:49:35.000Z</time>
      </trkpt>
      <trkpt lat="44.53693" lon="0.68475">
        <ele>122.5</ele>
        <time>2014-7-5T8:49:35.000Z</time>
      </trkpt>
      <trkpt lat="44.53691" lon="0.68474">
        <ele>121.5</ele>
        <time>2014-7-5T8:49:35.000Z</time>
      </trkpt>
      <trkpt lat="44.53688" lon="0.68474">
        <ele>121.5</ele>
        <time>2014-7-5T8:49:35.000Z</time>
      </trkpt>
      <trkpt lat="44.53685" lon="0.68474">
        <ele>121.5</ele>
        <time>2014-7-5T8:49:35.000Z</time>
      </trkpt>
      <trkpt lat="44.53683" lon="0.68478">
        <ele>121.5</ele>
        <time>2014-7-5T8:49:35.000Z</time>
      </trkpt>
      <trkpt lat="44.53683" lon="0.68481">
        <ele>120.5</ele>
        <time>2014-7-5T8:49:35.000Z</time>
      </trkpt>
      <trkpt lat="44.53684" lon="0.68487">
        <ele>119.5</ele>
        <time>2014-7-5T8:49:35.000Z</time>
      </trkpt>
      <trkpt lat="44.53685" lon="0.68494">
        <ele>120.5</ele>
        <time>2014-7-5T8:49:35.000Z</time>
      </trkpt>
      <trkpt lat="44.53687" lon="0.68501">
        <ele>119.5</ele>
        <time>2014-7-5T8:49:35.000Z</time>
      </trkpt>
      <trkpt lat="44.53691" lon="0.68511">
        <ele>119.5</ele>
        <time>2014-7-5T8:49:35.000Z</time>
      </trkpt>
      <trkpt lat="44.53693" lon="0.6852">
        <ele>118.5</ele>
        <time>2014-7-5T8:49:35.000Z</time>
      </trkpt>
      <trkpt lat="44.53696" lon="0.6853">
        <ele>117.5</ele>
        <time>2014-7-5T8:49:35.000Z</time>
      </trkpt>
      <trkpt lat="44.53699" lon="0.68539">
        <ele>116.5</ele>
        <time>2014-7-5T8:49:35.000Z</time>
      </trkpt>
      <trkpt lat="44.53701" lon="0.68549">
        <ele>114.5</ele>
        <time>2014-7-5T8:49:35.000Z</time>
      </trkpt>
      <trkpt lat="44.53705" lon="0.6856">
        <ele>113.5</ele>
        <time>2014-7-5T8:49:35.000Z</time>
      </trkpt>
      <trkpt lat="44.53708" lon="0.68571">
        <ele>112.5</ele>
        <time>2014-7-5T8:49:35.000Z</time>
      </trkpt>
      <trkpt lat="44.53711" lon="0.68584">
        <ele>112.5</ele>
        <time>2014-7-5T8:49:35.000Z</time>
      </trkpt>
      <trkpt lat="44.53715" lon="0.68597">
        <ele>111.5</ele>
        <time>2014-7-5T8:49:35.000Z</time>
      </trkpt>
      <trkpt lat="44.53719" lon="0.68609">
        <ele>110.5</ele>
        <time>2014-7-5T8:49:35.000Z</time>
      </trkpt>
      <trkpt lat="44.53722" lon="0.68621">
        <ele>110.5</ele>
        <time>2014-7-5T8:49:35.000Z</time>
      </trkpt>
      <trkpt lat="44.53725" lon="0.68632">
        <ele>110.5</ele>
        <time>2014-7-5T8:49:35.000Z</time>
      </trkpt>
      <trkpt lat="44.53728" lon="0.68638">
        <ele>109.5</ele>
        <time>2014-7-5T8:49:35.000Z</time>
      </trkpt>
      <trkpt lat="44.53733" lon="0.68643">
        <ele>109.5</ele>
        <time>2014-7-5T8:49:35.000Z</time>
      </trkpt>
      <trkpt lat="44.53739" lon="0.68642">
        <ele>109.5</ele>
        <time>2014-7-5T8:49:35.000Z</time>
      </trkpt>
      <trkpt lat="44.53745" lon="0.6864">
        <ele>109.5</ele>
        <time>2014-7-5T8:49:35.000Z</time>
      </trkpt>
      <trkpt lat="44.53752" lon="0.68636">
        <ele>108.5</ele>
        <time>2014-7-5T8:49:35.000Z</time>
      </trkpt>
      <trkpt lat="44.53757" lon="0.68632">
        <ele>108.5</ele>
        <time>2014-7-5T8:49:35.000Z</time>
      </trkpt>
      <trkpt lat="44.53762" lon="0.68629">
        <ele>108.5</ele>
        <time>2014-7-5T8:49:35.000Z</time>
      </trkpt>
      <trkpt lat="44.53766" lon="0.68626">
        <ele>108.5</ele>
        <time>2014-7-5T8:49:35.000Z</time>
      </trkpt>
      <trkpt lat="44.53771" lon="0.68624">
        <ele>108.5</ele>
        <time>2014-7-5T8:49:35.000Z</time>
      </trkpt>
      <trkpt lat="44.5378" lon="0.68618">
        <ele>107.5</ele>
        <time>2014-7-5T8:49:35.000Z</time>
      </trkpt>
      <trkpt lat="44.53785" lon="0.68614">
        <ele>107.5</ele>
        <time>2014-7-5T8:49:35.000Z</time>
      </trkpt>
      <trkpt lat="44.5379" lon="0.68611">
        <ele>107.5</ele>
        <time>2014-7-5T8:49:35.000Z</time>
      </trkpt>
      <trkpt lat="44.53795" lon="0.68608">
        <ele>106.5</ele>
        <time>2014-7-5T8:49:35.000Z</time>
      </trkpt>
      <trkpt lat="44.538" lon="0.68604">
        <ele>107.5</ele>
        <time>2014-7-5T8:49:35.000Z</time>
      </trkpt>
      <trkpt lat="44.53806" lon="0.68601">
        <ele>106.5</ele>
        <time>2014-7-5T8:49:35.000Z</time>
      </trkpt>
      <trkpt lat="44.5381" lon="0.68598">
        <ele>106.5</ele>
        <time>2014-7-5T8:49:35.000Z</time>
      </trkpt>
      <trkpt lat="44.53815" lon="0.68595">
        <ele>106.5</ele>
        <time>2014-7-5T8:49:35.000Z</time>
      </trkpt>
      <trkpt lat="44.5382" lon="0.68592">
        <ele>106.5</ele>
        <time>2014-7-5T8:49:35.000Z</time>
      </trkpt>
      <trkpt lat="44.53825" lon="0.6859">
        <ele>106.5</ele>
        <time>2014-7-5T8:49:35.000Z</time>
      </trkpt>
      <trkpt lat="44.5383" lon="0.68587">
        <ele>105.5</ele>
        <time>2014-7-5T8:49:35.000Z</time>
      </trkpt>
      <trkpt lat="44.53835" lon="0.68584">
        <ele>105.5</ele>
        <time>2014-7-5T8:49:35.000Z</time>
      </trkpt>
      <trkpt lat="44.53839" lon="0.6858">
        <ele>104.5</ele>
        <time>2014-7-5T8:49:35.000Z</time>
      </trkpt>
      <trkpt lat="44.53845" lon="0.68576">
        <ele>104.5</ele>
        <time>2014-7-5T8:49:35.000Z</time>
      </trkpt>
      <trkpt lat="44.53849" lon="0.68571">
        <ele>104.5</ele>
        <time>2014-7-5T8:49:35.000Z</time>
      </trkpt>
      <trkpt lat="44.53854" lon="0.68565">
        <ele>104.5</ele>
        <time>2014-7-5T8:49:35.000Z</time>
      </trkpt>
      <trkpt lat="44.53857" lon="0.68558">
        <ele>103.5</ele>
        <time>2014-7-5T8:49:35.000Z</time>
      </trkpt>
      <trkpt lat="44.5386" lon="0.68551">
        <ele>104.5</ele>
        <time>2014-7-5T8:49:35.000Z</time>
      </trkpt>
      <trkpt lat="44.53862" lon="0.68545">
        <ele>104.5</ele>
        <time>2014-7-5T8:49:35.000Z</time>
      </trkpt>
      <trkpt lat="44.53866" lon="0.68541">
        <ele>103.5</ele>
        <time>2014-7-5T8:49:35.000Z</time>
      </trkpt>
      <trkpt lat="44.53872" lon="0.68539">
        <ele>103.5</ele>
        <time>2014-7-5T8:49:35.000Z</time>
      </trkpt>
      <trkpt lat="44.53878" lon="0.6854">
        <ele>103.5</ele>
        <time>2014-7-5T8:49:35.000Z</time>
      </trkpt>
      <trkpt lat="44.53883" lon="0.68541">
        <ele>103.5</ele>
        <time>2014-7-5T8:49:35.000Z</time>
      </trkpt>
      <trkpt lat="44.5389" lon="0.68542">
        <ele>103.5</ele>
        <time>2014-7-5T8:49:35.000Z</time>
      </trkpt>
      <trkpt lat="44.53895" lon="0.68543">
        <ele>102.5</ele>
        <time>2014-7-5T8:49:35.000Z</time>
      </trkpt>
      <trkpt lat="44.539" lon="0.68544">
        <ele>103.5</ele>
        <time>2014-7-5T8:49:35.000Z</time>
      </trkpt>
      <trkpt lat="44.53904" lon="0.68546">
        <ele>103.5</ele>
        <time>2014-7-5T8:49:35.000Z</time>
      </trkpt>
      <trkpt lat="44.53906" lon="0.68549">
        <ele>104.5</ele>
        <time>2014-7-5T8:49:35.000Z</time>
      </trkpt>
      <trkpt lat="44.53907" lon="0.68555">
        <ele>104.5</ele>
        <time>2014-7-5T8:49:35.000Z</time>
      </trkpt>
      <trkpt lat="44.53907" lon="0.68559">
        <ele>104.5</ele>
        <time>2014-7-5T8:49:35.000Z</time>
      </trkpt>
      <trkpt lat="44.53906" lon="0.68566">
        <ele>105.5</ele>
        <time>2014-7-5T8:49:35.000Z</time>
      </trkpt>
      <trkpt lat="44.53906" lon="0.68572">
        <ele>105.5</ele>
        <time>2014-7-5T8:49:35.000Z</time>
      </trkpt>
      <trkpt lat="44.53906" lon="0.68579">
        <ele>104.5</ele>
        <time>2014-7-5T8:49:35.000Z</time>
      </trkpt>
      <trkpt lat="44.53906" lon="0.68585">
        <ele>104.5</ele>
        <time>2014-7-5T8:49:35.000Z</time>
      </trkpt>
      <trkpt lat="44.53906" lon="0.68591">
        <ele>104.5</ele>
        <time>2014-7-5T8:49:35.000Z</time>
      </trkpt>
      <trkpt lat="44.53906" lon="0.68597">
        <ele>104.5</ele>
        <time>2014-7-5T8:49:35.000Z</time>
      </trkpt>
      <trkpt lat="44.53904" lon="0.68603">
        <ele>104.5</ele>
        <time>2014-7-5T8:49:35.000Z</time>
      </trkpt>
      <trkpt lat="44.53904" lon="0.6861">
        <ele>104.5</ele>
        <time>2014-7-5T8:49:35.000Z</time>
      </trkpt>
      <trkpt lat="44.53905" lon="0.68616">
        <ele>103.5</ele>
        <time>2014-7-5T8:49:35.000Z</time>
      </trkpt>
      <trkpt lat="44.53904" lon="0.68623">
        <ele>103.5</ele>
        <time>2014-7-5T8:49:35.000Z</time>
      </trkpt>
      <trkpt lat="44.53904" lon="0.68628">
        <ele>103.5</ele>
        <time>2014-7-5T8:49:35.000Z</time>
      </trkpt>
      <trkpt lat="44.53903" lon="0.68634">
        <ele>103.5</ele>
        <time>2014-7-5T8:49:35.000Z</time>
      </trkpt>
      <trkpt lat="44.53903" lon="0.6864">
        <ele>103.5</ele>
        <time>2014-7-5T8:49:35.000Z</time>
      </trkpt>
      <trkpt lat="44.53903" lon="0.68645">
        <ele>104.5</ele>
        <time>2014-7-5T8:49:35.000Z</time>
      </trkpt>
      <trkpt lat="44.53902" lon="0.6865">
        <ele>104.5</ele>
        <time>2014-7-5T8:49:35.000Z</time>
      </trkpt>
      <trkpt lat="44.53901" lon="0.68655">
        <ele>104.5</ele>
        <time>2014-7-5T8:49:35.000Z</time>
      </trkpt>
      <trkpt lat="44.53902" lon="0.68661">
        <ele>105.5</ele>
        <time>2014-7-5T8:49:35.000Z</time>
      </trkpt>
      <trkpt lat="44.53901" lon="0.68667">
        <ele>105.5</ele>
        <time>2014-7-5T8:49:35.000Z</time>
      </trkpt>
      <trkpt lat="44.53901" lon="0.68673">
        <ele>105.5</ele>
        <time>2014-7-5T8:49:35.000Z</time>
      </trkpt>
      <trkpt lat="44.53901" lon="0.68679">
        <ele>105.5</ele>
        <time>2014-7-5T8:49:35.000Z</time>
      </trkpt>
      <trkpt lat="44.53901" lon="0.68686">
        <ele>105.5</ele>
        <time>2014-7-5T8:49:35.000Z</time>
      </trkpt>
      <trkpt lat="44.53901" lon="0.68693">
        <ele>105.5</ele>
        <time>2014-7-5T8:49:35.000Z</time>
      </trkpt>
      <trkpt lat="44.539" lon="0.687">
        <ele>105.5</ele>
        <time>2014-7-5T8:49:35.000Z</time>
      </trkpt>
      <trkpt lat="44.539" lon="0.68707">
        <ele>105.5</ele>
        <time>2014-7-5T8:49:35.000Z</time>
      </trkpt>
      <trkpt lat="44.53899" lon="0.68713">
        <ele>105.5</ele>
        <time>2014-7-5T8:49:35.000Z</time>
      </trkpt>
      <trkpt lat="44.53899" lon="0.6872">
        <ele>104.5</ele>
        <time>2014-7-5T8:49:35.000Z</time>
      </trkpt>
      <trkpt lat="44.53898" lon="0.68727">
        <ele>104.5</ele>
        <time>2014-7-5T8:49:35.000Z</time>
      </trkpt>
      <trkpt lat="44.53898" lon="0.68734">
        <ele>103.5</ele>
        <time>2014-7-5T8:49:35.000Z</time>
      </trkpt>
      <trkpt lat="44.53897" lon="0.68742">
        <ele>103.5</ele>
        <time>2014-7-5T8:49:35.000Z</time>
      </trkpt>
      <trkpt lat="44.53896" lon="0.68748">
        <ele>102.5</ele>
        <time>2014-7-5T8:49:35.000Z</time>
      </trkpt>
      <trkpt lat="44.53895" lon="0.68757">
        <ele>101.5</ele>
        <time>2014-7-5T8:49:35.000Z</time>
      </trkpt>
      <trkpt lat="44.53895" lon="0.68765">
        <ele>101.5</ele>
        <time>2014-7-5T8:49:35.000Z</time>
      </trkpt>
      <trkpt lat="44.53896" lon="0.68773">
        <ele>101.5</ele>
        <time>2014-7-5T8:49:35.000Z</time>
      </trkpt>
      <trkpt lat="44.53896" lon="0.68782">
        <ele>101.5</ele>
        <time>2014-7-5T8:49:35.000Z</time>
      </trkpt>
      <trkpt lat="44.53896" lon="0.68789">
        <ele>101.5</ele>
        <time>2014-7-5T8:49:35.000Z</time>
      </trkpt>
      <trkpt lat="44.53896" lon="0.68797">
        <ele>102.5</ele>
        <time>2014-7-5T8:49:35.000Z</time>
      </trkpt>
      <trkpt lat="44.53896" lon="0.68805">
        <ele>102.5</ele>
        <time>2014-7-5T8:51:46.000Z</time>
      </trkpt>
      <trkpt lat="44.53895" lon="0.68814">
        <ele>101.5</ele>
        <time>2014-7-5T8:51:46.000Z</time>
      </trkpt>
      <trkpt lat="44.53894" lon="0.68822">
        <ele>101.5</ele>
        <time>2014-7-5T8:51:46.000Z</time>
      </trkpt>
      <trkpt lat="44.53893" lon="0.68833">
        <ele>101.5</ele>
        <time>2014-7-5T8:51:46.000Z</time>
      </trkpt>
      <trkpt lat="44.53893" lon="0.68842">
        <ele>101.5</ele>
        <time>2014-7-5T8:51:46.000Z</time>
      </trkpt>
      <trkpt lat="44.53894" lon="0.68853">
        <ele>101.5</ele>
        <time>2014-7-5T8:51:46.000Z</time>
      </trkpt>
      <trkpt lat="44.53893" lon="0.68862">
        <ele>100.5</ele>
        <time>2014-7-5T8:51:46.000Z</time>
      </trkpt>
      <trkpt lat="44.53901" lon="0.68869">
        <ele>100.5</ele>
        <time>2014-7-5T8:51:46.000Z</time>
      </trkpt>
      <trkpt lat="44.53906" lon="0.68875">
        <ele>99.5</ele>
        <time>2014-7-5T8:51:46.000Z</time>
      </trkpt>
      <trkpt lat="44.53912" lon="0.68881">
        <ele>99.5</ele>
        <time>2014-7-5T8:51:46.000Z</time>
      </trkpt>
      <trkpt lat="44.53918" lon="0.68886">
        <ele>99.5</ele>
        <time>2014-7-5T8:51:46.000Z</time>
      </trkpt>
      <trkpt lat="44.53926" lon="0.68891">
        <ele>99.5</ele>
        <time>2014-7-5T8:51:46.000Z</time>
      </trkpt>
      <trkpt lat="44.53932" lon="0.68895">
        <ele>99.5</ele>
        <time>2014-7-5T8:51:46.000Z</time>
      </trkpt>
      <trkpt lat="44.5394" lon="0.689">
        <ele>99.5</ele>
        <time>2014-7-5T8:51:46.000Z</time>
      </trkpt>
      <trkpt lat="44.53947" lon="0.68904">
        <ele>99.5</ele>
        <time>2014-7-5T8:51:46.000Z</time>
      </trkpt>
      <trkpt lat="44.53954" lon="0.68909">
        <ele>99.5</ele>
        <time>2014-7-5T8:51:46.000Z</time>
      </trkpt>
      <trkpt lat="44.53961" lon="0.68913">
        <ele>98.5</ele>
        <time>2014-7-5T8:51:46.000Z</time>
      </trkpt>
      <trkpt lat="44.53968" lon="0.68917">
        <ele>98.5</ele>
        <time>2014-7-5T8:51:46.000Z</time>
      </trkpt>
      <trkpt lat="44.53975" lon="0.68922">
        <ele>98.5</ele>
        <time>2014-7-5T8:51:46.000Z</time>
      </trkpt>
      <trkpt lat="44.53982" lon="0.68926">
        <ele>98.5</ele>
        <time>2014-7-5T8:51:46.000Z</time>
      </trkpt>
      <trkpt lat="44.53988" lon="0.68929">
        <ele>99.5</ele>
        <time>2014-7-5T8:51:46.000Z</time>
      </trkpt>
      <trkpt lat="44.53995" lon="0.68934">
        <ele>99.5</ele>
        <time>2014-7-5T8:51:46.000Z</time>
      </trkpt>
      <trkpt lat="44.54001" lon="0.68938">
        <ele>99.5</ele>
        <time>2014-7-5T8:51:46.000Z</time>
      </trkpt>
      <trkpt lat="44.54014" lon="0.68947">
        <ele>98.5</ele>
        <time>2014-7-5T8:51:46.000Z</time>
      </trkpt>
      <trkpt lat="44.54019" lon="0.68951">
        <ele>97.5</ele>
        <time>2014-7-5T8:51:46.000Z</time>
      </trkpt>
      <trkpt lat="44.54025" lon="0.68955">
        <ele>97.5</ele>
        <time>2014-7-5T8:51:46.000Z</time>
      </trkpt>
      <trkpt lat="44.54032" lon="0.68958">
        <ele>97.5</ele>
        <time>2014-7-5T8:51:46.000Z</time>
      </trkpt>
      <trkpt lat="44.54037" lon="0.68961">
        <ele>98.5</ele>
        <time>2014-7-5T8:51:46.000Z</time>
      </trkpt>
      <trkpt lat="44.54043" lon="0.68965">
        <ele>97.5</ele>
        <time>2014-7-5T8:51:46.000Z</time>
      </trkpt>
      <trkpt lat="44.54046" lon="0.68968">
        <ele>97.5</ele>
        <time>2014-7-5T8:51:46.000Z</time>
      </trkpt>
      <trkpt lat="44.54052" lon="0.68972">
        <ele>97.5</ele>
        <time>2014-7-5T8:51:46.000Z</time>
      </trkpt>
      <trkpt lat="44.54058" lon="0.68976">
        <ele>97.5</ele>
        <time>2014-7-5T8:51:46.000Z</time>
      </trkpt>
      <trkpt lat="44.54063" lon="0.68979">
        <ele>97.5</ele>
        <time>2014-7-5T8:51:46.000Z</time>
      </trkpt>
      <trkpt lat="44.54069" lon="0.68983">
        <ele>97.5</ele>
        <time>2014-7-5T8:51:46.000Z</time>
      </trkpt>
      <trkpt lat="44.54074" lon="0.68986">
        <ele>97.5</ele>
        <time>2014-7-5T8:51:46.000Z</time>
      </trkpt>
      <trkpt lat="44.54079" lon="0.6899">
        <ele>96.5</ele>
        <time>2014-7-5T8:51:46.000Z</time>
      </trkpt>
      <trkpt lat="44.54083" lon="0.68994">
        <ele>95.5</ele>
        <time>2014-7-5T8:51:46.000Z</time>
      </trkpt>
      <trkpt lat="44.54088" lon="0.68998">
        <ele>96.5</ele>
        <time>2014-7-5T8:51:46.000Z</time>
      </trkpt>
      <trkpt lat="44.54092" lon="0.69002">
        <ele>96.5</ele>
        <time>2014-7-5T8:51:46.000Z</time>
      </trkpt>
      <trkpt lat="44.54097" lon="0.69007">
        <ele>96.5</ele>
        <time>2014-7-5T8:51:46.000Z</time>
      </trkpt>
      <trkpt lat="44.54101" lon="0.69012">
        <ele>96.5</ele>
        <time>2014-7-5T8:51:46.000Z</time>
      </trkpt>
      <trkpt lat="44.54104" lon="0.69017">
        <ele>96.5</ele>
        <time>2014-7-5T8:51:46.000Z</time>
      </trkpt>
      <trkpt lat="44.54107" lon="0.69023">
        <ele>96.5</ele>
        <time>2014-7-5T8:51:46.000Z</time>
      </trkpt>
      <trkpt lat="44.5411" lon="0.69029">
        <ele>97.5</ele>
        <time>2014-7-5T8:51:46.000Z</time>
      </trkpt>
      <trkpt lat="44.54113" lon="0.69035">
        <ele>97.5</ele>
        <time>2014-7-5T8:51:46.000Z</time>
      </trkpt>
      <trkpt lat="44.54115" lon="0.69041">
        <ele>97.5</ele>
        <time>2014-7-5T8:51:46.000Z</time>
      </trkpt>
      <trkpt lat="44.54117" lon="0.69048">
        <ele>97.5</ele>
        <time>2014-7-5T8:51:46.000Z</time>
      </trkpt>
      <trkpt lat="44.5412" lon="0.69055">
        <ele>97.5</ele>
        <time>2014-7-5T8:51:46.000Z</time>
      </trkpt>
      <trkpt lat="44.54122" lon="0.69062">
        <ele>97.5</ele>
        <time>2014-7-5T8:51:46.000Z</time>
      </trkpt>
      <trkpt lat="44.54123" lon="0.69068">
        <ele>97.5</ele>
        <time>2014-7-5T8:51:46.000Z</time>
      </trkpt>
      <trkpt lat="44.54124" lon="0.69075">
        <ele>98.5</ele>
        <time>2014-7-5T8:51:46.000Z</time>
      </trkpt>
      <trkpt lat="44.54125" lon="0.69082">
        <ele>98.5</ele>
        <time>2014-7-5T8:51:46.000Z</time>
      </trkpt>
      <trkpt lat="44.54125" lon="0.6909">
        <ele>97.5</ele>
        <time>2014-7-5T8:51:46.000Z</time>
      </trkpt>
      <trkpt lat="44.54125" lon="0.69095">
        <ele>98.5</ele>
        <time>2014-7-5T8:51:46.000Z</time>
      </trkpt>
      <trkpt lat="44.54125" lon="0.69102">
        <ele>99.5</ele>
        <time>2014-7-5T8:51:46.000Z</time>
      </trkpt>
      <trkpt lat="44.54125" lon="0.6911">
        <ele>99.5</ele>
        <time>2014-7-5T8:51:46.000Z</time>
      </trkpt>
      <trkpt lat="44.54126" lon="0.69115">
        <ele>99.5</ele>
        <time>2014-7-5T8:51:46.000Z</time>
      </trkpt>
      <trkpt lat="44.54126" lon="0.69122">
        <ele>99.5</ele>
        <time>2014-7-5T8:51:46.000Z</time>
      </trkpt>
      <trkpt lat="44.54124" lon="0.69129">
        <ele>99.5</ele>
        <time>2014-7-5T8:51:46.000Z</time>
      </trkpt>
      <trkpt lat="44.54124" lon="0.69135">
        <ele>99.5</ele>
        <time>2014-7-5T8:51:46.000Z</time>
      </trkpt>
      <trkpt lat="44.54122" lon="0.69142">
        <ele>99.5</ele>
        <time>2014-7-5T8:51:46.000Z</time>
      </trkpt>
      <trkpt lat="44.54121" lon="0.69147">
        <ele>100.5</ele>
        <time>2014-7-5T8:51:46.000Z</time>
      </trkpt>
      <trkpt lat="44.54119" lon="0.69153">
        <ele>100.5</ele>
        <time>2014-7-5T8:51:46.000Z</time>
      </trkpt>
      <trkpt lat="44.54118" lon="0.6916">
        <ele>100.5</ele>
        <time>2014-7-5T8:51:46.000Z</time>
      </trkpt>
      <trkpt lat="44.54117" lon="0.69165">
        <ele>101.5</ele>
        <time>2014-7-5T8:51:46.000Z</time>
      </trkpt>
      <trkpt lat="44.54116" lon="0.69172">
        <ele>100.5</ele>
        <time>2014-7-5T8:51:46.000Z</time>
      </trkpt>
      <trkpt lat="44.54115" lon="0.69178">
        <ele>100.5</ele>
        <time>2014-7-5T8:51:46.000Z</time>
      </trkpt>
      <trkpt lat="44.54114" lon="0.69185">
        <ele>101.5</ele>
        <time>2014-7-5T8:51:46.000Z</time>
      </trkpt>
      <trkpt lat="44.54113" lon="0.69191">
        <ele>101.5</ele>
        <time>2014-7-5T8:51:46.000Z</time>
      </trkpt>
      <trkpt lat="44.54113" lon="0.69196">
        <ele>100.5</ele>
        <time>2014-7-5T8:51:46.000Z</time>
      </trkpt>
      <trkpt lat="44.54112" lon="0.69201">
        <ele>101.5</ele>
        <time>2014-7-5T8:51:46.000Z</time>
      </trkpt>
      <trkpt lat="44.54112" lon="0.69212">
        <ele>101.5</ele>
        <time>2014-7-5T8:51:46.000Z</time>
      </trkpt>
      <trkpt lat="44.54113" lon="0.69216">
        <ele>102.5</ele>
        <time>2014-7-5T8:51:46.000Z</time>
      </trkpt>
      <trkpt lat="44.54114" lon="0.69221">
        <ele>102.5</ele>
        <time>2014-7-5T8:51:46.000Z</time>
      </trkpt>
      <trkpt lat="44.54115" lon="0.69226">
        <ele>103.5</ele>
        <time>2014-7-5T8:51:46.000Z</time>
      </trkpt>
      <trkpt lat="44.54116" lon="0.69232">
        <ele>103.5</ele>
        <time>2014-7-5T8:51:46.000Z</time>
      </trkpt>
      <trkpt lat="44.54116" lon="0.69236">
        <ele>104.5</ele>
        <time>2014-7-5T8:51:46.000Z</time>
      </trkpt>
      <trkpt lat="44.54117" lon="0.69241">
        <ele>104.5</ele>
        <time>2014-7-5T8:51:46.000Z</time>
      </trkpt>
      <trkpt lat="44.54118" lon="0.69246">
        <ele>105.5</ele>
        <time>2014-7-5T8:51:46.000Z</time>
      </trkpt>
      <trkpt lat="44.5412" lon="0.6925">
        <ele>105.5</ele>
        <time>2014-7-5T8:51:46.000Z</time>
      </trkpt>
      <trkpt lat="44.54121" lon="0.69255">
        <ele>104.5</ele>
        <time>2014-7-5T8:51:46.000Z</time>
      </trkpt>
      <trkpt lat="44.54122" lon="0.6926">
        <ele>104.5</ele>
        <time>2014-7-5T8:51:46.000Z</time>
      </trkpt>
      <trkpt lat="44.54123" lon="0.69264">
        <ele>105.5</ele>
        <time>2014-7-5T8:51:46.000Z</time>
      </trkpt>
      <trkpt lat="44.54125" lon="0.69269">
        <ele>105.5</ele>
        <time>2014-7-5T8:51:46.000Z</time>
      </trkpt>
      <trkpt lat="44.54127" lon="0.69273">
        <ele>105.5</ele>
        <time>2014-7-5T8:51:46.000Z</time>
      </trkpt>
      <trkpt lat="44.54128" lon="0.69277">
        <ele>105.5</ele>
        <time>2014-7-5T8:51:46.000Z</time>
      </trkpt>
      <trkpt lat="44.5413" lon="0.69279">
        <ele>105.5</ele>
        <time>2014-7-5T8:51:46.000Z</time>
      </trkpt>
      <trkpt lat="44.54132" lon="0.69283">
        <ele>105.5</ele>
        <time>2014-7-5T8:51:46.000Z</time>
      </trkpt>
      <trkpt lat="44.54133" lon="0.69285">
        <ele>106.5</ele>
        <time>2014-7-5T8:51:46.000Z</time>
      </trkpt>
      <trkpt lat="44.54135" lon="0.69287">
        <ele>106.5</ele>
        <time>2014-7-5T8:51:46.000Z</time>
      </trkpt>
      <trkpt lat="44.54136" lon="0.69289">
        <ele>106.5</ele>
        <time>2014-7-5T8:51:46.000Z</time>
      </trkpt>
      <trkpt lat="44.54137" lon="0.69291">
        <ele>106.5</ele>
        <time>2014-7-5T8:51:46.000Z</time>
      </trkpt>
      <trkpt lat="44.54138" lon="0.69294">
        <ele>106.5</ele>
        <time>2014-7-5T8:51:46.000Z</time>
      </trkpt>
      <trkpt lat="44.54139" lon="0.69296">
        <ele>107.5</ele>
        <time>2014-7-5T8:51:46.000Z</time>
      </trkpt>
      <trkpt lat="44.54141" lon="0.69298">
        <ele>105.5</ele>
        <time>2014-7-5T8:51:46.000Z</time>
      </trkpt>
      <trkpt lat="44.54143" lon="0.69299">
        <ele>105.5</ele>
        <time>2014-7-5T8:51:46.000Z</time>
      </trkpt>
      <trkpt lat="44.54145" lon="0.69301">
        <ele>105.5</ele>
        <time>2014-7-5T8:51:46.000Z</time>
      </trkpt>
      <trkpt lat="44.54147" lon="0.69302">
        <ele>105.5</ele>
        <time>2014-7-5T8:51:46.000Z</time>
      </trkpt>
      <trkpt lat="44.54149" lon="0.69305">
        <ele>105.5</ele>
        <time>2014-7-5T8:51:46.000Z</time>
      </trkpt>
      <trkpt lat="44.54151" lon="0.69308">
        <ele>105.5</ele>
        <time>2014-7-5T8:51:46.000Z</time>
      </trkpt>
      <trkpt lat="44.54153" lon="0.69311">
        <ele>104.5</ele>
        <time>2014-7-5T8:51:46.000Z</time>
      </trkpt>
      <trkpt lat="44.54155" lon="0.69314">
        <ele>105.5</ele>
        <time>2014-7-5T8:53:31.000Z</time>
      </trkpt>
      <trkpt lat="44.54157" lon="0.69317">
        <ele>105.5</ele>
        <time>2014-7-5T8:53:31.000Z</time>
      </trkpt>
      <trkpt lat="44.54159" lon="0.6932">
        <ele>105.5</ele>
        <time>2014-7-5T8:53:31.000Z</time>
      </trkpt>
      <trkpt lat="44.54162" lon="0.69323">
        <ele>106.5</ele>
        <time>2014-7-5T8:53:31.000Z</time>
      </trkpt>
      <trkpt lat="44.54164" lon="0.69326">
        <ele>106.5</ele>
        <time>2014-7-5T8:53:31.000Z</time>
      </trkpt>
      <trkpt lat="44.54166" lon="0.69329">
        <ele>105.5</ele>
        <time>2014-7-5T8:53:31.000Z</time>
      </trkpt>
      <trkpt lat="44.54168" lon="0.69331">
        <ele>105.5</ele>
        <time>2014-7-5T8:53:31.000Z</time>
      </trkpt>
      <trkpt lat="44.5417" lon="0.69333">
        <ele>105.5</ele>
        <time>2014-7-5T8:53:31.000Z</time>
      </trkpt>
      <trkpt lat="44.54172" lon="0.69335">
        <ele>106.5</ele>
        <time>2014-7-5T8:53:31.000Z</time>
      </trkpt>
      <trkpt lat="44.54174" lon="0.69337">
        <ele>106.5</ele>
        <time>2014-7-5T8:53:31.000Z</time>
      </trkpt>
      <trkpt lat="44.54176" lon="0.6934">
        <ele>106.5</ele>
        <time>2014-7-5T8:53:31.000Z</time>
      </trkpt>
      <trkpt lat="44.54178" lon="0.69342">
        <ele>105.5</ele>
        <time>2014-7-5T8:53:31.000Z</time>
      </trkpt>
      <trkpt lat="44.5418" lon="0.69344">
        <ele>105.5</ele>
        <time>2014-7-5T8:53:31.000Z</time>
      </trkpt>
      <trkpt lat="44.54182" lon="0.69346">
        <ele>105.5</ele>
        <time>2014-7-5T8:53:31.000Z</time>
      </trkpt>
      <trkpt lat="44.54183" lon="0.69348">
        <ele>105.5</ele>
        <time>2014-7-5T8:53:31.000Z</time>
      </trkpt>
      <trkpt lat="44.54185" lon="0.6935">
        <ele>105.5</ele>
        <time>2014-7-5T8:53:31.000Z</time>
      </trkpt>
      <trkpt lat="44.54187" lon="0.69351">
        <ele>105.5</ele>
        <time>2014-7-5T8:53:31.000Z</time>
      </trkpt>
      <trkpt lat="44.54188" lon="0.69353">
        <ele>105.5</ele>
        <time>2014-7-5T8:53:31.000Z</time>
      </trkpt>
      <trkpt lat="44.5419" lon="0.69354">
        <ele>105.5</ele>
        <time>2014-7-5T8:53:31.000Z</time>
      </trkpt>
      <trkpt lat="44.54192" lon="0.69356">
        <ele>106.5</ele>
        <time>2014-7-5T8:53:31.000Z</time>
      </trkpt>
      <trkpt lat="44.54194" lon="0.69358">
        <ele>106.5</ele>
        <time>2014-7-5T8:53:31.000Z</time>
      </trkpt>
      <trkpt lat="44.54196" lon="0.6936">
        <ele>106.5</ele>
        <time>2014-7-5T8:53:31.000Z</time>
      </trkpt>
      <trkpt lat="44.54197" lon="0.69363">
        <ele>106.5</ele>
        <time>2014-7-5T8:53:31.000Z</time>
      </trkpt>
      <trkpt lat="44.54199" lon="0.69365">
        <ele>106.5</ele>
        <time>2014-7-5T8:53:31.000Z</time>
      </trkpt>
      <trkpt lat="44.54201" lon="0.69367">
        <ele>106.5</ele>
        <time>2014-7-5T8:53:31.000Z</time>
      </trkpt>
      <trkpt lat="44.54203" lon="0.69368">
        <ele>107.5</ele>
        <time>2014-7-5T8:53:31.000Z</time>
      </trkpt>
      <trkpt lat="44.54206" lon="0.6937">
        <ele>106.5</ele>
        <time>2014-7-5T8:53:31.000Z</time>
      </trkpt>
      <trkpt lat="44.54212" lon="0.69376">
        <ele>106.5</ele>
        <time>2014-7-5T8:53:31.000Z</time>
      </trkpt>
      <trkpt lat="44.54215" lon="0.69379">
        <ele>106.5</ele>
        <time>2014-7-5T8:53:31.000Z</time>
      </trkpt>
      <trkpt lat="44.54218" lon="0.69382">
        <ele>106.5</ele>
        <time>2014-7-5T8:53:31.000Z</time>
      </trkpt>
      <trkpt lat="44.54221" lon="0.69385">
        <ele>105.5</ele>
        <time>2014-7-5T8:53:31.000Z</time>
      </trkpt>
      <trkpt lat="44.54224" lon="0.69388">
        <ele>105.5</ele>
        <time>2014-7-5T8:53:31.000Z</time>
      </trkpt>
      <trkpt lat="44.54227" lon="0.6939">
        <ele>105.5</ele>
        <time>2014-7-5T8:53:31.000Z</time>
      </trkpt>
      <trkpt lat="44.54231" lon="0.69393">
        <ele>105.5</ele>
        <time>2014-7-5T8:53:31.000Z</time>
      </trkpt>
      <trkpt lat="44.54234" lon="0.69395">
        <ele>105.5</ele>
        <time>2014-7-5T8:53:31.000Z</time>
      </trkpt>
      <trkpt lat="44.54237" lon="0.69398">
        <ele>106.5</ele>
        <time>2014-7-5T8:53:31.000Z</time>
      </trkpt>
      <trkpt lat="44.5424" lon="0.694">
        <ele>106.5</ele>
        <time>2014-7-5T8:53:31.000Z</time>
      </trkpt>
      <trkpt lat="44.54243" lon="0.69403">
        <ele>106.5</ele>
        <time>2014-7-5T8:53:31.000Z</time>
      </trkpt>
      <trkpt lat="44.54247" lon="0.69405">
        <ele>106.5</ele>
        <time>2014-7-5T8:53:31.000Z</time>
      </trkpt>
      <trkpt lat="44.5425" lon="0.69408">
        <ele>106.5</ele>
        <time>2014-7-5T8:53:31.000Z</time>
      </trkpt>
      <trkpt lat="44.54254" lon="0.69411">
        <ele>106.5</ele>
        <time>2014-7-5T8:53:31.000Z</time>
      </trkpt>
      <trkpt lat="44.5426" lon="0.69415">
        <ele>106.5</ele>
        <time>2014-7-5T8:53:31.000Z</time>
      </trkpt>
      <trkpt lat="44.54264" lon="0.69417">
        <ele>106.5</ele>
        <time>2014-7-5T8:53:31.000Z</time>
      </trkpt>
      <trkpt lat="44.54268" lon="0.6942">
        <ele>106.5</ele>
        <time>2014-7-5T8:53:31.000Z</time>
      </trkpt>
      <trkpt lat="44.54273" lon="0.69422">
        <ele>105.5</ele>
        <time>2014-7-5T8:53:31.000Z</time>
      </trkpt>
      <trkpt lat="44.54277" lon="0.69425">
        <ele>105.5</ele>
        <time>2014-7-5T8:53:31.000Z</time>
      </trkpt>
      <trkpt lat="44.54282" lon="0.69427">
        <ele>106.5</ele>
        <time>2014-7-5T8:53:31.000Z</time>
      </trkpt>
      <trkpt lat="44.54287" lon="0.69429">
        <ele>105.5</ele>
        <time>2014-7-5T8:53:31.000Z</time>
      </trkpt>
      <trkpt lat="44.54291" lon="0.6943">
        <ele>105.5</ele>
        <time>2014-7-5T8:53:31.000Z</time>
      </trkpt>
      <trkpt lat="44.54297" lon="0.69432">
        <ele>105.5</ele>
        <time>2014-7-5T8:53:31.000Z</time>
      </trkpt>
      <trkpt lat="44.54307" lon="0.69438">
        <ele>105.5</ele>
        <time>2014-7-5T8:53:31.000Z</time>
      </trkpt>
      <trkpt lat="44.54312" lon="0.6944">
        <ele>105.5</ele>
        <time>2014-7-5T8:53:31.000Z</time>
      </trkpt>
      <trkpt lat="44.54316" lon="0.69442">
        <ele>104.5</ele>
        <time>2014-7-5T8:53:31.000Z</time>
      </trkpt>
      <trkpt lat="44.54322" lon="0.69444">
        <ele>104.5</ele>
        <time>2014-7-5T8:53:31.000Z</time>
      </trkpt>
      <trkpt lat="44.54327" lon="0.69446">
        <ele>104.5</ele>
        <time>2014-7-5T8:53:31.000Z</time>
      </trkpt>
      <trkpt lat="44.54331" lon="0.69447">
        <ele>103.5</ele>
        <time>2014-7-5T8:53:31.000Z</time>
      </trkpt>
      <trkpt lat="44.54337" lon="0.69447">
        <ele>103.5</ele>
        <time>2014-7-5T8:53:31.000Z</time>
      </trkpt>
      <trkpt lat="44.54342" lon="0.69449">
        <ele>103.5</ele>
        <time>2014-7-5T8:53:31.000Z</time>
      </trkpt>
      <trkpt lat="44.54348" lon="0.6945">
        <ele>103.5</ele>
        <time>2014-7-5T8:53:31.000Z</time>
      </trkpt>
      <trkpt lat="44.54353" lon="0.69451">
        <ele>103.5</ele>
        <time>2014-7-5T8:53:31.000Z</time>
      </trkpt>
      <trkpt lat="44.54358" lon="0.69451">
        <ele>103.5</ele>
        <time>2014-7-5T8:53:31.000Z</time>
      </trkpt>
      <trkpt lat="44.54364" lon="0.69452">
        <ele>103.5</ele>
        <time>2014-7-5T8:53:31.000Z</time>
      </trkpt>
      <trkpt lat="44.5437" lon="0.69452">
        <ele>103.5</ele>
        <time>2014-7-5T8:53:31.000Z</time>
      </trkpt>
      <trkpt lat="44.54375" lon="0.69453">
        <ele>103.5</ele>
        <time>2014-7-5T8:53:31.000Z</time>
      </trkpt>
      <trkpt lat="44.54381" lon="0.69453">
        <ele>103.5</ele>
        <time>2014-7-5T8:53:31.000Z</time>
      </trkpt>
      <trkpt lat="44.54386" lon="0.69453">
        <ele>103.5</ele>
        <time>2014-7-5T8:53:31.000Z</time>
      </trkpt>
      <trkpt lat="44.54392" lon="0.69452">
        <ele>103.5</ele>
        <time>2014-7-5T8:53:31.000Z</time>
      </trkpt>
      <trkpt lat="44.54397" lon="0.69453">
        <ele>103.5</ele>
        <time>2014-7-5T8:53:31.000Z</time>
      </trkpt>
      <trkpt lat="44.54403" lon="0.69453">
        <ele>103.5</ele>
        <time>2014-7-5T8:53:31.000Z</time>
      </trkpt>
      <trkpt lat="44.54409" lon="0.69452">
        <ele>103.5</ele>
        <time>2014-7-5T8:53:31.000Z</time>
      </trkpt>
      <trkpt lat="44.54415" lon="0.69452">
        <ele>102.5</ele>
        <time>2014-7-5T8:53:31.000Z</time>
      </trkpt>
      <trkpt lat="44.5442" lon="0.69451">
        <ele>102.5</ele>
        <time>2014-7-5T8:53:31.000Z</time>
      </trkpt>
      <trkpt lat="44.54426" lon="0.69451">
        <ele>102.5</ele>
        <time>2014-7-5T8:53:31.000Z</time>
      </trkpt>
      <trkpt lat="44.54431" lon="0.6945">
        <ele>102.5</ele>
        <time>2014-7-5T8:53:31.000Z</time>
      </trkpt>
      <trkpt lat="44.54437" lon="0.6945">
        <ele>102.5</ele>
        <time>2014-7-5T8:53:31.000Z</time>
      </trkpt>
      <trkpt lat="44.54443" lon="0.69449">
        <ele>102.5</ele>
        <time>2014-7-5T8:53:31.000Z</time>
      </trkpt>
      <trkpt lat="44.54449" lon="0.69449">
        <ele>102.5</ele>
        <time>2014-7-5T8:53:31.000Z</time>
      </trkpt>
      <trkpt lat="44.54462" lon="0.69449">
        <ele>102.5</ele>
        <time>2014-7-5T8:53:31.000Z</time>
      </trkpt>
      <trkpt lat="44.54468" lon="0.69448">
        <ele>102.5</ele>
        <time>2014-7-5T8:53:31.000Z</time>
      </trkpt>
      <trkpt lat="44.54475" lon="0.69447">
        <ele>102.5</ele>
        <time>2014-7-5T8:53:31.000Z</time>
      </trkpt>
      <trkpt lat="44.54481" lon="0.69447">
        <ele>102.5</ele>
        <time>2014-7-5T8:53:31.000Z</time>
      </trkpt>
      <trkpt lat="44.54488" lon="0.69446">
        <ele>102.5</ele>
        <time>2014-7-5T8:53:31.000Z</time>
      </trkpt>
      <trkpt lat="44.54495" lon="0.69446">
        <ele>102.5</ele>
        <time>2014-7-5T8:53:31.000Z</time>
      </trkpt>
      <trkpt lat="44.54502" lon="0.69446">
        <ele>102.5</ele>
        <time>2014-7-5T8:53:31.000Z</time>
      </trkpt>
      <trkpt lat="44.54508" lon="0.69446">
        <ele>102.5</ele>
        <time>2014-7-5T8:53:31.000Z</time>
      </trkpt>
      <trkpt lat="44.54515" lon="0.69445">
        <ele>102.5</ele>
        <time>2014-7-5T8:53:31.000Z</time>
      </trkpt>
      <trkpt lat="44.54521" lon="0.69445">
        <ele>101.5</ele>
        <time>2014-7-5T8:53:31.000Z</time>
      </trkpt>
      <trkpt lat="44.54528" lon="0.69445">
        <ele>101.5</ele>
        <time>2014-7-5T8:53:31.000Z</time>
      </trkpt>
      <trkpt lat="44.54533" lon="0.69445">
        <ele>101.5</ele>
        <time>2014-7-5T8:53:31.000Z</time>
      </trkpt>
      <trkpt lat="44.5454" lon="0.69445">
        <ele>101.5</ele>
        <time>2014-7-5T8:53:31.000Z</time>
      </trkpt>
      <trkpt lat="44.54546" lon="0.69445">
        <ele>101.5</ele>
        <time>2014-7-5T8:53:31.000Z</time>
      </trkpt>
      <trkpt lat="44.54552" lon="0.69445">
        <ele>101.5</ele>
        <time>2014-7-5T8:53:31.000Z</time>
      </trkpt>
      <trkpt lat="44.54559" lon="0.69444">
        <ele>101.5</ele>
        <time>2014-7-5T8:53:31.000Z</time>
      </trkpt>
      <trkpt lat="44.54565" lon="0.69444">
        <ele>100.5</ele>
        <time>2014-7-5T8:53:31.000Z</time>
      </trkpt>
      <trkpt lat="44.54571" lon="0.69443">
        <ele>100.5</ele>
        <time>2014-7-5T8:53:31.000Z</time>
      </trkpt>
      <trkpt lat="44.54577" lon="0.69443">
        <ele>100.5</ele>
        <time>2014-7-5T8:53:31.000Z</time>
      </trkpt>
      <trkpt lat="44.54589" lon="0.69441">
        <ele>99.5</ele>
        <time>2014-7-5T8:53:31.000Z</time>
      </trkpt>
      <trkpt lat="44.54596" lon="0.6944">
        <ele>99.5</ele>
        <time>2014-7-5T8:53:31.000Z</time>
      </trkpt>
      <trkpt lat="44.54601" lon="0.6944">
        <ele>99.5</ele>
        <time>2014-7-5T8:53:31.000Z</time>
      </trkpt>
      <trkpt lat="44.54607" lon="0.69439">
        <ele>98.5</ele>
        <time>2014-7-5T8:53:31.000Z</time>
      </trkpt>
      <trkpt lat="44.54613" lon="0.69439">
        <ele>98.5</ele>
        <time>2014-7-5T8:53:31.000Z</time>
      </trkpt>
      <trkpt lat="44.54619" lon="0.69438">
        <ele>98.5</ele>
        <time>2014-7-5T8:55:18.000Z</time>
      </trkpt>
      <trkpt lat="44.54626" lon="0.69438">
        <ele>98.5</ele>
        <time>2014-7-5T8:55:18.000Z</time>
      </trkpt>
      <trkpt lat="44.54632" lon="0.69438">
        <ele>97.5</ele>
        <time>2014-7-5T8:55:18.000Z</time>
      </trkpt>
      <trkpt lat="44.54638" lon="0.69437">
        <ele>97.5</ele>
        <time>2014-7-5T8:55:18.000Z</time>
      </trkpt>
      <trkpt lat="44.54645" lon="0.69437">
        <ele>97.5</ele>
        <time>2014-7-5T8:55:18.000Z</time>
      </trkpt>
      <trkpt lat="44.5465" lon="0.69437">
        <ele>97.5</ele>
        <time>2014-7-5T8:55:18.000Z</time>
      </trkpt>
      <trkpt lat="44.54657" lon="0.69436">
        <ele>97.5</ele>
        <time>2014-7-5T8:55:18.000Z</time>
      </trkpt>
      <trkpt lat="44.54663" lon="0.69436">
        <ele>97.5</ele>
        <time>2014-7-5T8:55:18.000Z</time>
      </trkpt>
      <trkpt lat="44.54668" lon="0.69435">
        <ele>97.5</ele>
        <time>2014-7-5T8:55:18.000Z</time>
      </trkpt>
      <trkpt lat="44.54674" lon="0.69435">
        <ele>97.5</ele>
        <time>2014-7-5T8:55:18.000Z</time>
      </trkpt>
      <trkpt lat="44.5468" lon="0.69435">
        <ele>97.5</ele>
        <time>2014-7-5T8:55:18.000Z</time>
      </trkpt>
      <trkpt lat="44.54686" lon="0.69434">
        <ele>97.5</ele>
        <time>2014-7-5T8:55:18.000Z</time>
      </trkpt>
      <trkpt lat="44.54692" lon="0.69433">
        <ele>97.5</ele>
        <time>2014-7-5T8:55:18.000Z</time>
      </trkpt>
      <trkpt lat="44.54705" lon="0.69434">
        <ele>97.5</ele>
        <time>2014-7-5T8:55:18.000Z</time>
      </trkpt>
      <trkpt lat="44.54712" lon="0.69433">
        <ele>96.5</ele>
        <time>2014-7-5T8:55:18.000Z</time>
      </trkpt>
      <trkpt lat="44.54718" lon="0.69433">
        <ele>96.5</ele>
        <time>2014-7-5T8:55:18.000Z</time>
      </trkpt>
      <trkpt lat="44.54724" lon="0.69434">
        <ele>96.5</ele>
        <time>2014-7-5T8:55:18.000Z</time>
      </trkpt>
      <trkpt lat="44.54731" lon="0.69433">
        <ele>96.5</ele>
        <time>2014-7-5T8:55:18.000Z</time>
      </trkpt>
      <trkpt lat="44.54737" lon="0.69431">
        <ele>96.5</ele>
        <time>2014-7-5T8:55:18.000Z</time>
      </trkpt>
      <trkpt lat="44.54744" lon="0.69431">
        <ele>96.5</ele>
        <time>2014-7-5T8:55:18.000Z</time>
      </trkpt>
      <trkpt lat="44.5475" lon="0.6943">
        <ele>96.5</ele>
        <time>2014-7-5T8:55:18.000Z</time>
      </trkpt>
      <trkpt lat="44.54757" lon="0.6943">
        <ele>96.5</ele>
        <time>2014-7-5T8:55:18.000Z</time>
      </trkpt>
      <trkpt lat="44.54762" lon="0.6943">
        <ele>96.5</ele>
        <time>2014-7-5T8:55:18.000Z</time>
      </trkpt>
      <trkpt lat="44.54765" lon="0.6943">
        <ele>96.5</ele>
        <time>2014-7-5T8:55:18.000Z</time>
      </trkpt>
      <trkpt lat="44.54768" lon="0.69429">
        <ele>96.5</ele>
        <time>2014-7-5T8:55:18.000Z</time>
      </trkpt>
      <trkpt lat="44.54771" lon="0.69429">
        <ele>95.5</ele>
        <time>2014-7-5T8:55:18.000Z</time>
      </trkpt>
      <trkpt lat="44.54773" lon="0.69432">
        <ele>95.5</ele>
        <time>2014-7-5T8:55:18.000Z</time>
      </trkpt>
      <trkpt lat="44.54773" lon="0.69437">
        <ele>95.5</ele>
        <time>2014-7-5T8:55:18.000Z</time>
      </trkpt>
      <trkpt lat="44.54772" lon="0.69443">
        <ele>95.5</ele>
        <time>2014-7-5T8:55:18.000Z</time>
      </trkpt>
      <trkpt lat="44.54771" lon="0.69449">
        <ele>95.5</ele>
        <time>2014-7-5T8:55:18.000Z</time>
      </trkpt>
      <trkpt lat="44.5477" lon="0.69456">
        <ele>94.5</ele>
        <time>2014-7-5T8:55:18.000Z</time>
      </trkpt>
      <trkpt lat="44.54769" lon="0.69461">
        <ele>94.5</ele>
        <time>2014-7-5T8:55:18.000Z</time>
      </trkpt>
      <trkpt lat="44.54768" lon="0.69468">
        <ele>93.5</ele>
        <time>2014-7-5T8:55:18.000Z</time>
      </trkpt>
      <trkpt lat="44.54768" lon="0.69474">
        <ele>93.5</ele>
        <time>2014-7-5T8:55:18.000Z</time>
      </trkpt>
      <trkpt lat="44.54767" lon="0.69485">
        <ele>93.5</ele>
        <time>2014-7-5T8:55:18.000Z</time>
      </trkpt>
      <trkpt lat="44.54767" lon="0.6949">
        <ele>93.5</ele>
        <time>2014-7-5T8:55:18.000Z</time>
      </trkpt>
      <trkpt lat="44.54767" lon="0.69495">
        <ele>92.5</ele>
        <time>2014-7-5T8:55:18.000Z</time>
      </trkpt>
      <trkpt lat="44.54768" lon="0.69499">
        <ele>92.5</ele>
        <time>2014-7-5T8:55:18.000Z</time>
      </trkpt>
      <trkpt lat="44.5477" lon="0.69502">
        <ele>92.5</ele>
        <time>2014-7-5T8:55:18.000Z</time>
      </trkpt>
      <trkpt lat="44.54771" lon="0.69506">
        <ele>91.5</ele>
        <time>2014-7-5T8:55:18.000Z</time>
      </trkpt>
      <trkpt lat="44.54773" lon="0.69509">
        <ele>91.5</ele>
        <time>2014-7-5T8:55:18.000Z</time>
      </trkpt>
      <trkpt lat="44.54775" lon="0.69512">
        <ele>92.5</ele>
        <time>2014-7-5T8:55:18.000Z</time>
      </trkpt>
      <trkpt lat="44.54778" lon="0.69515">
        <ele>92.5</ele>
        <time>2014-7-5T8:55:18.000Z</time>
      </trkpt>
      <trkpt lat="44.54779" lon="0.69517">
        <ele>91.5</ele>
        <time>2014-7-5T8:55:18.000Z</time>
      </trkpt>
      <trkpt lat="44.54781" lon="0.6952">
        <ele>92.5</ele>
        <time>2014-7-5T8:55:18.000Z</time>
      </trkpt>
      <trkpt lat="44.54782" lon="0.69522">
        <ele>92.5</ele>
        <time>2014-7-5T8:55:18.000Z</time>
      </trkpt>
      <trkpt lat="44.54783" lon="0.69524">
        <ele>92.5</ele>
        <time>2014-7-5T8:55:18.000Z</time>
      </trkpt>
      <trkpt lat="44.54784" lon="0.69527">
        <ele>91.5</ele>
        <time>2014-7-5T8:55:18.000Z</time>
      </trkpt>
      <trkpt lat="44.54784" lon="0.69532">
        <ele>91.5</ele>
        <time>2014-7-5T8:55:18.000Z</time>
      </trkpt>
      <trkpt lat="44.54784" lon="0.69535">
        <ele>91.5</ele>
        <time>2014-7-5T8:55:18.000Z</time>
      </trkpt>
      <trkpt lat="44.54785" lon="0.69537">
        <ele>92.5</ele>
        <time>2014-7-5T8:55:18.000Z</time>
      </trkpt>
      <trkpt lat="44.54785" lon="0.6954">
        <ele>92.5</ele>
        <time>2014-7-5T8:55:18.000Z</time>
      </trkpt>
      <trkpt lat="44.54785" lon="0.69544">
        <ele>92.5</ele>
        <time>2014-7-5T8:55:18.000Z</time>
      </trkpt>
      <trkpt lat="44.54786" lon="0.6955">
        <ele>92.5</ele>
        <time>2014-7-5T8:55:18.000Z</time>
      </trkpt>
      <trkpt lat="44.54786" lon="0.69554">
        <ele>92.5</ele>
        <time>2014-7-5T8:55:18.000Z</time>
      </trkpt>
      <trkpt lat="44.54787" lon="0.69557">
        <ele>92.5</ele>
        <time>2014-7-5T8:55:18.000Z</time>
      </trkpt>
      <trkpt lat="44.54787" lon="0.69561">
        <ele>92.5</ele>
        <time>2014-7-5T8:55:18.000Z</time>
      </trkpt>
      <trkpt lat="44.54787" lon="0.69564">
        <ele>92.5</ele>
        <time>2014-7-5T8:55:18.000Z</time>
      </trkpt>
      <trkpt lat="44.54787" lon="0.69568">
        <ele>92.5</ele>
        <time>2014-7-5T8:55:18.000Z</time>
      </trkpt>
      <trkpt lat="44.54787" lon="0.69572">
        <ele>92.5</ele>
        <time>2014-7-5T8:55:18.000Z</time>
      </trkpt>
      <trkpt lat="44.54788" lon="0.69576">
        <ele>93.5</ele>
        <time>2014-7-5T8:55:18.000Z</time>
      </trkpt>
      <trkpt lat="44.54788" lon="0.69581">
        <ele>94.5</ele>
        <time>2014-7-5T8:55:18.000Z</time>
      </trkpt>
      <trkpt lat="44.54788" lon="0.69585">
        <ele>94.5</ele>
        <time>2014-7-5T8:55:18.000Z</time>
      </trkpt>
      <trkpt lat="44.54788" lon="0.69589">
        <ele>95.5</ele>
        <time>2014-7-5T8:55:18.000Z</time>
      </trkpt>
      <trkpt lat="44.54789" lon="0.69592">
        <ele>95.5</ele>
        <time>2014-7-5T8:55:18.000Z</time>
      </trkpt>
      <trkpt lat="44.54789" lon="0.69595">
        <ele>95.5</ele>
        <time>2014-7-5T8:55:18.000Z</time>
      </trkpt>
      <trkpt lat="44.5479" lon="0.69598">
        <ele>95.5</ele>
        <time>2014-7-5T8:55:18.000Z</time>
      </trkpt>
      <trkpt lat="44.5479" lon="0.69602">
        <ele>96.5</ele>
        <time>2014-7-5T8:55:18.000Z</time>
      </trkpt>
      <trkpt lat="44.5479" lon="0.69605">
        <ele>96.5</ele>
        <time>2014-7-5T8:55:18.000Z</time>
      </trkpt>
      <trkpt lat="44.5479" lon="0.69609">
        <ele>96.5</ele>
        <time>2014-7-5T8:55:18.000Z</time>
      </trkpt>
      <trkpt lat="44.54791" lon="0.69613">
        <ele>96.5</ele>
        <time>2014-7-5T8:55:18.000Z</time>
      </trkpt>
      <trkpt lat="44.54791" lon="0.69617">
        <ele>96.5</ele>
        <time>2014-7-5T8:55:18.000Z</time>
      </trkpt>
      <trkpt lat="44.54791" lon="0.69621">
        <ele>96.5</ele>
        <time>2014-7-5T8:55:18.000Z</time>
      </trkpt>
      <trkpt lat="44.54792" lon="0.69625">
        <ele>96.5</ele>
        <time>2014-7-5T8:55:18.000Z</time>
      </trkpt>
      <trkpt lat="44.54792" lon="0.69629">
        <ele>97.5</ele>
        <time>2014-7-5T8:55:18.000Z</time>
      </trkpt>
      <trkpt lat="44.54793" lon="0.69633">
        <ele>97.5</ele>
        <time>2014-7-5T8:55:18.000Z</time>
      </trkpt>
      <trkpt lat="44.54793" lon="0.69637">
        <ele>97.5</ele>
        <time>2014-7-5T8:55:18.000Z</time>
      </trkpt>
      <trkpt lat="44.54793" lon="0.69641">
        <ele>97.5</ele>
        <time>2014-7-5T8:55:18.000Z</time>
      </trkpt>
      <trkpt lat="44.54794" lon="0.69649">
        <ele>98.5</ele>
        <time>2014-7-5T8:55:18.000Z</time>
      </trkpt>
      <trkpt lat="44.54794" lon="0.69654">
        <ele>98.5</ele>
        <time>2014-7-5T8:55:18.000Z</time>
      </trkpt>
      <trkpt lat="44.54794" lon="0.69658">
        <ele>98.5</ele>
        <time>2014-7-5T8:55:18.000Z</time>
      </trkpt>
      <trkpt lat="44.54795" lon="0.69662">
        <ele>98.5</ele>
        <time>2014-7-5T8:55:18.000Z</time>
      </trkpt>
      <trkpt lat="44.54795" lon="0.69666">
        <ele>98.5</ele>
        <time>2014-7-5T8:55:18.000Z</time>
      </trkpt>
      <trkpt lat="44.54795" lon="0.6967">
        <ele>98.5</ele>
        <time>2014-7-5T8:55:18.000Z</time>
      </trkpt>
      <trkpt lat="44.54796" lon="0.69675">
        <ele>98.5</ele>
        <time>2014-7-5T8:55:18.000Z</time>
      </trkpt>
      <trkpt lat="44.54796" lon="0.69678">
        <ele>98.5</ele>
        <time>2014-7-5T8:55:18.000Z</time>
      </trkpt>
      <trkpt lat="44.54797" lon="0.69682">
        <ele>98.5</ele>
        <time>2014-7-5T8:55:18.000Z</time>
      </trkpt>
      <trkpt lat="44.54797" lon="0.69686">
        <ele>98.5</ele>
        <time>2014-7-5T8:55:18.000Z</time>
      </trkpt>
      <trkpt lat="44.54797" lon="0.6969">
        <ele>98.5</ele>
        <time>2014-7-5T8:55:18.000Z</time>
      </trkpt>
      <trkpt lat="44.54797" lon="0.69694">
        <ele>98.5</ele>
        <time>2014-7-5T8:55:18.000Z</time>
      </trkpt>
      <trkpt lat="44.54798" lon="0.69698">
        <ele>98.5</ele>
        <time>2014-7-5T8:55:18.000Z</time>
      </trkpt>
      <trkpt lat="44.54798" lon="0.69702">
        <ele>98.5</ele>
        <time>2014-7-5T8:55:18.000Z</time>
      </trkpt>
      <trkpt lat="44.54798" lon="0.69706">
        <ele>97.5</ele>
        <time>2014-7-5T8:55:18.000Z</time>
      </trkpt>
      <trkpt lat="44.54798" lon="0.6971">
        <ele>98.5</ele>
        <time>2014-7-5T8:55:18.000Z</time>
      </trkpt>
      <trkpt lat="44.54799" lon="0.69714">
        <ele>98.5</ele>
        <time>2014-7-5T8:55:18.000Z</time>
      </trkpt>
      <trkpt lat="44.54799" lon="0.69719">
        <ele>98.5</ele>
        <time>2014-7-5T8:55:18.000Z</time>
      </trkpt>
      <trkpt lat="44.54799" lon="0.69722">
        <ele>98.5</ele>
        <time>2014-7-5T8:55:18.000Z</time>
      </trkpt>
      <trkpt lat="44.548" lon="0.69726">
        <ele>98.5</ele>
        <time>2014-7-5T8:55:18.000Z</time>
      </trkpt>
      <trkpt lat="44.548" lon="0.69731">
        <ele>98.5</ele>
        <time>2014-7-5T8:55:18.000Z</time>
      </trkpt>
      <trkpt lat="44.548" lon="0.69735">
        <ele>98.5</ele>
        <time>2014-7-5T8:55:18.000Z</time>
      </trkpt>
      <trkpt lat="44.548" lon="0.69739">
        <ele>98.5</ele>
        <time>2014-7-5T8:55:18.000Z</time>
      </trkpt>
      <trkpt lat="44.548" lon="0.69747">
        <ele>99.5</ele>
        <time>2014-7-5T8:57:11.000Z</time>
      </trkpt>
      <trkpt lat="44.54801" lon="0.69751">
        <ele>99.5</ele>
        <time>2014-7-5T8:57:11.000Z</time>
      </trkpt>
      <trkpt lat="44.54803" lon="0.69755">
        <ele>98.5</ele>
        <time>2014-7-5T8:57:11.000Z</time>
      </trkpt>
      <trkpt lat="44.54805" lon="0.69758">
        <ele>99.5</ele>
        <time>2014-7-5T8:57:11.000Z</time>
      </trkpt>
      <trkpt lat="44.54807" lon="0.69761">
        <ele>99.5</ele>
        <time>2014-7-5T8:57:11.000Z</time>
      </trkpt>
      <trkpt lat="44.54808" lon="0.69763">
        <ele>99.5</ele>
        <time>2014-7-5T8:57:11.000Z</time>
      </trkpt>
      <trkpt lat="44.54811" lon="0.69766">
        <ele>99.5</ele>
        <time>2014-7-5T8:57:11.000Z</time>
      </trkpt>
      <trkpt lat="44.54813" lon="0.69771">
        <ele>99.5</ele>
        <time>2014-7-5T8:57:11.000Z</time>
      </trkpt>
      <trkpt lat="44.54814" lon="0.69773">
        <ele>100.5</ele>
        <time>2014-7-5T8:57:11.000Z</time>
      </trkpt>
      <trkpt lat="44.54815" lon="0.69775">
        <ele>100.5</ele>
        <time>2014-7-5T8:57:11.000Z</time>
      </trkpt>
      <trkpt lat="44.54816" lon="0.69778">
        <ele>100.5</ele>
        <time>2014-7-5T8:57:11.000Z</time>
      </trkpt>
      <trkpt lat="44.54817" lon="0.6978">
        <ele>100.5</ele>
        <time>2014-7-5T8:57:11.000Z</time>
      </trkpt>
      <trkpt lat="44.54818" lon="0.69783">
        <ele>100.5</ele>
        <time>2014-7-5T8:57:11.000Z</time>
      </trkpt>
      <trkpt lat="44.54818" lon="0.69786">
        <ele>100.5</ele>
        <time>2014-7-5T8:57:11.000Z</time>
      </trkpt>
      <trkpt lat="44.54818" lon="0.6979">
        <ele>101.5</ele>
        <time>2014-7-5T8:57:11.000Z</time>
      </trkpt>
      <trkpt lat="44.54818" lon="0.69794">
        <ele>101.5</ele>
        <time>2014-7-5T8:57:11.000Z</time>
      </trkpt>
      <trkpt lat="44.54819" lon="0.69797">
        <ele>101.5</ele>
        <time>2014-7-5T8:57:11.000Z</time>
      </trkpt>
      <trkpt lat="44.54819" lon="0.698">
        <ele>101.5</ele>
        <time>2014-7-5T8:57:11.000Z</time>
      </trkpt>
      <trkpt lat="44.54819" lon="0.69804">
        <ele>101.5</ele>
        <time>2014-7-5T8:57:11.000Z</time>
      </trkpt>
      <trkpt lat="44.54819" lon="0.69807">
        <ele>101.5</ele>
        <time>2014-7-5T8:57:11.000Z</time>
      </trkpt>
      <trkpt lat="44.5482" lon="0.69809">
        <ele>102.5</ele>
        <time>2014-7-5T8:57:11.000Z</time>
      </trkpt>
      <trkpt lat="44.54821" lon="0.69814">
        <ele>102.5</ele>
        <time>2014-7-5T8:57:11.000Z</time>
      </trkpt>
      <trkpt lat="44.54822" lon="0.69817">
        <ele>103.5</ele>
        <time>2014-7-5T8:57:11.000Z</time>
      </trkpt>
      <trkpt lat="44.5482" lon="0.69821">
        <ele>103.5</ele>
        <time>2014-7-5T8:57:11.000Z</time>
      </trkpt>
      <trkpt lat="44.54818" lon="0.69823">
        <ele>103.5</ele>
        <time>2014-7-5T8:57:11.000Z</time>
      </trkpt>
      <trkpt lat="44.54815" lon="0.69825">
        <ele>104.5</ele>
        <time>2014-7-5T8:57:11.000Z</time>
      </trkpt>
      <trkpt lat="44.54812" lon="0.69827">
        <ele>103.5</ele>
        <time>2014-7-5T8:57:11.000Z</time>
      </trkpt>
      <trkpt lat="44.5481" lon="0.69829">
        <ele>103.5</ele>
        <time>2014-7-5T8:57:11.000Z</time>
      </trkpt>
      <trkpt lat="44.54808" lon="0.69832">
        <ele>103.5</ele>
        <time>2014-7-5T8:57:11.000Z</time>
      </trkpt>
      <trkpt lat="44.54805" lon="0.69833">
        <ele>103.5</ele>
        <time>2014-7-5T8:57:11.000Z</time>
      </trkpt>
      <trkpt lat="44.54803" lon="0.69833">
        <ele>103.5</ele>
        <time>2014-7-5T8:57:11.000Z</time>
      </trkpt>
      <trkpt lat="44.54799" lon="0.69833">
        <ele>104.5</ele>
        <time>2014-7-5T8:57:11.000Z</time>
      </trkpt>
      <trkpt lat="44.54797" lon="0.69834">
        <ele>104.5</ele>
        <time>2014-7-5T8:57:11.000Z</time>
      </trkpt>
      <trkpt lat="44.54795" lon="0.69833">
        <ele>104.5</ele>
        <time>2014-7-5T8:57:11.000Z</time>
      </trkpt>
      <trkpt lat="44.54793" lon="0.69833">
        <ele>104.5</ele>
        <time>2014-7-5T8:57:11.000Z</time>
      </trkpt>
      <trkpt lat="44.54791" lon="0.69834">
        <ele>104.5</ele>
        <time>2014-7-5T8:57:11.000Z</time>
      </trkpt>
      <trkpt lat="44.54789" lon="0.69834">
        <ele>103.5</ele>
        <time>2014-7-5T8:57:11.000Z</time>
      </trkpt>
      <trkpt lat="44.54787" lon="0.69835">
        <ele>103.5</ele>
        <time>2014-7-5T8:57:11.000Z</time>
      </trkpt>
      <trkpt lat="44.54785" lon="0.69835">
        <ele>103.5</ele>
        <time>2014-7-5T8:57:11.000Z</time>
      </trkpt>
      <trkpt lat="44.54783" lon="0.69836">
        <ele>103.5</ele>
        <time>2014-7-5T8:57:11.000Z</time>
      </trkpt>
      <trkpt lat="44.5478" lon="0.69837">
        <ele>103.5</ele>
        <time>2014-7-5T8:57:11.000Z</time>
      </trkpt>
      <trkpt lat="44.54777" lon="0.69838">
        <ele>103.5</ele>
        <time>2014-7-5T8:57:11.000Z</time>
      </trkpt>
      <trkpt lat="44.54775" lon="0.69839">
        <ele>103.5</ele>
        <time>2014-7-5T8:57:11.000Z</time>
      </trkpt>
      <trkpt lat="44.54772" lon="0.6984">
        <ele>103.5</ele>
        <time>2014-7-5T8:57:11.000Z</time>
      </trkpt>
      <trkpt lat="44.5477" lon="0.69841">
        <ele>103.5</ele>
        <time>2014-7-5T8:57:11.000Z</time>
      </trkpt>
      <trkpt lat="44.54768" lon="0.69841">
        <ele>103.5</ele>
        <time>2014-7-5T8:57:11.000Z</time>
      </trkpt>
      <trkpt lat="44.54765" lon="0.69841">
        <ele>103.5</ele>
        <time>2014-7-5T8:57:11.000Z</time>
      </trkpt>
      <trkpt lat="44.54763" lon="0.69842">
        <ele>103.5</ele>
        <time>2014-7-5T8:57:11.000Z</time>
      </trkpt>
      <trkpt lat="44.5476" lon="0.69842">
        <ele>103.5</ele>
        <time>2014-7-5T8:57:11.000Z</time>
      </trkpt>
      <trkpt lat="44.54755" lon="0.69841">
        <ele>104.5</ele>
        <time>2014-7-5T8:57:11.000Z</time>
      </trkpt>
      <trkpt lat="44.54752" lon="0.6984">
        <ele>104.5</ele>
        <time>2014-7-5T8:57:11.000Z</time>
      </trkpt>
      <trkpt lat="44.5475" lon="0.69839">
        <ele>104.5</ele>
        <time>2014-7-5T8:57:11.000Z</time>
      </trkpt>
      <trkpt lat="44.54747" lon="0.69838">
        <ele>104.5</ele>
        <time>2014-7-5T8:57:11.000Z</time>
      </trkpt>
      <trkpt lat="44.54745" lon="0.69837">
        <ele>105.5</ele>
        <time>2014-7-5T8:57:11.000Z</time>
      </trkpt>
      <trkpt lat="44.54742" lon="0.69837">
        <ele>106.5</ele>
        <time>2014-7-5T8:57:11.000Z</time>
      </trkpt>
      <trkpt lat="44.5474" lon="0.69836">
        <ele>106.5</ele>
        <time>2014-7-5T8:57:11.000Z</time>
      </trkpt>
      <trkpt lat="44.54738" lon="0.69836">
        <ele>106.5</ele>
        <time>2014-7-5T8:57:11.000Z</time>
      </trkpt>
      <trkpt lat="44.54736" lon="0.69837">
        <ele>105.5</ele>
        <time>2014-7-5T8:57:11.000Z</time>
      </trkpt>
      <trkpt lat="44.54735" lon="0.69838">
        <ele>105.5</ele>
        <time>2014-7-5T8:57:11.000Z</time>
      </trkpt>
      <trkpt lat="44.54732" lon="0.69841">
        <ele>106.5</ele>
        <time>2014-7-5T8:57:11.000Z</time>
      </trkpt>
      <trkpt lat="44.5473" lon="0.69842">
        <ele>106.5</ele>
        <time>2014-7-5T8:57:11.000Z</time>
      </trkpt>
      <trkpt lat="44.54729" lon="0.69844">
        <ele>106.5</ele>
        <time>2014-7-5T8:57:11.000Z</time>
      </trkpt>
      <trkpt lat="44.54728" lon="0.69846">
        <ele>107.5</ele>
        <time>2014-7-5T8:57:11.000Z</time>
      </trkpt>
      <trkpt lat="44.54725" lon="0.6985">
        <ele>108.5</ele>
        <time>2014-7-5T8:57:11.000Z</time>
      </trkpt>
      <trkpt lat="44.54724" lon="0.69852">
        <ele>107.5</ele>
        <time>2014-7-5T8:57:11.000Z</time>
      </trkpt>
      <trkpt lat="44.54723" lon="0.69854">
        <ele>108.5</ele>
        <time>2014-7-5T8:57:11.000Z</time>
      </trkpt>
      <trkpt lat="44.54722" lon="0.69856">
        <ele>108.5</ele>
        <time>2014-7-5T8:57:11.000Z</time>
      </trkpt>
      <trkpt lat="44.54721" lon="0.69859">
        <ele>108.5</ele>
        <time>2014-7-5T8:57:11.000Z</time>
      </trkpt>
      <trkpt lat="44.5472" lon="0.69861">
        <ele>108.5</ele>
        <time>2014-7-5T8:57:11.000Z</time>
      </trkpt>
      <trkpt lat="44.54719" lon="0.69864">
        <ele>109.5</ele>
        <time>2014-7-5T8:57:11.000Z</time>
      </trkpt>
      <trkpt lat="44.54719" lon="0.69867">
        <ele>108.5</ele>
        <time>2014-7-5T8:57:11.000Z</time>
      </trkpt>
      <trkpt lat="44.54719" lon="0.6987">
        <ele>107.5</ele>
        <time>2014-7-5T8:57:11.000Z</time>
      </trkpt>
      <trkpt lat="44.54718" lon="0.69873">
        <ele>107.5</ele>
        <time>2014-7-5T8:57:11.000Z</time>
      </trkpt>
      <trkpt lat="44.54718" lon="0.69876">
        <ele>107.5</ele>
        <time>2014-7-5T8:57:11.000Z</time>
      </trkpt>
      <trkpt lat="44.54717" lon="0.6988">
        <ele>107.5</ele>
        <time>2014-7-5T8:57:11.000Z</time>
      </trkpt>
      <trkpt lat="44.54717" lon="0.69884">
        <ele>107.5</ele>
        <time>2014-7-5T8:57:11.000Z</time>
      </trkpt>
      <trkpt lat="44.54717" lon="0.69888">
        <ele>107.5</ele>
        <time>2014-7-5T8:57:11.000Z</time>
      </trkpt>
      <trkpt lat="44.54717" lon="0.69892">
        <ele>107.5</ele>
        <time>2014-7-5T8:57:11.000Z</time>
      </trkpt>
      <trkpt lat="44.54718" lon="0.69895">
        <ele>107.5</ele>
        <time>2014-7-5T8:57:11.000Z</time>
      </trkpt>
      <trkpt lat="44.54718" lon="0.69899">
        <ele>107.5</ele>
        <time>2014-7-5T8:57:11.000Z</time>
      </trkpt>
      <trkpt lat="44.54718" lon="0.69904">
        <ele>107.5</ele>
        <time>2014-7-5T8:57:11.000Z</time>
      </trkpt>
      <trkpt lat="44.54719" lon="0.69907">
        <ele>107.5</ele>
        <time>2014-7-5T8:57:11.000Z</time>
      </trkpt>
      <trkpt lat="44.54719" lon="0.69911">
        <ele>107.5</ele>
        <time>2014-7-5T8:57:11.000Z</time>
      </trkpt>
      <trkpt lat="44.5472" lon="0.69915">
        <ele>107.5</ele>
        <time>2014-7-5T8:57:11.000Z</time>
      </trkpt>
      <trkpt lat="44.54721" lon="0.69919">
        <ele>107.5</ele>
        <time>2014-7-5T8:57:11.000Z</time>
      </trkpt>
      <trkpt lat="44.54721" lon="0.69923">
        <ele>107.5</ele>
        <time>2014-7-5T8:57:11.000Z</time>
      </trkpt>
      <trkpt lat="44.54722" lon="0.69926">
        <ele>108.5</ele>
        <time>2014-7-5T8:57:11.000Z</time>
      </trkpt>
      <trkpt lat="44.54723" lon="0.6993">
        <ele>108.5</ele>
        <time>2014-7-5T8:57:11.000Z</time>
      </trkpt>
      <trkpt lat="44.54724" lon="0.69934">
        <ele>108.5</ele>
        <time>2014-7-5T8:57:11.000Z</time>
      </trkpt>
      <trkpt lat="44.54724" lon="0.69938">
        <ele>108.5</ele>
        <time>2014-7-5T8:57:11.000Z</time>
      </trkpt>
      <trkpt lat="44.54725" lon="0.69942">
        <ele>108.5</ele>
        <time>2014-7-5T8:57:11.000Z</time>
      </trkpt>
      <trkpt lat="44.54725" lon="0.69945">
        <ele>109.5</ele>
        <time>2014-7-5T8:57:11.000Z</time>
      </trkpt>
      <trkpt lat="44.54726" lon="0.69949">
        <ele>109.5</ele>
        <time>2014-7-5T8:57:11.000Z</time>
      </trkpt>
      <trkpt lat="44.54727" lon="0.69953">
        <ele>109.5</ele>
        <time>2014-7-5T8:57:11.000Z</time>
      </trkpt>
      <trkpt lat="44.54727" lon="0.69957">
        <ele>109.5</ele>
        <time>2014-7-5T8:57:11.000Z</time>
      </trkpt>
      <trkpt lat="44.54728" lon="0.69961">
        <ele>109.5</ele>
        <time>2014-7-5T8:57:11.000Z</time>
      </trkpt>
      <trkpt lat="44.54728" lon="0.69965">
        <ele>109.5</ele>
        <time>2014-7-5T8:57:11.000Z</time>
      </trkpt>
      <trkpt lat="44.54729" lon="0.69968">
        <ele>109.5</ele>
        <time>2014-7-5T8:57:11.000Z</time>
      </trkpt>
      <trkpt lat="44.5473" lon="0.69972">
        <ele>110.5</ele>
        <time>2014-7-5T8:57:11.000Z</time>
      </trkpt>
      <trkpt lat="44.54731" lon="0.69976">
        <ele>110.5</ele>
        <time>2014-7-5T8:57:11.000Z</time>
      </trkpt>
      <trkpt lat="44.54731" lon="0.69979">
        <ele>110.5</ele>
        <time>2014-7-5T8:57:11.000Z</time>
      </trkpt>
      <trkpt lat="44.54732" lon="0.69984">
        <ele>110.5</ele>
        <time>2014-7-5T8:58:55.000Z</time>
      </trkpt>
      <trkpt lat="44.54733" lon="0.69987">
        <ele>110.5</ele>
        <time>2014-7-5T8:58:55.000Z</time>
      </trkpt>
      <trkpt lat="44.54733" lon="0.69991">
        <ele>110.5</ele>
        <time>2014-7-5T8:58:55.000Z</time>
      </trkpt>
      <trkpt lat="44.54734" lon="0.69995">
        <ele>110.5</ele>
        <time>2014-7-5T8:58:55.000Z</time>
      </trkpt>
      <trkpt lat="44.54734" lon="0.69999">
        <ele>110.5</ele>
        <time>2014-7-5T8:58:55.000Z</time>
      </trkpt>
      <trkpt lat="44.54735" lon="0.70002">
        <ele>111.5</ele>
        <time>2014-7-5T8:58:55.000Z</time>
      </trkpt>
      <trkpt lat="44.54736" lon="0.70006">
        <ele>111.5</ele>
        <time>2014-7-5T8:58:55.000Z</time>
      </trkpt>
      <trkpt lat="44.54737" lon="0.70009">
        <ele>110.5</ele>
        <time>2014-7-5T8:58:55.000Z</time>
      </trkpt>
      <trkpt lat="44.54737" lon="0.70013">
        <ele>110.5</ele>
        <time>2014-7-5T8:58:55.000Z</time>
      </trkpt>
      <trkpt lat="44.54738" lon="0.70017">
        <ele>110.5</ele>
        <time>2014-7-5T8:58:55.000Z</time>
      </trkpt>
      <trkpt lat="44.54739" lon="0.70021">
        <ele>110.5</ele>
        <time>2014-7-5T8:58:55.000Z</time>
      </trkpt>
      <trkpt lat="44.54739" lon="0.70025">
        <ele>110.5</ele>
        <time>2014-7-5T8:58:55.000Z</time>
      </trkpt>
      <trkpt lat="44.5474" lon="0.70028">
        <ele>110.5</ele>
        <time>2014-7-5T8:58:55.000Z</time>
      </trkpt>
      <trkpt lat="44.54741" lon="0.70032">
        <ele>111.5</ele>
        <time>2014-7-5T8:58:55.000Z</time>
      </trkpt>
      <trkpt lat="44.54741" lon="0.70035">
        <ele>111.5</ele>
        <time>2014-7-5T8:58:55.000Z</time>
      </trkpt>
      <trkpt lat="44.54742" lon="0.70039">
        <ele>111.5</ele>
        <time>2014-7-5T8:58:55.000Z</time>
      </trkpt>
      <trkpt lat="44.54743" lon="0.70043">
        <ele>111.5</ele>
        <time>2014-7-5T8:58:55.000Z</time>
      </trkpt>
      <trkpt lat="44.54743" lon="0.70046">
        <ele>111.5</ele>
        <time>2014-7-5T8:58:55.000Z</time>
      </trkpt>
      <trkpt lat="44.54743" lon="0.7005">
        <ele>111.5</ele>
        <time>2014-7-5T8:58:55.000Z</time>
      </trkpt>
      <trkpt lat="44.54742" lon="0.70054">
        <ele>111.5</ele>
        <time>2014-7-5T8:58:55.000Z</time>
      </trkpt>
      <trkpt lat="44.54741" lon="0.70057">
        <ele>111.5</ele>
        <time>2014-7-5T8:58:55.000Z</time>
      </trkpt>
      <trkpt lat="44.54739" lon="0.70059">
        <ele>111.5</ele>
        <time>2014-7-5T8:58:55.000Z</time>
      </trkpt>
      <trkpt lat="44.54736" lon="0.7006">
        <ele>111.5</ele>
        <time>2014-7-5T8:58:55.000Z</time>
      </trkpt>
      <trkpt lat="44.54733" lon="0.70062">
        <ele>111.5</ele>
        <time>2014-7-5T8:58:55.000Z</time>
      </trkpt>
      <trkpt lat="44.5473" lon="0.70063">
        <ele>111.5</ele>
        <time>2014-7-5T8:58:55.000Z</time>
      </trkpt>
      <trkpt lat="44.54728" lon="0.70064">
        <ele>111.5</ele>
        <time>2014-7-5T8:58:55.000Z</time>
      </trkpt>
      <trkpt lat="44.54725" lon="0.70065">
        <ele>111.5</ele>
        <time>2014-7-5T8:58:55.000Z</time>
      </trkpt>
      <trkpt lat="44.54723" lon="0.70066">
        <ele>111.5</ele>
        <time>2014-7-5T8:58:55.000Z</time>
      </trkpt>
      <trkpt lat="44.5472" lon="0.70068">
        <ele>111.5</ele>
        <time>2014-7-5T8:58:55.000Z</time>
      </trkpt>
      <trkpt lat="44.54718" lon="0.70069">
        <ele>111.5</ele>
        <time>2014-7-5T8:58:55.000Z</time>
      </trkpt>
      <trkpt lat="44.54716" lon="0.7007">
        <ele>111.5</ele>
        <time>2014-7-5T8:58:55.000Z</time>
      </trkpt>
      <trkpt lat="44.54713" lon="0.70072">
        <ele>111.5</ele>
        <time>2014-7-5T8:58:55.000Z</time>
      </trkpt>
      <trkpt lat="44.54711" lon="0.70073">
        <ele>111.5</ele>
        <time>2014-7-5T8:58:55.000Z</time>
      </trkpt>
      <trkpt lat="44.54708" lon="0.70074">
        <ele>111.5</ele>
        <time>2014-7-5T8:58:55.000Z</time>
      </trkpt>
      <trkpt lat="44.54706" lon="0.70076">
        <ele>111.5</ele>
        <time>2014-7-5T8:58:55.000Z</time>
      </trkpt>
      <trkpt lat="44.54703" lon="0.70078">
        <ele>111.5</ele>
        <time>2014-7-5T8:58:55.000Z</time>
      </trkpt>
      <trkpt lat="44.54701" lon="0.70079">
        <ele>111.5</ele>
        <time>2014-7-5T8:58:55.000Z</time>
      </trkpt>
      <trkpt lat="44.54699" lon="0.70081">
        <ele>111.5</ele>
        <time>2014-7-5T8:58:55.000Z</time>
      </trkpt>
      <trkpt lat="44.54696" lon="0.70082">
        <ele>111.5</ele>
        <time>2014-7-5T8:58:55.000Z</time>
      </trkpt>
      <trkpt lat="44.54694" lon="0.70083">
        <ele>111.5</ele>
        <time>2014-7-5T8:58:55.000Z</time>
      </trkpt>
      <trkpt lat="44.54691" lon="0.70085">
        <ele>111.5</ele>
        <time>2014-7-5T8:58:55.000Z</time>
      </trkpt>
      <trkpt lat="44.54689" lon="0.70086">
        <ele>111.5</ele>
        <time>2014-7-5T8:58:55.000Z</time>
      </trkpt>
      <trkpt lat="44.54684" lon="0.70089">
        <ele>111.5</ele>
        <time>2014-7-5T8:58:55.000Z</time>
      </trkpt>
      <trkpt lat="44.54682" lon="0.70091">
        <ele>111.5</ele>
        <time>2014-7-5T8:58:55.000Z</time>
      </trkpt>
      <trkpt lat="44.54679" lon="0.70093">
        <ele>111.5</ele>
        <time>2014-7-5T8:58:55.000Z</time>
      </trkpt>
      <trkpt lat="44.54677" lon="0.70094">
        <ele>111.5</ele>
        <time>2014-7-5T8:58:55.000Z</time>
      </trkpt>
      <trkpt lat="44.54675" lon="0.70096">
        <ele>111.5</ele>
        <time>2014-7-5T8:58:55.000Z</time>
      </trkpt>
      <trkpt lat="44.54672" lon="0.70098">
        <ele>111.5</ele>
        <time>2014-7-5T8:58:55.000Z</time>
      </trkpt>
      <trkpt lat="44.5467" lon="0.70099">
        <ele>111.5</ele>
        <time>2014-7-5T8:58:55.000Z</time>
      </trkpt>
      <trkpt lat="44.54668" lon="0.70101">
        <ele>111.5</ele>
        <time>2014-7-5T8:58:55.000Z</time>
      </trkpt>
      <trkpt lat="44.54665" lon="0.70103">
        <ele>111.5</ele>
        <time>2014-7-5T8:58:55.000Z</time>
      </trkpt>
      <trkpt lat="44.54663" lon="0.70104">
        <ele>111.5</ele>
        <time>2014-7-5T8:58:55.000Z</time>
      </trkpt>
      <trkpt lat="44.5466" lon="0.70106">
        <ele>111.5</ele>
        <time>2014-7-5T8:58:55.000Z</time>
      </trkpt>
      <trkpt lat="44.54658" lon="0.70107">
        <ele>111.5</ele>
        <time>2014-7-5T8:58:55.000Z</time>
      </trkpt>
      <trkpt lat="44.54656" lon="0.70109">
        <ele>111.5</ele>
        <time>2014-7-5T8:58:55.000Z</time>
      </trkpt>
      <trkpt lat="44.54654" lon="0.7011">
        <ele>110.5</ele>
        <time>2014-7-5T8:58:55.000Z</time>
      </trkpt>
      <trkpt lat="44.54651" lon="0.70112">
        <ele>110.5</ele>
        <time>2014-7-5T8:58:55.000Z</time>
      </trkpt>
      <trkpt lat="44.54649" lon="0.70114">
        <ele>110.5</ele>
        <time>2014-7-5T8:58:55.000Z</time>
      </trkpt>
      <trkpt lat="44.54646" lon="0.70116">
        <ele>110.5</ele>
        <time>2014-7-5T8:58:55.000Z</time>
      </trkpt>
      <trkpt lat="44.54643" lon="0.70118">
        <ele>110.5</ele>
        <time>2014-7-5T8:58:55.000Z</time>
      </trkpt>
      <trkpt lat="44.54639" lon="0.70121">
        <ele>110.5</ele>
        <time>2014-7-5T8:58:55.000Z</time>
      </trkpt>
      <trkpt lat="44.54636" lon="0.70123">
        <ele>110.5</ele>
        <time>2014-7-5T8:58:55.000Z</time>
      </trkpt>
      <trkpt lat="44.54633" lon="0.70125">
        <ele>109.5</ele>
        <time>2014-7-5T8:58:55.000Z</time>
      </trkpt>
      <trkpt lat="44.5463" lon="0.70127">
        <ele>109.5</ele>
        <time>2014-7-5T8:58:55.000Z</time>
      </trkpt>
      <trkpt lat="44.54627" lon="0.7013">
        <ele>109.5</ele>
        <time>2014-7-5T8:58:55.000Z</time>
      </trkpt>
      <trkpt lat="44.54624" lon="0.70132">
        <ele>108.5</ele>
        <time>2014-7-5T8:58:55.000Z</time>
      </trkpt>
      <trkpt lat="44.54621" lon="0.70134">
        <ele>108.5</ele>
        <time>2014-7-5T8:58:55.000Z</time>
      </trkpt>
      <trkpt lat="44.54618" lon="0.70136">
        <ele>108.5</ele>
        <time>2014-7-5T8:58:55.000Z</time>
      </trkpt>
      <trkpt lat="44.54615" lon="0.70138">
        <ele>108.5</ele>
        <time>2014-7-5T8:58:55.000Z</time>
      </trkpt>
      <trkpt lat="44.54612" lon="0.7014">
        <ele>108.5</ele>
        <time>2014-7-5T8:58:55.000Z</time>
      </trkpt>
      <trkpt lat="44.54609" lon="0.70143">
        <ele>107.5</ele>
        <time>2014-7-5T8:58:55.000Z</time>
      </trkpt>
      <trkpt lat="44.54606" lon="0.70145">
        <ele>107.5</ele>
        <time>2014-7-5T8:58:55.000Z</time>
      </trkpt>
      <trkpt lat="44.54603" lon="0.70147">
        <ele>107.5</ele>
        <time>2014-7-5T8:58:55.000Z</time>
      </trkpt>
      <trkpt lat="44.54599" lon="0.7015">
        <ele>107.5</ele>
        <time>2014-7-5T8:58:55.000Z</time>
      </trkpt>
      <trkpt lat="44.54595" lon="0.70153">
        <ele>107.5</ele>
        <time>2014-7-5T8:58:55.000Z</time>
      </trkpt>
      <trkpt lat="44.54591" lon="0.70155">
        <ele>106.5</ele>
        <time>2014-7-5T8:58:55.000Z</time>
      </trkpt>
      <trkpt lat="44.54587" lon="0.70158">
        <ele>106.5</ele>
        <time>2014-7-5T8:58:55.000Z</time>
      </trkpt>
      <trkpt lat="44.54584" lon="0.7016">
        <ele>106.5</ele>
        <time>2014-7-5T8:58:55.000Z</time>
      </trkpt>
      <trkpt lat="44.5458" lon="0.70163">
        <ele>106.5</ele>
        <time>2014-7-5T8:58:55.000Z</time>
      </trkpt>
      <trkpt lat="44.54577" lon="0.70165">
        <ele>106.5</ele>
        <time>2014-7-5T8:58:55.000Z</time>
      </trkpt>
      <trkpt lat="44.54573" lon="0.70168">
        <ele>106.5</ele>
        <time>2014-7-5T8:58:55.000Z</time>
      </trkpt>
      <trkpt lat="44.5457" lon="0.7017">
        <ele>106.5</ele>
        <time>2014-7-5T8:58:55.000Z</time>
      </trkpt>
      <trkpt lat="44.54567" lon="0.70172">
        <ele>106.5</ele>
        <time>2014-7-5T8:58:55.000Z</time>
      </trkpt>
      <trkpt lat="44.54564" lon="0.70174">
        <ele>106.5</ele>
        <time>2014-7-5T8:58:55.000Z</time>
      </trkpt>
      <trkpt lat="44.5456" lon="0.70176">
        <ele>105.5</ele>
        <time>2014-7-5T8:58:55.000Z</time>
      </trkpt>
      <trkpt lat="44.54557" lon="0.70178">
        <ele>105.5</ele>
        <time>2014-7-5T8:58:55.000Z</time>
      </trkpt>
      <trkpt lat="44.54554" lon="0.70181">
        <ele>106.5</ele>
        <time>2014-7-5T8:58:55.000Z</time>
      </trkpt>
      <trkpt lat="44.54552" lon="0.70182">
        <ele>106.5</ele>
        <time>2014-7-5T8:58:55.000Z</time>
      </trkpt>
      <trkpt lat="44.54549" lon="0.70184">
        <ele>105.5</ele>
        <time>2014-7-5T8:58:55.000Z</time>
      </trkpt>
      <trkpt lat="44.54548" lon="0.70181">
        <ele>105.5</ele>
        <time>2014-7-5T8:58:55.000Z</time>
      </trkpt>
      <trkpt lat="44.5455" lon="0.70179">
        <ele>105.5</ele>
        <time>2014-7-5T8:58:55.000Z</time>
      </trkpt>
      <trkpt lat="44.54553" lon="0.70179">
        <ele>106.5</ele>
        <time>2014-7-5T8:58:55.000Z</time>
      </trkpt>
      <trkpt lat="44.54555" lon="0.70181">
        <ele>106.5</ele>
        <time>2014-7-5T8:58:55.000Z</time>
      </trkpt>
      <trkpt lat="44.54557" lon="0.70185">
        <ele>106.5</ele>
        <time>2014-7-5T8:58:55.000Z</time>
      </trkpt>
      <trkpt lat="44.54558" lon="0.70189">
        <ele>107.5</ele>
        <time>2014-7-5T8:58:55.000Z</time>
      </trkpt>
      <trkpt lat="44.54559" lon="0.70193">
        <ele>107.5</ele>
        <time>2014-7-5T8:58:55.000Z</time>
      </trkpt>
      <trkpt lat="44.54561" lon="0.70196">
        <ele>106.5</ele>
        <time>2014-7-5T8:58:55.000Z</time>
      </trkpt>
      <trkpt lat="44.54562" lon="0.702">
        <ele>107.5</ele>
        <time>2014-7-5T8:58:55.000Z</time>
      </trkpt>
      <trkpt lat="44.54563" lon="0.70204">
        <ele>107.5</ele>
        <time>2014-7-5T8:58:55.000Z</time>
      </trkpt>
      <trkpt lat="44.54564" lon="0.70207">
        <ele>107.5</ele>
        <time>2014-7-5T8:58:55.000Z</time>
      </trkpt>
      <trkpt lat="44.54564" lon="0.70211">
        <ele>107.5</ele>
        <time>2014-7-5T8:58:55.000Z</time>
      </trkpt>
      <trkpt lat="44.54564" lon="0.70214">
        <ele>107.5</ele>
        <time>2014-7-5T9:0:52.000Z</time>
      </trkpt>
      <trkpt lat="44.54566" lon="0.70214">
        <ele>107.5</ele>
        <time>2014-7-5T9:0:52.000Z</time>
      </trkpt>
      <trkpt lat="44.54566" lon="0.70211">
        <ele>108.5</ele>
        <time>2014-7-5T9:0:52.000Z</time>
      </trkpt>
      <trkpt lat="44.54566" lon="0.70208">
        <ele>108.5</ele>
        <time>2014-7-5T9:0:52.000Z</time>
      </trkpt>
      <trkpt lat="44.54564" lon="0.70203">
        <ele>108.5</ele>
        <time>2014-7-5T9:0:52.000Z</time>
      </trkpt>
      <trkpt lat="44.54563" lon="0.70198">
        <ele>108.5</ele>
        <time>2014-7-5T9:0:52.000Z</time>
      </trkpt>
      <trkpt lat="44.54561" lon="0.70194">
        <ele>108.5</ele>
        <time>2014-7-5T9:0:52.000Z</time>
      </trkpt>
      <trkpt lat="44.5456" lon="0.7019">
        <ele>108.5</ele>
        <time>2014-7-5T9:0:52.000Z</time>
      </trkpt>
      <trkpt lat="44.54559" lon="0.70186">
        <ele>108.5</ele>
        <time>2014-7-5T9:0:52.000Z</time>
      </trkpt>
      <trkpt lat="44.54557" lon="0.70182">
        <ele>109.5</ele>
        <time>2014-7-5T9:0:52.000Z</time>
      </trkpt>
      <trkpt lat="44.54554" lon="0.7018">
        <ele>108.5</ele>
        <time>2014-7-5T9:0:52.000Z</time>
      </trkpt>
      <trkpt lat="44.54551" lon="0.7018">
        <ele>108.5</ele>
        <time>2014-7-5T9:0:52.000Z</time>
      </trkpt>
      <trkpt lat="44.54548" lon="0.70181">
        <ele>108.5</ele>
        <time>2014-7-5T9:0:52.000Z</time>
      </trkpt>
      <trkpt lat="44.54545" lon="0.70183">
        <ele>108.5</ele>
        <time>2014-7-5T9:0:52.000Z</time>
      </trkpt>
      <trkpt lat="44.54541" lon="0.70185">
        <ele>108.5</ele>
        <time>2014-7-5T9:0:52.000Z</time>
      </trkpt>
      <trkpt lat="44.54537" lon="0.70187">
        <ele>108.5</ele>
        <time>2014-7-5T9:0:52.000Z</time>
      </trkpt>
      <trkpt lat="44.54534" lon="0.70189">
        <ele>108.5</ele>
        <time>2014-7-5T9:0:52.000Z</time>
      </trkpt>
      <trkpt lat="44.5453" lon="0.70192">
        <ele>107.5</ele>
        <time>2014-7-5T9:0:52.000Z</time>
      </trkpt>
      <trkpt lat="44.54526" lon="0.70195">
        <ele>107.5</ele>
        <time>2014-7-5T9:0:52.000Z</time>
      </trkpt>
      <trkpt lat="44.54523" lon="0.70197">
        <ele>107.5</ele>
        <time>2014-7-5T9:0:52.000Z</time>
      </trkpt>
      <trkpt lat="44.5452" lon="0.70199">
        <ele>107.5</ele>
        <time>2014-7-5T9:0:52.000Z</time>
      </trkpt>
      <trkpt lat="44.54517" lon="0.70202">
        <ele>106.5</ele>
        <time>2014-7-5T9:0:52.000Z</time>
      </trkpt>
      <trkpt lat="44.54514" lon="0.70205">
        <ele>106.5</ele>
        <time>2014-7-5T9:0:52.000Z</time>
      </trkpt>
      <trkpt lat="44.54511" lon="0.70208">
        <ele>106.5</ele>
        <time>2014-7-5T9:0:52.000Z</time>
      </trkpt>
      <trkpt lat="44.54508" lon="0.70211">
        <ele>106.5</ele>
        <time>2014-7-5T9:0:52.000Z</time>
      </trkpt>
      <trkpt lat="44.54505" lon="0.70214">
        <ele>105.5</ele>
        <time>2014-7-5T9:0:52.000Z</time>
      </trkpt>
      <trkpt lat="44.54502" lon="0.70216">
        <ele>104.5</ele>
        <time>2014-7-5T9:0:52.000Z</time>
      </trkpt>
      <trkpt lat="44.54499" lon="0.70217">
        <ele>104.5</ele>
        <time>2014-7-5T9:0:52.000Z</time>
      </trkpt>
      <trkpt lat="44.54496" lon="0.70217">
        <ele>104.5</ele>
        <time>2014-7-5T9:0:52.000Z</time>
      </trkpt>
      <trkpt lat="44.54492" lon="0.70217">
        <ele>103.5</ele>
        <time>2014-7-5T9:0:52.000Z</time>
      </trkpt>
      <trkpt lat="44.5449" lon="0.70217">
        <ele>103.5</ele>
        <time>2014-7-5T9:0:52.000Z</time>
      </trkpt>
      <trkpt lat="44.54487" lon="0.70217">
        <ele>103.5</ele>
        <time>2014-7-5T9:0:52.000Z</time>
      </trkpt>
      <trkpt lat="44.54485" lon="0.70216">
        <ele>103.5</ele>
        <time>2014-7-5T9:0:52.000Z</time>
      </trkpt>
      <trkpt lat="44.54482" lon="0.70217">
        <ele>102.5</ele>
        <time>2014-7-5T9:0:52.000Z</time>
      </trkpt>
      <trkpt lat="44.5448" lon="0.70219">
        <ele>102.5</ele>
        <time>2014-7-5T9:0:52.000Z</time>
      </trkpt>
      <trkpt lat="44.54478" lon="0.70223">
        <ele>102.5</ele>
        <time>2014-7-5T9:0:52.000Z</time>
      </trkpt>
      <trkpt lat="44.54476" lon="0.70227">
        <ele>102.5</ele>
        <time>2014-7-5T9:0:52.000Z</time>
      </trkpt>
      <trkpt lat="44.54474" lon="0.70231">
        <ele>102.5</ele>
        <time>2014-7-5T9:0:52.000Z</time>
      </trkpt>
      <trkpt lat="44.54472" lon="0.70236">
        <ele>101.5</ele>
        <time>2014-7-5T9:0:52.000Z</time>
      </trkpt>
      <trkpt lat="44.54471" lon="0.7024">
        <ele>101.5</ele>
        <time>2014-7-5T9:0:52.000Z</time>
      </trkpt>
      <trkpt lat="44.54469" lon="0.70245">
        <ele>101.5</ele>
        <time>2014-7-5T9:0:52.000Z</time>
      </trkpt>
      <trkpt lat="44.54467" lon="0.70249">
        <ele>101.5</ele>
        <time>2014-7-5T9:0:52.000Z</time>
      </trkpt>
      <trkpt lat="44.54465" lon="0.70253">
        <ele>101.5</ele>
        <time>2014-7-5T9:0:52.000Z</time>
      </trkpt>
      <trkpt lat="44.54463" lon="0.70257">
        <ele>102.5</ele>
        <time>2014-7-5T9:0:52.000Z</time>
      </trkpt>
      <trkpt lat="44.54461" lon="0.7026">
        <ele>102.5</ele>
        <time>2014-7-5T9:0:52.000Z</time>
      </trkpt>
      <trkpt lat="44.5446" lon="0.70264">
        <ele>101.5</ele>
        <time>2014-7-5T9:0:52.000Z</time>
      </trkpt>
      <trkpt lat="44.54458" lon="0.70268">
        <ele>101.5</ele>
        <time>2014-7-5T9:0:52.000Z</time>
      </trkpt>
      <trkpt lat="44.54457" lon="0.70272">
        <ele>102.5</ele>
        <time>2014-7-5T9:0:52.000Z</time>
      </trkpt>
      <trkpt lat="44.54455" lon="0.70276">
        <ele>102.5</ele>
        <time>2014-7-5T9:0:52.000Z</time>
      </trkpt>
      <trkpt lat="44.54453" lon="0.7028">
        <ele>102.5</ele>
        <time>2014-7-5T9:0:52.000Z</time>
      </trkpt>
      <trkpt lat="44.54451" lon="0.70283">
        <ele>102.5</ele>
        <time>2014-7-5T9:0:52.000Z</time>
      </trkpt>
      <trkpt lat="44.5445" lon="0.70287">
        <ele>102.5</ele>
        <time>2014-7-5T9:0:52.000Z</time>
      </trkpt>
      <trkpt lat="44.54448" lon="0.70291">
        <ele>103.5</ele>
        <time>2014-7-5T9:0:52.000Z</time>
      </trkpt>
      <trkpt lat="44.54446" lon="0.70295">
        <ele>104.5</ele>
        <time>2014-7-5T9:0:52.000Z</time>
      </trkpt>
      <trkpt lat="44.54444" lon="0.70299">
        <ele>104.5</ele>
        <time>2014-7-5T9:0:52.000Z</time>
      </trkpt>
      <trkpt lat="44.54442" lon="0.70303">
        <ele>104.5</ele>
        <time>2014-7-5T9:0:52.000Z</time>
      </trkpt>
      <trkpt lat="44.5444" lon="0.70307">
        <ele>104.5</ele>
        <time>2014-7-5T9:0:52.000Z</time>
      </trkpt>
      <trkpt lat="44.54438" lon="0.70311">
        <ele>104.5</ele>
        <time>2014-7-5T9:0:52.000Z</time>
      </trkpt>
      <trkpt lat="44.54437" lon="0.70315">
        <ele>105.5</ele>
        <time>2014-7-5T9:0:52.000Z</time>
      </trkpt>
      <trkpt lat="44.54435" lon="0.70319">
        <ele>105.5</ele>
        <time>2014-7-5T9:0:52.000Z</time>
      </trkpt>
      <trkpt lat="44.54433" lon="0.70322">
        <ele>104.5</ele>
        <time>2014-7-5T9:0:52.000Z</time>
      </trkpt>
      <trkpt lat="44.54432" lon="0.70327">
        <ele>105.5</ele>
        <time>2014-7-5T9:0:52.000Z</time>
      </trkpt>
      <trkpt lat="44.54431" lon="0.70331">
        <ele>105.5</ele>
        <time>2014-7-5T9:0:52.000Z</time>
      </trkpt>
      <trkpt lat="44.5443" lon="0.70335">
        <ele>105.5</ele>
        <time>2014-7-5T9:0:52.000Z</time>
      </trkpt>
      <trkpt lat="44.54431" lon="0.70339">
        <ele>105.5</ele>
        <time>2014-7-5T9:0:52.000Z</time>
      </trkpt>
      <trkpt lat="44.54432" lon="0.70336">
        <ele>105.5</ele>
        <time>2014-7-5T9:0:52.000Z</time>
      </trkpt>
      <trkpt lat="44.54428" lon="0.70336">
        <ele>104.5</ele>
        <time>2014-7-5T9:0:52.000Z</time>
      </trkpt>
      <trkpt lat="44.54425" lon="0.70336">
        <ele>104.5</ele>
        <time>2014-7-5T9:0:52.000Z</time>
      </trkpt>
      <trkpt lat="44.54419" lon="0.70336">
        <ele>104.5</ele>
        <time>2014-7-5T9:0:52.000Z</time>
      </trkpt>
      <trkpt lat="44.54416" lon="0.70338">
        <ele>104.5</ele>
        <time>2014-7-5T9:0:52.000Z</time>
      </trkpt>
      <trkpt lat="44.54414" lon="0.70341">
        <ele>105.5</ele>
        <time>2014-7-5T9:0:52.000Z</time>
      </trkpt>
      <trkpt lat="44.54413" lon="0.70345">
        <ele>105.5</ele>
        <time>2014-7-5T9:0:52.000Z</time>
      </trkpt>
      <trkpt lat="44.54411" lon="0.70349">
        <ele>105.5</ele>
        <time>2014-7-5T9:0:52.000Z</time>
      </trkpt>
      <trkpt lat="44.54409" lon="0.70353">
        <ele>105.5</ele>
        <time>2014-7-5T9:0:52.000Z</time>
      </trkpt>
      <trkpt lat="44.54407" lon="0.70356">
        <ele>104.5</ele>
        <time>2014-7-5T9:0:52.000Z</time>
      </trkpt>
      <trkpt lat="44.54405" lon="0.7036">
        <ele>105.5</ele>
        <time>2014-7-5T9:0:52.000Z</time>
      </trkpt>
      <trkpt lat="44.54403" lon="0.70363">
        <ele>104.5</ele>
        <time>2014-7-5T9:0:52.000Z</time>
      </trkpt>
      <trkpt lat="44.54401" lon="0.70367">
        <ele>104.5</ele>
        <time>2014-7-5T9:0:52.000Z</time>
      </trkpt>
      <trkpt lat="44.54398" lon="0.7037">
        <ele>105.5</ele>
        <time>2014-7-5T9:0:52.000Z</time>
      </trkpt>
      <trkpt lat="44.54396" lon="0.70373">
        <ele>104.5</ele>
        <time>2014-7-5T9:0:52.000Z</time>
      </trkpt>
      <trkpt lat="44.54394" lon="0.70375">
        <ele>104.5</ele>
        <time>2014-7-5T9:0:52.000Z</time>
      </trkpt>
      <trkpt lat="44.54391" lon="0.70374">
        <ele>104.5</ele>
        <time>2014-7-5T9:0:52.000Z</time>
      </trkpt>
      <trkpt lat="44.5439" lon="0.7037">
        <ele>104.5</ele>
        <time>2014-7-5T9:0:52.000Z</time>
      </trkpt>
      <trkpt lat="44.54392" lon="0.70365">
        <ele>104.5</ele>
        <time>2014-7-5T9:0:52.000Z</time>
      </trkpt>
      <trkpt lat="44.54394" lon="0.70362">
        <ele>104.5</ele>
        <time>2014-7-5T9:0:52.000Z</time>
      </trkpt>
      <trkpt lat="44.54395" lon="0.70358">
        <ele>104.5</ele>
        <time>2014-7-5T9:0:52.000Z</time>
      </trkpt>
      <trkpt lat="44.54396" lon="0.70354">
        <ele>104.5</ele>
        <time>2014-7-5T9:0:52.000Z</time>
      </trkpt>
      <trkpt lat="44.54396" lon="0.7035">
        <ele>105.5</ele>
        <time>2014-7-5T9:0:52.000Z</time>
      </trkpt>
      <trkpt lat="44.54394" lon="0.70347">
        <ele>105.5</ele>
        <time>2014-7-5T9:0:52.000Z</time>
      </trkpt>
      <trkpt lat="44.54391" lon="0.70345">
        <ele>105.5</ele>
        <time>2014-7-5T9:0:52.000Z</time>
      </trkpt>
      <trkpt lat="44.54388" lon="0.70342">
        <ele>105.5</ele>
        <time>2014-7-5T9:0:52.000Z</time>
      </trkpt>
      <trkpt lat="44.54384" lon="0.7034">
        <ele>106.5</ele>
        <time>2014-7-5T9:0:52.000Z</time>
      </trkpt>
      <trkpt lat="44.54381" lon="0.70338">
        <ele>106.5</ele>
        <time>2014-7-5T9:0:52.000Z</time>
      </trkpt>
      <trkpt lat="44.54378" lon="0.70337">
        <ele>106.5</ele>
        <time>2014-7-5T9:0:52.000Z</time>
      </trkpt>
      <trkpt lat="44.54375" lon="0.70336">
        <ele>106.5</ele>
        <time>2014-7-5T9:0:52.000Z</time>
      </trkpt>
      <trkpt lat="44.54371" lon="0.70337">
        <ele>106.5</ele>
        <time>2014-7-5T9:0:52.000Z</time>
      </trkpt>
      <trkpt lat="44.54367" lon="0.70337">
        <ele>105.5</ele>
        <time>2014-7-5T9:0:52.000Z</time>
      </trkpt>
      <trkpt lat="44.54364" lon="0.70337">
        <ele>106.5</ele>
        <time>2014-7-5T9:0:52.000Z</time>
      </trkpt>
      <trkpt lat="44.54361" lon="0.70338">
        <ele>106.5</ele>
        <time>2014-7-5T9:0:52.000Z</time>
      </trkpt>
      <trkpt lat="44.54357" lon="0.70338">
        <ele>106.5</ele>
        <time>2014-7-5T9:0:52.000Z</time>
      </trkpt>
      <trkpt lat="44.54354" lon="0.70338">
        <ele>107.5</ele>
        <time>2014-7-5T9:0:52.000Z</time>
      </trkpt>
      <trkpt lat="44.54351" lon="0.70339">
        <ele>106.5</ele>
        <time>2014-7-5T9:2:33.000Z</time>
      </trkpt>
      <trkpt lat="44.54348" lon="0.70339">
        <ele>107.5</ele>
        <time>2014-7-5T9:2:33.000Z</time>
      </trkpt>
      <trkpt lat="44.54345" lon="0.7034">
        <ele>107.5</ele>
        <time>2014-7-5T9:2:33.000Z</time>
      </trkpt>
      <trkpt lat="44.54341" lon="0.70341">
        <ele>106.5</ele>
        <time>2014-7-5T9:2:33.000Z</time>
      </trkpt>
      <trkpt lat="44.54338" lon="0.70342">
        <ele>106.5</ele>
        <time>2014-7-5T9:2:33.000Z</time>
      </trkpt>
      <trkpt lat="44.54334" lon="0.70342">
        <ele>106.5</ele>
        <time>2014-7-5T9:2:33.000Z</time>
      </trkpt>
      <trkpt lat="44.54329" lon="0.70342">
        <ele>104.5</ele>
        <time>2014-7-5T9:2:33.000Z</time>
      </trkpt>
      <trkpt lat="44.54323" lon="0.70341">
        <ele>104.5</ele>
        <time>2014-7-5T9:2:33.000Z</time>
      </trkpt>
      <trkpt lat="44.54317" lon="0.7034">
        <ele>103.5</ele>
        <time>2014-7-5T9:2:33.000Z</time>
      </trkpt>
      <trkpt lat="44.54311" lon="0.7034">
        <ele>103.5</ele>
        <time>2014-7-5T9:2:33.000Z</time>
      </trkpt>
      <trkpt lat="44.54305" lon="0.70339">
        <ele>101.5</ele>
        <time>2014-7-5T9:2:33.000Z</time>
      </trkpt>
      <trkpt lat="44.54298" lon="0.70339">
        <ele>101.5</ele>
        <time>2014-7-5T9:2:33.000Z</time>
      </trkpt>
      <trkpt lat="44.54292" lon="0.7034">
        <ele>100.5</ele>
        <time>2014-7-5T9:2:33.000Z</time>
      </trkpt>
      <trkpt lat="44.54286" lon="0.7034">
        <ele>99.5</ele>
        <time>2014-7-5T9:2:33.000Z</time>
      </trkpt>
      <trkpt lat="44.54279" lon="0.7034">
        <ele>98.5</ele>
        <time>2014-7-5T9:2:33.000Z</time>
      </trkpt>
      <trkpt lat="44.54273" lon="0.70341">
        <ele>98.5</ele>
        <time>2014-7-5T9:2:33.000Z</time>
      </trkpt>
      <trkpt lat="44.54266" lon="0.70342">
        <ele>98.5</ele>
        <time>2014-7-5T9:2:33.000Z</time>
      </trkpt>
      <trkpt lat="44.5426" lon="0.70343">
        <ele>98.5</ele>
        <time>2014-7-5T9:2:33.000Z</time>
      </trkpt>
      <trkpt lat="44.54253" lon="0.70343">
        <ele>97.5</ele>
        <time>2014-7-5T9:2:33.000Z</time>
      </trkpt>
      <trkpt lat="44.54246" lon="0.70344">
        <ele>98.5</ele>
        <time>2014-7-5T9:2:33.000Z</time>
      </trkpt>
      <trkpt lat="44.54239" lon="0.70345">
        <ele>97.5</ele>
        <time>2014-7-5T9:2:33.000Z</time>
      </trkpt>
      <trkpt lat="44.54232" lon="0.70346">
        <ele>97.5</ele>
        <time>2014-7-5T9:2:33.000Z</time>
      </trkpt>
      <trkpt lat="44.54225" lon="0.70347">
        <ele>97.5</ele>
        <time>2014-7-5T9:2:33.000Z</time>
      </trkpt>
      <trkpt lat="44.54219" lon="0.70348">
        <ele>97.5</ele>
        <time>2014-7-5T9:2:33.000Z</time>
      </trkpt>
      <trkpt lat="44.54213" lon="0.70349">
        <ele>97.5</ele>
        <time>2014-7-5T9:2:33.000Z</time>
      </trkpt>
      <trkpt lat="44.54207" lon="0.7035">
        <ele>96.5</ele>
        <time>2014-7-5T9:2:33.000Z</time>
      </trkpt>
      <trkpt lat="44.54201" lon="0.70352">
        <ele>96.5</ele>
        <time>2014-7-5T9:2:33.000Z</time>
      </trkpt>
      <trkpt lat="44.54194" lon="0.70354">
        <ele>96.5</ele>
        <time>2014-7-5T9:2:33.000Z</time>
      </trkpt>
      <trkpt lat="44.54189" lon="0.70355">
        <ele>96.5</ele>
        <time>2014-7-5T9:2:33.000Z</time>
      </trkpt>
      <trkpt lat="44.54183" lon="0.70355">
        <ele>96.5</ele>
        <time>2014-7-5T9:2:33.000Z</time>
      </trkpt>
      <trkpt lat="44.54177" lon="0.70356">
        <ele>96.5</ele>
        <time>2014-7-5T9:2:33.000Z</time>
      </trkpt>
      <trkpt lat="44.54172" lon="0.70356">
        <ele>96.5</ele>
        <time>2014-7-5T9:2:33.000Z</time>
      </trkpt>
      <trkpt lat="44.54167" lon="0.70357">
        <ele>96.5</ele>
        <time>2014-7-5T9:2:33.000Z</time>
      </trkpt>
      <trkpt lat="44.54162" lon="0.70358">
        <ele>96.5</ele>
        <time>2014-7-5T9:2:33.000Z</time>
      </trkpt>
      <trkpt lat="44.54158" lon="0.70358">
        <ele>96.5</ele>
        <time>2014-7-5T9:2:33.000Z</time>
      </trkpt>
      <trkpt lat="44.54153" lon="0.70358">
        <ele>96.5</ele>
        <time>2014-7-5T9:2:33.000Z</time>
      </trkpt>
      <trkpt lat="44.54149" lon="0.70359">
        <ele>97.5</ele>
        <time>2014-7-5T9:2:33.000Z</time>
      </trkpt>
      <trkpt lat="44.54145" lon="0.70359">
        <ele>96.5</ele>
        <time>2014-7-5T9:2:33.000Z</time>
      </trkpt>
      <trkpt lat="44.54141" lon="0.70361">
        <ele>97.5</ele>
        <time>2014-7-5T9:2:33.000Z</time>
      </trkpt>
      <trkpt lat="44.54137" lon="0.7036">
        <ele>97.5</ele>
        <time>2014-7-5T9:2:33.000Z</time>
      </trkpt>
      <trkpt lat="44.54133" lon="0.70361">
        <ele>97.5</ele>
        <time>2014-7-5T9:2:33.000Z</time>
      </trkpt>
      <trkpt lat="44.5413" lon="0.7036">
        <ele>97.5</ele>
        <time>2014-7-5T9:2:33.000Z</time>
      </trkpt>
      <trkpt lat="44.54126" lon="0.70361">
        <ele>97.5</ele>
        <time>2014-7-5T9:2:33.000Z</time>
      </trkpt>
      <trkpt lat="44.54122" lon="0.70361">
        <ele>97.5</ele>
        <time>2014-7-5T9:2:33.000Z</time>
      </trkpt>
      <trkpt lat="44.54119" lon="0.70362">
        <ele>97.5</ele>
        <time>2014-7-5T9:2:33.000Z</time>
      </trkpt>
      <trkpt lat="44.54115" lon="0.70362">
        <ele>97.5</ele>
        <time>2014-7-5T9:2:33.000Z</time>
      </trkpt>
      <trkpt lat="44.54112" lon="0.70363">
        <ele>97.5</ele>
        <time>2014-7-5T9:2:33.000Z</time>
      </trkpt>
      <trkpt lat="44.54108" lon="0.70363">
        <ele>97.5</ele>
        <time>2014-7-5T9:2:33.000Z</time>
      </trkpt>
      <trkpt lat="44.54104" lon="0.70364">
        <ele>97.5</ele>
        <time>2014-7-5T9:2:33.000Z</time>
      </trkpt>
      <trkpt lat="44.54101" lon="0.70365">
        <ele>97.5</ele>
        <time>2014-7-5T9:2:33.000Z</time>
      </trkpt>
      <trkpt lat="44.54097" lon="0.70365">
        <ele>97.5</ele>
        <time>2014-7-5T9:2:33.000Z</time>
      </trkpt>
      <trkpt lat="44.54093" lon="0.70367">
        <ele>96.5</ele>
        <time>2014-7-5T9:2:33.000Z</time>
      </trkpt>
      <trkpt lat="44.54089" lon="0.70367">
        <ele>96.5</ele>
        <time>2014-7-5T9:2:33.000Z</time>
      </trkpt>
      <trkpt lat="44.54085" lon="0.70368">
        <ele>96.5</ele>
        <time>2014-7-5T9:2:33.000Z</time>
      </trkpt>
      <trkpt lat="44.5408" lon="0.70368">
        <ele>96.5</ele>
        <time>2014-7-5T9:2:33.000Z</time>
      </trkpt>
      <trkpt lat="44.54076" lon="0.70369">
        <ele>96.5</ele>
        <time>2014-7-5T9:2:33.000Z</time>
      </trkpt>
      <trkpt lat="44.54071" lon="0.7037">
        <ele>96.5</ele>
        <time>2014-7-5T9:2:33.000Z</time>
      </trkpt>
      <trkpt lat="44.54067" lon="0.70371">
        <ele>95.5</ele>
        <time>2014-7-5T9:2:33.000Z</time>
      </trkpt>
      <trkpt lat="44.54062" lon="0.70372">
        <ele>95.5</ele>
        <time>2014-7-5T9:2:33.000Z</time>
      </trkpt>
      <trkpt lat="44.54057" lon="0.70373">
        <ele>95.5</ele>
        <time>2014-7-5T9:2:33.000Z</time>
      </trkpt>
      <trkpt lat="44.54053" lon="0.70373">
        <ele>95.5</ele>
        <time>2014-7-5T9:2:33.000Z</time>
      </trkpt>
      <trkpt lat="44.54047" lon="0.70374">
        <ele>94.5</ele>
        <time>2014-7-5T9:2:33.000Z</time>
      </trkpt>
      <trkpt lat="44.54041" lon="0.70375">
        <ele>94.5</ele>
        <time>2014-7-5T9:2:33.000Z</time>
      </trkpt>
      <trkpt lat="44.54036" lon="0.70376">
        <ele>94.5</ele>
        <time>2014-7-5T9:2:33.000Z</time>
      </trkpt>
      <trkpt lat="44.5403" lon="0.70375">
        <ele>93.5</ele>
        <time>2014-7-5T9:2:33.000Z</time>
      </trkpt>
      <trkpt lat="44.54025" lon="0.70375">
        <ele>93.5</ele>
        <time>2014-7-5T9:2:33.000Z</time>
      </trkpt>
      <trkpt lat="44.54019" lon="0.70376">
        <ele>93.5</ele>
        <time>2014-7-5T9:2:33.000Z</time>
      </trkpt>
      <trkpt lat="44.54013" lon="0.70376">
        <ele>92.5</ele>
        <time>2014-7-5T9:2:33.000Z</time>
      </trkpt>
      <trkpt lat="44.54008" lon="0.70376">
        <ele>92.5</ele>
        <time>2014-7-5T9:2:33.000Z</time>
      </trkpt>
      <trkpt lat="44.54002" lon="0.70376">
        <ele>92.5</ele>
        <time>2014-7-5T9:2:33.000Z</time>
      </trkpt>
      <trkpt lat="44.53998" lon="0.70379">
        <ele>91.5</ele>
        <time>2014-7-5T9:2:33.000Z</time>
      </trkpt>
      <trkpt lat="44.53996" lon="0.70384">
        <ele>90.5</ele>
        <time>2014-7-5T9:2:33.000Z</time>
      </trkpt>
      <trkpt lat="44.53995" lon="0.70391">
        <ele>90.5</ele>
        <time>2014-7-5T9:2:33.000Z</time>
      </trkpt>
      <trkpt lat="44.53995" lon="0.70397">
        <ele>89.5</ele>
        <time>2014-7-5T9:2:33.000Z</time>
      </trkpt>
      <trkpt lat="44.53996" lon="0.70404">
        <ele>90.5</ele>
        <time>2014-7-5T9:2:33.000Z</time>
      </trkpt>
      <trkpt lat="44.53996" lon="0.70411">
        <ele>90.5</ele>
        <time>2014-7-5T9:2:33.000Z</time>
      </trkpt>
      <trkpt lat="44.53998" lon="0.70418">
        <ele>89.5</ele>
        <time>2014-7-5T9:2:33.000Z</time>
      </trkpt>
      <trkpt lat="44.53999" lon="0.70424">
        <ele>89.5</ele>
        <time>2014-7-5T9:2:33.000Z</time>
      </trkpt>
      <trkpt lat="44.54" lon="0.70431">
        <ele>89.5</ele>
        <time>2014-7-5T9:2:33.000Z</time>
      </trkpt>
      <trkpt lat="44.54001" lon="0.70437">
        <ele>89.5</ele>
        <time>2014-7-5T9:2:33.000Z</time>
      </trkpt>
      <trkpt lat="44.54001" lon="0.70445">
        <ele>89.5</ele>
        <time>2014-7-5T9:2:33.000Z</time>
      </trkpt>
      <trkpt lat="44.54002" lon="0.70451">
        <ele>89.5</ele>
        <time>2014-7-5T9:2:33.000Z</time>
      </trkpt>
      <trkpt lat="44.54003" lon="0.70458">
        <ele>90.5</ele>
        <time>2014-7-5T9:2:33.000Z</time>
      </trkpt>
      <trkpt lat="44.54003" lon="0.70464">
        <ele>90.5</ele>
        <time>2014-7-5T9:2:33.000Z</time>
      </trkpt>
      <trkpt lat="44.54004" lon="0.7047">
        <ele>91.5</ele>
        <time>2014-7-5T9:2:33.000Z</time>
      </trkpt>
      <trkpt lat="44.54004" lon="0.70476">
        <ele>90.5</ele>
        <time>2014-7-5T9:2:33.000Z</time>
      </trkpt>
      <trkpt lat="44.54004" lon="0.70482">
        <ele>91.5</ele>
        <time>2014-7-5T9:2:33.000Z</time>
      </trkpt>
      <trkpt lat="44.54005" lon="0.70488">
        <ele>91.5</ele>
        <time>2014-7-5T9:2:33.000Z</time>
      </trkpt>
      <trkpt lat="44.54004" lon="0.70495">
        <ele>91.5</ele>
        <time>2014-7-5T9:2:33.000Z</time>
      </trkpt>
      <trkpt lat="44.54005" lon="0.705">
        <ele>91.5</ele>
        <time>2014-7-5T9:2:33.000Z</time>
      </trkpt>
      <trkpt lat="44.54006" lon="0.70506">
        <ele>91.5</ele>
        <time>2014-7-5T9:2:33.000Z</time>
      </trkpt>
      <trkpt lat="44.54006" lon="0.70512">
        <ele>91.5</ele>
        <time>2014-7-5T9:2:33.000Z</time>
      </trkpt>
      <trkpt lat="44.54006" lon="0.70518">
        <ele>91.5</ele>
        <time>2014-7-5T9:2:33.000Z</time>
      </trkpt>
      <trkpt lat="44.54007" lon="0.70523">
        <ele>92.5</ele>
        <time>2014-7-5T9:2:33.000Z</time>
      </trkpt>
      <trkpt lat="44.54007" lon="0.7053">
        <ele>92.5</ele>
        <time>2014-7-5T9:2:33.000Z</time>
      </trkpt>
      <trkpt lat="44.54008" lon="0.70536">
        <ele>92.5</ele>
        <time>2014-7-5T9:2:33.000Z</time>
      </trkpt>
      <trkpt lat="44.54008" lon="0.70542">
        <ele>92.5</ele>
        <time>2014-7-5T9:2:33.000Z</time>
      </trkpt>
      <trkpt lat="44.54009" lon="0.70548">
        <ele>92.5</ele>
        <time>2014-7-5T9:2:33.000Z</time>
      </trkpt>
      <trkpt lat="44.54009" lon="0.70554">
        <ele>92.5</ele>
        <time>2014-7-5T9:2:33.000Z</time>
      </trkpt>
      <trkpt lat="44.54009" lon="0.7056">
        <ele>92.5</ele>
        <time>2014-7-5T9:2:33.000Z</time>
      </trkpt>
      <trkpt lat="44.54009" lon="0.70566">
        <ele>92.5</ele>
        <time>2014-7-5T9:2:33.000Z</time>
      </trkpt>
      <trkpt lat="44.54009" lon="0.70572">
        <ele>92.5</ele>
        <time>2014-7-5T9:4:36.000Z</time>
      </trkpt>
      <trkpt lat="44.5401" lon="0.70579">
        <ele>93.5</ele>
        <time>2014-7-5T9:4:36.000Z</time>
      </trkpt>
      <trkpt lat="44.5401" lon="0.70585">
        <ele>93.5</ele>
        <time>2014-7-5T9:4:36.000Z</time>
      </trkpt>
      <trkpt lat="44.54009" lon="0.70591">
        <ele>93.5</ele>
        <time>2014-7-5T9:4:36.000Z</time>
      </trkpt>
      <trkpt lat="44.54009" lon="0.70597">
        <ele>93.5</ele>
        <time>2014-7-5T9:4:36.000Z</time>
      </trkpt>
      <trkpt lat="44.54009" lon="0.70603">
        <ele>93.5</ele>
        <time>2014-7-5T9:4:36.000Z</time>
      </trkpt>
      <trkpt lat="44.54008" lon="0.70609">
        <ele>93.5</ele>
        <time>2014-7-5T9:4:36.000Z</time>
      </trkpt>
      <trkpt lat="44.54008" lon="0.70615">
        <ele>94.5</ele>
        <time>2014-7-5T9:4:36.000Z</time>
      </trkpt>
      <trkpt lat="44.54008" lon="0.70621">
        <ele>94.5</ele>
        <time>2014-7-5T9:4:36.000Z</time>
      </trkpt>
      <trkpt lat="44.54006" lon="0.70627">
        <ele>94.5</ele>
        <time>2014-7-5T9:4:36.000Z</time>
      </trkpt>
      <trkpt lat="44.54006" lon="0.70632">
        <ele>95.5</ele>
        <time>2014-7-5T9:4:36.000Z</time>
      </trkpt>
      <trkpt lat="44.54005" lon="0.70639">
        <ele>95.5</ele>
        <time>2014-7-5T9:4:36.000Z</time>
      </trkpt>
      <trkpt lat="44.54004" lon="0.70644">
        <ele>95.5</ele>
        <time>2014-7-5T9:4:36.000Z</time>
      </trkpt>
      <trkpt lat="44.54004" lon="0.7065">
        <ele>95.5</ele>
        <time>2014-7-5T9:4:36.000Z</time>
      </trkpt>
      <trkpt lat="44.54004" lon="0.70655">
        <ele>95.5</ele>
        <time>2014-7-5T9:4:36.000Z</time>
      </trkpt>
      <trkpt lat="44.54004" lon="0.70659">
        <ele>96.5</ele>
        <time>2014-7-5T9:4:36.000Z</time>
      </trkpt>
      <trkpt lat="44.54004" lon="0.70663">
        <ele>96.5</ele>
        <time>2014-7-5T9:4:36.000Z</time>
      </trkpt>
      <trkpt lat="44.54004" lon="0.70668">
        <ele>96.5</ele>
        <time>2014-7-5T9:4:36.000Z</time>
      </trkpt>
      <trkpt lat="44.54004" lon="0.70673">
        <ele>97.5</ele>
        <time>2014-7-5T9:4:36.000Z</time>
      </trkpt>
      <trkpt lat="44.54004" lon="0.70678">
        <ele>97.5</ele>
        <time>2014-7-5T9:4:36.000Z</time>
      </trkpt>
      <trkpt lat="44.54004" lon="0.70682">
        <ele>97.5</ele>
        <time>2014-7-5T9:4:36.000Z</time>
      </trkpt>
      <trkpt lat="44.54005" lon="0.70686">
        <ele>97.5</ele>
        <time>2014-7-5T9:4:36.000Z</time>
      </trkpt>
      <trkpt lat="44.54005" lon="0.70691">
        <ele>98.5</ele>
        <time>2014-7-5T9:4:36.000Z</time>
      </trkpt>
      <trkpt lat="44.54005" lon="0.70696">
        <ele>98.5</ele>
        <time>2014-7-5T9:4:36.000Z</time>
      </trkpt>
      <trkpt lat="44.54006" lon="0.707">
        <ele>98.5</ele>
        <time>2014-7-5T9:4:36.000Z</time>
      </trkpt>
      <trkpt lat="44.54006" lon="0.70705">
        <ele>99.5</ele>
        <time>2014-7-5T9:4:36.000Z</time>
      </trkpt>
      <trkpt lat="44.54007" lon="0.70709">
        <ele>98.5</ele>
        <time>2014-7-5T9:4:36.000Z</time>
      </trkpt>
      <trkpt lat="44.54006" lon="0.70715">
        <ele>99.5</ele>
        <time>2014-7-5T9:4:36.000Z</time>
      </trkpt>
      <trkpt lat="44.54006" lon="0.70719">
        <ele>98.5</ele>
        <time>2014-7-5T9:4:36.000Z</time>
      </trkpt>
      <trkpt lat="44.54006" lon="0.70724">
        <ele>98.5</ele>
        <time>2014-7-5T9:4:36.000Z</time>
      </trkpt>
      <trkpt lat="44.54007" lon="0.70729">
        <ele>98.5</ele>
        <time>2014-7-5T9:4:36.000Z</time>
      </trkpt>
      <trkpt lat="44.54007" lon="0.70734">
        <ele>98.5</ele>
        <time>2014-7-5T9:4:36.000Z</time>
      </trkpt>
      <trkpt lat="44.54007" lon="0.70738">
        <ele>99.5</ele>
        <time>2014-7-5T9:4:36.000Z</time>
      </trkpt>
      <trkpt lat="44.54006" lon="0.70743">
        <ele>99.5</ele>
        <time>2014-7-5T9:4:36.000Z</time>
      </trkpt>
      <trkpt lat="44.54006" lon="0.70747">
        <ele>99.5</ele>
        <time>2014-7-5T9:4:36.000Z</time>
      </trkpt>
      <trkpt lat="44.54006" lon="0.70752">
        <ele>99.5</ele>
        <time>2014-7-5T9:4:36.000Z</time>
      </trkpt>
      <trkpt lat="44.54007" lon="0.70756">
        <ele>99.5</ele>
        <time>2014-7-5T9:4:36.000Z</time>
      </trkpt>
      <trkpt lat="44.54007" lon="0.70761">
        <ele>99.5</ele>
        <time>2014-7-5T9:4:36.000Z</time>
      </trkpt>
      <trkpt lat="44.54007" lon="0.70765">
        <ele>99.5</ele>
        <time>2014-7-5T9:4:36.000Z</time>
      </trkpt>
      <trkpt lat="44.54007" lon="0.70774">
        <ele>99.5</ele>
        <time>2014-7-5T9:4:36.000Z</time>
      </trkpt>
      <trkpt lat="44.54007" lon="0.70779">
        <ele>99.5</ele>
        <time>2014-7-5T9:4:36.000Z</time>
      </trkpt>
      <trkpt lat="44.54008" lon="0.70783">
        <ele>99.5</ele>
        <time>2014-7-5T9:4:36.000Z</time>
      </trkpt>
      <trkpt lat="44.54008" lon="0.70787">
        <ele>99.5</ele>
        <time>2014-7-5T9:4:36.000Z</time>
      </trkpt>
      <trkpt lat="44.54008" lon="0.7079">
        <ele>99.5</ele>
        <time>2014-7-5T9:4:36.000Z</time>
      </trkpt>
      <trkpt lat="44.54008" lon="0.70794">
        <ele>98.5</ele>
        <time>2014-7-5T9:4:36.000Z</time>
      </trkpt>
      <trkpt lat="44.54008" lon="0.70797">
        <ele>98.5</ele>
        <time>2014-7-5T9:4:36.000Z</time>
      </trkpt>
      <trkpt lat="44.54008" lon="0.708">
        <ele>98.5</ele>
        <time>2014-7-5T9:4:36.000Z</time>
      </trkpt>
      <trkpt lat="44.54008" lon="0.70803">
        <ele>98.5</ele>
        <time>2014-7-5T9:4:36.000Z</time>
      </trkpt>
      <trkpt lat="44.54008" lon="0.70806">
        <ele>98.5</ele>
        <time>2014-7-5T9:4:36.000Z</time>
      </trkpt>
      <trkpt lat="44.54008" lon="0.70809">
        <ele>98.5</ele>
        <time>2014-7-5T9:4:36.000Z</time>
      </trkpt>
      <trkpt lat="44.54008" lon="0.70812">
        <ele>98.5</ele>
        <time>2014-7-5T9:4:36.000Z</time>
      </trkpt>
      <trkpt lat="44.54008" lon="0.70815">
        <ele>97.5</ele>
        <time>2014-7-5T9:4:36.000Z</time>
      </trkpt>
      <trkpt lat="44.54008" lon="0.70818">
        <ele>97.5</ele>
        <time>2014-7-5T9:4:36.000Z</time>
      </trkpt>
      <trkpt lat="44.54008" lon="0.70824">
        <ele>97.5</ele>
        <time>2014-7-5T9:4:36.000Z</time>
      </trkpt>
      <trkpt lat="44.54008" lon="0.70829">
        <ele>97.5</ele>
        <time>2014-7-5T9:4:36.000Z</time>
      </trkpt>
      <trkpt lat="44.54008" lon="0.70836">
        <ele>96.5</ele>
        <time>2014-7-5T9:4:36.000Z</time>
      </trkpt>
      <trkpt lat="44.54008" lon="0.70843">
        <ele>96.5</ele>
        <time>2014-7-5T9:4:36.000Z</time>
      </trkpt>
      <trkpt lat="44.54009" lon="0.7085">
        <ele>96.5</ele>
        <time>2014-7-5T9:4:36.000Z</time>
      </trkpt>
      <trkpt lat="44.5401" lon="0.70859">
        <ele>95.5</ele>
        <time>2014-7-5T9:4:36.000Z</time>
      </trkpt>
      <trkpt lat="44.5401" lon="0.70867">
        <ele>95.5</ele>
        <time>2014-7-5T9:4:36.000Z</time>
      </trkpt>
      <trkpt lat="44.5401" lon="0.70876">
        <ele>94.5</ele>
        <time>2014-7-5T9:4:36.000Z</time>
      </trkpt>
      <trkpt lat="44.54011" lon="0.70886">
        <ele>94.5</ele>
        <time>2014-7-5T9:4:36.000Z</time>
      </trkpt>
      <trkpt lat="44.54012" lon="0.70894">
        <ele>94.5</ele>
        <time>2014-7-5T9:4:36.000Z</time>
      </trkpt>
      <trkpt lat="44.54012" lon="0.70903">
        <ele>94.5</ele>
        <time>2014-7-5T9:4:36.000Z</time>
      </trkpt>
      <trkpt lat="44.54012" lon="0.7091">
        <ele>94.5</ele>
        <time>2014-7-5T9:4:36.000Z</time>
      </trkpt>
      <trkpt lat="44.54011" lon="0.70914">
        <ele>94.5</ele>
        <time>2014-7-5T9:4:36.000Z</time>
      </trkpt>
      <trkpt lat="44.54011" lon="0.70919">
        <ele>94.5</ele>
        <time>2014-7-5T9:4:36.000Z</time>
      </trkpt>
      <trkpt lat="44.5401" lon="0.70923">
        <ele>94.5</ele>
        <time>2014-7-5T9:4:36.000Z</time>
      </trkpt>
      <trkpt lat="44.5401" lon="0.70927">
        <ele>93.5</ele>
        <time>2014-7-5T9:4:36.000Z</time>
      </trkpt>
      <trkpt lat="44.5401" lon="0.70929">
        <ele>93.5</ele>
        <time>2014-7-5T9:4:36.000Z</time>
      </trkpt>
      <trkpt lat="44.5401" lon="0.70933">
        <ele>94.5</ele>
        <time>2014-7-5T9:4:36.000Z</time>
      </trkpt>
      <trkpt lat="44.54009" lon="0.70936">
        <ele>94.5</ele>
        <time>2014-7-5T9:4:36.000Z</time>
      </trkpt>
      <trkpt lat="44.54008" lon="0.70939">
        <ele>93.5</ele>
        <time>2014-7-5T9:4:36.000Z</time>
      </trkpt>
      <trkpt lat="44.5401" lon="0.70939">
        <ele>92.5</ele>
        <time>2014-7-5T9:4:36.000Z</time>
      </trkpt>
      <trkpt lat="44.54014" lon="0.70944">
        <ele>92.5</ele>
        <time>2014-7-5T9:4:36.000Z</time>
      </trkpt>
      <trkpt lat="44.54018" lon="0.70946">
        <ele>92.5</ele>
        <time>2014-7-5T9:4:36.000Z</time>
      </trkpt>
      <trkpt lat="44.54021" lon="0.70948">
        <ele>92.5</ele>
        <time>2014-7-5T9:4:36.000Z</time>
      </trkpt>
      <trkpt lat="44.54025" lon="0.7095">
        <ele>92.5</ele>
        <time>2014-7-5T9:4:36.000Z</time>
      </trkpt>
      <trkpt lat="44.54028" lon="0.70952">
        <ele>93.5</ele>
        <time>2014-7-5T9:4:36.000Z</time>
      </trkpt>
      <trkpt lat="44.54031" lon="0.70954">
        <ele>93.5</ele>
        <time>2014-7-5T9:4:36.000Z</time>
      </trkpt>
      <trkpt lat="44.54035" lon="0.70957">
        <ele>93.5</ele>
        <time>2014-7-5T9:4:36.000Z</time>
      </trkpt>
      <trkpt lat="44.54038" lon="0.7096">
        <ele>92.5</ele>
        <time>2014-7-5T9:4:36.000Z</time>
      </trkpt>
      <trkpt lat="44.54041" lon="0.70962">
        <ele>92.5</ele>
        <time>2014-7-5T9:4:36.000Z</time>
      </trkpt>
      <trkpt lat="44.54045" lon="0.70965">
        <ele>92.5</ele>
        <time>2014-7-5T9:4:36.000Z</time>
      </trkpt>
      <trkpt lat="44.54048" lon="0.70967">
        <ele>92.5</ele>
        <time>2014-7-5T9:4:36.000Z</time>
      </trkpt>
      <trkpt lat="44.54052" lon="0.7097">
        <ele>92.5</ele>
        <time>2014-7-5T9:4:36.000Z</time>
      </trkpt>
      <trkpt lat="44.54055" lon="0.70972">
        <ele>92.5</ele>
        <time>2014-7-5T9:4:36.000Z</time>
      </trkpt>
      <trkpt lat="44.54058" lon="0.70974">
        <ele>93.5</ele>
        <time>2014-7-5T9:4:36.000Z</time>
      </trkpt>
      <trkpt lat="44.54062" lon="0.70976">
        <ele>93.5</ele>
        <time>2014-7-5T9:4:36.000Z</time>
      </trkpt>
      <trkpt lat="44.54065" lon="0.70977">
        <ele>93.5</ele>
        <time>2014-7-5T9:4:36.000Z</time>
      </trkpt>
      <trkpt lat="44.54069" lon="0.70978">
        <ele>94.5</ele>
        <time>2014-7-5T9:4:36.000Z</time>
      </trkpt>
      <trkpt lat="44.54073" lon="0.70978">
        <ele>94.5</ele>
        <time>2014-7-5T9:4:36.000Z</time>
      </trkpt>
      <trkpt lat="44.54076" lon="0.70979">
        <ele>95.5</ele>
        <time>2014-7-5T9:4:36.000Z</time>
      </trkpt>
      <trkpt lat="44.5408" lon="0.70979">
        <ele>95.5</ele>
        <time>2014-7-5T9:4:36.000Z</time>
      </trkpt>
      <trkpt lat="44.54084" lon="0.7098">
        <ele>95.5</ele>
        <time>2014-7-5T9:4:36.000Z</time>
      </trkpt>
      <trkpt lat="44.54087" lon="0.7098">
        <ele>96.5</ele>
        <time>2014-7-5T9:4:36.000Z</time>
      </trkpt>
      <trkpt lat="44.54092" lon="0.7098">
        <ele>95.5</ele>
        <time>2014-7-5T9:4:36.000Z</time>
      </trkpt>
      <trkpt lat="44.54095" lon="0.70981">
        <ele>94.5</ele>
        <time>2014-7-5T9:4:36.000Z</time>
      </trkpt>
      <trkpt lat="44.54099" lon="0.70981">
        <ele>95.5</ele>
        <time>2014-7-5T9:4:36.000Z</time>
      </trkpt>
      <trkpt lat="44.54103" lon="0.70982">
        <ele>95.5</ele>
        <time>2014-7-5T9:4:36.000Z</time>
      </trkpt>
      <trkpt lat="44.54106" lon="0.70983">
        <ele>94.5</ele>
        <time>2014-7-5T9:4:36.000Z</time>
      </trkpt>
      <trkpt lat="44.5411" lon="0.70983">
        <ele>94.5</ele>
        <time>2014-7-5T9:6:19.000Z</time>
      </trkpt>
      <trkpt lat="44.54114" lon="0.70984">
        <ele>94.5</ele>
        <time>2014-7-5T9:6:19.000Z</time>
      </trkpt>
      <trkpt lat="44.54118" lon="0.70985">
        <ele>95.5</ele>
        <time>2014-7-5T9:6:19.000Z</time>
      </trkpt>
      <trkpt lat="44.54121" lon="0.70986">
        <ele>95.5</ele>
        <time>2014-7-5T9:6:19.000Z</time>
      </trkpt>
      <trkpt lat="44.54125" lon="0.70986">
        <ele>95.5</ele>
        <time>2014-7-5T9:6:19.000Z</time>
      </trkpt>
      <trkpt lat="44.54129" lon="0.70987">
        <ele>95.5</ele>
        <time>2014-7-5T9:6:19.000Z</time>
      </trkpt>
      <trkpt lat="44.54132" lon="0.70988">
        <ele>95.5</ele>
        <time>2014-7-5T9:6:19.000Z</time>
      </trkpt>
      <trkpt lat="44.54136" lon="0.70989">
        <ele>96.5</ele>
        <time>2014-7-5T9:6:19.000Z</time>
      </trkpt>
      <trkpt lat="44.5414" lon="0.7099">
        <ele>96.5</ele>
        <time>2014-7-5T9:6:19.000Z</time>
      </trkpt>
      <trkpt lat="44.54143" lon="0.7099">
        <ele>97.5</ele>
        <time>2014-7-5T9:6:19.000Z</time>
      </trkpt>
      <trkpt lat="44.54147" lon="0.7099">
        <ele>97.5</ele>
        <time>2014-7-5T9:6:19.000Z</time>
      </trkpt>
      <trkpt lat="44.5415" lon="0.7099">
        <ele>97.5</ele>
        <time>2014-7-5T9:6:19.000Z</time>
      </trkpt>
      <trkpt lat="44.54154" lon="0.70989">
        <ele>97.5</ele>
        <time>2014-7-5T9:6:19.000Z</time>
      </trkpt>
      <trkpt lat="44.54161" lon="0.70987">
        <ele>97.5</ele>
        <time>2014-7-5T9:6:19.000Z</time>
      </trkpt>
      <trkpt lat="44.54164" lon="0.70985">
        <ele>97.5</ele>
        <time>2014-7-5T9:6:19.000Z</time>
      </trkpt>
      <trkpt lat="44.54167" lon="0.70981">
        <ele>97.5</ele>
        <time>2014-7-5T9:6:19.000Z</time>
      </trkpt>
      <trkpt lat="44.54169" lon="0.70976">
        <ele>97.5</ele>
        <time>2014-7-5T9:6:19.000Z</time>
      </trkpt>
      <trkpt lat="44.5417" lon="0.70971">
        <ele>98.5</ele>
        <time>2014-7-5T9:6:19.000Z</time>
      </trkpt>
      <trkpt lat="44.54171" lon="0.70966">
        <ele>99.5</ele>
        <time>2014-7-5T9:6:19.000Z</time>
      </trkpt>
      <trkpt lat="44.54171" lon="0.70961">
        <ele>99.5</ele>
        <time>2014-7-5T9:6:19.000Z</time>
      </trkpt>
      <trkpt lat="44.54172" lon="0.70957">
        <ele>99.5</ele>
        <time>2014-7-5T9:6:19.000Z</time>
      </trkpt>
      <trkpt lat="44.54173" lon="0.70951">
        <ele>99.5</ele>
        <time>2014-7-5T9:6:19.000Z</time>
      </trkpt>
      <trkpt lat="44.54174" lon="0.70947">
        <ele>100.5</ele>
        <time>2014-7-5T9:6:19.000Z</time>
      </trkpt>
      <trkpt lat="44.54175" lon="0.70942">
        <ele>100.5</ele>
        <time>2014-7-5T9:6:19.000Z</time>
      </trkpt>
      <trkpt lat="44.54176" lon="0.70939">
        <ele>101.5</ele>
        <time>2014-7-5T9:6:19.000Z</time>
      </trkpt>
      <trkpt lat="44.54177" lon="0.70935">
        <ele>101.5</ele>
        <time>2014-7-5T9:6:19.000Z</time>
      </trkpt>
      <trkpt lat="44.54178" lon="0.70932">
        <ele>101.5</ele>
        <time>2014-7-5T9:6:19.000Z</time>
      </trkpt>
      <trkpt lat="44.54179" lon="0.70928">
        <ele>102.5</ele>
        <time>2014-7-5T9:6:19.000Z</time>
      </trkpt>
      <trkpt lat="44.5418" lon="0.70925">
        <ele>102.5</ele>
        <time>2014-7-5T9:6:19.000Z</time>
      </trkpt>
      <trkpt lat="44.54182" lon="0.70921">
        <ele>102.5</ele>
        <time>2014-7-5T9:6:19.000Z</time>
      </trkpt>
      <trkpt lat="44.54183" lon="0.70918">
        <ele>102.5</ele>
        <time>2014-7-5T9:6:19.000Z</time>
      </trkpt>
      <trkpt lat="44.54184" lon="0.70915">
        <ele>102.5</ele>
        <time>2014-7-5T9:6:19.000Z</time>
      </trkpt>
      <trkpt lat="44.54186" lon="0.70912">
        <ele>103.5</ele>
        <time>2014-7-5T9:6:19.000Z</time>
      </trkpt>
      <trkpt lat="44.54187" lon="0.70908">
        <ele>103.5</ele>
        <time>2014-7-5T9:6:19.000Z</time>
      </trkpt>
      <trkpt lat="44.54189" lon="0.70905">
        <ele>103.5</ele>
        <time>2014-7-5T9:6:19.000Z</time>
      </trkpt>
      <trkpt lat="44.5419" lon="0.70902">
        <ele>103.5</ele>
        <time>2014-7-5T9:6:19.000Z</time>
      </trkpt>
      <trkpt lat="44.54192" lon="0.70898">
        <ele>103.5</ele>
        <time>2014-7-5T9:6:19.000Z</time>
      </trkpt>
      <trkpt lat="44.54193" lon="0.70895">
        <ele>103.5</ele>
        <time>2014-7-5T9:6:19.000Z</time>
      </trkpt>
      <trkpt lat="44.54195" lon="0.70891">
        <ele>103.5</ele>
        <time>2014-7-5T9:6:19.000Z</time>
      </trkpt>
      <trkpt lat="44.54196" lon="0.70888">
        <ele>103.5</ele>
        <time>2014-7-5T9:6:19.000Z</time>
      </trkpt>
      <trkpt lat="44.54197" lon="0.70884">
        <ele>104.5</ele>
        <time>2014-7-5T9:6:19.000Z</time>
      </trkpt>
      <trkpt lat="44.54198" lon="0.70881">
        <ele>104.5</ele>
        <time>2014-7-5T9:6:19.000Z</time>
      </trkpt>
      <trkpt lat="44.542" lon="0.70877">
        <ele>104.5</ele>
        <time>2014-7-5T9:6:19.000Z</time>
      </trkpt>
      <trkpt lat="44.54201" lon="0.70874">
        <ele>104.5</ele>
        <time>2014-7-5T9:6:19.000Z</time>
      </trkpt>
      <trkpt lat="44.54202" lon="0.7087">
        <ele>104.5</ele>
        <time>2014-7-5T9:6:19.000Z</time>
      </trkpt>
      <trkpt lat="44.54203" lon="0.70867">
        <ele>105.5</ele>
        <time>2014-7-5T9:6:19.000Z</time>
      </trkpt>
      <trkpt lat="44.54204" lon="0.70864">
        <ele>105.5</ele>
        <time>2014-7-5T9:6:19.000Z</time>
      </trkpt>
      <trkpt lat="44.54206" lon="0.7086">
        <ele>105.5</ele>
        <time>2014-7-5T9:6:19.000Z</time>
      </trkpt>
      <trkpt lat="44.54207" lon="0.70858">
        <ele>105.5</ele>
        <time>2014-7-5T9:6:19.000Z</time>
      </trkpt>
      <trkpt lat="44.54208" lon="0.70855">
        <ele>105.5</ele>
        <time>2014-7-5T9:6:19.000Z</time>
      </trkpt>
      <trkpt lat="44.54209" lon="0.70853">
        <ele>105.5</ele>
        <time>2014-7-5T9:6:19.000Z</time>
      </trkpt>
      <trkpt lat="44.54211" lon="0.70851">
        <ele>105.5</ele>
        <time>2014-7-5T9:6:19.000Z</time>
      </trkpt>
      <trkpt lat="44.54213" lon="0.70849">
        <ele>105.5</ele>
        <time>2014-7-5T9:6:19.000Z</time>
      </trkpt>
      <trkpt lat="44.54215" lon="0.7085">
        <ele>105.5</ele>
        <time>2014-7-5T9:6:19.000Z</time>
      </trkpt>
      <trkpt lat="44.54217" lon="0.70851">
        <ele>105.5</ele>
        <time>2014-7-5T9:6:19.000Z</time>
      </trkpt>
      <trkpt lat="44.54219" lon="0.70853">
        <ele>104.5</ele>
        <time>2014-7-5T9:6:19.000Z</time>
      </trkpt>
      <trkpt lat="44.54221" lon="0.70855">
        <ele>104.5</ele>
        <time>2014-7-5T9:6:19.000Z</time>
      </trkpt>
      <trkpt lat="44.54223" lon="0.70856">
        <ele>104.5</ele>
        <time>2014-7-5T9:6:19.000Z</time>
      </trkpt>
      <trkpt lat="44.54225" lon="0.70858">
        <ele>104.5</ele>
        <time>2014-7-5T9:6:19.000Z</time>
      </trkpt>
      <trkpt lat="44.54228" lon="0.7086">
        <ele>104.5</ele>
        <time>2014-7-5T9:6:19.000Z</time>
      </trkpt>
      <trkpt lat="44.54231" lon="0.70862">
        <ele>104.5</ele>
        <time>2014-7-5T9:6:19.000Z</time>
      </trkpt>
      <trkpt lat="44.54233" lon="0.70864">
        <ele>104.5</ele>
        <time>2014-7-5T9:6:19.000Z</time>
      </trkpt>
      <trkpt lat="44.54236" lon="0.70866">
        <ele>104.5</ele>
        <time>2014-7-5T9:6:19.000Z</time>
      </trkpt>
      <trkpt lat="44.54239" lon="0.70868">
        <ele>104.5</ele>
        <time>2014-7-5T9:6:19.000Z</time>
      </trkpt>
      <trkpt lat="44.54242" lon="0.7087">
        <ele>104.5</ele>
        <time>2014-7-5T9:6:19.000Z</time>
      </trkpt>
      <trkpt lat="44.54245" lon="0.70871">
        <ele>104.5</ele>
        <time>2014-7-5T9:6:19.000Z</time>
      </trkpt>
      <trkpt lat="44.54248" lon="0.70873">
        <ele>104.5</ele>
        <time>2014-7-5T9:6:19.000Z</time>
      </trkpt>
      <trkpt lat="44.54251" lon="0.70874">
        <ele>104.5</ele>
        <time>2014-7-5T9:6:19.000Z</time>
      </trkpt>
      <trkpt lat="44.54254" lon="0.70876">
        <ele>104.5</ele>
        <time>2014-7-5T9:6:19.000Z</time>
      </trkpt>
      <trkpt lat="44.54257" lon="0.70877">
        <ele>104.5</ele>
        <time>2014-7-5T9:6:19.000Z</time>
      </trkpt>
      <trkpt lat="44.5426" lon="0.70878">
        <ele>104.5</ele>
        <time>2014-7-5T9:6:19.000Z</time>
      </trkpt>
      <trkpt lat="44.54263" lon="0.70879">
        <ele>104.5</ele>
        <time>2014-7-5T9:6:19.000Z</time>
      </trkpt>
      <trkpt lat="44.54266" lon="0.7088">
        <ele>104.5</ele>
        <time>2014-7-5T9:6:19.000Z</time>
      </trkpt>
      <trkpt lat="44.54268" lon="0.70882">
        <ele>104.5</ele>
        <time>2014-7-5T9:6:19.000Z</time>
      </trkpt>
      <trkpt lat="44.54271" lon="0.70885">
        <ele>105.5</ele>
        <time>2014-7-5T9:6:19.000Z</time>
      </trkpt>
      <trkpt lat="44.54273" lon="0.70887">
        <ele>105.5</ele>
        <time>2014-7-5T9:6:19.000Z</time>
      </trkpt>
      <trkpt lat="44.54276" lon="0.7089">
        <ele>104.5</ele>
        <time>2014-7-5T9:6:19.000Z</time>
      </trkpt>
      <trkpt lat="44.54279" lon="0.70892">
        <ele>104.5</ele>
        <time>2014-7-5T9:6:19.000Z</time>
      </trkpt>
      <trkpt lat="44.54281" lon="0.70895">
        <ele>104.5</ele>
        <time>2014-7-5T9:6:19.000Z</time>
      </trkpt>
      <trkpt lat="44.54284" lon="0.70898">
        <ele>104.5</ele>
        <time>2014-7-5T9:6:19.000Z</time>
      </trkpt>
      <trkpt lat="44.54287" lon="0.709">
        <ele>104.5</ele>
        <time>2014-7-5T9:6:19.000Z</time>
      </trkpt>
      <trkpt lat="44.54289" lon="0.70903">
        <ele>104.5</ele>
        <time>2014-7-5T9:6:19.000Z</time>
      </trkpt>
      <trkpt lat="44.54292" lon="0.70906">
        <ele>104.5</ele>
        <time>2014-7-5T9:6:19.000Z</time>
      </trkpt>
      <trkpt lat="44.54294" lon="0.70908">
        <ele>104.5</ele>
        <time>2014-7-5T9:6:19.000Z</time>
      </trkpt>
      <trkpt lat="44.54297" lon="0.70911">
        <ele>104.5</ele>
        <time>2014-7-5T9:6:19.000Z</time>
      </trkpt>
      <trkpt lat="44.543" lon="0.70913">
        <ele>104.5</ele>
        <time>2014-7-5T9:6:19.000Z</time>
      </trkpt>
      <trkpt lat="44.54303" lon="0.70916">
        <ele>104.5</ele>
        <time>2014-7-5T9:6:19.000Z</time>
      </trkpt>
      <trkpt lat="44.54305" lon="0.70918">
        <ele>104.5</ele>
        <time>2014-7-5T9:6:19.000Z</time>
      </trkpt>
      <trkpt lat="44.54308" lon="0.7092">
        <ele>104.5</ele>
        <time>2014-7-5T9:6:19.000Z</time>
      </trkpt>
      <trkpt lat="44.54311" lon="0.70922">
        <ele>104.5</ele>
        <time>2014-7-5T9:6:19.000Z</time>
      </trkpt>
      <trkpt lat="44.54314" lon="0.70924">
        <ele>104.5</ele>
        <time>2014-7-5T9:6:19.000Z</time>
      </trkpt>
      <trkpt lat="44.54317" lon="0.70925">
        <ele>104.5</ele>
        <time>2014-7-5T9:6:19.000Z</time>
      </trkpt>
      <trkpt lat="44.5432" lon="0.70926">
        <ele>104.5</ele>
        <time>2014-7-5T9:6:19.000Z</time>
      </trkpt>
      <trkpt lat="44.54323" lon="0.70926">
        <ele>104.5</ele>
        <time>2014-7-5T9:6:19.000Z</time>
      </trkpt>
      <trkpt lat="44.54326" lon="0.70927">
        <ele>104.5</ele>
        <time>2014-7-5T9:6:19.000Z</time>
      </trkpt>
      <trkpt lat="44.54329" lon="0.70927">
        <ele>104.5</ele>
        <time>2014-7-5T9:6:19.000Z</time>
      </trkpt>
      <trkpt lat="44.54332" lon="0.70928">
        <ele>104.5</ele>
        <time>2014-7-5T9:6:19.000Z</time>
      </trkpt>
      <trkpt lat="44.54335" lon="0.70929">
        <ele>104.5</ele>
        <time>2014-7-5T9:6:19.000Z</time>
      </trkpt>
      <trkpt lat="44.54338" lon="0.7093">
        <ele>104.5</ele>
        <time>2014-7-5T9:6:19.000Z</time>
      </trkpt>
      <trkpt lat="44.54341" lon="0.70931">
        <ele>104.5</ele>
        <time>2014-7-5T9:6:19.000Z</time>
      </trkpt>
      <trkpt lat="44.54344" lon="0.70933">
        <ele>104.5</ele>
        <time>2014-7-5T9:6:19.000Z</time>
      </trkpt>
      <trkpt lat="44.54346" lon="0.70934">
        <ele>104.5</ele>
        <time>2014-7-5T9:8:1.000Z</time>
      </trkpt>
      <trkpt lat="44.54349" lon="0.70936">
        <ele>103.5</ele>
        <time>2014-7-5T9:8:1.000Z</time>
      </trkpt>
      <trkpt lat="44.54352" lon="0.70938">
        <ele>103.5</ele>
        <time>2014-7-5T9:8:1.000Z</time>
      </trkpt>
      <trkpt lat="44.54354" lon="0.70941">
        <ele>103.5</ele>
        <time>2014-7-5T9:8:1.000Z</time>
      </trkpt>
      <trkpt lat="44.54357" lon="0.70943">
        <ele>103.5</ele>
        <time>2014-7-5T9:8:1.000Z</time>
      </trkpt>
      <trkpt lat="44.5436" lon="0.70946">
        <ele>103.5</ele>
        <time>2014-7-5T9:8:1.000Z</time>
      </trkpt>
      <trkpt lat="44.54362" lon="0.70949">
        <ele>103.5</ele>
        <time>2014-7-5T9:8:1.000Z</time>
      </trkpt>
      <trkpt lat="44.54365" lon="0.70952">
        <ele>103.5</ele>
        <time>2014-7-5T9:8:1.000Z</time>
      </trkpt>
      <trkpt lat="44.54367" lon="0.70955">
        <ele>103.5</ele>
        <time>2014-7-5T9:8:1.000Z</time>
      </trkpt>
      <trkpt lat="44.54369" lon="0.70959">
        <ele>103.5</ele>
        <time>2014-7-5T9:8:1.000Z</time>
      </trkpt>
      <trkpt lat="44.54371" lon="0.70962">
        <ele>103.5</ele>
        <time>2014-7-5T9:8:1.000Z</time>
      </trkpt>
      <trkpt lat="44.54373" lon="0.70966">
        <ele>103.5</ele>
        <time>2014-7-5T9:8:1.000Z</time>
      </trkpt>
      <trkpt lat="44.54375" lon="0.7097">
        <ele>103.5</ele>
        <time>2014-7-5T9:8:1.000Z</time>
      </trkpt>
      <trkpt lat="44.54376" lon="0.70973">
        <ele>103.5</ele>
        <time>2014-7-5T9:8:1.000Z</time>
      </trkpt>
      <trkpt lat="44.54377" lon="0.70977">
        <ele>103.5</ele>
        <time>2014-7-5T9:8:1.000Z</time>
      </trkpt>
      <trkpt lat="44.54378" lon="0.70981">
        <ele>103.5</ele>
        <time>2014-7-5T9:8:1.000Z</time>
      </trkpt>
      <trkpt lat="44.54379" lon="0.70984">
        <ele>102.5</ele>
        <time>2014-7-5T9:8:1.000Z</time>
      </trkpt>
      <trkpt lat="44.5438" lon="0.70988">
        <ele>102.5</ele>
        <time>2014-7-5T9:8:1.000Z</time>
      </trkpt>
      <trkpt lat="44.54381" lon="0.70992">
        <ele>103.5</ele>
        <time>2014-7-5T9:8:1.000Z</time>
      </trkpt>
      <trkpt lat="44.54382" lon="0.70995">
        <ele>102.5</ele>
        <time>2014-7-5T9:8:1.000Z</time>
      </trkpt>
      <trkpt lat="44.54384" lon="0.70999">
        <ele>102.5</ele>
        <time>2014-7-5T9:8:1.000Z</time>
      </trkpt>
      <trkpt lat="44.54385" lon="0.71003">
        <ele>102.5</ele>
        <time>2014-7-5T9:8:1.000Z</time>
      </trkpt>
      <trkpt lat="44.54386" lon="0.71007">
        <ele>102.5</ele>
        <time>2014-7-5T9:8:1.000Z</time>
      </trkpt>
      <trkpt lat="44.54388" lon="0.71011">
        <ele>102.5</ele>
        <time>2014-7-5T9:8:1.000Z</time>
      </trkpt>
      <trkpt lat="44.5439" lon="0.71015">
        <ele>102.5</ele>
        <time>2014-7-5T9:8:1.000Z</time>
      </trkpt>
      <trkpt lat="44.54391" lon="0.71019">
        <ele>101.5</ele>
        <time>2014-7-5T9:8:1.000Z</time>
      </trkpt>
      <trkpt lat="44.54392" lon="0.71023">
        <ele>101.5</ele>
        <time>2014-7-5T9:8:1.000Z</time>
      </trkpt>
      <trkpt lat="44.54393" lon="0.71028">
        <ele>102.5</ele>
        <time>2014-7-5T9:8:1.000Z</time>
      </trkpt>
      <trkpt lat="44.54395" lon="0.71032">
        <ele>102.5</ele>
        <time>2014-7-5T9:8:1.000Z</time>
      </trkpt>
      <trkpt lat="44.54396" lon="0.71036">
        <ele>102.5</ele>
        <time>2014-7-5T9:8:1.000Z</time>
      </trkpt>
      <trkpt lat="44.54397" lon="0.7104">
        <ele>101.5</ele>
        <time>2014-7-5T9:8:1.000Z</time>
      </trkpt>
      <trkpt lat="44.54399" lon="0.71045">
        <ele>101.5</ele>
        <time>2014-7-5T9:8:1.000Z</time>
      </trkpt>
      <trkpt lat="44.544" lon="0.71049">
        <ele>102.5</ele>
        <time>2014-7-5T9:8:1.000Z</time>
      </trkpt>
      <trkpt lat="44.54401" lon="0.71054">
        <ele>102.5</ele>
        <time>2014-7-5T9:8:1.000Z</time>
      </trkpt>
      <trkpt lat="44.54402" lon="0.71058">
        <ele>102.5</ele>
        <time>2014-7-5T9:8:1.000Z</time>
      </trkpt>
      <trkpt lat="44.54404" lon="0.71063">
        <ele>102.5</ele>
        <time>2014-7-5T9:8:1.000Z</time>
      </trkpt>
      <trkpt lat="44.54405" lon="0.71067">
        <ele>102.5</ele>
        <time>2014-7-5T9:8:1.000Z</time>
      </trkpt>
      <trkpt lat="44.54406" lon="0.71071">
        <ele>102.5</ele>
        <time>2014-7-5T9:8:1.000Z</time>
      </trkpt>
      <trkpt lat="44.54408" lon="0.71076">
        <ele>102.5</ele>
        <time>2014-7-5T9:8:1.000Z</time>
      </trkpt>
      <trkpt lat="44.54409" lon="0.7108">
        <ele>102.5</ele>
        <time>2014-7-5T9:8:1.000Z</time>
      </trkpt>
      <trkpt lat="44.54411" lon="0.71084">
        <ele>102.5</ele>
        <time>2014-7-5T9:8:1.000Z</time>
      </trkpt>
      <trkpt lat="44.54413" lon="0.71088">
        <ele>102.5</ele>
        <time>2014-7-5T9:8:1.000Z</time>
      </trkpt>
      <trkpt lat="44.54415" lon="0.7109">
        <ele>102.5</ele>
        <time>2014-7-5T9:8:1.000Z</time>
      </trkpt>
      <trkpt lat="44.54418" lon="0.71092">
        <ele>102.5</ele>
        <time>2014-7-5T9:8:1.000Z</time>
      </trkpt>
      <trkpt lat="44.54422" lon="0.71094">
        <ele>102.5</ele>
        <time>2014-7-5T9:8:1.000Z</time>
      </trkpt>
      <trkpt lat="44.54425" lon="0.71095">
        <ele>102.5</ele>
        <time>2014-7-5T9:8:1.000Z</time>
      </trkpt>
      <trkpt lat="44.54428" lon="0.71096">
        <ele>102.5</ele>
        <time>2014-7-5T9:8:1.000Z</time>
      </trkpt>
      <trkpt lat="44.54432" lon="0.71097">
        <ele>102.5</ele>
        <time>2014-7-5T9:8:1.000Z</time>
      </trkpt>
      <trkpt lat="44.54435" lon="0.71098">
        <ele>102.5</ele>
        <time>2014-7-5T9:8:1.000Z</time>
      </trkpt>
      <trkpt lat="44.54439" lon="0.711">
        <ele>102.5</ele>
        <time>2014-7-5T9:8:1.000Z</time>
      </trkpt>
      <trkpt lat="44.54442" lon="0.71101">
        <ele>102.5</ele>
        <time>2014-7-5T9:8:1.000Z</time>
      </trkpt>
      <trkpt lat="44.54445" lon="0.71102">
        <ele>102.5</ele>
        <time>2014-7-5T9:8:1.000Z</time>
      </trkpt>
      <trkpt lat="44.54449" lon="0.71103">
        <ele>101.5</ele>
        <time>2014-7-5T9:8:1.000Z</time>
      </trkpt>
      <trkpt lat="44.54452" lon="0.71104">
        <ele>101.5</ele>
        <time>2014-7-5T9:8:1.000Z</time>
      </trkpt>
      <trkpt lat="44.54455" lon="0.71105">
        <ele>101.5</ele>
        <time>2014-7-5T9:8:1.000Z</time>
      </trkpt>
      <trkpt lat="44.54459" lon="0.71107">
        <ele>101.5</ele>
        <time>2014-7-5T9:8:1.000Z</time>
      </trkpt>
      <trkpt lat="44.54462" lon="0.71107">
        <ele>101.5</ele>
        <time>2014-7-5T9:8:1.000Z</time>
      </trkpt>
      <trkpt lat="44.54465" lon="0.71108">
        <ele>101.5</ele>
        <time>2014-7-5T9:8:1.000Z</time>
      </trkpt>
      <trkpt lat="44.54469" lon="0.71109">
        <ele>101.5</ele>
        <time>2014-7-5T9:8:1.000Z</time>
      </trkpt>
      <trkpt lat="44.54472" lon="0.7111">
        <ele>101.5</ele>
        <time>2014-7-5T9:8:1.000Z</time>
      </trkpt>
      <trkpt lat="44.54476" lon="0.71112">
        <ele>102.5</ele>
        <time>2014-7-5T9:8:1.000Z</time>
      </trkpt>
      <trkpt lat="44.54479" lon="0.71113">
        <ele>102.5</ele>
        <time>2014-7-5T9:8:1.000Z</time>
      </trkpt>
      <trkpt lat="44.54482" lon="0.71114">
        <ele>101.5</ele>
        <time>2014-7-5T9:8:1.000Z</time>
      </trkpt>
      <trkpt lat="44.54486" lon="0.71116">
        <ele>101.5</ele>
        <time>2014-7-5T9:8:1.000Z</time>
      </trkpt>
      <trkpt lat="44.54489" lon="0.71117">
        <ele>102.5</ele>
        <time>2014-7-5T9:8:1.000Z</time>
      </trkpt>
      <trkpt lat="44.54493" lon="0.71119">
        <ele>102.5</ele>
        <time>2014-7-5T9:8:1.000Z</time>
      </trkpt>
      <trkpt lat="44.54496" lon="0.71119">
        <ele>102.5</ele>
        <time>2014-7-5T9:8:1.000Z</time>
      </trkpt>
      <trkpt lat="44.545" lon="0.7112">
        <ele>102.5</ele>
        <time>2014-7-5T9:8:1.000Z</time>
      </trkpt>
      <trkpt lat="44.54503" lon="0.7112">
        <ele>102.5</ele>
        <time>2014-7-5T9:8:1.000Z</time>
      </trkpt>
      <trkpt lat="44.54507" lon="0.71121">
        <ele>102.5</ele>
        <time>2014-7-5T9:8:1.000Z</time>
      </trkpt>
      <trkpt lat="44.5451" lon="0.71122">
        <ele>103.5</ele>
        <time>2014-7-5T9:8:1.000Z</time>
      </trkpt>
      <trkpt lat="44.54514" lon="0.71122">
        <ele>103.5</ele>
        <time>2014-7-5T9:8:1.000Z</time>
      </trkpt>
      <trkpt lat="44.54517" lon="0.71122">
        <ele>103.5</ele>
        <time>2014-7-5T9:8:1.000Z</time>
      </trkpt>
      <trkpt lat="44.5452" lon="0.71121">
        <ele>104.5</ele>
        <time>2014-7-5T9:8:1.000Z</time>
      </trkpt>
      <trkpt lat="44.54523" lon="0.7112">
        <ele>104.5</ele>
        <time>2014-7-5T9:8:1.000Z</time>
      </trkpt>
      <trkpt lat="44.54525" lon="0.7112">
        <ele>104.5</ele>
        <time>2014-7-5T9:8:1.000Z</time>
      </trkpt>
      <trkpt lat="44.54527" lon="0.7112">
        <ele>104.5</ele>
        <time>2014-7-5T9:8:1.000Z</time>
      </trkpt>
      <trkpt lat="44.5453" lon="0.7112">
        <ele>104.5</ele>
        <time>2014-7-5T9:8:1.000Z</time>
      </trkpt>
      <trkpt lat="44.54533" lon="0.7112">
        <ele>104.5</ele>
        <time>2014-7-5T9:8:1.000Z</time>
      </trkpt>
      <trkpt lat="44.54536" lon="0.7112">
        <ele>105.5</ele>
        <time>2014-7-5T9:8:1.000Z</time>
      </trkpt>
      <trkpt lat="44.5454" lon="0.7112">
        <ele>105.5</ele>
        <time>2014-7-5T9:8:1.000Z</time>
      </trkpt>
      <trkpt lat="44.54543" lon="0.7112">
        <ele>105.5</ele>
        <time>2014-7-5T9:8:1.000Z</time>
      </trkpt>
      <trkpt lat="44.54546" lon="0.7112">
        <ele>105.5</ele>
        <time>2014-7-5T9:8:1.000Z</time>
      </trkpt>
      <trkpt lat="44.5455" lon="0.7112">
        <ele>106.5</ele>
        <time>2014-7-5T9:8:1.000Z</time>
      </trkpt>
      <trkpt lat="44.54553" lon="0.7112">
        <ele>106.5</ele>
        <time>2014-7-5T9:8:1.000Z</time>
      </trkpt>
      <trkpt lat="44.54556" lon="0.7112">
        <ele>106.5</ele>
        <time>2014-7-5T9:8:1.000Z</time>
      </trkpt>
      <trkpt lat="44.5456" lon="0.71119">
        <ele>106.5</ele>
        <time>2014-7-5T9:8:1.000Z</time>
      </trkpt>
      <trkpt lat="44.54563" lon="0.71119">
        <ele>106.5</ele>
        <time>2014-7-5T9:8:1.000Z</time>
      </trkpt>
      <trkpt lat="44.54566" lon="0.71118">
        <ele>107.5</ele>
        <time>2014-7-5T9:8:1.000Z</time>
      </trkpt>
      <trkpt lat="44.54568" lon="0.71118">
        <ele>107.5</ele>
        <time>2014-7-5T9:8:1.000Z</time>
      </trkpt>
      <trkpt lat="44.54571" lon="0.71118">
        <ele>107.5</ele>
        <time>2014-7-5T9:8:1.000Z</time>
      </trkpt>
      <trkpt lat="44.54573" lon="0.71118">
        <ele>107.5</ele>
        <time>2014-7-5T9:8:1.000Z</time>
      </trkpt>
      <trkpt lat="44.54576" lon="0.71118">
        <ele>108.5</ele>
        <time>2014-7-5T9:8:1.000Z</time>
      </trkpt>
      <trkpt lat="44.54579" lon="0.71118">
        <ele>108.5</ele>
        <time>2014-7-5T9:8:1.000Z</time>
      </trkpt>
      <trkpt lat="44.54581" lon="0.71118">
        <ele>107.5</ele>
        <time>2014-7-5T9:8:1.000Z</time>
      </trkpt>
      <trkpt lat="44.54584" lon="0.71118">
        <ele>108.5</ele>
        <time>2014-7-5T9:8:1.000Z</time>
      </trkpt>
      <trkpt lat="44.54587" lon="0.71118">
        <ele>108.5</ele>
        <time>2014-7-5T9:8:1.000Z</time>
      </trkpt>
      <trkpt lat="44.54589" lon="0.71118">
        <ele>108.5</ele>
        <time>2014-7-5T9:8:1.000Z</time>
      </trkpt>
      <trkpt lat="44.54592" lon="0.71118">
        <ele>109.5</ele>
        <time>2014-7-5T9:8:1.000Z</time>
      </trkpt>
      <trkpt lat="44.54595" lon="0.71119">
        <ele>109.5</ele>
        <time>2014-7-5T9:8:1.000Z</time>
      </trkpt>
      <trkpt lat="44.54597" lon="0.71119">
        <ele>109.5</ele>
        <time>2014-7-5T9:8:1.000Z</time>
      </trkpt>
      <trkpt lat="44.546" lon="0.71119">
        <ele>109.5</ele>
        <time>2014-7-5T9:9:47.000Z</time>
      </trkpt>
      <trkpt lat="44.54603" lon="0.71119">
        <ele>109.5</ele>
        <time>2014-7-5T9:9:47.000Z</time>
      </trkpt>
      <trkpt lat="44.54605" lon="0.71119">
        <ele>110.5</ele>
        <time>2014-7-5T9:9:47.000Z</time>
      </trkpt>
      <trkpt lat="44.54608" lon="0.71119">
        <ele>109.5</ele>
        <time>2014-7-5T9:9:47.000Z</time>
      </trkpt>
      <trkpt lat="44.5461" lon="0.71119">
        <ele>109.5</ele>
        <time>2014-7-5T9:9:47.000Z</time>
      </trkpt>
      <trkpt lat="44.54612" lon="0.71119">
        <ele>109.5</ele>
        <time>2014-7-5T9:9:47.000Z</time>
      </trkpt>
      <trkpt lat="44.54615" lon="0.71118">
        <ele>110.5</ele>
        <time>2014-7-5T9:9:47.000Z</time>
      </trkpt>
      <trkpt lat="44.54618" lon="0.71118">
        <ele>109.5</ele>
        <time>2014-7-5T9:9:47.000Z</time>
      </trkpt>
      <trkpt lat="44.54621" lon="0.71117">
        <ele>109.5</ele>
        <time>2014-7-5T9:9:47.000Z</time>
      </trkpt>
      <trkpt lat="44.54624" lon="0.71117">
        <ele>109.5</ele>
        <time>2014-7-5T9:9:47.000Z</time>
      </trkpt>
      <trkpt lat="44.54627" lon="0.71116">
        <ele>109.5</ele>
        <time>2014-7-5T9:9:47.000Z</time>
      </trkpt>
      <trkpt lat="44.5463" lon="0.71115">
        <ele>110.5</ele>
        <time>2014-7-5T9:9:47.000Z</time>
      </trkpt>
      <trkpt lat="44.54633" lon="0.71115">
        <ele>110.5</ele>
        <time>2014-7-5T9:9:47.000Z</time>
      </trkpt>
      <trkpt lat="44.54636" lon="0.71115">
        <ele>110.5</ele>
        <time>2014-7-5T9:9:47.000Z</time>
      </trkpt>
      <trkpt lat="44.54639" lon="0.71115">
        <ele>110.5</ele>
        <time>2014-7-5T9:9:47.000Z</time>
      </trkpt>
      <trkpt lat="44.54642" lon="0.71115">
        <ele>111.5</ele>
        <time>2014-7-5T9:9:47.000Z</time>
      </trkpt>
      <trkpt lat="44.54644" lon="0.71114">
        <ele>111.5</ele>
        <time>2014-7-5T9:9:47.000Z</time>
      </trkpt>
      <trkpt lat="44.54647" lon="0.71114">
        <ele>111.5</ele>
        <time>2014-7-5T9:9:47.000Z</time>
      </trkpt>
      <trkpt lat="44.5465" lon="0.71114">
        <ele>111.5</ele>
        <time>2014-7-5T9:9:47.000Z</time>
      </trkpt>
      <trkpt lat="44.54653" lon="0.71114">
        <ele>111.5</ele>
        <time>2014-7-5T9:9:47.000Z</time>
      </trkpt>
      <trkpt lat="44.54655" lon="0.71114">
        <ele>111.5</ele>
        <time>2014-7-5T9:9:47.000Z</time>
      </trkpt>
      <trkpt lat="44.54658" lon="0.71113">
        <ele>111.5</ele>
        <time>2014-7-5T9:9:47.000Z</time>
      </trkpt>
      <trkpt lat="44.54661" lon="0.71112">
        <ele>112.5</ele>
        <time>2014-7-5T9:9:47.000Z</time>
      </trkpt>
      <trkpt lat="44.54663" lon="0.71112">
        <ele>111.5</ele>
        <time>2014-7-5T9:9:47.000Z</time>
      </trkpt>
      <trkpt lat="44.54666" lon="0.71111">
        <ele>111.5</ele>
        <time>2014-7-5T9:9:47.000Z</time>
      </trkpt>
      <trkpt lat="44.54668" lon="0.7111">
        <ele>112.5</ele>
        <time>2014-7-5T9:9:47.000Z</time>
      </trkpt>
      <trkpt lat="44.54671" lon="0.71108">
        <ele>112.5</ele>
        <time>2014-7-5T9:9:47.000Z</time>
      </trkpt>
      <trkpt lat="44.54673" lon="0.71107">
        <ele>112.5</ele>
        <time>2014-7-5T9:9:47.000Z</time>
      </trkpt>
      <trkpt lat="44.54675" lon="0.71107">
        <ele>111.5</ele>
        <time>2014-7-5T9:9:47.000Z</time>
      </trkpt>
      <trkpt lat="44.54677" lon="0.71109">
        <ele>111.5</ele>
        <time>2014-7-5T9:9:47.000Z</time>
      </trkpt>
      <trkpt lat="44.54678" lon="0.71112">
        <ele>111.5</ele>
        <time>2014-7-5T9:9:47.000Z</time>
      </trkpt>
      <trkpt lat="44.54678" lon="0.71116">
        <ele>111.5</ele>
        <time>2014-7-5T9:9:47.000Z</time>
      </trkpt>
      <trkpt lat="44.54678" lon="0.71121">
        <ele>111.5</ele>
        <time>2014-7-5T9:9:47.000Z</time>
      </trkpt>
      <trkpt lat="44.54677" lon="0.71125">
        <ele>111.5</ele>
        <time>2014-7-5T9:9:47.000Z</time>
      </trkpt>
      <trkpt lat="44.54677" lon="0.71129">
        <ele>111.5</ele>
        <time>2014-7-5T9:9:47.000Z</time>
      </trkpt>
      <trkpt lat="44.54676" lon="0.71133">
        <ele>111.5</ele>
        <time>2014-7-5T9:9:47.000Z</time>
      </trkpt>
      <trkpt lat="44.54676" lon="0.71137">
        <ele>111.5</ele>
        <time>2014-7-5T9:9:47.000Z</time>
      </trkpt>
      <trkpt lat="44.54675" lon="0.71142">
        <ele>111.5</ele>
        <time>2014-7-5T9:9:47.000Z</time>
      </trkpt>
      <trkpt lat="44.54674" lon="0.71146">
        <ele>110.5</ele>
        <time>2014-7-5T9:9:47.000Z</time>
      </trkpt>
      <trkpt lat="44.54673" lon="0.7115">
        <ele>110.5</ele>
        <time>2014-7-5T9:9:47.000Z</time>
      </trkpt>
      <trkpt lat="44.54673" lon="0.71154">
        <ele>110.5</ele>
        <time>2014-7-5T9:9:47.000Z</time>
      </trkpt>
      <trkpt lat="44.54672" lon="0.71158">
        <ele>111.5</ele>
        <time>2014-7-5T9:9:47.000Z</time>
      </trkpt>
      <trkpt lat="44.54672" lon="0.71163">
        <ele>111.5</ele>
        <time>2014-7-5T9:9:47.000Z</time>
      </trkpt>
      <trkpt lat="44.54672" lon="0.71167">
        <ele>111.5</ele>
        <time>2014-7-5T9:9:47.000Z</time>
      </trkpt>
      <trkpt lat="44.54673" lon="0.71171">
        <ele>111.5</ele>
        <time>2014-7-5T9:9:47.000Z</time>
      </trkpt>
      <trkpt lat="44.54674" lon="0.71176">
        <ele>111.5</ele>
        <time>2014-7-5T9:9:47.000Z</time>
      </trkpt>
      <trkpt lat="44.54674" lon="0.7118">
        <ele>111.5</ele>
        <time>2014-7-5T9:9:47.000Z</time>
      </trkpt>
      <trkpt lat="44.54675" lon="0.71184">
        <ele>111.5</ele>
        <time>2014-7-5T9:9:47.000Z</time>
      </trkpt>
      <trkpt lat="44.54676" lon="0.71189">
        <ele>111.5</ele>
        <time>2014-7-5T9:9:47.000Z</time>
      </trkpt>
      <trkpt lat="44.54677" lon="0.71192">
        <ele>111.5</ele>
        <time>2014-7-5T9:9:47.000Z</time>
      </trkpt>
      <trkpt lat="44.54679" lon="0.71196">
        <ele>111.5</ele>
        <time>2014-7-5T9:9:47.000Z</time>
      </trkpt>
      <trkpt lat="44.54681" lon="0.712">
        <ele>111.5</ele>
        <time>2014-7-5T9:9:47.000Z</time>
      </trkpt>
      <trkpt lat="44.54683" lon="0.71203">
        <ele>112.5</ele>
        <time>2014-7-5T9:9:47.000Z</time>
      </trkpt>
      <trkpt lat="44.54685" lon="0.71206">
        <ele>112.5</ele>
        <time>2014-7-5T9:9:47.000Z</time>
      </trkpt>
      <trkpt lat="44.54687" lon="0.7121">
        <ele>111.5</ele>
        <time>2014-7-5T9:9:47.000Z</time>
      </trkpt>
      <trkpt lat="44.54691" lon="0.71217">
        <ele>111.5</ele>
        <time>2014-7-5T9:9:47.000Z</time>
      </trkpt>
      <trkpt lat="44.54692" lon="0.7122">
        <ele>111.5</ele>
        <time>2014-7-5T9:9:47.000Z</time>
      </trkpt>
      <trkpt lat="44.54694" lon="0.71224">
        <ele>111.5</ele>
        <time>2014-7-5T9:9:47.000Z</time>
      </trkpt>
      <trkpt lat="44.54696" lon="0.71228">
        <ele>111.5</ele>
        <time>2014-7-5T9:9:47.000Z</time>
      </trkpt>
      <trkpt lat="44.54697" lon="0.71231">
        <ele>111.5</ele>
        <time>2014-7-5T9:9:47.000Z</time>
      </trkpt>
      <trkpt lat="44.54698" lon="0.71235">
        <ele>111.5</ele>
        <time>2014-7-5T9:9:47.000Z</time>
      </trkpt>
      <trkpt lat="44.547" lon="0.71239">
        <ele>111.5</ele>
        <time>2014-7-5T9:9:47.000Z</time>
      </trkpt>
      <trkpt lat="44.54702" lon="0.71242">
        <ele>111.5</ele>
        <time>2014-7-5T9:9:47.000Z</time>
      </trkpt>
      <trkpt lat="44.54704" lon="0.71246">
        <ele>111.5</ele>
        <time>2014-7-5T9:9:47.000Z</time>
      </trkpt>
      <trkpt lat="44.54705" lon="0.71249">
        <ele>111.5</ele>
        <time>2014-7-5T9:9:47.000Z</time>
      </trkpt>
      <trkpt lat="44.54707" lon="0.71253">
        <ele>112.5</ele>
        <time>2014-7-5T9:9:47.000Z</time>
      </trkpt>
      <trkpt lat="44.54708" lon="0.71257">
        <ele>111.5</ele>
        <time>2014-7-5T9:9:47.000Z</time>
      </trkpt>
      <trkpt lat="44.54709" lon="0.7126">
        <ele>112.5</ele>
        <time>2014-7-5T9:9:47.000Z</time>
      </trkpt>
      <trkpt lat="44.5471" lon="0.71264">
        <ele>112.5</ele>
        <time>2014-7-5T9:9:47.000Z</time>
      </trkpt>
      <trkpt lat="44.54711" lon="0.71268">
        <ele>112.5</ele>
        <time>2014-7-5T9:9:47.000Z</time>
      </trkpt>
      <trkpt lat="44.54712" lon="0.71271">
        <ele>112.5</ele>
        <time>2014-7-5T9:9:47.000Z</time>
      </trkpt>
      <trkpt lat="44.54713" lon="0.71275">
        <ele>112.5</ele>
        <time>2014-7-5T9:9:47.000Z</time>
      </trkpt>
      <trkpt lat="44.54714" lon="0.71279">
        <ele>112.5</ele>
        <time>2014-7-5T9:9:47.000Z</time>
      </trkpt>
      <trkpt lat="44.54716" lon="0.71282">
        <ele>112.5</ele>
        <time>2014-7-5T9:9:47.000Z</time>
      </trkpt>
      <trkpt lat="44.54717" lon="0.71286">
        <ele>112.5</ele>
        <time>2014-7-5T9:9:47.000Z</time>
      </trkpt>
      <trkpt lat="44.54718" lon="0.71289">
        <ele>112.5</ele>
        <time>2014-7-5T9:9:47.000Z</time>
      </trkpt>
      <trkpt lat="44.54719" lon="0.71293">
        <ele>113.5</ele>
        <time>2014-7-5T9:9:47.000Z</time>
      </trkpt>
      <trkpt lat="44.54721" lon="0.71297">
        <ele>113.5</ele>
        <time>2014-7-5T9:9:47.000Z</time>
      </trkpt>
      <trkpt lat="44.54722" lon="0.713">
        <ele>113.5</ele>
        <time>2014-7-5T9:9:47.000Z</time>
      </trkpt>
      <trkpt lat="44.54723" lon="0.71304">
        <ele>113.5</ele>
        <time>2014-7-5T9:9:47.000Z</time>
      </trkpt>
      <trkpt lat="44.54724" lon="0.71307">
        <ele>113.5</ele>
        <time>2014-7-5T9:9:47.000Z</time>
      </trkpt>
      <trkpt lat="44.54725" lon="0.71311">
        <ele>113.5</ele>
        <time>2014-7-5T9:9:47.000Z</time>
      </trkpt>
      <trkpt lat="44.54726" lon="0.71315">
        <ele>113.5</ele>
        <time>2014-7-5T9:9:47.000Z</time>
      </trkpt>
      <trkpt lat="44.54727" lon="0.71318">
        <ele>113.5</ele>
        <time>2014-7-5T9:9:47.000Z</time>
      </trkpt>
      <trkpt lat="44.54728" lon="0.71322">
        <ele>113.5</ele>
        <time>2014-7-5T9:9:47.000Z</time>
      </trkpt>
      <trkpt lat="44.5473" lon="0.71327">
        <ele>113.5</ele>
        <time>2014-7-5T9:9:47.000Z</time>
      </trkpt>
      <trkpt lat="44.54731" lon="0.7133">
        <ele>113.5</ele>
        <time>2014-7-5T9:9:47.000Z</time>
      </trkpt>
      <trkpt lat="44.54732" lon="0.71335">
        <ele>113.5</ele>
        <time>2014-7-5T9:9:47.000Z</time>
      </trkpt>
      <trkpt lat="44.54733" lon="0.71339">
        <ele>113.5</ele>
        <time>2014-7-5T9:9:47.000Z</time>
      </trkpt>
      <trkpt lat="44.54735" lon="0.71343">
        <ele>114.5</ele>
        <time>2014-7-5T9:9:47.000Z</time>
      </trkpt>
      <trkpt lat="44.54736" lon="0.71347">
        <ele>113.5</ele>
        <time>2014-7-5T9:9:47.000Z</time>
      </trkpt>
      <trkpt lat="44.54737" lon="0.71351">
        <ele>114.5</ele>
        <time>2014-7-5T9:9:47.000Z</time>
      </trkpt>
      <trkpt lat="44.54738" lon="0.71355">
        <ele>114.5</ele>
        <time>2014-7-5T9:9:47.000Z</time>
      </trkpt>
      <trkpt lat="44.54739" lon="0.7136">
        <ele>114.5</ele>
        <time>2014-7-5T9:9:47.000Z</time>
      </trkpt>
      <trkpt lat="44.5474" lon="0.71364">
        <ele>114.5</ele>
        <time>2014-7-5T9:9:47.000Z</time>
      </trkpt>
      <trkpt lat="44.54742" lon="0.71368">
        <ele>114.5</ele>
        <time>2014-7-5T9:9:47.000Z</time>
      </trkpt>
      <trkpt lat="44.54743" lon="0.71372">
        <ele>114.5</ele>
        <time>2014-7-5T9:9:47.000Z</time>
      </trkpt>
      <trkpt lat="44.54744" lon="0.71376">
        <ele>114.5</ele>
        <time>2014-7-5T9:9:47.000Z</time>
      </trkpt>
      <trkpt lat="44.54746" lon="0.7138">
        <ele>114.5</ele>
        <time>2014-7-5T9:9:47.000Z</time>
      </trkpt>
      <trkpt lat="44.54747" lon="0.71383">
        <ele>114.5</ele>
        <time>2014-7-5T9:9:47.000Z</time>
      </trkpt>
      <trkpt lat="44.54748" lon="0.71387">
        <ele>115.5</ele>
        <time>2014-7-5T9:9:47.000Z</time>
      </trkpt>
      <trkpt lat="44.54749" lon="0.71391">
        <ele>115.5</ele>
        <time>2014-7-5T9:11:36.000Z</time>
      </trkpt>
      <trkpt lat="44.5475" lon="0.71395">
        <ele>115.5</ele>
        <time>2014-7-5T9:11:36.000Z</time>
      </trkpt>
      <trkpt lat="44.54751" lon="0.71397">
        <ele>115.5</ele>
        <time>2014-7-5T9:11:36.000Z</time>
      </trkpt>
      <trkpt lat="44.54752" lon="0.71401">
        <ele>115.5</ele>
        <time>2014-7-5T9:11:36.000Z</time>
      </trkpt>
      <trkpt lat="44.54753" lon="0.71404">
        <ele>115.5</ele>
        <time>2014-7-5T9:11:36.000Z</time>
      </trkpt>
      <trkpt lat="44.54754" lon="0.71406">
        <ele>116.5</ele>
        <time>2014-7-5T9:11:36.000Z</time>
      </trkpt>
      <trkpt lat="44.54754" lon="0.71409">
        <ele>116.5</ele>
        <time>2014-7-5T9:11:36.000Z</time>
      </trkpt>
      <trkpt lat="44.54755" lon="0.71412">
        <ele>117.5</ele>
        <time>2014-7-5T9:11:36.000Z</time>
      </trkpt>
      <trkpt lat="44.54756" lon="0.71415">
        <ele>116.5</ele>
        <time>2014-7-5T9:11:36.000Z</time>
      </trkpt>
      <trkpt lat="44.54756" lon="0.71418">
        <ele>116.5</ele>
        <time>2014-7-5T9:11:36.000Z</time>
      </trkpt>
      <trkpt lat="44.54757" lon="0.7142">
        <ele>116.5</ele>
        <time>2014-7-5T9:11:36.000Z</time>
      </trkpt>
      <trkpt lat="44.54758" lon="0.71423">
        <ele>116.5</ele>
        <time>2014-7-5T9:11:36.000Z</time>
      </trkpt>
      <trkpt lat="44.54759" lon="0.71426">
        <ele>117.5</ele>
        <time>2014-7-5T9:11:36.000Z</time>
      </trkpt>
      <trkpt lat="44.5476" lon="0.7143">
        <ele>117.5</ele>
        <time>2014-7-5T9:11:36.000Z</time>
      </trkpt>
      <trkpt lat="44.54761" lon="0.71434">
        <ele>117.5</ele>
        <time>2014-7-5T9:11:36.000Z</time>
      </trkpt>
      <trkpt lat="44.54762" lon="0.71438">
        <ele>117.5</ele>
        <time>2014-7-5T9:11:36.000Z</time>
      </trkpt>
      <trkpt lat="44.54762" lon="0.71442">
        <ele>117.5</ele>
        <time>2014-7-5T9:11:36.000Z</time>
      </trkpt>
      <trkpt lat="44.54763" lon="0.71445">
        <ele>117.5</ele>
        <time>2014-7-5T9:11:36.000Z</time>
      </trkpt>
      <trkpt lat="44.54765" lon="0.71447">
        <ele>117.5</ele>
        <time>2014-7-5T9:11:36.000Z</time>
      </trkpt>
      <trkpt lat="44.54767" lon="0.71448">
        <ele>117.5</ele>
        <time>2014-7-5T9:11:36.000Z</time>
      </trkpt>
      <trkpt lat="44.54769" lon="0.71448">
        <ele>118.5</ele>
        <time>2014-7-5T9:11:36.000Z</time>
      </trkpt>
      <trkpt lat="44.54772" lon="0.71448">
        <ele>118.5</ele>
        <time>2014-7-5T9:11:36.000Z</time>
      </trkpt>
      <trkpt lat="44.54774" lon="0.71447">
        <ele>118.5</ele>
        <time>2014-7-5T9:11:36.000Z</time>
      </trkpt>
      <trkpt lat="44.54776" lon="0.71447">
        <ele>118.5</ele>
        <time>2014-7-5T9:11:36.000Z</time>
      </trkpt>
      <trkpt lat="44.54779" lon="0.71446">
        <ele>119.5</ele>
        <time>2014-7-5T9:11:36.000Z</time>
      </trkpt>
      <trkpt lat="44.54781" lon="0.71445">
        <ele>119.5</ele>
        <time>2014-7-5T9:11:36.000Z</time>
      </trkpt>
      <trkpt lat="44.54783" lon="0.71443">
        <ele>119.5</ele>
        <time>2014-7-5T9:11:36.000Z</time>
      </trkpt>
      <trkpt lat="44.54785" lon="0.71442">
        <ele>119.5</ele>
        <time>2014-7-5T9:11:36.000Z</time>
      </trkpt>
      <trkpt lat="44.54788" lon="0.7144">
        <ele>120.5</ele>
        <time>2014-7-5T9:11:36.000Z</time>
      </trkpt>
      <trkpt lat="44.5479" lon="0.71439">
        <ele>119.5</ele>
        <time>2014-7-5T9:11:36.000Z</time>
      </trkpt>
      <trkpt lat="44.54792" lon="0.71437">
        <ele>119.5</ele>
        <time>2014-7-5T9:11:36.000Z</time>
      </trkpt>
      <trkpt lat="44.54795" lon="0.71436">
        <ele>119.5</ele>
        <time>2014-7-5T9:11:36.000Z</time>
      </trkpt>
      <trkpt lat="44.54797" lon="0.71434">
        <ele>118.5</ele>
        <time>2014-7-5T9:11:36.000Z</time>
      </trkpt>
      <trkpt lat="44.548" lon="0.71432">
        <ele>118.5</ele>
        <time>2014-7-5T9:11:36.000Z</time>
      </trkpt>
      <trkpt lat="44.54802" lon="0.7143">
        <ele>119.5</ele>
        <time>2014-7-5T9:11:36.000Z</time>
      </trkpt>
      <trkpt lat="44.54805" lon="0.71428">
        <ele>119.5</ele>
        <time>2014-7-5T9:11:36.000Z</time>
      </trkpt>
      <trkpt lat="44.54808" lon="0.71427">
        <ele>119.5</ele>
        <time>2014-7-5T9:11:36.000Z</time>
      </trkpt>
      <trkpt lat="44.5481" lon="0.71427">
        <ele>120.5</ele>
        <time>2014-7-5T9:11:36.000Z</time>
      </trkpt>
      <trkpt lat="44.54812" lon="0.71427">
        <ele>120.5</ele>
        <time>2014-7-5T9:11:36.000Z</time>
      </trkpt>
      <trkpt lat="44.54814" lon="0.71427">
        <ele>120.5</ele>
        <time>2014-7-5T9:11:36.000Z</time>
      </trkpt>
      <trkpt lat="44.54818" lon="0.71427">
        <ele>120.5</ele>
        <time>2014-7-5T9:11:36.000Z</time>
      </trkpt>
      <trkpt lat="44.54822" lon="0.71428">
        <ele>121.5</ele>
        <time>2014-7-5T9:11:36.000Z</time>
      </trkpt>
      <trkpt lat="44.54824" lon="0.71428">
        <ele>120.5</ele>
        <time>2014-7-5T9:11:36.000Z</time>
      </trkpt>
      <trkpt lat="44.54826" lon="0.71428">
        <ele>120.5</ele>
        <time>2014-7-5T9:11:36.000Z</time>
      </trkpt>
      <trkpt lat="44.54829" lon="0.71429">
        <ele>120.5</ele>
        <time>2014-7-5T9:11:36.000Z</time>
      </trkpt>
      <trkpt lat="44.54832" lon="0.7143">
        <ele>120.5</ele>
        <time>2014-7-5T9:11:36.000Z</time>
      </trkpt>
      <trkpt lat="44.54835" lon="0.7143">
        <ele>120.5</ele>
        <time>2014-7-5T9:11:36.000Z</time>
      </trkpt>
      <trkpt lat="44.54838" lon="0.7143">
        <ele>120.5</ele>
        <time>2014-7-5T9:11:36.000Z</time>
      </trkpt>
      <trkpt lat="44.5484" lon="0.71431">
        <ele>120.5</ele>
        <time>2014-7-5T9:11:36.000Z</time>
      </trkpt>
      <trkpt lat="44.54843" lon="0.71431">
        <ele>120.5</ele>
        <time>2014-7-5T9:11:36.000Z</time>
      </trkpt>
      <trkpt lat="44.54846" lon="0.71432">
        <ele>120.5</ele>
        <time>2014-7-5T9:11:36.000Z</time>
      </trkpt>
      <trkpt lat="44.54848" lon="0.71433">
        <ele>121.5</ele>
        <time>2014-7-5T9:11:36.000Z</time>
      </trkpt>
      <trkpt lat="44.54851" lon="0.71433">
        <ele>121.5</ele>
        <time>2014-7-5T9:11:36.000Z</time>
      </trkpt>
      <trkpt lat="44.54853" lon="0.71433">
        <ele>121.5</ele>
        <time>2014-7-5T9:11:36.000Z</time>
      </trkpt>
      <trkpt lat="44.54856" lon="0.71434">
        <ele>122.5</ele>
        <time>2014-7-5T9:11:36.000Z</time>
      </trkpt>
      <trkpt lat="44.54858" lon="0.71434">
        <ele>123.5</ele>
        <time>2014-7-5T9:11:36.000Z</time>
      </trkpt>
      <trkpt lat="44.5486" lon="0.71434">
        <ele>124.5</ele>
        <time>2014-7-5T9:11:36.000Z</time>
      </trkpt>
      <trkpt lat="44.54863" lon="0.71433">
        <ele>123.5</ele>
        <time>2014-7-5T9:11:36.000Z</time>
      </trkpt>
      <trkpt lat="44.54865" lon="0.71434">
        <ele>124.5</ele>
        <time>2014-7-5T9:11:36.000Z</time>
      </trkpt>
      <trkpt lat="44.54867" lon="0.71434">
        <ele>124.5</ele>
        <time>2014-7-5T9:11:36.000Z</time>
      </trkpt>
      <trkpt lat="44.5487" lon="0.71435">
        <ele>124.5</ele>
        <time>2014-7-5T9:11:36.000Z</time>
      </trkpt>
      <trkpt lat="44.54872" lon="0.71436">
        <ele>123.5</ele>
        <time>2014-7-5T9:11:36.000Z</time>
      </trkpt>
      <trkpt lat="44.54873" lon="0.71437">
        <ele>123.5</ele>
        <time>2014-7-5T9:11:36.000Z</time>
      </trkpt>
      <trkpt lat="44.54876" lon="0.71438">
        <ele>125.5</ele>
        <time>2014-7-5T9:11:36.000Z</time>
      </trkpt>
      <trkpt lat="44.5488" lon="0.71438">
        <ele>124.5</ele>
        <time>2014-7-5T9:11:36.000Z</time>
      </trkpt>
      <trkpt lat="44.54883" lon="0.71439">
        <ele>124.5</ele>
        <time>2014-7-5T9:11:36.000Z</time>
      </trkpt>
      <trkpt lat="44.54885" lon="0.7144">
        <ele>124.5</ele>
        <time>2014-7-5T9:11:36.000Z</time>
      </trkpt>
      <trkpt lat="44.54887" lon="0.7144">
        <ele>124.5</ele>
        <time>2014-7-5T9:11:36.000Z</time>
      </trkpt>
      <trkpt lat="44.54889" lon="0.71441">
        <ele>123.5</ele>
        <time>2014-7-5T9:11:36.000Z</time>
      </trkpt>
      <trkpt lat="44.54892" lon="0.71441">
        <ele>124.5</ele>
        <time>2014-7-5T9:11:36.000Z</time>
      </trkpt>
      <trkpt lat="44.54894" lon="0.71442">
        <ele>123.5</ele>
        <time>2014-7-5T9:11:36.000Z</time>
      </trkpt>
      <trkpt lat="44.54896" lon="0.71442">
        <ele>124.5</ele>
        <time>2014-7-5T9:11:36.000Z</time>
      </trkpt>
      <trkpt lat="44.54898" lon="0.71443">
        <ele>124.5</ele>
        <time>2014-7-5T9:11:36.000Z</time>
      </trkpt>
      <trkpt lat="44.549" lon="0.71444">
        <ele>124.5</ele>
        <time>2014-7-5T9:11:36.000Z</time>
      </trkpt>
      <trkpt lat="44.54902" lon="0.71445">
        <ele>124.5</ele>
        <time>2014-7-5T9:11:36.000Z</time>
      </trkpt>
      <trkpt lat="44.54904" lon="0.71445">
        <ele>124.5</ele>
        <time>2014-7-5T9:11:36.000Z</time>
      </trkpt>
      <trkpt lat="44.54907" lon="0.71446">
        <ele>125.5</ele>
        <time>2014-7-5T9:11:36.000Z</time>
      </trkpt>
      <trkpt lat="44.54909" lon="0.71446">
        <ele>125.5</ele>
        <time>2014-7-5T9:11:36.000Z</time>
      </trkpt>
      <trkpt lat="44.54911" lon="0.71447">
        <ele>125.5</ele>
        <time>2014-7-5T9:11:36.000Z</time>
      </trkpt>
      <trkpt lat="44.54914" lon="0.71447">
        <ele>124.5</ele>
        <time>2014-7-5T9:11:36.000Z</time>
      </trkpt>
      <trkpt lat="44.54915" lon="0.71447">
        <ele>124.5</ele>
        <time>2014-7-5T9:11:36.000Z</time>
      </trkpt>
      <trkpt lat="44.54917" lon="0.71448">
        <ele>124.5</ele>
        <time>2014-7-5T9:11:36.000Z</time>
      </trkpt>
      <trkpt lat="44.54919" lon="0.71449">
        <ele>124.5</ele>
        <time>2014-7-5T9:11:36.000Z</time>
      </trkpt>
      <trkpt lat="44.54922" lon="0.7145">
        <ele>124.5</ele>
        <time>2014-7-5T9:11:36.000Z</time>
      </trkpt>
      <trkpt lat="44.54926" lon="0.71451">
        <ele>123.5</ele>
        <time>2014-7-5T9:11:36.000Z</time>
      </trkpt>
      <trkpt lat="44.54928" lon="0.71451">
        <ele>123.5</ele>
        <time>2014-7-5T9:11:36.000Z</time>
      </trkpt>
      <trkpt lat="44.5493" lon="0.71452">
        <ele>123.5</ele>
        <time>2014-7-5T9:11:36.000Z</time>
      </trkpt>
      <trkpt lat="44.54933" lon="0.71452">
        <ele>123.5</ele>
        <time>2014-7-5T9:11:36.000Z</time>
      </trkpt>
      <trkpt lat="44.54937" lon="0.71453">
        <ele>123.5</ele>
        <time>2014-7-5T9:11:36.000Z</time>
      </trkpt>
      <trkpt lat="44.5494" lon="0.71454">
        <ele>123.5</ele>
        <time>2014-7-5T9:11:36.000Z</time>
      </trkpt>
      <trkpt lat="44.54942" lon="0.71454">
        <ele>123.5</ele>
        <time>2014-7-5T9:11:36.000Z</time>
      </trkpt>
      <trkpt lat="44.54945" lon="0.71455">
        <ele>123.5</ele>
        <time>2014-7-5T9:11:36.000Z</time>
      </trkpt>
      <trkpt lat="44.54947" lon="0.71455">
        <ele>123.5</ele>
        <time>2014-7-5T9:11:36.000Z</time>
      </trkpt>
      <trkpt lat="44.5495" lon="0.71455">
        <ele>123.5</ele>
        <time>2014-7-5T9:11:36.000Z</time>
      </trkpt>
      <trkpt lat="44.54952" lon="0.71456">
        <ele>123.5</ele>
        <time>2014-7-5T9:11:36.000Z</time>
      </trkpt>
      <trkpt lat="44.54955" lon="0.71456">
        <ele>123.5</ele>
        <time>2014-7-5T9:11:36.000Z</time>
      </trkpt>
      <trkpt lat="44.54957" lon="0.71457">
        <ele>124.5</ele>
        <time>2014-7-5T9:11:36.000Z</time>
      </trkpt>
      <trkpt lat="44.5496" lon="0.71457">
        <ele>124.5</ele>
        <time>2014-7-5T9:11:36.000Z</time>
      </trkpt>
      <trkpt lat="44.54962" lon="0.71458">
        <ele>124.5</ele>
        <time>2014-7-5T9:11:36.000Z</time>
      </trkpt>
      <trkpt lat="44.54965" lon="0.71458">
        <ele>124.5</ele>
        <time>2014-7-5T9:11:36.000Z</time>
      </trkpt>
      <trkpt lat="44.54967" lon="0.71459">
        <ele>124.5</ele>
        <time>2014-7-5T9:11:36.000Z</time>
      </trkpt>
      <trkpt lat="44.54969" lon="0.71459">
        <ele>124.5</ele>
        <time>2014-7-5T9:13:40.000Z</time>
      </trkpt>
      <trkpt lat="44.54972" lon="0.71459">
        <ele>124.5</ele>
        <time>2014-7-5T9:13:40.000Z</time>
      </trkpt>
      <trkpt lat="44.54974" lon="0.7146">
        <ele>124.5</ele>
        <time>2014-7-5T9:13:40.000Z</time>
      </trkpt>
      <trkpt lat="44.54977" lon="0.7146">
        <ele>125.5</ele>
        <time>2014-7-5T9:13:40.000Z</time>
      </trkpt>
      <trkpt lat="44.54979" lon="0.71461">
        <ele>125.5</ele>
        <time>2014-7-5T9:13:40.000Z</time>
      </trkpt>
      <trkpt lat="44.54981" lon="0.71461">
        <ele>125.5</ele>
        <time>2014-7-5T9:13:40.000Z</time>
      </trkpt>
      <trkpt lat="44.54984" lon="0.71461">
        <ele>124.5</ele>
        <time>2014-7-5T9:13:40.000Z</time>
      </trkpt>
      <trkpt lat="44.54986" lon="0.71462">
        <ele>124.5</ele>
        <time>2014-7-5T9:13:40.000Z</time>
      </trkpt>
      <trkpt lat="44.54989" lon="0.71462">
        <ele>125.5</ele>
        <time>2014-7-5T9:13:40.000Z</time>
      </trkpt>
      <trkpt lat="44.54991" lon="0.71463">
        <ele>124.5</ele>
        <time>2014-7-5T9:13:40.000Z</time>
      </trkpt>
      <trkpt lat="44.54994" lon="0.71464">
        <ele>124.5</ele>
        <time>2014-7-5T9:13:40.000Z</time>
      </trkpt>
      <trkpt lat="44.54996" lon="0.71464">
        <ele>124.5</ele>
        <time>2014-7-5T9:13:40.000Z</time>
      </trkpt>
      <trkpt lat="44.54999" lon="0.71465">
        <ele>125.5</ele>
        <time>2014-7-5T9:13:40.000Z</time>
      </trkpt>
      <trkpt lat="44.55001" lon="0.71466">
        <ele>125.5</ele>
        <time>2014-7-5T9:13:40.000Z</time>
      </trkpt>
      <trkpt lat="44.55003" lon="0.71466">
        <ele>125.5</ele>
        <time>2014-7-5T9:13:40.000Z</time>
      </trkpt>
      <trkpt lat="44.55006" lon="0.71467">
        <ele>125.5</ele>
        <time>2014-7-5T9:13:40.000Z</time>
      </trkpt>
      <trkpt lat="44.55008" lon="0.71467">
        <ele>125.5</ele>
        <time>2014-7-5T9:13:40.000Z</time>
      </trkpt>
      <trkpt lat="44.5501" lon="0.71467">
        <ele>125.5</ele>
        <time>2014-7-5T9:13:40.000Z</time>
      </trkpt>
      <trkpt lat="44.55013" lon="0.71468">
        <ele>125.5</ele>
        <time>2014-7-5T9:13:40.000Z</time>
      </trkpt>
      <trkpt lat="44.55015" lon="0.71468">
        <ele>125.5</ele>
        <time>2014-7-5T9:13:40.000Z</time>
      </trkpt>
      <trkpt lat="44.55017" lon="0.71468">
        <ele>126.5</ele>
        <time>2014-7-5T9:13:40.000Z</time>
      </trkpt>
      <trkpt lat="44.55019" lon="0.71469">
        <ele>125.5</ele>
        <time>2014-7-5T9:13:40.000Z</time>
      </trkpt>
      <trkpt lat="44.55021" lon="0.71469">
        <ele>125.5</ele>
        <time>2014-7-5T9:13:40.000Z</time>
      </trkpt>
      <trkpt lat="44.55024" lon="0.7147">
        <ele>125.5</ele>
        <time>2014-7-5T9:13:40.000Z</time>
      </trkpt>
      <trkpt lat="44.55026" lon="0.7147">
        <ele>125.5</ele>
        <time>2014-7-5T9:13:40.000Z</time>
      </trkpt>
      <trkpt lat="44.55028" lon="0.71471">
        <ele>126.5</ele>
        <time>2014-7-5T9:13:40.000Z</time>
      </trkpt>
      <trkpt lat="44.5503" lon="0.71471">
        <ele>125.5</ele>
        <time>2014-7-5T9:13:40.000Z</time>
      </trkpt>
      <trkpt lat="44.55033" lon="0.71471">
        <ele>125.5</ele>
        <time>2014-7-5T9:13:40.000Z</time>
      </trkpt>
      <trkpt lat="44.55035" lon="0.71472">
        <ele>125.5</ele>
        <time>2014-7-5T9:13:40.000Z</time>
      </trkpt>
      <trkpt lat="44.55037" lon="0.71473">
        <ele>125.5</ele>
        <time>2014-7-5T9:13:40.000Z</time>
      </trkpt>
      <trkpt lat="44.5504" lon="0.71474">
        <ele>126.5</ele>
        <time>2014-7-5T9:13:40.000Z</time>
      </trkpt>
      <trkpt lat="44.55042" lon="0.71474">
        <ele>126.5</ele>
        <time>2014-7-5T9:13:40.000Z</time>
      </trkpt>
      <trkpt lat="44.55044" lon="0.71475">
        <ele>126.5</ele>
        <time>2014-7-5T9:13:40.000Z</time>
      </trkpt>
      <trkpt lat="44.55046" lon="0.71476">
        <ele>127.5</ele>
        <time>2014-7-5T9:13:40.000Z</time>
      </trkpt>
      <trkpt lat="44.55048" lon="0.71477">
        <ele>126.5</ele>
        <time>2014-7-5T9:13:40.000Z</time>
      </trkpt>
      <trkpt lat="44.5505" lon="0.71478">
        <ele>126.5</ele>
        <time>2014-7-5T9:13:40.000Z</time>
      </trkpt>
      <trkpt lat="44.55052" lon="0.71479">
        <ele>126.5</ele>
        <time>2014-7-5T9:13:40.000Z</time>
      </trkpt>
      <trkpt lat="44.55055" lon="0.7148">
        <ele>127.5</ele>
        <time>2014-7-5T9:13:40.000Z</time>
      </trkpt>
      <trkpt lat="44.55058" lon="0.71479">
        <ele>127.5</ele>
        <time>2014-7-5T9:13:40.000Z</time>
      </trkpt>
      <trkpt lat="44.5506" lon="0.71476">
        <ele>128.5</ele>
        <time>2014-7-5T9:13:40.000Z</time>
      </trkpt>
      <trkpt lat="44.55062" lon="0.71472">
        <ele>128.5</ele>
        <time>2014-7-5T9:13:40.000Z</time>
      </trkpt>
      <trkpt lat="44.55063" lon="0.71469">
        <ele>128.5</ele>
        <time>2014-7-5T9:13:40.000Z</time>
      </trkpt>
      <trkpt lat="44.55063" lon="0.71465">
        <ele>130.5</ele>
        <time>2014-7-5T9:13:40.000Z</time>
      </trkpt>
      <trkpt lat="44.55063" lon="0.71461">
        <ele>129.5</ele>
        <time>2014-7-5T9:13:40.000Z</time>
      </trkpt>
      <trkpt lat="44.55063" lon="0.71457">
        <ele>129.5</ele>
        <time>2014-7-5T9:13:40.000Z</time>
      </trkpt>
      <trkpt lat="44.55065" lon="0.71453">
        <ele>130.5</ele>
        <time>2014-7-5T9:13:40.000Z</time>
      </trkpt>
      <trkpt lat="44.55066" lon="0.71451">
        <ele>130.5</ele>
        <time>2014-7-5T9:13:40.000Z</time>
      </trkpt>
      <trkpt lat="44.55067" lon="0.71445">
        <ele>130.5</ele>
        <time>2014-7-5T9:13:40.000Z</time>
      </trkpt>
      <trkpt lat="44.55068" lon="0.71441">
        <ele>130.5</ele>
        <time>2014-7-5T9:13:40.000Z</time>
      </trkpt>
      <trkpt lat="44.55069" lon="0.71438">
        <ele>131.5</ele>
        <time>2014-7-5T9:13:40.000Z</time>
      </trkpt>
      <trkpt lat="44.5507" lon="0.71435">
        <ele>132.5</ele>
        <time>2014-7-5T9:13:40.000Z</time>
      </trkpt>
      <trkpt lat="44.55071" lon="0.71432">
        <ele>131.5</ele>
        <time>2014-7-5T9:13:40.000Z</time>
      </trkpt>
      <trkpt lat="44.55072" lon="0.71429">
        <ele>131.5</ele>
        <time>2014-7-5T9:13:40.000Z</time>
      </trkpt>
      <trkpt lat="44.55073" lon="0.71426">
        <ele>131.5</ele>
        <time>2014-7-5T9:13:40.000Z</time>
      </trkpt>
      <trkpt lat="44.55074" lon="0.71423">
        <ele>131.5</ele>
        <time>2014-7-5T9:13:40.000Z</time>
      </trkpt>
      <trkpt lat="44.55076" lon="0.7142">
        <ele>132.5</ele>
        <time>2014-7-5T9:13:40.000Z</time>
      </trkpt>
      <trkpt lat="44.55077" lon="0.71417">
        <ele>131.5</ele>
        <time>2014-7-5T9:13:40.000Z</time>
      </trkpt>
      <trkpt lat="44.55078" lon="0.71414">
        <ele>131.5</ele>
        <time>2014-7-5T9:13:40.000Z</time>
      </trkpt>
      <trkpt lat="44.55079" lon="0.7141">
        <ele>131.5</ele>
        <time>2014-7-5T9:13:40.000Z</time>
      </trkpt>
      <trkpt lat="44.55079" lon="0.71407">
        <ele>131.5</ele>
        <time>2014-7-5T9:13:40.000Z</time>
      </trkpt>
      <trkpt lat="44.55081" lon="0.71404">
        <ele>131.5</ele>
        <time>2014-7-5T9:13:40.000Z</time>
      </trkpt>
      <trkpt lat="44.55082" lon="0.714">
        <ele>131.5</ele>
        <time>2014-7-5T9:13:40.000Z</time>
      </trkpt>
      <trkpt lat="44.55083" lon="0.71396">
        <ele>131.5</ele>
        <time>2014-7-5T9:13:40.000Z</time>
      </trkpt>
      <trkpt lat="44.55084" lon="0.71393">
        <ele>131.5</ele>
        <time>2014-7-5T9:13:40.000Z</time>
      </trkpt>
      <trkpt lat="44.55085" lon="0.71389">
        <ele>131.5</ele>
        <time>2014-7-5T9:13:40.000Z</time>
      </trkpt>
      <trkpt lat="44.55086" lon="0.71386">
        <ele>131.5</ele>
        <time>2014-7-5T9:13:40.000Z</time>
      </trkpt>
      <trkpt lat="44.55087" lon="0.71383">
        <ele>131.5</ele>
        <time>2014-7-5T9:13:40.000Z</time>
      </trkpt>
      <trkpt lat="44.5509" lon="0.71377">
        <ele>130.5</ele>
        <time>2014-7-5T9:13:40.000Z</time>
      </trkpt>
      <trkpt lat="44.55092" lon="0.71374">
        <ele>130.5</ele>
        <time>2014-7-5T9:13:40.000Z</time>
      </trkpt>
      <trkpt lat="44.55093" lon="0.71372">
        <ele>130.5</ele>
        <time>2014-7-5T9:13:40.000Z</time>
      </trkpt>
      <trkpt lat="44.55095" lon="0.71369">
        <ele>131.5</ele>
        <time>2014-7-5T9:13:40.000Z</time>
      </trkpt>
      <trkpt lat="44.55097" lon="0.71367">
        <ele>131.5</ele>
        <time>2014-7-5T9:13:40.000Z</time>
      </trkpt>
      <trkpt lat="44.551" lon="0.71367">
        <ele>131.5</ele>
        <time>2014-7-5T9:13:40.000Z</time>
      </trkpt>
      <trkpt lat="44.55103" lon="0.71367">
        <ele>131.5</ele>
        <time>2014-7-5T9:13:40.000Z</time>
      </trkpt>
      <trkpt lat="44.55105" lon="0.71369">
        <ele>131.5</ele>
        <time>2014-7-5T9:13:40.000Z</time>
      </trkpt>
      <trkpt lat="44.55108" lon="0.7137">
        <ele>131.5</ele>
        <time>2014-7-5T9:13:40.000Z</time>
      </trkpt>
      <trkpt lat="44.5511" lon="0.71371">
        <ele>132.5</ele>
        <time>2014-7-5T9:13:40.000Z</time>
      </trkpt>
      <trkpt lat="44.55113" lon="0.71372">
        <ele>132.5</ele>
        <time>2014-7-5T9:13:40.000Z</time>
      </trkpt>
      <trkpt lat="44.55116" lon="0.71372">
        <ele>132.5</ele>
        <time>2014-7-5T9:13:40.000Z</time>
      </trkpt>
      <trkpt lat="44.55118" lon="0.71373">
        <ele>131.5</ele>
        <time>2014-7-5T9:13:40.000Z</time>
      </trkpt>
      <trkpt lat="44.55121" lon="0.71374">
        <ele>132.5</ele>
        <time>2014-7-5T9:13:40.000Z</time>
      </trkpt>
      <trkpt lat="44.55123" lon="0.71376">
        <ele>133.5</ele>
        <time>2014-7-5T9:13:40.000Z</time>
      </trkpt>
      <trkpt lat="44.55125" lon="0.71377">
        <ele>133.5</ele>
        <time>2014-7-5T9:13:40.000Z</time>
      </trkpt>
      <trkpt lat="44.55128" lon="0.71379">
        <ele>133.5</ele>
        <time>2014-7-5T9:13:40.000Z</time>
      </trkpt>
      <trkpt lat="44.5513" lon="0.71381">
        <ele>134.5</ele>
        <time>2014-7-5T9:13:40.000Z</time>
      </trkpt>
      <trkpt lat="44.55132" lon="0.71382">
        <ele>134.5</ele>
        <time>2014-7-5T9:13:40.000Z</time>
      </trkpt>
      <trkpt lat="44.55134" lon="0.71384">
        <ele>134.5</ele>
        <time>2014-7-5T9:13:40.000Z</time>
      </trkpt>
      <trkpt lat="44.55136" lon="0.71385">
        <ele>134.5</ele>
        <time>2014-7-5T9:13:40.000Z</time>
      </trkpt>
      <trkpt lat="44.55138" lon="0.71387">
        <ele>135.5</ele>
        <time>2014-7-5T9:13:40.000Z</time>
      </trkpt>
      <trkpt lat="44.5514" lon="0.71388">
        <ele>135.5</ele>
        <time>2014-7-5T9:13:40.000Z</time>
      </trkpt>
      <trkpt lat="44.55142" lon="0.7139">
        <ele>135.5</ele>
        <time>2014-7-5T9:13:40.000Z</time>
      </trkpt>
      <trkpt lat="44.55145" lon="0.71392">
        <ele>136.5</ele>
        <time>2014-7-5T9:13:40.000Z</time>
      </trkpt>
      <trkpt lat="44.55147" lon="0.71394">
        <ele>136.5</ele>
        <time>2014-7-5T9:13:40.000Z</time>
      </trkpt>
      <trkpt lat="44.55149" lon="0.71397">
        <ele>137.5</ele>
        <time>2014-7-5T9:13:40.000Z</time>
      </trkpt>
      <trkpt lat="44.55152" lon="0.71399">
        <ele>138.5</ele>
        <time>2014-7-5T9:13:40.000Z</time>
      </trkpt>
      <trkpt lat="44.55154" lon="0.71401">
        <ele>139.5</ele>
        <time>2014-7-5T9:13:40.000Z</time>
      </trkpt>
      <trkpt lat="44.55157" lon="0.71403">
        <ele>139.5</ele>
        <time>2014-7-5T9:13:40.000Z</time>
      </trkpt>
      <trkpt lat="44.5516" lon="0.71405">
        <ele>139.5</ele>
        <time>2014-7-5T9:13:40.000Z</time>
      </trkpt>
      <trkpt lat="44.55164" lon="0.71408">
        <ele>140.5</ele>
        <time>2014-7-5T9:13:40.000Z</time>
      </trkpt>
      <trkpt lat="44.55167" lon="0.71411">
        <ele>141.5</ele>
        <time>2014-7-5T9:13:40.000Z</time>
      </trkpt>
      <trkpt lat="44.55171" lon="0.71412">
        <ele>141.5</ele>
        <time>2014-7-5T9:13:40.000Z</time>
      </trkpt>
      <trkpt lat="44.55174" lon="0.71414">
        <ele>142.5</ele>
        <time>2014-7-5T9:15:49.000Z</time>
      </trkpt>
      <trkpt lat="44.55176" lon="0.71416">
        <ele>143.5</ele>
        <time>2014-7-5T9:15:49.000Z</time>
      </trkpt>
      <trkpt lat="44.55179" lon="0.71417">
        <ele>143.5</ele>
        <time>2014-7-5T9:15:49.000Z</time>
      </trkpt>
      <trkpt lat="44.55181" lon="0.71419">
        <ele>143.5</ele>
        <time>2014-7-5T9:15:49.000Z</time>
      </trkpt>
      <trkpt lat="44.55183" lon="0.71421">
        <ele>143.5</ele>
        <time>2014-7-5T9:15:49.000Z</time>
      </trkpt>
      <trkpt lat="44.55186" lon="0.71424">
        <ele>144.5</ele>
        <time>2014-7-5T9:15:49.000Z</time>
      </trkpt>
      <trkpt lat="44.55188" lon="0.71427">
        <ele>143.5</ele>
        <time>2014-7-5T9:15:49.000Z</time>
      </trkpt>
      <trkpt lat="44.55189" lon="0.71431">
        <ele>144.5</ele>
        <time>2014-7-5T9:15:49.000Z</time>
      </trkpt>
      <trkpt lat="44.5519" lon="0.71434">
        <ele>145.5</ele>
        <time>2014-7-5T9:15:49.000Z</time>
      </trkpt>
      <trkpt lat="44.55191" lon="0.71438">
        <ele>144.5</ele>
        <time>2014-7-5T9:15:49.000Z</time>
      </trkpt>
      <trkpt lat="44.55191" lon="0.71442">
        <ele>145.5</ele>
        <time>2014-7-5T9:15:49.000Z</time>
      </trkpt>
      <trkpt lat="44.55192" lon="0.71446">
        <ele>145.5</ele>
        <time>2014-7-5T9:15:49.000Z</time>
      </trkpt>
      <trkpt lat="44.55193" lon="0.7145">
        <ele>144.5</ele>
        <time>2014-7-5T9:15:49.000Z</time>
      </trkpt>
      <trkpt lat="44.55194" lon="0.71454">
        <ele>144.5</ele>
        <time>2014-7-5T9:15:49.000Z</time>
      </trkpt>
      <trkpt lat="44.55195" lon="0.71459">
        <ele>145.5</ele>
        <time>2014-7-5T9:15:49.000Z</time>
      </trkpt>
      <trkpt lat="44.55196" lon="0.71462">
        <ele>144.5</ele>
        <time>2014-7-5T9:15:49.000Z</time>
      </trkpt>
      <trkpt lat="44.55197" lon="0.71465">
        <ele>144.5</ele>
        <time>2014-7-5T9:15:49.000Z</time>
      </trkpt>
      <trkpt lat="44.55197" lon="0.71467">
        <ele>144.5</ele>
        <time>2014-7-5T9:15:49.000Z</time>
      </trkpt>
      <trkpt lat="44.55198" lon="0.7147">
        <ele>144.5</ele>
        <time>2014-7-5T9:15:49.000Z</time>
      </trkpt>
      <trkpt lat="44.55199" lon="0.71473">
        <ele>145.5</ele>
        <time>2014-7-5T9:15:49.000Z</time>
      </trkpt>
      <trkpt lat="44.55201" lon="0.71475">
        <ele>144.5</ele>
        <time>2014-7-5T9:15:49.000Z</time>
      </trkpt>
      <trkpt lat="44.55202" lon="0.71477">
        <ele>145.5</ele>
        <time>2014-7-5T9:15:49.000Z</time>
      </trkpt>
      <trkpt lat="44.55203" lon="0.71479">
        <ele>145.5</ele>
        <time>2014-7-5T9:15:49.000Z</time>
      </trkpt>
      <trkpt lat="44.55205" lon="0.71481">
        <ele>145.5</ele>
        <time>2014-7-5T9:15:49.000Z</time>
      </trkpt>
      <trkpt lat="44.55207" lon="0.71483">
        <ele>145.5</ele>
        <time>2014-7-5T9:15:49.000Z</time>
      </trkpt>
      <trkpt lat="44.55209" lon="0.71484">
        <ele>146.5</ele>
        <time>2014-7-5T9:15:49.000Z</time>
      </trkpt>
      <trkpt lat="44.5521" lon="0.71485">
        <ele>146.5</ele>
        <time>2014-7-5T9:15:49.000Z</time>
      </trkpt>
      <trkpt lat="44.55212" lon="0.71486">
        <ele>146.5</ele>
        <time>2014-7-5T9:15:49.000Z</time>
      </trkpt>
      <trkpt lat="44.55214" lon="0.71488">
        <ele>146.5</ele>
        <time>2014-7-5T9:15:49.000Z</time>
      </trkpt>
      <trkpt lat="44.55217" lon="0.71489">
        <ele>148.5</ele>
        <time>2014-7-5T9:15:49.000Z</time>
      </trkpt>
      <trkpt lat="44.55219" lon="0.7149">
        <ele>148.5</ele>
        <time>2014-7-5T9:15:49.000Z</time>
      </trkpt>
      <trkpt lat="44.55222" lon="0.71491">
        <ele>148.5</ele>
        <time>2014-7-5T9:15:49.000Z</time>
      </trkpt>
      <trkpt lat="44.55225" lon="0.71491">
        <ele>149.5</ele>
        <time>2014-7-5T9:15:49.000Z</time>
      </trkpt>
      <trkpt lat="44.55228" lon="0.71491">
        <ele>150.5</ele>
        <time>2014-7-5T9:15:49.000Z</time>
      </trkpt>
      <trkpt lat="44.55231" lon="0.71492">
        <ele>150.5</ele>
        <time>2014-7-5T9:15:49.000Z</time>
      </trkpt>
      <trkpt lat="44.55234" lon="0.71493">
        <ele>151.5</ele>
        <time>2014-7-5T9:15:49.000Z</time>
      </trkpt>
      <trkpt lat="44.55237" lon="0.71495">
        <ele>151.5</ele>
        <time>2014-7-5T9:15:49.000Z</time>
      </trkpt>
      <trkpt lat="44.55238" lon="0.71497">
        <ele>151.5</ele>
        <time>2014-7-5T9:15:49.000Z</time>
      </trkpt>
      <trkpt lat="44.5524" lon="0.71499">
        <ele>151.5</ele>
        <time>2014-7-5T9:15:49.000Z</time>
      </trkpt>
      <trkpt lat="44.55241" lon="0.715">
        <ele>151.5</ele>
        <time>2014-7-5T9:15:49.000Z</time>
      </trkpt>
      <trkpt lat="44.55244" lon="0.71504">
        <ele>149.5</ele>
        <time>2014-7-5T9:15:49.000Z</time>
      </trkpt>
      <trkpt lat="44.55245" lon="0.71506">
        <ele>148.5</ele>
        <time>2014-7-5T9:15:49.000Z</time>
      </trkpt>
      <trkpt lat="44.55246" lon="0.71508">
        <ele>148.5</ele>
        <time>2014-7-5T9:15:49.000Z</time>
      </trkpt>
      <trkpt lat="44.55248" lon="0.7151">
        <ele>147.5</ele>
        <time>2014-7-5T9:15:49.000Z</time>
      </trkpt>
      <trkpt lat="44.55249" lon="0.71512">
        <ele>148.5</ele>
        <time>2014-7-5T9:15:49.000Z</time>
      </trkpt>
      <trkpt lat="44.55251" lon="0.71513">
        <ele>148.5</ele>
        <time>2014-7-5T9:15:49.000Z</time>
      </trkpt>
      <trkpt lat="44.55253" lon="0.71515">
        <ele>148.5</ele>
        <time>2014-7-5T9:15:49.000Z</time>
      </trkpt>
      <trkpt lat="44.55255" lon="0.71516">
        <ele>149.5</ele>
        <time>2014-7-5T9:15:49.000Z</time>
      </trkpt>
      <trkpt lat="44.55257" lon="0.71517">
        <ele>149.5</ele>
        <time>2014-7-5T9:15:49.000Z</time>
      </trkpt>
      <trkpt lat="44.55259" lon="0.71519">
        <ele>149.5</ele>
        <time>2014-7-5T9:15:49.000Z</time>
      </trkpt>
      <trkpt lat="44.55261" lon="0.7152">
        <ele>149.5</ele>
        <time>2014-7-5T9:15:49.000Z</time>
      </trkpt>
      <trkpt lat="44.55263" lon="0.71521">
        <ele>149.5</ele>
        <time>2014-7-5T9:15:49.000Z</time>
      </trkpt>
      <trkpt lat="44.55265" lon="0.71522">
        <ele>149.5</ele>
        <time>2014-7-5T9:15:49.000Z</time>
      </trkpt>
      <trkpt lat="44.55267" lon="0.71523">
        <ele>150.5</ele>
        <time>2014-7-5T9:15:49.000Z</time>
      </trkpt>
      <trkpt lat="44.55269" lon="0.71524">
        <ele>149.5</ele>
        <time>2014-7-5T9:15:49.000Z</time>
      </trkpt>
      <trkpt lat="44.55271" lon="0.71524">
        <ele>150.5</ele>
        <time>2014-7-5T9:15:49.000Z</time>
      </trkpt>
      <trkpt lat="44.55274" lon="0.71524">
        <ele>151.5</ele>
        <time>2014-7-5T9:15:49.000Z</time>
      </trkpt>
      <trkpt lat="44.55276" lon="0.71523">
        <ele>151.5</ele>
        <time>2014-7-5T9:15:49.000Z</time>
      </trkpt>
      <trkpt lat="44.55278" lon="0.71523">
        <ele>151.5</ele>
        <time>2014-7-5T9:15:49.000Z</time>
      </trkpt>
      <trkpt lat="44.5528" lon="0.71521">
        <ele>151.5</ele>
        <time>2014-7-5T9:15:49.000Z</time>
      </trkpt>
      <trkpt lat="44.55282" lon="0.71518">
        <ele>151.5</ele>
        <time>2014-7-5T9:15:49.000Z</time>
      </trkpt>
      <trkpt lat="44.55282" lon="0.71515">
        <ele>152.5</ele>
        <time>2014-7-5T9:15:49.000Z</time>
      </trkpt>
      <trkpt lat="44.55283" lon="0.71512">
        <ele>152.5</ele>
        <time>2014-7-5T9:15:49.000Z</time>
      </trkpt>
      <trkpt lat="44.55283" lon="0.71508">
        <ele>152.5</ele>
        <time>2014-7-5T9:15:49.000Z</time>
      </trkpt>
      <trkpt lat="44.55283" lon="0.71505">
        <ele>152.5</ele>
        <time>2014-7-5T9:15:49.000Z</time>
      </trkpt>
      <trkpt lat="44.55284" lon="0.71501">
        <ele>153.5</ele>
        <time>2014-7-5T9:15:49.000Z</time>
      </trkpt>
      <trkpt lat="44.55285" lon="0.71498">
        <ele>152.5</ele>
        <time>2014-7-5T9:15:49.000Z</time>
      </trkpt>
      <trkpt lat="44.55286" lon="0.71495">
        <ele>152.5</ele>
        <time>2014-7-5T9:15:49.000Z</time>
      </trkpt>
      <trkpt lat="44.55287" lon="0.71492">
        <ele>153.5</ele>
        <time>2014-7-5T9:15:49.000Z</time>
      </trkpt>
      <trkpt lat="44.55288" lon="0.71489">
        <ele>152.5</ele>
        <time>2014-7-5T9:15:49.000Z</time>
      </trkpt>
      <trkpt lat="44.55289" lon="0.71486">
        <ele>153.5</ele>
        <time>2014-7-5T9:15:49.000Z</time>
      </trkpt>
      <trkpt lat="44.5529" lon="0.71483">
        <ele>153.5</ele>
        <time>2014-7-5T9:15:49.000Z</time>
      </trkpt>
      <trkpt lat="44.55291" lon="0.7148">
        <ele>153.5</ele>
        <time>2014-7-5T9:15:49.000Z</time>
      </trkpt>
      <trkpt lat="44.55293" lon="0.71477">
        <ele>153.5</ele>
        <time>2014-7-5T9:15:49.000Z</time>
      </trkpt>
      <trkpt lat="44.55294" lon="0.71474">
        <ele>153.5</ele>
        <time>2014-7-5T9:15:49.000Z</time>
      </trkpt>
      <trkpt lat="44.55295" lon="0.71471">
        <ele>153.5</ele>
        <time>2014-7-5T9:15:49.000Z</time>
      </trkpt>
      <trkpt lat="44.55296" lon="0.71468">
        <ele>152.5</ele>
        <time>2014-7-5T9:15:49.000Z</time>
      </trkpt>
      <trkpt lat="44.55298" lon="0.71466">
        <ele>152.5</ele>
        <time>2014-7-5T9:15:49.000Z</time>
      </trkpt>
      <trkpt lat="44.55299" lon="0.71463">
        <ele>152.5</ele>
        <time>2014-7-5T9:15:49.000Z</time>
      </trkpt>
      <trkpt lat="44.553" lon="0.7146">
        <ele>152.5</ele>
        <time>2014-7-5T9:15:49.000Z</time>
      </trkpt>
      <trkpt lat="44.55303" lon="0.71454">
        <ele>152.5</ele>
        <time>2014-7-5T9:15:49.000Z</time>
      </trkpt>
      <trkpt lat="44.55305" lon="0.71452">
        <ele>152.5</ele>
        <time>2014-7-5T9:15:49.000Z</time>
      </trkpt>
      <trkpt lat="44.55306" lon="0.71449">
        <ele>151.5</ele>
        <time>2014-7-5T9:15:49.000Z</time>
      </trkpt>
      <trkpt lat="44.55308" lon="0.71446">
        <ele>152.5</ele>
        <time>2014-7-5T9:15:49.000Z</time>
      </trkpt>
      <trkpt lat="44.55309" lon="0.71444">
        <ele>152.5</ele>
        <time>2014-7-5T9:15:49.000Z</time>
      </trkpt>
      <trkpt lat="44.55311" lon="0.71441">
        <ele>152.5</ele>
        <time>2014-7-5T9:15:49.000Z</time>
      </trkpt>
      <trkpt lat="44.55312" lon="0.71438">
        <ele>152.5</ele>
        <time>2014-7-5T9:15:49.000Z</time>
      </trkpt>
      <trkpt lat="44.55314" lon="0.71435">
        <ele>152.5</ele>
        <time>2014-7-5T9:15:49.000Z</time>
      </trkpt>
      <trkpt lat="44.55315" lon="0.71433">
        <ele>152.5</ele>
        <time>2014-7-5T9:15:49.000Z</time>
      </trkpt>
      <trkpt lat="44.55316" lon="0.7143">
        <ele>152.5</ele>
        <time>2014-7-5T9:15:49.000Z</time>
      </trkpt>
      <trkpt lat="44.55318" lon="0.71428">
        <ele>152.5</ele>
        <time>2014-7-5T9:15:49.000Z</time>
      </trkpt>
      <trkpt lat="44.55319" lon="0.71426">
        <ele>152.5</ele>
        <time>2014-7-5T9:15:49.000Z</time>
      </trkpt>
      <trkpt lat="44.55321" lon="0.71423">
        <ele>152.5</ele>
        <time>2014-7-5T9:15:49.000Z</time>
      </trkpt>
      <trkpt lat="44.55322" lon="0.71422">
        <ele>152.5</ele>
        <time>2014-7-5T9:15:49.000Z</time>
      </trkpt>
      <trkpt lat="44.55324" lon="0.7142">
        <ele>152.5</ele>
        <time>2014-7-5T9:15:49.000Z</time>
      </trkpt>
      <trkpt lat="44.55326" lon="0.71417">
        <ele>152.5</ele>
        <time>2014-7-5T9:15:49.000Z</time>
      </trkpt>
      <trkpt lat="44.55328" lon="0.71416">
        <ele>152.5</ele>
        <time>2014-7-5T9:15:49.000Z</time>
      </trkpt>
      <trkpt lat="44.55329" lon="0.71414">
        <ele>151.5</ele>
        <time>2014-7-5T9:15:49.000Z</time>
      </trkpt>
      <trkpt lat="44.55331" lon="0.71411">
        <ele>151.5</ele>
        <time>2014-7-5T9:15:49.000Z</time>
      </trkpt>
      <trkpt lat="44.55332" lon="0.71409">
        <ele>151.5</ele>
        <time>2014-7-5T9:15:49.000Z</time>
      </trkpt>
      <trkpt lat="44.55334" lon="0.71407">
        <ele>151.5</ele>
        <time>2014-7-5T9:15:49.000Z</time>
      </trkpt>
      <trkpt lat="44.55335" lon="0.71405">
        <ele>150.5</ele>
        <time>2014-7-5T9:17:36.000Z</time>
      </trkpt>
      <trkpt lat="44.55337" lon="0.71403">
        <ele>151.5</ele>
        <time>2014-7-5T9:17:36.000Z</time>
      </trkpt>
      <trkpt lat="44.55339" lon="0.71401">
        <ele>150.5</ele>
        <time>2014-7-5T9:17:36.000Z</time>
      </trkpt>
      <trkpt lat="44.5534" lon="0.71399">
        <ele>150.5</ele>
        <time>2014-7-5T9:17:36.000Z</time>
      </trkpt>
      <trkpt lat="44.55341" lon="0.71396">
        <ele>150.5</ele>
        <time>2014-7-5T9:17:36.000Z</time>
      </trkpt>
      <trkpt lat="44.55343" lon="0.71394">
        <ele>150.5</ele>
        <time>2014-7-5T9:17:36.000Z</time>
      </trkpt>
      <trkpt lat="44.55344" lon="0.71392">
        <ele>150.5</ele>
        <time>2014-7-5T9:17:36.000Z</time>
      </trkpt>
      <trkpt lat="44.55346" lon="0.71389">
        <ele>150.5</ele>
        <time>2014-7-5T9:17:36.000Z</time>
      </trkpt>
      <trkpt lat="44.55348" lon="0.71387">
        <ele>150.5</ele>
        <time>2014-7-5T9:17:36.000Z</time>
      </trkpt>
      <trkpt lat="44.55349" lon="0.71385">
        <ele>149.5</ele>
        <time>2014-7-5T9:17:36.000Z</time>
      </trkpt>
      <trkpt lat="44.55351" lon="0.71383">
        <ele>149.5</ele>
        <time>2014-7-5T9:17:36.000Z</time>
      </trkpt>
      <trkpt lat="44.55352" lon="0.7138">
        <ele>148.5</ele>
        <time>2014-7-5T9:17:36.000Z</time>
      </trkpt>
      <trkpt lat="44.55354" lon="0.71378">
        <ele>149.5</ele>
        <time>2014-7-5T9:17:36.000Z</time>
      </trkpt>
      <trkpt lat="44.55356" lon="0.71376">
        <ele>149.5</ele>
        <time>2014-7-5T9:17:36.000Z</time>
      </trkpt>
      <trkpt lat="44.55359" lon="0.71371">
        <ele>150.5</ele>
        <time>2014-7-5T9:17:36.000Z</time>
      </trkpt>
      <trkpt lat="44.55361" lon="0.71369">
        <ele>150.5</ele>
        <time>2014-7-5T9:17:36.000Z</time>
      </trkpt>
      <trkpt lat="44.55363" lon="0.71366">
        <ele>150.5</ele>
        <time>2014-7-5T9:17:36.000Z</time>
      </trkpt>
      <trkpt lat="44.55365" lon="0.71363">
        <ele>151.5</ele>
        <time>2014-7-5T9:17:36.000Z</time>
      </trkpt>
      <trkpt lat="44.55367" lon="0.71361">
        <ele>151.5</ele>
        <time>2014-7-5T9:17:36.000Z</time>
      </trkpt>
      <trkpt lat="44.5537" lon="0.71359">
        <ele>151.5</ele>
        <time>2014-7-5T9:17:36.000Z</time>
      </trkpt>
      <trkpt lat="44.55372" lon="0.71358">
        <ele>152.5</ele>
        <time>2014-7-5T9:17:36.000Z</time>
      </trkpt>
      <trkpt lat="44.55374" lon="0.71356">
        <ele>152.5</ele>
        <time>2014-7-5T9:17:36.000Z</time>
      </trkpt>
      <trkpt lat="44.55377" lon="0.71355">
        <ele>152.5</ele>
        <time>2014-7-5T9:17:36.000Z</time>
      </trkpt>
      <trkpt lat="44.55379" lon="0.71353">
        <ele>152.5</ele>
        <time>2014-7-5T9:17:36.000Z</time>
      </trkpt>
      <trkpt lat="44.55381" lon="0.71352">
        <ele>152.5</ele>
        <time>2014-7-5T9:17:36.000Z</time>
      </trkpt>
      <trkpt lat="44.55383" lon="0.7135">
        <ele>152.5</ele>
        <time>2014-7-5T9:17:36.000Z</time>
      </trkpt>
      <trkpt lat="44.55386" lon="0.71349">
        <ele>152.5</ele>
        <time>2014-7-5T9:17:36.000Z</time>
      </trkpt>
      <trkpt lat="44.55388" lon="0.71348">
        <ele>152.5</ele>
        <time>2014-7-5T9:17:36.000Z</time>
      </trkpt>
      <trkpt lat="44.5539" lon="0.71346">
        <ele>152.5</ele>
        <time>2014-7-5T9:17:36.000Z</time>
      </trkpt>
      <trkpt lat="44.55393" lon="0.71345">
        <ele>152.5</ele>
        <time>2014-7-5T9:17:36.000Z</time>
      </trkpt>
      <trkpt lat="44.55395" lon="0.71344">
        <ele>152.5</ele>
        <time>2014-7-5T9:17:36.000Z</time>
      </trkpt>
      <trkpt lat="44.55397" lon="0.71342">
        <ele>152.5</ele>
        <time>2014-7-5T9:17:36.000Z</time>
      </trkpt>
      <trkpt lat="44.55402" lon="0.7134">
        <ele>152.5</ele>
        <time>2014-7-5T9:17:36.000Z</time>
      </trkpt>
      <trkpt lat="44.55404" lon="0.71339">
        <ele>152.5</ele>
        <time>2014-7-5T9:17:36.000Z</time>
      </trkpt>
      <trkpt lat="44.55406" lon="0.71338">
        <ele>152.5</ele>
        <time>2014-7-5T9:17:36.000Z</time>
      </trkpt>
      <trkpt lat="44.55409" lon="0.71336">
        <ele>152.5</ele>
        <time>2014-7-5T9:17:36.000Z</time>
      </trkpt>
      <trkpt lat="44.55411" lon="0.71335">
        <ele>152.5</ele>
        <time>2014-7-5T9:17:36.000Z</time>
      </trkpt>
      <trkpt lat="44.55413" lon="0.71334">
        <ele>152.5</ele>
        <time>2014-7-5T9:17:36.000Z</time>
      </trkpt>
      <trkpt lat="44.55415" lon="0.71333">
        <ele>153.5</ele>
        <time>2014-7-5T9:17:36.000Z</time>
      </trkpt>
      <trkpt lat="44.55418" lon="0.71332">
        <ele>152.5</ele>
        <time>2014-7-5T9:17:36.000Z</time>
      </trkpt>
      <trkpt lat="44.5542" lon="0.7133">
        <ele>152.5</ele>
        <time>2014-7-5T9:17:36.000Z</time>
      </trkpt>
      <trkpt lat="44.55422" lon="0.71329">
        <ele>153.5</ele>
        <time>2014-7-5T9:17:36.000Z</time>
      </trkpt>
      <trkpt lat="44.55424" lon="0.71328">
        <ele>153.5</ele>
        <time>2014-7-5T9:17:36.000Z</time>
      </trkpt>
      <trkpt lat="44.55427" lon="0.71327">
        <ele>153.5</ele>
        <time>2014-7-5T9:17:36.000Z</time>
      </trkpt>
      <trkpt lat="44.55429" lon="0.71326">
        <ele>153.5</ele>
        <time>2014-7-5T9:17:36.000Z</time>
      </trkpt>
      <trkpt lat="44.55431" lon="0.71324">
        <ele>153.5</ele>
        <time>2014-7-5T9:17:36.000Z</time>
      </trkpt>
      <trkpt lat="44.55433" lon="0.71323">
        <ele>153.5</ele>
        <time>2014-7-5T9:17:36.000Z</time>
      </trkpt>
      <trkpt lat="44.55436" lon="0.71322">
        <ele>153.5</ele>
        <time>2014-7-5T9:17:36.000Z</time>
      </trkpt>
      <trkpt lat="44.55438" lon="0.7132">
        <ele>153.5</ele>
        <time>2014-7-5T9:17:36.000Z</time>
      </trkpt>
      <trkpt lat="44.55441" lon="0.71319">
        <ele>153.5</ele>
        <time>2014-7-5T9:17:36.000Z</time>
      </trkpt>
      <trkpt lat="44.55443" lon="0.71317">
        <ele>153.5</ele>
        <time>2014-7-5T9:17:36.000Z</time>
      </trkpt>
      <trkpt lat="44.55445" lon="0.71315">
        <ele>153.5</ele>
        <time>2014-7-5T9:17:36.000Z</time>
      </trkpt>
      <trkpt lat="44.55447" lon="0.71314">
        <ele>153.5</ele>
        <time>2014-7-5T9:17:36.000Z</time>
      </trkpt>
      <trkpt lat="44.55449" lon="0.71312">
        <ele>154.5</ele>
        <time>2014-7-5T9:17:36.000Z</time>
      </trkpt>
      <trkpt lat="44.55452" lon="0.7131">
        <ele>154.5</ele>
        <time>2014-7-5T9:17:36.000Z</time>
      </trkpt>
      <trkpt lat="44.55455" lon="0.71312">
        <ele>154.5</ele>
        <time>2014-7-5T9:17:36.000Z</time>
      </trkpt>
      <trkpt lat="44.55456" lon="0.71315">
        <ele>154.5</ele>
        <time>2014-7-5T9:17:36.000Z</time>
      </trkpt>
      <trkpt lat="44.55458" lon="0.71322">
        <ele>155.5</ele>
        <time>2014-7-5T9:17:36.000Z</time>
      </trkpt>
      <trkpt lat="44.55459" lon="0.71326">
        <ele>155.5</ele>
        <time>2014-7-5T9:17:36.000Z</time>
      </trkpt>
      <trkpt lat="44.5546" lon="0.7133">
        <ele>155.5</ele>
        <time>2014-7-5T9:17:36.000Z</time>
      </trkpt>
      <trkpt lat="44.55461" lon="0.71334">
        <ele>155.5</ele>
        <time>2014-7-5T9:17:36.000Z</time>
      </trkpt>
      <trkpt lat="44.55462" lon="0.71338">
        <ele>156.5</ele>
        <time>2014-7-5T9:17:36.000Z</time>
      </trkpt>
      <trkpt lat="44.55463" lon="0.71342">
        <ele>155.5</ele>
        <time>2014-7-5T9:17:36.000Z</time>
      </trkpt>
      <trkpt lat="44.55463" lon="0.71346">
        <ele>155.5</ele>
        <time>2014-7-5T9:17:36.000Z</time>
      </trkpt>
      <trkpt lat="44.55464" lon="0.7135">
        <ele>156.5</ele>
        <time>2014-7-5T9:17:36.000Z</time>
      </trkpt>
      <trkpt lat="44.55465" lon="0.71354">
        <ele>156.5</ele>
        <time>2014-7-5T9:17:36.000Z</time>
      </trkpt>
      <trkpt lat="44.55466" lon="0.71358">
        <ele>156.5</ele>
        <time>2014-7-5T9:17:36.000Z</time>
      </trkpt>
      <trkpt lat="44.55466" lon="0.71362">
        <ele>156.5</ele>
        <time>2014-7-5T9:17:36.000Z</time>
      </trkpt>
      <trkpt lat="44.55467" lon="0.71366">
        <ele>157.5</ele>
        <time>2014-7-5T9:17:36.000Z</time>
      </trkpt>
      <trkpt lat="44.55467" lon="0.71369">
        <ele>156.5</ele>
        <time>2014-7-5T9:17:36.000Z</time>
      </trkpt>
      <trkpt lat="44.55467" lon="0.71373">
        <ele>155.5</ele>
        <time>2014-7-5T9:17:36.000Z</time>
      </trkpt>
      <trkpt lat="44.55467" lon="0.71376">
        <ele>155.5</ele>
        <time>2014-7-5T9:17:36.000Z</time>
      </trkpt>
      <trkpt lat="44.55467" lon="0.71379">
        <ele>155.5</ele>
        <time>2014-7-5T9:17:36.000Z</time>
      </trkpt>
      <trkpt lat="44.55467" lon="0.71383">
        <ele>155.5</ele>
        <time>2014-7-5T9:17:36.000Z</time>
      </trkpt>
      <trkpt lat="44.55467" lon="0.71388">
        <ele>155.5</ele>
        <time>2014-7-5T9:17:36.000Z</time>
      </trkpt>
      <trkpt lat="44.55467" lon="0.71392">
        <ele>155.5</ele>
        <time>2014-7-5T9:17:36.000Z</time>
      </trkpt>
      <trkpt lat="44.55467" lon="0.71397">
        <ele>155.5</ele>
        <time>2014-7-5T9:17:36.000Z</time>
      </trkpt>
      <trkpt lat="44.55467" lon="0.71402">
        <ele>154.5</ele>
        <time>2014-7-5T9:17:36.000Z</time>
      </trkpt>
      <trkpt lat="44.55467" lon="0.71407">
        <ele>154.5</ele>
        <time>2014-7-5T9:17:36.000Z</time>
      </trkpt>
      <trkpt lat="44.55467" lon="0.71419">
        <ele>153.5</ele>
        <time>2014-7-5T9:17:36.000Z</time>
      </trkpt>
      <trkpt lat="44.55467" lon="0.71425">
        <ele>153.5</ele>
        <time>2014-7-5T9:17:36.000Z</time>
      </trkpt>
      <trkpt lat="44.55467" lon="0.71433">
        <ele>152.5</ele>
        <time>2014-7-5T9:17:36.000Z</time>
      </trkpt>
      <trkpt lat="44.55467" lon="0.71441">
        <ele>152.5</ele>
        <time>2014-7-5T9:17:36.000Z</time>
      </trkpt>
      <trkpt lat="44.55467" lon="0.71448">
        <ele>152.5</ele>
        <time>2014-7-5T9:17:36.000Z</time>
      </trkpt>
      <trkpt lat="44.55467" lon="0.71456">
        <ele>152.5</ele>
        <time>2014-7-5T9:17:36.000Z</time>
      </trkpt>
      <trkpt lat="44.55468" lon="0.71465">
        <ele>152.5</ele>
        <time>2014-7-5T9:17:36.000Z</time>
      </trkpt>
      <trkpt lat="44.55467" lon="0.71473">
        <ele>151.5</ele>
        <time>2014-7-5T9:17:36.000Z</time>
      </trkpt>
      <trkpt lat="44.55467" lon="0.71482">
        <ele>151.5</ele>
        <time>2014-7-5T9:17:36.000Z</time>
      </trkpt>
      <trkpt lat="44.55467" lon="0.71492">
        <ele>151.5</ele>
        <time>2014-7-5T9:17:36.000Z</time>
      </trkpt>
      <trkpt lat="44.55467" lon="0.71501">
        <ele>151.5</ele>
        <time>2014-7-5T9:17:36.000Z</time>
      </trkpt>
      <trkpt lat="44.55467" lon="0.71511">
        <ele>150.5</ele>
        <time>2014-7-5T9:17:36.000Z</time>
      </trkpt>
      <trkpt lat="44.55467" lon="0.71519">
        <ele>150.5</ele>
        <time>2014-7-5T9:17:36.000Z</time>
      </trkpt>
      <trkpt lat="44.55467" lon="0.71526">
        <ele>150.5</ele>
        <time>2014-7-5T9:17:36.000Z</time>
      </trkpt>
      <trkpt lat="44.55468" lon="0.71534">
        <ele>149.5</ele>
        <time>2014-7-5T9:17:36.000Z</time>
      </trkpt>
      <trkpt lat="44.55468" lon="0.71542">
        <ele>149.5</ele>
        <time>2014-7-5T9:17:36.000Z</time>
      </trkpt>
      <trkpt lat="44.55469" lon="0.71551">
        <ele>148.5</ele>
        <time>2014-7-5T9:17:36.000Z</time>
      </trkpt>
      <trkpt lat="44.55469" lon="0.71561">
        <ele>148.5</ele>
        <time>2014-7-5T9:17:36.000Z</time>
      </trkpt>
      <trkpt lat="44.5547" lon="0.7157">
        <ele>148.5</ele>
        <time>2014-7-5T9:17:36.000Z</time>
      </trkpt>
      <trkpt lat="44.55471" lon="0.7158">
        <ele>147.5</ele>
        <time>2014-7-5T9:17:36.000Z</time>
      </trkpt>
      <trkpt lat="44.55473" lon="0.71599">
        <ele>146.5</ele>
        <time>2014-7-5T9:17:36.000Z</time>
      </trkpt>
      <trkpt lat="44.55475" lon="0.71609">
        <ele>146.5</ele>
        <time>2014-7-5T9:17:36.000Z</time>
      </trkpt>
      <trkpt lat="44.55477" lon="0.71617">
        <ele>146.5</ele>
        <time>2014-7-5T9:20:24.000Z</time>
      </trkpt>
      <trkpt lat="44.55479" lon="0.71625">
        <ele>146.5</ele>
        <time>2014-7-5T9:20:24.000Z</time>
      </trkpt>
      <trkpt lat="44.55482" lon="0.71633">
        <ele>145.5</ele>
        <time>2014-7-5T9:20:24.000Z</time>
      </trkpt>
      <trkpt lat="44.55484" lon="0.71639">
        <ele>146.5</ele>
        <time>2014-7-5T9:20:24.000Z</time>
      </trkpt>
      <trkpt lat="44.55486" lon="0.71647">
        <ele>146.5</ele>
        <time>2014-7-5T9:20:24.000Z</time>
      </trkpt>
      <trkpt lat="44.55488" lon="0.71655">
        <ele>146.5</ele>
        <time>2014-7-5T9:20:24.000Z</time>
      </trkpt>
      <trkpt lat="44.5549" lon="0.71661">
        <ele>146.5</ele>
        <time>2014-7-5T9:20:24.000Z</time>
      </trkpt>
      <trkpt lat="44.55492" lon="0.71668">
        <ele>146.5</ele>
        <time>2014-7-5T9:20:24.000Z</time>
      </trkpt>
      <trkpt lat="44.55494" lon="0.71673">
        <ele>146.5</ele>
        <time>2014-7-5T9:20:24.000Z</time>
      </trkpt>
      <trkpt lat="44.55496" lon="0.7168">
        <ele>147.5</ele>
        <time>2014-7-5T9:20:24.000Z</time>
      </trkpt>
      <trkpt lat="44.55498" lon="0.71686">
        <ele>148.5</ele>
        <time>2014-7-5T9:20:24.000Z</time>
      </trkpt>
      <trkpt lat="44.55499" lon="0.71693">
        <ele>147.5</ele>
        <time>2014-7-5T9:20:24.000Z</time>
      </trkpt>
      <trkpt lat="44.55502" lon="0.71698">
        <ele>147.5</ele>
        <time>2014-7-5T9:20:24.000Z</time>
      </trkpt>
      <trkpt lat="44.55504" lon="0.71704">
        <ele>147.5</ele>
        <time>2014-7-5T9:20:24.000Z</time>
      </trkpt>
      <trkpt lat="44.55505" lon="0.71709">
        <ele>146.5</ele>
        <time>2014-7-5T9:20:24.000Z</time>
      </trkpt>
      <trkpt lat="44.55507" lon="0.71714">
        <ele>147.5</ele>
        <time>2014-7-5T9:20:24.000Z</time>
      </trkpt>
      <trkpt lat="44.55509" lon="0.71718">
        <ele>147.5</ele>
        <time>2014-7-5T9:20:24.000Z</time>
      </trkpt>
      <trkpt lat="44.55511" lon="0.71723">
        <ele>147.5</ele>
        <time>2014-7-5T9:20:24.000Z</time>
      </trkpt>
      <trkpt lat="44.55514" lon="0.71726">
        <ele>146.5</ele>
        <time>2014-7-5T9:20:24.000Z</time>
      </trkpt>
      <trkpt lat="44.55514" lon="0.71731">
        <ele>146.5</ele>
        <time>2014-7-5T9:20:24.000Z</time>
      </trkpt>
      <trkpt lat="44.55516" lon="0.71734">
        <ele>145.5</ele>
        <time>2014-7-5T9:20:24.000Z</time>
      </trkpt>
      <trkpt lat="44.55517" lon="0.71738">
        <ele>145.5</ele>
        <time>2014-7-5T9:20:24.000Z</time>
      </trkpt>
      <trkpt lat="44.55518" lon="0.71741">
        <ele>143.5</ele>
        <time>2014-7-5T9:20:24.000Z</time>
      </trkpt>
      <trkpt lat="44.55521" lon="0.71748">
        <ele>142.5</ele>
        <time>2014-7-5T9:20:24.000Z</time>
      </trkpt>
      <trkpt lat="44.55523" lon="0.71752">
        <ele>142.5</ele>
        <time>2014-7-5T9:20:24.000Z</time>
      </trkpt>
      <trkpt lat="44.55525" lon="0.71757">
        <ele>142.5</ele>
        <time>2014-7-5T9:20:24.000Z</time>
      </trkpt>
      <trkpt lat="44.55527" lon="0.71762">
        <ele>144.5</ele>
        <time>2014-7-5T9:20:24.000Z</time>
      </trkpt>
      <trkpt lat="44.55528" lon="0.71766">
        <ele>144.5</ele>
        <time>2014-7-5T9:20:24.000Z</time>
      </trkpt>
      <trkpt lat="44.5553" lon="0.71771">
        <ele>143.5</ele>
        <time>2014-7-5T9:20:24.000Z</time>
      </trkpt>
      <trkpt lat="44.55532" lon="0.71776">
        <ele>143.5</ele>
        <time>2014-7-5T9:20:24.000Z</time>
      </trkpt>
      <trkpt lat="44.55534" lon="0.7178">
        <ele>144.5</ele>
        <time>2014-7-5T9:20:24.000Z</time>
      </trkpt>
      <trkpt lat="44.55536" lon="0.71785">
        <ele>144.5</ele>
        <time>2014-7-5T9:20:24.000Z</time>
      </trkpt>
      <trkpt lat="44.55538" lon="0.71789">
        <ele>144.5</ele>
        <time>2014-7-5T9:20:24.000Z</time>
      </trkpt>
      <trkpt lat="44.55539" lon="0.71793">
        <ele>145.5</ele>
        <time>2014-7-5T9:20:24.000Z</time>
      </trkpt>
      <trkpt lat="44.55542" lon="0.71798">
        <ele>146.5</ele>
        <time>2014-7-5T9:20:24.000Z</time>
      </trkpt>
      <trkpt lat="44.55544" lon="0.71801">
        <ele>146.5</ele>
        <time>2014-7-5T9:20:24.000Z</time>
      </trkpt>
      <trkpt lat="44.55546" lon="0.71805">
        <ele>146.5</ele>
        <time>2014-7-5T9:20:24.000Z</time>
      </trkpt>
      <trkpt lat="44.55548" lon="0.71809">
        <ele>147.5</ele>
        <time>2014-7-5T9:20:24.000Z</time>
      </trkpt>
      <trkpt lat="44.55549" lon="0.71812">
        <ele>147.5</ele>
        <time>2014-7-5T9:20:24.000Z</time>
      </trkpt>
      <trkpt lat="44.5555" lon="0.71815">
        <ele>147.5</ele>
        <time>2014-7-5T9:20:24.000Z</time>
      </trkpt>
      <trkpt lat="44.55551" lon="0.71818">
        <ele>147.5</ele>
        <time>2014-7-5T9:20:24.000Z</time>
      </trkpt>
      <trkpt lat="44.55552" lon="0.7182">
        <ele>147.5</ele>
        <time>2014-7-5T9:20:24.000Z</time>
      </trkpt>
      <trkpt lat="44.55553" lon="0.71824">
        <ele>147.5</ele>
        <time>2014-7-5T9:20:24.000Z</time>
      </trkpt>
      <trkpt lat="44.55554" lon="0.71827">
        <ele>147.5</ele>
        <time>2014-7-5T9:20:24.000Z</time>
      </trkpt>
      <trkpt lat="44.55556" lon="0.71829">
        <ele>147.5</ele>
        <time>2014-7-5T9:20:24.000Z</time>
      </trkpt>
      <trkpt lat="44.55557" lon="0.71832">
        <ele>147.5</ele>
        <time>2014-7-5T9:20:24.000Z</time>
      </trkpt>
      <trkpt lat="44.55559" lon="0.71835">
        <ele>148.5</ele>
        <time>2014-7-5T9:20:24.000Z</time>
      </trkpt>
      <trkpt lat="44.5556" lon="0.71838">
        <ele>148.5</ele>
        <time>2014-7-5T9:20:24.000Z</time>
      </trkpt>
      <trkpt lat="44.55561" lon="0.71841">
        <ele>148.5</ele>
        <time>2014-7-5T9:20:24.000Z</time>
      </trkpt>
      <trkpt lat="44.55562" lon="0.71844">
        <ele>148.5</ele>
        <time>2014-7-5T9:20:24.000Z</time>
      </trkpt>
      <trkpt lat="44.55562" lon="0.71847">
        <ele>148.5</ele>
        <time>2014-7-5T9:20:24.000Z</time>
      </trkpt>
      <trkpt lat="44.55564" lon="0.71847">
        <ele>151.5</ele>
        <time>2014-7-5T9:20:24.000Z</time>
      </trkpt>
      <trkpt lat="44.55566" lon="0.71846">
        <ele>152.5</ele>
        <time>2014-7-5T9:20:24.000Z</time>
      </trkpt>
      <trkpt lat="44.55569" lon="0.71844">
        <ele>152.5</ele>
        <time>2014-7-5T9:20:24.000Z</time>
      </trkpt>
      <trkpt lat="44.55572" lon="0.71842">
        <ele>152.5</ele>
        <time>2014-7-5T9:20:24.000Z</time>
      </trkpt>
      <trkpt lat="44.55575" lon="0.71839">
        <ele>152.5</ele>
        <time>2014-7-5T9:20:24.000Z</time>
      </trkpt>
      <trkpt lat="44.55582" lon="0.71833">
        <ele>151.5</ele>
        <time>2014-7-5T9:20:24.000Z</time>
      </trkpt>
      <trkpt lat="44.55586" lon="0.71831">
        <ele>151.5</ele>
        <time>2014-7-5T9:20:24.000Z</time>
      </trkpt>
      <trkpt lat="44.5559" lon="0.71828">
        <ele>150.5</ele>
        <time>2014-7-5T9:20:24.000Z</time>
      </trkpt>
      <trkpt lat="44.55594" lon="0.71826">
        <ele>150.5</ele>
        <time>2014-7-5T9:20:24.000Z</time>
      </trkpt>
      <trkpt lat="44.55601" lon="0.71823">
        <ele>149.5</ele>
        <time>2014-7-5T9:20:24.000Z</time>
      </trkpt>
      <trkpt lat="44.55605" lon="0.71817">
        <ele>150.5</ele>
        <time>2014-7-5T9:20:24.000Z</time>
      </trkpt>
      <trkpt lat="44.5561" lon="0.71813">
        <ele>149.5</ele>
        <time>2014-7-5T9:20:24.000Z</time>
      </trkpt>
      <trkpt lat="44.55615" lon="0.71809">
        <ele>149.5</ele>
        <time>2014-7-5T9:20:24.000Z</time>
      </trkpt>
      <trkpt lat="44.55621" lon="0.71805">
        <ele>149.5</ele>
        <time>2014-7-5T9:20:24.000Z</time>
      </trkpt>
      <trkpt lat="44.55626" lon="0.71802">
        <ele>149.5</ele>
        <time>2014-7-5T9:20:24.000Z</time>
      </trkpt>
      <trkpt lat="44.55632" lon="0.71798">
        <ele>148.5</ele>
        <time>2014-7-5T9:20:24.000Z</time>
      </trkpt>
      <trkpt lat="44.55636" lon="0.71794">
        <ele>148.5</ele>
        <time>2014-7-5T9:20:24.000Z</time>
      </trkpt>
      <trkpt lat="44.55642" lon="0.71791">
        <ele>147.5</ele>
        <time>2014-7-5T9:20:24.000Z</time>
      </trkpt>
      <trkpt lat="44.55647" lon="0.71787">
        <ele>147.5</ele>
        <time>2014-7-5T9:20:24.000Z</time>
      </trkpt>
      <trkpt lat="44.55652" lon="0.71784">
        <ele>146.5</ele>
        <time>2014-7-5T9:20:24.000Z</time>
      </trkpt>
      <trkpt lat="44.55657" lon="0.71781">
        <ele>147.5</ele>
        <time>2014-7-5T9:20:24.000Z</time>
      </trkpt>
      <trkpt lat="44.55662" lon="0.71777">
        <ele>147.5</ele>
        <time>2014-7-5T9:20:24.000Z</time>
      </trkpt>
      <trkpt lat="44.55667" lon="0.71774">
        <ele>147.5</ele>
        <time>2014-7-5T9:20:24.000Z</time>
      </trkpt>
      <trkpt lat="44.55673" lon="0.7177">
        <ele>147.5</ele>
        <time>2014-7-5T9:20:24.000Z</time>
      </trkpt>
      <trkpt lat="44.55678" lon="0.71767">
        <ele>146.5</ele>
        <time>2014-7-5T9:20:24.000Z</time>
      </trkpt>
      <trkpt lat="44.55683" lon="0.71763">
        <ele>146.5</ele>
        <time>2014-7-5T9:20:24.000Z</time>
      </trkpt>
      <trkpt lat="44.55689" lon="0.71759">
        <ele>145.5</ele>
        <time>2014-7-5T9:20:24.000Z</time>
      </trkpt>
      <trkpt lat="44.55693" lon="0.71754">
        <ele>147.5</ele>
        <time>2014-7-5T9:20:24.000Z</time>
      </trkpt>
      <trkpt lat="44.55698" lon="0.7175">
        <ele>146.5</ele>
        <time>2014-7-5T9:20:24.000Z</time>
      </trkpt>
      <trkpt lat="44.55704" lon="0.71747">
        <ele>146.5</ele>
        <time>2014-7-5T9:20:24.000Z</time>
      </trkpt>
      <trkpt lat="44.55708" lon="0.71743">
        <ele>147.5</ele>
        <time>2014-7-5T9:20:24.000Z</time>
      </trkpt>
      <trkpt lat="44.55714" lon="0.71739">
        <ele>147.5</ele>
        <time>2014-7-5T9:20:24.000Z</time>
      </trkpt>
      <trkpt lat="44.55718" lon="0.71734">
        <ele>147.5</ele>
        <time>2014-7-5T9:20:24.000Z</time>
      </trkpt>
      <trkpt lat="44.55723" lon="0.7173">
        <ele>146.5</ele>
        <time>2014-7-5T9:20:24.000Z</time>
      </trkpt>
      <trkpt lat="44.55729" lon="0.71725">
        <ele>145.5</ele>
        <time>2014-7-5T9:20:24.000Z</time>
      </trkpt>
      <trkpt lat="44.55734" lon="0.71719">
        <ele>145.5</ele>
        <time>2014-7-5T9:20:24.000Z</time>
      </trkpt>
      <trkpt lat="44.55739" lon="0.71714">
        <ele>145.5</ele>
        <time>2014-7-5T9:20:24.000Z</time>
      </trkpt>
      <trkpt lat="44.55746" lon="0.7171">
        <ele>146.5</ele>
        <time>2014-7-5T9:20:24.000Z</time>
      </trkpt>
      <trkpt lat="44.55753" lon="0.71708">
        <ele>145.5</ele>
        <time>2014-7-5T9:20:24.000Z</time>
      </trkpt>
      <trkpt lat="44.55761" lon="0.71708">
        <ele>145.5</ele>
        <time>2014-7-5T9:20:24.000Z</time>
      </trkpt>
      <trkpt lat="44.55768" lon="0.71709">
        <ele>145.5</ele>
        <time>2014-7-5T9:20:24.000Z</time>
      </trkpt>
      <trkpt lat="44.55774" lon="0.7171">
        <ele>145.5</ele>
        <time>2014-7-5T9:20:24.000Z</time>
      </trkpt>
      <trkpt lat="44.55782" lon="0.71712">
        <ele>145.5</ele>
        <time>2014-7-5T9:20:24.000Z</time>
      </trkpt>
      <trkpt lat="44.55788" lon="0.71713">
        <ele>144.5</ele>
        <time>2014-7-5T9:20:24.000Z</time>
      </trkpt>
      <trkpt lat="44.55795" lon="0.71713">
        <ele>144.5</ele>
        <time>2014-7-5T9:20:24.000Z</time>
      </trkpt>
      <trkpt lat="44.55802" lon="0.71714">
        <ele>144.5</ele>
        <time>2014-7-5T9:20:24.000Z</time>
      </trkpt>
      <trkpt lat="44.55808" lon="0.71714">
        <ele>144.5</ele>
        <time>2014-7-5T9:20:24.000Z</time>
      </trkpt>
      <trkpt lat="44.55815" lon="0.71714">
        <ele>144.5</ele>
        <time>2014-7-5T9:20:24.000Z</time>
      </trkpt>
      <trkpt lat="44.55821" lon="0.71715">
        <ele>143.5</ele>
        <time>2014-7-5T9:20:24.000Z</time>
      </trkpt>
      <trkpt lat="44.55828" lon="0.71715">
        <ele>143.5</ele>
        <time>2014-7-5T9:20:24.000Z</time>
      </trkpt>
      <trkpt lat="44.55835" lon="0.71716">
        <ele>144.5</ele>
        <time>2014-7-5T9:22:39.000Z</time>
      </trkpt>
      <trkpt lat="44.55841" lon="0.71716">
        <ele>143.5</ele>
        <time>2014-7-5T9:22:39.000Z</time>
      </trkpt>
      <trkpt lat="44.55848" lon="0.71717">
        <ele>144.5</ele>
        <time>2014-7-5T9:22:39.000Z</time>
      </trkpt>
      <trkpt lat="44.55854" lon="0.71718">
        <ele>144.5</ele>
        <time>2014-7-5T9:22:39.000Z</time>
      </trkpt>
      <trkpt lat="44.5586" lon="0.71719">
        <ele>144.5</ele>
        <time>2014-7-5T9:22:39.000Z</time>
      </trkpt>
      <trkpt lat="44.55867" lon="0.7172">
        <ele>144.5</ele>
        <time>2014-7-5T9:22:39.000Z</time>
      </trkpt>
      <trkpt lat="44.55872" lon="0.71721">
        <ele>143.5</ele>
        <time>2014-7-5T9:22:39.000Z</time>
      </trkpt>
      <trkpt lat="44.55878" lon="0.71722">
        <ele>144.5</ele>
        <time>2014-7-5T9:22:39.000Z</time>
      </trkpt>
      <trkpt lat="44.55885" lon="0.71724">
        <ele>144.5</ele>
        <time>2014-7-5T9:22:39.000Z</time>
      </trkpt>
      <trkpt lat="44.5589" lon="0.71725">
        <ele>144.5</ele>
        <time>2014-7-5T9:22:39.000Z</time>
      </trkpt>
      <trkpt lat="44.55896" lon="0.71726">
        <ele>143.5</ele>
        <time>2014-7-5T9:22:39.000Z</time>
      </trkpt>
      <trkpt lat="44.55902" lon="0.71727">
        <ele>143.5</ele>
        <time>2014-7-5T9:22:39.000Z</time>
      </trkpt>
      <trkpt lat="44.55908" lon="0.71729">
        <ele>144.5</ele>
        <time>2014-7-5T9:22:39.000Z</time>
      </trkpt>
      <trkpt lat="44.55915" lon="0.71731">
        <ele>144.5</ele>
        <time>2014-7-5T9:22:39.000Z</time>
      </trkpt>
      <trkpt lat="44.55919" lon="0.71733">
        <ele>144.5</ele>
        <time>2014-7-5T9:22:39.000Z</time>
      </trkpt>
      <trkpt lat="44.55924" lon="0.71735">
        <ele>144.5</ele>
        <time>2014-7-5T9:22:39.000Z</time>
      </trkpt>
      <trkpt lat="44.55929" lon="0.71738">
        <ele>144.5</ele>
        <time>2014-7-5T9:22:39.000Z</time>
      </trkpt>
      <trkpt lat="44.55934" lon="0.71742">
        <ele>145.5</ele>
        <time>2014-7-5T9:22:39.000Z</time>
      </trkpt>
      <trkpt lat="44.55938" lon="0.71745">
        <ele>145.5</ele>
        <time>2014-7-5T9:22:39.000Z</time>
      </trkpt>
      <trkpt lat="44.55942" lon="0.71749">
        <ele>145.5</ele>
        <time>2014-7-5T9:22:39.000Z</time>
      </trkpt>
      <trkpt lat="44.55946" lon="0.71752">
        <ele>145.5</ele>
        <time>2014-7-5T9:22:39.000Z</time>
      </trkpt>
      <trkpt lat="44.5595" lon="0.71757">
        <ele>145.5</ele>
        <time>2014-7-5T9:22:39.000Z</time>
      </trkpt>
      <trkpt lat="44.55953" lon="0.71761">
        <ele>145.5</ele>
        <time>2014-7-5T9:22:39.000Z</time>
      </trkpt>
      <trkpt lat="44.55957" lon="0.71765">
        <ele>146.5</ele>
        <time>2014-7-5T9:22:39.000Z</time>
      </trkpt>
      <trkpt lat="44.5596" lon="0.71771">
        <ele>146.5</ele>
        <time>2014-7-5T9:22:39.000Z</time>
      </trkpt>
      <trkpt lat="44.55963" lon="0.71776">
        <ele>146.5</ele>
        <time>2014-7-5T9:22:39.000Z</time>
      </trkpt>
      <trkpt lat="44.55965" lon="0.71782">
        <ele>147.5</ele>
        <time>2014-7-5T9:22:39.000Z</time>
      </trkpt>
      <trkpt lat="44.55968" lon="0.71788">
        <ele>147.5</ele>
        <time>2014-7-5T9:22:39.000Z</time>
      </trkpt>
      <trkpt lat="44.55972" lon="0.71792">
        <ele>147.5</ele>
        <time>2014-7-5T9:22:39.000Z</time>
      </trkpt>
      <trkpt lat="44.55975" lon="0.71797">
        <ele>147.5</ele>
        <time>2014-7-5T9:22:39.000Z</time>
      </trkpt>
      <trkpt lat="44.55978" lon="0.71801">
        <ele>147.5</ele>
        <time>2014-7-5T9:22:39.000Z</time>
      </trkpt>
      <trkpt lat="44.55982" lon="0.71806">
        <ele>148.5</ele>
        <time>2014-7-5T9:22:39.000Z</time>
      </trkpt>
      <trkpt lat="44.55985" lon="0.7181">
        <ele>148.5</ele>
        <time>2014-7-5T9:22:39.000Z</time>
      </trkpt>
      <trkpt lat="44.55988" lon="0.71814">
        <ele>148.5</ele>
        <time>2014-7-5T9:22:39.000Z</time>
      </trkpt>
      <trkpt lat="44.55991" lon="0.71819">
        <ele>148.5</ele>
        <time>2014-7-5T9:22:39.000Z</time>
      </trkpt>
      <trkpt lat="44.55994" lon="0.71825">
        <ele>149.5</ele>
        <time>2014-7-5T9:22:39.000Z</time>
      </trkpt>
      <trkpt lat="44.55997" lon="0.71828">
        <ele>148.5</ele>
        <time>2014-7-5T9:22:39.000Z</time>
      </trkpt>
      <trkpt lat="44.56001" lon="0.71833">
        <ele>149.5</ele>
        <time>2014-7-5T9:22:39.000Z</time>
      </trkpt>
      <trkpt lat="44.56003" lon="0.71836">
        <ele>149.5</ele>
        <time>2014-7-5T9:22:39.000Z</time>
      </trkpt>
      <trkpt lat="44.56007" lon="0.71841">
        <ele>149.5</ele>
        <time>2014-7-5T9:22:39.000Z</time>
      </trkpt>
      <trkpt lat="44.56009" lon="0.71845">
        <ele>151.5</ele>
        <time>2014-7-5T9:22:39.000Z</time>
      </trkpt>
      <trkpt lat="44.56011" lon="0.71847">
        <ele>150.5</ele>
        <time>2014-7-5T9:22:39.000Z</time>
      </trkpt>
      <trkpt lat="44.56012" lon="0.71851">
        <ele>150.5</ele>
        <time>2014-7-5T9:22:39.000Z</time>
      </trkpt>
      <trkpt lat="44.56014" lon="0.71853">
        <ele>150.5</ele>
        <time>2014-7-5T9:22:39.000Z</time>
      </trkpt>
      <trkpt lat="44.56016" lon="0.71856">
        <ele>150.5</ele>
        <time>2014-7-5T9:22:39.000Z</time>
      </trkpt>
      <trkpt lat="44.56017" lon="0.71857">
        <ele>150.5</ele>
        <time>2014-7-5T9:22:39.000Z</time>
      </trkpt>
      <trkpt lat="44.56018" lon="0.71859">
        <ele>151.5</ele>
        <time>2014-7-5T9:22:39.000Z</time>
      </trkpt>
      <trkpt lat="44.5602" lon="0.71861">
        <ele>151.5</ele>
        <time>2014-7-5T9:22:39.000Z</time>
      </trkpt>
      <trkpt lat="44.56022" lon="0.71863">
        <ele>151.5</ele>
        <time>2014-7-5T9:22:39.000Z</time>
      </trkpt>
      <trkpt lat="44.56023" lon="0.71865">
        <ele>151.5</ele>
        <time>2014-7-5T9:22:39.000Z</time>
      </trkpt>
      <trkpt lat="44.56025" lon="0.71867">
        <ele>151.5</ele>
        <time>2014-7-5T9:22:39.000Z</time>
      </trkpt>
      <trkpt lat="44.56027" lon="0.71869">
        <ele>151.5</ele>
        <time>2014-7-5T9:22:39.000Z</time>
      </trkpt>
      <trkpt lat="44.56029" lon="0.71871">
        <ele>151.5</ele>
        <time>2014-7-5T9:22:39.000Z</time>
      </trkpt>
      <trkpt lat="44.56031" lon="0.71875">
        <ele>150.5</ele>
        <time>2014-7-5T9:22:39.000Z</time>
      </trkpt>
      <trkpt lat="44.56033" lon="0.71877">
        <ele>150.5</ele>
        <time>2014-7-5T9:22:39.000Z</time>
      </trkpt>
      <trkpt lat="44.56035" lon="0.71879">
        <ele>150.5</ele>
        <time>2014-7-5T9:22:39.000Z</time>
      </trkpt>
      <trkpt lat="44.56034" lon="0.71882">
        <ele>150.5</ele>
        <time>2014-7-5T9:22:39.000Z</time>
      </trkpt>
      <trkpt lat="44.56037" lon="0.71883">
        <ele>150.5</ele>
        <time>2014-7-5T9:22:39.000Z</time>
      </trkpt>
      <trkpt lat="44.5604" lon="0.71886">
        <ele>150.5</ele>
        <time>2014-7-5T9:22:39.000Z</time>
      </trkpt>
      <trkpt lat="44.56042" lon="0.71888">
        <ele>150.5</ele>
        <time>2014-7-5T9:22:39.000Z</time>
      </trkpt>
      <trkpt lat="44.56044" lon="0.7189">
        <ele>150.5</ele>
        <time>2014-7-5T9:22:39.000Z</time>
      </trkpt>
      <trkpt lat="44.56046" lon="0.71892">
        <ele>150.5</ele>
        <time>2014-7-5T9:22:39.000Z</time>
      </trkpt>
      <trkpt lat="44.56049" lon="0.71896">
        <ele>150.5</ele>
        <time>2014-7-5T9:22:39.000Z</time>
      </trkpt>
      <trkpt lat="44.56053" lon="0.719">
        <ele>150.5</ele>
        <time>2014-7-5T9:22:39.000Z</time>
      </trkpt>
      <trkpt lat="44.56056" lon="0.71904">
        <ele>150.5</ele>
        <time>2014-7-5T9:22:39.000Z</time>
      </trkpt>
      <trkpt lat="44.56061" lon="0.71909">
        <ele>149.5</ele>
        <time>2014-7-5T9:22:39.000Z</time>
      </trkpt>
      <trkpt lat="44.56064" lon="0.71914">
        <ele>149.5</ele>
        <time>2014-7-5T9:22:39.000Z</time>
      </trkpt>
      <trkpt lat="44.56068" lon="0.71918">
        <ele>149.5</ele>
        <time>2014-7-5T9:22:39.000Z</time>
      </trkpt>
      <trkpt lat="44.56071" lon="0.71922">
        <ele>148.5</ele>
        <time>2014-7-5T9:22:39.000Z</time>
      </trkpt>
      <trkpt lat="44.56074" lon="0.71926">
        <ele>148.5</ele>
        <time>2014-7-5T9:22:39.000Z</time>
      </trkpt>
      <trkpt lat="44.56078" lon="0.71931">
        <ele>148.5</ele>
        <time>2014-7-5T9:22:39.000Z</time>
      </trkpt>
      <trkpt lat="44.56082" lon="0.71935">
        <ele>147.5</ele>
        <time>2014-7-5T9:22:39.000Z</time>
      </trkpt>
      <trkpt lat="44.56085" lon="0.7194">
        <ele>148.5</ele>
        <time>2014-7-5T9:22:39.000Z</time>
      </trkpt>
      <trkpt lat="44.56089" lon="0.71946">
        <ele>148.5</ele>
        <time>2014-7-5T9:22:39.000Z</time>
      </trkpt>
      <trkpt lat="44.56093" lon="0.71951">
        <ele>148.5</ele>
        <time>2014-7-5T9:22:39.000Z</time>
      </trkpt>
      <trkpt lat="44.56096" lon="0.71957">
        <ele>149.5</ele>
        <time>2014-7-5T9:22:39.000Z</time>
      </trkpt>
      <trkpt lat="44.56099" lon="0.71963">
        <ele>149.5</ele>
        <time>2014-7-5T9:22:39.000Z</time>
      </trkpt>
      <trkpt lat="44.56102" lon="0.71968">
        <ele>149.5</ele>
        <time>2014-7-5T9:22:39.000Z</time>
      </trkpt>
      <trkpt lat="44.56106" lon="0.71975">
        <ele>149.5</ele>
        <time>2014-7-5T9:22:39.000Z</time>
      </trkpt>
      <trkpt lat="44.56108" lon="0.71981">
        <ele>149.5</ele>
        <time>2014-7-5T9:22:39.000Z</time>
      </trkpt>
      <trkpt lat="44.56111" lon="0.71987">
        <ele>150.5</ele>
        <time>2014-7-5T9:22:39.000Z</time>
      </trkpt>
      <trkpt lat="44.56114" lon="0.71993">
        <ele>150.5</ele>
        <time>2014-7-5T9:22:39.000Z</time>
      </trkpt>
      <trkpt lat="44.56116" lon="0.72">
        <ele>150.5</ele>
        <time>2014-7-5T9:22:39.000Z</time>
      </trkpt>
      <trkpt lat="44.5612" lon="0.72006">
        <ele>151.5</ele>
        <time>2014-7-5T9:22:39.000Z</time>
      </trkpt>
      <trkpt lat="44.56122" lon="0.72012">
        <ele>152.5</ele>
        <time>2014-7-5T9:22:39.000Z</time>
      </trkpt>
      <trkpt lat="44.56125" lon="0.72017">
        <ele>152.5</ele>
        <time>2014-7-5T9:22:39.000Z</time>
      </trkpt>
      <trkpt lat="44.56129" lon="0.72023">
        <ele>152.5</ele>
        <time>2014-7-5T9:22:39.000Z</time>
      </trkpt>
      <trkpt lat="44.56133" lon="0.72028">
        <ele>152.5</ele>
        <time>2014-7-5T9:22:39.000Z</time>
      </trkpt>
      <trkpt lat="44.56137" lon="0.72033">
        <ele>153.5</ele>
        <time>2014-7-5T9:22:39.000Z</time>
      </trkpt>
      <trkpt lat="44.56141" lon="0.72038">
        <ele>153.5</ele>
        <time>2014-7-5T9:22:39.000Z</time>
      </trkpt>
      <trkpt lat="44.56145" lon="0.72042">
        <ele>153.5</ele>
        <time>2014-7-5T9:22:39.000Z</time>
      </trkpt>
      <trkpt lat="44.56149" lon="0.72045">
        <ele>153.5</ele>
        <time>2014-7-5T9:22:39.000Z</time>
      </trkpt>
      <trkpt lat="44.56153" lon="0.72048">
        <ele>153.5</ele>
        <time>2014-7-5T9:22:39.000Z</time>
      </trkpt>
      <trkpt lat="44.56157" lon="0.72051">
        <ele>153.5</ele>
        <time>2014-7-5T9:22:39.000Z</time>
      </trkpt>
      <trkpt lat="44.56162" lon="0.72056">
        <ele>153.5</ele>
        <time>2014-7-5T9:22:39.000Z</time>
      </trkpt>
      <trkpt lat="44.56165" lon="0.72059">
        <ele>153.5</ele>
        <time>2014-7-5T9:22:39.000Z</time>
      </trkpt>
      <trkpt lat="44.56169" lon="0.72062">
        <ele>153.5</ele>
        <time>2014-7-5T9:22:39.000Z</time>
      </trkpt>
      <trkpt lat="44.56174" lon="0.72066">
        <ele>154.5</ele>
        <time>2014-7-5T9:22:39.000Z</time>
      </trkpt>
      <trkpt lat="44.56178" lon="0.72071">
        <ele>153.5</ele>
        <time>2014-7-5T9:22:39.000Z</time>
      </trkpt>
      <trkpt lat="44.56182" lon="0.72074">
        <ele>153.5</ele>
        <time>2014-7-5T9:22:39.000Z</time>
      </trkpt>
      <trkpt lat="44.56186" lon="0.72078">
        <ele>153.5</ele>
        <time>2014-7-5T9:22:39.000Z</time>
      </trkpt>
      <trkpt lat="44.56191" lon="0.72082">
        <ele>153.5</ele>
        <time>2014-7-5T9:24:21.000Z</time>
      </trkpt>
      <trkpt lat="44.56195" lon="0.72086">
        <ele>154.5</ele>
        <time>2014-7-5T9:24:21.000Z</time>
      </trkpt>
      <trkpt lat="44.56199" lon="0.72089">
        <ele>154.5</ele>
        <time>2014-7-5T9:24:21.000Z</time>
      </trkpt>
      <trkpt lat="44.56203" lon="0.72093">
        <ele>154.5</ele>
        <time>2014-7-5T9:24:21.000Z</time>
      </trkpt>
      <trkpt lat="44.56209" lon="0.72097">
        <ele>155.5</ele>
        <time>2014-7-5T9:24:21.000Z</time>
      </trkpt>
      <trkpt lat="44.56213" lon="0.721">
        <ele>156.5</ele>
        <time>2014-7-5T9:24:21.000Z</time>
      </trkpt>
      <trkpt lat="44.56218" lon="0.72105">
        <ele>156.5</ele>
        <time>2014-7-5T9:24:21.000Z</time>
      </trkpt>
      <trkpt lat="44.56223" lon="0.7211">
        <ele>155.5</ele>
        <time>2014-7-5T9:24:21.000Z</time>
      </trkpt>
      <trkpt lat="44.56227" lon="0.72114">
        <ele>155.5</ele>
        <time>2014-7-5T9:24:21.000Z</time>
      </trkpt>
      <trkpt lat="44.56233" lon="0.72118">
        <ele>154.5</ele>
        <time>2014-7-5T9:24:21.000Z</time>
      </trkpt>
      <trkpt lat="44.56236" lon="0.72122">
        <ele>155.5</ele>
        <time>2014-7-5T9:24:21.000Z</time>
      </trkpt>
      <trkpt lat="44.5624" lon="0.72126">
        <ele>155.5</ele>
        <time>2014-7-5T9:24:21.000Z</time>
      </trkpt>
      <trkpt lat="44.56244" lon="0.72128">
        <ele>155.5</ele>
        <time>2014-7-5T9:24:21.000Z</time>
      </trkpt>
      <trkpt lat="44.56247" lon="0.72132">
        <ele>156.5</ele>
        <time>2014-7-5T9:24:21.000Z</time>
      </trkpt>
      <trkpt lat="44.56252" lon="0.72137">
        <ele>156.5</ele>
        <time>2014-7-5T9:24:21.000Z</time>
      </trkpt>
      <trkpt lat="44.56256" lon="0.7214">
        <ele>157.5</ele>
        <time>2014-7-5T9:24:21.000Z</time>
      </trkpt>
      <trkpt lat="44.5626" lon="0.72146">
        <ele>156.5</ele>
        <time>2014-7-5T9:24:21.000Z</time>
      </trkpt>
      <trkpt lat="44.56264" lon="0.72149">
        <ele>157.5</ele>
        <time>2014-7-5T9:24:21.000Z</time>
      </trkpt>
      <trkpt lat="44.56269" lon="0.72152">
        <ele>157.5</ele>
        <time>2014-7-5T9:24:21.000Z</time>
      </trkpt>
      <trkpt lat="44.56274" lon="0.72157">
        <ele>157.5</ele>
        <time>2014-7-5T9:24:21.000Z</time>
      </trkpt>
      <trkpt lat="44.5628" lon="0.72162">
        <ele>156.5</ele>
        <time>2014-7-5T9:24:21.000Z</time>
      </trkpt>
      <trkpt lat="44.56285" lon="0.72166">
        <ele>156.5</ele>
        <time>2014-7-5T9:24:21.000Z</time>
      </trkpt>
      <trkpt lat="44.5629" lon="0.72171">
        <ele>156.5</ele>
        <time>2014-7-5T9:24:21.000Z</time>
      </trkpt>
      <trkpt lat="44.56294" lon="0.72175">
        <ele>156.5</ele>
        <time>2014-7-5T9:24:21.000Z</time>
      </trkpt>
      <trkpt lat="44.56299" lon="0.72179">
        <ele>156.5</ele>
        <time>2014-7-5T9:24:21.000Z</time>
      </trkpt>
      <trkpt lat="44.56304" lon="0.72183">
        <ele>156.5</ele>
        <time>2014-7-5T9:24:21.000Z</time>
      </trkpt>
      <trkpt lat="44.5631" lon="0.72187">
        <ele>156.5</ele>
        <time>2014-7-5T9:24:21.000Z</time>
      </trkpt>
      <trkpt lat="44.56314" lon="0.7219">
        <ele>156.5</ele>
        <time>2014-7-5T9:24:21.000Z</time>
      </trkpt>
      <trkpt lat="44.56319" lon="0.72193">
        <ele>155.5</ele>
        <time>2014-7-5T9:24:21.000Z</time>
      </trkpt>
      <trkpt lat="44.56323" lon="0.72196">
        <ele>155.5</ele>
        <time>2014-7-5T9:24:21.000Z</time>
      </trkpt>
      <trkpt lat="44.56327" lon="0.722">
        <ele>156.5</ele>
        <time>2014-7-5T9:24:21.000Z</time>
      </trkpt>
      <trkpt lat="44.56332" lon="0.72203">
        <ele>156.5</ele>
        <time>2014-7-5T9:24:21.000Z</time>
      </trkpt>
      <trkpt lat="44.56336" lon="0.72205">
        <ele>156.5</ele>
        <time>2014-7-5T9:24:21.000Z</time>
      </trkpt>
      <trkpt lat="44.5634" lon="0.72208">
        <ele>156.5</ele>
        <time>2014-7-5T9:24:21.000Z</time>
      </trkpt>
      <trkpt lat="44.56344" lon="0.72211">
        <ele>156.5</ele>
        <time>2014-7-5T9:24:21.000Z</time>
      </trkpt>
      <trkpt lat="44.56348" lon="0.72213">
        <ele>156.5</ele>
        <time>2014-7-5T9:24:21.000Z</time>
      </trkpt>
      <trkpt lat="44.56352" lon="0.72216">
        <ele>156.5</ele>
        <time>2014-7-5T9:24:21.000Z</time>
      </trkpt>
      <trkpt lat="44.56355" lon="0.7222">
        <ele>156.5</ele>
        <time>2014-7-5T9:24:21.000Z</time>
      </trkpt>
      <trkpt lat="44.56358" lon="0.72224">
        <ele>156.5</ele>
        <time>2014-7-5T9:24:21.000Z</time>
      </trkpt>
      <trkpt lat="44.5636" lon="0.72229">
        <ele>157.5</ele>
        <time>2014-7-5T9:24:21.000Z</time>
      </trkpt>
      <trkpt lat="44.56363" lon="0.72232">
        <ele>157.5</ele>
        <time>2014-7-5T9:24:21.000Z</time>
      </trkpt>
      <trkpt lat="44.56366" lon="0.72236">
        <ele>157.5</ele>
        <time>2014-7-5T9:24:21.000Z</time>
      </trkpt>
      <trkpt lat="44.56368" lon="0.72239">
        <ele>158.5</ele>
        <time>2014-7-5T9:24:21.000Z</time>
      </trkpt>
      <trkpt lat="44.56371" lon="0.72243">
        <ele>157.5</ele>
        <time>2014-7-5T9:24:21.000Z</time>
      </trkpt>
      <trkpt lat="44.56374" lon="0.72246">
        <ele>158.5</ele>
        <time>2014-7-5T9:24:21.000Z</time>
      </trkpt>
      <trkpt lat="44.56376" lon="0.72249">
        <ele>158.5</ele>
        <time>2014-7-5T9:24:21.000Z</time>
      </trkpt>
      <trkpt lat="44.56379" lon="0.72252">
        <ele>158.5</ele>
        <time>2014-7-5T9:24:21.000Z</time>
      </trkpt>
      <trkpt lat="44.56382" lon="0.72255">
        <ele>157.5</ele>
        <time>2014-7-5T9:24:21.000Z</time>
      </trkpt>
      <trkpt lat="44.56385" lon="0.72257">
        <ele>157.5</ele>
        <time>2014-7-5T9:24:21.000Z</time>
      </trkpt>
      <trkpt lat="44.56387" lon="0.7226">
        <ele>157.5</ele>
        <time>2014-7-5T9:24:21.000Z</time>
      </trkpt>
      <trkpt lat="44.5639" lon="0.72262">
        <ele>157.5</ele>
        <time>2014-7-5T9:24:21.000Z</time>
      </trkpt>
      <trkpt lat="44.56393" lon="0.72263">
        <ele>157.5</ele>
        <time>2014-7-5T9:24:21.000Z</time>
      </trkpt>
      <trkpt lat="44.56396" lon="0.72265">
        <ele>157.5</ele>
        <time>2014-7-5T9:24:21.000Z</time>
      </trkpt>
      <trkpt lat="44.56399" lon="0.72266">
        <ele>157.5</ele>
        <time>2014-7-5T9:24:21.000Z</time>
      </trkpt>
      <trkpt lat="44.56402" lon="0.72268">
        <ele>157.5</ele>
        <time>2014-7-5T9:24:21.000Z</time>
      </trkpt>
      <trkpt lat="44.56405" lon="0.7227">
        <ele>157.5</ele>
        <time>2014-7-5T9:24:21.000Z</time>
      </trkpt>
      <trkpt lat="44.56408" lon="0.72271">
        <ele>157.5</ele>
        <time>2014-7-5T9:24:21.000Z</time>
      </trkpt>
      <trkpt lat="44.56411" lon="0.72273">
        <ele>157.5</ele>
        <time>2014-7-5T9:24:21.000Z</time>
      </trkpt>
      <trkpt lat="44.56413" lon="0.72273">
        <ele>157.5</ele>
        <time>2014-7-5T9:24:21.000Z</time>
      </trkpt>
      <trkpt lat="44.56415" lon="0.72274">
        <ele>157.5</ele>
        <time>2014-7-5T9:24:21.000Z</time>
      </trkpt>
      <trkpt lat="44.56417" lon="0.72277">
        <ele>157.5</ele>
        <time>2014-7-5T9:24:21.000Z</time>
      </trkpt>
      <trkpt lat="44.56416" lon="0.7228">
        <ele>157.5</ele>
        <time>2014-7-5T9:24:21.000Z</time>
      </trkpt>
      <trkpt lat="44.56415" lon="0.72282">
        <ele>157.5</ele>
        <time>2014-7-5T9:24:21.000Z</time>
      </trkpt>
      <trkpt lat="44.56413" lon="0.72282">
        <ele>157.5</ele>
        <time>2014-7-5T9:24:21.000Z</time>
      </trkpt>
      <trkpt lat="44.5641" lon="0.7228">
        <ele>157.5</ele>
        <time>2014-7-5T9:24:21.000Z</time>
      </trkpt>
      <trkpt lat="44.56407" lon="0.72278">
        <ele>157.5</ele>
        <time>2014-7-5T9:24:21.000Z</time>
      </trkpt>
      <trkpt lat="44.56403" lon="0.72277">
        <ele>157.5</ele>
        <time>2014-7-5T9:24:21.000Z</time>
      </trkpt>
      <trkpt lat="44.56398" lon="0.72279">
        <ele>157.5</ele>
        <time>2014-7-5T9:24:21.000Z</time>
      </trkpt>
      <trkpt lat="44.56394" lon="0.72282">
        <ele>156.5</ele>
        <time>2014-7-5T9:24:21.000Z</time>
      </trkpt>
      <trkpt lat="44.5639" lon="0.72284">
        <ele>156.5</ele>
        <time>2014-7-5T9:24:21.000Z</time>
      </trkpt>
      <trkpt lat="44.56383" lon="0.72285">
        <ele>155.5</ele>
        <time>2014-7-5T9:24:21.000Z</time>
      </trkpt>
      <trkpt lat="44.56379" lon="0.72288">
        <ele>154.5</ele>
        <time>2014-7-5T9:24:21.000Z</time>
      </trkpt>
      <trkpt lat="44.56374" lon="0.72291">
        <ele>154.5</ele>
        <time>2014-7-5T9:24:21.000Z</time>
      </trkpt>
      <trkpt lat="44.56369" lon="0.72294">
        <ele>154.5</ele>
        <time>2014-7-5T9:24:21.000Z</time>
      </trkpt>
      <trkpt lat="44.56364" lon="0.72297">
        <ele>153.5</ele>
        <time>2014-7-5T9:24:21.000Z</time>
      </trkpt>
      <trkpt lat="44.56359" lon="0.723">
        <ele>153.5</ele>
        <time>2014-7-5T9:24:21.000Z</time>
      </trkpt>
      <trkpt lat="44.56353" lon="0.72303">
        <ele>153.5</ele>
        <time>2014-7-5T9:24:21.000Z</time>
      </trkpt>
      <trkpt lat="44.56347" lon="0.72306">
        <ele>152.5</ele>
        <time>2014-7-5T9:24:21.000Z</time>
      </trkpt>
      <trkpt lat="44.56341" lon="0.7231">
        <ele>151.5</ele>
        <time>2014-7-5T9:24:21.000Z</time>
      </trkpt>
      <trkpt lat="44.56335" lon="0.72313">
        <ele>150.5</ele>
        <time>2014-7-5T9:24:21.000Z</time>
      </trkpt>
      <trkpt lat="44.56328" lon="0.72317">
        <ele>149.5</ele>
        <time>2014-7-5T9:24:21.000Z</time>
      </trkpt>
      <trkpt lat="44.56322" lon="0.7232">
        <ele>148.5</ele>
        <time>2014-7-5T9:24:21.000Z</time>
      </trkpt>
      <trkpt lat="44.56316" lon="0.72323">
        <ele>147.5</ele>
        <time>2014-7-5T9:24:21.000Z</time>
      </trkpt>
      <trkpt lat="44.56311" lon="0.72326">
        <ele>146.5</ele>
        <time>2014-7-5T9:24:21.000Z</time>
      </trkpt>
      <trkpt lat="44.56307" lon="0.72328">
        <ele>146.5</ele>
        <time>2014-7-5T9:24:21.000Z</time>
      </trkpt>
      <trkpt lat="44.56304" lon="0.7233">
        <ele>145.5</ele>
        <time>2014-7-5T9:24:21.000Z</time>
      </trkpt>
      <trkpt lat="44.563" lon="0.72332">
        <ele>145.5</ele>
        <time>2014-7-5T9:24:21.000Z</time>
      </trkpt>
      <trkpt lat="44.56298" lon="0.72334">
        <ele>145.5</ele>
        <time>2014-7-5T9:24:21.000Z</time>
      </trkpt>
      <trkpt lat="44.56295" lon="0.72336">
        <ele>144.5</ele>
        <time>2014-7-5T9:24:21.000Z</time>
      </trkpt>
      <trkpt lat="44.56292" lon="0.72337">
        <ele>144.5</ele>
        <time>2014-7-5T9:24:21.000Z</time>
      </trkpt>
      <trkpt lat="44.5629" lon="0.72338">
        <ele>143.5</ele>
        <time>2014-7-5T9:24:21.000Z</time>
      </trkpt>
      <trkpt lat="44.56288" lon="0.7234">
        <ele>143.5</ele>
        <time>2014-7-5T9:24:21.000Z</time>
      </trkpt>
      <trkpt lat="44.56285" lon="0.72342">
        <ele>143.5</ele>
        <time>2014-7-5T9:24:21.000Z</time>
      </trkpt>
      <trkpt lat="44.56281" lon="0.72344">
        <ele>142.5</ele>
        <time>2014-7-5T9:24:21.000Z</time>
      </trkpt>
      <trkpt lat="44.56278" lon="0.72346">
        <ele>141.5</ele>
        <time>2014-7-5T9:24:21.000Z</time>
      </trkpt>
      <trkpt lat="44.56274" lon="0.72348">
        <ele>140.5</ele>
        <time>2014-7-5T9:24:21.000Z</time>
      </trkpt>
      <trkpt lat="44.5627" lon="0.7235">
        <ele>140.5</ele>
        <time>2014-7-5T9:24:21.000Z</time>
      </trkpt>
      <trkpt lat="44.56265" lon="0.72353">
        <ele>139.5</ele>
        <time>2014-7-5T9:24:21.000Z</time>
      </trkpt>
      <trkpt lat="44.5626" lon="0.72356">
        <ele>139.5</ele>
        <time>2014-7-5T9:24:21.000Z</time>
      </trkpt>
      <trkpt lat="44.56255" lon="0.72358">
        <ele>138.5</ele>
        <time>2014-7-5T9:24:21.000Z</time>
      </trkpt>
      <trkpt lat="44.56251" lon="0.72361">
        <ele>138.5</ele>
        <time>2014-7-5T9:24:21.000Z</time>
      </trkpt>
      <trkpt lat="44.56246" lon="0.72364">
        <ele>138.5</ele>
        <time>2014-7-5T9:26:3.000Z</time>
      </trkpt>
      <trkpt lat="44.56241" lon="0.72367">
        <ele>138.5</ele>
        <time>2014-7-5T9:26:3.000Z</time>
      </trkpt>
      <trkpt lat="44.56237" lon="0.72369">
        <ele>138.5</ele>
        <time>2014-7-5T9:26:3.000Z</time>
      </trkpt>
      <trkpt lat="44.56232" lon="0.72373">
        <ele>137.5</ele>
        <time>2014-7-5T9:26:3.000Z</time>
      </trkpt>
      <trkpt lat="44.56228" lon="0.72375">
        <ele>137.5</ele>
        <time>2014-7-5T9:26:3.000Z</time>
      </trkpt>
      <trkpt lat="44.56222" lon="0.72377">
        <ele>136.5</ele>
        <time>2014-7-5T9:26:3.000Z</time>
      </trkpt>
      <trkpt lat="44.56217" lon="0.72381">
        <ele>136.5</ele>
        <time>2014-7-5T9:26:3.000Z</time>
      </trkpt>
      <trkpt lat="44.56211" lon="0.72384">
        <ele>136.5</ele>
        <time>2014-7-5T9:26:3.000Z</time>
      </trkpt>
      <trkpt lat="44.56204" lon="0.72388">
        <ele>135.5</ele>
        <time>2014-7-5T9:26:3.000Z</time>
      </trkpt>
      <trkpt lat="44.56198" lon="0.72392">
        <ele>135.5</ele>
        <time>2014-7-5T9:26:3.000Z</time>
      </trkpt>
      <trkpt lat="44.56194" lon="0.72397">
        <ele>135.5</ele>
        <time>2014-7-5T9:26:3.000Z</time>
      </trkpt>
      <trkpt lat="44.56189" lon="0.72403">
        <ele>135.5</ele>
        <time>2014-7-5T9:26:3.000Z</time>
      </trkpt>
      <trkpt lat="44.56184" lon="0.72408">
        <ele>135.5</ele>
        <time>2014-7-5T9:26:3.000Z</time>
      </trkpt>
      <trkpt lat="44.56179" lon="0.72413">
        <ele>136.5</ele>
        <time>2014-7-5T9:26:3.000Z</time>
      </trkpt>
      <trkpt lat="44.56173" lon="0.72417">
        <ele>135.5</ele>
        <time>2014-7-5T9:26:3.000Z</time>
      </trkpt>
      <trkpt lat="44.56167" lon="0.7242">
        <ele>135.5</ele>
        <time>2014-7-5T9:26:3.000Z</time>
      </trkpt>
      <trkpt lat="44.56161" lon="0.72424">
        <ele>135.5</ele>
        <time>2014-7-5T9:26:3.000Z</time>
      </trkpt>
      <trkpt lat="44.56156" lon="0.72425">
        <ele>137.5</ele>
        <time>2014-7-5T9:26:3.000Z</time>
      </trkpt>
      <trkpt lat="44.56151" lon="0.72426">
        <ele>137.5</ele>
        <time>2014-7-5T9:26:3.000Z</time>
      </trkpt>
      <trkpt lat="44.56145" lon="0.7243">
        <ele>137.5</ele>
        <time>2014-7-5T9:26:3.000Z</time>
      </trkpt>
      <trkpt lat="44.56141" lon="0.72432">
        <ele>137.5</ele>
        <time>2014-7-5T9:26:3.000Z</time>
      </trkpt>
      <trkpt lat="44.56136" lon="0.72434">
        <ele>136.5</ele>
        <time>2014-7-5T9:26:3.000Z</time>
      </trkpt>
      <trkpt lat="44.56133" lon="0.72437">
        <ele>136.5</ele>
        <time>2014-7-5T9:26:3.000Z</time>
      </trkpt>
      <trkpt lat="44.56127" lon="0.72439">
        <ele>137.5</ele>
        <time>2014-7-5T9:26:3.000Z</time>
      </trkpt>
      <trkpt lat="44.56123" lon="0.72441">
        <ele>136.5</ele>
        <time>2014-7-5T9:26:3.000Z</time>
      </trkpt>
      <trkpt lat="44.5612" lon="0.72444">
        <ele>136.5</ele>
        <time>2014-7-5T9:26:3.000Z</time>
      </trkpt>
      <trkpt lat="44.56115" lon="0.72447">
        <ele>137.5</ele>
        <time>2014-7-5T9:26:3.000Z</time>
      </trkpt>
      <trkpt lat="44.56109" lon="0.72451">
        <ele>136.5</ele>
        <time>2014-7-5T9:26:3.000Z</time>
      </trkpt>
      <trkpt lat="44.56104" lon="0.72455">
        <ele>135.5</ele>
        <time>2014-7-5T9:26:3.000Z</time>
      </trkpt>
      <trkpt lat="44.561" lon="0.72457">
        <ele>134.5</ele>
        <time>2014-7-5T9:26:3.000Z</time>
      </trkpt>
      <trkpt lat="44.56096" lon="0.72461">
        <ele>134.5</ele>
        <time>2014-7-5T9:26:3.000Z</time>
      </trkpt>
      <trkpt lat="44.56091" lon="0.72465">
        <ele>133.5</ele>
        <time>2014-7-5T9:26:3.000Z</time>
      </trkpt>
      <trkpt lat="44.56085" lon="0.72468">
        <ele>132.5</ele>
        <time>2014-7-5T9:26:3.000Z</time>
      </trkpt>
      <trkpt lat="44.5608" lon="0.72471">
        <ele>132.5</ele>
        <time>2014-7-5T9:26:3.000Z</time>
      </trkpt>
      <trkpt lat="44.56074" lon="0.72475">
        <ele>131.5</ele>
        <time>2014-7-5T9:26:3.000Z</time>
      </trkpt>
      <trkpt lat="44.56068" lon="0.72479">
        <ele>131.5</ele>
        <time>2014-7-5T9:26:3.000Z</time>
      </trkpt>
      <trkpt lat="44.56062" lon="0.72482">
        <ele>131.5</ele>
        <time>2014-7-5T9:26:3.000Z</time>
      </trkpt>
      <trkpt lat="44.56057" lon="0.72487">
        <ele>130.5</ele>
        <time>2014-7-5T9:26:3.000Z</time>
      </trkpt>
      <trkpt lat="44.56051" lon="0.72491">
        <ele>129.5</ele>
        <time>2014-7-5T9:26:3.000Z</time>
      </trkpt>
      <trkpt lat="44.56046" lon="0.72496">
        <ele>129.5</ele>
        <time>2014-7-5T9:26:3.000Z</time>
      </trkpt>
      <trkpt lat="44.56041" lon="0.72501">
        <ele>130.5</ele>
        <time>2014-7-5T9:26:3.000Z</time>
      </trkpt>
      <trkpt lat="44.56036" lon="0.72504">
        <ele>129.5</ele>
        <time>2014-7-5T9:26:3.000Z</time>
      </trkpt>
      <trkpt lat="44.56024" lon="0.72514">
        <ele>127.5</ele>
        <time>2014-7-5T9:26:3.000Z</time>
      </trkpt>
      <trkpt lat="44.56019" lon="0.72518">
        <ele>127.5</ele>
        <time>2014-7-5T9:26:3.000Z</time>
      </trkpt>
      <trkpt lat="44.56014" lon="0.72523">
        <ele>127.5</ele>
        <time>2014-7-5T9:26:3.000Z</time>
      </trkpt>
      <trkpt lat="44.56009" lon="0.72528">
        <ele>127.5</ele>
        <time>2014-7-5T9:26:3.000Z</time>
      </trkpt>
      <trkpt lat="44.56003" lon="0.72531">
        <ele>127.5</ele>
        <time>2014-7-5T9:26:3.000Z</time>
      </trkpt>
      <trkpt lat="44.55998" lon="0.72536">
        <ele>127.5</ele>
        <time>2014-7-5T9:26:3.000Z</time>
      </trkpt>
      <trkpt lat="44.55992" lon="0.72539">
        <ele>127.5</ele>
        <time>2014-7-5T9:26:3.000Z</time>
      </trkpt>
      <trkpt lat="44.55986" lon="0.72543">
        <ele>127.5</ele>
        <time>2014-7-5T9:26:3.000Z</time>
      </trkpt>
      <trkpt lat="44.5598" lon="0.72547">
        <ele>127.5</ele>
        <time>2014-7-5T9:26:3.000Z</time>
      </trkpt>
      <trkpt lat="44.55974" lon="0.72548">
        <ele>128.5</ele>
        <time>2014-7-5T9:26:3.000Z</time>
      </trkpt>
      <trkpt lat="44.55969" lon="0.72551">
        <ele>127.5</ele>
        <time>2014-7-5T9:26:3.000Z</time>
      </trkpt>
      <trkpt lat="44.55963" lon="0.72556">
        <ele>128.5</ele>
        <time>2014-7-5T9:26:3.000Z</time>
      </trkpt>
      <trkpt lat="44.55958" lon="0.72558">
        <ele>128.5</ele>
        <time>2014-7-5T9:26:3.000Z</time>
      </trkpt>
      <trkpt lat="44.55952" lon="0.72561">
        <ele>128.5</ele>
        <time>2014-7-5T9:26:3.000Z</time>
      </trkpt>
      <trkpt lat="44.55947" lon="0.72563">
        <ele>128.5</ele>
        <time>2014-7-5T9:26:3.000Z</time>
      </trkpt>
      <trkpt lat="44.55942" lon="0.72566">
        <ele>128.5</ele>
        <time>2014-7-5T9:26:3.000Z</time>
      </trkpt>
      <trkpt lat="44.55937" lon="0.72569">
        <ele>128.5</ele>
        <time>2014-7-5T9:26:3.000Z</time>
      </trkpt>
      <trkpt lat="44.55933" lon="0.72571">
        <ele>129.5</ele>
        <time>2014-7-5T9:26:3.000Z</time>
      </trkpt>
      <trkpt lat="44.55928" lon="0.72572">
        <ele>129.5</ele>
        <time>2014-7-5T9:26:3.000Z</time>
      </trkpt>
      <trkpt lat="44.55923" lon="0.72576">
        <ele>129.5</ele>
        <time>2014-7-5T9:26:3.000Z</time>
      </trkpt>
      <trkpt lat="44.55918" lon="0.72579">
        <ele>129.5</ele>
        <time>2014-7-5T9:26:3.000Z</time>
      </trkpt>
      <trkpt lat="44.55913" lon="0.72583">
        <ele>129.5</ele>
        <time>2014-7-5T9:26:3.000Z</time>
      </trkpt>
      <trkpt lat="44.55909" lon="0.72586">
        <ele>129.5</ele>
        <time>2014-7-5T9:26:3.000Z</time>
      </trkpt>
      <trkpt lat="44.55904" lon="0.72589">
        <ele>128.5</ele>
        <time>2014-7-5T9:26:3.000Z</time>
      </trkpt>
      <trkpt lat="44.559" lon="0.72593">
        <ele>129.5</ele>
        <time>2014-7-5T9:26:3.000Z</time>
      </trkpt>
      <trkpt lat="44.55897" lon="0.72595">
        <ele>129.5</ele>
        <time>2014-7-5T9:26:3.000Z</time>
      </trkpt>
      <trkpt lat="44.55893" lon="0.72598">
        <ele>128.5</ele>
        <time>2014-7-5T9:26:3.000Z</time>
      </trkpt>
      <trkpt lat="44.55889" lon="0.72601">
        <ele>128.5</ele>
        <time>2014-7-5T9:26:3.000Z</time>
      </trkpt>
      <trkpt lat="44.55886" lon="0.72604">
        <ele>128.5</ele>
        <time>2014-7-5T9:26:3.000Z</time>
      </trkpt>
      <trkpt lat="44.55882" lon="0.72607">
        <ele>128.5</ele>
        <time>2014-7-5T9:26:3.000Z</time>
      </trkpt>
      <trkpt lat="44.55878" lon="0.7261">
        <ele>128.5</ele>
        <time>2014-7-5T9:26:3.000Z</time>
      </trkpt>
      <trkpt lat="44.55874" lon="0.72614">
        <ele>128.5</ele>
        <time>2014-7-5T9:26:3.000Z</time>
      </trkpt>
      <trkpt lat="44.5587" lon="0.72617">
        <ele>129.5</ele>
        <time>2014-7-5T9:26:3.000Z</time>
      </trkpt>
      <trkpt lat="44.55867" lon="0.72621">
        <ele>129.5</ele>
        <time>2014-7-5T9:26:3.000Z</time>
      </trkpt>
      <trkpt lat="44.55863" lon="0.72624">
        <ele>129.5</ele>
        <time>2014-7-5T9:26:3.000Z</time>
      </trkpt>
      <trkpt lat="44.5586" lon="0.72627">
        <ele>129.5</ele>
        <time>2014-7-5T9:26:3.000Z</time>
      </trkpt>
      <trkpt lat="44.55858" lon="0.7263">
        <ele>130.5</ele>
        <time>2014-7-5T9:26:3.000Z</time>
      </trkpt>
      <trkpt lat="44.55855" lon="0.72634">
        <ele>130.5</ele>
        <time>2014-7-5T9:26:3.000Z</time>
      </trkpt>
      <trkpt lat="44.55852" lon="0.72637">
        <ele>130.5</ele>
        <time>2014-7-5T9:26:3.000Z</time>
      </trkpt>
      <trkpt lat="44.5585" lon="0.7264">
        <ele>131.5</ele>
        <time>2014-7-5T9:26:3.000Z</time>
      </trkpt>
      <trkpt lat="44.55847" lon="0.72643">
        <ele>131.5</ele>
        <time>2014-7-5T9:26:3.000Z</time>
      </trkpt>
      <trkpt lat="44.55845" lon="0.72646">
        <ele>131.5</ele>
        <time>2014-7-5T9:26:3.000Z</time>
      </trkpt>
      <trkpt lat="44.55844" lon="0.7265">
        <ele>132.5</ele>
        <time>2014-7-5T9:26:3.000Z</time>
      </trkpt>
      <trkpt lat="44.55841" lon="0.72653">
        <ele>131.5</ele>
        <time>2014-7-5T9:26:3.000Z</time>
      </trkpt>
      <trkpt lat="44.55838" lon="0.72656">
        <ele>130.5</ele>
        <time>2014-7-5T9:26:3.000Z</time>
      </trkpt>
      <trkpt lat="44.55835" lon="0.7266">
        <ele>130.5</ele>
        <time>2014-7-5T9:26:3.000Z</time>
      </trkpt>
      <trkpt lat="44.55832" lon="0.72664">
        <ele>129.5</ele>
        <time>2014-7-5T9:26:3.000Z</time>
      </trkpt>
      <trkpt lat="44.55829" lon="0.72668">
        <ele>130.5</ele>
        <time>2014-7-5T9:26:3.000Z</time>
      </trkpt>
      <trkpt lat="44.55825" lon="0.72674">
        <ele>130.5</ele>
        <time>2014-7-5T9:26:3.000Z</time>
      </trkpt>
      <trkpt lat="44.55821" lon="0.72681">
        <ele>129.5</ele>
        <time>2014-7-5T9:26:3.000Z</time>
      </trkpt>
      <trkpt lat="44.55817" lon="0.72688">
        <ele>129.5</ele>
        <time>2014-7-5T9:26:3.000Z</time>
      </trkpt>
      <trkpt lat="44.55814" lon="0.72692">
        <ele>129.5</ele>
        <time>2014-7-5T9:26:3.000Z</time>
      </trkpt>
      <trkpt lat="44.5581" lon="0.72697">
        <ele>130.5</ele>
        <time>2014-7-5T9:26:3.000Z</time>
      </trkpt>
      <trkpt lat="44.55808" lon="0.72704">
        <ele>130.5</ele>
        <time>2014-7-5T9:26:3.000Z</time>
      </trkpt>
      <trkpt lat="44.55804" lon="0.72711">
        <ele>129.5</ele>
        <time>2014-7-5T9:26:3.000Z</time>
      </trkpt>
      <trkpt lat="44.55802" lon="0.72717">
        <ele>129.5</ele>
        <time>2014-7-5T9:26:3.000Z</time>
      </trkpt>
      <trkpt lat="44.55799" lon="0.72723">
        <ele>130.5</ele>
        <time>2014-7-5T9:26:3.000Z</time>
      </trkpt>
      <trkpt lat="44.55797" lon="0.7273">
        <ele>129.5</ele>
        <time>2014-7-5T9:26:3.000Z</time>
      </trkpt>
      <trkpt lat="44.55794" lon="0.72735">
        <ele>129.5</ele>
        <time>2014-7-5T9:26:3.000Z</time>
      </trkpt>
      <trkpt lat="44.55791" lon="0.72741">
        <ele>129.5</ele>
        <time>2014-7-5T9:27:49.000Z</time>
      </trkpt>
      <trkpt lat="44.55788" lon="0.72748">
        <ele>128.5</ele>
        <time>2014-7-5T9:27:49.000Z</time>
      </trkpt>
      <trkpt lat="44.55787" lon="0.72757">
        <ele>127.5</ele>
        <time>2014-7-5T9:27:49.000Z</time>
      </trkpt>
      <trkpt lat="44.55785" lon="0.72764">
        <ele>127.5</ele>
        <time>2014-7-5T9:27:49.000Z</time>
      </trkpt>
      <trkpt lat="44.55783" lon="0.72768">
        <ele>125.5</ele>
        <time>2014-7-5T9:27:49.000Z</time>
      </trkpt>
      <trkpt lat="44.55782" lon="0.72772">
        <ele>124.5</ele>
        <time>2014-7-5T9:27:49.000Z</time>
      </trkpt>
      <trkpt lat="44.55779" lon="0.72775">
        <ele>124.5</ele>
        <time>2014-7-5T9:27:49.000Z</time>
      </trkpt>
      <trkpt lat="44.55778" lon="0.72778">
        <ele>124.5</ele>
        <time>2014-7-5T9:27:49.000Z</time>
      </trkpt>
      <trkpt lat="44.55778" lon="0.72781">
        <ele>123.5</ele>
        <time>2014-7-5T9:27:49.000Z</time>
      </trkpt>
      <trkpt lat="44.55776" lon="0.72784">
        <ele>123.5</ele>
        <time>2014-7-5T9:27:49.000Z</time>
      </trkpt>
      <trkpt lat="44.55775" lon="0.72786">
        <ele>123.5</ele>
        <time>2014-7-5T9:27:49.000Z</time>
      </trkpt>
      <trkpt lat="44.55773" lon="0.7279">
        <ele>122.5</ele>
        <time>2014-7-5T9:27:49.000Z</time>
      </trkpt>
      <trkpt lat="44.55771" lon="0.72793">
        <ele>122.5</ele>
        <time>2014-7-5T9:27:49.000Z</time>
      </trkpt>
      <trkpt lat="44.5577" lon="0.72795">
        <ele>122.5</ele>
        <time>2014-7-5T9:27:49.000Z</time>
      </trkpt>
      <trkpt lat="44.55767" lon="0.72799">
        <ele>123.5</ele>
        <time>2014-7-5T9:27:49.000Z</time>
      </trkpt>
      <trkpt lat="44.55766" lon="0.72801">
        <ele>123.5</ele>
        <time>2014-7-5T9:27:49.000Z</time>
      </trkpt>
      <trkpt lat="44.55765" lon="0.72803">
        <ele>123.5</ele>
        <time>2014-7-5T9:27:49.000Z</time>
      </trkpt>
      <trkpt lat="44.55763" lon="0.72806">
        <ele>124.5</ele>
        <time>2014-7-5T9:27:49.000Z</time>
      </trkpt>
      <trkpt lat="44.55762" lon="0.72808">
        <ele>124.5</ele>
        <time>2014-7-5T9:27:49.000Z</time>
      </trkpt>
      <trkpt lat="44.5576" lon="0.72811">
        <ele>125.5</ele>
        <time>2014-7-5T9:27:49.000Z</time>
      </trkpt>
      <trkpt lat="44.55758" lon="0.72813">
        <ele>125.5</ele>
        <time>2014-7-5T9:27:49.000Z</time>
      </trkpt>
      <trkpt lat="44.55757" lon="0.72816">
        <ele>125.5</ele>
        <time>2014-7-5T9:27:49.000Z</time>
      </trkpt>
      <trkpt lat="44.55755" lon="0.72818">
        <ele>125.5</ele>
        <time>2014-7-5T9:27:49.000Z</time>
      </trkpt>
      <trkpt lat="44.55754" lon="0.72821">
        <ele>126.5</ele>
        <time>2014-7-5T9:27:49.000Z</time>
      </trkpt>
      <trkpt lat="44.55752" lon="0.72824">
        <ele>125.5</ele>
        <time>2014-7-5T9:27:49.000Z</time>
      </trkpt>
      <trkpt lat="44.55751" lon="0.72826">
        <ele>125.5</ele>
        <time>2014-7-5T9:27:49.000Z</time>
      </trkpt>
      <trkpt lat="44.5575" lon="0.72829">
        <ele>126.5</ele>
        <time>2014-7-5T9:27:49.000Z</time>
      </trkpt>
      <trkpt lat="44.55748" lon="0.72832">
        <ele>126.5</ele>
        <time>2014-7-5T9:27:49.000Z</time>
      </trkpt>
      <trkpt lat="44.55747" lon="0.72834">
        <ele>125.5</ele>
        <time>2014-7-5T9:27:49.000Z</time>
      </trkpt>
      <trkpt lat="44.55745" lon="0.72836">
        <ele>125.5</ele>
        <time>2014-7-5T9:27:49.000Z</time>
      </trkpt>
      <trkpt lat="44.55744" lon="0.72838">
        <ele>125.5</ele>
        <time>2014-7-5T9:27:49.000Z</time>
      </trkpt>
      <trkpt lat="44.55742" lon="0.72841">
        <ele>125.5</ele>
        <time>2014-7-5T9:27:49.000Z</time>
      </trkpt>
      <trkpt lat="44.55741" lon="0.72843">
        <ele>125.5</ele>
        <time>2014-7-5T9:27:49.000Z</time>
      </trkpt>
      <trkpt lat="44.55739" lon="0.72845">
        <ele>124.5</ele>
        <time>2014-7-5T9:27:49.000Z</time>
      </trkpt>
      <trkpt lat="44.55738" lon="0.72846">
        <ele>124.5</ele>
        <time>2014-7-5T9:27:49.000Z</time>
      </trkpt>
      <trkpt lat="44.55736" lon="0.72847">
        <ele>125.5</ele>
        <time>2014-7-5T9:27:49.000Z</time>
      </trkpt>
      <trkpt lat="44.55734" lon="0.72846">
        <ele>124.5</ele>
        <time>2014-7-5T9:27:49.000Z</time>
      </trkpt>
      <trkpt lat="44.55733" lon="0.72843">
        <ele>123.5</ele>
        <time>2014-7-5T9:27:49.000Z</time>
      </trkpt>
      <trkpt lat="44.55734" lon="0.7284">
        <ele>123.5</ele>
        <time>2014-7-5T9:27:49.000Z</time>
      </trkpt>
      <trkpt lat="44.55736" lon="0.72838">
        <ele>123.5</ele>
        <time>2014-7-5T9:27:49.000Z</time>
      </trkpt>
      <trkpt lat="44.55739" lon="0.72838">
        <ele>123.5</ele>
        <time>2014-7-5T9:27:49.000Z</time>
      </trkpt>
      <trkpt lat="44.55742" lon="0.72837">
        <ele>123.5</ele>
        <time>2014-7-5T9:27:49.000Z</time>
      </trkpt>
      <trkpt lat="44.55746" lon="0.72834">
        <ele>122.5</ele>
        <time>2014-7-5T9:27:49.000Z</time>
      </trkpt>
      <trkpt lat="44.55749" lon="0.7283">
        <ele>123.5</ele>
        <time>2014-7-5T9:27:49.000Z</time>
      </trkpt>
      <trkpt lat="44.55752" lon="0.72825">
        <ele>123.5</ele>
        <time>2014-7-5T9:27:49.000Z</time>
      </trkpt>
      <trkpt lat="44.55754" lon="0.7282">
        <ele>123.5</ele>
        <time>2014-7-5T9:27:49.000Z</time>
      </trkpt>
      <trkpt lat="44.55757" lon="0.72815">
        <ele>123.5</ele>
        <time>2014-7-5T9:27:49.000Z</time>
      </trkpt>
      <trkpt lat="44.55759" lon="0.7281">
        <ele>124.5</ele>
        <time>2014-7-5T9:27:49.000Z</time>
      </trkpt>
      <trkpt lat="44.55762" lon="0.72806">
        <ele>124.5</ele>
        <time>2014-7-5T9:27:49.000Z</time>
      </trkpt>
      <trkpt lat="44.55764" lon="0.72801">
        <ele>124.5</ele>
        <time>2014-7-5T9:27:49.000Z</time>
      </trkpt>
      <trkpt lat="44.55767" lon="0.72796">
        <ele>124.5</ele>
        <time>2014-7-5T9:27:49.000Z</time>
      </trkpt>
      <trkpt lat="44.55769" lon="0.72792">
        <ele>124.5</ele>
        <time>2014-7-5T9:27:49.000Z</time>
      </trkpt>
      <trkpt lat="44.55772" lon="0.72787">
        <ele>124.5</ele>
        <time>2014-7-5T9:27:49.000Z</time>
      </trkpt>
      <trkpt lat="44.55774" lon="0.72783">
        <ele>124.5</ele>
        <time>2014-7-5T9:27:49.000Z</time>
      </trkpt>
      <trkpt lat="44.55778" lon="0.7278">
        <ele>125.5</ele>
        <time>2014-7-5T9:27:49.000Z</time>
      </trkpt>
      <trkpt lat="44.55782" lon="0.72777">
        <ele>125.5</ele>
        <time>2014-7-5T9:27:49.000Z</time>
      </trkpt>
      <trkpt lat="44.55786" lon="0.72777">
        <ele>124.5</ele>
        <time>2014-7-5T9:27:49.000Z</time>
      </trkpt>
      <trkpt lat="44.5579" lon="0.72788">
        <ele>123.5</ele>
        <time>2014-7-5T9:27:49.000Z</time>
      </trkpt>
      <trkpt lat="44.55794" lon="0.72796">
        <ele>123.5</ele>
        <time>2014-7-5T9:27:49.000Z</time>
      </trkpt>
      <trkpt lat="44.55797" lon="0.72802">
        <ele>122.5</ele>
        <time>2014-7-5T9:27:49.000Z</time>
      </trkpt>
      <trkpt lat="44.55801" lon="0.7281">
        <ele>122.5</ele>
        <time>2014-7-5T9:27:49.000Z</time>
      </trkpt>
      <trkpt lat="44.55804" lon="0.72817">
        <ele>121.5</ele>
        <time>2014-7-5T9:27:49.000Z</time>
      </trkpt>
      <trkpt lat="44.55808" lon="0.72826">
        <ele>121.5</ele>
        <time>2014-7-5T9:27:49.000Z</time>
      </trkpt>
      <trkpt lat="44.55812" lon="0.72835">
        <ele>120.5</ele>
        <time>2014-7-5T9:27:49.000Z</time>
      </trkpt>
      <trkpt lat="44.55817" lon="0.72843">
        <ele>119.5</ele>
        <time>2014-7-5T9:27:49.000Z</time>
      </trkpt>
      <trkpt lat="44.55821" lon="0.72853">
        <ele>119.5</ele>
        <time>2014-7-5T9:27:49.000Z</time>
      </trkpt>
      <trkpt lat="44.55827" lon="0.72863">
        <ele>118.5</ele>
        <time>2014-7-5T9:27:49.000Z</time>
      </trkpt>
      <trkpt lat="44.55831" lon="0.72872">
        <ele>118.5</ele>
        <time>2014-7-5T9:27:49.000Z</time>
      </trkpt>
      <trkpt lat="44.55836" lon="0.72882">
        <ele>118.5</ele>
        <time>2014-7-5T9:27:49.000Z</time>
      </trkpt>
      <trkpt lat="44.55841" lon="0.72891">
        <ele>118.5</ele>
        <time>2014-7-5T9:27:49.000Z</time>
      </trkpt>
      <trkpt lat="44.55845" lon="0.729">
        <ele>118.5</ele>
        <time>2014-7-5T9:27:49.000Z</time>
      </trkpt>
      <trkpt lat="44.55849" lon="0.72908">
        <ele>119.5</ele>
        <time>2014-7-5T9:27:49.000Z</time>
      </trkpt>
      <trkpt lat="44.55853" lon="0.72916">
        <ele>119.5</ele>
        <time>2014-7-5T9:27:49.000Z</time>
      </trkpt>
      <trkpt lat="44.55857" lon="0.72924">
        <ele>119.5</ele>
        <time>2014-7-5T9:27:49.000Z</time>
      </trkpt>
      <trkpt lat="44.55862" lon="0.72934">
        <ele>119.5</ele>
        <time>2014-7-5T9:27:49.000Z</time>
      </trkpt>
      <trkpt lat="44.55866" lon="0.72942">
        <ele>119.5</ele>
        <time>2014-7-5T9:27:49.000Z</time>
      </trkpt>
      <trkpt lat="44.55869" lon="0.72951">
        <ele>119.5</ele>
        <time>2014-7-5T9:27:49.000Z</time>
      </trkpt>
      <trkpt lat="44.55873" lon="0.72958">
        <ele>119.5</ele>
        <time>2014-7-5T9:27:49.000Z</time>
      </trkpt>
      <trkpt lat="44.55877" lon="0.72966">
        <ele>119.5</ele>
        <time>2014-7-5T9:27:49.000Z</time>
      </trkpt>
      <trkpt lat="44.55882" lon="0.72974">
        <ele>120.5</ele>
        <time>2014-7-5T9:27:49.000Z</time>
      </trkpt>
      <trkpt lat="44.55886" lon="0.7298">
        <ele>120.5</ele>
        <time>2014-7-5T9:27:49.000Z</time>
      </trkpt>
      <trkpt lat="44.55891" lon="0.72986">
        <ele>120.5</ele>
        <time>2014-7-5T9:27:49.000Z</time>
      </trkpt>
      <trkpt lat="44.55895" lon="0.72992">
        <ele>120.5</ele>
        <time>2014-7-5T9:27:49.000Z</time>
      </trkpt>
      <trkpt lat="44.559" lon="0.72997">
        <ele>121.5</ele>
        <time>2014-7-5T9:27:49.000Z</time>
      </trkpt>
      <trkpt lat="44.55906" lon="0.73002">
        <ele>121.5</ele>
        <time>2014-7-5T9:27:49.000Z</time>
      </trkpt>
      <trkpt lat="44.55911" lon="0.73006">
        <ele>121.5</ele>
        <time>2014-7-5T9:27:49.000Z</time>
      </trkpt>
      <trkpt lat="44.55916" lon="0.7301">
        <ele>122.5</ele>
        <time>2014-7-5T9:27:49.000Z</time>
      </trkpt>
      <trkpt lat="44.5592" lon="0.73015">
        <ele>122.5</ele>
        <time>2014-7-5T9:27:49.000Z</time>
      </trkpt>
      <trkpt lat="44.55924" lon="0.73019">
        <ele>122.5</ele>
        <time>2014-7-5T9:27:49.000Z</time>
      </trkpt>
      <trkpt lat="44.55928" lon="0.73022">
        <ele>123.5</ele>
        <time>2014-7-5T9:27:49.000Z</time>
      </trkpt>
      <trkpt lat="44.55931" lon="0.73026">
        <ele>123.5</ele>
        <time>2014-7-5T9:27:49.000Z</time>
      </trkpt>
      <trkpt lat="44.55934" lon="0.73028">
        <ele>124.5</ele>
        <time>2014-7-5T9:27:49.000Z</time>
      </trkpt>
      <trkpt lat="44.55937" lon="0.73031">
        <ele>124.5</ele>
        <time>2014-7-5T9:27:49.000Z</time>
      </trkpt>
      <trkpt lat="44.5594" lon="0.73033">
        <ele>124.5</ele>
        <time>2014-7-5T9:27:49.000Z</time>
      </trkpt>
      <trkpt lat="44.55943" lon="0.73036">
        <ele>124.5</ele>
        <time>2014-7-5T9:27:49.000Z</time>
      </trkpt>
      <trkpt lat="44.55945" lon="0.73039">
        <ele>124.5</ele>
        <time>2014-7-5T9:27:49.000Z</time>
      </trkpt>
      <trkpt lat="44.55947" lon="0.7304">
        <ele>125.5</ele>
        <time>2014-7-5T9:27:49.000Z</time>
      </trkpt>
      <trkpt lat="44.55949" lon="0.73042">
        <ele>125.5</ele>
        <time>2014-7-5T9:27:49.000Z</time>
      </trkpt>
      <trkpt lat="44.55951" lon="0.73044">
        <ele>125.5</ele>
        <time>2014-7-5T9:27:49.000Z</time>
      </trkpt>
      <trkpt lat="44.55953" lon="0.73046">
        <ele>125.5</ele>
        <time>2014-7-5T9:27:49.000Z</time>
      </trkpt>
      <trkpt lat="44.55954" lon="0.73048">
        <ele>125.5</ele>
        <time>2014-7-5T9:27:49.000Z</time>
      </trkpt>
      <trkpt lat="44.55956" lon="0.7305">
        <ele>125.5</ele>
        <time>2014-7-5T9:29:34.000Z</time>
      </trkpt>
      <trkpt lat="44.55958" lon="0.73051">
        <ele>126.5</ele>
        <time>2014-7-5T9:29:34.000Z</time>
      </trkpt>
      <trkpt lat="44.5596" lon="0.73053">
        <ele>126.5</ele>
        <time>2014-7-5T9:29:34.000Z</time>
      </trkpt>
      <trkpt lat="44.55961" lon="0.73055">
        <ele>126.5</ele>
        <time>2014-7-5T9:29:34.000Z</time>
      </trkpt>
      <trkpt lat="44.55963" lon="0.73057">
        <ele>126.5</ele>
        <time>2014-7-5T9:29:34.000Z</time>
      </trkpt>
      <trkpt lat="44.55965" lon="0.73058">
        <ele>127.5</ele>
        <time>2014-7-5T9:29:34.000Z</time>
      </trkpt>
      <trkpt lat="44.55966" lon="0.7306">
        <ele>127.5</ele>
        <time>2014-7-5T9:29:34.000Z</time>
      </trkpt>
      <trkpt lat="44.55968" lon="0.73062">
        <ele>127.5</ele>
        <time>2014-7-5T9:29:34.000Z</time>
      </trkpt>
      <trkpt lat="44.55971" lon="0.73065">
        <ele>127.5</ele>
        <time>2014-7-5T9:29:34.000Z</time>
      </trkpt>
      <trkpt lat="44.55973" lon="0.73067">
        <ele>128.5</ele>
        <time>2014-7-5T9:29:34.000Z</time>
      </trkpt>
      <trkpt lat="44.55974" lon="0.73069">
        <ele>128.5</ele>
        <time>2014-7-5T9:29:34.000Z</time>
      </trkpt>
      <trkpt lat="44.55976" lon="0.7307">
        <ele>128.5</ele>
        <time>2014-7-5T9:29:34.000Z</time>
      </trkpt>
      <trkpt lat="44.55978" lon="0.73072">
        <ele>128.5</ele>
        <time>2014-7-5T9:29:34.000Z</time>
      </trkpt>
      <trkpt lat="44.5598" lon="0.73074">
        <ele>127.5</ele>
        <time>2014-7-5T9:29:34.000Z</time>
      </trkpt>
      <trkpt lat="44.55983" lon="0.73077">
        <ele>127.5</ele>
        <time>2014-7-5T9:29:34.000Z</time>
      </trkpt>
      <trkpt lat="44.55986" lon="0.7308">
        <ele>127.5</ele>
        <time>2014-7-5T9:29:34.000Z</time>
      </trkpt>
      <trkpt lat="44.55989" lon="0.73082">
        <ele>127.5</ele>
        <time>2014-7-5T9:29:34.000Z</time>
      </trkpt>
      <trkpt lat="44.55992" lon="0.73086">
        <ele>127.5</ele>
        <time>2014-7-5T9:29:34.000Z</time>
      </trkpt>
      <trkpt lat="44.55998" lon="0.73091">
        <ele>127.5</ele>
        <time>2014-7-5T9:29:34.000Z</time>
      </trkpt>
      <trkpt lat="44.56002" lon="0.73096">
        <ele>126.5</ele>
        <time>2014-7-5T9:29:34.000Z</time>
      </trkpt>
      <trkpt lat="44.56007" lon="0.73103">
        <ele>126.5</ele>
        <time>2014-7-5T9:29:34.000Z</time>
      </trkpt>
      <trkpt lat="44.56012" lon="0.73109">
        <ele>125.5</ele>
        <time>2014-7-5T9:29:34.000Z</time>
      </trkpt>
      <trkpt lat="44.56017" lon="0.73116">
        <ele>124.5</ele>
        <time>2014-7-5T9:29:34.000Z</time>
      </trkpt>
      <trkpt lat="44.56023" lon="0.73121">
        <ele>124.5</ele>
        <time>2014-7-5T9:29:34.000Z</time>
      </trkpt>
      <trkpt lat="44.56029" lon="0.73128">
        <ele>123.5</ele>
        <time>2014-7-5T9:29:34.000Z</time>
      </trkpt>
      <trkpt lat="44.56036" lon="0.73135">
        <ele>123.5</ele>
        <time>2014-7-5T9:29:34.000Z</time>
      </trkpt>
      <trkpt lat="44.56041" lon="0.73141">
        <ele>122.5</ele>
        <time>2014-7-5T9:29:34.000Z</time>
      </trkpt>
      <trkpt lat="44.56047" lon="0.73148">
        <ele>122.5</ele>
        <time>2014-7-5T9:29:34.000Z</time>
      </trkpt>
      <trkpt lat="44.56054" lon="0.73155">
        <ele>122.5</ele>
        <time>2014-7-5T9:29:34.000Z</time>
      </trkpt>
      <trkpt lat="44.56059" lon="0.73161">
        <ele>122.5</ele>
        <time>2014-7-5T9:29:34.000Z</time>
      </trkpt>
      <trkpt lat="44.56065" lon="0.73168">
        <ele>121.5</ele>
        <time>2014-7-5T9:29:34.000Z</time>
      </trkpt>
      <trkpt lat="44.5607" lon="0.73174">
        <ele>121.5</ele>
        <time>2014-7-5T9:29:34.000Z</time>
      </trkpt>
      <trkpt lat="44.56075" lon="0.7318">
        <ele>121.5</ele>
        <time>2014-7-5T9:29:34.000Z</time>
      </trkpt>
      <trkpt lat="44.56081" lon="0.73187">
        <ele>121.5</ele>
        <time>2014-7-5T9:29:34.000Z</time>
      </trkpt>
      <trkpt lat="44.56085" lon="0.73191">
        <ele>121.5</ele>
        <time>2014-7-5T9:29:34.000Z</time>
      </trkpt>
      <trkpt lat="44.56088" lon="0.73194">
        <ele>121.5</ele>
        <time>2014-7-5T9:29:34.000Z</time>
      </trkpt>
      <trkpt lat="44.56091" lon="0.73198">
        <ele>121.5</ele>
        <time>2014-7-5T9:29:34.000Z</time>
      </trkpt>
      <trkpt lat="44.56093" lon="0.732">
        <ele>121.5</ele>
        <time>2014-7-5T9:29:34.000Z</time>
      </trkpt>
      <trkpt lat="44.56094" lon="0.73203">
        <ele>120.5</ele>
        <time>2014-7-5T9:29:34.000Z</time>
      </trkpt>
      <trkpt lat="44.56095" lon="0.73205">
        <ele>120.5</ele>
        <time>2014-7-5T9:29:34.000Z</time>
      </trkpt>
      <trkpt lat="44.56097" lon="0.7321">
        <ele>119.5</ele>
        <time>2014-7-5T9:29:34.000Z</time>
      </trkpt>
      <trkpt lat="44.56098" lon="0.73212">
        <ele>119.5</ele>
        <time>2014-7-5T9:29:34.000Z</time>
      </trkpt>
      <trkpt lat="44.56101" lon="0.73214">
        <ele>119.5</ele>
        <time>2014-7-5T9:29:34.000Z</time>
      </trkpt>
      <trkpt lat="44.56104" lon="0.73213">
        <ele>119.5</ele>
        <time>2014-7-5T9:29:34.000Z</time>
      </trkpt>
      <trkpt lat="44.56106" lon="0.73211">
        <ele>119.5</ele>
        <time>2014-7-5T9:29:34.000Z</time>
      </trkpt>
      <trkpt lat="44.56105" lon="0.73209">
        <ele>119.5</ele>
        <time>2014-7-5T9:29:34.000Z</time>
      </trkpt>
      <trkpt lat="44.56103" lon="0.73206">
        <ele>119.5</ele>
        <time>2014-7-5T9:29:34.000Z</time>
      </trkpt>
      <trkpt lat="44.561" lon="0.73208">
        <ele>119.5</ele>
        <time>2014-7-5T9:29:34.000Z</time>
      </trkpt>
      <trkpt lat="44.56101" lon="0.73211">
        <ele>119.5</ele>
        <time>2014-7-5T9:29:34.000Z</time>
      </trkpt>
      <trkpt lat="44.56103" lon="0.73213">
        <ele>120.5</ele>
        <time>2014-7-5T9:29:34.000Z</time>
      </trkpt>
      <trkpt lat="44.56105" lon="0.73213">
        <ele>119.5</ele>
        <time>2014-7-5T9:29:34.000Z</time>
      </trkpt>
      <trkpt lat="44.56109" lon="0.73213">
        <ele>119.5</ele>
        <time>2014-7-5T9:29:34.000Z</time>
      </trkpt>
      <trkpt lat="44.56112" lon="0.73213">
        <ele>120.5</ele>
        <time>2014-7-5T9:29:34.000Z</time>
      </trkpt>
      <trkpt lat="44.56116" lon="0.73214">
        <ele>120.5</ele>
        <time>2014-7-5T9:29:34.000Z</time>
      </trkpt>
      <trkpt lat="44.56119" lon="0.73216">
        <ele>120.5</ele>
        <time>2014-7-5T9:29:34.000Z</time>
      </trkpt>
      <trkpt lat="44.56123" lon="0.73218">
        <ele>120.5</ele>
        <time>2014-7-5T9:29:34.000Z</time>
      </trkpt>
      <trkpt lat="44.56126" lon="0.73219">
        <ele>121.5</ele>
        <time>2014-7-5T9:29:34.000Z</time>
      </trkpt>
      <trkpt lat="44.5613" lon="0.73221">
        <ele>121.5</ele>
        <time>2014-7-5T9:29:34.000Z</time>
      </trkpt>
      <trkpt lat="44.56133" lon="0.73222">
        <ele>121.5</ele>
        <time>2014-7-5T9:29:34.000Z</time>
      </trkpt>
      <trkpt lat="44.56137" lon="0.73224">
        <ele>121.5</ele>
        <time>2014-7-5T9:29:34.000Z</time>
      </trkpt>
      <trkpt lat="44.5614" lon="0.73226">
        <ele>121.5</ele>
        <time>2014-7-5T9:29:34.000Z</time>
      </trkpt>
      <trkpt lat="44.56144" lon="0.73227">
        <ele>120.5</ele>
        <time>2014-7-5T9:29:34.000Z</time>
      </trkpt>
      <trkpt lat="44.56148" lon="0.73229">
        <ele>120.5</ele>
        <time>2014-7-5T9:29:34.000Z</time>
      </trkpt>
      <trkpt lat="44.56152" lon="0.73231">
        <ele>120.5</ele>
        <time>2014-7-5T9:29:34.000Z</time>
      </trkpt>
      <trkpt lat="44.56155" lon="0.73233">
        <ele>121.5</ele>
        <time>2014-7-5T9:29:34.000Z</time>
      </trkpt>
      <trkpt lat="44.56159" lon="0.73235">
        <ele>121.5</ele>
        <time>2014-7-5T9:29:34.000Z</time>
      </trkpt>
      <trkpt lat="44.56162" lon="0.73236">
        <ele>122.5</ele>
        <time>2014-7-5T9:29:34.000Z</time>
      </trkpt>
      <trkpt lat="44.56166" lon="0.73238">
        <ele>121.5</ele>
        <time>2014-7-5T9:29:34.000Z</time>
      </trkpt>
      <trkpt lat="44.56169" lon="0.7324">
        <ele>121.5</ele>
        <time>2014-7-5T9:29:34.000Z</time>
      </trkpt>
      <trkpt lat="44.56173" lon="0.73242">
        <ele>121.5</ele>
        <time>2014-7-5T9:29:34.000Z</time>
      </trkpt>
      <trkpt lat="44.56177" lon="0.73244">
        <ele>122.5</ele>
        <time>2014-7-5T9:29:34.000Z</time>
      </trkpt>
      <trkpt lat="44.56181" lon="0.73245">
        <ele>121.5</ele>
        <time>2014-7-5T9:29:34.000Z</time>
      </trkpt>
      <trkpt lat="44.56185" lon="0.73247">
        <ele>122.5</ele>
        <time>2014-7-5T9:29:34.000Z</time>
      </trkpt>
      <trkpt lat="44.56189" lon="0.73249">
        <ele>122.5</ele>
        <time>2014-7-5T9:29:34.000Z</time>
      </trkpt>
      <trkpt lat="44.56193" lon="0.73251">
        <ele>123.5</ele>
        <time>2014-7-5T9:29:34.000Z</time>
      </trkpt>
      <trkpt lat="44.56198" lon="0.73253">
        <ele>122.5</ele>
        <time>2014-7-5T9:29:34.000Z</time>
      </trkpt>
      <trkpt lat="44.56202" lon="0.73255">
        <ele>122.5</ele>
        <time>2014-7-5T9:29:34.000Z</time>
      </trkpt>
      <trkpt lat="44.56206" lon="0.73257">
        <ele>122.5</ele>
        <time>2014-7-5T9:29:34.000Z</time>
      </trkpt>
      <trkpt lat="44.56211" lon="0.73259">
        <ele>122.5</ele>
        <time>2014-7-5T9:29:34.000Z</time>
      </trkpt>
      <trkpt lat="44.56215" lon="0.73261">
        <ele>121.5</ele>
        <time>2014-7-5T9:29:34.000Z</time>
      </trkpt>
      <trkpt lat="44.56219" lon="0.73263">
        <ele>121.5</ele>
        <time>2014-7-5T9:29:34.000Z</time>
      </trkpt>
      <trkpt lat="44.56223" lon="0.73265">
        <ele>120.5</ele>
        <time>2014-7-5T9:29:34.000Z</time>
      </trkpt>
      <trkpt lat="44.56228" lon="0.73267">
        <ele>120.5</ele>
        <time>2014-7-5T9:29:34.000Z</time>
      </trkpt>
      <trkpt lat="44.56232" lon="0.73268">
        <ele>120.5</ele>
        <time>2014-7-5T9:29:34.000Z</time>
      </trkpt>
      <trkpt lat="44.56236" lon="0.7327">
        <ele>121.5</ele>
        <time>2014-7-5T9:29:34.000Z</time>
      </trkpt>
      <trkpt lat="44.5624" lon="0.73272">
        <ele>121.5</ele>
        <time>2014-7-5T9:29:34.000Z</time>
      </trkpt>
      <trkpt lat="44.56244" lon="0.73273">
        <ele>121.5</ele>
        <time>2014-7-5T9:29:34.000Z</time>
      </trkpt>
      <trkpt lat="44.56248" lon="0.73274">
        <ele>121.5</ele>
        <time>2014-7-5T9:29:34.000Z</time>
      </trkpt>
      <trkpt lat="44.56252" lon="0.73274">
        <ele>121.5</ele>
        <time>2014-7-5T9:29:34.000Z</time>
      </trkpt>
      <trkpt lat="44.56256" lon="0.73275">
        <ele>121.5</ele>
        <time>2014-7-5T9:29:34.000Z</time>
      </trkpt>
      <trkpt lat="44.5626" lon="0.73275">
        <ele>121.5</ele>
        <time>2014-7-5T9:29:34.000Z</time>
      </trkpt>
      <trkpt lat="44.56264" lon="0.73275">
        <ele>121.5</ele>
        <time>2014-7-5T9:29:34.000Z</time>
      </trkpt>
      <trkpt lat="44.56268" lon="0.73275">
        <ele>121.5</ele>
        <time>2014-7-5T9:29:34.000Z</time>
      </trkpt>
      <trkpt lat="44.56272" lon="0.73273">
        <ele>122.5</ele>
        <time>2014-7-5T9:29:34.000Z</time>
      </trkpt>
      <trkpt lat="44.56276" lon="0.73271">
        <ele>121.5</ele>
        <time>2014-7-5T9:29:34.000Z</time>
      </trkpt>
      <trkpt lat="44.5628" lon="0.7327">
        <ele>121.5</ele>
        <time>2014-7-5T9:29:34.000Z</time>
      </trkpt>
      <trkpt lat="44.56283" lon="0.73268">
        <ele>121.5</ele>
        <time>2014-7-5T9:29:34.000Z</time>
      </trkpt>
      <trkpt lat="44.56287" lon="0.73266">
        <ele>121.5</ele>
        <time>2014-7-5T9:29:34.000Z</time>
      </trkpt>
      <trkpt lat="44.56291" lon="0.73264">
        <ele>121.5</ele>
        <time>2014-7-5T9:29:34.000Z</time>
      </trkpt>
      <trkpt lat="44.56295" lon="0.73261">
        <ele>121.5</ele>
        <time>2014-7-5T9:29:34.000Z</time>
      </trkpt>
      <trkpt lat="44.56299" lon="0.73259">
        <ele>121.5</ele>
        <time>2014-7-5T9:29:34.000Z</time>
      </trkpt>
      <trkpt lat="44.56303" lon="0.73257">
        <ele>121.5</ele>
        <time>2014-7-5T9:31:18.000Z</time>
      </trkpt>
      <trkpt lat="44.56307" lon="0.73254">
        <ele>121.5</ele>
        <time>2014-7-5T9:31:18.000Z</time>
      </trkpt>
      <trkpt lat="44.56311" lon="0.73252">
        <ele>121.5</ele>
        <time>2014-7-5T9:31:18.000Z</time>
      </trkpt>
      <trkpt lat="44.56315" lon="0.73249">
        <ele>121.5</ele>
        <time>2014-7-5T9:31:18.000Z</time>
      </trkpt>
      <trkpt lat="44.5632" lon="0.73246">
        <ele>121.5</ele>
        <time>2014-7-5T9:31:18.000Z</time>
      </trkpt>
      <trkpt lat="44.56324" lon="0.73243">
        <ele>121.5</ele>
        <time>2014-7-5T9:31:18.000Z</time>
      </trkpt>
      <trkpt lat="44.56329" lon="0.7324">
        <ele>120.5</ele>
        <time>2014-7-5T9:31:18.000Z</time>
      </trkpt>
      <trkpt lat="44.56333" lon="0.73239">
        <ele>120.5</ele>
        <time>2014-7-5T9:31:18.000Z</time>
      </trkpt>
      <trkpt lat="44.56337" lon="0.73237">
        <ele>120.5</ele>
        <time>2014-7-5T9:31:18.000Z</time>
      </trkpt>
      <trkpt lat="44.56342" lon="0.73235">
        <ele>120.5</ele>
        <time>2014-7-5T9:31:18.000Z</time>
      </trkpt>
      <trkpt lat="44.56346" lon="0.73233">
        <ele>120.5</ele>
        <time>2014-7-5T9:31:18.000Z</time>
      </trkpt>
      <trkpt lat="44.56351" lon="0.7323">
        <ele>120.5</ele>
        <time>2014-7-5T9:31:18.000Z</time>
      </trkpt>
      <trkpt lat="44.56357" lon="0.73227">
        <ele>120.5</ele>
        <time>2014-7-5T9:31:18.000Z</time>
      </trkpt>
      <trkpt lat="44.56361" lon="0.73225">
        <ele>119.5</ele>
        <time>2014-7-5T9:31:18.000Z</time>
      </trkpt>
      <trkpt lat="44.56366" lon="0.73222">
        <ele>119.5</ele>
        <time>2014-7-5T9:31:18.000Z</time>
      </trkpt>
      <trkpt lat="44.56371" lon="0.7322">
        <ele>119.5</ele>
        <time>2014-7-5T9:31:18.000Z</time>
      </trkpt>
      <trkpt lat="44.56376" lon="0.73216">
        <ele>119.5</ele>
        <time>2014-7-5T9:31:18.000Z</time>
      </trkpt>
      <trkpt lat="44.56381" lon="0.73213">
        <ele>119.5</ele>
        <time>2014-7-5T9:31:18.000Z</time>
      </trkpt>
      <trkpt lat="44.56386" lon="0.7321">
        <ele>119.5</ele>
        <time>2014-7-5T9:31:18.000Z</time>
      </trkpt>
      <trkpt lat="44.56391" lon="0.73208">
        <ele>119.5</ele>
        <time>2014-7-5T9:31:18.000Z</time>
      </trkpt>
      <trkpt lat="44.56396" lon="0.73205">
        <ele>119.5</ele>
        <time>2014-7-5T9:31:18.000Z</time>
      </trkpt>
      <trkpt lat="44.564" lon="0.73202">
        <ele>119.5</ele>
        <time>2014-7-5T9:31:18.000Z</time>
      </trkpt>
      <trkpt lat="44.56405" lon="0.732">
        <ele>120.5</ele>
        <time>2014-7-5T9:31:18.000Z</time>
      </trkpt>
      <trkpt lat="44.56409" lon="0.73198">
        <ele>120.5</ele>
        <time>2014-7-5T9:31:18.000Z</time>
      </trkpt>
      <trkpt lat="44.56414" lon="0.73194">
        <ele>120.5</ele>
        <time>2014-7-5T9:31:18.000Z</time>
      </trkpt>
      <trkpt lat="44.56419" lon="0.73192">
        <ele>121.5</ele>
        <time>2014-7-5T9:31:18.000Z</time>
      </trkpt>
      <trkpt lat="44.56423" lon="0.7319">
        <ele>121.5</ele>
        <time>2014-7-5T9:31:18.000Z</time>
      </trkpt>
      <trkpt lat="44.56428" lon="0.73186">
        <ele>121.5</ele>
        <time>2014-7-5T9:31:18.000Z</time>
      </trkpt>
      <trkpt lat="44.56434" lon="0.73184">
        <ele>122.5</ele>
        <time>2014-7-5T9:31:18.000Z</time>
      </trkpt>
      <trkpt lat="44.56438" lon="0.73181">
        <ele>122.5</ele>
        <time>2014-7-5T9:31:18.000Z</time>
      </trkpt>
      <trkpt lat="44.56443" lon="0.73179">
        <ele>122.5</ele>
        <time>2014-7-5T9:31:18.000Z</time>
      </trkpt>
      <trkpt lat="44.56447" lon="0.73176">
        <ele>122.5</ele>
        <time>2014-7-5T9:31:18.000Z</time>
      </trkpt>
      <trkpt lat="44.56452" lon="0.73174">
        <ele>122.5</ele>
        <time>2014-7-5T9:31:18.000Z</time>
      </trkpt>
      <trkpt lat="44.56457" lon="0.73171">
        <ele>122.5</ele>
        <time>2014-7-5T9:31:18.000Z</time>
      </trkpt>
      <trkpt lat="44.56461" lon="0.73169">
        <ele>122.5</ele>
        <time>2014-7-5T9:31:18.000Z</time>
      </trkpt>
      <trkpt lat="44.56466" lon="0.73167">
        <ele>122.5</ele>
        <time>2014-7-5T9:31:18.000Z</time>
      </trkpt>
      <trkpt lat="44.56471" lon="0.73163">
        <ele>123.5</ele>
        <time>2014-7-5T9:31:18.000Z</time>
      </trkpt>
      <trkpt lat="44.56475" lon="0.73161">
        <ele>123.5</ele>
        <time>2014-7-5T9:31:18.000Z</time>
      </trkpt>
      <trkpt lat="44.5648" lon="0.73158">
        <ele>123.5</ele>
        <time>2014-7-5T9:31:18.000Z</time>
      </trkpt>
      <trkpt lat="44.56485" lon="0.73156">
        <ele>123.5</ele>
        <time>2014-7-5T9:31:18.000Z</time>
      </trkpt>
      <trkpt lat="44.5649" lon="0.73154">
        <ele>122.5</ele>
        <time>2014-7-5T9:31:18.000Z</time>
      </trkpt>
      <trkpt lat="44.56495" lon="0.73151">
        <ele>122.5</ele>
        <time>2014-7-5T9:31:18.000Z</time>
      </trkpt>
      <trkpt lat="44.56499" lon="0.73148">
        <ele>122.5</ele>
        <time>2014-7-5T9:31:18.000Z</time>
      </trkpt>
      <trkpt lat="44.56504" lon="0.73145">
        <ele>122.5</ele>
        <time>2014-7-5T9:31:18.000Z</time>
      </trkpt>
      <trkpt lat="44.56509" lon="0.73143">
        <ele>122.5</ele>
        <time>2014-7-5T9:31:18.000Z</time>
      </trkpt>
      <trkpt lat="44.56513" lon="0.7314">
        <ele>122.5</ele>
        <time>2014-7-5T9:31:18.000Z</time>
      </trkpt>
      <trkpt lat="44.56518" lon="0.73138">
        <ele>122.5</ele>
        <time>2014-7-5T9:31:18.000Z</time>
      </trkpt>
      <trkpt lat="44.56522" lon="0.73135">
        <ele>122.5</ele>
        <time>2014-7-5T9:31:18.000Z</time>
      </trkpt>
      <trkpt lat="44.56526" lon="0.73133">
        <ele>122.5</ele>
        <time>2014-7-5T9:31:18.000Z</time>
      </trkpt>
      <trkpt lat="44.56532" lon="0.7313">
        <ele>122.5</ele>
        <time>2014-7-5T9:31:18.000Z</time>
      </trkpt>
      <trkpt lat="44.56537" lon="0.73128">
        <ele>122.5</ele>
        <time>2014-7-5T9:31:18.000Z</time>
      </trkpt>
      <trkpt lat="44.56541" lon="0.73126">
        <ele>121.5</ele>
        <time>2014-7-5T9:31:18.000Z</time>
      </trkpt>
      <trkpt lat="44.56547" lon="0.73122">
        <ele>121.5</ele>
        <time>2014-7-5T9:31:18.000Z</time>
      </trkpt>
      <trkpt lat="44.56552" lon="0.73119">
        <ele>122.5</ele>
        <time>2014-7-5T9:31:18.000Z</time>
      </trkpt>
      <trkpt lat="44.56557" lon="0.73116">
        <ele>122.5</ele>
        <time>2014-7-5T9:31:18.000Z</time>
      </trkpt>
      <trkpt lat="44.56562" lon="0.73113">
        <ele>122.5</ele>
        <time>2014-7-5T9:31:18.000Z</time>
      </trkpt>
      <trkpt lat="44.56567" lon="0.73111">
        <ele>122.5</ele>
        <time>2014-7-5T9:31:18.000Z</time>
      </trkpt>
      <trkpt lat="44.56573" lon="0.73109">
        <ele>122.5</ele>
        <time>2014-7-5T9:31:18.000Z</time>
      </trkpt>
      <trkpt lat="44.56579" lon="0.73109">
        <ele>122.5</ele>
        <time>2014-7-5T9:31:18.000Z</time>
      </trkpt>
      <trkpt lat="44.56584" lon="0.7311">
        <ele>122.5</ele>
        <time>2014-7-5T9:31:18.000Z</time>
      </trkpt>
      <trkpt lat="44.5659" lon="0.73113">
        <ele>122.5</ele>
        <time>2014-7-5T9:31:18.000Z</time>
      </trkpt>
      <trkpt lat="44.56595" lon="0.73118">
        <ele>122.5</ele>
        <time>2014-7-5T9:31:18.000Z</time>
      </trkpt>
      <trkpt lat="44.56599" lon="0.73123">
        <ele>122.5</ele>
        <time>2014-7-5T9:31:18.000Z</time>
      </trkpt>
      <trkpt lat="44.56603" lon="0.73129">
        <ele>122.5</ele>
        <time>2014-7-5T9:31:18.000Z</time>
      </trkpt>
      <trkpt lat="44.56606" lon="0.73135">
        <ele>123.5</ele>
        <time>2014-7-5T9:31:18.000Z</time>
      </trkpt>
      <trkpt lat="44.5661" lon="0.73141">
        <ele>123.5</ele>
        <time>2014-7-5T9:31:18.000Z</time>
      </trkpt>
      <trkpt lat="44.56612" lon="0.73146">
        <ele>123.5</ele>
        <time>2014-7-5T9:31:18.000Z</time>
      </trkpt>
      <trkpt lat="44.56615" lon="0.73151">
        <ele>124.5</ele>
        <time>2014-7-5T9:31:18.000Z</time>
      </trkpt>
      <trkpt lat="44.56618" lon="0.73155">
        <ele>124.5</ele>
        <time>2014-7-5T9:31:18.000Z</time>
      </trkpt>
      <trkpt lat="44.5662" lon="0.73159">
        <ele>124.5</ele>
        <time>2014-7-5T9:31:18.000Z</time>
      </trkpt>
      <trkpt lat="44.56622" lon="0.73163">
        <ele>124.5</ele>
        <time>2014-7-5T9:31:18.000Z</time>
      </trkpt>
      <trkpt lat="44.56624" lon="0.73168">
        <ele>124.5</ele>
        <time>2014-7-5T9:31:18.000Z</time>
      </trkpt>
      <trkpt lat="44.56627" lon="0.73168">
        <ele>125.5</ele>
        <time>2014-7-5T9:31:18.000Z</time>
      </trkpt>
      <trkpt lat="44.56628" lon="0.73172">
        <ele>125.5</ele>
        <time>2014-7-5T9:31:18.000Z</time>
      </trkpt>
      <trkpt lat="44.5663" lon="0.73174">
        <ele>125.5</ele>
        <time>2014-7-5T9:31:18.000Z</time>
      </trkpt>
      <trkpt lat="44.56631" lon="0.73177">
        <ele>126.5</ele>
        <time>2014-7-5T9:31:18.000Z</time>
      </trkpt>
      <trkpt lat="44.56632" lon="0.73181">
        <ele>126.5</ele>
        <time>2014-7-5T9:31:18.000Z</time>
      </trkpt>
      <trkpt lat="44.56633" lon="0.73183">
        <ele>127.5</ele>
        <time>2014-7-5T9:31:18.000Z</time>
      </trkpt>
      <trkpt lat="44.56635" lon="0.73185">
        <ele>127.5</ele>
        <time>2014-7-5T9:31:18.000Z</time>
      </trkpt>
      <trkpt lat="44.56637" lon="0.73188">
        <ele>127.5</ele>
        <time>2014-7-5T9:31:18.000Z</time>
      </trkpt>
      <trkpt lat="44.56638" lon="0.73193">
        <ele>128.5</ele>
        <time>2014-7-5T9:31:18.000Z</time>
      </trkpt>
      <trkpt lat="44.56637" lon="0.73196">
        <ele>128.5</ele>
        <time>2014-7-5T9:31:18.000Z</time>
      </trkpt>
      <trkpt lat="44.56636" lon="0.73199">
        <ele>127.5</ele>
        <time>2014-7-5T9:31:18.000Z</time>
      </trkpt>
      <trkpt lat="44.56635" lon="0.73204">
        <ele>127.5</ele>
        <time>2014-7-5T9:31:18.000Z</time>
      </trkpt>
      <trkpt lat="44.56633" lon="0.73209">
        <ele>127.5</ele>
        <time>2014-7-5T9:31:18.000Z</time>
      </trkpt>
      <trkpt lat="44.56631" lon="0.73214">
        <ele>126.5</ele>
        <time>2014-7-5T9:31:18.000Z</time>
      </trkpt>
      <trkpt lat="44.56629" lon="0.73221">
        <ele>126.5</ele>
        <time>2014-7-5T9:31:18.000Z</time>
      </trkpt>
      <trkpt lat="44.56626" lon="0.73228">
        <ele>125.5</ele>
        <time>2014-7-5T9:31:18.000Z</time>
      </trkpt>
      <trkpt lat="44.56624" lon="0.73235">
        <ele>125.5</ele>
        <time>2014-7-5T9:31:18.000Z</time>
      </trkpt>
      <trkpt lat="44.56622" lon="0.73242">
        <ele>124.5</ele>
        <time>2014-7-5T9:31:18.000Z</time>
      </trkpt>
      <trkpt lat="44.56618" lon="0.7325">
        <ele>123.5</ele>
        <time>2014-7-5T9:31:18.000Z</time>
      </trkpt>
      <trkpt lat="44.56618" lon="0.73257">
        <ele>123.5</ele>
        <time>2014-7-5T9:31:18.000Z</time>
      </trkpt>
      <trkpt lat="44.56616" lon="0.73263">
        <ele>123.5</ele>
        <time>2014-7-5T9:31:18.000Z</time>
      </trkpt>
      <trkpt lat="44.56614" lon="0.73269">
        <ele>122.5</ele>
        <time>2014-7-5T9:31:18.000Z</time>
      </trkpt>
      <trkpt lat="44.56614" lon="0.73275">
        <ele>122.5</ele>
        <time>2014-7-5T9:31:18.000Z</time>
      </trkpt>
      <trkpt lat="44.56613" lon="0.73281">
        <ele>122.5</ele>
        <time>2014-7-5T9:31:18.000Z</time>
      </trkpt>
      <trkpt lat="44.56611" lon="0.73285">
        <ele>122.5</ele>
        <time>2014-7-5T9:31:18.000Z</time>
      </trkpt>
      <trkpt lat="44.56609" lon="0.73289">
        <ele>122.5</ele>
        <time>2014-7-5T9:31:18.000Z</time>
      </trkpt>
      <trkpt lat="44.56609" lon="0.73294">
        <ele>122.5</ele>
        <time>2014-7-5T9:31:18.000Z</time>
      </trkpt>
      <trkpt lat="44.56608" lon="0.733">
        <ele>121.5</ele>
        <time>2014-7-5T9:31:18.000Z</time>
      </trkpt>
      <trkpt lat="44.56607" lon="0.73306">
        <ele>121.5</ele>
        <time>2014-7-5T9:31:18.000Z</time>
      </trkpt>
      <trkpt lat="44.56606" lon="0.73309">
        <ele>120.5</ele>
        <time>2014-7-5T9:33:49.000Z</time>
      </trkpt>
      <trkpt lat="44.56605" lon="0.7331">
        <ele>120.5</ele>
        <time>2014-7-5T9:33:49.000Z</time>
      </trkpt>
      <trkpt lat="44.56603" lon="0.73315">
        <ele>120.5</ele>
        <time>2014-7-5T9:33:49.000Z</time>
      </trkpt>
      <trkpt lat="44.56602" lon="0.73318">
        <ele>119.5</ele>
        <time>2014-7-5T9:33:49.000Z</time>
      </trkpt>
      <trkpt lat="44.56601" lon="0.73321">
        <ele>119.5</ele>
        <time>2014-7-5T9:33:49.000Z</time>
      </trkpt>
      <trkpt lat="44.566" lon="0.73325">
        <ele>118.5</ele>
        <time>2014-7-5T9:33:49.000Z</time>
      </trkpt>
      <trkpt lat="44.56599" lon="0.73329">
        <ele>118.5</ele>
        <time>2014-7-5T9:33:49.000Z</time>
      </trkpt>
      <trkpt lat="44.56598" lon="0.73333">
        <ele>117.5</ele>
        <time>2014-7-5T9:33:49.000Z</time>
      </trkpt>
      <trkpt lat="44.56596" lon="0.73338">
        <ele>117.5</ele>
        <time>2014-7-5T9:33:49.000Z</time>
      </trkpt>
      <trkpt lat="44.56594" lon="0.73343">
        <ele>116.5</ele>
        <time>2014-7-5T9:33:49.000Z</time>
      </trkpt>
      <trkpt lat="44.56592" lon="0.73349">
        <ele>116.5</ele>
        <time>2014-7-5T9:33:49.000Z</time>
      </trkpt>
      <trkpt lat="44.56588" lon="0.73362">
        <ele>117.5</ele>
        <time>2014-7-5T9:33:49.000Z</time>
      </trkpt>
      <trkpt lat="44.56585" lon="0.73372">
        <ele>116.5</ele>
        <time>2014-7-5T9:33:49.000Z</time>
      </trkpt>
      <trkpt lat="44.56582" lon="0.73381">
        <ele>116.5</ele>
        <time>2014-7-5T9:33:49.000Z</time>
      </trkpt>
      <trkpt lat="44.56579" lon="0.7339">
        <ele>116.5</ele>
        <time>2014-7-5T9:33:49.000Z</time>
      </trkpt>
      <trkpt lat="44.56576" lon="0.73399">
        <ele>116.5</ele>
        <time>2014-7-5T9:33:49.000Z</time>
      </trkpt>
      <trkpt lat="44.56573" lon="0.73408">
        <ele>116.5</ele>
        <time>2014-7-5T9:33:49.000Z</time>
      </trkpt>
      <trkpt lat="44.5657" lon="0.73418">
        <ele>115.5</ele>
        <time>2014-7-5T9:33:49.000Z</time>
      </trkpt>
      <trkpt lat="44.56568" lon="0.73426">
        <ele>114.5</ele>
        <time>2014-7-5T9:33:49.000Z</time>
      </trkpt>
      <trkpt lat="44.56566" lon="0.73433">
        <ele>114.5</ele>
        <time>2014-7-5T9:33:49.000Z</time>
      </trkpt>
      <trkpt lat="44.56562" lon="0.7344">
        <ele>113.5</ele>
        <time>2014-7-5T9:33:49.000Z</time>
      </trkpt>
      <trkpt lat="44.56564" lon="0.73448">
        <ele>112.5</ele>
        <time>2014-7-5T9:33:49.000Z</time>
      </trkpt>
      <trkpt lat="44.56563" lon="0.73458">
        <ele>112.5</ele>
        <time>2014-7-5T9:33:49.000Z</time>
      </trkpt>
      <trkpt lat="44.56559" lon="0.73462">
        <ele>112.5</ele>
        <time>2014-7-5T9:33:49.000Z</time>
      </trkpt>
      <trkpt lat="44.56557" lon="0.73468">
        <ele>112.5</ele>
        <time>2014-7-5T9:33:49.000Z</time>
      </trkpt>
      <trkpt lat="44.56555" lon="0.73476">
        <ele>113.5</ele>
        <time>2014-7-5T9:33:49.000Z</time>
      </trkpt>
      <trkpt lat="44.56553" lon="0.73482">
        <ele>113.5</ele>
        <time>2014-7-5T9:33:49.000Z</time>
      </trkpt>
      <trkpt lat="44.56551" lon="0.73488">
        <ele>112.5</ele>
        <time>2014-7-5T9:33:49.000Z</time>
      </trkpt>
      <trkpt lat="44.56549" lon="0.73493">
        <ele>113.5</ele>
        <time>2014-7-5T9:33:49.000Z</time>
      </trkpt>
      <trkpt lat="44.56547" lon="0.73497">
        <ele>113.5</ele>
        <time>2014-7-5T9:33:49.000Z</time>
      </trkpt>
      <trkpt lat="44.56546" lon="0.73502">
        <ele>113.5</ele>
        <time>2014-7-5T9:33:49.000Z</time>
      </trkpt>
      <trkpt lat="44.56544" lon="0.73505">
        <ele>114.5</ele>
        <time>2014-7-5T9:33:49.000Z</time>
      </trkpt>
      <trkpt lat="44.56543" lon="0.73509">
        <ele>114.5</ele>
        <time>2014-7-5T9:33:49.000Z</time>
      </trkpt>
      <trkpt lat="44.56542" lon="0.73513">
        <ele>114.5</ele>
        <time>2014-7-5T9:33:49.000Z</time>
      </trkpt>
      <trkpt lat="44.56541" lon="0.73517">
        <ele>115.5</ele>
        <time>2014-7-5T9:33:49.000Z</time>
      </trkpt>
      <trkpt lat="44.56539" lon="0.7352">
        <ele>116.5</ele>
        <time>2014-7-5T9:33:49.000Z</time>
      </trkpt>
      <trkpt lat="44.56537" lon="0.73523">
        <ele>116.5</ele>
        <time>2014-7-5T9:33:49.000Z</time>
      </trkpt>
      <trkpt lat="44.56536" lon="0.73526">
        <ele>116.5</ele>
        <time>2014-7-5T9:33:49.000Z</time>
      </trkpt>
      <trkpt lat="44.56535" lon="0.73529">
        <ele>117.5</ele>
        <time>2014-7-5T9:33:49.000Z</time>
      </trkpt>
      <trkpt lat="44.56533" lon="0.73532">
        <ele>117.5</ele>
        <time>2014-7-5T9:33:49.000Z</time>
      </trkpt>
      <trkpt lat="44.56531" lon="0.73539">
        <ele>117.5</ele>
        <time>2014-7-5T9:33:49.000Z</time>
      </trkpt>
      <trkpt lat="44.5653" lon="0.73543">
        <ele>117.5</ele>
        <time>2014-7-5T9:33:49.000Z</time>
      </trkpt>
      <trkpt lat="44.56528" lon="0.73546">
        <ele>118.5</ele>
        <time>2014-7-5T9:33:49.000Z</time>
      </trkpt>
      <trkpt lat="44.56526" lon="0.73549">
        <ele>118.5</ele>
        <time>2014-7-5T9:33:49.000Z</time>
      </trkpt>
      <trkpt lat="44.56525" lon="0.73552">
        <ele>117.5</ele>
        <time>2014-7-5T9:33:49.000Z</time>
      </trkpt>
      <trkpt lat="44.56523" lon="0.73555">
        <ele>118.5</ele>
        <time>2014-7-5T9:33:49.000Z</time>
      </trkpt>
      <trkpt lat="44.56522" lon="0.73557">
        <ele>118.5</ele>
        <time>2014-7-5T9:33:49.000Z</time>
      </trkpt>
      <trkpt lat="44.5652" lon="0.7356">
        <ele>118.5</ele>
        <time>2014-7-5T9:33:49.000Z</time>
      </trkpt>
      <trkpt lat="44.56518" lon="0.73562">
        <ele>118.5</ele>
        <time>2014-7-5T9:33:49.000Z</time>
      </trkpt>
      <trkpt lat="44.56517" lon="0.73564">
        <ele>119.5</ele>
        <time>2014-7-5T9:33:49.000Z</time>
      </trkpt>
      <trkpt lat="44.56516" lon="0.73566">
        <ele>119.5</ele>
        <time>2014-7-5T9:33:49.000Z</time>
      </trkpt>
      <trkpt lat="44.56515" lon="0.73568">
        <ele>119.5</ele>
        <time>2014-7-5T9:33:49.000Z</time>
      </trkpt>
      <trkpt lat="44.56513" lon="0.73572">
        <ele>120.5</ele>
        <time>2014-7-5T9:33:49.000Z</time>
      </trkpt>
      <trkpt lat="44.56511" lon="0.73576">
        <ele>120.5</ele>
        <time>2014-7-5T9:33:49.000Z</time>
      </trkpt>
      <trkpt lat="44.56509" lon="0.73579">
        <ele>120.5</ele>
        <time>2014-7-5T9:33:49.000Z</time>
      </trkpt>
      <trkpt lat="44.56508" lon="0.73582">
        <ele>121.5</ele>
        <time>2014-7-5T9:33:49.000Z</time>
      </trkpt>
      <trkpt lat="44.56507" lon="0.73585">
        <ele>121.5</ele>
        <time>2014-7-5T9:33:49.000Z</time>
      </trkpt>
      <trkpt lat="44.56506" lon="0.73588">
        <ele>122.5</ele>
        <time>2014-7-5T9:33:49.000Z</time>
      </trkpt>
      <trkpt lat="44.56504" lon="0.73591">
        <ele>122.5</ele>
        <time>2014-7-5T9:33:49.000Z</time>
      </trkpt>
      <trkpt lat="44.56503" lon="0.73594">
        <ele>122.5</ele>
        <time>2014-7-5T9:33:49.000Z</time>
      </trkpt>
      <trkpt lat="44.56501" lon="0.73597">
        <ele>123.5</ele>
        <time>2014-7-5T9:33:49.000Z</time>
      </trkpt>
      <trkpt lat="44.56499" lon="0.736">
        <ele>122.5</ele>
        <time>2014-7-5T9:33:49.000Z</time>
      </trkpt>
      <trkpt lat="44.56497" lon="0.73603">
        <ele>122.5</ele>
        <time>2014-7-5T9:33:49.000Z</time>
      </trkpt>
      <trkpt lat="44.56495" lon="0.73606">
        <ele>122.5</ele>
        <time>2014-7-5T9:33:49.000Z</time>
      </trkpt>
      <trkpt lat="44.56494" lon="0.73609">
        <ele>123.5</ele>
        <time>2014-7-5T9:33:49.000Z</time>
      </trkpt>
      <trkpt lat="44.56493" lon="0.73612">
        <ele>123.5</ele>
        <time>2014-7-5T9:33:49.000Z</time>
      </trkpt>
      <trkpt lat="44.56491" lon="0.73614">
        <ele>123.5</ele>
        <time>2014-7-5T9:33:49.000Z</time>
      </trkpt>
      <trkpt lat="44.5649" lon="0.73617">
        <ele>124.5</ele>
        <time>2014-7-5T9:33:49.000Z</time>
      </trkpt>
      <trkpt lat="44.5649" lon="0.7362">
        <ele>124.5</ele>
        <time>2014-7-5T9:33:49.000Z</time>
      </trkpt>
      <trkpt lat="44.56489" lon="0.73623">
        <ele>124.5</ele>
        <time>2014-7-5T9:33:49.000Z</time>
      </trkpt>
      <trkpt lat="44.56487" lon="0.73626">
        <ele>125.5</ele>
        <time>2014-7-5T9:33:49.000Z</time>
      </trkpt>
      <trkpt lat="44.56485" lon="0.7363">
        <ele>125.5</ele>
        <time>2014-7-5T9:33:49.000Z</time>
      </trkpt>
      <trkpt lat="44.56483" lon="0.73633">
        <ele>125.5</ele>
        <time>2014-7-5T9:33:49.000Z</time>
      </trkpt>
      <trkpt lat="44.56481" lon="0.73636">
        <ele>127.5</ele>
        <time>2014-7-5T9:33:49.000Z</time>
      </trkpt>
      <trkpt lat="44.56479" lon="0.7364">
        <ele>127.5</ele>
        <time>2014-7-5T9:33:49.000Z</time>
      </trkpt>
      <trkpt lat="44.56477" lon="0.73644">
        <ele>127.5</ele>
        <time>2014-7-5T9:33:49.000Z</time>
      </trkpt>
      <trkpt lat="44.56475" lon="0.73648">
        <ele>127.5</ele>
        <time>2014-7-5T9:33:49.000Z</time>
      </trkpt>
      <trkpt lat="44.56474" lon="0.73652">
        <ele>127.5</ele>
        <time>2014-7-5T9:33:49.000Z</time>
      </trkpt>
      <trkpt lat="44.56473" lon="0.73655">
        <ele>127.5</ele>
        <time>2014-7-5T9:33:49.000Z</time>
      </trkpt>
      <trkpt lat="44.56471" lon="0.73659">
        <ele>128.5</ele>
        <time>2014-7-5T9:33:49.000Z</time>
      </trkpt>
      <trkpt lat="44.56469" lon="0.73662">
        <ele>128.5</ele>
        <time>2014-7-5T9:33:49.000Z</time>
      </trkpt>
      <trkpt lat="44.56468" lon="0.73666">
        <ele>128.5</ele>
        <time>2014-7-5T9:33:49.000Z</time>
      </trkpt>
      <trkpt lat="44.56466" lon="0.73669">
        <ele>129.5</ele>
        <time>2014-7-5T9:33:49.000Z</time>
      </trkpt>
      <trkpt lat="44.56465" lon="0.73673">
        <ele>129.5</ele>
        <time>2014-7-5T9:33:49.000Z</time>
      </trkpt>
      <trkpt lat="44.56464" lon="0.73676">
        <ele>129.5</ele>
        <time>2014-7-5T9:33:49.000Z</time>
      </trkpt>
      <trkpt lat="44.56463" lon="0.7368">
        <ele>129.5</ele>
        <time>2014-7-5T9:33:49.000Z</time>
      </trkpt>
      <trkpt lat="44.56462" lon="0.73684">
        <ele>129.5</ele>
        <time>2014-7-5T9:33:49.000Z</time>
      </trkpt>
      <trkpt lat="44.56461" lon="0.73687">
        <ele>129.5</ele>
        <time>2014-7-5T9:33:49.000Z</time>
      </trkpt>
      <trkpt lat="44.56459" lon="0.73691">
        <ele>130.5</ele>
        <time>2014-7-5T9:33:49.000Z</time>
      </trkpt>
      <trkpt lat="44.56458" lon="0.73695">
        <ele>129.5</ele>
        <time>2014-7-5T9:33:49.000Z</time>
      </trkpt>
      <trkpt lat="44.56457" lon="0.73698">
        <ele>129.5</ele>
        <time>2014-7-5T9:33:49.000Z</time>
      </trkpt>
      <trkpt lat="44.56455" lon="0.73702">
        <ele>129.5</ele>
        <time>2014-7-5T9:33:49.000Z</time>
      </trkpt>
      <trkpt lat="44.56454" lon="0.73705">
        <ele>129.5</ele>
        <time>2014-7-5T9:33:49.000Z</time>
      </trkpt>
      <trkpt lat="44.56453" lon="0.73709">
        <ele>130.5</ele>
        <time>2014-7-5T9:33:49.000Z</time>
      </trkpt>
      <trkpt lat="44.56452" lon="0.73712">
        <ele>130.5</ele>
        <time>2014-7-5T9:33:49.000Z</time>
      </trkpt>
      <trkpt lat="44.56452" lon="0.73716">
        <ele>130.5</ele>
        <time>2014-7-5T9:33:49.000Z</time>
      </trkpt>
      <trkpt lat="44.56451" lon="0.7372">
        <ele>130.5</ele>
        <time>2014-7-5T9:33:49.000Z</time>
      </trkpt>
      <trkpt lat="44.56449" lon="0.73723">
        <ele>130.5</ele>
        <time>2014-7-5T9:33:49.000Z</time>
      </trkpt>
      <trkpt lat="44.56448" lon="0.73727">
        <ele>130.5</ele>
        <time>2014-7-5T9:33:49.000Z</time>
      </trkpt>
      <trkpt lat="44.56447" lon="0.73731">
        <ele>130.5</ele>
        <time>2014-7-5T9:33:49.000Z</time>
      </trkpt>
      <trkpt lat="44.56445" lon="0.73733">
        <ele>130.5</ele>
        <time>2014-7-5T9:33:49.000Z</time>
      </trkpt>
      <trkpt lat="44.56443" lon="0.73736">
        <ele>130.5</ele>
        <time>2014-7-5T9:35:59.000Z</time>
      </trkpt>
      <trkpt lat="44.56442" lon="0.7374">
        <ele>131.5</ele>
        <time>2014-7-5T9:35:59.000Z</time>
      </trkpt>
      <trkpt lat="44.56441" lon="0.73743">
        <ele>131.5</ele>
        <time>2014-7-5T9:35:59.000Z</time>
      </trkpt>
      <trkpt lat="44.56439" lon="0.73746">
        <ele>131.5</ele>
        <time>2014-7-5T9:35:59.000Z</time>
      </trkpt>
      <trkpt lat="44.56438" lon="0.73748">
        <ele>131.5</ele>
        <time>2014-7-5T9:35:59.000Z</time>
      </trkpt>
      <trkpt lat="44.56437" lon="0.73751">
        <ele>131.5</ele>
        <time>2014-7-5T9:35:59.000Z</time>
      </trkpt>
      <trkpt lat="44.56436" lon="0.73754">
        <ele>132.5</ele>
        <time>2014-7-5T9:35:59.000Z</time>
      </trkpt>
      <trkpt lat="44.56435" lon="0.73757">
        <ele>131.5</ele>
        <time>2014-7-5T9:35:59.000Z</time>
      </trkpt>
      <trkpt lat="44.56434" lon="0.73761">
        <ele>132.5</ele>
        <time>2014-7-5T9:35:59.000Z</time>
      </trkpt>
      <trkpt lat="44.56432" lon="0.73764">
        <ele>133.5</ele>
        <time>2014-7-5T9:35:59.000Z</time>
      </trkpt>
      <trkpt lat="44.56431" lon="0.73767">
        <ele>134.5</ele>
        <time>2014-7-5T9:35:59.000Z</time>
      </trkpt>
      <trkpt lat="44.5643" lon="0.7377">
        <ele>134.5</ele>
        <time>2014-7-5T9:35:59.000Z</time>
      </trkpt>
      <trkpt lat="44.56429" lon="0.73773">
        <ele>135.5</ele>
        <time>2014-7-5T9:35:59.000Z</time>
      </trkpt>
      <trkpt lat="44.56427" lon="0.73776">
        <ele>135.5</ele>
        <time>2014-7-5T9:35:59.000Z</time>
      </trkpt>
      <trkpt lat="44.56426" lon="0.73779">
        <ele>136.5</ele>
        <time>2014-7-5T9:35:59.000Z</time>
      </trkpt>
      <trkpt lat="44.56425" lon="0.73781">
        <ele>136.5</ele>
        <time>2014-7-5T9:35:59.000Z</time>
      </trkpt>
      <trkpt lat="44.56424" lon="0.73784">
        <ele>137.5</ele>
        <time>2014-7-5T9:35:59.000Z</time>
      </trkpt>
      <trkpt lat="44.56423" lon="0.73786">
        <ele>138.5</ele>
        <time>2014-7-5T9:35:59.000Z</time>
      </trkpt>
      <trkpt lat="44.56421" lon="0.73788">
        <ele>137.5</ele>
        <time>2014-7-5T9:35:59.000Z</time>
      </trkpt>
      <trkpt lat="44.56421" lon="0.73791">
        <ele>138.5</ele>
        <time>2014-7-5T9:35:59.000Z</time>
      </trkpt>
      <trkpt lat="44.5642" lon="0.73794">
        <ele>138.5</ele>
        <time>2014-7-5T9:35:59.000Z</time>
      </trkpt>
      <trkpt lat="44.56418" lon="0.73797">
        <ele>138.5</ele>
        <time>2014-7-5T9:35:59.000Z</time>
      </trkpt>
      <trkpt lat="44.56417" lon="0.738">
        <ele>139.5</ele>
        <time>2014-7-5T9:35:59.000Z</time>
      </trkpt>
      <trkpt lat="44.56415" lon="0.73802">
        <ele>138.5</ele>
        <time>2014-7-5T9:35:59.000Z</time>
      </trkpt>
      <trkpt lat="44.56413" lon="0.73805">
        <ele>138.5</ele>
        <time>2014-7-5T9:35:59.000Z</time>
      </trkpt>
      <trkpt lat="44.5641" lon="0.73808">
        <ele>139.5</ele>
        <time>2014-7-5T9:35:59.000Z</time>
      </trkpt>
      <trkpt lat="44.56408" lon="0.73811">
        <ele>138.5</ele>
        <time>2014-7-5T9:35:59.000Z</time>
      </trkpt>
      <trkpt lat="44.56406" lon="0.73814">
        <ele>138.5</ele>
        <time>2014-7-5T9:35:59.000Z</time>
      </trkpt>
      <trkpt lat="44.56405" lon="0.73816">
        <ele>138.5</ele>
        <time>2014-7-5T9:35:59.000Z</time>
      </trkpt>
      <trkpt lat="44.56403" lon="0.73818">
        <ele>138.5</ele>
        <time>2014-7-5T9:35:59.000Z</time>
      </trkpt>
      <trkpt lat="44.56402" lon="0.7382">
        <ele>138.5</ele>
        <time>2014-7-5T9:35:59.000Z</time>
      </trkpt>
      <trkpt lat="44.564" lon="0.73823">
        <ele>138.5</ele>
        <time>2014-7-5T9:35:59.000Z</time>
      </trkpt>
      <trkpt lat="44.56399" lon="0.73825">
        <ele>138.5</ele>
        <time>2014-7-5T9:35:59.000Z</time>
      </trkpt>
      <trkpt lat="44.56397" lon="0.73827">
        <ele>138.5</ele>
        <time>2014-7-5T9:35:59.000Z</time>
      </trkpt>
      <trkpt lat="44.56395" lon="0.7383">
        <ele>138.5</ele>
        <time>2014-7-5T9:35:59.000Z</time>
      </trkpt>
      <trkpt lat="44.56393" lon="0.73832">
        <ele>138.5</ele>
        <time>2014-7-5T9:35:59.000Z</time>
      </trkpt>
      <trkpt lat="44.56391" lon="0.73834">
        <ele>137.5</ele>
        <time>2014-7-5T9:35:59.000Z</time>
      </trkpt>
      <trkpt lat="44.5639" lon="0.73837">
        <ele>138.5</ele>
        <time>2014-7-5T9:35:59.000Z</time>
      </trkpt>
      <trkpt lat="44.56388" lon="0.73839">
        <ele>138.5</ele>
        <time>2014-7-5T9:35:59.000Z</time>
      </trkpt>
      <trkpt lat="44.56387" lon="0.73842">
        <ele>138.5</ele>
        <time>2014-7-5T9:35:59.000Z</time>
      </trkpt>
      <trkpt lat="44.56385" lon="0.73844">
        <ele>138.5</ele>
        <time>2014-7-5T9:35:59.000Z</time>
      </trkpt>
      <trkpt lat="44.56384" lon="0.73846">
        <ele>138.5</ele>
        <time>2014-7-5T9:35:59.000Z</time>
      </trkpt>
      <trkpt lat="44.56382" lon="0.73849">
        <ele>138.5</ele>
        <time>2014-7-5T9:35:59.000Z</time>
      </trkpt>
      <trkpt lat="44.56381" lon="0.73851">
        <ele>138.5</ele>
        <time>2014-7-5T9:35:59.000Z</time>
      </trkpt>
      <trkpt lat="44.5638" lon="0.73854">
        <ele>138.5</ele>
        <time>2014-7-5T9:35:59.000Z</time>
      </trkpt>
      <trkpt lat="44.56378" lon="0.73856">
        <ele>138.5</ele>
        <time>2014-7-5T9:35:59.000Z</time>
      </trkpt>
      <trkpt lat="44.56377" lon="0.73859">
        <ele>138.5</ele>
        <time>2014-7-5T9:35:59.000Z</time>
      </trkpt>
      <trkpt lat="44.56375" lon="0.73862">
        <ele>138.5</ele>
        <time>2014-7-5T9:35:59.000Z</time>
      </trkpt>
      <trkpt lat="44.56374" lon="0.73864">
        <ele>138.5</ele>
        <time>2014-7-5T9:35:59.000Z</time>
      </trkpt>
      <trkpt lat="44.56373" lon="0.73867">
        <ele>138.5</ele>
        <time>2014-7-5T9:35:59.000Z</time>
      </trkpt>
      <trkpt lat="44.56371" lon="0.7387">
        <ele>138.5</ele>
        <time>2014-7-5T9:35:59.000Z</time>
      </trkpt>
      <trkpt lat="44.5637" lon="0.73874">
        <ele>138.5</ele>
        <time>2014-7-5T9:35:59.000Z</time>
      </trkpt>
      <trkpt lat="44.56368" lon="0.73877">
        <ele>138.5</ele>
        <time>2014-7-5T9:35:59.000Z</time>
      </trkpt>
      <trkpt lat="44.56367" lon="0.7388">
        <ele>138.5</ele>
        <time>2014-7-5T9:35:59.000Z</time>
      </trkpt>
      <trkpt lat="44.56366" lon="0.73882">
        <ele>138.5</ele>
        <time>2014-7-5T9:35:59.000Z</time>
      </trkpt>
      <trkpt lat="44.56365" lon="0.73885">
        <ele>139.5</ele>
        <time>2014-7-5T9:35:59.000Z</time>
      </trkpt>
      <trkpt lat="44.56364" lon="0.73888">
        <ele>139.5</ele>
        <time>2014-7-5T9:35:59.000Z</time>
      </trkpt>
      <trkpt lat="44.56362" lon="0.7389">
        <ele>139.5</ele>
        <time>2014-7-5T9:35:59.000Z</time>
      </trkpt>
      <trkpt lat="44.56361" lon="0.73893">
        <ele>138.5</ele>
        <time>2014-7-5T9:35:59.000Z</time>
      </trkpt>
      <trkpt lat="44.5636" lon="0.73896">
        <ele>139.5</ele>
        <time>2014-7-5T9:35:59.000Z</time>
      </trkpt>
      <trkpt lat="44.56359" lon="0.739">
        <ele>139.5</ele>
        <time>2014-7-5T9:35:59.000Z</time>
      </trkpt>
      <trkpt lat="44.56358" lon="0.73903">
        <ele>139.5</ele>
        <time>2014-7-5T9:35:59.000Z</time>
      </trkpt>
      <trkpt lat="44.56357" lon="0.73906">
        <ele>138.5</ele>
        <time>2014-7-5T9:35:59.000Z</time>
      </trkpt>
      <trkpt lat="44.56355" lon="0.73909">
        <ele>138.5</ele>
        <time>2014-7-5T9:35:59.000Z</time>
      </trkpt>
      <trkpt lat="44.56354" lon="0.73912">
        <ele>138.5</ele>
        <time>2014-7-5T9:35:59.000Z</time>
      </trkpt>
      <trkpt lat="44.56353" lon="0.73915">
        <ele>138.5</ele>
        <time>2014-7-5T9:35:59.000Z</time>
      </trkpt>
      <trkpt lat="44.56352" lon="0.73918">
        <ele>138.5</ele>
        <time>2014-7-5T9:35:59.000Z</time>
      </trkpt>
      <trkpt lat="44.56351" lon="0.73921">
        <ele>139.5</ele>
        <time>2014-7-5T9:35:59.000Z</time>
      </trkpt>
      <trkpt lat="44.5635" lon="0.73924">
        <ele>139.5</ele>
        <time>2014-7-5T9:35:59.000Z</time>
      </trkpt>
      <trkpt lat="44.56349" lon="0.73927">
        <ele>138.5</ele>
        <time>2014-7-5T9:35:59.000Z</time>
      </trkpt>
      <trkpt lat="44.56348" lon="0.7393">
        <ele>138.5</ele>
        <time>2014-7-5T9:35:59.000Z</time>
      </trkpt>
      <trkpt lat="44.56346" lon="0.73936">
        <ele>138.5</ele>
        <time>2014-7-5T9:35:59.000Z</time>
      </trkpt>
      <trkpt lat="44.56345" lon="0.73939">
        <ele>138.5</ele>
        <time>2014-7-5T9:35:59.000Z</time>
      </trkpt>
      <trkpt lat="44.56343" lon="0.73942">
        <ele>138.5</ele>
        <time>2014-7-5T9:35:59.000Z</time>
      </trkpt>
      <trkpt lat="44.56342" lon="0.73944">
        <ele>138.5</ele>
        <time>2014-7-5T9:35:59.000Z</time>
      </trkpt>
      <trkpt lat="44.5634" lon="0.73948">
        <ele>138.5</ele>
        <time>2014-7-5T9:35:59.000Z</time>
      </trkpt>
      <trkpt lat="44.56339" lon="0.73951">
        <ele>138.5</ele>
        <time>2014-7-5T9:35:59.000Z</time>
      </trkpt>
      <trkpt lat="44.56338" lon="0.73954">
        <ele>138.5</ele>
        <time>2014-7-5T9:35:59.000Z</time>
      </trkpt>
      <trkpt lat="44.56336" lon="0.73957">
        <ele>138.5</ele>
        <time>2014-7-5T9:35:59.000Z</time>
      </trkpt>
      <trkpt lat="44.56335" lon="0.7396">
        <ele>138.5</ele>
        <time>2014-7-5T9:35:59.000Z</time>
      </trkpt>
      <trkpt lat="44.56333" lon="0.73963">
        <ele>138.5</ele>
        <time>2014-7-5T9:35:59.000Z</time>
      </trkpt>
      <trkpt lat="44.56331" lon="0.73966">
        <ele>138.5</ele>
        <time>2014-7-5T9:35:59.000Z</time>
      </trkpt>
      <trkpt lat="44.56329" lon="0.73969">
        <ele>138.5</ele>
        <time>2014-7-5T9:35:59.000Z</time>
      </trkpt>
      <trkpt lat="44.56327" lon="0.73972">
        <ele>138.5</ele>
        <time>2014-7-5T9:35:59.000Z</time>
      </trkpt>
      <trkpt lat="44.56325" lon="0.73974">
        <ele>137.5</ele>
        <time>2014-7-5T9:35:59.000Z</time>
      </trkpt>
      <trkpt lat="44.56323" lon="0.73976">
        <ele>137.5</ele>
        <time>2014-7-5T9:35:59.000Z</time>
      </trkpt>
      <trkpt lat="44.5632" lon="0.73979">
        <ele>137.5</ele>
        <time>2014-7-5T9:35:59.000Z</time>
      </trkpt>
      <trkpt lat="44.56318" lon="0.73982">
        <ele>137.5</ele>
        <time>2014-7-5T9:35:59.000Z</time>
      </trkpt>
      <trkpt lat="44.56316" lon="0.73984">
        <ele>137.5</ele>
        <time>2014-7-5T9:35:59.000Z</time>
      </trkpt>
      <trkpt lat="44.56314" lon="0.73987">
        <ele>137.5</ele>
        <time>2014-7-5T9:35:59.000Z</time>
      </trkpt>
      <trkpt lat="44.56312" lon="0.7399">
        <ele>137.5</ele>
        <time>2014-7-5T9:35:59.000Z</time>
      </trkpt>
      <trkpt lat="44.5631" lon="0.73993">
        <ele>137.5</ele>
        <time>2014-7-5T9:35:59.000Z</time>
      </trkpt>
      <trkpt lat="44.56307" lon="0.73997">
        <ele>138.5</ele>
        <time>2014-7-5T9:35:59.000Z</time>
      </trkpt>
      <trkpt lat="44.56304" lon="0.74">
        <ele>137.5</ele>
        <time>2014-7-5T9:35:59.000Z</time>
      </trkpt>
      <trkpt lat="44.56301" lon="0.74004">
        <ele>136.5</ele>
        <time>2014-7-5T9:35:59.000Z</time>
      </trkpt>
      <trkpt lat="44.56299" lon="0.74007">
        <ele>136.5</ele>
        <time>2014-7-5T9:35:59.000Z</time>
      </trkpt>
      <trkpt lat="44.56296" lon="0.7401">
        <ele>136.5</ele>
        <time>2014-7-5T9:35:59.000Z</time>
      </trkpt>
      <trkpt lat="44.56293" lon="0.74013">
        <ele>136.5</ele>
        <time>2014-7-5T9:35:59.000Z</time>
      </trkpt>
      <trkpt lat="44.56291" lon="0.74017">
        <ele>136.5</ele>
        <time>2014-7-5T9:35:59.000Z</time>
      </trkpt>
      <trkpt lat="44.56288" lon="0.74021">
        <ele>136.5</ele>
        <time>2014-7-5T9:35:59.000Z</time>
      </trkpt>
      <trkpt lat="44.56285" lon="0.74024">
        <ele>137.5</ele>
        <time>2014-7-5T9:35:59.000Z</time>
      </trkpt>
      <trkpt lat="44.56282" lon="0.74028">
        <ele>136.5</ele>
        <time>2014-7-5T9:37:41.000Z</time>
      </trkpt>
      <trkpt lat="44.56279" lon="0.74031">
        <ele>136.5</ele>
        <time>2014-7-5T9:37:41.000Z</time>
      </trkpt>
      <trkpt lat="44.56277" lon="0.74034">
        <ele>136.5</ele>
        <time>2014-7-5T9:37:41.000Z</time>
      </trkpt>
      <trkpt lat="44.56274" lon="0.74038">
        <ele>135.5</ele>
        <time>2014-7-5T9:37:41.000Z</time>
      </trkpt>
      <trkpt lat="44.56271" lon="0.74041">
        <ele>135.5</ele>
        <time>2014-7-5T9:37:41.000Z</time>
      </trkpt>
      <trkpt lat="44.56268" lon="0.74044">
        <ele>136.5</ele>
        <time>2014-7-5T9:37:41.000Z</time>
      </trkpt>
      <trkpt lat="44.56265" lon="0.74046">
        <ele>136.5</ele>
        <time>2014-7-5T9:37:41.000Z</time>
      </trkpt>
      <trkpt lat="44.56263" lon="0.74049">
        <ele>136.5</ele>
        <time>2014-7-5T9:37:41.000Z</time>
      </trkpt>
      <trkpt lat="44.5626" lon="0.74051">
        <ele>136.5</ele>
        <time>2014-7-5T9:37:41.000Z</time>
      </trkpt>
      <trkpt lat="44.56256" lon="0.74054">
        <ele>136.5</ele>
        <time>2014-7-5T9:37:41.000Z</time>
      </trkpt>
      <trkpt lat="44.56254" lon="0.74056">
        <ele>136.5</ele>
        <time>2014-7-5T9:37:41.000Z</time>
      </trkpt>
      <trkpt lat="44.56251" lon="0.74058">
        <ele>136.5</ele>
        <time>2014-7-5T9:37:41.000Z</time>
      </trkpt>
      <trkpt lat="44.56248" lon="0.74061">
        <ele>137.5</ele>
        <time>2014-7-5T9:37:41.000Z</time>
      </trkpt>
      <trkpt lat="44.56245" lon="0.74063">
        <ele>137.5</ele>
        <time>2014-7-5T9:37:41.000Z</time>
      </trkpt>
      <trkpt lat="44.56242" lon="0.74066">
        <ele>137.5</ele>
        <time>2014-7-5T9:37:41.000Z</time>
      </trkpt>
      <trkpt lat="44.56239" lon="0.74068">
        <ele>138.5</ele>
        <time>2014-7-5T9:37:41.000Z</time>
      </trkpt>
      <trkpt lat="44.56236" lon="0.74071">
        <ele>138.5</ele>
        <time>2014-7-5T9:37:41.000Z</time>
      </trkpt>
      <trkpt lat="44.56233" lon="0.74073">
        <ele>138.5</ele>
        <time>2014-7-5T9:37:41.000Z</time>
      </trkpt>
      <trkpt lat="44.56231" lon="0.74075">
        <ele>137.5</ele>
        <time>2014-7-5T9:37:41.000Z</time>
      </trkpt>
      <trkpt lat="44.56228" lon="0.74077">
        <ele>137.5</ele>
        <time>2014-7-5T9:37:41.000Z</time>
      </trkpt>
      <trkpt lat="44.56226" lon="0.74079">
        <ele>138.5</ele>
        <time>2014-7-5T9:37:41.000Z</time>
      </trkpt>
      <trkpt lat="44.56224" lon="0.74081">
        <ele>138.5</ele>
        <time>2014-7-5T9:37:41.000Z</time>
      </trkpt>
      <trkpt lat="44.56221" lon="0.74083">
        <ele>138.5</ele>
        <time>2014-7-5T9:37:41.000Z</time>
      </trkpt>
      <trkpt lat="44.56219" lon="0.74085">
        <ele>138.5</ele>
        <time>2014-7-5T9:37:41.000Z</time>
      </trkpt>
      <trkpt lat="44.56217" lon="0.74087">
        <ele>139.5</ele>
        <time>2014-7-5T9:37:41.000Z</time>
      </trkpt>
      <trkpt lat="44.56215" lon="0.7409">
        <ele>139.5</ele>
        <time>2014-7-5T9:37:41.000Z</time>
      </trkpt>
      <trkpt lat="44.56213" lon="0.74091">
        <ele>139.5</ele>
        <time>2014-7-5T9:37:41.000Z</time>
      </trkpt>
      <trkpt lat="44.56211" lon="0.74094">
        <ele>139.5</ele>
        <time>2014-7-5T9:37:41.000Z</time>
      </trkpt>
      <trkpt lat="44.56208" lon="0.74096">
        <ele>139.5</ele>
        <time>2014-7-5T9:37:41.000Z</time>
      </trkpt>
      <trkpt lat="44.56206" lon="0.74098">
        <ele>139.5</ele>
        <time>2014-7-5T9:37:41.000Z</time>
      </trkpt>
      <trkpt lat="44.56204" lon="0.74101">
        <ele>139.5</ele>
        <time>2014-7-5T9:37:41.000Z</time>
      </trkpt>
      <trkpt lat="44.56201" lon="0.74103">
        <ele>140.5</ele>
        <time>2014-7-5T9:37:41.000Z</time>
      </trkpt>
      <trkpt lat="44.56199" lon="0.74105">
        <ele>139.5</ele>
        <time>2014-7-5T9:37:41.000Z</time>
      </trkpt>
      <trkpt lat="44.56196" lon="0.74107">
        <ele>140.5</ele>
        <time>2014-7-5T9:37:41.000Z</time>
      </trkpt>
      <trkpt lat="44.56194" lon="0.74109">
        <ele>140.5</ele>
        <time>2014-7-5T9:37:41.000Z</time>
      </trkpt>
      <trkpt lat="44.56192" lon="0.74111">
        <ele>140.5</ele>
        <time>2014-7-5T9:37:41.000Z</time>
      </trkpt>
      <trkpt lat="44.5619" lon="0.74113">
        <ele>140.5</ele>
        <time>2014-7-5T9:37:41.000Z</time>
      </trkpt>
      <trkpt lat="44.56188" lon="0.74115">
        <ele>141.5</ele>
        <time>2014-7-5T9:37:41.000Z</time>
      </trkpt>
      <trkpt lat="44.56186" lon="0.74117">
        <ele>141.5</ele>
        <time>2014-7-5T9:37:41.000Z</time>
      </trkpt>
      <trkpt lat="44.56183" lon="0.74119">
        <ele>140.5</ele>
        <time>2014-7-5T9:37:41.000Z</time>
      </trkpt>
      <trkpt lat="44.56181" lon="0.74121">
        <ele>140.5</ele>
        <time>2014-7-5T9:37:41.000Z</time>
      </trkpt>
      <trkpt lat="44.56179" lon="0.74123">
        <ele>140.5</ele>
        <time>2014-7-5T9:37:41.000Z</time>
      </trkpt>
      <trkpt lat="44.56177" lon="0.74125">
        <ele>140.5</ele>
        <time>2014-7-5T9:37:41.000Z</time>
      </trkpt>
      <trkpt lat="44.56175" lon="0.74127">
        <ele>139.5</ele>
        <time>2014-7-5T9:37:41.000Z</time>
      </trkpt>
      <trkpt lat="44.56172" lon="0.74129">
        <ele>139.5</ele>
        <time>2014-7-5T9:37:41.000Z</time>
      </trkpt>
      <trkpt lat="44.5617" lon="0.74131">
        <ele>139.5</ele>
        <time>2014-7-5T9:37:41.000Z</time>
      </trkpt>
      <trkpt lat="44.56167" lon="0.74134">
        <ele>139.5</ele>
        <time>2014-7-5T9:37:41.000Z</time>
      </trkpt>
      <trkpt lat="44.56165" lon="0.74136">
        <ele>139.5</ele>
        <time>2014-7-5T9:37:41.000Z</time>
      </trkpt>
      <trkpt lat="44.56161" lon="0.74139">
        <ele>139.5</ele>
        <time>2014-7-5T9:37:41.000Z</time>
      </trkpt>
      <trkpt lat="44.56157" lon="0.74142">
        <ele>138.5</ele>
        <time>2014-7-5T9:37:41.000Z</time>
      </trkpt>
      <trkpt lat="44.56154" lon="0.74145">
        <ele>138.5</ele>
        <time>2014-7-5T9:37:41.000Z</time>
      </trkpt>
      <trkpt lat="44.56151" lon="0.74148">
        <ele>138.5</ele>
        <time>2014-7-5T9:37:41.000Z</time>
      </trkpt>
      <trkpt lat="44.56148" lon="0.74151">
        <ele>139.5</ele>
        <time>2014-7-5T9:37:41.000Z</time>
      </trkpt>
      <trkpt lat="44.56145" lon="0.74153">
        <ele>138.5</ele>
        <time>2014-7-5T9:37:41.000Z</time>
      </trkpt>
      <trkpt lat="44.56142" lon="0.74156">
        <ele>138.5</ele>
        <time>2014-7-5T9:37:41.000Z</time>
      </trkpt>
      <trkpt lat="44.56139" lon="0.74159">
        <ele>138.5</ele>
        <time>2014-7-5T9:37:41.000Z</time>
      </trkpt>
      <trkpt lat="44.56136" lon="0.74161">
        <ele>137.5</ele>
        <time>2014-7-5T9:37:41.000Z</time>
      </trkpt>
      <trkpt lat="44.56132" lon="0.74164">
        <ele>137.5</ele>
        <time>2014-7-5T9:37:41.000Z</time>
      </trkpt>
      <trkpt lat="44.56129" lon="0.74166">
        <ele>137.5</ele>
        <time>2014-7-5T9:37:41.000Z</time>
      </trkpt>
      <trkpt lat="44.56123" lon="0.74171">
        <ele>137.5</ele>
        <time>2014-7-5T9:37:41.000Z</time>
      </trkpt>
      <trkpt lat="44.5612" lon="0.74173">
        <ele>137.5</ele>
        <time>2014-7-5T9:37:41.000Z</time>
      </trkpt>
      <trkpt lat="44.56117" lon="0.74175">
        <ele>136.5</ele>
        <time>2014-7-5T9:37:41.000Z</time>
      </trkpt>
      <trkpt lat="44.56114" lon="0.74177">
        <ele>136.5</ele>
        <time>2014-7-5T9:37:41.000Z</time>
      </trkpt>
      <trkpt lat="44.56111" lon="0.7418">
        <ele>136.5</ele>
        <time>2014-7-5T9:37:41.000Z</time>
      </trkpt>
      <trkpt lat="44.56108" lon="0.74183">
        <ele>137.5</ele>
        <time>2014-7-5T9:37:41.000Z</time>
      </trkpt>
      <trkpt lat="44.56105" lon="0.74185">
        <ele>137.5</ele>
        <time>2014-7-5T9:37:41.000Z</time>
      </trkpt>
      <trkpt lat="44.56102" lon="0.74187">
        <ele>137.5</ele>
        <time>2014-7-5T9:37:41.000Z</time>
      </trkpt>
      <trkpt lat="44.56099" lon="0.7419">
        <ele>137.5</ele>
        <time>2014-7-5T9:37:41.000Z</time>
      </trkpt>
      <trkpt lat="44.56097" lon="0.74192">
        <ele>138.5</ele>
        <time>2014-7-5T9:37:41.000Z</time>
      </trkpt>
      <trkpt lat="44.56094" lon="0.74194">
        <ele>138.5</ele>
        <time>2014-7-5T9:37:41.000Z</time>
      </trkpt>
      <trkpt lat="44.56091" lon="0.74196">
        <ele>138.5</ele>
        <time>2014-7-5T9:37:41.000Z</time>
      </trkpt>
      <trkpt lat="44.56088" lon="0.74198">
        <ele>138.5</ele>
        <time>2014-7-5T9:37:41.000Z</time>
      </trkpt>
      <trkpt lat="44.56085" lon="0.742">
        <ele>139.5</ele>
        <time>2014-7-5T9:37:41.000Z</time>
      </trkpt>
      <trkpt lat="44.56083" lon="0.74202">
        <ele>139.5</ele>
        <time>2014-7-5T9:37:41.000Z</time>
      </trkpt>
      <trkpt lat="44.5608" lon="0.74204">
        <ele>139.5</ele>
        <time>2014-7-5T9:37:41.000Z</time>
      </trkpt>
      <trkpt lat="44.56076" lon="0.74206">
        <ele>138.5</ele>
        <time>2014-7-5T9:37:41.000Z</time>
      </trkpt>
      <trkpt lat="44.56074" lon="0.74207">
        <ele>139.5</ele>
        <time>2014-7-5T9:37:41.000Z</time>
      </trkpt>
      <trkpt lat="44.5607" lon="0.74209">
        <ele>139.5</ele>
        <time>2014-7-5T9:37:41.000Z</time>
      </trkpt>
      <trkpt lat="44.56067" lon="0.7421">
        <ele>139.5</ele>
        <time>2014-7-5T9:37:41.000Z</time>
      </trkpt>
      <trkpt lat="44.56064" lon="0.74211">
        <ele>139.5</ele>
        <time>2014-7-5T9:37:41.000Z</time>
      </trkpt>
      <trkpt lat="44.56061" lon="0.74213">
        <ele>139.5</ele>
        <time>2014-7-5T9:37:41.000Z</time>
      </trkpt>
      <trkpt lat="44.56058" lon="0.74214">
        <ele>139.5</ele>
        <time>2014-7-5T9:37:41.000Z</time>
      </trkpt>
      <trkpt lat="44.56055" lon="0.74216">
        <ele>139.5</ele>
        <time>2014-7-5T9:37:41.000Z</time>
      </trkpt>
      <trkpt lat="44.56052" lon="0.74217">
        <ele>139.5</ele>
        <time>2014-7-5T9:37:41.000Z</time>
      </trkpt>
      <trkpt lat="44.5605" lon="0.74218">
        <ele>139.5</ele>
        <time>2014-7-5T9:37:41.000Z</time>
      </trkpt>
      <trkpt lat="44.56048" lon="0.74219">
        <ele>140.5</ele>
        <time>2014-7-5T9:37:41.000Z</time>
      </trkpt>
      <trkpt lat="44.56045" lon="0.7422">
        <ele>139.5</ele>
        <time>2014-7-5T9:37:41.000Z</time>
      </trkpt>
      <trkpt lat="44.56043" lon="0.74221">
        <ele>139.5</ele>
        <time>2014-7-5T9:37:41.000Z</time>
      </trkpt>
      <trkpt lat="44.5604" lon="0.74222">
        <ele>139.5</ele>
        <time>2014-7-5T9:37:41.000Z</time>
      </trkpt>
      <trkpt lat="44.56038" lon="0.74223">
        <ele>140.5</ele>
        <time>2014-7-5T9:37:41.000Z</time>
      </trkpt>
      <trkpt lat="44.56036" lon="0.74223">
        <ele>140.5</ele>
        <time>2014-7-5T9:37:41.000Z</time>
      </trkpt>
      <trkpt lat="44.56033" lon="0.74224">
        <ele>140.5</ele>
        <time>2014-7-5T9:37:41.000Z</time>
      </trkpt>
      <trkpt lat="44.56031" lon="0.74225">
        <ele>139.5</ele>
        <time>2014-7-5T9:37:41.000Z</time>
      </trkpt>
      <trkpt lat="44.56028" lon="0.74225">
        <ele>139.5</ele>
        <time>2014-7-5T9:37:41.000Z</time>
      </trkpt>
      <trkpt lat="44.56026" lon="0.74226">
        <ele>139.5</ele>
        <time>2014-7-5T9:37:41.000Z</time>
      </trkpt>
      <trkpt lat="44.56023" lon="0.74226">
        <ele>139.5</ele>
        <time>2014-7-5T9:37:41.000Z</time>
      </trkpt>
      <trkpt lat="44.5602" lon="0.74226">
        <ele>139.5</ele>
        <time>2014-7-5T9:37:41.000Z</time>
      </trkpt>
      <trkpt lat="44.56018" lon="0.74226">
        <ele>139.5</ele>
        <time>2014-7-5T9:37:41.000Z</time>
      </trkpt>
      <trkpt lat="44.56015" lon="0.74227">
        <ele>139.5</ele>
        <time>2014-7-5T9:37:41.000Z</time>
      </trkpt>
      <trkpt lat="44.56012" lon="0.74229">
        <ele>139.5</ele>
        <time>2014-7-5T9:37:41.000Z</time>
      </trkpt>
      <trkpt lat="44.56009" lon="0.7423">
        <ele>141.5</ele>
        <time>2014-7-5T9:37:41.000Z</time>
      </trkpt>
      <trkpt lat="44.56006" lon="0.74231">
        <ele>140.5</ele>
        <time>2014-7-5T9:39:29.000Z</time>
      </trkpt>
      <trkpt lat="44.56003" lon="0.74232">
        <ele>139.5</ele>
        <time>2014-7-5T9:39:29.000Z</time>
      </trkpt>
      <trkpt lat="44.56" lon="0.74233">
        <ele>139.5</ele>
        <time>2014-7-5T9:39:29.000Z</time>
      </trkpt>
      <trkpt lat="44.55997" lon="0.74234">
        <ele>138.5</ele>
        <time>2014-7-5T9:39:29.000Z</time>
      </trkpt>
      <trkpt lat="44.55995" lon="0.74235">
        <ele>138.5</ele>
        <time>2014-7-5T9:39:29.000Z</time>
      </trkpt>
      <trkpt lat="44.55992" lon="0.74236">
        <ele>138.5</ele>
        <time>2014-7-5T9:39:29.000Z</time>
      </trkpt>
      <trkpt lat="44.55987" lon="0.7424">
        <ele>138.5</ele>
        <time>2014-7-5T9:39:29.000Z</time>
      </trkpt>
      <trkpt lat="44.55983" lon="0.74242">
        <ele>138.5</ele>
        <time>2014-7-5T9:39:29.000Z</time>
      </trkpt>
      <trkpt lat="44.5598" lon="0.74245">
        <ele>137.5</ele>
        <time>2014-7-5T9:39:29.000Z</time>
      </trkpt>
      <trkpt lat="44.55977" lon="0.74247">
        <ele>138.5</ele>
        <time>2014-7-5T9:39:29.000Z</time>
      </trkpt>
      <trkpt lat="44.55973" lon="0.7425">
        <ele>137.5</ele>
        <time>2014-7-5T9:39:29.000Z</time>
      </trkpt>
      <trkpt lat="44.55969" lon="0.74252">
        <ele>137.5</ele>
        <time>2014-7-5T9:39:29.000Z</time>
      </trkpt>
      <trkpt lat="44.55966" lon="0.74255">
        <ele>136.5</ele>
        <time>2014-7-5T9:39:29.000Z</time>
      </trkpt>
      <trkpt lat="44.55962" lon="0.74259">
        <ele>136.5</ele>
        <time>2014-7-5T9:39:29.000Z</time>
      </trkpt>
      <trkpt lat="44.55958" lon="0.74265">
        <ele>136.5</ele>
        <time>2014-7-5T9:39:29.000Z</time>
      </trkpt>
      <trkpt lat="44.55955" lon="0.7427">
        <ele>136.5</ele>
        <time>2014-7-5T9:39:29.000Z</time>
      </trkpt>
      <trkpt lat="44.55951" lon="0.74274">
        <ele>136.5</ele>
        <time>2014-7-5T9:39:29.000Z</time>
      </trkpt>
      <trkpt lat="44.55947" lon="0.74278">
        <ele>135.5</ele>
        <time>2014-7-5T9:39:29.000Z</time>
      </trkpt>
      <trkpt lat="44.55943" lon="0.74284">
        <ele>134.5</ele>
        <time>2014-7-5T9:39:29.000Z</time>
      </trkpt>
      <trkpt lat="44.55939" lon="0.74289">
        <ele>134.5</ele>
        <time>2014-7-5T9:39:29.000Z</time>
      </trkpt>
      <trkpt lat="44.55935" lon="0.74295">
        <ele>133.5</ele>
        <time>2014-7-5T9:39:29.000Z</time>
      </trkpt>
      <trkpt lat="44.55931" lon="0.743">
        <ele>133.5</ele>
        <time>2014-7-5T9:39:29.000Z</time>
      </trkpt>
      <trkpt lat="44.55927" lon="0.74305">
        <ele>133.5</ele>
        <time>2014-7-5T9:39:29.000Z</time>
      </trkpt>
      <trkpt lat="44.55922" lon="0.74311">
        <ele>132.5</ele>
        <time>2014-7-5T9:39:29.000Z</time>
      </trkpt>
      <trkpt lat="44.55917" lon="0.74316">
        <ele>132.5</ele>
        <time>2014-7-5T9:39:29.000Z</time>
      </trkpt>
      <trkpt lat="44.55913" lon="0.74321">
        <ele>132.5</ele>
        <time>2014-7-5T9:39:29.000Z</time>
      </trkpt>
      <trkpt lat="44.55908" lon="0.74326">
        <ele>132.5</ele>
        <time>2014-7-5T9:39:29.000Z</time>
      </trkpt>
      <trkpt lat="44.55903" lon="0.74331">
        <ele>131.5</ele>
        <time>2014-7-5T9:39:29.000Z</time>
      </trkpt>
      <trkpt lat="44.55899" lon="0.74337">
        <ele>132.5</ele>
        <time>2014-7-5T9:39:29.000Z</time>
      </trkpt>
      <trkpt lat="44.55894" lon="0.74341">
        <ele>131.5</ele>
        <time>2014-7-5T9:39:29.000Z</time>
      </trkpt>
      <trkpt lat="44.55889" lon="0.74345">
        <ele>131.5</ele>
        <time>2014-7-5T9:39:29.000Z</time>
      </trkpt>
      <trkpt lat="44.55883" lon="0.7435">
        <ele>130.5</ele>
        <time>2014-7-5T9:39:29.000Z</time>
      </trkpt>
      <trkpt lat="44.55879" lon="0.74354">
        <ele>130.5</ele>
        <time>2014-7-5T9:39:29.000Z</time>
      </trkpt>
      <trkpt lat="44.55875" lon="0.74359">
        <ele>129.5</ele>
        <time>2014-7-5T9:39:29.000Z</time>
      </trkpt>
      <trkpt lat="44.55871" lon="0.74363">
        <ele>130.5</ele>
        <time>2014-7-5T9:39:29.000Z</time>
      </trkpt>
      <trkpt lat="44.55867" lon="0.74367">
        <ele>130.5</ele>
        <time>2014-7-5T9:39:29.000Z</time>
      </trkpt>
      <trkpt lat="44.55862" lon="0.74371">
        <ele>129.5</ele>
        <time>2014-7-5T9:39:29.000Z</time>
      </trkpt>
      <trkpt lat="44.55858" lon="0.74375">
        <ele>128.5</ele>
        <time>2014-7-5T9:39:29.000Z</time>
      </trkpt>
      <trkpt lat="44.55853" lon="0.74378">
        <ele>127.5</ele>
        <time>2014-7-5T9:39:29.000Z</time>
      </trkpt>
      <trkpt lat="44.55849" lon="0.74384">
        <ele>127.5</ele>
        <time>2014-7-5T9:39:29.000Z</time>
      </trkpt>
      <trkpt lat="44.55844" lon="0.7439">
        <ele>126.5</ele>
        <time>2014-7-5T9:39:29.000Z</time>
      </trkpt>
      <trkpt lat="44.55839" lon="0.74395">
        <ele>125.5</ele>
        <time>2014-7-5T9:39:29.000Z</time>
      </trkpt>
      <trkpt lat="44.55834" lon="0.74399">
        <ele>125.5</ele>
        <time>2014-7-5T9:39:29.000Z</time>
      </trkpt>
      <trkpt lat="44.55831" lon="0.74402">
        <ele>125.5</ele>
        <time>2014-7-5T9:39:29.000Z</time>
      </trkpt>
      <trkpt lat="44.55827" lon="0.74406">
        <ele>125.5</ele>
        <time>2014-7-5T9:39:29.000Z</time>
      </trkpt>
      <trkpt lat="44.55823" lon="0.7441">
        <ele>125.5</ele>
        <time>2014-7-5T9:39:29.000Z</time>
      </trkpt>
      <trkpt lat="44.5582" lon="0.74413">
        <ele>124.5</ele>
        <time>2014-7-5T9:39:29.000Z</time>
      </trkpt>
      <trkpt lat="44.55815" lon="0.74417">
        <ele>124.5</ele>
        <time>2014-7-5T9:39:29.000Z</time>
      </trkpt>
      <trkpt lat="44.55812" lon="0.74422">
        <ele>124.5</ele>
        <time>2014-7-5T9:39:29.000Z</time>
      </trkpt>
      <trkpt lat="44.55809" lon="0.74426">
        <ele>124.5</ele>
        <time>2014-7-5T9:39:29.000Z</time>
      </trkpt>
      <trkpt lat="44.55806" lon="0.74429">
        <ele>124.5</ele>
        <time>2014-7-5T9:39:29.000Z</time>
      </trkpt>
      <trkpt lat="44.55803" lon="0.74433">
        <ele>123.5</ele>
        <time>2014-7-5T9:39:29.000Z</time>
      </trkpt>
      <trkpt lat="44.55801" lon="0.74436">
        <ele>123.5</ele>
        <time>2014-7-5T9:39:29.000Z</time>
      </trkpt>
      <trkpt lat="44.55798" lon="0.74441">
        <ele>124.5</ele>
        <time>2014-7-5T9:39:29.000Z</time>
      </trkpt>
      <trkpt lat="44.55795" lon="0.74445">
        <ele>124.5</ele>
        <time>2014-7-5T9:39:29.000Z</time>
      </trkpt>
      <trkpt lat="44.55792" lon="0.74445">
        <ele>123.5</ele>
        <time>2014-7-5T9:39:29.000Z</time>
      </trkpt>
      <trkpt lat="44.55789" lon="0.74447">
        <ele>123.5</ele>
        <time>2014-7-5T9:39:29.000Z</time>
      </trkpt>
      <trkpt lat="44.55786" lon="0.74451">
        <ele>124.5</ele>
        <time>2014-7-5T9:39:29.000Z</time>
      </trkpt>
      <trkpt lat="44.55783" lon="0.74454">
        <ele>123.5</ele>
        <time>2014-7-5T9:39:29.000Z</time>
      </trkpt>
      <trkpt lat="44.5578" lon="0.74458">
        <ele>123.5</ele>
        <time>2014-7-5T9:39:29.000Z</time>
      </trkpt>
      <trkpt lat="44.55777" lon="0.74463">
        <ele>122.5</ele>
        <time>2014-7-5T9:39:29.000Z</time>
      </trkpt>
      <trkpt lat="44.55775" lon="0.74469">
        <ele>120.5</ele>
        <time>2014-7-5T9:39:29.000Z</time>
      </trkpt>
      <trkpt lat="44.55773" lon="0.74475">
        <ele>119.5</ele>
        <time>2014-7-5T9:39:29.000Z</time>
      </trkpt>
      <trkpt lat="44.55772" lon="0.74482">
        <ele>117.5</ele>
        <time>2014-7-5T9:39:29.000Z</time>
      </trkpt>
      <trkpt lat="44.55771" lon="0.74487">
        <ele>115.5</ele>
        <time>2014-7-5T9:39:29.000Z</time>
      </trkpt>
      <trkpt lat="44.5577" lon="0.74493">
        <ele>115.5</ele>
        <time>2014-7-5T9:39:29.000Z</time>
      </trkpt>
      <trkpt lat="44.5577" lon="0.74495">
        <ele>116.5</ele>
        <time>2014-7-5T9:39:29.000Z</time>
      </trkpt>
      <trkpt lat="44.55768" lon="0.745">
        <ele>116.5</ele>
        <time>2014-7-5T9:39:29.000Z</time>
      </trkpt>
      <trkpt lat="44.55768" lon="0.74503">
        <ele>116.5</ele>
        <time>2014-7-5T9:39:29.000Z</time>
      </trkpt>
      <trkpt lat="44.55768" lon="0.74505">
        <ele>116.5</ele>
        <time>2014-7-5T9:39:29.000Z</time>
      </trkpt>
      <trkpt lat="44.55768" lon="0.74508">
        <ele>116.5</ele>
        <time>2014-7-5T9:39:29.000Z</time>
      </trkpt>
      <trkpt lat="44.55766" lon="0.7451">
        <ele>115.5</ele>
        <time>2014-7-5T9:39:29.000Z</time>
      </trkpt>
      <trkpt lat="44.55765" lon="0.74512">
        <ele>115.5</ele>
        <time>2014-7-5T9:39:29.000Z</time>
      </trkpt>
      <trkpt lat="44.55763" lon="0.74514">
        <ele>115.5</ele>
        <time>2014-7-5T9:39:29.000Z</time>
      </trkpt>
      <trkpt lat="44.55761" lon="0.74517">
        <ele>116.5</ele>
        <time>2014-7-5T9:39:29.000Z</time>
      </trkpt>
      <trkpt lat="44.55757" lon="0.74524">
        <ele>116.5</ele>
        <time>2014-7-5T9:39:29.000Z</time>
      </trkpt>
      <trkpt lat="44.55755" lon="0.74529">
        <ele>116.5</ele>
        <time>2014-7-5T9:39:29.000Z</time>
      </trkpt>
      <trkpt lat="44.55751" lon="0.74536">
        <ele>116.5</ele>
        <time>2014-7-5T9:39:29.000Z</time>
      </trkpt>
      <trkpt lat="44.55747" lon="0.74544">
        <ele>115.5</ele>
        <time>2014-7-5T9:39:29.000Z</time>
      </trkpt>
      <trkpt lat="44.55743" lon="0.74552">
        <ele>114.5</ele>
        <time>2014-7-5T9:39:29.000Z</time>
      </trkpt>
      <trkpt lat="44.55739" lon="0.74561">
        <ele>114.5</ele>
        <time>2014-7-5T9:39:29.000Z</time>
      </trkpt>
      <trkpt lat="44.55735" lon="0.74569">
        <ele>113.5</ele>
        <time>2014-7-5T9:39:29.000Z</time>
      </trkpt>
      <trkpt lat="44.55731" lon="0.74578">
        <ele>112.5</ele>
        <time>2014-7-5T9:39:29.000Z</time>
      </trkpt>
      <trkpt lat="44.55727" lon="0.74587">
        <ele>112.5</ele>
        <time>2014-7-5T9:39:29.000Z</time>
      </trkpt>
      <trkpt lat="44.55722" lon="0.74595">
        <ele>111.5</ele>
        <time>2014-7-5T9:39:29.000Z</time>
      </trkpt>
      <trkpt lat="44.55718" lon="0.74605">
        <ele>110.5</ele>
        <time>2014-7-5T9:39:29.000Z</time>
      </trkpt>
      <trkpt lat="44.55713" lon="0.74615">
        <ele>109.5</ele>
        <time>2014-7-5T9:39:29.000Z</time>
      </trkpt>
      <trkpt lat="44.55709" lon="0.74624">
        <ele>108.5</ele>
        <time>2014-7-5T9:39:29.000Z</time>
      </trkpt>
      <trkpt lat="44.55705" lon="0.74634">
        <ele>107.5</ele>
        <time>2014-7-5T9:39:29.000Z</time>
      </trkpt>
      <trkpt lat="44.557" lon="0.74644">
        <ele>107.5</ele>
        <time>2014-7-5T9:39:29.000Z</time>
      </trkpt>
      <trkpt lat="44.55696" lon="0.74653">
        <ele>106.5</ele>
        <time>2014-7-5T9:39:29.000Z</time>
      </trkpt>
      <trkpt lat="44.55692" lon="0.74664">
        <ele>106.5</ele>
        <time>2014-7-5T9:39:29.000Z</time>
      </trkpt>
      <trkpt lat="44.55688" lon="0.74673">
        <ele>105.5</ele>
        <time>2014-7-5T9:39:29.000Z</time>
      </trkpt>
      <trkpt lat="44.55684" lon="0.74681">
        <ele>105.5</ele>
        <time>2014-7-5T9:39:29.000Z</time>
      </trkpt>
      <trkpt lat="44.55679" lon="0.74688">
        <ele>106.5</ele>
        <time>2014-7-5T9:39:29.000Z</time>
      </trkpt>
      <trkpt lat="44.55675" lon="0.74695">
        <ele>106.5</ele>
        <time>2014-7-5T9:39:29.000Z</time>
      </trkpt>
      <trkpt lat="44.55671" lon="0.74702">
        <ele>106.5</ele>
        <time>2014-7-5T9:39:29.000Z</time>
      </trkpt>
      <trkpt lat="44.55668" lon="0.74708">
        <ele>107.5</ele>
        <time>2014-7-5T9:39:29.000Z</time>
      </trkpt>
      <trkpt lat="44.55665" lon="0.74713">
        <ele>107.5</ele>
        <time>2014-7-5T9:39:29.000Z</time>
      </trkpt>
      <trkpt lat="44.55663" lon="0.74718">
        <ele>107.5</ele>
        <time>2014-7-5T9:39:29.000Z</time>
      </trkpt>
      <trkpt lat="44.55661" lon="0.74729">
        <ele>108.5</ele>
        <time>2014-7-5T9:39:29.000Z</time>
      </trkpt>
      <trkpt lat="44.5566" lon="0.74734">
        <ele>108.5</ele>
        <time>2014-7-5T9:41:36.000Z</time>
      </trkpt>
      <trkpt lat="44.5566" lon="0.74738">
        <ele>109.5</ele>
        <time>2014-7-5T9:41:36.000Z</time>
      </trkpt>
      <trkpt lat="44.5566" lon="0.74743">
        <ele>110.5</ele>
        <time>2014-7-5T9:41:36.000Z</time>
      </trkpt>
      <trkpt lat="44.5566" lon="0.74748">
        <ele>111.5</ele>
        <time>2014-7-5T9:41:36.000Z</time>
      </trkpt>
      <trkpt lat="44.55658" lon="0.74753">
        <ele>110.5</ele>
        <time>2014-7-5T9:41:36.000Z</time>
      </trkpt>
      <trkpt lat="44.55658" lon="0.74759">
        <ele>111.5</ele>
        <time>2014-7-5T9:41:36.000Z</time>
      </trkpt>
      <trkpt lat="44.55658" lon="0.74762">
        <ele>112.5</ele>
        <time>2014-7-5T9:41:36.000Z</time>
      </trkpt>
      <trkpt lat="44.55657" lon="0.74766">
        <ele>112.5</ele>
        <time>2014-7-5T9:41:36.000Z</time>
      </trkpt>
      <trkpt lat="44.55656" lon="0.7477">
        <ele>112.5</ele>
        <time>2014-7-5T9:41:36.000Z</time>
      </trkpt>
      <trkpt lat="44.55655" lon="0.74774">
        <ele>113.5</ele>
        <time>2014-7-5T9:41:36.000Z</time>
      </trkpt>
      <trkpt lat="44.55655" lon="0.74779">
        <ele>113.5</ele>
        <time>2014-7-5T9:41:36.000Z</time>
      </trkpt>
      <trkpt lat="44.55654" lon="0.74784">
        <ele>113.5</ele>
        <time>2014-7-5T9:41:36.000Z</time>
      </trkpt>
      <trkpt lat="44.55653" lon="0.74788">
        <ele>113.5</ele>
        <time>2014-7-5T9:41:36.000Z</time>
      </trkpt>
      <trkpt lat="44.5565" lon="0.74797">
        <ele>113.5</ele>
        <time>2014-7-5T9:41:36.000Z</time>
      </trkpt>
      <trkpt lat="44.55649" lon="0.74802">
        <ele>114.5</ele>
        <time>2014-7-5T9:41:36.000Z</time>
      </trkpt>
      <trkpt lat="44.55648" lon="0.74806">
        <ele>115.5</ele>
        <time>2014-7-5T9:41:36.000Z</time>
      </trkpt>
      <trkpt lat="44.55647" lon="0.7481">
        <ele>115.5</ele>
        <time>2014-7-5T9:41:36.000Z</time>
      </trkpt>
      <trkpt lat="44.55646" lon="0.74814">
        <ele>115.5</ele>
        <time>2014-7-5T9:41:36.000Z</time>
      </trkpt>
      <trkpt lat="44.55645" lon="0.74817">
        <ele>115.5</ele>
        <time>2014-7-5T9:41:36.000Z</time>
      </trkpt>
      <trkpt lat="44.55644" lon="0.74821">
        <ele>116.5</ele>
        <time>2014-7-5T9:41:36.000Z</time>
      </trkpt>
      <trkpt lat="44.55643" lon="0.74825">
        <ele>116.5</ele>
        <time>2014-7-5T9:41:36.000Z</time>
      </trkpt>
      <trkpt lat="44.55642" lon="0.7483">
        <ele>116.5</ele>
        <time>2014-7-5T9:41:36.000Z</time>
      </trkpt>
      <trkpt lat="44.55642" lon="0.74834">
        <ele>116.5</ele>
        <time>2014-7-5T9:41:36.000Z</time>
      </trkpt>
      <trkpt lat="44.55641" lon="0.74837">
        <ele>117.5</ele>
        <time>2014-7-5T9:41:36.000Z</time>
      </trkpt>
      <trkpt lat="44.5564" lon="0.74841">
        <ele>118.5</ele>
        <time>2014-7-5T9:41:36.000Z</time>
      </trkpt>
      <trkpt lat="44.55639" lon="0.74845">
        <ele>118.5</ele>
        <time>2014-7-5T9:41:36.000Z</time>
      </trkpt>
      <trkpt lat="44.55638" lon="0.74849">
        <ele>119.5</ele>
        <time>2014-7-5T9:41:36.000Z</time>
      </trkpt>
      <trkpt lat="44.55637" lon="0.74852">
        <ele>119.5</ele>
        <time>2014-7-5T9:41:36.000Z</time>
      </trkpt>
      <trkpt lat="44.55636" lon="0.74855">
        <ele>117.5</ele>
        <time>2014-7-5T9:41:36.000Z</time>
      </trkpt>
      <trkpt lat="44.55635" lon="0.7486">
        <ele>117.5</ele>
        <time>2014-7-5T9:41:36.000Z</time>
      </trkpt>
      <trkpt lat="44.55634" lon="0.74863">
        <ele>117.5</ele>
        <time>2014-7-5T9:41:36.000Z</time>
      </trkpt>
      <trkpt lat="44.55634" lon="0.74866">
        <ele>116.5</ele>
        <time>2014-7-5T9:41:36.000Z</time>
      </trkpt>
      <trkpt lat="44.55633" lon="0.74869">
        <ele>117.5</ele>
        <time>2014-7-5T9:41:36.000Z</time>
      </trkpt>
      <trkpt lat="44.55633" lon="0.74872">
        <ele>118.5</ele>
        <time>2014-7-5T9:41:36.000Z</time>
      </trkpt>
      <trkpt lat="44.55632" lon="0.74875">
        <ele>118.5</ele>
        <time>2014-7-5T9:41:36.000Z</time>
      </trkpt>
      <trkpt lat="44.55631" lon="0.74879">
        <ele>119.5</ele>
        <time>2014-7-5T9:41:36.000Z</time>
      </trkpt>
      <trkpt lat="44.5563" lon="0.74882">
        <ele>118.5</ele>
        <time>2014-7-5T9:41:36.000Z</time>
      </trkpt>
      <trkpt lat="44.55627" lon="0.74886">
        <ele>118.5</ele>
        <time>2014-7-5T9:41:36.000Z</time>
      </trkpt>
      <trkpt lat="44.55626" lon="0.7489">
        <ele>120.5</ele>
        <time>2014-7-5T9:41:36.000Z</time>
      </trkpt>
      <trkpt lat="44.55624" lon="0.74894">
        <ele>122.5</ele>
        <time>2014-7-5T9:41:36.000Z</time>
      </trkpt>
      <trkpt lat="44.55622" lon="0.74897">
        <ele>122.5</ele>
        <time>2014-7-5T9:41:36.000Z</time>
      </trkpt>
      <trkpt lat="44.5562" lon="0.749">
        <ele>121.5</ele>
        <time>2014-7-5T9:41:36.000Z</time>
      </trkpt>
      <trkpt lat="44.55618" lon="0.74904">
        <ele>120.5</ele>
        <time>2014-7-5T9:41:36.000Z</time>
      </trkpt>
      <trkpt lat="44.55617" lon="0.74907">
        <ele>121.5</ele>
        <time>2014-7-5T9:41:36.000Z</time>
      </trkpt>
      <trkpt lat="44.55615" lon="0.7491">
        <ele>121.5</ele>
        <time>2014-7-5T9:41:36.000Z</time>
      </trkpt>
      <trkpt lat="44.55615" lon="0.74914">
        <ele>121.5</ele>
        <time>2014-7-5T9:41:36.000Z</time>
      </trkpt>
      <trkpt lat="44.55613" lon="0.74916">
        <ele>121.5</ele>
        <time>2014-7-5T9:41:36.000Z</time>
      </trkpt>
      <trkpt lat="44.55612" lon="0.7492">
        <ele>121.5</ele>
        <time>2014-7-5T9:41:36.000Z</time>
      </trkpt>
      <trkpt lat="44.5561" lon="0.74924">
        <ele>123.5</ele>
        <time>2014-7-5T9:41:36.000Z</time>
      </trkpt>
      <trkpt lat="44.55609" lon="0.74927">
        <ele>124.5</ele>
        <time>2014-7-5T9:41:36.000Z</time>
      </trkpt>
      <trkpt lat="44.55607" lon="0.74931">
        <ele>124.5</ele>
        <time>2014-7-5T9:41:36.000Z</time>
      </trkpt>
      <trkpt lat="44.55605" lon="0.74934">
        <ele>124.5</ele>
        <time>2014-7-5T9:41:36.000Z</time>
      </trkpt>
      <trkpt lat="44.55603" lon="0.74939">
        <ele>124.5</ele>
        <time>2014-7-5T9:41:36.000Z</time>
      </trkpt>
      <trkpt lat="44.556" lon="0.74942">
        <ele>124.5</ele>
        <time>2014-7-5T9:41:36.000Z</time>
      </trkpt>
      <trkpt lat="44.55597" lon="0.74944">
        <ele>125.5</ele>
        <time>2014-7-5T9:41:36.000Z</time>
      </trkpt>
      <trkpt lat="44.55595" lon="0.74948">
        <ele>125.5</ele>
        <time>2014-7-5T9:41:36.000Z</time>
      </trkpt>
      <trkpt lat="44.55593" lon="0.7495">
        <ele>125.5</ele>
        <time>2014-7-5T9:41:36.000Z</time>
      </trkpt>
      <trkpt lat="44.55592" lon="0.74952">
        <ele>125.5</ele>
        <time>2014-7-5T9:41:36.000Z</time>
      </trkpt>
      <trkpt lat="44.55591" lon="0.74954">
        <ele>125.5</ele>
        <time>2014-7-5T9:41:36.000Z</time>
      </trkpt>
      <trkpt lat="44.5559" lon="0.74956">
        <ele>125.5</ele>
        <time>2014-7-5T9:41:36.000Z</time>
      </trkpt>
      <trkpt lat="44.55589" lon="0.74959">
        <ele>125.5</ele>
        <time>2014-7-5T9:41:36.000Z</time>
      </trkpt>
      <trkpt lat="44.55587" lon="0.74961">
        <ele>126.5</ele>
        <time>2014-7-5T9:41:36.000Z</time>
      </trkpt>
      <trkpt lat="44.55586" lon="0.74963">
        <ele>127.5</ele>
        <time>2014-7-5T9:41:36.000Z</time>
      </trkpt>
      <trkpt lat="44.55585" lon="0.74965">
        <ele>127.5</ele>
        <time>2014-7-5T9:41:36.000Z</time>
      </trkpt>
      <trkpt lat="44.55584" lon="0.74968">
        <ele>128.5</ele>
        <time>2014-7-5T9:41:36.000Z</time>
      </trkpt>
      <trkpt lat="44.55583" lon="0.7497">
        <ele>128.5</ele>
        <time>2014-7-5T9:41:36.000Z</time>
      </trkpt>
      <trkpt lat="44.55582" lon="0.74972">
        <ele>128.5</ele>
        <time>2014-7-5T9:41:36.000Z</time>
      </trkpt>
      <trkpt lat="44.5558" lon="0.74975">
        <ele>129.5</ele>
        <time>2014-7-5T9:41:36.000Z</time>
      </trkpt>
      <trkpt lat="44.55579" lon="0.74977">
        <ele>130.5</ele>
        <time>2014-7-5T9:41:36.000Z</time>
      </trkpt>
      <trkpt lat="44.55578" lon="0.7498">
        <ele>130.5</ele>
        <time>2014-7-5T9:41:36.000Z</time>
      </trkpt>
      <trkpt lat="44.55577" lon="0.74982">
        <ele>130.5</ele>
        <time>2014-7-5T9:41:36.000Z</time>
      </trkpt>
      <trkpt lat="44.55576" lon="0.74984">
        <ele>130.5</ele>
        <time>2014-7-5T9:41:36.000Z</time>
      </trkpt>
      <trkpt lat="44.55575" lon="0.74987">
        <ele>130.5</ele>
        <time>2014-7-5T9:41:36.000Z</time>
      </trkpt>
      <trkpt lat="44.55574" lon="0.7499">
        <ele>130.5</ele>
        <time>2014-7-5T9:41:36.000Z</time>
      </trkpt>
      <trkpt lat="44.55573" lon="0.74994">
        <ele>130.5</ele>
        <time>2014-7-5T9:41:36.000Z</time>
      </trkpt>
      <trkpt lat="44.55572" lon="0.74996">
        <ele>131.5</ele>
        <time>2014-7-5T9:41:36.000Z</time>
      </trkpt>
      <trkpt lat="44.55571" lon="0.74999">
        <ele>131.5</ele>
        <time>2014-7-5T9:41:36.000Z</time>
      </trkpt>
      <trkpt lat="44.55569" lon="0.75002">
        <ele>131.5</ele>
        <time>2014-7-5T9:41:36.000Z</time>
      </trkpt>
      <trkpt lat="44.55567" lon="0.75004">
        <ele>131.5</ele>
        <time>2014-7-5T9:41:36.000Z</time>
      </trkpt>
      <trkpt lat="44.55564" lon="0.75009">
        <ele>131.5</ele>
        <time>2014-7-5T9:41:36.000Z</time>
      </trkpt>
      <trkpt lat="44.55563" lon="0.75012">
        <ele>131.5</ele>
        <time>2014-7-5T9:41:36.000Z</time>
      </trkpt>
      <trkpt lat="44.55562" lon="0.75015">
        <ele>131.5</ele>
        <time>2014-7-5T9:41:36.000Z</time>
      </trkpt>
      <trkpt lat="44.5556" lon="0.75017">
        <ele>131.5</ele>
        <time>2014-7-5T9:41:36.000Z</time>
      </trkpt>
      <trkpt lat="44.55559" lon="0.7502">
        <ele>131.5</ele>
        <time>2014-7-5T9:41:36.000Z</time>
      </trkpt>
      <trkpt lat="44.55558" lon="0.75023">
        <ele>131.5</ele>
        <time>2014-7-5T9:41:36.000Z</time>
      </trkpt>
      <trkpt lat="44.55556" lon="0.75025">
        <ele>131.5</ele>
        <time>2014-7-5T9:41:36.000Z</time>
      </trkpt>
      <trkpt lat="44.55555" lon="0.75028">
        <ele>131.5</ele>
        <time>2014-7-5T9:41:36.000Z</time>
      </trkpt>
      <trkpt lat="44.55554" lon="0.75031">
        <ele>132.5</ele>
        <time>2014-7-5T9:41:36.000Z</time>
      </trkpt>
      <trkpt lat="44.55553" lon="0.75033">
        <ele>132.5</ele>
        <time>2014-7-5T9:41:36.000Z</time>
      </trkpt>
      <trkpt lat="44.55551" lon="0.75036">
        <ele>132.5</ele>
        <time>2014-7-5T9:41:36.000Z</time>
      </trkpt>
      <trkpt lat="44.5555" lon="0.75038">
        <ele>132.5</ele>
        <time>2014-7-5T9:41:36.000Z</time>
      </trkpt>
      <trkpt lat="44.55548" lon="0.75041">
        <ele>132.5</ele>
        <time>2014-7-5T9:41:36.000Z</time>
      </trkpt>
      <trkpt lat="44.55547" lon="0.75044">
        <ele>132.5</ele>
        <time>2014-7-5T9:41:36.000Z</time>
      </trkpt>
      <trkpt lat="44.55546" lon="0.75046">
        <ele>133.5</ele>
        <time>2014-7-5T9:41:36.000Z</time>
      </trkpt>
      <trkpt lat="44.55544" lon="0.75049">
        <ele>133.5</ele>
        <time>2014-7-5T9:41:36.000Z</time>
      </trkpt>
      <trkpt lat="44.55543" lon="0.75052">
        <ele>133.5</ele>
        <time>2014-7-5T9:41:36.000Z</time>
      </trkpt>
      <trkpt lat="44.55542" lon="0.75054">
        <ele>134.5</ele>
        <time>2014-7-5T9:41:36.000Z</time>
      </trkpt>
      <trkpt lat="44.5554" lon="0.75057">
        <ele>134.5</ele>
        <time>2014-7-5T9:41:36.000Z</time>
      </trkpt>
      <trkpt lat="44.55539" lon="0.7506">
        <ele>134.5</ele>
        <time>2014-7-5T9:41:36.000Z</time>
      </trkpt>
      <trkpt lat="44.55538" lon="0.75062">
        <ele>134.5</ele>
        <time>2014-7-5T9:41:36.000Z</time>
      </trkpt>
      <trkpt lat="44.55536" lon="0.75065">
        <ele>134.5</ele>
        <time>2014-7-5T9:41:36.000Z</time>
      </trkpt>
      <trkpt lat="44.55535" lon="0.75067">
        <ele>134.5</ele>
        <time>2014-7-5T9:43:21.000Z</time>
      </trkpt>
      <trkpt lat="44.55534" lon="0.7507">
        <ele>135.5</ele>
        <time>2014-7-5T9:43:21.000Z</time>
      </trkpt>
      <trkpt lat="44.55532" lon="0.75072">
        <ele>135.5</ele>
        <time>2014-7-5T9:43:21.000Z</time>
      </trkpt>
      <trkpt lat="44.55531" lon="0.75075">
        <ele>135.5</ele>
        <time>2014-7-5T9:43:21.000Z</time>
      </trkpt>
      <trkpt lat="44.5553" lon="0.75077">
        <ele>135.5</ele>
        <time>2014-7-5T9:43:21.000Z</time>
      </trkpt>
      <trkpt lat="44.55528" lon="0.7508">
        <ele>135.5</ele>
        <time>2014-7-5T9:43:21.000Z</time>
      </trkpt>
      <trkpt lat="44.55527" lon="0.75083">
        <ele>135.5</ele>
        <time>2014-7-5T9:43:21.000Z</time>
      </trkpt>
      <trkpt lat="44.55526" lon="0.75086">
        <ele>135.5</ele>
        <time>2014-7-5T9:43:21.000Z</time>
      </trkpt>
      <trkpt lat="44.55525" lon="0.75089">
        <ele>135.5</ele>
        <time>2014-7-5T9:43:21.000Z</time>
      </trkpt>
      <trkpt lat="44.55524" lon="0.75091">
        <ele>135.5</ele>
        <time>2014-7-5T9:43:21.000Z</time>
      </trkpt>
      <trkpt lat="44.55522" lon="0.75093">
        <ele>135.5</ele>
        <time>2014-7-5T9:43:21.000Z</time>
      </trkpt>
      <trkpt lat="44.55521" lon="0.75095">
        <ele>134.5</ele>
        <time>2014-7-5T9:43:21.000Z</time>
      </trkpt>
      <trkpt lat="44.55519" lon="0.75098">
        <ele>134.5</ele>
        <time>2014-7-5T9:43:21.000Z</time>
      </trkpt>
      <trkpt lat="44.55518" lon="0.751">
        <ele>134.5</ele>
        <time>2014-7-5T9:43:21.000Z</time>
      </trkpt>
      <trkpt lat="44.55517" lon="0.75103">
        <ele>133.5</ele>
        <time>2014-7-5T9:43:21.000Z</time>
      </trkpt>
      <trkpt lat="44.55515" lon="0.75108">
        <ele>133.5</ele>
        <time>2014-7-5T9:43:21.000Z</time>
      </trkpt>
      <trkpt lat="44.55513" lon="0.75112">
        <ele>133.5</ele>
        <time>2014-7-5T9:43:21.000Z</time>
      </trkpt>
      <trkpt lat="44.55511" lon="0.75116">
        <ele>133.5</ele>
        <time>2014-7-5T9:43:21.000Z</time>
      </trkpt>
      <trkpt lat="44.55509" lon="0.75121">
        <ele>133.5</ele>
        <time>2014-7-5T9:43:21.000Z</time>
      </trkpt>
      <trkpt lat="44.55506" lon="0.7513">
        <ele>133.5</ele>
        <time>2014-7-5T9:43:21.000Z</time>
      </trkpt>
      <trkpt lat="44.55505" lon="0.75134">
        <ele>133.5</ele>
        <time>2014-7-5T9:43:21.000Z</time>
      </trkpt>
      <trkpt lat="44.55504" lon="0.75139">
        <ele>133.5</ele>
        <time>2014-7-5T9:43:21.000Z</time>
      </trkpt>
      <trkpt lat="44.55502" lon="0.75144">
        <ele>133.5</ele>
        <time>2014-7-5T9:43:21.000Z</time>
      </trkpt>
      <trkpt lat="44.55501" lon="0.75148">
        <ele>133.5</ele>
        <time>2014-7-5T9:43:21.000Z</time>
      </trkpt>
      <trkpt lat="44.55499" lon="0.75152">
        <ele>133.5</ele>
        <time>2014-7-5T9:43:21.000Z</time>
      </trkpt>
      <trkpt lat="44.55498" lon="0.75157">
        <ele>134.5</ele>
        <time>2014-7-5T9:43:21.000Z</time>
      </trkpt>
      <trkpt lat="44.55496" lon="0.75162">
        <ele>134.5</ele>
        <time>2014-7-5T9:43:21.000Z</time>
      </trkpt>
      <trkpt lat="44.55493" lon="0.75168">
        <ele>134.5</ele>
        <time>2014-7-5T9:43:21.000Z</time>
      </trkpt>
      <trkpt lat="44.5549" lon="0.75174">
        <ele>133.5</ele>
        <time>2014-7-5T9:43:21.000Z</time>
      </trkpt>
      <trkpt lat="44.55488" lon="0.7518">
        <ele>133.5</ele>
        <time>2014-7-5T9:43:21.000Z</time>
      </trkpt>
      <trkpt lat="44.55486" lon="0.75185">
        <ele>133.5</ele>
        <time>2014-7-5T9:43:21.000Z</time>
      </trkpt>
      <trkpt lat="44.55484" lon="0.7519">
        <ele>132.5</ele>
        <time>2014-7-5T9:43:21.000Z</time>
      </trkpt>
      <trkpt lat="44.55482" lon="0.75196">
        <ele>132.5</ele>
        <time>2014-7-5T9:43:21.000Z</time>
      </trkpt>
      <trkpt lat="44.55479" lon="0.752">
        <ele>131.5</ele>
        <time>2014-7-5T9:43:21.000Z</time>
      </trkpt>
      <trkpt lat="44.55476" lon="0.75204">
        <ele>131.5</ele>
        <time>2014-7-5T9:43:21.000Z</time>
      </trkpt>
      <trkpt lat="44.55472" lon="0.75208">
        <ele>132.5</ele>
        <time>2014-7-5T9:43:21.000Z</time>
      </trkpt>
      <trkpt lat="44.55469" lon="0.75213">
        <ele>132.5</ele>
        <time>2014-7-5T9:43:21.000Z</time>
      </trkpt>
      <trkpt lat="44.55465" lon="0.75218">
        <ele>132.5</ele>
        <time>2014-7-5T9:43:21.000Z</time>
      </trkpt>
      <trkpt lat="44.55461" lon="0.75222">
        <ele>132.5</ele>
        <time>2014-7-5T9:43:21.000Z</time>
      </trkpt>
      <trkpt lat="44.55458" lon="0.75227">
        <ele>132.5</ele>
        <time>2014-7-5T9:43:21.000Z</time>
      </trkpt>
      <trkpt lat="44.55454" lon="0.75232">
        <ele>132.5</ele>
        <time>2014-7-5T9:43:21.000Z</time>
      </trkpt>
      <trkpt lat="44.55451" lon="0.75236">
        <ele>132.5</ele>
        <time>2014-7-5T9:43:21.000Z</time>
      </trkpt>
      <trkpt lat="44.55447" lon="0.75241">
        <ele>131.5</ele>
        <time>2014-7-5T9:43:21.000Z</time>
      </trkpt>
      <trkpt lat="44.55443" lon="0.75247">
        <ele>132.5</ele>
        <time>2014-7-5T9:43:21.000Z</time>
      </trkpt>
      <trkpt lat="44.5544" lon="0.75251">
        <ele>132.5</ele>
        <time>2014-7-5T9:43:21.000Z</time>
      </trkpt>
      <trkpt lat="44.55437" lon="0.75255">
        <ele>132.5</ele>
        <time>2014-7-5T9:43:21.000Z</time>
      </trkpt>
      <trkpt lat="44.55433" lon="0.75259">
        <ele>132.5</ele>
        <time>2014-7-5T9:43:21.000Z</time>
      </trkpt>
      <trkpt lat="44.5543" lon="0.75263">
        <ele>132.5</ele>
        <time>2014-7-5T9:43:21.000Z</time>
      </trkpt>
      <trkpt lat="44.55427" lon="0.75265">
        <ele>132.5</ele>
        <time>2014-7-5T9:43:21.000Z</time>
      </trkpt>
      <trkpt lat="44.55423" lon="0.7527">
        <ele>132.5</ele>
        <time>2014-7-5T9:43:21.000Z</time>
      </trkpt>
      <trkpt lat="44.5542" lon="0.75275">
        <ele>132.5</ele>
        <time>2014-7-5T9:43:21.000Z</time>
      </trkpt>
      <trkpt lat="44.55416" lon="0.75278">
        <ele>131.5</ele>
        <time>2014-7-5T9:43:21.000Z</time>
      </trkpt>
      <trkpt lat="44.55414" lon="0.75281">
        <ele>130.5</ele>
        <time>2014-7-5T9:43:21.000Z</time>
      </trkpt>
      <trkpt lat="44.55408" lon="0.75286">
        <ele>130.5</ele>
        <time>2014-7-5T9:43:21.000Z</time>
      </trkpt>
      <trkpt lat="44.55404" lon="0.75289">
        <ele>130.5</ele>
        <time>2014-7-5T9:43:21.000Z</time>
      </trkpt>
      <trkpt lat="44.55399" lon="0.75293">
        <ele>129.5</ele>
        <time>2014-7-5T9:43:21.000Z</time>
      </trkpt>
      <trkpt lat="44.55389" lon="0.75302">
        <ele>129.5</ele>
        <time>2014-7-5T9:43:21.000Z</time>
      </trkpt>
      <trkpt lat="44.55385" lon="0.75305">
        <ele>129.5</ele>
        <time>2014-7-5T9:43:21.000Z</time>
      </trkpt>
      <trkpt lat="44.55379" lon="0.7531">
        <ele>129.5</ele>
        <time>2014-7-5T9:43:21.000Z</time>
      </trkpt>
      <trkpt lat="44.55374" lon="0.75314">
        <ele>129.5</ele>
        <time>2014-7-5T9:43:21.000Z</time>
      </trkpt>
      <trkpt lat="44.55368" lon="0.75319">
        <ele>129.5</ele>
        <time>2014-7-5T9:43:21.000Z</time>
      </trkpt>
      <trkpt lat="44.55361" lon="0.75323">
        <ele>128.5</ele>
        <time>2014-7-5T9:43:21.000Z</time>
      </trkpt>
      <trkpt lat="44.55356" lon="0.75327">
        <ele>127.5</ele>
        <time>2014-7-5T9:43:21.000Z</time>
      </trkpt>
      <trkpt lat="44.5535" lon="0.75331">
        <ele>127.5</ele>
        <time>2014-7-5T9:43:21.000Z</time>
      </trkpt>
      <trkpt lat="44.55344" lon="0.75336">
        <ele>126.5</ele>
        <time>2014-7-5T9:43:21.000Z</time>
      </trkpt>
      <trkpt lat="44.55338" lon="0.75339">
        <ele>126.5</ele>
        <time>2014-7-5T9:43:21.000Z</time>
      </trkpt>
      <trkpt lat="44.55332" lon="0.75342">
        <ele>127.5</ele>
        <time>2014-7-5T9:43:21.000Z</time>
      </trkpt>
      <trkpt lat="44.55327" lon="0.75345">
        <ele>126.5</ele>
        <time>2014-7-5T9:43:21.000Z</time>
      </trkpt>
      <trkpt lat="44.55321" lon="0.75347">
        <ele>126.5</ele>
        <time>2014-7-5T9:43:21.000Z</time>
      </trkpt>
      <trkpt lat="44.55315" lon="0.7535">
        <ele>126.5</ele>
        <time>2014-7-5T9:43:21.000Z</time>
      </trkpt>
      <trkpt lat="44.5531" lon="0.75353">
        <ele>126.5</ele>
        <time>2014-7-5T9:43:21.000Z</time>
      </trkpt>
      <trkpt lat="44.55306" lon="0.75356">
        <ele>125.5</ele>
        <time>2014-7-5T9:43:21.000Z</time>
      </trkpt>
      <trkpt lat="44.55301" lon="0.75358">
        <ele>125.5</ele>
        <time>2014-7-5T9:43:21.000Z</time>
      </trkpt>
      <trkpt lat="44.55297" lon="0.7536">
        <ele>124.5</ele>
        <time>2014-7-5T9:43:21.000Z</time>
      </trkpt>
      <trkpt lat="44.55292" lon="0.75364">
        <ele>124.5</ele>
        <time>2014-7-5T9:43:21.000Z</time>
      </trkpt>
      <trkpt lat="44.55287" lon="0.75366">
        <ele>124.5</ele>
        <time>2014-7-5T9:43:21.000Z</time>
      </trkpt>
      <trkpt lat="44.55281" lon="0.7537">
        <ele>124.5</ele>
        <time>2014-7-5T9:43:21.000Z</time>
      </trkpt>
      <trkpt lat="44.55279" lon="0.75371">
        <ele>125.5</ele>
        <time>2014-7-5T9:43:21.000Z</time>
      </trkpt>
      <trkpt lat="44.55274" lon="0.75374">
        <ele>126.5</ele>
        <time>2014-7-5T9:43:21.000Z</time>
      </trkpt>
      <trkpt lat="44.5527" lon="0.75377">
        <ele>126.5</ele>
        <time>2014-7-5T9:43:21.000Z</time>
      </trkpt>
      <trkpt lat="44.55265" lon="0.75381">
        <ele>128.5</ele>
        <time>2014-7-5T9:43:21.000Z</time>
      </trkpt>
      <trkpt lat="44.55264" lon="0.75382">
        <ele>129.5</ele>
        <time>2014-7-5T9:43:21.000Z</time>
      </trkpt>
      <trkpt lat="44.5526" lon="0.75384">
        <ele>128.5</ele>
        <time>2014-7-5T9:43:21.000Z</time>
      </trkpt>
      <trkpt lat="44.55257" lon="0.75385">
        <ele>128.5</ele>
        <time>2014-7-5T9:43:21.000Z</time>
      </trkpt>
      <trkpt lat="44.55251" lon="0.75387">
        <ele>129.5</ele>
        <time>2014-7-5T9:43:21.000Z</time>
      </trkpt>
      <trkpt lat="44.55245" lon="0.7539">
        <ele>128.5</ele>
        <time>2014-7-5T9:43:21.000Z</time>
      </trkpt>
      <trkpt lat="44.5524" lon="0.75394">
        <ele>127.5</ele>
        <time>2014-7-5T9:43:21.000Z</time>
      </trkpt>
      <trkpt lat="44.55236" lon="0.75396">
        <ele>127.5</ele>
        <time>2014-7-5T9:43:21.000Z</time>
      </trkpt>
      <trkpt lat="44.55232" lon="0.754">
        <ele>128.5</ele>
        <time>2014-7-5T9:43:21.000Z</time>
      </trkpt>
      <trkpt lat="44.55227" lon="0.75402">
        <ele>128.5</ele>
        <time>2014-7-5T9:43:21.000Z</time>
      </trkpt>
      <trkpt lat="44.55222" lon="0.75405">
        <ele>128.5</ele>
        <time>2014-7-5T9:43:21.000Z</time>
      </trkpt>
      <trkpt lat="44.55218" lon="0.75407">
        <ele>128.5</ele>
        <time>2014-7-5T9:43:21.000Z</time>
      </trkpt>
      <trkpt lat="44.55213" lon="0.75409">
        <ele>128.5</ele>
        <time>2014-7-5T9:43:21.000Z</time>
      </trkpt>
      <trkpt lat="44.55208" lon="0.7541">
        <ele>127.5</ele>
        <time>2014-7-5T9:43:21.000Z</time>
      </trkpt>
      <trkpt lat="44.55202" lon="0.75416">
        <ele>127.5</ele>
        <time>2014-7-5T9:43:21.000Z</time>
      </trkpt>
      <trkpt lat="44.55199" lon="0.7542">
        <ele>127.5</ele>
        <time>2014-7-5T9:43:21.000Z</time>
      </trkpt>
      <trkpt lat="44.55196" lon="0.75423">
        <ele>128.5</ele>
        <time>2014-7-5T9:43:21.000Z</time>
      </trkpt>
      <trkpt lat="44.55191" lon="0.75426">
        <ele>129.5</ele>
        <time>2014-7-5T9:43:21.000Z</time>
      </trkpt>
      <trkpt lat="44.55186" lon="0.75432">
        <ele>129.5</ele>
        <time>2014-7-5T9:43:21.000Z</time>
      </trkpt>
      <trkpt lat="44.55182" lon="0.75436">
        <ele>131.5</ele>
        <time>2014-7-5T9:43:21.000Z</time>
      </trkpt>
      <trkpt lat="44.55174" lon="0.75442">
        <ele>127.5</ele>
        <time>2014-7-5T9:43:21.000Z</time>
      </trkpt>
      <trkpt lat="44.5517" lon="0.75446">
        <ele>128.5</ele>
        <time>2014-7-5T9:45:3.000Z</time>
      </trkpt>
      <trkpt lat="44.55165" lon="0.7545">
        <ele>129.5</ele>
        <time>2014-7-5T9:45:3.000Z</time>
      </trkpt>
      <trkpt lat="44.55159" lon="0.75455">
        <ele>128.5</ele>
        <time>2014-7-5T9:45:3.000Z</time>
      </trkpt>
      <trkpt lat="44.55154" lon="0.75459">
        <ele>127.5</ele>
        <time>2014-7-5T9:45:3.000Z</time>
      </trkpt>
      <trkpt lat="44.5515" lon="0.75464">
        <ele>128.5</ele>
        <time>2014-7-5T9:45:3.000Z</time>
      </trkpt>
      <trkpt lat="44.55146" lon="0.75468">
        <ele>128.5</ele>
        <time>2014-7-5T9:45:3.000Z</time>
      </trkpt>
      <trkpt lat="44.55142" lon="0.75473">
        <ele>127.5</ele>
        <time>2014-7-5T9:45:3.000Z</time>
      </trkpt>
      <trkpt lat="44.55137" lon="0.75481">
        <ele>128.5</ele>
        <time>2014-7-5T9:45:3.000Z</time>
      </trkpt>
      <trkpt lat="44.55133" lon="0.75489">
        <ele>126.5</ele>
        <time>2014-7-5T9:45:3.000Z</time>
      </trkpt>
      <trkpt lat="44.55129" lon="0.75497">
        <ele>126.5</ele>
        <time>2014-7-5T9:45:3.000Z</time>
      </trkpt>
      <trkpt lat="44.55125" lon="0.75505">
        <ele>126.5</ele>
        <time>2014-7-5T9:45:3.000Z</time>
      </trkpt>
      <trkpt lat="44.55122" lon="0.75512">
        <ele>126.5</ele>
        <time>2014-7-5T9:45:3.000Z</time>
      </trkpt>
      <trkpt lat="44.55118" lon="0.7552">
        <ele>125.5</ele>
        <time>2014-7-5T9:45:3.000Z</time>
      </trkpt>
      <trkpt lat="44.55112" lon="0.75522">
        <ele>125.5</ele>
        <time>2014-7-5T9:45:3.000Z</time>
      </trkpt>
      <trkpt lat="44.55107" lon="0.75528">
        <ele>126.5</ele>
        <time>2014-7-5T9:45:3.000Z</time>
      </trkpt>
      <trkpt lat="44.55098" lon="0.75532">
        <ele>124.5</ele>
        <time>2014-7-5T9:45:3.000Z</time>
      </trkpt>
      <trkpt lat="44.55091" lon="0.75535">
        <ele>122.5</ele>
        <time>2014-7-5T9:45:3.000Z</time>
      </trkpt>
      <trkpt lat="44.55084" lon="0.75538">
        <ele>122.5</ele>
        <time>2014-7-5T9:45:3.000Z</time>
      </trkpt>
      <trkpt lat="44.55079" lon="0.75543">
        <ele>122.5</ele>
        <time>2014-7-5T9:45:3.000Z</time>
      </trkpt>
      <trkpt lat="44.55074" lon="0.75546">
        <ele>122.5</ele>
        <time>2014-7-5T9:45:3.000Z</time>
      </trkpt>
      <trkpt lat="44.55068" lon="0.7555">
        <ele>122.5</ele>
        <time>2014-7-5T9:45:3.000Z</time>
      </trkpt>
      <trkpt lat="44.55063" lon="0.75554">
        <ele>122.5</ele>
        <time>2014-7-5T9:45:3.000Z</time>
      </trkpt>
      <trkpt lat="44.55056" lon="0.75559">
        <ele>122.5</ele>
        <time>2014-7-5T9:45:3.000Z</time>
      </trkpt>
      <trkpt lat="44.55049" lon="0.75563">
        <ele>122.5</ele>
        <time>2014-7-5T9:45:3.000Z</time>
      </trkpt>
      <trkpt lat="44.55043" lon="0.7557">
        <ele>122.5</ele>
        <time>2014-7-5T9:45:3.000Z</time>
      </trkpt>
      <trkpt lat="44.55034" lon="0.75575">
        <ele>121.5</ele>
        <time>2014-7-5T9:45:3.000Z</time>
      </trkpt>
      <trkpt lat="44.55024" lon="0.75586">
        <ele>119.5</ele>
        <time>2014-7-5T9:45:3.000Z</time>
      </trkpt>
      <trkpt lat="44.55015" lon="0.75594">
        <ele>117.5</ele>
        <time>2014-7-5T9:45:3.000Z</time>
      </trkpt>
      <trkpt lat="44.55005" lon="0.75605">
        <ele>115.5</ele>
        <time>2014-7-5T9:45:3.000Z</time>
      </trkpt>
      <trkpt lat="44.54994" lon="0.75616">
        <ele>114.5</ele>
        <time>2014-7-5T9:45:3.000Z</time>
      </trkpt>
      <trkpt lat="44.54984" lon="0.75623">
        <ele>113.5</ele>
        <time>2014-7-5T9:45:3.000Z</time>
      </trkpt>
      <trkpt lat="44.54972" lon="0.7563">
        <ele>112.5</ele>
        <time>2014-7-5T9:45:3.000Z</time>
      </trkpt>
      <trkpt lat="44.54963" lon="0.75635">
        <ele>111.5</ele>
        <time>2014-7-5T9:45:3.000Z</time>
      </trkpt>
      <trkpt lat="44.54952" lon="0.75639">
        <ele>110.5</ele>
        <time>2014-7-5T9:45:3.000Z</time>
      </trkpt>
      <trkpt lat="44.54939" lon="0.75644">
        <ele>104.5</ele>
        <time>2014-7-5T9:45:3.000Z</time>
      </trkpt>
      <trkpt lat="44.5493" lon="0.75652">
        <ele>98.5</ele>
        <time>2014-7-5T9:45:3.000Z</time>
      </trkpt>
      <trkpt lat="44.54922" lon="0.75666">
        <ele>97.5</ele>
        <time>2014-7-5T9:45:3.000Z</time>
      </trkpt>
      <trkpt lat="44.54915" lon="0.75679">
        <ele>96.5</ele>
        <time>2014-7-5T9:45:3.000Z</time>
      </trkpt>
      <trkpt lat="44.54908" lon="0.75693">
        <ele>95.5</ele>
        <time>2014-7-5T9:45:3.000Z</time>
      </trkpt>
      <trkpt lat="44.54902" lon="0.75706">
        <ele>94.5</ele>
        <time>2014-7-5T9:45:3.000Z</time>
      </trkpt>
      <trkpt lat="44.54896" lon="0.75717">
        <ele>93.5</ele>
        <time>2014-7-5T9:45:3.000Z</time>
      </trkpt>
      <trkpt lat="44.54889" lon="0.75727">
        <ele>93.5</ele>
        <time>2014-7-5T9:45:3.000Z</time>
      </trkpt>
      <trkpt lat="44.54879" lon="0.75733">
        <ele>92.5</ele>
        <time>2014-7-5T9:45:3.000Z</time>
      </trkpt>
      <trkpt lat="44.54871" lon="0.75738">
        <ele>92.5</ele>
        <time>2014-7-5T9:45:3.000Z</time>
      </trkpt>
      <trkpt lat="44.54862" lon="0.75742">
        <ele>92.5</ele>
        <time>2014-7-5T9:45:3.000Z</time>
      </trkpt>
      <trkpt lat="44.54853" lon="0.75744">
        <ele>91.5</ele>
        <time>2014-7-5T9:45:3.000Z</time>
      </trkpt>
      <trkpt lat="44.54844" lon="0.75747">
        <ele>91.5</ele>
        <time>2014-7-5T9:45:3.000Z</time>
      </trkpt>
      <trkpt lat="44.54835" lon="0.7575">
        <ele>91.5</ele>
        <time>2014-7-5T9:45:3.000Z</time>
      </trkpt>
      <trkpt lat="44.54827" lon="0.75752">
        <ele>90.5</ele>
        <time>2014-7-5T9:45:3.000Z</time>
      </trkpt>
      <trkpt lat="44.54817" lon="0.75756">
        <ele>89.5</ele>
        <time>2014-7-5T9:45:3.000Z</time>
      </trkpt>
      <trkpt lat="44.54809" lon="0.75759">
        <ele>88.5</ele>
        <time>2014-7-5T9:45:3.000Z</time>
      </trkpt>
      <trkpt lat="44.54802" lon="0.75762">
        <ele>87.5</ele>
        <time>2014-7-5T9:45:3.000Z</time>
      </trkpt>
      <trkpt lat="44.54795" lon="0.75767">
        <ele>87.5</ele>
        <time>2014-7-5T9:45:3.000Z</time>
      </trkpt>
      <trkpt lat="44.54791" lon="0.7577">
        <ele>87.5</ele>
        <time>2014-7-5T9:45:3.000Z</time>
      </trkpt>
      <trkpt lat="44.54788" lon="0.75775">
        <ele>86.5</ele>
        <time>2014-7-5T9:45:3.000Z</time>
      </trkpt>
      <trkpt lat="44.54784" lon="0.75782">
        <ele>85.5</ele>
        <time>2014-7-5T9:45:3.000Z</time>
      </trkpt>
      <trkpt lat="44.54782" lon="0.75787">
        <ele>84.5</ele>
        <time>2014-7-5T9:45:3.000Z</time>
      </trkpt>
      <trkpt lat="44.54778" lon="0.75794">
        <ele>83.5</ele>
        <time>2014-7-5T9:45:3.000Z</time>
      </trkpt>
      <trkpt lat="44.54774" lon="0.75803">
        <ele>83.5</ele>
        <time>2014-7-5T9:45:3.000Z</time>
      </trkpt>
      <trkpt lat="44.54771" lon="0.75811">
        <ele>82.5</ele>
        <time>2014-7-5T9:45:3.000Z</time>
      </trkpt>
      <trkpt lat="44.54767" lon="0.7582">
        <ele>81.5</ele>
        <time>2014-7-5T9:45:3.000Z</time>
      </trkpt>
      <trkpt lat="44.54766" lon="0.75826">
        <ele>81.5</ele>
        <time>2014-7-5T9:45:3.000Z</time>
      </trkpt>
      <trkpt lat="44.54764" lon="0.75832">
        <ele>81.5</ele>
        <time>2014-7-5T9:45:3.000Z</time>
      </trkpt>
      <trkpt lat="44.54763" lon="0.75837">
        <ele>82.5</ele>
        <time>2014-7-5T9:45:3.000Z</time>
      </trkpt>
      <trkpt lat="44.54763" lon="0.75842">
        <ele>81.5</ele>
        <time>2014-7-5T9:45:3.000Z</time>
      </trkpt>
      <trkpt lat="44.54764" lon="0.75847">
        <ele>81.5</ele>
        <time>2014-7-5T9:45:3.000Z</time>
      </trkpt>
      <trkpt lat="44.54764" lon="0.75853">
        <ele>82.5</ele>
        <time>2014-7-5T9:45:3.000Z</time>
      </trkpt>
      <trkpt lat="44.54765" lon="0.75865">
        <ele>82.5</ele>
        <time>2014-7-5T9:45:3.000Z</time>
      </trkpt>
      <trkpt lat="44.54765" lon="0.75869">
        <ele>82.5</ele>
        <time>2014-7-5T9:45:3.000Z</time>
      </trkpt>
      <trkpt lat="44.54764" lon="0.75875">
        <ele>82.5</ele>
        <time>2014-7-5T9:45:3.000Z</time>
      </trkpt>
      <trkpt lat="44.54764" lon="0.7588">
        <ele>84.5</ele>
        <time>2014-7-5T9:45:3.000Z</time>
      </trkpt>
      <trkpt lat="44.54765" lon="0.75885">
        <ele>85.5</ele>
        <time>2014-7-5T9:45:3.000Z</time>
      </trkpt>
      <trkpt lat="44.54765" lon="0.75891">
        <ele>85.5</ele>
        <time>2014-7-5T9:45:3.000Z</time>
      </trkpt>
      <trkpt lat="44.54765" lon="0.75897">
        <ele>85.5</ele>
        <time>2014-7-5T9:45:3.000Z</time>
      </trkpt>
      <trkpt lat="44.54765" lon="0.75903">
        <ele>84.5</ele>
        <time>2014-7-5T9:45:3.000Z</time>
      </trkpt>
      <trkpt lat="44.54766" lon="0.75911">
        <ele>84.5</ele>
        <time>2014-7-5T9:45:3.000Z</time>
      </trkpt>
      <trkpt lat="44.54766" lon="0.75918">
        <ele>84.5</ele>
        <time>2014-7-5T9:45:3.000Z</time>
      </trkpt>
      <trkpt lat="44.54768" lon="0.75926">
        <ele>84.5</ele>
        <time>2014-7-5T9:45:3.000Z</time>
      </trkpt>
      <trkpt lat="44.54767" lon="0.75933">
        <ele>84.5</ele>
        <time>2014-7-5T9:45:3.000Z</time>
      </trkpt>
      <trkpt lat="44.54768" lon="0.7594">
        <ele>84.5</ele>
        <time>2014-7-5T9:45:3.000Z</time>
      </trkpt>
      <trkpt lat="44.54769" lon="0.75947">
        <ele>85.5</ele>
        <time>2014-7-5T9:45:3.000Z</time>
      </trkpt>
      <trkpt lat="44.54768" lon="0.75955">
        <ele>85.5</ele>
        <time>2014-7-5T9:45:3.000Z</time>
      </trkpt>
      <trkpt lat="44.54767" lon="0.75962">
        <ele>85.5</ele>
        <time>2014-7-5T9:45:3.000Z</time>
      </trkpt>
      <trkpt lat="44.54768" lon="0.75969">
        <ele>85.5</ele>
        <time>2014-7-5T9:45:3.000Z</time>
      </trkpt>
      <trkpt lat="44.5477" lon="0.75976">
        <ele>86.5</ele>
        <time>2014-7-5T9:45:3.000Z</time>
      </trkpt>
      <trkpt lat="44.54772" lon="0.75984">
        <ele>87.5</ele>
        <time>2014-7-5T9:45:3.000Z</time>
      </trkpt>
      <trkpt lat="44.54768" lon="0.75992">
        <ele>83.5</ele>
        <time>2014-7-5T9:45:3.000Z</time>
      </trkpt>
      <trkpt lat="44.54766" lon="0.75999">
        <ele>82.5</ele>
        <time>2014-7-5T9:45:3.000Z</time>
      </trkpt>
      <trkpt lat="44.54767" lon="0.76006">
        <ele>83.5</ele>
        <time>2014-7-5T9:45:3.000Z</time>
      </trkpt>
      <trkpt lat="44.54768" lon="0.76012">
        <ele>83.5</ele>
        <time>2014-7-5T9:45:3.000Z</time>
      </trkpt>
      <trkpt lat="44.54768" lon="0.76017">
        <ele>82.5</ele>
        <time>2014-7-5T9:45:3.000Z</time>
      </trkpt>
      <trkpt lat="44.54768" lon="0.76022">
        <ele>83.5</ele>
        <time>2014-7-5T9:45:3.000Z</time>
      </trkpt>
      <trkpt lat="44.54768" lon="0.76027">
        <ele>83.5</ele>
        <time>2014-7-5T9:45:3.000Z</time>
      </trkpt>
      <trkpt lat="44.54767" lon="0.76031">
        <ele>83.5</ele>
        <time>2014-7-5T9:45:3.000Z</time>
      </trkpt>
      <trkpt lat="44.54767" lon="0.76036">
        <ele>83.5</ele>
        <time>2014-7-5T9:45:3.000Z</time>
      </trkpt>
      <trkpt lat="44.54767" lon="0.7604">
        <ele>83.5</ele>
        <time>2014-7-5T9:45:3.000Z</time>
      </trkpt>
      <trkpt lat="44.54766" lon="0.76044">
        <ele>83.5</ele>
        <time>2014-7-5T9:45:3.000Z</time>
      </trkpt>
      <trkpt lat="44.54765" lon="0.76048">
        <ele>83.5</ele>
        <time>2014-7-5T9:45:3.000Z</time>
      </trkpt>
      <trkpt lat="44.54765" lon="0.76052">
        <ele>83.5</ele>
        <time>2014-7-5T9:45:3.000Z</time>
      </trkpt>
      <trkpt lat="44.54764" lon="0.76057">
        <ele>82.5</ele>
        <time>2014-7-5T9:45:3.000Z</time>
      </trkpt>
      <trkpt lat="44.54763" lon="0.76062">
        <ele>83.5</ele>
        <time>2014-7-5T9:45:3.000Z</time>
      </trkpt>
      <trkpt lat="44.54762" lon="0.76068">
        <ele>82.5</ele>
        <time>2014-7-5T9:46:59.000Z</time>
      </trkpt>
      <trkpt lat="44.54761" lon="0.76074">
        <ele>82.5</ele>
        <time>2014-7-5T9:46:59.000Z</time>
      </trkpt>
      <trkpt lat="44.54759" lon="0.7608">
        <ele>82.5</ele>
        <time>2014-7-5T9:46:59.000Z</time>
      </trkpt>
      <trkpt lat="44.54758" lon="0.76086">
        <ele>82.5</ele>
        <time>2014-7-5T9:46:59.000Z</time>
      </trkpt>
      <trkpt lat="44.54757" lon="0.76092">
        <ele>82.5</ele>
        <time>2014-7-5T9:46:59.000Z</time>
      </trkpt>
      <trkpt lat="44.54756" lon="0.76098">
        <ele>82.5</ele>
        <time>2014-7-5T9:46:59.000Z</time>
      </trkpt>
      <trkpt lat="44.54755" lon="0.76105">
        <ele>82.5</ele>
        <time>2014-7-5T9:46:59.000Z</time>
      </trkpt>
      <trkpt lat="44.54753" lon="0.7611">
        <ele>83.5</ele>
        <time>2014-7-5T9:46:59.000Z</time>
      </trkpt>
      <trkpt lat="44.54752" lon="0.76116">
        <ele>83.5</ele>
        <time>2014-7-5T9:46:59.000Z</time>
      </trkpt>
      <trkpt lat="44.54752" lon="0.76123">
        <ele>83.5</ele>
        <time>2014-7-5T9:46:59.000Z</time>
      </trkpt>
      <trkpt lat="44.54753" lon="0.76129">
        <ele>83.5</ele>
        <time>2014-7-5T9:46:59.000Z</time>
      </trkpt>
      <trkpt lat="44.54752" lon="0.76135">
        <ele>83.5</ele>
        <time>2014-7-5T9:46:59.000Z</time>
      </trkpt>
      <trkpt lat="44.54753" lon="0.76141">
        <ele>83.5</ele>
        <time>2014-7-5T9:46:59.000Z</time>
      </trkpt>
      <trkpt lat="44.54754" lon="0.76146">
        <ele>83.5</ele>
        <time>2014-7-5T9:46:59.000Z</time>
      </trkpt>
      <trkpt lat="44.54757" lon="0.76151">
        <ele>83.5</ele>
        <time>2014-7-5T9:46:59.000Z</time>
      </trkpt>
      <trkpt lat="44.54759" lon="0.76156">
        <ele>83.5</ele>
        <time>2014-7-5T9:46:59.000Z</time>
      </trkpt>
      <trkpt lat="44.54762" lon="0.7616">
        <ele>84.5</ele>
        <time>2014-7-5T9:46:59.000Z</time>
      </trkpt>
      <trkpt lat="44.54765" lon="0.76164">
        <ele>84.5</ele>
        <time>2014-7-5T9:46:59.000Z</time>
      </trkpt>
      <trkpt lat="44.54768" lon="0.76167">
        <ele>84.5</ele>
        <time>2014-7-5T9:46:59.000Z</time>
      </trkpt>
      <trkpt lat="44.54772" lon="0.7617">
        <ele>85.5</ele>
        <time>2014-7-5T9:46:59.000Z</time>
      </trkpt>
      <trkpt lat="44.54776" lon="0.76175">
        <ele>85.5</ele>
        <time>2014-7-5T9:46:59.000Z</time>
      </trkpt>
      <trkpt lat="44.54779" lon="0.76179">
        <ele>86.5</ele>
        <time>2014-7-5T9:46:59.000Z</time>
      </trkpt>
      <trkpt lat="44.54784" lon="0.76183">
        <ele>86.5</ele>
        <time>2014-7-5T9:46:59.000Z</time>
      </trkpt>
      <trkpt lat="44.54787" lon="0.76186">
        <ele>87.5</ele>
        <time>2014-7-5T9:46:59.000Z</time>
      </trkpt>
      <trkpt lat="44.54791" lon="0.76189">
        <ele>87.5</ele>
        <time>2014-7-5T9:46:59.000Z</time>
      </trkpt>
      <trkpt lat="44.54795" lon="0.76193">
        <ele>87.5</ele>
        <time>2014-7-5T9:46:59.000Z</time>
      </trkpt>
      <trkpt lat="44.54798" lon="0.76196">
        <ele>87.5</ele>
        <time>2014-7-5T9:46:59.000Z</time>
      </trkpt>
      <trkpt lat="44.54799" lon="0.76201">
        <ele>87.5</ele>
        <time>2014-7-5T9:46:59.000Z</time>
      </trkpt>
      <trkpt lat="44.54802" lon="0.76205">
        <ele>87.5</ele>
        <time>2014-7-5T9:46:59.000Z</time>
      </trkpt>
      <trkpt lat="44.54803" lon="0.76209">
        <ele>87.5</ele>
        <time>2014-7-5T9:46:59.000Z</time>
      </trkpt>
      <trkpt lat="44.54806" lon="0.76213">
        <ele>88.5</ele>
        <time>2014-7-5T9:46:59.000Z</time>
      </trkpt>
      <trkpt lat="44.54808" lon="0.76217">
        <ele>88.5</ele>
        <time>2014-7-5T9:46:59.000Z</time>
      </trkpt>
      <trkpt lat="44.5481" lon="0.76221">
        <ele>88.5</ele>
        <time>2014-7-5T9:46:59.000Z</time>
      </trkpt>
      <trkpt lat="44.54813" lon="0.76225">
        <ele>87.5</ele>
        <time>2014-7-5T9:46:59.000Z</time>
      </trkpt>
      <trkpt lat="44.54814" lon="0.7623">
        <ele>88.5</ele>
        <time>2014-7-5T9:46:59.000Z</time>
      </trkpt>
      <trkpt lat="44.54816" lon="0.76234">
        <ele>87.5</ele>
        <time>2014-7-5T9:46:59.000Z</time>
      </trkpt>
      <trkpt lat="44.54817" lon="0.76239">
        <ele>87.5</ele>
        <time>2014-7-5T9:46:59.000Z</time>
      </trkpt>
      <trkpt lat="44.54819" lon="0.76243">
        <ele>87.5</ele>
        <time>2014-7-5T9:46:59.000Z</time>
      </trkpt>
      <trkpt lat="44.5482" lon="0.76246">
        <ele>87.5</ele>
        <time>2014-7-5T9:46:59.000Z</time>
      </trkpt>
      <trkpt lat="44.54821" lon="0.76249">
        <ele>87.5</ele>
        <time>2014-7-5T9:46:59.000Z</time>
      </trkpt>
      <trkpt lat="44.54821" lon="0.76252">
        <ele>86.5</ele>
        <time>2014-7-5T9:46:59.000Z</time>
      </trkpt>
      <trkpt lat="44.54822" lon="0.76255">
        <ele>86.5</ele>
        <time>2014-7-5T9:46:59.000Z</time>
      </trkpt>
      <trkpt lat="44.54822" lon="0.76258">
        <ele>87.5</ele>
        <time>2014-7-5T9:46:59.000Z</time>
      </trkpt>
      <trkpt lat="44.54821" lon="0.76261">
        <ele>86.5</ele>
        <time>2014-7-5T9:46:59.000Z</time>
      </trkpt>
      <trkpt lat="44.54821" lon="0.76264">
        <ele>86.5</ele>
        <time>2014-7-5T9:46:59.000Z</time>
      </trkpt>
      <trkpt lat="44.5482" lon="0.76267">
        <ele>87.5</ele>
        <time>2014-7-5T9:46:59.000Z</time>
      </trkpt>
      <trkpt lat="44.54821" lon="0.76269">
        <ele>87.5</ele>
        <time>2014-7-5T9:46:59.000Z</time>
      </trkpt>
      <trkpt lat="44.54823" lon="0.76267">
        <ele>87.5</ele>
        <time>2014-7-5T9:46:59.000Z</time>
      </trkpt>
      <trkpt lat="44.54823" lon="0.76262">
        <ele>87.5</ele>
        <time>2014-7-5T9:46:59.000Z</time>
      </trkpt>
      <trkpt lat="44.54821" lon="0.76259">
        <ele>88.5</ele>
        <time>2014-7-5T9:46:59.000Z</time>
      </trkpt>
      <trkpt lat="44.54819" lon="0.76256">
        <ele>87.5</ele>
        <time>2014-7-5T9:46:59.000Z</time>
      </trkpt>
      <trkpt lat="44.54818" lon="0.76259">
        <ele>87.5</ele>
        <time>2014-7-5T9:46:59.000Z</time>
      </trkpt>
      <trkpt lat="44.5482" lon="0.76263">
        <ele>87.5</ele>
        <time>2014-7-5T9:46:59.000Z</time>
      </trkpt>
      <trkpt lat="44.54822" lon="0.76263">
        <ele>88.5</ele>
        <time>2014-7-5T9:46:59.000Z</time>
      </trkpt>
      <trkpt lat="44.54822" lon="0.76259">
        <ele>88.5</ele>
        <time>2014-7-5T9:46:59.000Z</time>
      </trkpt>
      <trkpt lat="44.54819" lon="0.7626">
        <ele>87.5</ele>
        <time>2014-7-5T9:46:59.000Z</time>
      </trkpt>
      <trkpt lat="44.54818" lon="0.76263">
        <ele>88.5</ele>
        <time>2014-7-5T9:46:59.000Z</time>
      </trkpt>
      <trkpt lat="44.5482" lon="0.76266">
        <ele>88.5</ele>
        <time>2014-7-5T9:46:59.000Z</time>
      </trkpt>
      <trkpt lat="44.54823" lon="0.76265">
        <ele>89.5</ele>
        <time>2014-7-5T9:46:59.000Z</time>
      </trkpt>
      <trkpt lat="44.54824" lon="0.76261">
        <ele>89.5</ele>
        <time>2014-7-5T9:46:59.000Z</time>
      </trkpt>
      <trkpt lat="44.54821" lon="0.76256">
        <ele>89.5</ele>
        <time>2014-7-5T9:46:59.000Z</time>
      </trkpt>
      <trkpt lat="44.54818" lon="0.76252">
        <ele>88.5</ele>
        <time>2014-7-5T9:46:59.000Z</time>
      </trkpt>
      <trkpt lat="44.54816" lon="0.76246">
        <ele>88.5</ele>
        <time>2014-7-5T9:46:59.000Z</time>
      </trkpt>
      <trkpt lat="44.54814" lon="0.76237">
        <ele>87.5</ele>
        <time>2014-7-5T9:46:59.000Z</time>
      </trkpt>
      <trkpt lat="44.54811" lon="0.76231">
        <ele>87.5</ele>
        <time>2014-7-5T9:46:59.000Z</time>
      </trkpt>
      <trkpt lat="44.54807" lon="0.76224">
        <ele>87.5</ele>
        <time>2014-7-5T9:46:59.000Z</time>
      </trkpt>
      <trkpt lat="44.54804" lon="0.76216">
        <ele>86.5</ele>
        <time>2014-7-5T9:46:59.000Z</time>
      </trkpt>
      <trkpt lat="44.54801" lon="0.76209">
        <ele>86.5</ele>
        <time>2014-7-5T9:46:59.000Z</time>
      </trkpt>
      <trkpt lat="44.54796" lon="0.76201">
        <ele>86.5</ele>
        <time>2014-7-5T9:46:59.000Z</time>
      </trkpt>
      <trkpt lat="44.54791" lon="0.76194">
        <ele>85.5</ele>
        <time>2014-7-5T9:46:59.000Z</time>
      </trkpt>
      <trkpt lat="44.54786" lon="0.76188">
        <ele>85.5</ele>
        <time>2014-7-5T9:46:59.000Z</time>
      </trkpt>
      <trkpt lat="44.5478" lon="0.76182">
        <ele>85.5</ele>
        <time>2014-7-5T9:46:59.000Z</time>
      </trkpt>
      <trkpt lat="44.54775" lon="0.76177">
        <ele>85.5</ele>
        <time>2014-7-5T9:46:59.000Z</time>
      </trkpt>
      <trkpt lat="44.5477" lon="0.7617">
        <ele>84.5</ele>
        <time>2014-7-5T9:46:59.000Z</time>
      </trkpt>
      <trkpt lat="44.54765" lon="0.76163">
        <ele>84.5</ele>
        <time>2014-7-5T9:46:59.000Z</time>
      </trkpt>
      <trkpt lat="44.54761" lon="0.76156">
        <ele>84.5</ele>
        <time>2014-7-5T9:46:59.000Z</time>
      </trkpt>
      <trkpt lat="44.54758" lon="0.76148">
        <ele>84.5</ele>
        <time>2014-7-5T9:46:59.000Z</time>
      </trkpt>
      <trkpt lat="44.54755" lon="0.7614">
        <ele>84.5</ele>
        <time>2014-7-5T9:46:59.000Z</time>
      </trkpt>
      <trkpt lat="44.54754" lon="0.76132">
        <ele>84.5</ele>
        <time>2014-7-5T9:46:59.000Z</time>
      </trkpt>
      <trkpt lat="44.54753" lon="0.76121">
        <ele>83.5</ele>
        <time>2014-7-5T9:46:59.000Z</time>
      </trkpt>
      <trkpt lat="44.54755" lon="0.76112">
        <ele>83.5</ele>
        <time>2014-7-5T9:46:59.000Z</time>
      </trkpt>
      <trkpt lat="44.54756" lon="0.76103">
        <ele>84.5</ele>
        <time>2014-7-5T9:46:59.000Z</time>
      </trkpt>
      <trkpt lat="44.54758" lon="0.76093">
        <ele>84.5</ele>
        <time>2014-7-5T9:46:59.000Z</time>
      </trkpt>
      <trkpt lat="44.54759" lon="0.76085">
        <ele>83.5</ele>
        <time>2014-7-5T9:46:59.000Z</time>
      </trkpt>
      <trkpt lat="44.54761" lon="0.76075">
        <ele>83.5</ele>
        <time>2014-7-5T9:46:59.000Z</time>
      </trkpt>
      <trkpt lat="44.54763" lon="0.76066">
        <ele>83.5</ele>
        <time>2014-7-5T9:46:59.000Z</time>
      </trkpt>
      <trkpt lat="44.54765" lon="0.76057">
        <ele>83.5</ele>
        <time>2014-7-5T9:46:59.000Z</time>
      </trkpt>
      <trkpt lat="44.54767" lon="0.76048">
        <ele>83.5</ele>
        <time>2014-7-5T9:46:59.000Z</time>
      </trkpt>
      <trkpt lat="44.54767" lon="0.76041">
        <ele>83.5</ele>
        <time>2014-7-5T9:46:59.000Z</time>
      </trkpt>
      <trkpt lat="44.54768" lon="0.76033">
        <ele>83.5</ele>
        <time>2014-7-5T9:46:59.000Z</time>
      </trkpt>
      <trkpt lat="44.54768" lon="0.76024">
        <ele>83.5</ele>
        <time>2014-7-5T9:46:59.000Z</time>
      </trkpt>
      <trkpt lat="44.54767" lon="0.76016">
        <ele>83.5</ele>
        <time>2014-7-5T9:46:59.000Z</time>
      </trkpt>
      <trkpt lat="44.54766" lon="0.76007">
        <ele>82.5</ele>
        <time>2014-7-5T9:46:59.000Z</time>
      </trkpt>
      <trkpt lat="44.54766" lon="0.75999">
        <ele>82.5</ele>
        <time>2014-7-5T9:46:59.000Z</time>
      </trkpt>
      <trkpt lat="44.54765" lon="0.7599">
        <ele>82.5</ele>
        <time>2014-7-5T9:46:59.000Z</time>
      </trkpt>
      <trkpt lat="44.54765" lon="0.75981">
        <ele>82.5</ele>
        <time>2014-7-5T9:46:59.000Z</time>
      </trkpt>
      <trkpt lat="44.54765" lon="0.75974">
        <ele>81.5</ele>
        <time>2014-7-5T9:46:59.000Z</time>
      </trkpt>
      <trkpt lat="44.54766" lon="0.75965">
        <ele>81.5</ele>
        <time>2014-7-5T9:46:59.000Z</time>
      </trkpt>
      <trkpt lat="44.54766" lon="0.75956">
        <ele>81.5</ele>
        <time>2014-7-5T9:46:59.000Z</time>
      </trkpt>
      <trkpt lat="44.54766" lon="0.75948">
        <ele>81.5</ele>
        <time>2014-7-5T9:46:59.000Z</time>
      </trkpt>
      <trkpt lat="44.54767" lon="0.75939">
        <ele>81.5</ele>
        <time>2014-7-5T9:46:59.000Z</time>
      </trkpt>
      <trkpt lat="44.54765" lon="0.7593">
        <ele>81.5</ele>
        <time>2014-7-5T9:49:12.000Z</time>
      </trkpt>
      <trkpt lat="44.54766" lon="0.75924">
        <ele>80.5</ele>
        <time>2014-7-5T9:49:12.000Z</time>
      </trkpt>
      <trkpt lat="44.54766" lon="0.75916">
        <ele>80.5</ele>
        <time>2014-7-5T9:49:12.000Z</time>
      </trkpt>
      <trkpt lat="44.54767" lon="0.75908">
        <ele>80.5</ele>
        <time>2014-7-5T9:49:12.000Z</time>
      </trkpt>
      <trkpt lat="44.54767" lon="0.75902">
        <ele>79.5</ele>
        <time>2014-7-5T9:49:12.000Z</time>
      </trkpt>
      <trkpt lat="44.54767" lon="0.75893">
        <ele>79.5</ele>
        <time>2014-7-5T9:49:12.000Z</time>
      </trkpt>
      <trkpt lat="44.54767" lon="0.75886">
        <ele>80.5</ele>
        <time>2014-7-5T9:49:12.000Z</time>
      </trkpt>
      <trkpt lat="44.54767" lon="0.7588">
        <ele>80.5</ele>
        <time>2014-7-5T9:49:12.000Z</time>
      </trkpt>
      <trkpt lat="44.54767" lon="0.75872">
        <ele>81.5</ele>
        <time>2014-7-5T9:49:12.000Z</time>
      </trkpt>
      <trkpt lat="44.54767" lon="0.75867">
        <ele>81.5</ele>
        <time>2014-7-5T9:49:12.000Z</time>
      </trkpt>
      <trkpt lat="44.54767" lon="0.75862">
        <ele>83.5</ele>
        <time>2014-7-5T9:49:12.000Z</time>
      </trkpt>
      <trkpt lat="44.54767" lon="0.75858">
        <ele>83.5</ele>
        <time>2014-7-5T9:49:12.000Z</time>
      </trkpt>
      <trkpt lat="44.54765" lon="0.75855">
        <ele>84.5</ele>
        <time>2014-7-5T9:49:12.000Z</time>
      </trkpt>
      <trkpt lat="44.54762" lon="0.75855">
        <ele>83.5</ele>
        <time>2014-7-5T9:49:12.000Z</time>
      </trkpt>
      <trkpt lat="44.54756" lon="0.75858">
        <ele>83.5</ele>
        <time>2014-7-5T9:49:12.000Z</time>
      </trkpt>
      <trkpt lat="44.54754" lon="0.75859">
        <ele>84.5</ele>
        <time>2014-7-5T9:49:12.000Z</time>
      </trkpt>
      <trkpt lat="44.54749" lon="0.75861">
        <ele>84.5</ele>
        <time>2014-7-5T9:49:12.000Z</time>
      </trkpt>
      <trkpt lat="44.54746" lon="0.75861">
        <ele>85.5</ele>
        <time>2014-7-5T9:49:12.000Z</time>
      </trkpt>
      <trkpt lat="44.54742" lon="0.75861">
        <ele>84.5</ele>
        <time>2014-7-5T9:49:12.000Z</time>
      </trkpt>
      <trkpt lat="44.54739" lon="0.75862">
        <ele>85.5</ele>
        <time>2014-7-5T9:49:12.000Z</time>
      </trkpt>
      <trkpt lat="44.54735" lon="0.75864">
        <ele>86.5</ele>
        <time>2014-7-5T9:49:12.000Z</time>
      </trkpt>
      <trkpt lat="44.54728" lon="0.75865">
        <ele>85.5</ele>
        <time>2014-7-5T9:49:12.000Z</time>
      </trkpt>
      <trkpt lat="44.54723" lon="0.75869">
        <ele>86.5</ele>
        <time>2014-7-5T9:49:12.000Z</time>
      </trkpt>
      <trkpt lat="44.54719" lon="0.75871">
        <ele>85.5</ele>
        <time>2014-7-5T9:49:12.000Z</time>
      </trkpt>
      <trkpt lat="44.54714" lon="0.75875">
        <ele>85.5</ele>
        <time>2014-7-5T9:49:12.000Z</time>
      </trkpt>
      <trkpt lat="44.5471" lon="0.75879">
        <ele>85.5</ele>
        <time>2014-7-5T9:49:12.000Z</time>
      </trkpt>
      <trkpt lat="44.54705" lon="0.75884">
        <ele>84.5</ele>
        <time>2014-7-5T9:49:12.000Z</time>
      </trkpt>
      <trkpt lat="44.54701" lon="0.75889">
        <ele>83.5</ele>
        <time>2014-7-5T9:49:12.000Z</time>
      </trkpt>
      <trkpt lat="44.54699" lon="0.75894">
        <ele>83.5</ele>
        <time>2014-7-5T9:49:12.000Z</time>
      </trkpt>
      <trkpt lat="44.54694" lon="0.75896">
        <ele>82.5</ele>
        <time>2014-7-5T9:49:12.000Z</time>
      </trkpt>
      <trkpt lat="44.54691" lon="0.75898">
        <ele>82.5</ele>
        <time>2014-7-5T9:49:12.000Z</time>
      </trkpt>
      <trkpt lat="44.54686" lon="0.75901">
        <ele>83.5</ele>
        <time>2014-7-5T9:49:12.000Z</time>
      </trkpt>
      <trkpt lat="44.54682" lon="0.75904">
        <ele>83.5</ele>
        <time>2014-7-5T9:49:12.000Z</time>
      </trkpt>
      <trkpt lat="44.54678" lon="0.75907">
        <ele>82.5</ele>
        <time>2014-7-5T9:49:12.000Z</time>
      </trkpt>
      <trkpt lat="44.54675" lon="0.7591">
        <ele>81.5</ele>
        <time>2014-7-5T9:49:12.000Z</time>
      </trkpt>
      <trkpt lat="44.54671" lon="0.75912">
        <ele>81.5</ele>
        <time>2014-7-5T9:49:12.000Z</time>
      </trkpt>
      <trkpt lat="44.54667" lon="0.75915">
        <ele>81.5</ele>
        <time>2014-7-5T9:49:12.000Z</time>
      </trkpt>
      <trkpt lat="44.54663" lon="0.75918">
        <ele>82.5</ele>
        <time>2014-7-5T9:49:12.000Z</time>
      </trkpt>
      <trkpt lat="44.54658" lon="0.75919">
        <ele>83.5</ele>
        <time>2014-7-5T9:49:12.000Z</time>
      </trkpt>
      <trkpt lat="44.54654" lon="0.75922">
        <ele>83.5</ele>
        <time>2014-7-5T9:49:12.000Z</time>
      </trkpt>
      <trkpt lat="44.5465" lon="0.75924">
        <ele>84.5</ele>
        <time>2014-7-5T9:49:12.000Z</time>
      </trkpt>
      <trkpt lat="44.54646" lon="0.75927">
        <ele>84.5</ele>
        <time>2014-7-5T9:49:12.000Z</time>
      </trkpt>
      <trkpt lat="44.54642" lon="0.7593">
        <ele>84.5</ele>
        <time>2014-7-5T9:49:12.000Z</time>
      </trkpt>
      <trkpt lat="44.54638" lon="0.75932">
        <ele>83.5</ele>
        <time>2014-7-5T9:49:12.000Z</time>
      </trkpt>
      <trkpt lat="44.54636" lon="0.75936">
        <ele>83.5</ele>
        <time>2014-7-5T9:49:12.000Z</time>
      </trkpt>
      <trkpt lat="44.54633" lon="0.75939">
        <ele>82.5</ele>
        <time>2014-7-5T9:49:12.000Z</time>
      </trkpt>
      <trkpt lat="44.54629" lon="0.75943">
        <ele>82.5</ele>
        <time>2014-7-5T9:49:12.000Z</time>
      </trkpt>
      <trkpt lat="44.54625" lon="0.75945">
        <ele>83.5</ele>
        <time>2014-7-5T9:49:12.000Z</time>
      </trkpt>
      <trkpt lat="44.5462" lon="0.75946">
        <ele>82.5</ele>
        <time>2014-7-5T9:49:12.000Z</time>
      </trkpt>
      <trkpt lat="44.54618" lon="0.75946">
        <ele>82.5</ele>
        <time>2014-7-5T9:49:12.000Z</time>
      </trkpt>
      <trkpt lat="44.54616" lon="0.75948">
        <ele>82.5</ele>
        <time>2014-7-5T9:49:12.000Z</time>
      </trkpt>
      <trkpt lat="44.54613" lon="0.75949">
        <ele>79.5</ele>
        <time>2014-7-5T9:49:12.000Z</time>
      </trkpt>
      <trkpt lat="44.54609" lon="0.75951">
        <ele>80.5</ele>
        <time>2014-7-5T9:49:12.000Z</time>
      </trkpt>
      <trkpt lat="44.54606" lon="0.75953">
        <ele>80.5</ele>
        <time>2014-7-5T9:49:12.000Z</time>
      </trkpt>
      <trkpt lat="44.54603" lon="0.75954">
        <ele>81.5</ele>
        <time>2014-7-5T9:49:12.000Z</time>
      </trkpt>
      <trkpt lat="44.54599" lon="0.75956">
        <ele>81.5</ele>
        <time>2014-7-5T9:49:12.000Z</time>
      </trkpt>
      <trkpt lat="44.54596" lon="0.75958">
        <ele>81.5</ele>
        <time>2014-7-5T9:49:12.000Z</time>
      </trkpt>
      <trkpt lat="44.54592" lon="0.75959">
        <ele>80.5</ele>
        <time>2014-7-5T9:49:12.000Z</time>
      </trkpt>
      <trkpt lat="44.54588" lon="0.75962">
        <ele>80.5</ele>
        <time>2014-7-5T9:49:12.000Z</time>
      </trkpt>
      <trkpt lat="44.54585" lon="0.75964">
        <ele>80.5</ele>
        <time>2014-7-5T9:49:12.000Z</time>
      </trkpt>
      <trkpt lat="44.54581" lon="0.75966">
        <ele>79.5</ele>
        <time>2014-7-5T9:49:12.000Z</time>
      </trkpt>
      <trkpt lat="44.54577" lon="0.75969">
        <ele>79.5</ele>
        <time>2014-7-5T9:49:12.000Z</time>
      </trkpt>
      <trkpt lat="44.54574" lon="0.75971">
        <ele>79.5</ele>
        <time>2014-7-5T9:49:12.000Z</time>
      </trkpt>
      <trkpt lat="44.54571" lon="0.75974">
        <ele>80.5</ele>
        <time>2014-7-5T9:49:12.000Z</time>
      </trkpt>
      <trkpt lat="44.54568" lon="0.75977">
        <ele>80.5</ele>
        <time>2014-7-5T9:49:12.000Z</time>
      </trkpt>
      <trkpt lat="44.54567" lon="0.75978">
        <ele>79.5</ele>
        <time>2014-7-5T9:49:12.000Z</time>
      </trkpt>
      <trkpt lat="44.54564" lon="0.7598">
        <ele>79.5</ele>
        <time>2014-7-5T9:49:12.000Z</time>
      </trkpt>
      <trkpt lat="44.54562" lon="0.75981">
        <ele>79.5</ele>
        <time>2014-7-5T9:49:12.000Z</time>
      </trkpt>
      <trkpt lat="44.5456" lon="0.75982">
        <ele>79.5</ele>
        <time>2014-7-5T9:49:12.000Z</time>
      </trkpt>
      <trkpt lat="44.54558" lon="0.75984">
        <ele>78.5</ele>
        <time>2014-7-5T9:49:12.000Z</time>
      </trkpt>
      <trkpt lat="44.54556" lon="0.75985">
        <ele>78.5</ele>
        <time>2014-7-5T9:49:12.000Z</time>
      </trkpt>
      <trkpt lat="44.54557" lon="0.75983">
        <ele>80.5</ele>
        <time>2014-7-5T9:49:12.000Z</time>
      </trkpt>
      <trkpt lat="44.54555" lon="0.75985">
        <ele>81.5</ele>
        <time>2014-7-5T9:49:24.000Z</time>
      </trkpt>
      <trkpt lat="44.54555" lon="0.75985">
        <ele>81.5</ele>
        <time>2014-7-5T9:49:24.000Z</time>
      </trkpt>
      <trkpt lat="44.54554" lon="0.75987">
        <ele>81.5</ele>
        <time>2014-7-5T9:50:32.000Z</time>
      </trkpt>
      <trkpt lat="44.54554" lon="0.75987">
        <ele>81.5</ele>
        <time>2014-7-5T9:50:32.000Z</time>
      </trkpt>
      <trkpt lat="44.54551" lon="0.7599">
        <ele>83.5</ele>
        <time>2014-7-5T9:50:32.000Z</time>
      </trkpt>
      <trkpt lat="44.54551" lon="0.7599">
        <ele>83.5</ele>
        <time>2014-7-5T9:50:32.000Z</time>
      </trkpt>
      <trkpt lat="44.54548" lon="0.75992">
        <ele>82.5</ele>
        <time>2014-7-5T9:50:32.000Z</time>
      </trkpt>
      <trkpt lat="44.54548" lon="0.75992">
        <ele>82.5</ele>
        <time>2014-7-5T9:50:32.000Z</time>
      </trkpt>
      <trkpt lat="44.54544" lon="0.75993">
        <ele>82.5</ele>
        <time>2014-7-5T9:50:32.000Z</time>
      </trkpt>
      <trkpt lat="44.54544" lon="0.75993">
        <ele>82.5</ele>
        <time>2014-7-5T9:50:32.000Z</time>
      </trkpt>
      <trkpt lat="44.54541" lon="0.75996">
        <ele>81.5</ele>
        <time>2014-7-5T9:50:32.000Z</time>
      </trkpt>
      <trkpt lat="44.54541" lon="0.75996">
        <ele>81.5</ele>
        <time>2014-7-5T9:50:32.000Z</time>
      </trkpt>
      <trkpt lat="44.54538" lon="0.75998">
        <ele>81.5</ele>
        <time>2014-7-5T9:50:32.000Z</time>
      </trkpt>
      <trkpt lat="44.54538" lon="0.75998">
        <ele>81.5</ele>
        <time>2014-7-5T9:50:32.000Z</time>
      </trkpt>
      <trkpt lat="44.54534" lon="0.75999">
        <ele>81.5</ele>
        <time>2014-7-5T9:50:32.000Z</time>
      </trkpt>
      <trkpt lat="44.54534" lon="0.75999">
        <ele>81.5</ele>
        <time>2014-7-5T9:50:32.000Z</time>
      </trkpt>
      <trkpt lat="44.5453" lon="0.75999">
        <ele>81.5</ele>
        <time>2014-7-5T9:50:32.000Z</time>
      </trkpt>
      <trkpt lat="44.5453" lon="0.75999">
        <ele>81.5</ele>
        <time>2014-7-5T9:50:32.000Z</time>
      </trkpt>
      <trkpt lat="44.54525" lon="0.76">
        <ele>80.5</ele>
        <time>2014-7-5T9:50:32.000Z</time>
      </trkpt>
      <trkpt lat="44.54525" lon="0.76">
        <ele>80.5</ele>
        <time>2014-7-5T9:50:32.000Z</time>
      </trkpt>
      <trkpt lat="44.5452" lon="0.76001">
        <ele>80.5</ele>
        <time>2014-7-5T9:50:32.000Z</time>
      </trkpt>
      <trkpt lat="44.5452" lon="0.76001">
        <ele>80.5</ele>
        <time>2014-7-5T9:50:32.000Z</time>
      </trkpt>
      <trkpt lat="44.54516" lon="0.76002">
        <ele>80.5</ele>
        <time>2014-7-5T9:50:32.000Z</time>
      </trkpt>
      <trkpt lat="44.54516" lon="0.76002">
        <ele>80.5</ele>
        <time>2014-7-5T9:50:32.000Z</time>
      </trkpt>
      <trkpt lat="44.54511" lon="0.76002">
        <ele>80.5</ele>
        <time>2014-7-5T9:50:32.000Z</time>
      </trkpt>
      <trkpt lat="44.54511" lon="0.76002">
        <ele>80.5</ele>
        <time>2014-7-5T9:50:32.000Z</time>
      </trkpt>
      <trkpt lat="44.54506" lon="0.76003">
        <ele>80.5</ele>
        <time>2014-7-5T9:50:32.000Z</time>
      </trkpt>
      <trkpt lat="44.54506" lon="0.76003">
        <ele>80.5</ele>
        <time>2014-7-5T9:50:32.000Z</time>
      </trkpt>
      <trkpt lat="44.54502" lon="0.76003">
        <ele>80.5</ele>
        <time>2014-7-5T9:50:32.000Z</time>
      </trkpt>
      <trkpt lat="44.54502" lon="0.76003">
        <ele>80.5</ele>
        <time>2014-7-5T9:50:32.000Z</time>
      </trkpt>
      <trkpt lat="44.54497" lon="0.76004">
        <ele>80.5</ele>
        <time>2014-7-5T9:50:32.000Z</time>
      </trkpt>
      <trkpt lat="44.54497" lon="0.76004">
        <ele>80.5</ele>
        <time>2014-7-5T9:50:32.000Z</time>
      </trkpt>
      <trkpt lat="44.54493" lon="0.76004">
        <ele>80.5</ele>
        <time>2014-7-5T9:50:32.000Z</time>
      </trkpt>
      <trkpt lat="44.54493" lon="0.76004">
        <ele>80.5</ele>
        <time>2014-7-5T9:50:32.000Z</time>
      </trkpt>
      <trkpt lat="44.54489" lon="0.76005">
        <ele>81.5</ele>
        <time>2014-7-5T9:50:32.000Z</time>
      </trkpt>
      <trkpt lat="44.54489" lon="0.76005">
        <ele>81.5</ele>
        <time>2014-7-5T9:50:32.000Z</time>
      </trkpt>
      <trkpt lat="44.54485" lon="0.76005">
        <ele>81.5</ele>
        <time>2014-7-5T9:50:32.000Z</time>
      </trkpt>
      <trkpt lat="44.54485" lon="0.76005">
        <ele>81.5</ele>
        <time>2014-7-5T9:50:32.000Z</time>
      </trkpt>
      <trkpt lat="44.54481" lon="0.76006">
        <ele>82.5</ele>
        <time>2014-7-5T9:50:32.000Z</time>
      </trkpt>
      <trkpt lat="44.54481" lon="0.76006">
        <ele>82.5</ele>
        <time>2014-7-5T9:50:32.000Z</time>
      </trkpt>
      <trkpt lat="44.54477" lon="0.76006">
        <ele>82.5</ele>
        <time>2014-7-5T9:50:32.000Z</time>
      </trkpt>
      <trkpt lat="44.54477" lon="0.76006">
        <ele>82.5</ele>
        <time>2014-7-5T9:50:32.000Z</time>
      </trkpt>
      <trkpt lat="44.54473" lon="0.76007">
        <ele>82.5</ele>
        <time>2014-7-5T9:50:32.000Z</time>
      </trkpt>
      <trkpt lat="44.54473" lon="0.76007">
        <ele>82.5</ele>
        <time>2014-7-5T9:50:32.000Z</time>
      </trkpt>
      <trkpt lat="44.5447" lon="0.76008">
        <ele>83.5</ele>
        <time>2014-7-5T9:50:32.000Z</time>
      </trkpt>
      <trkpt lat="44.5447" lon="0.76008">
        <ele>83.5</ele>
        <time>2014-7-5T9:50:32.000Z</time>
      </trkpt>
      <trkpt lat="44.54466" lon="0.76008">
        <ele>82.5</ele>
        <time>2014-7-5T9:50:32.000Z</time>
      </trkpt>
      <trkpt lat="44.54466" lon="0.76008">
        <ele>82.5</ele>
        <time>2014-7-5T9:50:32.000Z</time>
      </trkpt>
      <trkpt lat="44.54463" lon="0.76009">
        <ele>83.5</ele>
        <time>2014-7-5T9:50:32.000Z</time>
      </trkpt>
      <trkpt lat="44.54463" lon="0.76009">
        <ele>83.5</ele>
        <time>2014-7-5T9:50:32.000Z</time>
      </trkpt>
      <trkpt lat="44.5446" lon="0.76009">
        <ele>83.5</ele>
        <time>2014-7-5T9:50:32.000Z</time>
      </trkpt>
      <trkpt lat="44.5446" lon="0.76009">
        <ele>83.5</ele>
        <time>2014-7-5T9:50:32.000Z</time>
      </trkpt>
      <trkpt lat="44.54456" lon="0.76009">
        <ele>84.5</ele>
        <time>2014-7-5T9:50:32.000Z</time>
      </trkpt>
      <trkpt lat="44.54456" lon="0.76009">
        <ele>84.5</ele>
        <time>2014-7-5T9:50:32.000Z</time>
      </trkpt>
      <trkpt lat="44.54453" lon="0.76009">
        <ele>85.5</ele>
        <time>2014-7-5T9:50:32.000Z</time>
      </trkpt>
      <trkpt lat="44.54453" lon="0.76009">
        <ele>85.5</ele>
        <time>2014-7-5T9:50:32.000Z</time>
      </trkpt>
      <trkpt lat="44.5445" lon="0.76009">
        <ele>86.5</ele>
        <time>2014-7-5T9:50:32.000Z</time>
      </trkpt>
      <trkpt lat="44.5445" lon="0.76009">
        <ele>86.5</ele>
        <time>2014-7-5T9:50:32.000Z</time>
      </trkpt>
      <trkpt lat="44.54447" lon="0.7601">
        <ele>86.5</ele>
        <time>2014-7-5T9:50:32.000Z</time>
      </trkpt>
      <trkpt lat="44.54447" lon="0.7601">
        <ele>86.5</ele>
        <time>2014-7-5T9:50:32.000Z</time>
      </trkpt>
      <trkpt lat="44.54444" lon="0.7601">
        <ele>86.5</ele>
        <time>2014-7-5T9:50:32.000Z</time>
      </trkpt>
      <trkpt lat="44.54444" lon="0.7601">
        <ele>86.5</ele>
        <time>2014-7-5T9:50:32.000Z</time>
      </trkpt>
      <trkpt lat="44.54441" lon="0.7601">
        <ele>86.5</ele>
        <time>2014-7-5T9:50:32.000Z</time>
      </trkpt>
      <trkpt lat="44.54441" lon="0.7601">
        <ele>86.5</ele>
        <time>2014-7-5T9:50:32.000Z</time>
      </trkpt>
      <trkpt lat="44.54439" lon="0.76011">
        <ele>86.5</ele>
        <time>2014-7-5T9:50:32.000Z</time>
      </trkpt>
      <trkpt lat="44.54439" lon="0.76011">
        <ele>86.5</ele>
        <time>2014-7-5T9:50:32.000Z</time>
      </trkpt>
      <trkpt lat="44.54436" lon="0.76011">
        <ele>87.5</ele>
        <time>2014-7-5T9:50:32.000Z</time>
      </trkpt>
      <trkpt lat="44.54436" lon="0.76011">
        <ele>87.5</ele>
        <time>2014-7-5T9:50:32.000Z</time>
      </trkpt>
      <trkpt lat="44.54434" lon="0.76011">
        <ele>87.5</ele>
        <time>2014-7-5T9:50:32.000Z</time>
      </trkpt>
      <trkpt lat="44.54434" lon="0.76011">
        <ele>87.5</ele>
        <time>2014-7-5T9:50:32.000Z</time>
      </trkpt>
      <trkpt lat="44.54431" lon="0.76011">
        <ele>88.5</ele>
        <time>2014-7-5T9:50:32.000Z</time>
      </trkpt>
      <trkpt lat="44.54431" lon="0.76011">
        <ele>88.5</ele>
        <time>2014-7-5T9:50:32.000Z</time>
      </trkpt>
      <trkpt lat="44.54429" lon="0.76011">
        <ele>88.5</ele>
        <time>2014-7-5T9:50:32.000Z</time>
      </trkpt>
      <trkpt lat="44.54429" lon="0.76011">
        <ele>88.5</ele>
        <time>2014-7-5T9:50:32.000Z</time>
      </trkpt>
      <trkpt lat="44.54426" lon="0.76011">
        <ele>90.5</ele>
        <time>2014-7-5T9:50:32.000Z</time>
      </trkpt>
      <trkpt lat="44.54426" lon="0.76011">
        <ele>90.5</ele>
        <time>2014-7-5T9:50:32.000Z</time>
      </trkpt>
      <trkpt lat="44.54422" lon="0.76011">
        <ele>90.5</ele>
        <time>2014-7-5T9:50:32.000Z</time>
      </trkpt>
      <trkpt lat="44.54422" lon="0.76011">
        <ele>90.5</ele>
        <time>2014-7-5T9:50:32.000Z</time>
      </trkpt>
      <trkpt lat="44.5442" lon="0.76011">
        <ele>91.5</ele>
        <time>2014-7-5T9:50:32.000Z</time>
      </trkpt>
      <trkpt lat="44.5442" lon="0.76011">
        <ele>91.5</ele>
        <time>2014-7-5T9:50:32.000Z</time>
      </trkpt>
      <trkpt lat="44.54417" lon="0.76011">
        <ele>91.5</ele>
        <time>2014-7-5T9:50:32.000Z</time>
      </trkpt>
      <trkpt lat="44.54417" lon="0.76011">
        <ele>91.5</ele>
        <time>2014-7-5T9:50:32.000Z</time>
      </trkpt>
      <trkpt lat="44.54415" lon="0.76011">
        <ele>92.5</ele>
        <time>2014-7-5T9:50:32.000Z</time>
      </trkpt>
      <trkpt lat="44.54415" lon="0.76011">
        <ele>92.5</ele>
        <time>2014-7-5T9:50:32.000Z</time>
      </trkpt>
      <trkpt lat="44.54411" lon="0.7601">
        <ele>92.5</ele>
        <time>2014-7-5T9:50:32.000Z</time>
      </trkpt>
      <trkpt lat="44.54411" lon="0.7601">
        <ele>92.5</ele>
        <time>2014-7-5T9:50:32.000Z</time>
      </trkpt>
      <trkpt lat="44.54408" lon="0.76009">
        <ele>93.5</ele>
        <time>2014-7-5T9:50:32.000Z</time>
      </trkpt>
      <trkpt lat="44.54408" lon="0.76009">
        <ele>93.5</ele>
        <time>2014-7-5T9:50:32.000Z</time>
      </trkpt>
      <trkpt lat="44.54406" lon="0.76008">
        <ele>94.5</ele>
        <time>2014-7-5T9:50:32.000Z</time>
      </trkpt>
      <trkpt lat="44.54406" lon="0.76008">
        <ele>94.5</ele>
        <time>2014-7-5T9:50:32.000Z</time>
      </trkpt>
      <trkpt lat="44.54404" lon="0.76008">
        <ele>94.5</ele>
        <time>2014-7-5T9:50:32.000Z</time>
      </trkpt>
      <trkpt lat="44.54404" lon="0.76008">
        <ele>94.5</ele>
        <time>2014-7-5T9:50:32.000Z</time>
      </trkpt>
      <trkpt lat="44.54402" lon="0.76007">
        <ele>94.5</ele>
        <time>2014-7-5T9:50:32.000Z</time>
      </trkpt>
      <trkpt lat="44.54402" lon="0.76007">
        <ele>94.5</ele>
        <time>2014-7-5T9:50:32.000Z</time>
      </trkpt>
      <trkpt lat="44.54399" lon="0.76006">
        <ele>94.5</ele>
        <time>2014-7-5T9:50:32.000Z</time>
      </trkpt>
      <trkpt lat="44.54399" lon="0.76006">
        <ele>94.5</ele>
        <time>2014-7-5T9:50:32.000Z</time>
      </trkpt>
      <trkpt lat="44.54396" lon="0.76005">
        <ele>94.5</ele>
        <time>2014-7-5T9:50:32.000Z</time>
      </trkpt>
      <trkpt lat="44.54396" lon="0.76005">
        <ele>94.5</ele>
        <time>2014-7-5T9:50:32.000Z</time>
      </trkpt>
      <trkpt lat="44.54393" lon="0.76004">
        <ele>93.5</ele>
        <time>2014-7-5T9:50:32.000Z</time>
      </trkpt>
      <trkpt lat="44.54393" lon="0.76004">
        <ele>93.5</ele>
        <time>2014-7-5T9:50:32.000Z</time>
      </trkpt>
      <trkpt lat="44.5439" lon="0.76004">
        <ele>93.5</ele>
        <time>2014-7-5T9:50:32.000Z</time>
      </trkpt>
      <trkpt lat="44.5439" lon="0.76004">
        <ele>93.5</ele>
        <time>2014-7-5T9:50:32.000Z</time>
      </trkpt>
      <trkpt lat="44.54387" lon="0.76003">
        <ele>92.5</ele>
        <time>2014-7-5T9:50:32.000Z</time>
      </trkpt>
      <trkpt lat="44.54387" lon="0.76003">
        <ele>92.5</ele>
        <time>2014-7-5T9:51:24.000Z</time>
      </trkpt>
      <trkpt lat="44.54384" lon="0.76003">
        <ele>92.5</ele>
        <time>2014-7-5T9:51:24.000Z</time>
      </trkpt>
      <trkpt lat="44.54384" lon="0.76003">
        <ele>92.5</ele>
        <time>2014-7-5T9:51:24.000Z</time>
      </trkpt>
      <trkpt lat="44.54382" lon="0.76003">
        <ele>92.5</ele>
        <time>2014-7-5T9:51:24.000Z</time>
      </trkpt>
      <trkpt lat="44.54382" lon="0.76003">
        <ele>92.5</ele>
        <time>2014-7-5T9:51:24.000Z</time>
      </trkpt>
      <trkpt lat="44.54379" lon="0.76003">
        <ele>92.5</ele>
        <time>2014-7-5T9:51:24.000Z</time>
      </trkpt>
      <trkpt lat="44.54379" lon="0.76003">
        <ele>92.5</ele>
        <time>2014-7-5T9:51:24.000Z</time>
      </trkpt>
      <trkpt lat="44.54376" lon="0.76003">
        <ele>92.5</ele>
        <time>2014-7-5T9:51:24.000Z</time>
      </trkpt>
      <trkpt lat="44.54376" lon="0.76003">
        <ele>92.5</ele>
        <time>2014-7-5T9:51:24.000Z</time>
      </trkpt>
      <trkpt lat="44.54374" lon="0.76002">
        <ele>92.5</ele>
        <time>2014-7-5T9:51:24.000Z</time>
      </trkpt>
      <trkpt lat="44.54374" lon="0.76002">
        <ele>92.5</ele>
        <time>2014-7-5T9:51:24.000Z</time>
      </trkpt>
      <trkpt lat="44.54371" lon="0.76002">
        <ele>92.5</ele>
        <time>2014-7-5T9:51:24.000Z</time>
      </trkpt>
      <trkpt lat="44.54371" lon="0.76002">
        <ele>92.5</ele>
        <time>2014-7-5T9:51:24.000Z</time>
      </trkpt>
      <trkpt lat="44.54368" lon="0.76002">
        <ele>92.5</ele>
        <time>2014-7-5T9:51:24.000Z</time>
      </trkpt>
      <trkpt lat="44.54368" lon="0.76002">
        <ele>92.5</ele>
        <time>2014-7-5T9:51:24.000Z</time>
      </trkpt>
      <trkpt lat="44.54365" lon="0.76001">
        <ele>92.5</ele>
        <time>2014-7-5T9:51:24.000Z</time>
      </trkpt>
      <trkpt lat="44.54365" lon="0.76001">
        <ele>92.5</ele>
        <time>2014-7-5T9:51:24.000Z</time>
      </trkpt>
      <trkpt lat="44.54362" lon="0.76001">
        <ele>92.5</ele>
        <time>2014-7-5T9:51:24.000Z</time>
      </trkpt>
      <trkpt lat="44.54362" lon="0.76001">
        <ele>92.5</ele>
        <time>2014-7-5T9:51:24.000Z</time>
      </trkpt>
      <trkpt lat="44.5436" lon="0.76001">
        <ele>92.5</ele>
        <time>2014-7-5T9:51:24.000Z</time>
      </trkpt>
      <trkpt lat="44.5436" lon="0.76001">
        <ele>92.5</ele>
        <time>2014-7-5T9:51:24.000Z</time>
      </trkpt>
      <trkpt lat="44.54357" lon="0.76">
        <ele>92.5</ele>
        <time>2014-7-5T9:51:24.000Z</time>
      </trkpt>
      <trkpt lat="44.54357" lon="0.76">
        <ele>92.5</ele>
        <time>2014-7-5T9:51:24.000Z</time>
      </trkpt>
      <trkpt lat="44.54354" lon="0.76">
        <ele>92.5</ele>
        <time>2014-7-5T9:51:24.000Z</time>
      </trkpt>
      <trkpt lat="44.54354" lon="0.76">
        <ele>92.5</ele>
        <time>2014-7-5T9:51:24.000Z</time>
      </trkpt>
      <trkpt lat="44.54351" lon="0.75999">
        <ele>91.5</ele>
        <time>2014-7-5T9:51:24.000Z</time>
      </trkpt>
      <trkpt lat="44.54351" lon="0.75999">
        <ele>91.5</ele>
        <time>2014-7-5T9:51:24.000Z</time>
      </trkpt>
      <trkpt lat="44.54348" lon="0.75998">
        <ele>92.5</ele>
        <time>2014-7-5T9:51:24.000Z</time>
      </trkpt>
      <trkpt lat="44.54348" lon="0.75998">
        <ele>92.5</ele>
        <time>2014-7-5T9:51:24.000Z</time>
      </trkpt>
      <trkpt lat="44.54345" lon="0.75998">
        <ele>91.5</ele>
        <time>2014-7-5T9:51:24.000Z</time>
      </trkpt>
      <trkpt lat="44.54345" lon="0.75998">
        <ele>91.5</ele>
        <time>2014-7-5T9:51:24.000Z</time>
      </trkpt>
      <trkpt lat="44.54342" lon="0.75997">
        <ele>92.5</ele>
        <time>2014-7-5T9:51:24.000Z</time>
      </trkpt>
      <trkpt lat="44.54342" lon="0.75997">
        <ele>92.5</ele>
        <time>2014-7-5T9:51:24.000Z</time>
      </trkpt>
      <trkpt lat="44.54339" lon="0.75997">
        <ele>92.5</ele>
        <time>2014-7-5T9:51:24.000Z</time>
      </trkpt>
      <trkpt lat="44.54339" lon="0.75997">
        <ele>92.5</ele>
        <time>2014-7-5T9:51:24.000Z</time>
      </trkpt>
      <trkpt lat="44.54337" lon="0.75996">
        <ele>93.5</ele>
        <time>2014-7-5T9:51:24.000Z</time>
      </trkpt>
      <trkpt lat="44.54337" lon="0.75996">
        <ele>93.5</ele>
        <time>2014-7-5T9:51:24.000Z</time>
      </trkpt>
      <trkpt lat="44.54334" lon="0.75996">
        <ele>93.5</ele>
        <time>2014-7-5T9:51:24.000Z</time>
      </trkpt>
      <trkpt lat="44.54334" lon="0.75996">
        <ele>93.5</ele>
        <time>2014-7-5T9:51:24.000Z</time>
      </trkpt>
      <trkpt lat="44.54331" lon="0.75995">
        <ele>93.5</ele>
        <time>2014-7-5T9:51:24.000Z</time>
      </trkpt>
      <trkpt lat="44.54331" lon="0.75995">
        <ele>93.5</ele>
        <time>2014-7-5T9:51:24.000Z</time>
      </trkpt>
      <trkpt lat="44.54329" lon="0.75995">
        <ele>93.5</ele>
        <time>2014-7-5T9:51:24.000Z</time>
      </trkpt>
      <trkpt lat="44.54329" lon="0.75995">
        <ele>93.5</ele>
        <time>2014-7-5T9:51:24.000Z</time>
      </trkpt>
      <trkpt lat="44.54326" lon="0.75995">
        <ele>94.5</ele>
        <time>2014-7-5T9:51:24.000Z</time>
      </trkpt>
      <trkpt lat="44.54326" lon="0.75995">
        <ele>94.5</ele>
        <time>2014-7-5T9:51:24.000Z</time>
      </trkpt>
      <trkpt lat="44.54323" lon="0.75995">
        <ele>94.5</ele>
        <time>2014-7-5T9:51:24.000Z</time>
      </trkpt>
      <trkpt lat="44.54323" lon="0.75995">
        <ele>94.5</ele>
        <time>2014-7-5T9:51:24.000Z</time>
      </trkpt>
      <trkpt lat="44.5432" lon="0.75995">
        <ele>94.5</ele>
        <time>2014-7-5T9:51:24.000Z</time>
      </trkpt>
      <trkpt lat="44.5432" lon="0.75995">
        <ele>94.5</ele>
        <time>2014-7-5T9:51:24.000Z</time>
      </trkpt>
      <trkpt lat="44.54318" lon="0.75995">
        <ele>94.5</ele>
        <time>2014-7-5T9:51:24.000Z</time>
      </trkpt>
      <trkpt lat="44.54318" lon="0.75995">
        <ele>94.5</ele>
        <time>2014-7-5T9:51:24.000Z</time>
      </trkpt>
      <trkpt lat="44.54315" lon="0.75995">
        <ele>94.5</ele>
        <time>2014-7-5T9:51:24.000Z</time>
      </trkpt>
      <trkpt lat="44.54315" lon="0.75995">
        <ele>94.5</ele>
        <time>2014-7-5T9:51:24.000Z</time>
      </trkpt>
      <trkpt lat="44.54313" lon="0.75996">
        <ele>94.5</ele>
        <time>2014-7-5T9:51:24.000Z</time>
      </trkpt>
      <trkpt lat="44.54313" lon="0.75996">
        <ele>94.5</ele>
        <time>2014-7-5T9:51:24.000Z</time>
      </trkpt>
      <trkpt lat="44.5431" lon="0.75997">
        <ele>93.5</ele>
        <time>2014-7-5T9:51:24.000Z</time>
      </trkpt>
      <trkpt lat="44.5431" lon="0.75997">
        <ele>93.5</ele>
        <time>2014-7-5T9:51:24.000Z</time>
      </trkpt>
      <trkpt lat="44.54308" lon="0.75999">
        <ele>94.5</ele>
        <time>2014-7-5T9:51:24.000Z</time>
      </trkpt>
      <trkpt lat="44.54308" lon="0.75999">
        <ele>94.5</ele>
        <time>2014-7-5T9:51:24.000Z</time>
      </trkpt>
      <trkpt lat="44.54306" lon="0.76">
        <ele>94.5</ele>
        <time>2014-7-5T9:51:24.000Z</time>
      </trkpt>
      <trkpt lat="44.54306" lon="0.76">
        <ele>94.5</ele>
        <time>2014-7-5T9:51:24.000Z</time>
      </trkpt>
      <trkpt lat="44.54304" lon="0.76002">
        <ele>94.5</ele>
        <time>2014-7-5T9:51:24.000Z</time>
      </trkpt>
      <trkpt lat="44.54304" lon="0.76002">
        <ele>94.5</ele>
        <time>2014-7-5T9:51:24.000Z</time>
      </trkpt>
      <trkpt lat="44.54302" lon="0.76004">
        <ele>94.5</ele>
        <time>2014-7-5T9:51:24.000Z</time>
      </trkpt>
      <trkpt lat="44.54302" lon="0.76004">
        <ele>94.5</ele>
        <time>2014-7-5T9:51:24.000Z</time>
      </trkpt>
      <trkpt lat="44.543" lon="0.76005">
        <ele>96.5</ele>
        <time>2014-7-5T9:51:24.000Z</time>
      </trkpt>
      <trkpt lat="44.543" lon="0.76005">
        <ele>96.5</ele>
        <time>2014-7-5T9:51:24.000Z</time>
      </trkpt>
      <trkpt lat="44.54298" lon="0.76007">
        <ele>98.5</ele>
        <time>2014-7-5T9:51:24.000Z</time>
      </trkpt>
      <trkpt lat="44.54298" lon="0.76007">
        <ele>98.5</ele>
        <time>2014-7-5T9:51:24.000Z</time>
      </trkpt>
      <trkpt lat="44.54296" lon="0.76009">
        <ele>98.5</ele>
        <time>2014-7-5T9:51:24.000Z</time>
      </trkpt>
      <trkpt lat="44.54296" lon="0.76009">
        <ele>98.5</ele>
        <time>2014-7-5T9:51:24.000Z</time>
      </trkpt>
      <trkpt lat="44.54295" lon="0.76011">
        <ele>98.5</ele>
        <time>2014-7-5T9:51:24.000Z</time>
      </trkpt>
      <trkpt lat="44.54295" lon="0.76011">
        <ele>98.5</ele>
        <time>2014-7-5T9:51:24.000Z</time>
      </trkpt>
      <trkpt lat="44.54293" lon="0.76013">
        <ele>98.5</ele>
        <time>2014-7-5T9:51:24.000Z</time>
      </trkpt>
      <trkpt lat="44.54293" lon="0.76013">
        <ele>98.5</ele>
        <time>2014-7-5T9:51:24.000Z</time>
      </trkpt>
      <trkpt lat="44.54291" lon="0.76015">
        <ele>99.5</ele>
        <time>2014-7-5T9:51:24.000Z</time>
      </trkpt>
      <trkpt lat="44.54291" lon="0.76015">
        <ele>99.5</ele>
        <time>2014-7-5T9:51:24.000Z</time>
      </trkpt>
      <trkpt lat="44.54289" lon="0.76017">
        <ele>99.5</ele>
        <time>2014-7-5T9:51:24.000Z</time>
      </trkpt>
      <trkpt lat="44.54289" lon="0.76017">
        <ele>99.5</ele>
        <time>2014-7-5T9:51:24.000Z</time>
      </trkpt>
      <trkpt lat="44.54287" lon="0.76019">
        <ele>99.5</ele>
        <time>2014-7-5T9:51:24.000Z</time>
      </trkpt>
      <trkpt lat="44.54287" lon="0.76019">
        <ele>99.5</ele>
        <time>2014-7-5T9:51:24.000Z</time>
      </trkpt>
      <trkpt lat="44.54285" lon="0.76021">
        <ele>99.5</ele>
        <time>2014-7-5T9:51:24.000Z</time>
      </trkpt>
      <trkpt lat="44.54285" lon="0.76021">
        <ele>99.5</ele>
        <time>2014-7-5T9:51:24.000Z</time>
      </trkpt>
      <trkpt lat="44.54282" lon="0.76022">
        <ele>99.5</ele>
        <time>2014-7-5T9:51:24.000Z</time>
      </trkpt>
      <trkpt lat="44.54282" lon="0.76022">
        <ele>99.5</ele>
        <time>2014-7-5T9:51:24.000Z</time>
      </trkpt>
      <trkpt lat="44.5428" lon="0.76024">
        <ele>100.5</ele>
        <time>2014-7-5T9:51:24.000Z</time>
      </trkpt>
      <trkpt lat="44.5428" lon="0.76024">
        <ele>100.5</ele>
        <time>2014-7-5T9:51:24.000Z</time>
      </trkpt>
      <trkpt lat="44.54278" lon="0.76025">
        <ele>102.5</ele>
        <time>2014-7-5T9:51:24.000Z</time>
      </trkpt>
      <trkpt lat="44.54278" lon="0.76025">
        <ele>102.5</ele>
        <time>2014-7-5T9:51:24.000Z</time>
      </trkpt>
      <trkpt lat="44.54275" lon="0.76028">
        <ele>101.5</ele>
        <time>2014-7-5T9:51:24.000Z</time>
      </trkpt>
      <trkpt lat="44.54275" lon="0.76028">
        <ele>101.5</ele>
        <time>2014-7-5T9:51:24.000Z</time>
      </trkpt>
      <trkpt lat="44.54274" lon="0.7603">
        <ele>102.5</ele>
        <time>2014-7-5T9:51:24.000Z</time>
      </trkpt>
      <trkpt lat="44.54274" lon="0.7603">
        <ele>102.5</ele>
        <time>2014-7-5T9:51:24.000Z</time>
      </trkpt>
      <trkpt lat="44.54272" lon="0.76032">
        <ele>102.5</ele>
        <time>2014-7-5T9:51:24.000Z</time>
      </trkpt>
      <trkpt lat="44.54272" lon="0.76032">
        <ele>102.5</ele>
        <time>2014-7-5T9:51:24.000Z</time>
      </trkpt>
      <trkpt lat="44.5427" lon="0.76035">
        <ele>102.5</ele>
        <time>2014-7-5T9:51:24.000Z</time>
      </trkpt>
      <trkpt lat="44.5427" lon="0.76035">
        <ele>102.5</ele>
        <time>2014-7-5T9:51:24.000Z</time>
      </trkpt>
      <trkpt lat="44.54268" lon="0.76037">
        <ele>102.5</ele>
        <time>2014-7-5T9:51:24.000Z</time>
      </trkpt>
      <trkpt lat="44.54268" lon="0.76037">
        <ele>102.5</ele>
        <time>2014-7-5T9:51:24.000Z</time>
      </trkpt>
      <trkpt lat="44.54265" lon="0.7604">
        <ele>103.5</ele>
        <time>2014-7-5T9:51:24.000Z</time>
      </trkpt>
      <trkpt lat="44.54265" lon="0.7604">
        <ele>103.5</ele>
        <time>2014-7-5T9:51:24.000Z</time>
      </trkpt>
      <trkpt lat="44.54263" lon="0.76042">
        <ele>103.5</ele>
        <time>2014-7-5T9:53:11.000Z</time>
      </trkpt>
      <trkpt lat="44.54263" lon="0.76042">
        <ele>103.5</ele>
        <time>2014-7-5T9:53:11.000Z</time>
      </trkpt>
      <trkpt lat="44.54262" lon="0.76045">
        <ele>103.5</ele>
        <time>2014-7-5T9:53:11.000Z</time>
      </trkpt>
      <trkpt lat="44.54262" lon="0.76045">
        <ele>103.5</ele>
        <time>2014-7-5T9:53:11.000Z</time>
      </trkpt>
      <trkpt lat="44.5426" lon="0.76048">
        <ele>104.5</ele>
        <time>2014-7-5T9:53:11.000Z</time>
      </trkpt>
      <trkpt lat="44.5426" lon="0.76048">
        <ele>104.5</ele>
        <time>2014-7-5T9:53:11.000Z</time>
      </trkpt>
      <trkpt lat="44.54259" lon="0.7605">
        <ele>104.5</ele>
        <time>2014-7-5T9:53:11.000Z</time>
      </trkpt>
      <trkpt lat="44.54259" lon="0.7605">
        <ele>104.5</ele>
        <time>2014-7-5T9:53:11.000Z</time>
      </trkpt>
      <trkpt lat="44.54258" lon="0.76052">
        <ele>104.5</ele>
        <time>2014-7-5T9:53:11.000Z</time>
      </trkpt>
      <trkpt lat="44.54258" lon="0.76052">
        <ele>104.5</ele>
        <time>2014-7-5T9:53:11.000Z</time>
      </trkpt>
      <trkpt lat="44.54256" lon="0.76054">
        <ele>104.5</ele>
        <time>2014-7-5T9:53:11.000Z</time>
      </trkpt>
      <trkpt lat="44.54256" lon="0.76054">
        <ele>104.5</ele>
        <time>2014-7-5T9:53:11.000Z</time>
      </trkpt>
      <trkpt lat="44.54254" lon="0.76057">
        <ele>104.5</ele>
        <time>2014-7-5T9:53:11.000Z</time>
      </trkpt>
      <trkpt lat="44.54254" lon="0.76057">
        <ele>104.5</ele>
        <time>2014-7-5T9:53:11.000Z</time>
      </trkpt>
      <trkpt lat="44.54252" lon="0.76059">
        <ele>104.5</ele>
        <time>2014-7-5T9:53:11.000Z</time>
      </trkpt>
      <trkpt lat="44.54252" lon="0.76059">
        <ele>104.5</ele>
        <time>2014-7-5T9:53:11.000Z</time>
      </trkpt>
      <trkpt lat="44.54249" lon="0.76062">
        <ele>105.5</ele>
        <time>2014-7-5T9:53:11.000Z</time>
      </trkpt>
      <trkpt lat="44.54249" lon="0.76062">
        <ele>105.5</ele>
        <time>2014-7-5T9:53:11.000Z</time>
      </trkpt>
      <trkpt lat="44.54247" lon="0.76065">
        <ele>105.5</ele>
        <time>2014-7-5T9:53:11.000Z</time>
      </trkpt>
      <trkpt lat="44.54247" lon="0.76065">
        <ele>105.5</ele>
        <time>2014-7-5T9:53:11.000Z</time>
      </trkpt>
      <trkpt lat="44.54245" lon="0.76067">
        <ele>106.5</ele>
        <time>2014-7-5T9:53:11.000Z</time>
      </trkpt>
      <trkpt lat="44.54245" lon="0.76067">
        <ele>106.5</ele>
        <time>2014-7-5T9:53:11.000Z</time>
      </trkpt>
      <trkpt lat="44.54243" lon="0.7607">
        <ele>106.5</ele>
        <time>2014-7-5T9:53:11.000Z</time>
      </trkpt>
      <trkpt lat="44.54243" lon="0.7607">
        <ele>106.5</ele>
        <time>2014-7-5T9:53:11.000Z</time>
      </trkpt>
      <trkpt lat="44.54241" lon="0.76072">
        <ele>103.5</ele>
        <time>2014-7-5T9:53:11.000Z</time>
      </trkpt>
      <trkpt lat="44.54241" lon="0.76072">
        <ele>103.5</ele>
        <time>2014-7-5T9:53:11.000Z</time>
      </trkpt>
      <trkpt lat="44.54238" lon="0.76075">
        <ele>102.5</ele>
        <time>2014-7-5T9:53:11.000Z</time>
      </trkpt>
      <trkpt lat="44.54238" lon="0.76075">
        <ele>102.5</ele>
        <time>2014-7-5T9:53:11.000Z</time>
      </trkpt>
      <trkpt lat="44.54237" lon="0.76075">
        <ele>102.5</ele>
        <time>2014-7-5T9:53:11.000Z</time>
      </trkpt>
      <trkpt lat="44.54237" lon="0.76075">
        <ele>102.5</ele>
        <time>2014-7-5T9:53:11.000Z</time>
      </trkpt>
      <trkpt lat="44.54234" lon="0.76078">
        <ele>100.5</ele>
        <time>2014-7-5T9:53:11.000Z</time>
      </trkpt>
      <trkpt lat="44.54234" lon="0.76078">
        <ele>100.5</ele>
        <time>2014-7-5T9:53:11.000Z</time>
      </trkpt>
      <trkpt lat="44.54231" lon="0.7608">
        <ele>99.5</ele>
        <time>2014-7-5T9:53:11.000Z</time>
      </trkpt>
      <trkpt lat="44.54231" lon="0.7608">
        <ele>99.5</ele>
        <time>2014-7-5T9:53:11.000Z</time>
      </trkpt>
      <trkpt lat="44.54233" lon="0.7608">
        <ele>97.5</ele>
        <time>2014-7-5T9:53:11.000Z</time>
      </trkpt>
      <trkpt lat="44.54233" lon="0.7608">
        <ele>97.5</ele>
        <time>2014-7-5T9:53:11.000Z</time>
      </trkpt>
      <trkpt lat="44.54235" lon="0.76076">
        <ele>97.5</ele>
        <time>2014-7-5T9:53:11.000Z</time>
      </trkpt>
      <trkpt lat="44.54235" lon="0.76076">
        <ele>97.5</ele>
        <time>2014-7-5T9:53:11.000Z</time>
      </trkpt>
      <trkpt lat="44.54236" lon="0.76072">
        <ele>97.5</ele>
        <time>2014-7-5T9:53:11.000Z</time>
      </trkpt>
      <trkpt lat="44.54236" lon="0.76072">
        <ele>97.5</ele>
        <time>2014-7-5T9:53:11.000Z</time>
      </trkpt>
      <trkpt lat="44.54233" lon="0.76071">
        <ele>98.5</ele>
        <time>2014-7-5T9:53:11.000Z</time>
      </trkpt>
      <trkpt lat="44.54233" lon="0.76071">
        <ele>98.5</ele>
        <time>2014-7-5T9:53:11.000Z</time>
      </trkpt>
      <trkpt lat="44.54231" lon="0.76074">
        <ele>97.5</ele>
        <time>2014-7-5T9:53:11.000Z</time>
      </trkpt>
      <trkpt lat="44.54231" lon="0.76074">
        <ele>97.5</ele>
        <time>2014-7-5T9:53:11.000Z</time>
      </trkpt>
      <trkpt lat="44.54229" lon="0.76078">
        <ele>97.5</ele>
        <time>2014-7-5T9:53:11.000Z</time>
      </trkpt>
      <trkpt lat="44.54229" lon="0.76078">
        <ele>97.5</ele>
        <time>2014-7-5T9:53:11.000Z</time>
      </trkpt>
      <trkpt lat="44.54228" lon="0.76082">
        <ele>97.5</ele>
        <time>2014-7-5T9:53:11.000Z</time>
      </trkpt>
      <trkpt lat="44.54228" lon="0.76082">
        <ele>97.5</ele>
        <time>2014-7-5T9:53:11.000Z</time>
      </trkpt>
      <trkpt lat="44.54226" lon="0.76086">
        <ele>97.5</ele>
        <time>2014-7-5T9:53:11.000Z</time>
      </trkpt>
      <trkpt lat="44.54226" lon="0.76086">
        <ele>97.5</ele>
        <time>2014-7-5T9:53:11.000Z</time>
      </trkpt>
      <trkpt lat="44.54224" lon="0.76089">
        <ele>97.5</ele>
        <time>2014-7-5T9:53:11.000Z</time>
      </trkpt>
      <trkpt lat="44.54224" lon="0.76089">
        <ele>97.5</ele>
        <time>2014-7-5T9:53:11.000Z</time>
      </trkpt>
      <trkpt lat="44.54222" lon="0.76092">
        <ele>98.5</ele>
        <time>2014-7-5T9:53:11.000Z</time>
      </trkpt>
      <trkpt lat="44.54222" lon="0.76092">
        <ele>98.5</ele>
        <time>2014-7-5T9:53:11.000Z</time>
      </trkpt>
      <trkpt lat="44.5422" lon="0.76096">
        <ele>99.5</ele>
        <time>2014-7-5T9:53:11.000Z</time>
      </trkpt>
      <trkpt lat="44.5422" lon="0.76096">
        <ele>99.5</ele>
        <time>2014-7-5T9:53:11.000Z</time>
      </trkpt>
      <trkpt lat="44.54218" lon="0.761">
        <ele>99.5</ele>
        <time>2014-7-5T9:53:11.000Z</time>
      </trkpt>
      <trkpt lat="44.54218" lon="0.761">
        <ele>99.5</ele>
        <time>2014-7-5T9:53:11.000Z</time>
      </trkpt>
      <trkpt lat="44.54217" lon="0.76104">
        <ele>99.5</ele>
        <time>2014-7-5T9:53:11.000Z</time>
      </trkpt>
      <trkpt lat="44.54217" lon="0.76104">
        <ele>99.5</ele>
        <time>2014-7-5T9:53:11.000Z</time>
      </trkpt>
      <trkpt lat="44.54216" lon="0.76108">
        <ele>101.5</ele>
        <time>2014-7-5T9:53:11.000Z</time>
      </trkpt>
      <trkpt lat="44.54216" lon="0.76108">
        <ele>101.5</ele>
        <time>2014-7-5T9:53:11.000Z</time>
      </trkpt>
      <trkpt lat="44.54214" lon="0.76112">
        <ele>101.5</ele>
        <time>2014-7-5T9:53:11.000Z</time>
      </trkpt>
      <trkpt lat="44.54214" lon="0.76112">
        <ele>101.5</ele>
        <time>2014-7-5T9:53:11.000Z</time>
      </trkpt>
      <trkpt lat="44.54212" lon="0.76115">
        <ele>101.5</ele>
        <time>2014-7-5T9:53:11.000Z</time>
      </trkpt>
      <trkpt lat="44.54212" lon="0.76115">
        <ele>101.5</ele>
        <time>2014-7-5T9:53:11.000Z</time>
      </trkpt>
      <trkpt lat="44.54211" lon="0.76118">
        <ele>101.5</ele>
        <time>2014-7-5T9:53:11.000Z</time>
      </trkpt>
      <trkpt lat="44.54211" lon="0.76118">
        <ele>101.5</ele>
        <time>2014-7-5T9:53:11.000Z</time>
      </trkpt>
      <trkpt lat="44.54209" lon="0.76122">
        <ele>103.5</ele>
        <time>2014-7-5T9:53:11.000Z</time>
      </trkpt>
      <trkpt lat="44.54209" lon="0.76122">
        <ele>103.5</ele>
        <time>2014-7-5T9:53:11.000Z</time>
      </trkpt>
      <trkpt lat="44.54207" lon="0.76125">
        <ele>103.5</ele>
        <time>2014-7-5T9:53:11.000Z</time>
      </trkpt>
      <trkpt lat="44.54207" lon="0.76125">
        <ele>103.5</ele>
        <time>2014-7-5T9:53:11.000Z</time>
      </trkpt>
      <trkpt lat="44.54205" lon="0.76128">
        <ele>103.5</ele>
        <time>2014-7-5T9:53:11.000Z</time>
      </trkpt>
      <trkpt lat="44.54205" lon="0.76128">
        <ele>103.5</ele>
        <time>2014-7-5T9:53:11.000Z</time>
      </trkpt>
      <trkpt lat="44.54202" lon="0.76131">
        <ele>103.5</ele>
        <time>2014-7-5T9:53:11.000Z</time>
      </trkpt>
      <trkpt lat="44.54202" lon="0.76131">
        <ele>103.5</ele>
        <time>2014-7-5T9:53:11.000Z</time>
      </trkpt>
      <trkpt lat="44.542" lon="0.76134">
        <ele>104.5</ele>
        <time>2014-7-5T9:53:11.000Z</time>
      </trkpt>
      <trkpt lat="44.542" lon="0.76134">
        <ele>104.5</ele>
        <time>2014-7-5T9:53:11.000Z</time>
      </trkpt>
      <trkpt lat="44.54198" lon="0.76137">
        <ele>104.5</ele>
        <time>2014-7-5T9:53:11.000Z</time>
      </trkpt>
      <trkpt lat="44.54198" lon="0.76137">
        <ele>104.5</ele>
        <time>2014-7-5T9:53:11.000Z</time>
      </trkpt>
      <trkpt lat="44.54196" lon="0.76141">
        <ele>104.5</ele>
        <time>2014-7-5T9:53:11.000Z</time>
      </trkpt>
      <trkpt lat="44.54196" lon="0.76141">
        <ele>104.5</ele>
        <time>2014-7-5T9:53:11.000Z</time>
      </trkpt>
      <trkpt lat="44.54194" lon="0.76144">
        <ele>105.5</ele>
        <time>2014-7-5T9:53:11.000Z</time>
      </trkpt>
      <trkpt lat="44.54194" lon="0.76144">
        <ele>105.5</ele>
        <time>2014-7-5T9:53:11.000Z</time>
      </trkpt>
      <trkpt lat="44.54192" lon="0.76148">
        <ele>105.5</ele>
        <time>2014-7-5T9:53:11.000Z</time>
      </trkpt>
      <trkpt lat="44.54192" lon="0.76148">
        <ele>105.5</ele>
        <time>2014-7-5T9:53:11.000Z</time>
      </trkpt>
      <trkpt lat="44.5419" lon="0.76151">
        <ele>105.5</ele>
        <time>2014-7-5T9:53:11.000Z</time>
      </trkpt>
      <trkpt lat="44.5419" lon="0.76151">
        <ele>105.5</ele>
        <time>2014-7-5T9:53:11.000Z</time>
      </trkpt>
      <trkpt lat="44.54188" lon="0.76154">
        <ele>106.5</ele>
        <time>2014-7-5T9:53:11.000Z</time>
      </trkpt>
      <trkpt lat="44.54188" lon="0.76154">
        <ele>106.5</ele>
        <time>2014-7-5T9:53:11.000Z</time>
      </trkpt>
      <trkpt lat="44.54185" lon="0.76157">
        <ele>106.5</ele>
        <time>2014-7-5T9:53:11.000Z</time>
      </trkpt>
      <trkpt lat="44.54185" lon="0.76157">
        <ele>106.5</ele>
        <time>2014-7-5T9:53:11.000Z</time>
      </trkpt>
      <trkpt lat="44.54183" lon="0.7616">
        <ele>106.5</ele>
        <time>2014-7-5T9:53:11.000Z</time>
      </trkpt>
      <trkpt lat="44.54183" lon="0.7616">
        <ele>106.5</ele>
        <time>2014-7-5T9:53:11.000Z</time>
      </trkpt>
      <trkpt lat="44.54181" lon="0.76163">
        <ele>107.5</ele>
        <time>2014-7-5T9:53:11.000Z</time>
      </trkpt>
      <trkpt lat="44.54181" lon="0.76163">
        <ele>107.5</ele>
        <time>2014-7-5T9:53:11.000Z</time>
      </trkpt>
      <trkpt lat="44.54178" lon="0.76165">
        <ele>106.5</ele>
        <time>2014-7-5T9:53:11.000Z</time>
      </trkpt>
      <trkpt lat="44.54178" lon="0.76165">
        <ele>106.5</ele>
        <time>2014-7-5T9:53:11.000Z</time>
      </trkpt>
      <trkpt lat="44.54176" lon="0.76167">
        <ele>105.5</ele>
        <time>2014-7-5T9:53:11.000Z</time>
      </trkpt>
      <trkpt lat="44.54176" lon="0.76167">
        <ele>105.5</ele>
        <time>2014-7-5T9:53:11.000Z</time>
      </trkpt>
      <trkpt lat="44.54175" lon="0.76168">
        <ele>104.5</ele>
        <time>2014-7-5T9:53:11.000Z</time>
      </trkpt>
      <trkpt lat="44.54175" lon="0.76168">
        <ele>104.5</ele>
        <time>2014-7-5T9:54:41.000Z</time>
      </trkpt>
      <trkpt lat="44.54173" lon="0.7617">
        <ele>103.5</ele>
        <time>2014-7-5T9:54:41.000Z</time>
      </trkpt>
      <trkpt lat="44.54173" lon="0.7617">
        <ele>103.5</ele>
        <time>2014-7-5T9:54:41.000Z</time>
      </trkpt>
      <trkpt lat="44.54172" lon="0.76171">
        <ele>103.5</ele>
        <time>2014-7-5T9:54:41.000Z</time>
      </trkpt>
      <trkpt lat="44.54172" lon="0.76171">
        <ele>103.5</ele>
        <time>2014-7-5T9:54:41.000Z</time>
      </trkpt>
      <trkpt lat="44.54169" lon="0.76174">
        <ele>103.5</ele>
        <time>2014-7-5T9:54:41.000Z</time>
      </trkpt>
      <trkpt lat="44.54169" lon="0.76174">
        <ele>103.5</ele>
        <time>2014-7-5T9:54:41.000Z</time>
      </trkpt>
      <trkpt lat="44.54167" lon="0.76177">
        <ele>102.5</ele>
        <time>2014-7-5T9:54:41.000Z</time>
      </trkpt>
      <trkpt lat="44.54167" lon="0.76177">
        <ele>102.5</ele>
        <time>2014-7-5T9:54:41.000Z</time>
      </trkpt>
      <trkpt lat="44.54165" lon="0.7618">
        <ele>102.5</ele>
        <time>2014-7-5T9:54:41.000Z</time>
      </trkpt>
      <trkpt lat="44.54165" lon="0.7618">
        <ele>102.5</ele>
        <time>2014-7-5T9:54:41.000Z</time>
      </trkpt>
      <trkpt lat="44.54162" lon="0.76184">
        <ele>101.5</ele>
        <time>2014-7-5T9:54:41.000Z</time>
      </trkpt>
      <trkpt lat="44.54162" lon="0.76184">
        <ele>101.5</ele>
        <time>2014-7-5T9:54:41.000Z</time>
      </trkpt>
      <trkpt lat="44.5416" lon="0.76186">
        <ele>102.5</ele>
        <time>2014-7-5T9:54:41.000Z</time>
      </trkpt>
      <trkpt lat="44.5416" lon="0.76186">
        <ele>102.5</ele>
        <time>2014-7-5T9:54:41.000Z</time>
      </trkpt>
      <trkpt lat="44.54158" lon="0.76189">
        <ele>102.5</ele>
        <time>2014-7-5T9:54:41.000Z</time>
      </trkpt>
      <trkpt lat="44.54158" lon="0.76189">
        <ele>102.5</ele>
        <time>2014-7-5T9:54:41.000Z</time>
      </trkpt>
      <trkpt lat="44.54156" lon="0.76192">
        <ele>101.5</ele>
        <time>2014-7-5T9:54:41.000Z</time>
      </trkpt>
      <trkpt lat="44.54156" lon="0.76192">
        <ele>101.5</ele>
        <time>2014-7-5T9:54:41.000Z</time>
      </trkpt>
      <trkpt lat="44.54153" lon="0.76195">
        <ele>102.5</ele>
        <time>2014-7-5T9:54:41.000Z</time>
      </trkpt>
      <trkpt lat="44.54153" lon="0.76195">
        <ele>102.5</ele>
        <time>2014-7-5T9:54:41.000Z</time>
      </trkpt>
      <trkpt lat="44.54152" lon="0.76199">
        <ele>102.5</ele>
        <time>2014-7-5T9:54:41.000Z</time>
      </trkpt>
      <trkpt lat="44.54152" lon="0.76199">
        <ele>102.5</ele>
        <time>2014-7-5T9:54:41.000Z</time>
      </trkpt>
      <trkpt lat="44.5415" lon="0.76202">
        <ele>103.5</ele>
        <time>2014-7-5T9:54:41.000Z</time>
      </trkpt>
      <trkpt lat="44.5415" lon="0.76202">
        <ele>103.5</ele>
        <time>2014-7-5T9:54:41.000Z</time>
      </trkpt>
      <trkpt lat="44.54148" lon="0.76206">
        <ele>103.5</ele>
        <time>2014-7-5T9:54:41.000Z</time>
      </trkpt>
      <trkpt lat="44.54148" lon="0.76206">
        <ele>103.5</ele>
        <time>2014-7-5T9:54:41.000Z</time>
      </trkpt>
      <trkpt lat="44.54146" lon="0.7621">
        <ele>103.5</ele>
        <time>2014-7-5T9:54:41.000Z</time>
      </trkpt>
      <trkpt lat="44.54146" lon="0.7621">
        <ele>103.5</ele>
        <time>2014-7-5T9:54:41.000Z</time>
      </trkpt>
      <trkpt lat="44.54143" lon="0.76213">
        <ele>103.5</ele>
        <time>2014-7-5T9:54:41.000Z</time>
      </trkpt>
      <trkpt lat="44.54143" lon="0.76213">
        <ele>103.5</ele>
        <time>2014-7-5T9:54:41.000Z</time>
      </trkpt>
      <trkpt lat="44.54142" lon="0.76215">
        <ele>103.5</ele>
        <time>2014-7-5T9:54:41.000Z</time>
      </trkpt>
      <trkpt lat="44.54142" lon="0.76215">
        <ele>103.5</ele>
        <time>2014-7-5T9:54:41.000Z</time>
      </trkpt>
      <trkpt lat="44.54139" lon="0.76218">
        <ele>103.5</ele>
        <time>2014-7-5T9:54:41.000Z</time>
      </trkpt>
      <trkpt lat="44.54139" lon="0.76218">
        <ele>103.5</ele>
        <time>2014-7-5T9:54:41.000Z</time>
      </trkpt>
      <trkpt lat="44.54136" lon="0.76221">
        <ele>103.5</ele>
        <time>2014-7-5T9:54:41.000Z</time>
      </trkpt>
      <trkpt lat="44.54136" lon="0.76221">
        <ele>103.5</ele>
        <time>2014-7-5T9:54:41.000Z</time>
      </trkpt>
      <trkpt lat="44.54135" lon="0.76225">
        <ele>103.5</ele>
        <time>2014-7-5T9:54:41.000Z</time>
      </trkpt>
      <trkpt lat="44.54135" lon="0.76225">
        <ele>103.5</ele>
        <time>2014-7-5T9:54:41.000Z</time>
      </trkpt>
      <trkpt lat="44.54133" lon="0.76228">
        <ele>103.5</ele>
        <time>2014-7-5T9:54:41.000Z</time>
      </trkpt>
      <trkpt lat="44.54133" lon="0.76228">
        <ele>103.5</ele>
        <time>2014-7-5T9:54:41.000Z</time>
      </trkpt>
      <trkpt lat="44.54132" lon="0.76231">
        <ele>103.5</ele>
        <time>2014-7-5T9:54:41.000Z</time>
      </trkpt>
      <trkpt lat="44.54132" lon="0.76231">
        <ele>103.5</ele>
        <time>2014-7-5T9:54:41.000Z</time>
      </trkpt>
      <trkpt lat="44.5413" lon="0.76234">
        <ele>104.5</ele>
        <time>2014-7-5T9:54:41.000Z</time>
      </trkpt>
      <trkpt lat="44.5413" lon="0.76234">
        <ele>104.5</ele>
        <time>2014-7-5T9:54:41.000Z</time>
      </trkpt>
      <trkpt lat="44.54129" lon="0.76237">
        <ele>104.5</ele>
        <time>2014-7-5T9:54:41.000Z</time>
      </trkpt>
      <trkpt lat="44.54129" lon="0.76237">
        <ele>104.5</ele>
        <time>2014-7-5T9:54:41.000Z</time>
      </trkpt>
      <trkpt lat="44.54127" lon="0.76238">
        <ele>106.5</ele>
        <time>2014-7-5T9:54:41.000Z</time>
      </trkpt>
      <trkpt lat="44.54127" lon="0.76238">
        <ele>106.5</ele>
        <time>2014-7-5T9:54:41.000Z</time>
      </trkpt>
      <trkpt lat="44.54124" lon="0.7624">
        <ele>107.5</ele>
        <time>2014-7-5T9:54:41.000Z</time>
      </trkpt>
      <trkpt lat="44.54124" lon="0.7624">
        <ele>107.5</ele>
        <time>2014-7-5T9:54:41.000Z</time>
      </trkpt>
      <trkpt lat="44.54122" lon="0.76242">
        <ele>108.5</ele>
        <time>2014-7-5T9:54:41.000Z</time>
      </trkpt>
      <trkpt lat="44.54122" lon="0.76242">
        <ele>108.5</ele>
        <time>2014-7-5T9:54:41.000Z</time>
      </trkpt>
      <trkpt lat="44.5412" lon="0.76245">
        <ele>108.5</ele>
        <time>2014-7-5T9:54:41.000Z</time>
      </trkpt>
      <trkpt lat="44.5412" lon="0.76245">
        <ele>108.5</ele>
        <time>2014-7-5T9:54:41.000Z</time>
      </trkpt>
      <trkpt lat="44.54118" lon="0.76247">
        <ele>109.5</ele>
        <time>2014-7-5T9:54:41.000Z</time>
      </trkpt>
      <trkpt lat="44.54118" lon="0.76247">
        <ele>109.5</ele>
        <time>2014-7-5T9:54:41.000Z</time>
      </trkpt>
      <trkpt lat="44.54115" lon="0.76248">
        <ele>109.5</ele>
        <time>2014-7-5T9:54:41.000Z</time>
      </trkpt>
      <trkpt lat="44.54115" lon="0.76248">
        <ele>109.5</ele>
        <time>2014-7-5T9:54:41.000Z</time>
      </trkpt>
      <trkpt lat="44.54114" lon="0.7625">
        <ele>109.5</ele>
        <time>2014-7-5T9:54:41.000Z</time>
      </trkpt>
      <trkpt lat="44.54114" lon="0.7625">
        <ele>109.5</ele>
        <time>2014-7-5T9:54:41.000Z</time>
      </trkpt>
      <trkpt lat="44.54113" lon="0.76252">
        <ele>110.5</ele>
        <time>2014-7-5T9:54:41.000Z</time>
      </trkpt>
      <trkpt lat="44.54113" lon="0.76252">
        <ele>110.5</ele>
        <time>2014-7-5T9:54:41.000Z</time>
      </trkpt>
      <trkpt lat="44.54114" lon="0.76251">
        <ele>109.5</ele>
        <time>2014-7-5T9:54:41.000Z</time>
      </trkpt>
      <trkpt lat="44.54114" lon="0.76251">
        <ele>109.5</ele>
        <time>2014-7-5T9:54:41.000Z</time>
      </trkpt>
      <trkpt lat="44.54112" lon="0.76253">
        <ele>109.5</ele>
        <time>2014-7-5T9:54:41.000Z</time>
      </trkpt>
      <trkpt lat="44.54112" lon="0.76253">
        <ele>109.5</ele>
        <time>2014-7-5T9:54:41.000Z</time>
      </trkpt>
      <trkpt lat="44.5411" lon="0.76254">
        <ele>109.5</ele>
        <time>2014-7-5T9:54:41.000Z</time>
      </trkpt>
      <trkpt lat="44.5411" lon="0.76254">
        <ele>109.5</ele>
        <time>2014-7-5T9:54:41.000Z</time>
      </trkpt>
      <trkpt lat="44.54109" lon="0.76256">
        <ele>110.5</ele>
        <time>2014-7-5T9:54:41.000Z</time>
      </trkpt>
      <trkpt lat="44.54109" lon="0.76256">
        <ele>110.5</ele>
        <time>2014-7-5T9:54:41.000Z</time>
      </trkpt>
      <trkpt lat="44.54107" lon="0.7626">
        <ele>110.5</ele>
        <time>2014-7-5T9:54:41.000Z</time>
      </trkpt>
      <trkpt lat="44.54107" lon="0.7626">
        <ele>110.5</ele>
        <time>2014-7-5T9:54:41.000Z</time>
      </trkpt>
      <trkpt lat="44.54106" lon="0.76262">
        <ele>111.5</ele>
        <time>2014-7-5T9:54:41.000Z</time>
      </trkpt>
      <trkpt lat="44.54106" lon="0.76262">
        <ele>111.5</ele>
        <time>2014-7-5T9:54:41.000Z</time>
      </trkpt>
      <trkpt lat="44.54104" lon="0.76265">
        <ele>111.5</ele>
        <time>2014-7-5T9:54:41.000Z</time>
      </trkpt>
      <trkpt lat="44.54104" lon="0.76265">
        <ele>111.5</ele>
        <time>2014-7-5T9:54:41.000Z</time>
      </trkpt>
      <trkpt lat="44.54102" lon="0.76268">
        <ele>111.5</ele>
        <time>2014-7-5T9:54:41.000Z</time>
      </trkpt>
      <trkpt lat="44.54102" lon="0.76268">
        <ele>111.5</ele>
        <time>2014-7-5T9:54:41.000Z</time>
      </trkpt>
      <trkpt lat="44.541" lon="0.76271">
        <ele>110.5</ele>
        <time>2014-7-5T9:54:41.000Z</time>
      </trkpt>
      <trkpt lat="44.541" lon="0.76271">
        <ele>110.5</ele>
        <time>2014-7-5T9:54:41.000Z</time>
      </trkpt>
      <trkpt lat="44.54098" lon="0.76274">
        <ele>110.5</ele>
        <time>2014-7-5T9:54:41.000Z</time>
      </trkpt>
      <trkpt lat="44.54098" lon="0.76274">
        <ele>110.5</ele>
        <time>2014-7-5T9:54:41.000Z</time>
      </trkpt>
      <trkpt lat="44.54095" lon="0.76276">
        <ele>110.5</ele>
        <time>2014-7-5T9:54:41.000Z</time>
      </trkpt>
      <trkpt lat="44.54095" lon="0.76276">
        <ele>110.5</ele>
        <time>2014-7-5T9:54:41.000Z</time>
      </trkpt>
      <trkpt lat="44.54093" lon="0.76278">
        <ele>111.5</ele>
        <time>2014-7-5T9:54:41.000Z</time>
      </trkpt>
      <trkpt lat="44.54093" lon="0.76278">
        <ele>111.5</ele>
        <time>2014-7-5T9:54:41.000Z</time>
      </trkpt>
      <trkpt lat="44.5409" lon="0.76281">
        <ele>111.5</ele>
        <time>2014-7-5T9:54:41.000Z</time>
      </trkpt>
      <trkpt lat="44.5409" lon="0.76281">
        <ele>111.5</ele>
        <time>2014-7-5T9:54:41.000Z</time>
      </trkpt>
      <trkpt lat="44.54088" lon="0.76283">
        <ele>111.5</ele>
        <time>2014-7-5T9:54:41.000Z</time>
      </trkpt>
      <trkpt lat="44.54088" lon="0.76283">
        <ele>111.5</ele>
        <time>2014-7-5T9:54:41.000Z</time>
      </trkpt>
      <trkpt lat="44.54086" lon="0.76286">
        <ele>111.5</ele>
        <time>2014-7-5T9:54:41.000Z</time>
      </trkpt>
      <trkpt lat="44.54086" lon="0.76286">
        <ele>111.5</ele>
        <time>2014-7-5T9:54:41.000Z</time>
      </trkpt>
      <trkpt lat="44.54084" lon="0.76288">
        <ele>112.5</ele>
        <time>2014-7-5T9:54:41.000Z</time>
      </trkpt>
      <trkpt lat="44.54084" lon="0.76288">
        <ele>112.5</ele>
        <time>2014-7-5T9:54:41.000Z</time>
      </trkpt>
      <trkpt lat="44.54082" lon="0.7629">
        <ele>112.5</ele>
        <time>2014-7-5T9:54:41.000Z</time>
      </trkpt>
      <trkpt lat="44.54082" lon="0.7629">
        <ele>112.5</ele>
        <time>2014-7-5T9:54:41.000Z</time>
      </trkpt>
      <trkpt lat="44.54079" lon="0.76292">
        <ele>112.5</ele>
        <time>2014-7-5T9:54:41.000Z</time>
      </trkpt>
      <trkpt lat="44.54079" lon="0.76292">
        <ele>112.5</ele>
        <time>2014-7-5T9:54:41.000Z</time>
      </trkpt>
      <trkpt lat="44.54077" lon="0.76294">
        <ele>112.5</ele>
        <time>2014-7-5T9:54:41.000Z</time>
      </trkpt>
      <trkpt lat="44.54077" lon="0.76294">
        <ele>112.5</ele>
        <time>2014-7-5T9:54:41.000Z</time>
      </trkpt>
      <trkpt lat="44.54075" lon="0.76297">
        <ele>113.5</ele>
        <time>2014-7-5T9:55:38.000Z</time>
      </trkpt>
      <trkpt lat="44.54075" lon="0.76297">
        <ele>113.5</ele>
        <time>2014-7-5T9:55:38.000Z</time>
      </trkpt>
      <trkpt lat="44.54073" lon="0.763">
        <ele>113.5</ele>
        <time>2014-7-5T9:55:38.000Z</time>
      </trkpt>
      <trkpt lat="44.54073" lon="0.763">
        <ele>113.5</ele>
        <time>2014-7-5T9:55:38.000Z</time>
      </trkpt>
      <trkpt lat="44.5407" lon="0.76302">
        <ele>113.5</ele>
        <time>2014-7-5T9:55:38.000Z</time>
      </trkpt>
      <trkpt lat="44.5407" lon="0.76302">
        <ele>113.5</ele>
        <time>2014-7-5T9:55:38.000Z</time>
      </trkpt>
      <trkpt lat="44.54068" lon="0.76303">
        <ele>113.5</ele>
        <time>2014-7-5T9:55:38.000Z</time>
      </trkpt>
      <trkpt lat="44.54068" lon="0.76303">
        <ele>113.5</ele>
        <time>2014-7-5T9:55:38.000Z</time>
      </trkpt>
      <trkpt lat="44.54067" lon="0.76305">
        <ele>113.5</ele>
        <time>2014-7-5T9:55:38.000Z</time>
      </trkpt>
      <trkpt lat="44.54067" lon="0.76305">
        <ele>113.5</ele>
        <time>2014-7-5T9:55:38.000Z</time>
      </trkpt>
      <trkpt lat="44.54065" lon="0.76308">
        <ele>113.5</ele>
        <time>2014-7-5T9:55:38.000Z</time>
      </trkpt>
      <trkpt lat="44.54065" lon="0.76308">
        <ele>113.5</ele>
        <time>2014-7-5T9:55:38.000Z</time>
      </trkpt>
      <trkpt lat="44.54064" lon="0.7631">
        <ele>113.5</ele>
        <time>2014-7-5T9:55:38.000Z</time>
      </trkpt>
      <trkpt lat="44.54064" lon="0.7631">
        <ele>113.5</ele>
        <time>2014-7-5T9:55:38.000Z</time>
      </trkpt>
      <trkpt lat="44.54063" lon="0.76313">
        <ele>114.5</ele>
        <time>2014-7-5T9:55:38.000Z</time>
      </trkpt>
      <trkpt lat="44.54063" lon="0.76313">
        <ele>114.5</ele>
        <time>2014-7-5T9:55:38.000Z</time>
      </trkpt>
      <trkpt lat="44.54062" lon="0.76315">
        <ele>114.5</ele>
        <time>2014-7-5T9:55:38.000Z</time>
      </trkpt>
      <trkpt lat="44.54062" lon="0.76315">
        <ele>114.5</ele>
        <time>2014-7-5T9:55:38.000Z</time>
      </trkpt>
      <trkpt lat="44.54061" lon="0.76317">
        <ele>114.5</ele>
        <time>2014-7-5T9:55:38.000Z</time>
      </trkpt>
      <trkpt lat="44.54061" lon="0.76317">
        <ele>114.5</ele>
        <time>2014-7-5T9:55:38.000Z</time>
      </trkpt>
      <trkpt lat="44.54061" lon="0.7632">
        <ele>115.5</ele>
        <time>2014-7-5T9:55:38.000Z</time>
      </trkpt>
      <trkpt lat="44.54061" lon="0.7632">
        <ele>115.5</ele>
        <time>2014-7-5T9:55:38.000Z</time>
      </trkpt>
      <trkpt lat="44.5406" lon="0.76325">
        <ele>115.5</ele>
        <time>2014-7-5T9:55:38.000Z</time>
      </trkpt>
      <trkpt lat="44.5406" lon="0.76325">
        <ele>115.5</ele>
        <time>2014-7-5T9:55:38.000Z</time>
      </trkpt>
      <trkpt lat="44.54059" lon="0.76327">
        <ele>115.5</ele>
        <time>2014-7-5T9:55:38.000Z</time>
      </trkpt>
      <trkpt lat="44.54059" lon="0.76327">
        <ele>115.5</ele>
        <time>2014-7-5T9:55:38.000Z</time>
      </trkpt>
      <trkpt lat="44.54058" lon="0.7633">
        <ele>115.5</ele>
        <time>2014-7-5T9:55:38.000Z</time>
      </trkpt>
      <trkpt lat="44.54058" lon="0.7633">
        <ele>115.5</ele>
        <time>2014-7-5T9:55:38.000Z</time>
      </trkpt>
      <trkpt lat="44.54057" lon="0.76333">
        <ele>115.5</ele>
        <time>2014-7-5T9:55:38.000Z</time>
      </trkpt>
      <trkpt lat="44.54057" lon="0.76333">
        <ele>115.5</ele>
        <time>2014-7-5T9:55:38.000Z</time>
      </trkpt>
      <trkpt lat="44.54057" lon="0.76336">
        <ele>116.5</ele>
        <time>2014-7-5T9:55:38.000Z</time>
      </trkpt>
      <trkpt lat="44.54057" lon="0.76336">
        <ele>116.5</ele>
        <time>2014-7-5T9:55:38.000Z</time>
      </trkpt>
      <trkpt lat="44.54057" lon="0.76338">
        <ele>116.5</ele>
        <time>2014-7-5T9:55:38.000Z</time>
      </trkpt>
      <trkpt lat="44.54057" lon="0.76338">
        <ele>116.5</ele>
        <time>2014-7-5T9:55:38.000Z</time>
      </trkpt>
      <trkpt lat="44.54056" lon="0.76341">
        <ele>116.5</ele>
        <time>2014-7-5T9:55:38.000Z</time>
      </trkpt>
      <trkpt lat="44.54056" lon="0.76341">
        <ele>116.5</ele>
        <time>2014-7-5T9:55:38.000Z</time>
      </trkpt>
      <trkpt lat="44.54056" lon="0.76345">
        <ele>116.5</ele>
        <time>2014-7-5T9:55:38.000Z</time>
      </trkpt>
      <trkpt lat="44.54056" lon="0.76345">
        <ele>116.5</ele>
        <time>2014-7-5T9:55:38.000Z</time>
      </trkpt>
      <trkpt lat="44.54056" lon="0.76348">
        <ele>116.5</ele>
        <time>2014-7-5T9:55:38.000Z</time>
      </trkpt>
      <trkpt lat="44.54056" lon="0.76348">
        <ele>116.5</ele>
        <time>2014-7-5T9:55:38.000Z</time>
      </trkpt>
      <trkpt lat="44.54055" lon="0.76352">
        <ele>116.5</ele>
        <time>2014-7-5T9:55:38.000Z</time>
      </trkpt>
      <trkpt lat="44.54055" lon="0.76352">
        <ele>116.5</ele>
        <time>2014-7-5T9:55:38.000Z</time>
      </trkpt>
      <trkpt lat="44.54055" lon="0.76355">
        <ele>116.5</ele>
        <time>2014-7-5T9:55:38.000Z</time>
      </trkpt>
      <trkpt lat="44.54055" lon="0.76355">
        <ele>116.5</ele>
        <time>2014-7-5T9:55:38.000Z</time>
      </trkpt>
      <trkpt lat="44.54054" lon="0.76358">
        <ele>117.5</ele>
        <time>2014-7-5T9:55:38.000Z</time>
      </trkpt>
      <trkpt lat="44.54054" lon="0.76358">
        <ele>117.5</ele>
        <time>2014-7-5T9:55:38.000Z</time>
      </trkpt>
      <trkpt lat="44.54053" lon="0.7636">
        <ele>116.5</ele>
        <time>2014-7-5T9:55:38.000Z</time>
      </trkpt>
      <trkpt lat="44.54053" lon="0.7636">
        <ele>116.5</ele>
        <time>2014-7-5T9:55:38.000Z</time>
      </trkpt>
      <trkpt lat="44.54053" lon="0.76363">
        <ele>116.5</ele>
        <time>2014-7-5T9:55:38.000Z</time>
      </trkpt>
      <trkpt lat="44.54053" lon="0.76363">
        <ele>116.5</ele>
        <time>2014-7-5T9:55:38.000Z</time>
      </trkpt>
      <trkpt lat="44.54052" lon="0.76366">
        <ele>116.5</ele>
        <time>2014-7-5T9:55:38.000Z</time>
      </trkpt>
      <trkpt lat="44.54052" lon="0.76366">
        <ele>116.5</ele>
        <time>2014-7-5T9:55:38.000Z</time>
      </trkpt>
      <trkpt lat="44.54052" lon="0.76369">
        <ele>116.5</ele>
        <time>2014-7-5T9:55:38.000Z</time>
      </trkpt>
      <trkpt lat="44.54052" lon="0.76369">
        <ele>116.5</ele>
        <time>2014-7-5T9:55:38.000Z</time>
      </trkpt>
      <trkpt lat="44.54051" lon="0.76371">
        <ele>116.5</ele>
        <time>2014-7-5T9:55:38.000Z</time>
      </trkpt>
      <trkpt lat="44.54051" lon="0.76371">
        <ele>116.5</ele>
        <time>2014-7-5T9:55:38.000Z</time>
      </trkpt>
      <trkpt lat="44.5405" lon="0.76374">
        <ele>116.5</ele>
        <time>2014-7-5T9:55:38.000Z</time>
      </trkpt>
      <trkpt lat="44.5405" lon="0.76374">
        <ele>116.5</ele>
        <time>2014-7-5T9:55:38.000Z</time>
      </trkpt>
      <trkpt lat="44.5405" lon="0.76378">
        <ele>116.5</ele>
        <time>2014-7-5T9:55:38.000Z</time>
      </trkpt>
      <trkpt lat="44.5405" lon="0.76378">
        <ele>116.5</ele>
        <time>2014-7-5T9:55:38.000Z</time>
      </trkpt>
      <trkpt lat="44.54049" lon="0.76381">
        <ele>117.5</ele>
        <time>2014-7-5T9:55:38.000Z</time>
      </trkpt>
      <trkpt lat="44.54049" lon="0.76381">
        <ele>117.5</ele>
        <time>2014-7-5T9:55:38.000Z</time>
      </trkpt>
      <trkpt lat="44.54048" lon="0.76384">
        <ele>117.5</ele>
        <time>2014-7-5T9:55:38.000Z</time>
      </trkpt>
      <trkpt lat="44.54048" lon="0.76384">
        <ele>117.5</ele>
        <time>2014-7-5T9:55:38.000Z</time>
      </trkpt>
      <trkpt lat="44.54047" lon="0.76387">
        <ele>117.5</ele>
        <time>2014-7-5T9:55:38.000Z</time>
      </trkpt>
      <trkpt lat="44.54047" lon="0.76387">
        <ele>117.5</ele>
        <time>2014-7-5T9:55:38.000Z</time>
      </trkpt>
      <trkpt lat="44.54047" lon="0.76391">
        <ele>117.5</ele>
        <time>2014-7-5T9:55:38.000Z</time>
      </trkpt>
      <trkpt lat="44.54047" lon="0.76391">
        <ele>117.5</ele>
        <time>2014-7-5T9:55:38.000Z</time>
      </trkpt>
      <trkpt lat="44.54046" lon="0.76394">
        <ele>117.5</ele>
        <time>2014-7-5T9:55:38.000Z</time>
      </trkpt>
      <trkpt lat="44.54046" lon="0.76394">
        <ele>117.5</ele>
        <time>2014-7-5T9:55:38.000Z</time>
      </trkpt>
      <trkpt lat="44.54045" lon="0.76397">
        <ele>117.5</ele>
        <time>2014-7-5T9:55:38.000Z</time>
      </trkpt>
      <trkpt lat="44.54045" lon="0.76397">
        <ele>117.5</ele>
        <time>2014-7-5T9:55:38.000Z</time>
      </trkpt>
      <trkpt lat="44.54044" lon="0.764">
        <ele>118.5</ele>
        <time>2014-7-5T9:55:38.000Z</time>
      </trkpt>
      <trkpt lat="44.54044" lon="0.764">
        <ele>118.5</ele>
        <time>2014-7-5T9:55:38.000Z</time>
      </trkpt>
      <trkpt lat="44.54042" lon="0.76402">
        <ele>118.5</ele>
        <time>2014-7-5T9:55:38.000Z</time>
      </trkpt>
      <trkpt lat="44.54042" lon="0.76402">
        <ele>118.5</ele>
        <time>2014-7-5T9:55:38.000Z</time>
      </trkpt>
      <trkpt lat="44.54041" lon="0.76404">
        <ele>118.5</ele>
        <time>2014-7-5T9:55:38.000Z</time>
      </trkpt>
      <trkpt lat="44.54041" lon="0.76404">
        <ele>118.5</ele>
        <time>2014-7-5T9:55:38.000Z</time>
      </trkpt>
      <trkpt lat="44.54039" lon="0.76407">
        <ele>118.5</ele>
        <time>2014-7-5T9:55:38.000Z</time>
      </trkpt>
      <trkpt lat="44.54039" lon="0.76407">
        <ele>118.5</ele>
        <time>2014-7-5T9:55:38.000Z</time>
      </trkpt>
      <trkpt lat="44.54038" lon="0.7641">
        <ele>118.5</ele>
        <time>2014-7-5T9:55:38.000Z</time>
      </trkpt>
      <trkpt lat="44.54038" lon="0.7641">
        <ele>118.5</ele>
        <time>2014-7-5T9:55:38.000Z</time>
      </trkpt>
      <trkpt lat="44.54038" lon="0.76413">
        <ele>118.5</ele>
        <time>2014-7-5T9:55:38.000Z</time>
      </trkpt>
      <trkpt lat="44.54038" lon="0.76413">
        <ele>118.5</ele>
        <time>2014-7-5T9:55:38.000Z</time>
      </trkpt>
      <trkpt lat="44.54037" lon="0.76416">
        <ele>118.5</ele>
        <time>2014-7-5T9:55:38.000Z</time>
      </trkpt>
      <trkpt lat="44.54037" lon="0.76416">
        <ele>118.5</ele>
        <time>2014-7-5T9:55:38.000Z</time>
      </trkpt>
      <trkpt lat="44.54036" lon="0.76418">
        <ele>118.5</ele>
        <time>2014-7-5T9:55:38.000Z</time>
      </trkpt>
      <trkpt lat="44.54036" lon="0.76418">
        <ele>118.5</ele>
        <time>2014-7-5T9:55:38.000Z</time>
      </trkpt>
      <trkpt lat="44.54033" lon="0.76421">
        <ele>117.5</ele>
        <time>2014-7-5T9:55:38.000Z</time>
      </trkpt>
      <trkpt lat="44.54033" lon="0.76421">
        <ele>117.5</ele>
        <time>2014-7-5T9:55:38.000Z</time>
      </trkpt>
      <trkpt lat="44.54032" lon="0.76423">
        <ele>118.5</ele>
        <time>2014-7-5T9:55:38.000Z</time>
      </trkpt>
      <trkpt lat="44.54032" lon="0.76423">
        <ele>118.5</ele>
        <time>2014-7-5T9:55:38.000Z</time>
      </trkpt>
      <trkpt lat="44.5403" lon="0.76425">
        <ele>118.5</ele>
        <time>2014-7-5T9:55:38.000Z</time>
      </trkpt>
      <trkpt lat="44.5403" lon="0.76425">
        <ele>118.5</ele>
        <time>2014-7-5T9:55:38.000Z</time>
      </trkpt>
      <trkpt lat="44.54028" lon="0.76426">
        <ele>118.5</ele>
        <time>2014-7-5T9:55:38.000Z</time>
      </trkpt>
      <trkpt lat="44.54028" lon="0.76426">
        <ele>118.5</ele>
        <time>2014-7-5T9:55:38.000Z</time>
      </trkpt>
      <trkpt lat="44.54026" lon="0.76428">
        <ele>118.5</ele>
        <time>2014-7-5T9:55:38.000Z</time>
      </trkpt>
      <trkpt lat="44.54026" lon="0.76428">
        <ele>118.5</ele>
        <time>2014-7-5T9:55:38.000Z</time>
      </trkpt>
      <trkpt lat="44.54024" lon="0.7643">
        <ele>118.5</ele>
        <time>2014-7-5T9:55:38.000Z</time>
      </trkpt>
      <trkpt lat="44.54024" lon="0.7643">
        <ele>118.5</ele>
        <time>2014-7-5T9:55:38.000Z</time>
      </trkpt>
      <trkpt lat="44.54023" lon="0.76432">
        <ele>118.5</ele>
        <time>2014-7-5T9:55:38.000Z</time>
      </trkpt>
      <trkpt lat="44.54023" lon="0.76432">
        <ele>118.5</ele>
        <time>2014-7-5T9:56:32.000Z</time>
      </trkpt>
      <trkpt lat="44.54021" lon="0.76434">
        <ele>117.5</ele>
        <time>2014-7-5T9:56:32.000Z</time>
      </trkpt>
      <trkpt lat="44.54021" lon="0.76434">
        <ele>117.5</ele>
        <time>2014-7-5T9:56:32.000Z</time>
      </trkpt>
      <trkpt lat="44.54019" lon="0.76436">
        <ele>117.5</ele>
        <time>2014-7-5T9:56:32.000Z</time>
      </trkpt>
      <trkpt lat="44.54019" lon="0.76436">
        <ele>117.5</ele>
        <time>2014-7-5T9:56:32.000Z</time>
      </trkpt>
      <trkpt lat="44.54017" lon="0.76438">
        <ele>117.5</ele>
        <time>2014-7-5T9:56:32.000Z</time>
      </trkpt>
      <trkpt lat="44.54017" lon="0.76438">
        <ele>117.5</ele>
        <time>2014-7-5T9:56:32.000Z</time>
      </trkpt>
      <trkpt lat="44.54015" lon="0.76441">
        <ele>117.5</ele>
        <time>2014-7-5T9:56:32.000Z</time>
      </trkpt>
      <trkpt lat="44.54015" lon="0.76441">
        <ele>117.5</ele>
        <time>2014-7-5T9:56:32.000Z</time>
      </trkpt>
      <trkpt lat="44.54013" lon="0.76443">
        <ele>117.5</ele>
        <time>2014-7-5T9:56:32.000Z</time>
      </trkpt>
      <trkpt lat="44.54013" lon="0.76443">
        <ele>117.5</ele>
        <time>2014-7-5T9:56:32.000Z</time>
      </trkpt>
      <trkpt lat="44.5401" lon="0.76446">
        <ele>117.5</ele>
        <time>2014-7-5T9:56:32.000Z</time>
      </trkpt>
      <trkpt lat="44.5401" lon="0.76446">
        <ele>117.5</ele>
        <time>2014-7-5T9:56:32.000Z</time>
      </trkpt>
      <trkpt lat="44.54007" lon="0.76449">
        <ele>117.5</ele>
        <time>2014-7-5T9:56:32.000Z</time>
      </trkpt>
      <trkpt lat="44.54007" lon="0.76449">
        <ele>117.5</ele>
        <time>2014-7-5T9:56:32.000Z</time>
      </trkpt>
      <trkpt lat="44.54005" lon="0.76451">
        <ele>117.5</ele>
        <time>2014-7-5T9:56:32.000Z</time>
      </trkpt>
      <trkpt lat="44.54005" lon="0.76451">
        <ele>117.5</ele>
        <time>2014-7-5T9:56:32.000Z</time>
      </trkpt>
      <trkpt lat="44.54002" lon="0.76453">
        <ele>117.5</ele>
        <time>2014-7-5T9:56:32.000Z</time>
      </trkpt>
      <trkpt lat="44.54002" lon="0.76453">
        <ele>117.5</ele>
        <time>2014-7-5T9:56:32.000Z</time>
      </trkpt>
      <trkpt lat="44.53999" lon="0.76456">
        <ele>117.5</ele>
        <time>2014-7-5T9:56:32.000Z</time>
      </trkpt>
      <trkpt lat="44.53999" lon="0.76456">
        <ele>117.5</ele>
        <time>2014-7-5T9:56:32.000Z</time>
      </trkpt>
      <trkpt lat="44.53997" lon="0.76457">
        <ele>117.5</ele>
        <time>2014-7-5T9:56:32.000Z</time>
      </trkpt>
      <trkpt lat="44.53997" lon="0.76457">
        <ele>117.5</ele>
        <time>2014-7-5T9:56:32.000Z</time>
      </trkpt>
      <trkpt lat="44.53994" lon="0.76459">
        <ele>117.5</ele>
        <time>2014-7-5T9:56:32.000Z</time>
      </trkpt>
      <trkpt lat="44.53994" lon="0.76459">
        <ele>117.5</ele>
        <time>2014-7-5T9:56:32.000Z</time>
      </trkpt>
      <trkpt lat="44.53992" lon="0.76461">
        <ele>117.5</ele>
        <time>2014-7-5T9:56:32.000Z</time>
      </trkpt>
      <trkpt lat="44.53992" lon="0.76461">
        <ele>117.5</ele>
        <time>2014-7-5T9:56:32.000Z</time>
      </trkpt>
      <trkpt lat="44.53989" lon="0.76463">
        <ele>117.5</ele>
        <time>2014-7-5T9:56:32.000Z</time>
      </trkpt>
      <trkpt lat="44.53989" lon="0.76463">
        <ele>117.5</ele>
        <time>2014-7-5T9:56:32.000Z</time>
      </trkpt>
      <trkpt lat="44.53987" lon="0.76465">
        <ele>117.5</ele>
        <time>2014-7-5T9:56:32.000Z</time>
      </trkpt>
      <trkpt lat="44.53987" lon="0.76465">
        <ele>117.5</ele>
        <time>2014-7-5T9:56:32.000Z</time>
      </trkpt>
      <trkpt lat="44.53984" lon="0.76467">
        <ele>117.5</ele>
        <time>2014-7-5T9:56:32.000Z</time>
      </trkpt>
      <trkpt lat="44.53984" lon="0.76467">
        <ele>117.5</ele>
        <time>2014-7-5T9:56:32.000Z</time>
      </trkpt>
      <trkpt lat="44.53981" lon="0.76469">
        <ele>117.5</ele>
        <time>2014-7-5T9:56:32.000Z</time>
      </trkpt>
      <trkpt lat="44.53981" lon="0.76469">
        <ele>117.5</ele>
        <time>2014-7-5T9:56:32.000Z</time>
      </trkpt>
      <trkpt lat="44.53978" lon="0.76472">
        <ele>117.5</ele>
        <time>2014-7-5T9:56:32.000Z</time>
      </trkpt>
      <trkpt lat="44.53978" lon="0.76472">
        <ele>117.5</ele>
        <time>2014-7-5T9:56:32.000Z</time>
      </trkpt>
      <trkpt lat="44.53975" lon="0.76475">
        <ele>117.5</ele>
        <time>2014-7-5T9:56:32.000Z</time>
      </trkpt>
      <trkpt lat="44.53975" lon="0.76475">
        <ele>117.5</ele>
        <time>2014-7-5T9:56:32.000Z</time>
      </trkpt>
      <trkpt lat="44.53972" lon="0.76477">
        <ele>118.5</ele>
        <time>2014-7-5T9:56:32.000Z</time>
      </trkpt>
      <trkpt lat="44.53972" lon="0.76477">
        <ele>118.5</ele>
        <time>2014-7-5T9:56:32.000Z</time>
      </trkpt>
      <trkpt lat="44.53969" lon="0.76479">
        <ele>118.5</ele>
        <time>2014-7-5T9:56:32.000Z</time>
      </trkpt>
      <trkpt lat="44.53969" lon="0.76479">
        <ele>118.5</ele>
        <time>2014-7-5T9:56:32.000Z</time>
      </trkpt>
      <trkpt lat="44.53967" lon="0.76481">
        <ele>117.5</ele>
        <time>2014-7-5T9:56:32.000Z</time>
      </trkpt>
      <trkpt lat="44.53967" lon="0.76481">
        <ele>117.5</ele>
        <time>2014-7-5T9:56:32.000Z</time>
      </trkpt>
      <trkpt lat="44.53965" lon="0.76483">
        <ele>118.5</ele>
        <time>2014-7-5T9:56:32.000Z</time>
      </trkpt>
      <trkpt lat="44.53965" lon="0.76483">
        <ele>118.5</ele>
        <time>2014-7-5T9:56:32.000Z</time>
      </trkpt>
      <trkpt lat="44.53962" lon="0.76484">
        <ele>118.5</ele>
        <time>2014-7-5T9:56:32.000Z</time>
      </trkpt>
      <trkpt lat="44.53962" lon="0.76484">
        <ele>118.5</ele>
        <time>2014-7-5T9:56:32.000Z</time>
      </trkpt>
      <trkpt lat="44.5396" lon="0.76486">
        <ele>118.5</ele>
        <time>2014-7-5T9:56:32.000Z</time>
      </trkpt>
      <trkpt lat="44.5396" lon="0.76486">
        <ele>118.5</ele>
        <time>2014-7-5T9:56:32.000Z</time>
      </trkpt>
      <trkpt lat="44.53958" lon="0.76487">
        <ele>118.5</ele>
        <time>2014-7-5T9:56:32.000Z</time>
      </trkpt>
      <trkpt lat="44.53958" lon="0.76487">
        <ele>118.5</ele>
        <time>2014-7-5T9:56:32.000Z</time>
      </trkpt>
      <trkpt lat="44.53956" lon="0.76489">
        <ele>118.5</ele>
        <time>2014-7-5T9:56:32.000Z</time>
      </trkpt>
      <trkpt lat="44.53956" lon="0.76489">
        <ele>118.5</ele>
        <time>2014-7-5T9:56:32.000Z</time>
      </trkpt>
      <trkpt lat="44.53954" lon="0.76491">
        <ele>118.5</ele>
        <time>2014-7-5T9:56:32.000Z</time>
      </trkpt>
      <trkpt lat="44.53954" lon="0.76491">
        <ele>118.5</ele>
        <time>2014-7-5T9:56:32.000Z</time>
      </trkpt>
      <trkpt lat="44.53952" lon="0.76494">
        <ele>118.5</ele>
        <time>2014-7-5T9:56:32.000Z</time>
      </trkpt>
      <trkpt lat="44.53952" lon="0.76494">
        <ele>118.5</ele>
        <time>2014-7-5T9:56:32.000Z</time>
      </trkpt>
      <trkpt lat="44.5395" lon="0.76497">
        <ele>118.5</ele>
        <time>2014-7-5T9:56:32.000Z</time>
      </trkpt>
      <trkpt lat="44.5395" lon="0.76497">
        <ele>118.5</ele>
        <time>2014-7-5T9:56:32.000Z</time>
      </trkpt>
      <trkpt lat="44.5395" lon="0.765">
        <ele>118.5</ele>
        <time>2014-7-5T9:56:32.000Z</time>
      </trkpt>
      <trkpt lat="44.5395" lon="0.765">
        <ele>118.5</ele>
        <time>2014-7-5T9:56:32.000Z</time>
      </trkpt>
      <trkpt lat="44.53949" lon="0.76503">
        <ele>118.5</ele>
        <time>2014-7-5T9:56:32.000Z</time>
      </trkpt>
      <trkpt lat="44.53949" lon="0.76503">
        <ele>118.5</ele>
        <time>2014-7-5T9:56:32.000Z</time>
      </trkpt>
      <trkpt lat="44.5395" lon="0.76507">
        <ele>119.5</ele>
        <time>2014-7-5T9:56:32.000Z</time>
      </trkpt>
      <trkpt lat="44.5395" lon="0.76507">
        <ele>119.5</ele>
        <time>2014-7-5T9:56:32.000Z</time>
      </trkpt>
      <trkpt lat="44.53951" lon="0.76511">
        <ele>118.5</ele>
        <time>2014-7-5T9:56:32.000Z</time>
      </trkpt>
      <trkpt lat="44.53951" lon="0.76511">
        <ele>118.5</ele>
        <time>2014-7-5T9:56:32.000Z</time>
      </trkpt>
      <trkpt lat="44.53952" lon="0.76514">
        <ele>118.5</ele>
        <time>2014-7-5T9:56:32.000Z</time>
      </trkpt>
      <trkpt lat="44.53952" lon="0.76514">
        <ele>118.5</ele>
        <time>2014-7-5T9:56:32.000Z</time>
      </trkpt>
      <trkpt lat="44.53953" lon="0.76518">
        <ele>119.5</ele>
        <time>2014-7-5T9:56:32.000Z</time>
      </trkpt>
      <trkpt lat="44.53953" lon="0.76518">
        <ele>119.5</ele>
        <time>2014-7-5T9:56:32.000Z</time>
      </trkpt>
      <trkpt lat="44.53953" lon="0.76521">
        <ele>119.5</ele>
        <time>2014-7-5T9:56:32.000Z</time>
      </trkpt>
      <trkpt lat="44.53953" lon="0.76521">
        <ele>119.5</ele>
        <time>2014-7-5T9:56:32.000Z</time>
      </trkpt>
      <trkpt lat="44.53954" lon="0.76526">
        <ele>119.5</ele>
        <time>2014-7-5T9:56:32.000Z</time>
      </trkpt>
      <trkpt lat="44.53954" lon="0.76526">
        <ele>119.5</ele>
        <time>2014-7-5T9:56:32.000Z</time>
      </trkpt>
      <trkpt lat="44.53955" lon="0.76533">
        <ele>120.5</ele>
        <time>2014-7-5T9:56:32.000Z</time>
      </trkpt>
      <trkpt lat="44.53955" lon="0.76533">
        <ele>120.5</ele>
        <time>2014-7-5T9:56:32.000Z</time>
      </trkpt>
      <trkpt lat="44.53956" lon="0.76538">
        <ele>120.5</ele>
        <time>2014-7-5T9:56:32.000Z</time>
      </trkpt>
      <trkpt lat="44.53956" lon="0.76538">
        <ele>120.5</ele>
        <time>2014-7-5T9:56:32.000Z</time>
      </trkpt>
      <trkpt lat="44.53956" lon="0.76541">
        <ele>119.5</ele>
        <time>2014-7-5T9:56:32.000Z</time>
      </trkpt>
      <trkpt lat="44.53956" lon="0.76541">
        <ele>119.5</ele>
        <time>2014-7-5T9:56:32.000Z</time>
      </trkpt>
      <trkpt lat="44.53957" lon="0.76547">
        <ele>119.5</ele>
        <time>2014-7-5T9:56:32.000Z</time>
      </trkpt>
      <trkpt lat="44.53957" lon="0.76547">
        <ele>119.5</ele>
        <time>2014-7-5T9:56:32.000Z</time>
      </trkpt>
      <trkpt lat="44.53957" lon="0.76553">
        <ele>119.5</ele>
        <time>2014-7-5T9:56:32.000Z</time>
      </trkpt>
      <trkpt lat="44.53957" lon="0.76553">
        <ele>119.5</ele>
        <time>2014-7-5T9:56:32.000Z</time>
      </trkpt>
      <trkpt lat="44.53958" lon="0.76559">
        <ele>119.5</ele>
        <time>2014-7-5T9:56:32.000Z</time>
      </trkpt>
      <trkpt lat="44.53958" lon="0.76559">
        <ele>119.5</ele>
        <time>2014-7-5T9:56:32.000Z</time>
      </trkpt>
      <trkpt lat="44.53959" lon="0.76564">
        <ele>118.5</ele>
        <time>2014-7-5T9:56:32.000Z</time>
      </trkpt>
      <trkpt lat="44.53959" lon="0.76564">
        <ele>118.5</ele>
        <time>2014-7-5T9:56:32.000Z</time>
      </trkpt>
      <trkpt lat="44.53959" lon="0.76569">
        <ele>118.5</ele>
        <time>2014-7-5T9:56:32.000Z</time>
      </trkpt>
      <trkpt lat="44.53959" lon="0.76569">
        <ele>118.5</ele>
        <time>2014-7-5T9:56:32.000Z</time>
      </trkpt>
      <trkpt lat="44.53959" lon="0.76574">
        <ele>118.5</ele>
        <time>2014-7-5T9:56:32.000Z</time>
      </trkpt>
      <trkpt lat="44.53959" lon="0.76574">
        <ele>118.5</ele>
        <time>2014-7-5T9:56:32.000Z</time>
      </trkpt>
      <trkpt lat="44.53959" lon="0.76577">
        <ele>117.5</ele>
        <time>2014-7-5T9:56:32.000Z</time>
      </trkpt>
      <trkpt lat="44.53959" lon="0.76577">
        <ele>117.5</ele>
        <time>2014-7-5T9:56:32.000Z</time>
      </trkpt>
      <trkpt lat="44.53959" lon="0.7658">
        <ele>118.5</ele>
        <time>2014-7-5T9:56:32.000Z</time>
      </trkpt>
      <trkpt lat="44.53959" lon="0.7658">
        <ele>118.5</ele>
        <time>2014-7-5T9:56:32.000Z</time>
      </trkpt>
      <trkpt lat="44.53959" lon="0.76582">
        <ele>117.5</ele>
        <time>2014-7-5T9:56:32.000Z</time>
      </trkpt>
      <trkpt lat="44.53959" lon="0.76582">
        <ele>117.5</ele>
        <time>2014-7-5T9:56:32.000Z</time>
      </trkpt>
      <trkpt lat="44.53958" lon="0.76585">
        <ele>117.5</ele>
        <time>2014-7-5T9:57:25.000Z</time>
      </trkpt>
      <trkpt lat="44.53958" lon="0.76585">
        <ele>117.5</ele>
        <time>2014-7-5T9:57:25.000Z</time>
      </trkpt>
      <trkpt lat="44.53955" lon="0.76588">
        <ele>117.5</ele>
        <time>2014-7-5T9:57:25.000Z</time>
      </trkpt>
      <trkpt lat="44.53955" lon="0.76588">
        <ele>117.5</ele>
        <time>2014-7-5T9:57:25.000Z</time>
      </trkpt>
      <trkpt lat="44.53953" lon="0.76589">
        <ele>118.5</ele>
        <time>2014-7-5T9:57:25.000Z</time>
      </trkpt>
      <trkpt lat="44.53953" lon="0.76589">
        <ele>118.5</ele>
        <time>2014-7-5T9:57:25.000Z</time>
      </trkpt>
      <trkpt lat="44.5395" lon="0.7659">
        <ele>117.5</ele>
        <time>2014-7-5T9:57:25.000Z</time>
      </trkpt>
      <trkpt lat="44.5395" lon="0.7659">
        <ele>117.5</ele>
        <time>2014-7-5T9:57:25.000Z</time>
      </trkpt>
      <trkpt lat="44.53948" lon="0.76591">
        <ele>118.5</ele>
        <time>2014-7-5T9:57:25.000Z</time>
      </trkpt>
      <trkpt lat="44.53948" lon="0.76591">
        <ele>118.5</ele>
        <time>2014-7-5T9:57:25.000Z</time>
      </trkpt>
      <trkpt lat="44.53945" lon="0.76592">
        <ele>118.5</ele>
        <time>2014-7-5T9:57:25.000Z</time>
      </trkpt>
      <trkpt lat="44.53945" lon="0.76592">
        <ele>118.5</ele>
        <time>2014-7-5T9:57:25.000Z</time>
      </trkpt>
      <trkpt lat="44.53942" lon="0.76592">
        <ele>119.5</ele>
        <time>2014-7-5T9:57:25.000Z</time>
      </trkpt>
      <trkpt lat="44.53942" lon="0.76592">
        <ele>119.5</ele>
        <time>2014-7-5T9:57:25.000Z</time>
      </trkpt>
      <trkpt lat="44.53939" lon="0.76593">
        <ele>119.5</ele>
        <time>2014-7-5T9:57:25.000Z</time>
      </trkpt>
      <trkpt lat="44.53939" lon="0.76593">
        <ele>119.5</ele>
        <time>2014-7-5T9:57:25.000Z</time>
      </trkpt>
      <trkpt lat="44.53935" lon="0.76594">
        <ele>119.5</ele>
        <time>2014-7-5T9:57:25.000Z</time>
      </trkpt>
      <trkpt lat="44.53935" lon="0.76594">
        <ele>119.5</ele>
        <time>2014-7-5T9:57:25.000Z</time>
      </trkpt>
      <trkpt lat="44.53932" lon="0.76595">
        <ele>119.5</ele>
        <time>2014-7-5T9:57:25.000Z</time>
      </trkpt>
      <trkpt lat="44.53932" lon="0.76595">
        <ele>119.5</ele>
        <time>2014-7-5T9:57:25.000Z</time>
      </trkpt>
      <trkpt lat="44.53928" lon="0.76595">
        <ele>119.5</ele>
        <time>2014-7-5T9:57:25.000Z</time>
      </trkpt>
      <trkpt lat="44.53928" lon="0.76595">
        <ele>119.5</ele>
        <time>2014-7-5T9:57:25.000Z</time>
      </trkpt>
      <trkpt lat="44.53925" lon="0.76597">
        <ele>119.5</ele>
        <time>2014-7-5T9:57:25.000Z</time>
      </trkpt>
      <trkpt lat="44.53925" lon="0.76597">
        <ele>119.5</ele>
        <time>2014-7-5T9:57:25.000Z</time>
      </trkpt>
      <trkpt lat="44.53921" lon="0.76598">
        <ele>120.5</ele>
        <time>2014-7-5T9:57:25.000Z</time>
      </trkpt>
      <trkpt lat="44.53921" lon="0.76598">
        <ele>120.5</ele>
        <time>2014-7-5T9:57:25.000Z</time>
      </trkpt>
      <trkpt lat="44.53918" lon="0.76599">
        <ele>119.5</ele>
        <time>2014-7-5T9:57:25.000Z</time>
      </trkpt>
      <trkpt lat="44.53918" lon="0.76599">
        <ele>119.5</ele>
        <time>2014-7-5T9:57:25.000Z</time>
      </trkpt>
      <trkpt lat="44.53914" lon="0.76601">
        <ele>120.5</ele>
        <time>2014-7-5T9:57:25.000Z</time>
      </trkpt>
      <trkpt lat="44.53914" lon="0.76601">
        <ele>120.5</ele>
        <time>2014-7-5T9:57:25.000Z</time>
      </trkpt>
      <trkpt lat="44.53911" lon="0.76602">
        <ele>120.5</ele>
        <time>2014-7-5T9:57:25.000Z</time>
      </trkpt>
      <trkpt lat="44.53911" lon="0.76602">
        <ele>120.5</ele>
        <time>2014-7-5T9:57:25.000Z</time>
      </trkpt>
      <trkpt lat="44.53908" lon="0.76603">
        <ele>119.5</ele>
        <time>2014-7-5T9:57:25.000Z</time>
      </trkpt>
      <trkpt lat="44.53908" lon="0.76603">
        <ele>119.5</ele>
        <time>2014-7-5T9:57:25.000Z</time>
      </trkpt>
      <trkpt lat="44.53905" lon="0.76604">
        <ele>120.5</ele>
        <time>2014-7-5T9:57:25.000Z</time>
      </trkpt>
      <trkpt lat="44.53905" lon="0.76604">
        <ele>120.5</ele>
        <time>2014-7-5T9:57:25.000Z</time>
      </trkpt>
      <trkpt lat="44.53902" lon="0.76605">
        <ele>120.5</ele>
        <time>2014-7-5T9:57:25.000Z</time>
      </trkpt>
      <trkpt lat="44.53902" lon="0.76605">
        <ele>120.5</ele>
        <time>2014-7-5T9:57:25.000Z</time>
      </trkpt>
      <trkpt lat="44.53898" lon="0.76607">
        <ele>121.5</ele>
        <time>2014-7-5T9:57:25.000Z</time>
      </trkpt>
      <trkpt lat="44.53898" lon="0.76607">
        <ele>121.5</ele>
        <time>2014-7-5T9:57:25.000Z</time>
      </trkpt>
      <trkpt lat="44.53895" lon="0.76608">
        <ele>121.5</ele>
        <time>2014-7-5T9:57:25.000Z</time>
      </trkpt>
      <trkpt lat="44.53895" lon="0.76608">
        <ele>121.5</ele>
        <time>2014-7-5T9:57:25.000Z</time>
      </trkpt>
      <trkpt lat="44.53892" lon="0.7661">
        <ele>121.5</ele>
        <time>2014-7-5T9:57:25.000Z</time>
      </trkpt>
      <trkpt lat="44.53892" lon="0.7661">
        <ele>121.5</ele>
        <time>2014-7-5T9:57:25.000Z</time>
      </trkpt>
      <trkpt lat="44.53889" lon="0.76611">
        <ele>122.5</ele>
        <time>2014-7-5T9:57:25.000Z</time>
      </trkpt>
      <trkpt lat="44.53889" lon="0.76611">
        <ele>122.5</ele>
        <time>2014-7-5T9:57:25.000Z</time>
      </trkpt>
      <trkpt lat="44.53886" lon="0.76612">
        <ele>123.5</ele>
        <time>2014-7-5T9:57:25.000Z</time>
      </trkpt>
      <trkpt lat="44.53886" lon="0.76612">
        <ele>123.5</ele>
        <time>2014-7-5T9:57:25.000Z</time>
      </trkpt>
      <trkpt lat="44.53883" lon="0.76613">
        <ele>122.5</ele>
        <time>2014-7-5T9:57:25.000Z</time>
      </trkpt>
      <trkpt lat="44.53883" lon="0.76613">
        <ele>122.5</ele>
        <time>2014-7-5T9:57:25.000Z</time>
      </trkpt>
      <trkpt lat="44.5388" lon="0.76614">
        <ele>122.5</ele>
        <time>2014-7-5T9:57:25.000Z</time>
      </trkpt>
      <trkpt lat="44.5388" lon="0.76614">
        <ele>122.5</ele>
        <time>2014-7-5T9:57:25.000Z</time>
      </trkpt>
      <trkpt lat="44.53877" lon="0.76615">
        <ele>122.5</ele>
        <time>2014-7-5T9:57:25.000Z</time>
      </trkpt>
      <trkpt lat="44.53877" lon="0.76615">
        <ele>122.5</ele>
        <time>2014-7-5T9:57:25.000Z</time>
      </trkpt>
      <trkpt lat="44.53873" lon="0.76616">
        <ele>123.5</ele>
        <time>2014-7-5T9:57:25.000Z</time>
      </trkpt>
      <trkpt lat="44.53873" lon="0.76616">
        <ele>123.5</ele>
        <time>2014-7-5T9:57:25.000Z</time>
      </trkpt>
      <trkpt lat="44.5387" lon="0.76616">
        <ele>123.5</ele>
        <time>2014-7-5T9:57:25.000Z</time>
      </trkpt>
      <trkpt lat="44.5387" lon="0.76616">
        <ele>123.5</ele>
        <time>2014-7-5T9:57:25.000Z</time>
      </trkpt>
      <trkpt lat="44.53867" lon="0.76616">
        <ele>122.5</ele>
        <time>2014-7-5T9:57:25.000Z</time>
      </trkpt>
      <trkpt lat="44.53867" lon="0.76616">
        <ele>122.5</ele>
        <time>2014-7-5T9:57:25.000Z</time>
      </trkpt>
      <trkpt lat="44.53865" lon="0.76617">
        <ele>122.5</ele>
        <time>2014-7-5T9:57:25.000Z</time>
      </trkpt>
      <trkpt lat="44.53865" lon="0.76617">
        <ele>122.5</ele>
        <time>2014-7-5T9:57:25.000Z</time>
      </trkpt>
      <trkpt lat="44.53862" lon="0.76617">
        <ele>123.5</ele>
        <time>2014-7-5T9:57:25.000Z</time>
      </trkpt>
      <trkpt lat="44.53862" lon="0.76617">
        <ele>123.5</ele>
        <time>2014-7-5T9:57:25.000Z</time>
      </trkpt>
      <trkpt lat="44.5386" lon="0.76618">
        <ele>123.5</ele>
        <time>2014-7-5T9:57:25.000Z</time>
      </trkpt>
      <trkpt lat="44.5386" lon="0.76618">
        <ele>123.5</ele>
        <time>2014-7-5T9:57:25.000Z</time>
      </trkpt>
      <trkpt lat="44.53856" lon="0.76618">
        <ele>123.5</ele>
        <time>2014-7-5T9:57:25.000Z</time>
      </trkpt>
      <trkpt lat="44.53856" lon="0.76618">
        <ele>123.5</ele>
        <time>2014-7-5T9:57:25.000Z</time>
      </trkpt>
      <trkpt lat="44.53853" lon="0.76619">
        <ele>124.5</ele>
        <time>2014-7-5T9:57:25.000Z</time>
      </trkpt>
      <trkpt lat="44.53853" lon="0.76619">
        <ele>124.5</ele>
        <time>2014-7-5T9:57:25.000Z</time>
      </trkpt>
      <trkpt lat="44.53849" lon="0.76619">
        <ele>124.5</ele>
        <time>2014-7-5T9:57:25.000Z</time>
      </trkpt>
      <trkpt lat="44.53849" lon="0.76619">
        <ele>124.5</ele>
        <time>2014-7-5T9:57:25.000Z</time>
      </trkpt>
      <trkpt lat="44.53846" lon="0.7662">
        <ele>124.5</ele>
        <time>2014-7-5T9:57:25.000Z</time>
      </trkpt>
      <trkpt lat="44.53846" lon="0.7662">
        <ele>124.5</ele>
        <time>2014-7-5T9:57:25.000Z</time>
      </trkpt>
      <trkpt lat="44.53842" lon="0.7662">
        <ele>124.5</ele>
        <time>2014-7-5T9:57:25.000Z</time>
      </trkpt>
      <trkpt lat="44.53842" lon="0.7662">
        <ele>124.5</ele>
        <time>2014-7-5T9:57:25.000Z</time>
      </trkpt>
      <trkpt lat="44.53838" lon="0.7662">
        <ele>124.5</ele>
        <time>2014-7-5T9:57:25.000Z</time>
      </trkpt>
      <trkpt lat="44.53838" lon="0.7662">
        <ele>124.5</ele>
        <time>2014-7-5T9:57:25.000Z</time>
      </trkpt>
      <trkpt lat="44.53835" lon="0.7662">
        <ele>125.5</ele>
        <time>2014-7-5T9:57:25.000Z</time>
      </trkpt>
      <trkpt lat="44.53835" lon="0.7662">
        <ele>125.5</ele>
        <time>2014-7-5T9:57:25.000Z</time>
      </trkpt>
      <trkpt lat="44.53831" lon="0.7662">
        <ele>125.5</ele>
        <time>2014-7-5T9:57:25.000Z</time>
      </trkpt>
      <trkpt lat="44.53831" lon="0.7662">
        <ele>125.5</ele>
        <time>2014-7-5T9:57:25.000Z</time>
      </trkpt>
      <trkpt lat="44.53828" lon="0.7662">
        <ele>125.5</ele>
        <time>2014-7-5T9:57:25.000Z</time>
      </trkpt>
      <trkpt lat="44.53828" lon="0.7662">
        <ele>125.5</ele>
        <time>2014-7-5T9:57:25.000Z</time>
      </trkpt>
      <trkpt lat="44.53824" lon="0.7662">
        <ele>125.5</ele>
        <time>2014-7-5T9:57:25.000Z</time>
      </trkpt>
      <trkpt lat="44.53824" lon="0.7662">
        <ele>125.5</ele>
        <time>2014-7-5T9:57:25.000Z</time>
      </trkpt>
      <trkpt lat="44.53821" lon="0.76621">
        <ele>125.5</ele>
        <time>2014-7-5T9:57:25.000Z</time>
      </trkpt>
      <trkpt lat="44.53821" lon="0.76621">
        <ele>125.5</ele>
        <time>2014-7-5T9:57:25.000Z</time>
      </trkpt>
      <trkpt lat="44.53817" lon="0.76621">
        <ele>125.5</ele>
        <time>2014-7-5T9:57:25.000Z</time>
      </trkpt>
      <trkpt lat="44.53817" lon="0.76621">
        <ele>125.5</ele>
        <time>2014-7-5T9:57:25.000Z</time>
      </trkpt>
      <trkpt lat="44.53814" lon="0.7662">
        <ele>125.5</ele>
        <time>2014-7-5T9:57:25.000Z</time>
      </trkpt>
      <trkpt lat="44.53814" lon="0.7662">
        <ele>125.5</ele>
        <time>2014-7-5T9:57:25.000Z</time>
      </trkpt>
      <trkpt lat="44.5381" lon="0.76619">
        <ele>125.5</ele>
        <time>2014-7-5T9:57:25.000Z</time>
      </trkpt>
      <trkpt lat="44.5381" lon="0.76619">
        <ele>125.5</ele>
        <time>2014-7-5T9:57:25.000Z</time>
      </trkpt>
      <trkpt lat="44.53807" lon="0.76619">
        <ele>125.5</ele>
        <time>2014-7-5T9:57:25.000Z</time>
      </trkpt>
      <trkpt lat="44.53807" lon="0.76619">
        <ele>125.5</ele>
        <time>2014-7-5T9:57:25.000Z</time>
      </trkpt>
      <trkpt lat="44.53803" lon="0.76619">
        <ele>125.5</ele>
        <time>2014-7-5T9:57:25.000Z</time>
      </trkpt>
      <trkpt lat="44.53803" lon="0.76619">
        <ele>125.5</ele>
        <time>2014-7-5T9:57:25.000Z</time>
      </trkpt>
      <trkpt lat="44.53799" lon="0.76618">
        <ele>125.5</ele>
        <time>2014-7-5T9:57:25.000Z</time>
      </trkpt>
      <trkpt lat="44.53799" lon="0.76618">
        <ele>125.5</ele>
        <time>2014-7-5T9:57:25.000Z</time>
      </trkpt>
      <trkpt lat="44.53796" lon="0.76618">
        <ele>125.5</ele>
        <time>2014-7-5T9:57:25.000Z</time>
      </trkpt>
      <trkpt lat="44.53796" lon="0.76618">
        <ele>125.5</ele>
        <time>2014-7-5T9:58:16.000Z</time>
      </trkpt>
      <trkpt lat="44.53792" lon="0.76618">
        <ele>125.5</ele>
        <time>2014-7-5T9:58:16.000Z</time>
      </trkpt>
      <trkpt lat="44.53792" lon="0.76618">
        <ele>125.5</ele>
        <time>2014-7-5T9:58:16.000Z</time>
      </trkpt>
      <trkpt lat="44.53789" lon="0.76618">
        <ele>125.5</ele>
        <time>2014-7-5T9:58:16.000Z</time>
      </trkpt>
      <trkpt lat="44.53789" lon="0.76618">
        <ele>125.5</ele>
        <time>2014-7-5T9:58:16.000Z</time>
      </trkpt>
      <trkpt lat="44.53786" lon="0.76618">
        <ele>125.5</ele>
        <time>2014-7-5T9:58:16.000Z</time>
      </trkpt>
      <trkpt lat="44.53786" lon="0.76618">
        <ele>125.5</ele>
        <time>2014-7-5T9:58:16.000Z</time>
      </trkpt>
      <trkpt lat="44.53782" lon="0.76618">
        <ele>125.5</ele>
        <time>2014-7-5T9:58:16.000Z</time>
      </trkpt>
      <trkpt lat="44.53782" lon="0.76618">
        <ele>125.5</ele>
        <time>2014-7-5T9:58:16.000Z</time>
      </trkpt>
      <trkpt lat="44.53779" lon="0.76618">
        <ele>125.5</ele>
        <time>2014-7-5T9:58:16.000Z</time>
      </trkpt>
      <trkpt lat="44.53779" lon="0.76618">
        <ele>125.5</ele>
        <time>2014-7-5T9:58:16.000Z</time>
      </trkpt>
      <trkpt lat="44.53775" lon="0.76617">
        <ele>125.5</ele>
        <time>2014-7-5T9:58:16.000Z</time>
      </trkpt>
      <trkpt lat="44.53775" lon="0.76617">
        <ele>125.5</ele>
        <time>2014-7-5T9:58:16.000Z</time>
      </trkpt>
      <trkpt lat="44.53772" lon="0.76617">
        <ele>125.5</ele>
        <time>2014-7-5T9:58:16.000Z</time>
      </trkpt>
      <trkpt lat="44.53772" lon="0.76617">
        <ele>125.5</ele>
        <time>2014-7-5T9:58:16.000Z</time>
      </trkpt>
      <trkpt lat="44.53769" lon="0.76616">
        <ele>125.5</ele>
        <time>2014-7-5T9:58:16.000Z</time>
      </trkpt>
      <trkpt lat="44.53769" lon="0.76616">
        <ele>125.5</ele>
        <time>2014-7-5T9:58:16.000Z</time>
      </trkpt>
      <trkpt lat="44.53766" lon="0.76615">
        <ele>125.5</ele>
        <time>2014-7-5T9:58:16.000Z</time>
      </trkpt>
      <trkpt lat="44.53766" lon="0.76615">
        <ele>125.5</ele>
        <time>2014-7-5T9:58:16.000Z</time>
      </trkpt>
      <trkpt lat="44.53764" lon="0.76615">
        <ele>126.5</ele>
        <time>2014-7-5T9:58:16.000Z</time>
      </trkpt>
      <trkpt lat="44.53764" lon="0.76615">
        <ele>126.5</ele>
        <time>2014-7-5T9:58:16.000Z</time>
      </trkpt>
      <trkpt lat="44.53761" lon="0.76614">
        <ele>126.5</ele>
        <time>2014-7-5T9:58:16.000Z</time>
      </trkpt>
      <trkpt lat="44.53761" lon="0.76614">
        <ele>126.5</ele>
        <time>2014-7-5T9:58:16.000Z</time>
      </trkpt>
      <trkpt lat="44.53758" lon="0.76614">
        <ele>126.5</ele>
        <time>2014-7-5T9:58:16.000Z</time>
      </trkpt>
      <trkpt lat="44.53758" lon="0.76614">
        <ele>126.5</ele>
        <time>2014-7-5T9:58:16.000Z</time>
      </trkpt>
      <trkpt lat="44.53755" lon="0.76613">
        <ele>126.5</ele>
        <time>2014-7-5T9:58:16.000Z</time>
      </trkpt>
      <trkpt lat="44.53755" lon="0.76613">
        <ele>126.5</ele>
        <time>2014-7-5T9:58:16.000Z</time>
      </trkpt>
      <trkpt lat="44.53752" lon="0.76613">
        <ele>126.5</ele>
        <time>2014-7-5T9:58:16.000Z</time>
      </trkpt>
      <trkpt lat="44.53752" lon="0.76613">
        <ele>126.5</ele>
        <time>2014-7-5T9:58:16.000Z</time>
      </trkpt>
      <trkpt lat="44.53748" lon="0.76612">
        <ele>126.5</ele>
        <time>2014-7-5T9:58:16.000Z</time>
      </trkpt>
      <trkpt lat="44.53748" lon="0.76612">
        <ele>126.5</ele>
        <time>2014-7-5T9:58:16.000Z</time>
      </trkpt>
      <trkpt lat="44.53745" lon="0.76611">
        <ele>126.5</ele>
        <time>2014-7-5T9:58:16.000Z</time>
      </trkpt>
      <trkpt lat="44.53745" lon="0.76611">
        <ele>126.5</ele>
        <time>2014-7-5T9:58:16.000Z</time>
      </trkpt>
      <trkpt lat="44.53742" lon="0.7661">
        <ele>126.5</ele>
        <time>2014-7-5T9:58:16.000Z</time>
      </trkpt>
      <trkpt lat="44.53742" lon="0.7661">
        <ele>126.5</ele>
        <time>2014-7-5T9:58:16.000Z</time>
      </trkpt>
      <trkpt lat="44.53739" lon="0.76609">
        <ele>126.5</ele>
        <time>2014-7-5T9:58:16.000Z</time>
      </trkpt>
      <trkpt lat="44.53739" lon="0.76609">
        <ele>126.5</ele>
        <time>2014-7-5T9:58:16.000Z</time>
      </trkpt>
      <trkpt lat="44.53736" lon="0.76608">
        <ele>126.5</ele>
        <time>2014-7-5T9:58:16.000Z</time>
      </trkpt>
      <trkpt lat="44.53736" lon="0.76608">
        <ele>126.5</ele>
        <time>2014-7-5T9:58:16.000Z</time>
      </trkpt>
      <trkpt lat="44.53732" lon="0.76607">
        <ele>126.5</ele>
        <time>2014-7-5T9:58:16.000Z</time>
      </trkpt>
      <trkpt lat="44.53732" lon="0.76607">
        <ele>126.5</ele>
        <time>2014-7-5T9:58:16.000Z</time>
      </trkpt>
      <trkpt lat="44.53729" lon="0.76606">
        <ele>127.5</ele>
        <time>2014-7-5T9:58:16.000Z</time>
      </trkpt>
      <trkpt lat="44.53729" lon="0.76606">
        <ele>127.5</ele>
        <time>2014-7-5T9:58:16.000Z</time>
      </trkpt>
      <trkpt lat="44.53726" lon="0.76605">
        <ele>127.5</ele>
        <time>2014-7-5T9:58:16.000Z</time>
      </trkpt>
      <trkpt lat="44.53726" lon="0.76605">
        <ele>127.5</ele>
        <time>2014-7-5T9:58:16.000Z</time>
      </trkpt>
      <trkpt lat="44.53722" lon="0.76604">
        <ele>128.5</ele>
        <time>2014-7-5T9:58:16.000Z</time>
      </trkpt>
      <trkpt lat="44.53722" lon="0.76604">
        <ele>128.5</ele>
        <time>2014-7-5T9:58:16.000Z</time>
      </trkpt>
      <trkpt lat="44.53719" lon="0.76602">
        <ele>128.5</ele>
        <time>2014-7-5T9:58:16.000Z</time>
      </trkpt>
      <trkpt lat="44.53719" lon="0.76602">
        <ele>128.5</ele>
        <time>2014-7-5T9:58:16.000Z</time>
      </trkpt>
      <trkpt lat="44.53716" lon="0.76601">
        <ele>128.5</ele>
        <time>2014-7-5T9:58:16.000Z</time>
      </trkpt>
      <trkpt lat="44.53716" lon="0.76601">
        <ele>128.5</ele>
        <time>2014-7-5T9:58:16.000Z</time>
      </trkpt>
      <trkpt lat="44.53713" lon="0.76599">
        <ele>128.5</ele>
        <time>2014-7-5T9:58:16.000Z</time>
      </trkpt>
      <trkpt lat="44.53713" lon="0.76599">
        <ele>128.5</ele>
        <time>2014-7-5T9:58:16.000Z</time>
      </trkpt>
      <trkpt lat="44.5371" lon="0.76598">
        <ele>128.5</ele>
        <time>2014-7-5T9:58:16.000Z</time>
      </trkpt>
      <trkpt lat="44.5371" lon="0.76598">
        <ele>128.5</ele>
        <time>2014-7-5T9:58:16.000Z</time>
      </trkpt>
      <trkpt lat="44.53707" lon="0.76596">
        <ele>128.5</ele>
        <time>2014-7-5T9:58:16.000Z</time>
      </trkpt>
      <trkpt lat="44.53707" lon="0.76596">
        <ele>128.5</ele>
        <time>2014-7-5T9:58:16.000Z</time>
      </trkpt>
      <trkpt lat="44.53704" lon="0.76595">
        <ele>128.5</ele>
        <time>2014-7-5T9:58:16.000Z</time>
      </trkpt>
      <trkpt lat="44.53704" lon="0.76595">
        <ele>128.5</ele>
        <time>2014-7-5T9:58:16.000Z</time>
      </trkpt>
      <trkpt lat="44.53701" lon="0.76594">
        <ele>128.5</ele>
        <time>2014-7-5T9:58:16.000Z</time>
      </trkpt>
      <trkpt lat="44.53701" lon="0.76594">
        <ele>128.5</ele>
        <time>2014-7-5T9:58:16.000Z</time>
      </trkpt>
      <trkpt lat="44.53698" lon="0.76592">
        <ele>128.5</ele>
        <time>2014-7-5T9:58:16.000Z</time>
      </trkpt>
      <trkpt lat="44.53698" lon="0.76592">
        <ele>128.5</ele>
        <time>2014-7-5T9:58:16.000Z</time>
      </trkpt>
      <trkpt lat="44.53696" lon="0.7659">
        <ele>128.5</ele>
        <time>2014-7-5T9:58:16.000Z</time>
      </trkpt>
      <trkpt lat="44.53696" lon="0.7659">
        <ele>128.5</ele>
        <time>2014-7-5T9:58:16.000Z</time>
      </trkpt>
      <trkpt lat="44.53693" lon="0.76589">
        <ele>129.5</ele>
        <time>2014-7-5T9:58:16.000Z</time>
      </trkpt>
      <trkpt lat="44.53693" lon="0.76589">
        <ele>129.5</ele>
        <time>2014-7-5T9:58:16.000Z</time>
      </trkpt>
      <trkpt lat="44.5369" lon="0.76588">
        <ele>128.5</ele>
        <time>2014-7-5T9:58:16.000Z</time>
      </trkpt>
      <trkpt lat="44.5369" lon="0.76588">
        <ele>128.5</ele>
        <time>2014-7-5T9:58:16.000Z</time>
      </trkpt>
      <trkpt lat="44.53689" lon="0.76587">
        <ele>129.5</ele>
        <time>2014-7-5T9:58:16.000Z</time>
      </trkpt>
      <trkpt lat="44.53689" lon="0.76587">
        <ele>129.5</ele>
        <time>2014-7-5T9:58:16.000Z</time>
      </trkpt>
      <trkpt lat="44.53687" lon="0.76586">
        <ele>129.5</ele>
        <time>2014-7-5T9:58:16.000Z</time>
      </trkpt>
      <trkpt lat="44.53687" lon="0.76586">
        <ele>129.5</ele>
        <time>2014-7-5T9:58:16.000Z</time>
      </trkpt>
      <trkpt lat="44.53683" lon="0.76584">
        <ele>129.5</ele>
        <time>2014-7-5T9:58:16.000Z</time>
      </trkpt>
      <trkpt lat="44.53683" lon="0.76584">
        <ele>129.5</ele>
        <time>2014-7-5T9:58:16.000Z</time>
      </trkpt>
      <trkpt lat="44.53681" lon="0.76583">
        <ele>129.5</ele>
        <time>2014-7-5T9:58:16.000Z</time>
      </trkpt>
      <trkpt lat="44.53681" lon="0.76583">
        <ele>129.5</ele>
        <time>2014-7-5T9:58:16.000Z</time>
      </trkpt>
      <trkpt lat="44.53679" lon="0.76583">
        <ele>129.5</ele>
        <time>2014-7-5T9:58:16.000Z</time>
      </trkpt>
      <trkpt lat="44.53679" lon="0.76583">
        <ele>129.5</ele>
        <time>2014-7-5T9:58:16.000Z</time>
      </trkpt>
      <trkpt lat="44.53677" lon="0.76582">
        <ele>129.5</ele>
        <time>2014-7-5T9:58:16.000Z</time>
      </trkpt>
      <trkpt lat="44.53677" lon="0.76582">
        <ele>129.5</ele>
        <time>2014-7-5T9:58:16.000Z</time>
      </trkpt>
      <trkpt lat="44.53675" lon="0.76582">
        <ele>129.5</ele>
        <time>2014-7-5T9:58:16.000Z</time>
      </trkpt>
      <trkpt lat="44.53675" lon="0.76582">
        <ele>129.5</ele>
        <time>2014-7-5T9:58:16.000Z</time>
      </trkpt>
      <trkpt lat="44.53673" lon="0.76581">
        <ele>129.5</ele>
        <time>2014-7-5T9:58:16.000Z</time>
      </trkpt>
      <trkpt lat="44.53673" lon="0.76581">
        <ele>129.5</ele>
        <time>2014-7-5T9:58:16.000Z</time>
      </trkpt>
      <trkpt lat="44.53671" lon="0.76581">
        <ele>129.5</ele>
        <time>2014-7-5T9:58:16.000Z</time>
      </trkpt>
      <trkpt lat="44.53671" lon="0.76581">
        <ele>129.5</ele>
        <time>2014-7-5T9:58:16.000Z</time>
      </trkpt>
      <trkpt lat="44.53669" lon="0.7658">
        <ele>129.5</ele>
        <time>2014-7-5T9:58:16.000Z</time>
      </trkpt>
      <trkpt lat="44.53669" lon="0.7658">
        <ele>129.5</ele>
        <time>2014-7-5T9:58:16.000Z</time>
      </trkpt>
      <trkpt lat="44.53667" lon="0.76579">
        <ele>130.5</ele>
        <time>2014-7-5T9:58:16.000Z</time>
      </trkpt>
      <trkpt lat="44.53667" lon="0.76579">
        <ele>130.5</ele>
        <time>2014-7-5T9:58:16.000Z</time>
      </trkpt>
      <trkpt lat="44.53665" lon="0.76578">
        <ele>130.5</ele>
        <time>2014-7-5T9:58:16.000Z</time>
      </trkpt>
      <trkpt lat="44.53665" lon="0.76578">
        <ele>130.5</ele>
        <time>2014-7-5T9:58:16.000Z</time>
      </trkpt>
      <trkpt lat="44.53663" lon="0.76578">
        <ele>130.5</ele>
        <time>2014-7-5T9:58:16.000Z</time>
      </trkpt>
      <trkpt lat="44.53663" lon="0.76578">
        <ele>130.5</ele>
        <time>2014-7-5T9:58:16.000Z</time>
      </trkpt>
      <trkpt lat="44.5366" lon="0.76577">
        <ele>130.5</ele>
        <time>2014-7-5T9:58:16.000Z</time>
      </trkpt>
      <trkpt lat="44.5366" lon="0.76577">
        <ele>130.5</ele>
        <time>2014-7-5T9:58:16.000Z</time>
      </trkpt>
      <trkpt lat="44.53658" lon="0.76577">
        <ele>130.5</ele>
        <time>2014-7-5T9:58:16.000Z</time>
      </trkpt>
      <trkpt lat="44.53658" lon="0.76577">
        <ele>130.5</ele>
        <time>2014-7-5T9:58:16.000Z</time>
      </trkpt>
      <trkpt lat="44.53656" lon="0.76576">
        <ele>130.5</ele>
        <time>2014-7-5T9:58:16.000Z</time>
      </trkpt>
      <trkpt lat="44.53656" lon="0.76576">
        <ele>130.5</ele>
        <time>2014-7-5T9:58:16.000Z</time>
      </trkpt>
      <trkpt lat="44.53654" lon="0.76575">
        <ele>131.5</ele>
        <time>2014-7-5T9:59:25.000Z</time>
      </trkpt>
      <trkpt lat="44.53654" lon="0.76575">
        <ele>131.5</ele>
        <time>2014-7-5T9:59:25.000Z</time>
      </trkpt>
      <trkpt lat="44.53652" lon="0.76573">
        <ele>131.5</ele>
        <time>2014-7-5T9:59:25.000Z</time>
      </trkpt>
      <trkpt lat="44.53652" lon="0.76573">
        <ele>131.5</ele>
        <time>2014-7-5T9:59:25.000Z</time>
      </trkpt>
      <trkpt lat="44.5365" lon="0.76573">
        <ele>131.5</ele>
        <time>2014-7-5T9:59:25.000Z</time>
      </trkpt>
      <trkpt lat="44.5365" lon="0.76573">
        <ele>131.5</ele>
        <time>2014-7-5T9:59:25.000Z</time>
      </trkpt>
      <trkpt lat="44.53648" lon="0.76573">
        <ele>131.5</ele>
        <time>2014-7-5T9:59:25.000Z</time>
      </trkpt>
      <trkpt lat="44.53648" lon="0.76573">
        <ele>131.5</ele>
        <time>2014-7-5T9:59:25.000Z</time>
      </trkpt>
      <trkpt lat="44.53646" lon="0.76572">
        <ele>131.5</ele>
        <time>2014-7-5T9:59:25.000Z</time>
      </trkpt>
      <trkpt lat="44.53646" lon="0.76572">
        <ele>131.5</ele>
        <time>2014-7-5T9:59:25.000Z</time>
      </trkpt>
      <trkpt lat="44.53644" lon="0.76572">
        <ele>132.5</ele>
        <time>2014-7-5T9:59:25.000Z</time>
      </trkpt>
      <trkpt lat="44.53644" lon="0.76572">
        <ele>132.5</ele>
        <time>2014-7-5T9:59:25.000Z</time>
      </trkpt>
      <trkpt lat="44.53642" lon="0.76572">
        <ele>132.5</ele>
        <time>2014-7-5T9:59:25.000Z</time>
      </trkpt>
      <trkpt lat="44.53642" lon="0.76572">
        <ele>132.5</ele>
        <time>2014-7-5T9:59:25.000Z</time>
      </trkpt>
      <trkpt lat="44.5364" lon="0.76572">
        <ele>132.5</ele>
        <time>2014-7-5T9:59:25.000Z</time>
      </trkpt>
      <trkpt lat="44.5364" lon="0.76572">
        <ele>132.5</ele>
        <time>2014-7-5T9:59:25.000Z</time>
      </trkpt>
      <trkpt lat="44.53637" lon="0.76572">
        <ele>133.5</ele>
        <time>2014-7-5T9:59:25.000Z</time>
      </trkpt>
      <trkpt lat="44.53637" lon="0.76572">
        <ele>133.5</ele>
        <time>2014-7-5T9:59:25.000Z</time>
      </trkpt>
      <trkpt lat="44.53635" lon="0.76571">
        <ele>133.5</ele>
        <time>2014-7-5T9:59:25.000Z</time>
      </trkpt>
      <trkpt lat="44.53635" lon="0.76571">
        <ele>133.5</ele>
        <time>2014-7-5T9:59:25.000Z</time>
      </trkpt>
      <trkpt lat="44.53633" lon="0.76571">
        <ele>133.5</ele>
        <time>2014-7-5T9:59:25.000Z</time>
      </trkpt>
      <trkpt lat="44.53633" lon="0.76571">
        <ele>133.5</ele>
        <time>2014-7-5T9:59:25.000Z</time>
      </trkpt>
      <trkpt lat="44.53631" lon="0.76571">
        <ele>133.5</ele>
        <time>2014-7-5T9:59:25.000Z</time>
      </trkpt>
      <trkpt lat="44.53631" lon="0.76571">
        <ele>133.5</ele>
        <time>2014-7-5T9:59:25.000Z</time>
      </trkpt>
      <trkpt lat="44.53628" lon="0.76571">
        <ele>133.5</ele>
        <time>2014-7-5T9:59:25.000Z</time>
      </trkpt>
      <trkpt lat="44.53628" lon="0.76571">
        <ele>133.5</ele>
        <time>2014-7-5T9:59:25.000Z</time>
      </trkpt>
      <trkpt lat="44.53624" lon="0.76572">
        <ele>133.5</ele>
        <time>2014-7-5T9:59:25.000Z</time>
      </trkpt>
      <trkpt lat="44.53624" lon="0.76572">
        <ele>133.5</ele>
        <time>2014-7-5T9:59:25.000Z</time>
      </trkpt>
      <trkpt lat="44.53622" lon="0.76572">
        <ele>133.5</ele>
        <time>2014-7-5T9:59:25.000Z</time>
      </trkpt>
      <trkpt lat="44.53622" lon="0.76572">
        <ele>133.5</ele>
        <time>2014-7-5T9:59:25.000Z</time>
      </trkpt>
      <trkpt lat="44.53619" lon="0.76573">
        <ele>133.5</ele>
        <time>2014-7-5T9:59:25.000Z</time>
      </trkpt>
      <trkpt lat="44.53619" lon="0.76573">
        <ele>133.5</ele>
        <time>2014-7-5T9:59:25.000Z</time>
      </trkpt>
      <trkpt lat="44.53616" lon="0.76574">
        <ele>133.5</ele>
        <time>2014-7-5T9:59:25.000Z</time>
      </trkpt>
      <trkpt lat="44.53616" lon="0.76574">
        <ele>133.5</ele>
        <time>2014-7-5T9:59:25.000Z</time>
      </trkpt>
      <trkpt lat="44.53613" lon="0.76575">
        <ele>133.5</ele>
        <time>2014-7-5T9:59:25.000Z</time>
      </trkpt>
      <trkpt lat="44.53613" lon="0.76575">
        <ele>133.5</ele>
        <time>2014-7-5T9:59:25.000Z</time>
      </trkpt>
      <trkpt lat="44.5361" lon="0.76577">
        <ele>134.5</ele>
        <time>2014-7-5T9:59:25.000Z</time>
      </trkpt>
      <trkpt lat="44.5361" lon="0.76577">
        <ele>134.5</ele>
        <time>2014-7-5T9:59:25.000Z</time>
      </trkpt>
      <trkpt lat="44.53606" lon="0.76578">
        <ele>134.5</ele>
        <time>2014-7-5T9:59:25.000Z</time>
      </trkpt>
      <trkpt lat="44.53606" lon="0.76578">
        <ele>134.5</ele>
        <time>2014-7-5T9:59:25.000Z</time>
      </trkpt>
      <trkpt lat="44.53604" lon="0.76579">
        <ele>134.5</ele>
        <time>2014-7-5T9:59:25.000Z</time>
      </trkpt>
      <trkpt lat="44.53604" lon="0.76579">
        <ele>134.5</ele>
        <time>2014-7-5T9:59:25.000Z</time>
      </trkpt>
      <trkpt lat="44.53602" lon="0.76579">
        <ele>134.5</ele>
        <time>2014-7-5T9:59:25.000Z</time>
      </trkpt>
      <trkpt lat="44.53602" lon="0.76579">
        <ele>134.5</ele>
        <time>2014-7-5T9:59:25.000Z</time>
      </trkpt>
      <trkpt lat="44.536" lon="0.7658">
        <ele>135.5</ele>
        <time>2014-7-5T9:59:25.000Z</time>
      </trkpt>
      <trkpt lat="44.536" lon="0.7658">
        <ele>135.5</ele>
        <time>2014-7-5T9:59:25.000Z</time>
      </trkpt>
      <trkpt lat="44.53599" lon="0.76581">
        <ele>135.5</ele>
        <time>2014-7-5T9:59:25.000Z</time>
      </trkpt>
      <trkpt lat="44.53599" lon="0.76581">
        <ele>135.5</ele>
        <time>2014-7-5T9:59:25.000Z</time>
      </trkpt>
      <trkpt lat="44.53597" lon="0.76583">
        <ele>136.5</ele>
        <time>2014-7-5T9:59:25.000Z</time>
      </trkpt>
      <trkpt lat="44.53597" lon="0.76583">
        <ele>136.5</ele>
        <time>2014-7-5T9:59:25.000Z</time>
      </trkpt>
      <trkpt lat="44.53595" lon="0.76584">
        <ele>136.5</ele>
        <time>2014-7-5T9:59:25.000Z</time>
      </trkpt>
      <trkpt lat="44.53595" lon="0.76584">
        <ele>136.5</ele>
        <time>2014-7-5T9:59:25.000Z</time>
      </trkpt>
      <trkpt lat="44.53593" lon="0.76585">
        <ele>136.5</ele>
        <time>2014-7-5T9:59:25.000Z</time>
      </trkpt>
      <trkpt lat="44.53593" lon="0.76585">
        <ele>136.5</ele>
        <time>2014-7-5T9:59:25.000Z</time>
      </trkpt>
      <trkpt lat="44.53592" lon="0.76587">
        <ele>137.5</ele>
        <time>2014-7-5T9:59:25.000Z</time>
      </trkpt>
      <trkpt lat="44.53592" lon="0.76587">
        <ele>137.5</ele>
        <time>2014-7-5T9:59:25.000Z</time>
      </trkpt>
      <trkpt lat="44.5359" lon="0.76588">
        <ele>137.5</ele>
        <time>2014-7-5T9:59:25.000Z</time>
      </trkpt>
      <trkpt lat="44.5359" lon="0.76588">
        <ele>137.5</ele>
        <time>2014-7-5T9:59:25.000Z</time>
      </trkpt>
      <trkpt lat="44.53586" lon="0.7659">
        <ele>138.5</ele>
        <time>2014-7-5T9:59:25.000Z</time>
      </trkpt>
      <trkpt lat="44.53586" lon="0.7659">
        <ele>138.5</ele>
        <time>2014-7-5T9:59:25.000Z</time>
      </trkpt>
      <trkpt lat="44.53584" lon="0.76592">
        <ele>139.5</ele>
        <time>2014-7-5T9:59:25.000Z</time>
      </trkpt>
      <trkpt lat="44.53584" lon="0.76592">
        <ele>139.5</ele>
        <time>2014-7-5T9:59:25.000Z</time>
      </trkpt>
      <trkpt lat="44.53582" lon="0.76594">
        <ele>139.5</ele>
        <time>2014-7-5T9:59:25.000Z</time>
      </trkpt>
      <trkpt lat="44.53582" lon="0.76594">
        <ele>139.5</ele>
        <time>2014-7-5T9:59:25.000Z</time>
      </trkpt>
      <trkpt lat="44.53579" lon="0.76596">
        <ele>140.5</ele>
        <time>2014-7-5T9:59:25.000Z</time>
      </trkpt>
      <trkpt lat="44.53579" lon="0.76596">
        <ele>140.5</ele>
        <time>2014-7-5T9:59:25.000Z</time>
      </trkpt>
      <trkpt lat="44.53577" lon="0.76597">
        <ele>140.5</ele>
        <time>2014-7-5T9:59:25.000Z</time>
      </trkpt>
      <trkpt lat="44.53577" lon="0.76597">
        <ele>140.5</ele>
        <time>2014-7-5T9:59:25.000Z</time>
      </trkpt>
      <trkpt lat="44.53576" lon="0.76599">
        <ele>140.5</ele>
        <time>2014-7-5T9:59:25.000Z</time>
      </trkpt>
      <trkpt lat="44.53576" lon="0.76599">
        <ele>140.5</ele>
        <time>2014-7-5T9:59:25.000Z</time>
      </trkpt>
      <trkpt lat="44.53573" lon="0.766">
        <ele>140.5</ele>
        <time>2014-7-5T9:59:25.000Z</time>
      </trkpt>
      <trkpt lat="44.53573" lon="0.766">
        <ele>140.5</ele>
        <time>2014-7-5T9:59:25.000Z</time>
      </trkpt>
      <trkpt lat="44.53572" lon="0.76601">
        <ele>139.5</ele>
        <time>2014-7-5T9:59:25.000Z</time>
      </trkpt>
      <trkpt lat="44.53572" lon="0.76601">
        <ele>139.5</ele>
        <time>2014-7-5T9:59:25.000Z</time>
      </trkpt>
      <trkpt lat="44.5357" lon="0.76602">
        <ele>140.5</ele>
        <time>2014-7-5T9:59:25.000Z</time>
      </trkpt>
      <trkpt lat="44.5357" lon="0.76602">
        <ele>140.5</ele>
        <time>2014-7-5T9:59:25.000Z</time>
      </trkpt>
      <trkpt lat="44.53568" lon="0.76604">
        <ele>140.5</ele>
        <time>2014-7-5T9:59:25.000Z</time>
      </trkpt>
      <trkpt lat="44.53568" lon="0.76604">
        <ele>140.5</ele>
        <time>2014-7-5T9:59:25.000Z</time>
      </trkpt>
      <trkpt lat="44.53565" lon="0.76607">
        <ele>140.5</ele>
        <time>2014-7-5T9:59:25.000Z</time>
      </trkpt>
      <trkpt lat="44.53565" lon="0.76607">
        <ele>140.5</ele>
        <time>2014-7-5T9:59:25.000Z</time>
      </trkpt>
      <trkpt lat="44.53563" lon="0.76608">
        <ele>140.5</ele>
        <time>2014-7-5T9:59:25.000Z</time>
      </trkpt>
      <trkpt lat="44.53563" lon="0.76608">
        <ele>140.5</ele>
        <time>2014-7-5T9:59:25.000Z</time>
      </trkpt>
      <trkpt lat="44.53561" lon="0.7661">
        <ele>140.5</ele>
        <time>2014-7-5T9:59:25.000Z</time>
      </trkpt>
      <trkpt lat="44.53561" lon="0.7661">
        <ele>140.5</ele>
        <time>2014-7-5T9:59:25.000Z</time>
      </trkpt>
      <trkpt lat="44.53557" lon="0.76612">
        <ele>140.5</ele>
        <time>2014-7-5T9:59:25.000Z</time>
      </trkpt>
      <trkpt lat="44.53557" lon="0.76612">
        <ele>140.5</ele>
        <time>2014-7-5T9:59:25.000Z</time>
      </trkpt>
      <trkpt lat="44.53554" lon="0.76614">
        <ele>141.5</ele>
        <time>2014-7-5T9:59:25.000Z</time>
      </trkpt>
      <trkpt lat="44.53554" lon="0.76614">
        <ele>141.5</ele>
        <time>2014-7-5T9:59:25.000Z</time>
      </trkpt>
      <trkpt lat="44.53552" lon="0.76615">
        <ele>141.5</ele>
        <time>2014-7-5T9:59:25.000Z</time>
      </trkpt>
      <trkpt lat="44.53552" lon="0.76615">
        <ele>141.5</ele>
        <time>2014-7-5T9:59:25.000Z</time>
      </trkpt>
      <trkpt lat="44.53551" lon="0.76616">
        <ele>141.5</ele>
        <time>2014-7-5T9:59:25.000Z</time>
      </trkpt>
      <trkpt lat="44.53551" lon="0.76616">
        <ele>141.5</ele>
        <time>2014-7-5T9:59:25.000Z</time>
      </trkpt>
      <trkpt lat="44.53549" lon="0.76617">
        <ele>141.5</ele>
        <time>2014-7-5T9:59:25.000Z</time>
      </trkpt>
      <trkpt lat="44.53549" lon="0.76617">
        <ele>141.5</ele>
        <time>2014-7-5T9:59:25.000Z</time>
      </trkpt>
      <trkpt lat="44.53547" lon="0.76619">
        <ele>142.5</ele>
        <time>2014-7-5T9:59:25.000Z</time>
      </trkpt>
      <trkpt lat="44.53547" lon="0.76619">
        <ele>142.5</ele>
        <time>2014-7-5T9:59:25.000Z</time>
      </trkpt>
      <trkpt lat="44.53545" lon="0.7662">
        <ele>142.5</ele>
        <time>2014-7-5T9:59:25.000Z</time>
      </trkpt>
      <trkpt lat="44.53545" lon="0.7662">
        <ele>142.5</ele>
        <time>2014-7-5T9:59:25.000Z</time>
      </trkpt>
      <trkpt lat="44.53543" lon="0.76622">
        <ele>142.5</ele>
        <time>2014-7-5T9:59:25.000Z</time>
      </trkpt>
      <trkpt lat="44.53543" lon="0.76622">
        <ele>142.5</ele>
        <time>2014-7-5T9:59:25.000Z</time>
      </trkpt>
      <trkpt lat="44.53539" lon="0.76624">
        <ele>143.5</ele>
        <time>2014-7-5T9:59:25.000Z</time>
      </trkpt>
      <trkpt lat="44.53539" lon="0.76624">
        <ele>143.5</ele>
        <time>2014-7-5T10:0:17.000Z</time>
      </trkpt>
      <trkpt lat="44.53537" lon="0.76626">
        <ele>144.5</ele>
        <time>2014-7-5T10:0:17.000Z</time>
      </trkpt>
      <trkpt lat="44.53537" lon="0.76626">
        <ele>144.5</ele>
        <time>2014-7-5T10:0:17.000Z</time>
      </trkpt>
      <trkpt lat="44.53536" lon="0.76627">
        <ele>144.5</ele>
        <time>2014-7-5T10:0:17.000Z</time>
      </trkpt>
      <trkpt lat="44.53536" lon="0.76627">
        <ele>144.5</ele>
        <time>2014-7-5T10:0:17.000Z</time>
      </trkpt>
      <trkpt lat="44.53534" lon="0.76628">
        <ele>144.5</ele>
        <time>2014-7-5T10:0:17.000Z</time>
      </trkpt>
      <trkpt lat="44.53534" lon="0.76628">
        <ele>144.5</ele>
        <time>2014-7-5T10:0:17.000Z</time>
      </trkpt>
      <trkpt lat="44.53532" lon="0.7663">
        <ele>144.5</ele>
        <time>2014-7-5T10:0:17.000Z</time>
      </trkpt>
      <trkpt lat="44.53532" lon="0.7663">
        <ele>144.5</ele>
        <time>2014-7-5T10:0:17.000Z</time>
      </trkpt>
      <trkpt lat="44.5353" lon="0.76632">
        <ele>145.5</ele>
        <time>2014-7-5T10:0:17.000Z</time>
      </trkpt>
      <trkpt lat="44.5353" lon="0.76632">
        <ele>145.5</ele>
        <time>2014-7-5T10:0:17.000Z</time>
      </trkpt>
      <trkpt lat="44.53528" lon="0.76633">
        <ele>145.5</ele>
        <time>2014-7-5T10:0:17.000Z</time>
      </trkpt>
      <trkpt lat="44.53528" lon="0.76633">
        <ele>145.5</ele>
        <time>2014-7-5T10:0:17.000Z</time>
      </trkpt>
      <trkpt lat="44.53526" lon="0.76634">
        <ele>146.5</ele>
        <time>2014-7-5T10:0:17.000Z</time>
      </trkpt>
      <trkpt lat="44.53526" lon="0.76634">
        <ele>146.5</ele>
        <time>2014-7-5T10:0:17.000Z</time>
      </trkpt>
      <trkpt lat="44.53524" lon="0.76635">
        <ele>146.5</ele>
        <time>2014-7-5T10:0:17.000Z</time>
      </trkpt>
      <trkpt lat="44.53524" lon="0.76635">
        <ele>146.5</ele>
        <time>2014-7-5T10:0:17.000Z</time>
      </trkpt>
      <trkpt lat="44.53522" lon="0.76636">
        <ele>147.5</ele>
        <time>2014-7-5T10:0:17.000Z</time>
      </trkpt>
      <trkpt lat="44.53522" lon="0.76636">
        <ele>147.5</ele>
        <time>2014-7-5T10:0:17.000Z</time>
      </trkpt>
      <trkpt lat="44.5352" lon="0.76638">
        <ele>147.5</ele>
        <time>2014-7-5T10:0:17.000Z</time>
      </trkpt>
      <trkpt lat="44.5352" lon="0.76638">
        <ele>147.5</ele>
        <time>2014-7-5T10:0:17.000Z</time>
      </trkpt>
      <trkpt lat="44.53518" lon="0.76639">
        <ele>147.5</ele>
        <time>2014-7-5T10:0:17.000Z</time>
      </trkpt>
      <trkpt lat="44.53518" lon="0.76639">
        <ele>147.5</ele>
        <time>2014-7-5T10:0:17.000Z</time>
      </trkpt>
      <trkpt lat="44.53516" lon="0.76641">
        <ele>147.5</ele>
        <time>2014-7-5T10:0:17.000Z</time>
      </trkpt>
      <trkpt lat="44.53516" lon="0.76641">
        <ele>147.5</ele>
        <time>2014-7-5T10:0:17.000Z</time>
      </trkpt>
      <trkpt lat="44.53514" lon="0.76642">
        <ele>148.5</ele>
        <time>2014-7-5T10:0:17.000Z</time>
      </trkpt>
      <trkpt lat="44.53514" lon="0.76642">
        <ele>148.5</ele>
        <time>2014-7-5T10:0:17.000Z</time>
      </trkpt>
      <trkpt lat="44.53512" lon="0.76644">
        <ele>149.5</ele>
        <time>2014-7-5T10:0:17.000Z</time>
      </trkpt>
      <trkpt lat="44.53512" lon="0.76644">
        <ele>149.5</ele>
        <time>2014-7-5T10:0:17.000Z</time>
      </trkpt>
      <trkpt lat="44.5351" lon="0.76645">
        <ele>149.5</ele>
        <time>2014-7-5T10:0:17.000Z</time>
      </trkpt>
      <trkpt lat="44.5351" lon="0.76645">
        <ele>149.5</ele>
        <time>2014-7-5T10:0:17.000Z</time>
      </trkpt>
      <trkpt lat="44.53508" lon="0.76646">
        <ele>149.5</ele>
        <time>2014-7-5T10:0:17.000Z</time>
      </trkpt>
      <trkpt lat="44.53508" lon="0.76646">
        <ele>149.5</ele>
        <time>2014-7-5T10:0:17.000Z</time>
      </trkpt>
      <trkpt lat="44.53505" lon="0.76647">
        <ele>149.5</ele>
        <time>2014-7-5T10:0:17.000Z</time>
      </trkpt>
      <trkpt lat="44.53505" lon="0.76647">
        <ele>149.5</ele>
        <time>2014-7-5T10:0:17.000Z</time>
      </trkpt>
      <trkpt lat="44.53503" lon="0.76649">
        <ele>149.5</ele>
        <time>2014-7-5T10:0:17.000Z</time>
      </trkpt>
      <trkpt lat="44.53503" lon="0.76649">
        <ele>149.5</ele>
        <time>2014-7-5T10:0:17.000Z</time>
      </trkpt>
      <trkpt lat="44.535" lon="0.7665">
        <ele>150.5</ele>
        <time>2014-7-5T10:0:17.000Z</time>
      </trkpt>
      <trkpt lat="44.535" lon="0.7665">
        <ele>150.5</ele>
        <time>2014-7-5T10:0:17.000Z</time>
      </trkpt>
      <trkpt lat="44.53498" lon="0.76651">
        <ele>150.5</ele>
        <time>2014-7-5T10:0:17.000Z</time>
      </trkpt>
      <trkpt lat="44.53498" lon="0.76651">
        <ele>150.5</ele>
        <time>2014-7-5T10:0:17.000Z</time>
      </trkpt>
      <trkpt lat="44.53496" lon="0.76653">
        <ele>151.5</ele>
        <time>2014-7-5T10:0:17.000Z</time>
      </trkpt>
      <trkpt lat="44.53496" lon="0.76653">
        <ele>151.5</ele>
        <time>2014-7-5T10:0:17.000Z</time>
      </trkpt>
      <trkpt lat="44.53493" lon="0.76654">
        <ele>151.5</ele>
        <time>2014-7-5T10:0:17.000Z</time>
      </trkpt>
      <trkpt lat="44.53493" lon="0.76654">
        <ele>151.5</ele>
        <time>2014-7-5T10:0:17.000Z</time>
      </trkpt>
      <trkpt lat="44.53491" lon="0.76655">
        <ele>151.5</ele>
        <time>2014-7-5T10:0:17.000Z</time>
      </trkpt>
      <trkpt lat="44.53491" lon="0.76655">
        <ele>151.5</ele>
        <time>2014-7-5T10:0:17.000Z</time>
      </trkpt>
      <trkpt lat="44.53489" lon="0.76656">
        <ele>152.5</ele>
        <time>2014-7-5T10:0:17.000Z</time>
      </trkpt>
      <trkpt lat="44.53489" lon="0.76656">
        <ele>152.5</ele>
        <time>2014-7-5T10:0:17.000Z</time>
      </trkpt>
      <trkpt lat="44.53486" lon="0.76657">
        <ele>152.5</ele>
        <time>2014-7-5T10:0:17.000Z</time>
      </trkpt>
      <trkpt lat="44.53486" lon="0.76657">
        <ele>152.5</ele>
        <time>2014-7-5T10:0:17.000Z</time>
      </trkpt>
      <trkpt lat="44.53484" lon="0.76657">
        <ele>153.5</ele>
        <time>2014-7-5T10:0:17.000Z</time>
      </trkpt>
      <trkpt lat="44.53484" lon="0.76657">
        <ele>153.5</ele>
        <time>2014-7-5T10:0:17.000Z</time>
      </trkpt>
      <trkpt lat="44.53481" lon="0.76657">
        <ele>153.5</ele>
        <time>2014-7-5T10:0:17.000Z</time>
      </trkpt>
      <trkpt lat="44.53481" lon="0.76657">
        <ele>153.5</ele>
        <time>2014-7-5T10:0:17.000Z</time>
      </trkpt>
      <trkpt lat="44.53479" lon="0.76657">
        <ele>153.5</ele>
        <time>2014-7-5T10:0:17.000Z</time>
      </trkpt>
      <trkpt lat="44.53479" lon="0.76657">
        <ele>153.5</ele>
        <time>2014-7-5T10:0:17.000Z</time>
      </trkpt>
      <trkpt lat="44.53477" lon="0.76657">
        <ele>153.5</ele>
        <time>2014-7-5T10:0:17.000Z</time>
      </trkpt>
      <trkpt lat="44.53477" lon="0.76657">
        <ele>153.5</ele>
        <time>2014-7-5T10:0:17.000Z</time>
      </trkpt>
      <trkpt lat="44.53475" lon="0.76657">
        <ele>154.5</ele>
        <time>2014-7-5T10:0:17.000Z</time>
      </trkpt>
      <trkpt lat="44.53475" lon="0.76657">
        <ele>154.5</ele>
        <time>2014-7-5T10:0:17.000Z</time>
      </trkpt>
      <trkpt lat="44.53473" lon="0.76657">
        <ele>154.5</ele>
        <time>2014-7-5T10:0:17.000Z</time>
      </trkpt>
      <trkpt lat="44.53473" lon="0.76657">
        <ele>154.5</ele>
        <time>2014-7-5T10:0:17.000Z</time>
      </trkpt>
      <trkpt lat="44.53471" lon="0.76657">
        <ele>155.5</ele>
        <time>2014-7-5T10:0:17.000Z</time>
      </trkpt>
      <trkpt lat="44.53471" lon="0.76657">
        <ele>155.5</ele>
        <time>2014-7-5T10:0:17.000Z</time>
      </trkpt>
      <trkpt lat="44.53469" lon="0.76656">
        <ele>155.5</ele>
        <time>2014-7-5T10:0:17.000Z</time>
      </trkpt>
      <trkpt lat="44.53469" lon="0.76656">
        <ele>155.5</ele>
        <time>2014-7-5T10:0:17.000Z</time>
      </trkpt>
      <trkpt lat="44.53465" lon="0.76655">
        <ele>155.5</ele>
        <time>2014-7-5T10:0:17.000Z</time>
      </trkpt>
      <trkpt lat="44.53465" lon="0.76655">
        <ele>155.5</ele>
        <time>2014-7-5T10:0:17.000Z</time>
      </trkpt>
      <trkpt lat="44.53461" lon="0.76653">
        <ele>153.5</ele>
        <time>2014-7-5T10:0:17.000Z</time>
      </trkpt>
      <trkpt lat="44.53461" lon="0.76653">
        <ele>153.5</ele>
        <time>2014-7-5T10:0:17.000Z</time>
      </trkpt>
      <trkpt lat="44.53459" lon="0.76652">
        <ele>152.5</ele>
        <time>2014-7-5T10:0:17.000Z</time>
      </trkpt>
      <trkpt lat="44.53459" lon="0.76652">
        <ele>152.5</ele>
        <time>2014-7-5T10:0:17.000Z</time>
      </trkpt>
      <trkpt lat="44.53457" lon="0.76651">
        <ele>152.5</ele>
        <time>2014-7-5T10:0:17.000Z</time>
      </trkpt>
      <trkpt lat="44.53457" lon="0.76651">
        <ele>152.5</ele>
        <time>2014-7-5T10:0:17.000Z</time>
      </trkpt>
      <trkpt lat="44.53454" lon="0.76649">
        <ele>150.5</ele>
        <time>2014-7-5T10:0:17.000Z</time>
      </trkpt>
      <trkpt lat="44.53454" lon="0.76649">
        <ele>150.5</ele>
        <time>2014-7-5T10:0:17.000Z</time>
      </trkpt>
      <trkpt lat="44.5345" lon="0.76647">
        <ele>151.5</ele>
        <time>2014-7-5T10:0:17.000Z</time>
      </trkpt>
      <trkpt lat="44.5345" lon="0.76647">
        <ele>151.5</ele>
        <time>2014-7-5T10:0:17.000Z</time>
      </trkpt>
      <trkpt lat="44.53449" lon="0.76646">
        <ele>151.5</ele>
        <time>2014-7-5T10:0:17.000Z</time>
      </trkpt>
      <trkpt lat="44.53449" lon="0.76646">
        <ele>151.5</ele>
        <time>2014-7-5T10:0:17.000Z</time>
      </trkpt>
      <trkpt lat="44.53447" lon="0.76645">
        <ele>152.5</ele>
        <time>2014-7-5T10:0:17.000Z</time>
      </trkpt>
      <trkpt lat="44.53447" lon="0.76645">
        <ele>152.5</ele>
        <time>2014-7-5T10:0:17.000Z</time>
      </trkpt>
      <trkpt lat="44.53445" lon="0.76644">
        <ele>152.5</ele>
        <time>2014-7-5T10:0:17.000Z</time>
      </trkpt>
      <trkpt lat="44.53445" lon="0.76644">
        <ele>152.5</ele>
        <time>2014-7-5T10:0:17.000Z</time>
      </trkpt>
      <trkpt lat="44.53443" lon="0.76643">
        <ele>154.5</ele>
        <time>2014-7-5T10:0:17.000Z</time>
      </trkpt>
      <trkpt lat="44.53443" lon="0.76643">
        <ele>154.5</ele>
        <time>2014-7-5T10:0:17.000Z</time>
      </trkpt>
      <trkpt lat="44.53441" lon="0.76642">
        <ele>154.5</ele>
        <time>2014-7-5T10:0:17.000Z</time>
      </trkpt>
      <trkpt lat="44.53441" lon="0.76642">
        <ele>154.5</ele>
        <time>2014-7-5T10:0:17.000Z</time>
      </trkpt>
      <trkpt lat="44.53439" lon="0.76641">
        <ele>155.5</ele>
        <time>2014-7-5T10:0:17.000Z</time>
      </trkpt>
      <trkpt lat="44.53439" lon="0.76641">
        <ele>155.5</ele>
        <time>2014-7-5T10:0:17.000Z</time>
      </trkpt>
      <trkpt lat="44.53437" lon="0.7664">
        <ele>154.5</ele>
        <time>2014-7-5T10:0:17.000Z</time>
      </trkpt>
      <trkpt lat="44.53437" lon="0.7664">
        <ele>154.5</ele>
        <time>2014-7-5T10:0:17.000Z</time>
      </trkpt>
      <trkpt lat="44.53435" lon="0.76638">
        <ele>153.5</ele>
        <time>2014-7-5T10:0:17.000Z</time>
      </trkpt>
      <trkpt lat="44.53435" lon="0.76638">
        <ele>153.5</ele>
        <time>2014-7-5T10:0:17.000Z</time>
      </trkpt>
      <trkpt lat="44.53433" lon="0.76637">
        <ele>152.5</ele>
        <time>2014-7-5T10:0:17.000Z</time>
      </trkpt>
      <trkpt lat="44.53433" lon="0.76637">
        <ele>152.5</ele>
        <time>2014-7-5T10:0:17.000Z</time>
      </trkpt>
      <trkpt lat="44.53431" lon="0.76635">
        <ele>152.5</ele>
        <time>2014-7-5T10:0:17.000Z</time>
      </trkpt>
      <trkpt lat="44.53431" lon="0.76635">
        <ele>152.5</ele>
        <time>2014-7-5T10:0:17.000Z</time>
      </trkpt>
      <trkpt lat="44.53428" lon="0.76634">
        <ele>151.5</ele>
        <time>2014-7-5T10:0:17.000Z</time>
      </trkpt>
      <trkpt lat="44.53428" lon="0.76634">
        <ele>151.5</ele>
        <time>2014-7-5T10:0:17.000Z</time>
      </trkpt>
      <trkpt lat="44.53426" lon="0.76633">
        <ele>151.5</ele>
        <time>2014-7-5T10:1:8.000Z</time>
      </trkpt>
      <trkpt lat="44.53426" lon="0.76633">
        <ele>151.5</ele>
        <time>2014-7-5T10:1:8.000Z</time>
      </trkpt>
      <trkpt lat="44.53424" lon="0.76631">
        <ele>151.5</ele>
        <time>2014-7-5T10:1:8.000Z</time>
      </trkpt>
      <trkpt lat="44.53424" lon="0.76631">
        <ele>151.5</ele>
        <time>2014-7-5T10:1:8.000Z</time>
      </trkpt>
      <trkpt lat="44.53421" lon="0.7663">
        <ele>151.5</ele>
        <time>2014-7-5T10:1:8.000Z</time>
      </trkpt>
      <trkpt lat="44.53421" lon="0.7663">
        <ele>151.5</ele>
        <time>2014-7-5T10:1:8.000Z</time>
      </trkpt>
      <trkpt lat="44.53419" lon="0.76629">
        <ele>151.5</ele>
        <time>2014-7-5T10:1:8.000Z</time>
      </trkpt>
      <trkpt lat="44.53419" lon="0.76629">
        <ele>151.5</ele>
        <time>2014-7-5T10:1:8.000Z</time>
      </trkpt>
      <trkpt lat="44.53416" lon="0.76627">
        <ele>151.5</ele>
        <time>2014-7-5T10:1:8.000Z</time>
      </trkpt>
      <trkpt lat="44.53416" lon="0.76627">
        <ele>151.5</ele>
        <time>2014-7-5T10:1:8.000Z</time>
      </trkpt>
      <trkpt lat="44.53412" lon="0.76625">
        <ele>151.5</ele>
        <time>2014-7-5T10:1:8.000Z</time>
      </trkpt>
      <trkpt lat="44.53412" lon="0.76625">
        <ele>151.5</ele>
        <time>2014-7-5T10:1:8.000Z</time>
      </trkpt>
      <trkpt lat="44.53409" lon="0.76624">
        <ele>151.5</ele>
        <time>2014-7-5T10:1:8.000Z</time>
      </trkpt>
      <trkpt lat="44.53409" lon="0.76624">
        <ele>151.5</ele>
        <time>2014-7-5T10:1:8.000Z</time>
      </trkpt>
      <trkpt lat="44.53407" lon="0.76623">
        <ele>151.5</ele>
        <time>2014-7-5T10:1:8.000Z</time>
      </trkpt>
      <trkpt lat="44.53407" lon="0.76623">
        <ele>151.5</ele>
        <time>2014-7-5T10:1:8.000Z</time>
      </trkpt>
      <trkpt lat="44.53404" lon="0.76622">
        <ele>152.5</ele>
        <time>2014-7-5T10:1:8.000Z</time>
      </trkpt>
      <trkpt lat="44.53404" lon="0.76622">
        <ele>152.5</ele>
        <time>2014-7-5T10:1:8.000Z</time>
      </trkpt>
      <trkpt lat="44.53402" lon="0.76621">
        <ele>152.5</ele>
        <time>2014-7-5T10:1:8.000Z</time>
      </trkpt>
      <trkpt lat="44.53402" lon="0.76621">
        <ele>152.5</ele>
        <time>2014-7-5T10:1:8.000Z</time>
      </trkpt>
      <trkpt lat="44.53399" lon="0.7662">
        <ele>152.5</ele>
        <time>2014-7-5T10:1:8.000Z</time>
      </trkpt>
      <trkpt lat="44.53399" lon="0.7662">
        <ele>152.5</ele>
        <time>2014-7-5T10:1:8.000Z</time>
      </trkpt>
      <trkpt lat="44.53396" lon="0.76619">
        <ele>152.5</ele>
        <time>2014-7-5T10:1:8.000Z</time>
      </trkpt>
      <trkpt lat="44.53396" lon="0.76619">
        <ele>152.5</ele>
        <time>2014-7-5T10:1:8.000Z</time>
      </trkpt>
      <trkpt lat="44.53393" lon="0.76618">
        <ele>152.5</ele>
        <time>2014-7-5T10:1:8.000Z</time>
      </trkpt>
      <trkpt lat="44.53393" lon="0.76618">
        <ele>152.5</ele>
        <time>2014-7-5T10:1:8.000Z</time>
      </trkpt>
      <trkpt lat="44.53391" lon="0.76617">
        <ele>152.5</ele>
        <time>2014-7-5T10:1:8.000Z</time>
      </trkpt>
      <trkpt lat="44.53391" lon="0.76617">
        <ele>152.5</ele>
        <time>2014-7-5T10:1:8.000Z</time>
      </trkpt>
      <trkpt lat="44.53388" lon="0.76616">
        <ele>151.5</ele>
        <time>2014-7-5T10:1:8.000Z</time>
      </trkpt>
      <trkpt lat="44.53388" lon="0.76616">
        <ele>151.5</ele>
        <time>2014-7-5T10:1:8.000Z</time>
      </trkpt>
      <trkpt lat="44.53385" lon="0.76615">
        <ele>151.5</ele>
        <time>2014-7-5T10:1:8.000Z</time>
      </trkpt>
      <trkpt lat="44.53385" lon="0.76615">
        <ele>151.5</ele>
        <time>2014-7-5T10:1:8.000Z</time>
      </trkpt>
      <trkpt lat="44.53382" lon="0.76613">
        <ele>152.5</ele>
        <time>2014-7-5T10:1:8.000Z</time>
      </trkpt>
      <trkpt lat="44.53382" lon="0.76613">
        <ele>152.5</ele>
        <time>2014-7-5T10:1:8.000Z</time>
      </trkpt>
      <trkpt lat="44.5338" lon="0.76612">
        <ele>151.5</ele>
        <time>2014-7-5T10:1:8.000Z</time>
      </trkpt>
      <trkpt lat="44.5338" lon="0.76612">
        <ele>151.5</ele>
        <time>2014-7-5T10:1:8.000Z</time>
      </trkpt>
      <trkpt lat="44.53377" lon="0.76611">
        <ele>151.5</ele>
        <time>2014-7-5T10:1:8.000Z</time>
      </trkpt>
      <trkpt lat="44.53377" lon="0.76611">
        <ele>151.5</ele>
        <time>2014-7-5T10:1:8.000Z</time>
      </trkpt>
      <trkpt lat="44.53375" lon="0.7661">
        <ele>151.5</ele>
        <time>2014-7-5T10:1:8.000Z</time>
      </trkpt>
      <trkpt lat="44.53375" lon="0.7661">
        <ele>151.5</ele>
        <time>2014-7-5T10:1:8.000Z</time>
      </trkpt>
      <trkpt lat="44.53373" lon="0.76608">
        <ele>151.5</ele>
        <time>2014-7-5T10:1:8.000Z</time>
      </trkpt>
      <trkpt lat="44.53373" lon="0.76608">
        <ele>151.5</ele>
        <time>2014-7-5T10:1:8.000Z</time>
      </trkpt>
      <trkpt lat="44.53371" lon="0.76606">
        <ele>151.5</ele>
        <time>2014-7-5T10:1:8.000Z</time>
      </trkpt>
      <trkpt lat="44.53371" lon="0.76606">
        <ele>151.5</ele>
        <time>2014-7-5T10:1:8.000Z</time>
      </trkpt>
      <trkpt lat="44.53368" lon="0.76604">
        <ele>151.5</ele>
        <time>2014-7-5T10:1:8.000Z</time>
      </trkpt>
      <trkpt lat="44.53368" lon="0.76604">
        <ele>151.5</ele>
        <time>2014-7-5T10:1:8.000Z</time>
      </trkpt>
      <trkpt lat="44.53366" lon="0.76602">
        <ele>151.5</ele>
        <time>2014-7-5T10:1:8.000Z</time>
      </trkpt>
      <trkpt lat="44.53366" lon="0.76602">
        <ele>151.5</ele>
        <time>2014-7-5T10:1:8.000Z</time>
      </trkpt>
      <trkpt lat="44.53364" lon="0.76601">
        <ele>151.5</ele>
        <time>2014-7-5T10:1:8.000Z</time>
      </trkpt>
      <trkpt lat="44.53364" lon="0.76601">
        <ele>151.5</ele>
        <time>2014-7-5T10:1:8.000Z</time>
      </trkpt>
      <trkpt lat="44.53361" lon="0.76599">
        <ele>151.5</ele>
        <time>2014-7-5T10:1:8.000Z</time>
      </trkpt>
      <trkpt lat="44.53361" lon="0.76599">
        <ele>151.5</ele>
        <time>2014-7-5T10:1:8.000Z</time>
      </trkpt>
      <trkpt lat="44.53359" lon="0.76598">
        <ele>151.5</ele>
        <time>2014-7-5T10:1:8.000Z</time>
      </trkpt>
      <trkpt lat="44.53359" lon="0.76598">
        <ele>151.5</ele>
        <time>2014-7-5T10:1:8.000Z</time>
      </trkpt>
      <trkpt lat="44.53357" lon="0.76598">
        <ele>151.5</ele>
        <time>2014-7-5T10:1:8.000Z</time>
      </trkpt>
      <trkpt lat="44.53357" lon="0.76598">
        <ele>151.5</ele>
        <time>2014-7-5T10:1:8.000Z</time>
      </trkpt>
      <trkpt lat="44.53355" lon="0.76597">
        <ele>151.5</ele>
        <time>2014-7-5T10:1:8.000Z</time>
      </trkpt>
      <trkpt lat="44.53355" lon="0.76597">
        <ele>151.5</ele>
        <time>2014-7-5T10:1:8.000Z</time>
      </trkpt>
      <trkpt lat="44.53353" lon="0.76596">
        <ele>151.5</ele>
        <time>2014-7-5T10:1:8.000Z</time>
      </trkpt>
      <trkpt lat="44.53353" lon="0.76596">
        <ele>151.5</ele>
        <time>2014-7-5T10:1:8.000Z</time>
      </trkpt>
      <trkpt lat="44.53351" lon="0.76594">
        <ele>151.5</ele>
        <time>2014-7-5T10:1:8.000Z</time>
      </trkpt>
      <trkpt lat="44.53351" lon="0.76594">
        <ele>151.5</ele>
        <time>2014-7-5T10:1:8.000Z</time>
      </trkpt>
      <trkpt lat="44.53349" lon="0.76593">
        <ele>151.5</ele>
        <time>2014-7-5T10:1:8.000Z</time>
      </trkpt>
      <trkpt lat="44.53349" lon="0.76593">
        <ele>151.5</ele>
        <time>2014-7-5T10:1:8.000Z</time>
      </trkpt>
      <trkpt lat="44.53347" lon="0.76591">
        <ele>150.5</ele>
        <time>2014-7-5T10:1:8.000Z</time>
      </trkpt>
      <trkpt lat="44.53347" lon="0.76591">
        <ele>150.5</ele>
        <time>2014-7-5T10:1:8.000Z</time>
      </trkpt>
      <trkpt lat="44.53345" lon="0.76589">
        <ele>150.5</ele>
        <time>2014-7-5T10:1:8.000Z</time>
      </trkpt>
      <trkpt lat="44.53345" lon="0.76589">
        <ele>150.5</ele>
        <time>2014-7-5T10:1:8.000Z</time>
      </trkpt>
      <trkpt lat="44.53343" lon="0.76588">
        <ele>150.5</ele>
        <time>2014-7-5T10:1:8.000Z</time>
      </trkpt>
      <trkpt lat="44.53343" lon="0.76588">
        <ele>150.5</ele>
        <time>2014-7-5T10:1:8.000Z</time>
      </trkpt>
      <trkpt lat="44.53341" lon="0.76586">
        <ele>150.5</ele>
        <time>2014-7-5T10:1:8.000Z</time>
      </trkpt>
      <trkpt lat="44.53341" lon="0.76586">
        <ele>150.5</ele>
        <time>2014-7-5T10:1:8.000Z</time>
      </trkpt>
      <trkpt lat="44.53338" lon="0.76586">
        <ele>150.5</ele>
        <time>2014-7-5T10:1:8.000Z</time>
      </trkpt>
      <trkpt lat="44.53338" lon="0.76586">
        <ele>150.5</ele>
        <time>2014-7-5T10:1:8.000Z</time>
      </trkpt>
      <trkpt lat="44.53336" lon="0.76585">
        <ele>150.5</ele>
        <time>2014-7-5T10:1:8.000Z</time>
      </trkpt>
      <trkpt lat="44.53336" lon="0.76585">
        <ele>150.5</ele>
        <time>2014-7-5T10:1:8.000Z</time>
      </trkpt>
      <trkpt lat="44.53333" lon="0.76584">
        <ele>150.5</ele>
        <time>2014-7-5T10:1:8.000Z</time>
      </trkpt>
      <trkpt lat="44.53333" lon="0.76584">
        <ele>150.5</ele>
        <time>2014-7-5T10:1:8.000Z</time>
      </trkpt>
      <trkpt lat="44.53331" lon="0.76584">
        <ele>150.5</ele>
        <time>2014-7-5T10:1:8.000Z</time>
      </trkpt>
      <trkpt lat="44.53331" lon="0.76584">
        <ele>150.5</ele>
        <time>2014-7-5T10:1:8.000Z</time>
      </trkpt>
      <trkpt lat="44.53326" lon="0.76583">
        <ele>149.5</ele>
        <time>2014-7-5T10:1:8.000Z</time>
      </trkpt>
      <trkpt lat="44.53326" lon="0.76583">
        <ele>149.5</ele>
        <time>2014-7-5T10:1:8.000Z</time>
      </trkpt>
      <trkpt lat="44.53321" lon="0.76583">
        <ele>149.5</ele>
        <time>2014-7-5T10:1:8.000Z</time>
      </trkpt>
      <trkpt lat="44.53321" lon="0.76583">
        <ele>149.5</ele>
        <time>2014-7-5T10:1:8.000Z</time>
      </trkpt>
      <trkpt lat="44.53314" lon="0.76583">
        <ele>149.5</ele>
        <time>2014-7-5T10:1:8.000Z</time>
      </trkpt>
      <trkpt lat="44.53314" lon="0.76583">
        <ele>149.5</ele>
        <time>2014-7-5T10:1:8.000Z</time>
      </trkpt>
      <trkpt lat="44.53309" lon="0.76582">
        <ele>149.5</ele>
        <time>2014-7-5T10:1:8.000Z</time>
      </trkpt>
      <trkpt lat="44.53309" lon="0.76582">
        <ele>149.5</ele>
        <time>2014-7-5T10:1:8.000Z</time>
      </trkpt>
      <trkpt lat="44.53304" lon="0.76583">
        <ele>148.5</ele>
        <time>2014-7-5T10:1:8.000Z</time>
      </trkpt>
      <trkpt lat="44.53304" lon="0.76583">
        <ele>148.5</ele>
        <time>2014-7-5T10:1:8.000Z</time>
      </trkpt>
      <trkpt lat="44.533" lon="0.76583">
        <ele>148.5</ele>
        <time>2014-7-5T10:1:8.000Z</time>
      </trkpt>
      <trkpt lat="44.533" lon="0.76583">
        <ele>148.5</ele>
        <time>2014-7-5T10:1:8.000Z</time>
      </trkpt>
      <trkpt lat="44.53294" lon="0.76583">
        <ele>148.5</ele>
        <time>2014-7-5T10:1:8.000Z</time>
      </trkpt>
      <trkpt lat="44.53294" lon="0.76583">
        <ele>148.5</ele>
        <time>2014-7-5T10:1:8.000Z</time>
      </trkpt>
      <trkpt lat="44.5329" lon="0.76583">
        <ele>148.5</ele>
        <time>2014-7-5T10:1:8.000Z</time>
      </trkpt>
      <trkpt lat="44.5329" lon="0.76583">
        <ele>148.5</ele>
        <time>2014-7-5T10:1:8.000Z</time>
      </trkpt>
      <trkpt lat="44.53285" lon="0.76584">
        <ele>148.5</ele>
        <time>2014-7-5T10:1:8.000Z</time>
      </trkpt>
      <trkpt lat="44.53285" lon="0.76584">
        <ele>148.5</ele>
        <time>2014-7-5T10:1:8.000Z</time>
      </trkpt>
      <trkpt lat="44.53279" lon="0.76584">
        <ele>148.5</ele>
        <time>2014-7-5T10:1:8.000Z</time>
      </trkpt>
      <trkpt lat="44.53279" lon="0.76584">
        <ele>148.5</ele>
        <time>2014-7-5T10:1:8.000Z</time>
      </trkpt>
      <trkpt lat="44.53275" lon="0.76584">
        <ele>148.5</ele>
        <time>2014-7-5T10:1:8.000Z</time>
      </trkpt>
      <trkpt lat="44.53275" lon="0.76584">
        <ele>148.5</ele>
        <time>2014-7-5T10:2:3.000Z</time>
      </trkpt>
      <trkpt lat="44.53269" lon="0.76584">
        <ele>148.5</ele>
        <time>2014-7-5T10:2:3.000Z</time>
      </trkpt>
      <trkpt lat="44.53269" lon="0.76584">
        <ele>148.5</ele>
        <time>2014-7-5T10:2:3.000Z</time>
      </trkpt>
      <trkpt lat="44.53265" lon="0.76584">
        <ele>148.5</ele>
        <time>2014-7-5T10:2:3.000Z</time>
      </trkpt>
      <trkpt lat="44.53265" lon="0.76584">
        <ele>148.5</ele>
        <time>2014-7-5T10:2:3.000Z</time>
      </trkpt>
      <trkpt lat="44.5326" lon="0.76585">
        <ele>148.5</ele>
        <time>2014-7-5T10:2:3.000Z</time>
      </trkpt>
      <trkpt lat="44.5326" lon="0.76585">
        <ele>148.5</ele>
        <time>2014-7-5T10:2:3.000Z</time>
      </trkpt>
      <trkpt lat="44.53256" lon="0.76586">
        <ele>148.5</ele>
        <time>2014-7-5T10:2:3.000Z</time>
      </trkpt>
      <trkpt lat="44.53256" lon="0.76586">
        <ele>148.5</ele>
        <time>2014-7-5T10:2:3.000Z</time>
      </trkpt>
      <trkpt lat="44.53252" lon="0.76587">
        <ele>148.5</ele>
        <time>2014-7-5T10:2:3.000Z</time>
      </trkpt>
      <trkpt lat="44.53252" lon="0.76587">
        <ele>148.5</ele>
        <time>2014-7-5T10:2:3.000Z</time>
      </trkpt>
      <trkpt lat="44.53247" lon="0.76588">
        <ele>148.5</ele>
        <time>2014-7-5T10:2:3.000Z</time>
      </trkpt>
      <trkpt lat="44.53247" lon="0.76588">
        <ele>148.5</ele>
        <time>2014-7-5T10:2:3.000Z</time>
      </trkpt>
      <trkpt lat="44.53243" lon="0.76589">
        <ele>148.5</ele>
        <time>2014-7-5T10:2:3.000Z</time>
      </trkpt>
      <trkpt lat="44.53243" lon="0.76589">
        <ele>148.5</ele>
        <time>2014-7-5T10:2:3.000Z</time>
      </trkpt>
      <trkpt lat="44.53239" lon="0.76589">
        <ele>148.5</ele>
        <time>2014-7-5T10:2:3.000Z</time>
      </trkpt>
      <trkpt lat="44.53239" lon="0.76589">
        <ele>148.5</ele>
        <time>2014-7-5T10:2:3.000Z</time>
      </trkpt>
      <trkpt lat="44.53233" lon="0.7659">
        <ele>148.5</ele>
        <time>2014-7-5T10:2:3.000Z</time>
      </trkpt>
      <trkpt lat="44.53233" lon="0.7659">
        <ele>148.5</ele>
        <time>2014-7-5T10:2:3.000Z</time>
      </trkpt>
      <trkpt lat="44.53228" lon="0.7659">
        <ele>148.5</ele>
        <time>2014-7-5T10:2:3.000Z</time>
      </trkpt>
      <trkpt lat="44.53228" lon="0.7659">
        <ele>148.5</ele>
        <time>2014-7-5T10:2:3.000Z</time>
      </trkpt>
      <trkpt lat="44.53223" lon="0.76591">
        <ele>148.5</ele>
        <time>2014-7-5T10:2:3.000Z</time>
      </trkpt>
      <trkpt lat="44.53223" lon="0.76591">
        <ele>148.5</ele>
        <time>2014-7-5T10:2:3.000Z</time>
      </trkpt>
      <trkpt lat="44.53218" lon="0.76592">
        <ele>147.5</ele>
        <time>2014-7-5T10:2:3.000Z</time>
      </trkpt>
      <trkpt lat="44.53218" lon="0.76592">
        <ele>147.5</ele>
        <time>2014-7-5T10:2:3.000Z</time>
      </trkpt>
      <trkpt lat="44.53213" lon="0.76594">
        <ele>146.5</ele>
        <time>2014-7-5T10:2:3.000Z</time>
      </trkpt>
      <trkpt lat="44.53213" lon="0.76594">
        <ele>146.5</ele>
        <time>2014-7-5T10:2:3.000Z</time>
      </trkpt>
      <trkpt lat="44.53207" lon="0.76595">
        <ele>146.5</ele>
        <time>2014-7-5T10:2:3.000Z</time>
      </trkpt>
      <trkpt lat="44.53207" lon="0.76595">
        <ele>146.5</ele>
        <time>2014-7-5T10:2:3.000Z</time>
      </trkpt>
      <trkpt lat="44.53202" lon="0.76597">
        <ele>147.5</ele>
        <time>2014-7-5T10:2:3.000Z</time>
      </trkpt>
      <trkpt lat="44.53202" lon="0.76597">
        <ele>147.5</ele>
        <time>2014-7-5T10:2:3.000Z</time>
      </trkpt>
      <trkpt lat="44.53197" lon="0.76597">
        <ele>148.5</ele>
        <time>2014-7-5T10:2:3.000Z</time>
      </trkpt>
      <trkpt lat="44.53197" lon="0.76597">
        <ele>148.5</ele>
        <time>2014-7-5T10:2:3.000Z</time>
      </trkpt>
      <trkpt lat="44.53192" lon="0.76599">
        <ele>148.5</ele>
        <time>2014-7-5T10:2:3.000Z</time>
      </trkpt>
      <trkpt lat="44.53192" lon="0.76599">
        <ele>148.5</ele>
        <time>2014-7-5T10:2:3.000Z</time>
      </trkpt>
      <trkpt lat="44.53189" lon="0.766">
        <ele>149.5</ele>
        <time>2014-7-5T10:2:3.000Z</time>
      </trkpt>
      <trkpt lat="44.53189" lon="0.766">
        <ele>149.5</ele>
        <time>2014-7-5T10:2:3.000Z</time>
      </trkpt>
      <trkpt lat="44.53185" lon="0.76602">
        <ele>149.5</ele>
        <time>2014-7-5T10:2:3.000Z</time>
      </trkpt>
      <trkpt lat="44.53185" lon="0.76602">
        <ele>149.5</ele>
        <time>2014-7-5T10:2:3.000Z</time>
      </trkpt>
      <trkpt lat="44.53181" lon="0.76604">
        <ele>150.5</ele>
        <time>2014-7-5T10:2:3.000Z</time>
      </trkpt>
      <trkpt lat="44.53181" lon="0.76604">
        <ele>150.5</ele>
        <time>2014-7-5T10:2:3.000Z</time>
      </trkpt>
      <trkpt lat="44.53177" lon="0.76606">
        <ele>150.5</ele>
        <time>2014-7-5T10:2:3.000Z</time>
      </trkpt>
      <trkpt lat="44.53177" lon="0.76606">
        <ele>150.5</ele>
        <time>2014-7-5T10:2:3.000Z</time>
      </trkpt>
      <trkpt lat="44.53174" lon="0.76608">
        <ele>150.5</ele>
        <time>2014-7-5T10:2:3.000Z</time>
      </trkpt>
      <trkpt lat="44.53174" lon="0.76608">
        <ele>150.5</ele>
        <time>2014-7-5T10:2:3.000Z</time>
      </trkpt>
      <trkpt lat="44.53171" lon="0.7661">
        <ele>149.5</ele>
        <time>2014-7-5T10:2:3.000Z</time>
      </trkpt>
      <trkpt lat="44.53171" lon="0.7661">
        <ele>149.5</ele>
        <time>2014-7-5T10:2:3.000Z</time>
      </trkpt>
      <trkpt lat="44.53168" lon="0.76612">
        <ele>149.5</ele>
        <time>2014-7-5T10:2:3.000Z</time>
      </trkpt>
      <trkpt lat="44.53168" lon="0.76612">
        <ele>149.5</ele>
        <time>2014-7-5T10:2:3.000Z</time>
      </trkpt>
      <trkpt lat="44.53164" lon="0.76614">
        <ele>149.5</ele>
        <time>2014-7-5T10:2:3.000Z</time>
      </trkpt>
      <trkpt lat="44.53164" lon="0.76614">
        <ele>149.5</ele>
        <time>2014-7-5T10:2:3.000Z</time>
      </trkpt>
      <trkpt lat="44.53162" lon="0.76617">
        <ele>149.5</ele>
        <time>2014-7-5T10:2:3.000Z</time>
      </trkpt>
      <trkpt lat="44.53162" lon="0.76617">
        <ele>149.5</ele>
        <time>2014-7-5T10:2:3.000Z</time>
      </trkpt>
      <trkpt lat="44.53158" lon="0.76618">
        <ele>149.5</ele>
        <time>2014-7-5T10:2:3.000Z</time>
      </trkpt>
      <trkpt lat="44.53158" lon="0.76618">
        <ele>149.5</ele>
        <time>2014-7-5T10:2:3.000Z</time>
      </trkpt>
      <trkpt lat="44.53155" lon="0.76621">
        <ele>149.5</ele>
        <time>2014-7-5T10:2:3.000Z</time>
      </trkpt>
      <trkpt lat="44.53155" lon="0.76621">
        <ele>149.5</ele>
        <time>2014-7-5T10:2:3.000Z</time>
      </trkpt>
      <trkpt lat="44.53152" lon="0.76623">
        <ele>149.5</ele>
        <time>2014-7-5T10:2:3.000Z</time>
      </trkpt>
      <trkpt lat="44.53152" lon="0.76623">
        <ele>149.5</ele>
        <time>2014-7-5T10:2:3.000Z</time>
      </trkpt>
      <trkpt lat="44.5315" lon="0.76627">
        <ele>149.5</ele>
        <time>2014-7-5T10:2:3.000Z</time>
      </trkpt>
      <trkpt lat="44.5315" lon="0.76627">
        <ele>149.5</ele>
        <time>2014-7-5T10:2:3.000Z</time>
      </trkpt>
      <trkpt lat="44.53147" lon="0.7663">
        <ele>149.5</ele>
        <time>2014-7-5T10:2:3.000Z</time>
      </trkpt>
      <trkpt lat="44.53147" lon="0.7663">
        <ele>149.5</ele>
        <time>2014-7-5T10:2:3.000Z</time>
      </trkpt>
      <trkpt lat="44.53144" lon="0.76634">
        <ele>149.5</ele>
        <time>2014-7-5T10:2:3.000Z</time>
      </trkpt>
      <trkpt lat="44.53144" lon="0.76634">
        <ele>149.5</ele>
        <time>2014-7-5T10:2:3.000Z</time>
      </trkpt>
      <trkpt lat="44.53138" lon="0.7664">
        <ele>149.5</ele>
        <time>2014-7-5T10:2:3.000Z</time>
      </trkpt>
      <trkpt lat="44.53138" lon="0.7664">
        <ele>149.5</ele>
        <time>2014-7-5T10:2:3.000Z</time>
      </trkpt>
      <trkpt lat="44.53134" lon="0.76644">
        <ele>148.5</ele>
        <time>2014-7-5T10:2:3.000Z</time>
      </trkpt>
      <trkpt lat="44.53134" lon="0.76644">
        <ele>148.5</ele>
        <time>2014-7-5T10:2:3.000Z</time>
      </trkpt>
      <trkpt lat="44.53129" lon="0.76648">
        <ele>148.5</ele>
        <time>2014-7-5T10:2:3.000Z</time>
      </trkpt>
      <trkpt lat="44.53129" lon="0.76648">
        <ele>148.5</ele>
        <time>2014-7-5T10:2:3.000Z</time>
      </trkpt>
      <trkpt lat="44.53123" lon="0.76653">
        <ele>148.5</ele>
        <time>2014-7-5T10:2:3.000Z</time>
      </trkpt>
      <trkpt lat="44.53123" lon="0.76653">
        <ele>148.5</ele>
        <time>2014-7-5T10:2:3.000Z</time>
      </trkpt>
      <trkpt lat="44.53119" lon="0.76657">
        <ele>148.5</ele>
        <time>2014-7-5T10:2:3.000Z</time>
      </trkpt>
      <trkpt lat="44.53119" lon="0.76657">
        <ele>148.5</ele>
        <time>2014-7-5T10:2:3.000Z</time>
      </trkpt>
      <trkpt lat="44.53114" lon="0.76661">
        <ele>147.5</ele>
        <time>2014-7-5T10:2:3.000Z</time>
      </trkpt>
      <trkpt lat="44.53114" lon="0.76661">
        <ele>147.5</ele>
        <time>2014-7-5T10:2:3.000Z</time>
      </trkpt>
      <trkpt lat="44.53109" lon="0.76667">
        <ele>147.5</ele>
        <time>2014-7-5T10:2:3.000Z</time>
      </trkpt>
      <trkpt lat="44.53109" lon="0.76667">
        <ele>147.5</ele>
        <time>2014-7-5T10:2:3.000Z</time>
      </trkpt>
      <trkpt lat="44.53107" lon="0.76671">
        <ele>147.5</ele>
        <time>2014-7-5T10:2:3.000Z</time>
      </trkpt>
      <trkpt lat="44.53107" lon="0.76671">
        <ele>147.5</ele>
        <time>2014-7-5T10:2:3.000Z</time>
      </trkpt>
      <trkpt lat="44.53104" lon="0.76674">
        <ele>148.5</ele>
        <time>2014-7-5T10:2:3.000Z</time>
      </trkpt>
      <trkpt lat="44.53104" lon="0.76674">
        <ele>148.5</ele>
        <time>2014-7-5T10:2:3.000Z</time>
      </trkpt>
      <trkpt lat="44.53103" lon="0.76677">
        <ele>147.5</ele>
        <time>2014-7-5T10:2:3.000Z</time>
      </trkpt>
      <trkpt lat="44.53103" lon="0.76677">
        <ele>147.5</ele>
        <time>2014-7-5T10:2:3.000Z</time>
      </trkpt>
      <trkpt lat="44.53101" lon="0.76679">
        <ele>146.5</ele>
        <time>2014-7-5T10:2:3.000Z</time>
      </trkpt>
      <trkpt lat="44.53101" lon="0.76679">
        <ele>146.5</ele>
        <time>2014-7-5T10:2:3.000Z</time>
      </trkpt>
      <trkpt lat="44.531" lon="0.76681">
        <ele>146.5</ele>
        <time>2014-7-5T10:2:3.000Z</time>
      </trkpt>
      <trkpt lat="44.531" lon="0.76681">
        <ele>146.5</ele>
        <time>2014-7-5T10:2:3.000Z</time>
      </trkpt>
      <trkpt lat="44.53097" lon="0.76684">
        <ele>146.5</ele>
        <time>2014-7-5T10:2:3.000Z</time>
      </trkpt>
      <trkpt lat="44.53097" lon="0.76684">
        <ele>146.5</ele>
        <time>2014-7-5T10:2:3.000Z</time>
      </trkpt>
      <trkpt lat="44.53095" lon="0.76687">
        <ele>145.5</ele>
        <time>2014-7-5T10:2:3.000Z</time>
      </trkpt>
      <trkpt lat="44.53095" lon="0.76687">
        <ele>145.5</ele>
        <time>2014-7-5T10:2:3.000Z</time>
      </trkpt>
      <trkpt lat="44.53093" lon="0.76687">
        <ele>145.5</ele>
        <time>2014-7-5T10:2:3.000Z</time>
      </trkpt>
      <trkpt lat="44.53093" lon="0.76687">
        <ele>145.5</ele>
        <time>2014-7-5T10:2:3.000Z</time>
      </trkpt>
      <trkpt lat="44.53091" lon="0.76688">
        <ele>146.5</ele>
        <time>2014-7-5T10:2:3.000Z</time>
      </trkpt>
      <trkpt lat="44.53091" lon="0.76688">
        <ele>146.5</ele>
        <time>2014-7-5T10:2:3.000Z</time>
      </trkpt>
      <trkpt lat="44.53088" lon="0.76691">
        <ele>145.5</ele>
        <time>2014-7-5T10:2:3.000Z</time>
      </trkpt>
      <trkpt lat="44.53088" lon="0.76691">
        <ele>145.5</ele>
        <time>2014-7-5T10:2:3.000Z</time>
      </trkpt>
      <trkpt lat="44.53087" lon="0.76694">
        <ele>145.5</ele>
        <time>2014-7-5T10:2:3.000Z</time>
      </trkpt>
      <trkpt lat="44.53087" lon="0.76694">
        <ele>145.5</ele>
        <time>2014-7-5T10:2:3.000Z</time>
      </trkpt>
      <trkpt lat="44.53088" lon="0.76695">
        <ele>145.5</ele>
        <time>2014-7-5T10:3:2.000Z</time>
      </trkpt>
      <trkpt lat="44.53088" lon="0.76695">
        <ele>145.5</ele>
        <time>2014-7-5T10:3:2.000Z</time>
      </trkpt>
      <trkpt lat="44.5309" lon="0.76693">
        <ele>145.5</ele>
        <time>2014-7-5T10:3:2.000Z</time>
      </trkpt>
      <trkpt lat="44.5309" lon="0.76693">
        <ele>145.5</ele>
        <time>2014-7-5T10:3:2.000Z</time>
      </trkpt>
      <trkpt lat="44.53087" lon="0.76688">
        <ele>143.5</ele>
        <time>2014-7-5T10:3:2.000Z</time>
      </trkpt>
      <trkpt lat="44.53087" lon="0.76688">
        <ele>143.5</ele>
        <time>2014-7-5T10:3:2.000Z</time>
      </trkpt>
      <trkpt lat="44.53083" lon="0.76684">
        <ele>142.5</ele>
        <time>2014-7-5T10:3:2.000Z</time>
      </trkpt>
      <trkpt lat="44.53083" lon="0.76684">
        <ele>142.5</ele>
        <time>2014-7-5T10:3:2.000Z</time>
      </trkpt>
      <trkpt lat="44.53077" lon="0.76678">
        <ele>142.5</ele>
        <time>2014-7-5T10:3:2.000Z</time>
      </trkpt>
      <trkpt lat="44.53077" lon="0.76678">
        <ele>142.5</ele>
        <time>2014-7-5T10:3:2.000Z</time>
      </trkpt>
      <trkpt lat="44.53071" lon="0.7667">
        <ele>142.5</ele>
        <time>2014-7-5T10:3:2.000Z</time>
      </trkpt>
      <trkpt lat="44.53071" lon="0.7667">
        <ele>142.5</ele>
        <time>2014-7-5T10:3:2.000Z</time>
      </trkpt>
      <trkpt lat="44.53068" lon="0.76667">
        <ele>142.5</ele>
        <time>2014-7-5T10:3:2.000Z</time>
      </trkpt>
      <trkpt lat="44.53068" lon="0.76667">
        <ele>142.5</ele>
        <time>2014-7-5T10:3:2.000Z</time>
      </trkpt>
      <trkpt lat="44.53066" lon="0.76665">
        <ele>142.5</ele>
        <time>2014-7-5T10:3:2.000Z</time>
      </trkpt>
      <trkpt lat="44.53066" lon="0.76665">
        <ele>142.5</ele>
        <time>2014-7-5T10:3:2.000Z</time>
      </trkpt>
      <trkpt lat="44.53069" lon="0.76667">
        <ele>143.5</ele>
        <time>2014-7-5T10:3:2.000Z</time>
      </trkpt>
      <trkpt lat="44.53069" lon="0.76667">
        <ele>143.5</ele>
        <time>2014-7-5T10:3:2.000Z</time>
      </trkpt>
      <trkpt lat="44.53071" lon="0.7667">
        <ele>144.5</ele>
        <time>2014-7-5T10:3:2.000Z</time>
      </trkpt>
      <trkpt lat="44.53071" lon="0.7667">
        <ele>144.5</ele>
        <time>2014-7-5T10:3:2.000Z</time>
      </trkpt>
      <trkpt lat="44.53073" lon="0.76674">
        <ele>144.5</ele>
        <time>2014-7-5T10:3:2.000Z</time>
      </trkpt>
      <trkpt lat="44.53073" lon="0.76674">
        <ele>144.5</ele>
        <time>2014-7-5T10:3:2.000Z</time>
      </trkpt>
      <trkpt lat="44.53075" lon="0.76677">
        <ele>144.5</ele>
        <time>2014-7-5T10:3:2.000Z</time>
      </trkpt>
      <trkpt lat="44.53075" lon="0.76677">
        <ele>144.5</ele>
        <time>2014-7-5T10:3:2.000Z</time>
      </trkpt>
      <trkpt lat="44.53078" lon="0.76679">
        <ele>145.5</ele>
        <time>2014-7-5T10:3:2.000Z</time>
      </trkpt>
      <trkpt lat="44.53078" lon="0.76679">
        <ele>145.5</ele>
        <time>2014-7-5T10:3:2.000Z</time>
      </trkpt>
      <trkpt lat="44.5308" lon="0.76681">
        <ele>145.5</ele>
        <time>2014-7-5T10:3:2.000Z</time>
      </trkpt>
      <trkpt lat="44.5308" lon="0.76681">
        <ele>145.5</ele>
        <time>2014-7-5T10:3:2.000Z</time>
      </trkpt>
      <trkpt lat="44.53082" lon="0.76683">
        <ele>145.5</ele>
        <time>2014-7-5T10:3:2.000Z</time>
      </trkpt>
      <trkpt lat="44.53082" lon="0.76683">
        <ele>145.5</ele>
        <time>2014-7-5T10:3:2.000Z</time>
      </trkpt>
      <trkpt lat="44.53084" lon="0.76686">
        <ele>145.5</ele>
        <time>2014-7-5T10:3:2.000Z</time>
      </trkpt>
      <trkpt lat="44.53084" lon="0.76686">
        <ele>145.5</ele>
        <time>2014-7-5T10:3:2.000Z</time>
      </trkpt>
      <trkpt lat="44.53086" lon="0.76688">
        <ele>145.5</ele>
        <time>2014-7-5T10:3:2.000Z</time>
      </trkpt>
      <trkpt lat="44.53086" lon="0.76688">
        <ele>145.5</ele>
        <time>2014-7-5T10:3:2.000Z</time>
      </trkpt>
      <trkpt lat="44.53087" lon="0.7669">
        <ele>145.5</ele>
        <time>2014-7-5T10:3:2.000Z</time>
      </trkpt>
      <trkpt lat="44.53087" lon="0.7669">
        <ele>145.5</ele>
        <time>2014-7-5T10:3:2.000Z</time>
      </trkpt>
      <trkpt lat="44.53089" lon="0.76692">
        <ele>146.5</ele>
        <time>2014-7-5T10:3:2.000Z</time>
      </trkpt>
      <trkpt lat="44.53089" lon="0.76692">
        <ele>146.5</ele>
        <time>2014-7-5T10:3:2.000Z</time>
      </trkpt>
      <trkpt lat="44.5309" lon="0.76694">
        <ele>146.5</ele>
        <time>2014-7-5T10:3:2.000Z</time>
      </trkpt>
      <trkpt lat="44.5309" lon="0.76694">
        <ele>146.5</ele>
        <time>2014-7-5T10:3:2.000Z</time>
      </trkpt>
      <trkpt lat="44.53091" lon="0.76698">
        <ele>147.5</ele>
        <time>2014-7-5T10:3:2.000Z</time>
      </trkpt>
      <trkpt lat="44.53091" lon="0.76698">
        <ele>147.5</ele>
        <time>2014-7-5T10:3:2.000Z</time>
      </trkpt>
      <trkpt lat="44.53089" lon="0.76702">
        <ele>147.5</ele>
        <time>2014-7-5T10:3:2.000Z</time>
      </trkpt>
      <trkpt lat="44.53089" lon="0.76702">
        <ele>147.5</ele>
        <time>2014-7-5T10:3:2.000Z</time>
      </trkpt>
      <trkpt lat="44.53088" lon="0.76705">
        <ele>148.5</ele>
        <time>2014-7-5T10:3:2.000Z</time>
      </trkpt>
      <trkpt lat="44.53088" lon="0.76705">
        <ele>148.5</ele>
        <time>2014-7-5T10:3:2.000Z</time>
      </trkpt>
      <trkpt lat="44.53086" lon="0.76707">
        <ele>148.5</ele>
        <time>2014-7-5T10:3:2.000Z</time>
      </trkpt>
      <trkpt lat="44.53086" lon="0.76707">
        <ele>148.5</ele>
        <time>2014-7-5T10:3:2.000Z</time>
      </trkpt>
      <trkpt lat="44.53085" lon="0.7671">
        <ele>148.5</ele>
        <time>2014-7-5T10:3:2.000Z</time>
      </trkpt>
      <trkpt lat="44.53085" lon="0.7671">
        <ele>148.5</ele>
        <time>2014-7-5T10:3:2.000Z</time>
      </trkpt>
      <trkpt lat="44.53083" lon="0.76714">
        <ele>148.5</ele>
        <time>2014-7-5T10:3:2.000Z</time>
      </trkpt>
      <trkpt lat="44.53083" lon="0.76714">
        <ele>148.5</ele>
        <time>2014-7-5T10:3:2.000Z</time>
      </trkpt>
      <trkpt lat="44.53082" lon="0.76717">
        <ele>149.5</ele>
        <time>2014-7-5T10:3:2.000Z</time>
      </trkpt>
      <trkpt lat="44.53082" lon="0.76717">
        <ele>149.5</ele>
        <time>2014-7-5T10:3:2.000Z</time>
      </trkpt>
      <trkpt lat="44.5308" lon="0.76721">
        <ele>148.5</ele>
        <time>2014-7-5T10:3:2.000Z</time>
      </trkpt>
      <trkpt lat="44.5308" lon="0.76721">
        <ele>148.5</ele>
        <time>2014-7-5T10:3:2.000Z</time>
      </trkpt>
      <trkpt lat="44.53079" lon="0.76724">
        <ele>149.5</ele>
        <time>2014-7-5T10:3:2.000Z</time>
      </trkpt>
      <trkpt lat="44.53079" lon="0.76724">
        <ele>149.5</ele>
        <time>2014-7-5T10:3:2.000Z</time>
      </trkpt>
      <trkpt lat="44.53077" lon="0.76727">
        <ele>149.5</ele>
        <time>2014-7-5T10:3:2.000Z</time>
      </trkpt>
      <trkpt lat="44.53077" lon="0.76727">
        <ele>149.5</ele>
        <time>2014-7-5T10:3:2.000Z</time>
      </trkpt>
      <trkpt lat="44.53075" lon="0.7673">
        <ele>149.5</ele>
        <time>2014-7-5T10:3:2.000Z</time>
      </trkpt>
      <trkpt lat="44.53075" lon="0.7673">
        <ele>149.5</ele>
        <time>2014-7-5T10:3:2.000Z</time>
      </trkpt>
      <trkpt lat="44.53073" lon="0.76733">
        <ele>149.5</ele>
        <time>2014-7-5T10:3:2.000Z</time>
      </trkpt>
      <trkpt lat="44.53073" lon="0.76733">
        <ele>149.5</ele>
        <time>2014-7-5T10:3:2.000Z</time>
      </trkpt>
      <trkpt lat="44.53072" lon="0.76736">
        <ele>150.5</ele>
        <time>2014-7-5T10:3:2.000Z</time>
      </trkpt>
      <trkpt lat="44.53072" lon="0.76736">
        <ele>150.5</ele>
        <time>2014-7-5T10:3:2.000Z</time>
      </trkpt>
      <trkpt lat="44.53071" lon="0.7674">
        <ele>150.5</ele>
        <time>2014-7-5T10:3:2.000Z</time>
      </trkpt>
      <trkpt lat="44.53071" lon="0.7674">
        <ele>150.5</ele>
        <time>2014-7-5T10:3:2.000Z</time>
      </trkpt>
      <trkpt lat="44.5307" lon="0.76744">
        <ele>151.5</ele>
        <time>2014-7-5T10:3:2.000Z</time>
      </trkpt>
      <trkpt lat="44.5307" lon="0.76744">
        <ele>151.5</ele>
        <time>2014-7-5T10:3:2.000Z</time>
      </trkpt>
      <trkpt lat="44.5307" lon="0.76748">
        <ele>151.5</ele>
        <time>2014-7-5T10:3:2.000Z</time>
      </trkpt>
      <trkpt lat="44.5307" lon="0.76748">
        <ele>151.5</ele>
        <time>2014-7-5T10:3:2.000Z</time>
      </trkpt>
      <trkpt lat="44.53069" lon="0.76751">
        <ele>151.5</ele>
        <time>2014-7-5T10:3:2.000Z</time>
      </trkpt>
      <trkpt lat="44.53069" lon="0.76751">
        <ele>151.5</ele>
        <time>2014-7-5T10:3:2.000Z</time>
      </trkpt>
      <trkpt lat="44.53069" lon="0.76755">
        <ele>151.5</ele>
        <time>2014-7-5T10:3:2.000Z</time>
      </trkpt>
      <trkpt lat="44.53069" lon="0.76755">
        <ele>151.5</ele>
        <time>2014-7-5T10:3:2.000Z</time>
      </trkpt>
      <trkpt lat="44.53068" lon="0.76759">
        <ele>152.5</ele>
        <time>2014-7-5T10:3:2.000Z</time>
      </trkpt>
      <trkpt lat="44.53068" lon="0.76759">
        <ele>152.5</ele>
        <time>2014-7-5T10:3:2.000Z</time>
      </trkpt>
      <trkpt lat="44.53067" lon="0.76763">
        <ele>152.5</ele>
        <time>2014-7-5T10:3:2.000Z</time>
      </trkpt>
      <trkpt lat="44.53067" lon="0.76763">
        <ele>152.5</ele>
        <time>2014-7-5T10:3:2.000Z</time>
      </trkpt>
      <trkpt lat="44.53065" lon="0.76767">
        <ele>152.5</ele>
        <time>2014-7-5T10:3:2.000Z</time>
      </trkpt>
      <trkpt lat="44.53065" lon="0.76767">
        <ele>152.5</ele>
        <time>2014-7-5T10:3:2.000Z</time>
      </trkpt>
      <trkpt lat="44.53064" lon="0.7677">
        <ele>152.5</ele>
        <time>2014-7-5T10:3:2.000Z</time>
      </trkpt>
      <trkpt lat="44.53064" lon="0.7677">
        <ele>152.5</ele>
        <time>2014-7-5T10:3:2.000Z</time>
      </trkpt>
      <trkpt lat="44.53063" lon="0.76774">
        <ele>152.5</ele>
        <time>2014-7-5T10:3:2.000Z</time>
      </trkpt>
      <trkpt lat="44.53063" lon="0.76774">
        <ele>152.5</ele>
        <time>2014-7-5T10:3:2.000Z</time>
      </trkpt>
      <trkpt lat="44.53062" lon="0.76778">
        <ele>152.5</ele>
        <time>2014-7-5T10:3:2.000Z</time>
      </trkpt>
      <trkpt lat="44.53062" lon="0.76778">
        <ele>152.5</ele>
        <time>2014-7-5T10:3:2.000Z</time>
      </trkpt>
      <trkpt lat="44.53061" lon="0.76781">
        <ele>153.5</ele>
        <time>2014-7-5T10:3:2.000Z</time>
      </trkpt>
      <trkpt lat="44.53061" lon="0.76781">
        <ele>153.5</ele>
        <time>2014-7-5T10:3:2.000Z</time>
      </trkpt>
      <trkpt lat="44.53058" lon="0.76789">
        <ele>154.5</ele>
        <time>2014-7-5T10:3:2.000Z</time>
      </trkpt>
      <trkpt lat="44.53058" lon="0.76789">
        <ele>154.5</ele>
        <time>2014-7-5T10:3:2.000Z</time>
      </trkpt>
      <trkpt lat="44.53057" lon="0.76792">
        <ele>154.5</ele>
        <time>2014-7-5T10:3:2.000Z</time>
      </trkpt>
      <trkpt lat="44.53057" lon="0.76792">
        <ele>154.5</ele>
        <time>2014-7-5T10:3:2.000Z</time>
      </trkpt>
      <trkpt lat="44.53056" lon="0.76795">
        <ele>154.5</ele>
        <time>2014-7-5T10:3:2.000Z</time>
      </trkpt>
      <trkpt lat="44.53056" lon="0.76795">
        <ele>154.5</ele>
        <time>2014-7-5T10:3:2.000Z</time>
      </trkpt>
      <trkpt lat="44.53055" lon="0.76799">
        <ele>154.5</ele>
        <time>2014-7-5T10:3:2.000Z</time>
      </trkpt>
      <trkpt lat="44.53055" lon="0.76799">
        <ele>154.5</ele>
        <time>2014-7-5T10:3:2.000Z</time>
      </trkpt>
      <trkpt lat="44.53055" lon="0.76803">
        <ele>154.5</ele>
        <time>2014-7-5T10:3:2.000Z</time>
      </trkpt>
      <trkpt lat="44.53055" lon="0.76803">
        <ele>154.5</ele>
        <time>2014-7-5T10:3:2.000Z</time>
      </trkpt>
      <trkpt lat="44.53054" lon="0.76809">
        <ele>153.5</ele>
        <time>2014-7-5T10:3:2.000Z</time>
      </trkpt>
      <trkpt lat="44.53054" lon="0.76809">
        <ele>153.5</ele>
        <time>2014-7-5T10:4:11.000Z</time>
      </trkpt>
      <trkpt lat="44.53054" lon="0.76814">
        <ele>153.5</ele>
        <time>2014-7-5T10:4:11.000Z</time>
      </trkpt>
      <trkpt lat="44.53054" lon="0.76814">
        <ele>153.5</ele>
        <time>2014-7-5T10:4:11.000Z</time>
      </trkpt>
      <trkpt lat="44.53054" lon="0.76819">
        <ele>153.5</ele>
        <time>2014-7-5T10:4:11.000Z</time>
      </trkpt>
      <trkpt lat="44.53054" lon="0.76819">
        <ele>153.5</ele>
        <time>2014-7-5T10:4:11.000Z</time>
      </trkpt>
      <trkpt lat="44.53054" lon="0.76825">
        <ele>153.5</ele>
        <time>2014-7-5T10:4:11.000Z</time>
      </trkpt>
      <trkpt lat="44.53054" lon="0.76825">
        <ele>153.5</ele>
        <time>2014-7-5T10:4:11.000Z</time>
      </trkpt>
      <trkpt lat="44.53053" lon="0.7683">
        <ele>154.5</ele>
        <time>2014-7-5T10:4:11.000Z</time>
      </trkpt>
      <trkpt lat="44.53053" lon="0.7683">
        <ele>154.5</ele>
        <time>2014-7-5T10:4:11.000Z</time>
      </trkpt>
      <trkpt lat="44.53052" lon="0.76835">
        <ele>154.5</ele>
        <time>2014-7-5T10:4:11.000Z</time>
      </trkpt>
      <trkpt lat="44.53052" lon="0.76835">
        <ele>154.5</ele>
        <time>2014-7-5T10:4:11.000Z</time>
      </trkpt>
      <trkpt lat="44.5305" lon="0.76841">
        <ele>153.5</ele>
        <time>2014-7-5T10:4:11.000Z</time>
      </trkpt>
      <trkpt lat="44.5305" lon="0.76841">
        <ele>153.5</ele>
        <time>2014-7-5T10:4:11.000Z</time>
      </trkpt>
      <trkpt lat="44.53049" lon="0.76846">
        <ele>153.5</ele>
        <time>2014-7-5T10:4:11.000Z</time>
      </trkpt>
      <trkpt lat="44.53049" lon="0.76846">
        <ele>153.5</ele>
        <time>2014-7-5T10:4:11.000Z</time>
      </trkpt>
      <trkpt lat="44.53048" lon="0.76855">
        <ele>152.5</ele>
        <time>2014-7-5T10:4:11.000Z</time>
      </trkpt>
      <trkpt lat="44.53048" lon="0.76855">
        <ele>152.5</ele>
        <time>2014-7-5T10:4:11.000Z</time>
      </trkpt>
      <trkpt lat="44.53046" lon="0.76861">
        <ele>153.5</ele>
        <time>2014-7-5T10:4:11.000Z</time>
      </trkpt>
      <trkpt lat="44.53046" lon="0.76861">
        <ele>153.5</ele>
        <time>2014-7-5T10:4:11.000Z</time>
      </trkpt>
      <trkpt lat="44.53043" lon="0.76866">
        <ele>153.5</ele>
        <time>2014-7-5T10:4:11.000Z</time>
      </trkpt>
      <trkpt lat="44.53043" lon="0.76866">
        <ele>153.5</ele>
        <time>2014-7-5T10:4:11.000Z</time>
      </trkpt>
      <trkpt lat="44.53041" lon="0.76871">
        <ele>153.5</ele>
        <time>2014-7-5T10:4:11.000Z</time>
      </trkpt>
      <trkpt lat="44.53041" lon="0.76871">
        <ele>153.5</ele>
        <time>2014-7-5T10:4:11.000Z</time>
      </trkpt>
      <trkpt lat="44.53037" lon="0.76876">
        <ele>153.5</ele>
        <time>2014-7-5T10:4:11.000Z</time>
      </trkpt>
      <trkpt lat="44.53037" lon="0.76876">
        <ele>153.5</ele>
        <time>2014-7-5T10:4:11.000Z</time>
      </trkpt>
      <trkpt lat="44.53036" lon="0.7688">
        <ele>153.5</ele>
        <time>2014-7-5T10:4:11.000Z</time>
      </trkpt>
      <trkpt lat="44.53036" lon="0.7688">
        <ele>153.5</ele>
        <time>2014-7-5T10:4:11.000Z</time>
      </trkpt>
      <trkpt lat="44.53034" lon="0.76882">
        <ele>153.5</ele>
        <time>2014-7-5T10:4:11.000Z</time>
      </trkpt>
      <trkpt lat="44.53034" lon="0.76882">
        <ele>153.5</ele>
        <time>2014-7-5T10:4:11.000Z</time>
      </trkpt>
      <trkpt lat="44.53032" lon="0.76883">
        <ele>154.5</ele>
        <time>2014-7-5T10:4:11.000Z</time>
      </trkpt>
      <trkpt lat="44.53032" lon="0.76883">
        <ele>154.5</ele>
        <time>2014-7-5T10:4:11.000Z</time>
      </trkpt>
      <trkpt lat="44.5303" lon="0.76886">
        <ele>153.5</ele>
        <time>2014-7-5T10:4:11.000Z</time>
      </trkpt>
      <trkpt lat="44.5303" lon="0.76886">
        <ele>153.5</ele>
        <time>2014-7-5T10:4:11.000Z</time>
      </trkpt>
      <trkpt lat="44.53028" lon="0.76887">
        <ele>153.5</ele>
        <time>2014-7-5T10:4:11.000Z</time>
      </trkpt>
      <trkpt lat="44.53028" lon="0.76887">
        <ele>153.5</ele>
        <time>2014-7-5T10:4:11.000Z</time>
      </trkpt>
      <trkpt lat="44.53025" lon="0.76888">
        <ele>152.5</ele>
        <time>2014-7-5T10:4:11.000Z</time>
      </trkpt>
      <trkpt lat="44.53025" lon="0.76888">
        <ele>152.5</ele>
        <time>2014-7-5T10:4:11.000Z</time>
      </trkpt>
      <trkpt lat="44.53021" lon="0.76892">
        <ele>152.5</ele>
        <time>2014-7-5T10:4:11.000Z</time>
      </trkpt>
      <trkpt lat="44.53021" lon="0.76892">
        <ele>152.5</ele>
        <time>2014-7-5T10:4:11.000Z</time>
      </trkpt>
      <trkpt lat="44.53019" lon="0.76893">
        <ele>152.5</ele>
        <time>2014-7-5T10:4:11.000Z</time>
      </trkpt>
      <trkpt lat="44.53019" lon="0.76893">
        <ele>152.5</ele>
        <time>2014-7-5T10:4:11.000Z</time>
      </trkpt>
      <trkpt lat="44.53017" lon="0.76894">
        <ele>151.5</ele>
        <time>2014-7-5T10:4:11.000Z</time>
      </trkpt>
      <trkpt lat="44.53017" lon="0.76894">
        <ele>151.5</ele>
        <time>2014-7-5T10:4:11.000Z</time>
      </trkpt>
      <trkpt lat="44.53014" lon="0.76895">
        <ele>150.5</ele>
        <time>2014-7-5T10:4:11.000Z</time>
      </trkpt>
      <trkpt lat="44.53014" lon="0.76895">
        <ele>150.5</ele>
        <time>2014-7-5T10:4:11.000Z</time>
      </trkpt>
      <trkpt lat="44.53012" lon="0.76895">
        <ele>151.5</ele>
        <time>2014-7-5T10:4:11.000Z</time>
      </trkpt>
      <trkpt lat="44.53012" lon="0.76895">
        <ele>151.5</ele>
        <time>2014-7-5T10:4:11.000Z</time>
      </trkpt>
      <trkpt lat="44.5301" lon="0.76895">
        <ele>150.5</ele>
        <time>2014-7-5T10:4:11.000Z</time>
      </trkpt>
      <trkpt lat="44.5301" lon="0.76895">
        <ele>150.5</ele>
        <time>2014-7-5T10:4:11.000Z</time>
      </trkpt>
      <trkpt lat="44.53008" lon="0.76895">
        <ele>150.5</ele>
        <time>2014-7-5T10:4:11.000Z</time>
      </trkpt>
      <trkpt lat="44.53008" lon="0.76895">
        <ele>150.5</ele>
        <time>2014-7-5T10:4:11.000Z</time>
      </trkpt>
      <trkpt lat="44.53006" lon="0.76895">
        <ele>149.5</ele>
        <time>2014-7-5T10:4:11.000Z</time>
      </trkpt>
      <trkpt lat="44.53006" lon="0.76895">
        <ele>149.5</ele>
        <time>2014-7-5T10:4:11.000Z</time>
      </trkpt>
      <trkpt lat="44.53003" lon="0.76895">
        <ele>149.5</ele>
        <time>2014-7-5T10:4:11.000Z</time>
      </trkpt>
      <trkpt lat="44.53003" lon="0.76895">
        <ele>149.5</ele>
        <time>2014-7-5T10:4:11.000Z</time>
      </trkpt>
      <trkpt lat="44.53001" lon="0.76895">
        <ele>150.5</ele>
        <time>2014-7-5T10:4:11.000Z</time>
      </trkpt>
      <trkpt lat="44.53001" lon="0.76895">
        <ele>150.5</ele>
        <time>2014-7-5T10:4:11.000Z</time>
      </trkpt>
      <trkpt lat="44.52997" lon="0.76895">
        <ele>150.5</ele>
        <time>2014-7-5T10:4:11.000Z</time>
      </trkpt>
      <trkpt lat="44.52997" lon="0.76895">
        <ele>150.5</ele>
        <time>2014-7-5T10:4:11.000Z</time>
      </trkpt>
      <trkpt lat="44.52996" lon="0.76895">
        <ele>149.5</ele>
        <time>2014-7-5T10:4:11.000Z</time>
      </trkpt>
      <trkpt lat="44.52996" lon="0.76895">
        <ele>149.5</ele>
        <time>2014-7-5T10:4:11.000Z</time>
      </trkpt>
      <trkpt lat="44.52992" lon="0.76893">
        <ele>150.5</ele>
        <time>2014-7-5T10:4:11.000Z</time>
      </trkpt>
      <trkpt lat="44.52992" lon="0.76893">
        <ele>150.5</ele>
        <time>2014-7-5T10:4:11.000Z</time>
      </trkpt>
      <trkpt lat="44.5299" lon="0.76892">
        <ele>149.5</ele>
        <time>2014-7-5T10:4:11.000Z</time>
      </trkpt>
      <trkpt lat="44.5299" lon="0.76892">
        <ele>149.5</ele>
        <time>2014-7-5T10:4:11.000Z</time>
      </trkpt>
      <trkpt lat="44.52987" lon="0.7689">
        <ele>147.5</ele>
        <time>2014-7-5T10:4:11.000Z</time>
      </trkpt>
      <trkpt lat="44.52987" lon="0.7689">
        <ele>147.5</ele>
        <time>2014-7-5T10:4:11.000Z</time>
      </trkpt>
      <trkpt lat="44.52985" lon="0.76888">
        <ele>147.5</ele>
        <time>2014-7-5T10:4:11.000Z</time>
      </trkpt>
      <trkpt lat="44.52985" lon="0.76888">
        <ele>147.5</ele>
        <time>2014-7-5T10:4:11.000Z</time>
      </trkpt>
      <trkpt lat="44.5298" lon="0.76884">
        <ele>147.5</ele>
        <time>2014-7-5T10:4:11.000Z</time>
      </trkpt>
      <trkpt lat="44.5298" lon="0.76884">
        <ele>147.5</ele>
        <time>2014-7-5T10:4:11.000Z</time>
      </trkpt>
      <trkpt lat="44.52978" lon="0.76882">
        <ele>147.5</ele>
        <time>2014-7-5T10:4:11.000Z</time>
      </trkpt>
      <trkpt lat="44.52978" lon="0.76882">
        <ele>147.5</ele>
        <time>2014-7-5T10:4:11.000Z</time>
      </trkpt>
      <trkpt lat="44.52976" lon="0.76879">
        <ele>146.5</ele>
        <time>2014-7-5T10:4:11.000Z</time>
      </trkpt>
      <trkpt lat="44.52976" lon="0.76879">
        <ele>146.5</ele>
        <time>2014-7-5T10:4:11.000Z</time>
      </trkpt>
      <trkpt lat="44.52974" lon="0.76877">
        <ele>145.5</ele>
        <time>2014-7-5T10:4:11.000Z</time>
      </trkpt>
      <trkpt lat="44.52974" lon="0.76877">
        <ele>145.5</ele>
        <time>2014-7-5T10:4:11.000Z</time>
      </trkpt>
      <trkpt lat="44.52972" lon="0.76875">
        <ele>145.5</ele>
        <time>2014-7-5T10:4:11.000Z</time>
      </trkpt>
      <trkpt lat="44.52972" lon="0.76875">
        <ele>145.5</ele>
        <time>2014-7-5T10:4:11.000Z</time>
      </trkpt>
      <trkpt lat="44.52969" lon="0.76873">
        <ele>145.5</ele>
        <time>2014-7-5T10:4:11.000Z</time>
      </trkpt>
      <trkpt lat="44.52969" lon="0.76873">
        <ele>145.5</ele>
        <time>2014-7-5T10:4:11.000Z</time>
      </trkpt>
      <trkpt lat="44.52967" lon="0.7687">
        <ele>144.5</ele>
        <time>2014-7-5T10:4:11.000Z</time>
      </trkpt>
      <trkpt lat="44.52967" lon="0.7687">
        <ele>144.5</ele>
        <time>2014-7-5T10:4:11.000Z</time>
      </trkpt>
      <trkpt lat="44.52965" lon="0.76867">
        <ele>144.5</ele>
        <time>2014-7-5T10:4:11.000Z</time>
      </trkpt>
      <trkpt lat="44.52965" lon="0.76867">
        <ele>144.5</ele>
        <time>2014-7-5T10:4:11.000Z</time>
      </trkpt>
      <trkpt lat="44.52962" lon="0.76862">
        <ele>143.5</ele>
        <time>2014-7-5T10:4:11.000Z</time>
      </trkpt>
      <trkpt lat="44.52962" lon="0.76862">
        <ele>143.5</ele>
        <time>2014-7-5T10:4:11.000Z</time>
      </trkpt>
      <trkpt lat="44.5296" lon="0.76858">
        <ele>143.5</ele>
        <time>2014-7-5T10:4:11.000Z</time>
      </trkpt>
      <trkpt lat="44.5296" lon="0.76858">
        <ele>143.5</ele>
        <time>2014-7-5T10:4:11.000Z</time>
      </trkpt>
      <trkpt lat="44.52958" lon="0.76854">
        <ele>144.5</ele>
        <time>2014-7-5T10:4:11.000Z</time>
      </trkpt>
      <trkpt lat="44.52958" lon="0.76854">
        <ele>144.5</ele>
        <time>2014-7-5T10:4:11.000Z</time>
      </trkpt>
      <trkpt lat="44.52956" lon="0.76849">
        <ele>143.5</ele>
        <time>2014-7-5T10:4:11.000Z</time>
      </trkpt>
      <trkpt lat="44.52956" lon="0.76849">
        <ele>143.5</ele>
        <time>2014-7-5T10:4:11.000Z</time>
      </trkpt>
      <trkpt lat="44.52955" lon="0.76844">
        <ele>144.5</ele>
        <time>2014-7-5T10:4:11.000Z</time>
      </trkpt>
      <trkpt lat="44.52955" lon="0.76844">
        <ele>144.5</ele>
        <time>2014-7-5T10:4:11.000Z</time>
      </trkpt>
      <trkpt lat="44.52953" lon="0.76839">
        <ele>143.5</ele>
        <time>2014-7-5T10:4:11.000Z</time>
      </trkpt>
      <trkpt lat="44.52953" lon="0.76839">
        <ele>143.5</ele>
        <time>2014-7-5T10:4:11.000Z</time>
      </trkpt>
      <trkpt lat="44.52951" lon="0.76834">
        <ele>143.5</ele>
        <time>2014-7-5T10:4:11.000Z</time>
      </trkpt>
      <trkpt lat="44.52951" lon="0.76834">
        <ele>143.5</ele>
        <time>2014-7-5T10:4:11.000Z</time>
      </trkpt>
      <trkpt lat="44.52948" lon="0.76825">
        <ele>142.5</ele>
        <time>2014-7-5T10:4:11.000Z</time>
      </trkpt>
      <trkpt lat="44.52948" lon="0.76825">
        <ele>142.5</ele>
        <time>2014-7-5T10:4:11.000Z</time>
      </trkpt>
      <trkpt lat="44.52947" lon="0.76819">
        <ele>142.5</ele>
        <time>2014-7-5T10:5:3.000Z</time>
      </trkpt>
      <trkpt lat="44.52947" lon="0.76819">
        <ele>142.5</ele>
        <time>2014-7-5T10:5:3.000Z</time>
      </trkpt>
      <trkpt lat="44.52945" lon="0.76813">
        <ele>142.5</ele>
        <time>2014-7-5T10:5:3.000Z</time>
      </trkpt>
      <trkpt lat="44.52945" lon="0.76813">
        <ele>142.5</ele>
        <time>2014-7-5T10:5:3.000Z</time>
      </trkpt>
      <trkpt lat="44.52943" lon="0.76807">
        <ele>141.5</ele>
        <time>2014-7-5T10:5:3.000Z</time>
      </trkpt>
      <trkpt lat="44.52943" lon="0.76807">
        <ele>141.5</ele>
        <time>2014-7-5T10:5:3.000Z</time>
      </trkpt>
      <trkpt lat="44.52941" lon="0.768">
        <ele>141.5</ele>
        <time>2014-7-5T10:5:3.000Z</time>
      </trkpt>
      <trkpt lat="44.52941" lon="0.768">
        <ele>141.5</ele>
        <time>2014-7-5T10:5:3.000Z</time>
      </trkpt>
      <trkpt lat="44.5294" lon="0.76793">
        <ele>141.5</ele>
        <time>2014-7-5T10:5:3.000Z</time>
      </trkpt>
      <trkpt lat="44.5294" lon="0.76793">
        <ele>141.5</ele>
        <time>2014-7-5T10:5:3.000Z</time>
      </trkpt>
      <trkpt lat="44.52938" lon="0.76777">
        <ele>141.5</ele>
        <time>2014-7-5T10:5:3.000Z</time>
      </trkpt>
      <trkpt lat="44.52938" lon="0.76777">
        <ele>141.5</ele>
        <time>2014-7-5T10:5:3.000Z</time>
      </trkpt>
      <trkpt lat="44.52937" lon="0.76769">
        <ele>140.5</ele>
        <time>2014-7-5T10:5:3.000Z</time>
      </trkpt>
      <trkpt lat="44.52937" lon="0.76769">
        <ele>140.5</ele>
        <time>2014-7-5T10:5:3.000Z</time>
      </trkpt>
      <trkpt lat="44.52936" lon="0.7676">
        <ele>140.5</ele>
        <time>2014-7-5T10:5:3.000Z</time>
      </trkpt>
      <trkpt lat="44.52936" lon="0.7676">
        <ele>140.5</ele>
        <time>2014-7-5T10:5:3.000Z</time>
      </trkpt>
      <trkpt lat="44.52936" lon="0.76751">
        <ele>139.5</ele>
        <time>2014-7-5T10:5:3.000Z</time>
      </trkpt>
      <trkpt lat="44.52936" lon="0.76751">
        <ele>139.5</ele>
        <time>2014-7-5T10:5:3.000Z</time>
      </trkpt>
      <trkpt lat="44.52937" lon="0.76742">
        <ele>139.5</ele>
        <time>2014-7-5T10:5:3.000Z</time>
      </trkpt>
      <trkpt lat="44.52937" lon="0.76742">
        <ele>139.5</ele>
        <time>2014-7-5T10:5:3.000Z</time>
      </trkpt>
      <trkpt lat="44.52937" lon="0.76732">
        <ele>139.5</ele>
        <time>2014-7-5T10:5:3.000Z</time>
      </trkpt>
      <trkpt lat="44.52937" lon="0.76732">
        <ele>139.5</ele>
        <time>2014-7-5T10:5:3.000Z</time>
      </trkpt>
      <trkpt lat="44.52937" lon="0.76723">
        <ele>139.5</ele>
        <time>2014-7-5T10:5:3.000Z</time>
      </trkpt>
      <trkpt lat="44.52937" lon="0.76723">
        <ele>139.5</ele>
        <time>2014-7-5T10:5:3.000Z</time>
      </trkpt>
      <trkpt lat="44.52938" lon="0.76713">
        <ele>138.5</ele>
        <time>2014-7-5T10:5:3.000Z</time>
      </trkpt>
      <trkpt lat="44.52938" lon="0.76713">
        <ele>138.5</ele>
        <time>2014-7-5T10:5:3.000Z</time>
      </trkpt>
      <trkpt lat="44.52939" lon="0.76703">
        <ele>138.5</ele>
        <time>2014-7-5T10:5:3.000Z</time>
      </trkpt>
      <trkpt lat="44.52939" lon="0.76703">
        <ele>138.5</ele>
        <time>2014-7-5T10:5:3.000Z</time>
      </trkpt>
      <trkpt lat="44.52939" lon="0.76693">
        <ele>137.5</ele>
        <time>2014-7-5T10:5:3.000Z</time>
      </trkpt>
      <trkpt lat="44.52939" lon="0.76693">
        <ele>137.5</ele>
        <time>2014-7-5T10:5:3.000Z</time>
      </trkpt>
      <trkpt lat="44.5294" lon="0.76683">
        <ele>137.5</ele>
        <time>2014-7-5T10:5:3.000Z</time>
      </trkpt>
      <trkpt lat="44.5294" lon="0.76683">
        <ele>137.5</ele>
        <time>2014-7-5T10:5:3.000Z</time>
      </trkpt>
      <trkpt lat="44.52941" lon="0.76672">
        <ele>137.5</ele>
        <time>2014-7-5T10:5:3.000Z</time>
      </trkpt>
      <trkpt lat="44.52941" lon="0.76672">
        <ele>137.5</ele>
        <time>2014-7-5T10:5:3.000Z</time>
      </trkpt>
      <trkpt lat="44.52942" lon="0.76662">
        <ele>136.5</ele>
        <time>2014-7-5T10:5:3.000Z</time>
      </trkpt>
      <trkpt lat="44.52942" lon="0.76662">
        <ele>136.5</ele>
        <time>2014-7-5T10:5:3.000Z</time>
      </trkpt>
      <trkpt lat="44.52943" lon="0.7665">
        <ele>136.5</ele>
        <time>2014-7-5T10:5:3.000Z</time>
      </trkpt>
      <trkpt lat="44.52943" lon="0.7665">
        <ele>136.5</ele>
        <time>2014-7-5T10:5:3.000Z</time>
      </trkpt>
      <trkpt lat="44.52942" lon="0.7664">
        <ele>135.5</ele>
        <time>2014-7-5T10:5:3.000Z</time>
      </trkpt>
      <trkpt lat="44.52942" lon="0.7664">
        <ele>135.5</ele>
        <time>2014-7-5T10:5:3.000Z</time>
      </trkpt>
      <trkpt lat="44.52943" lon="0.76629">
        <ele>135.5</ele>
        <time>2014-7-5T10:5:3.000Z</time>
      </trkpt>
      <trkpt lat="44.52943" lon="0.76629">
        <ele>135.5</ele>
        <time>2014-7-5T10:5:3.000Z</time>
      </trkpt>
      <trkpt lat="44.52945" lon="0.76617">
        <ele>134.5</ele>
        <time>2014-7-5T10:5:3.000Z</time>
      </trkpt>
      <trkpt lat="44.52945" lon="0.76617">
        <ele>134.5</ele>
        <time>2014-7-5T10:5:3.000Z</time>
      </trkpt>
      <trkpt lat="44.52945" lon="0.76607">
        <ele>134.5</ele>
        <time>2014-7-5T10:5:3.000Z</time>
      </trkpt>
      <trkpt lat="44.52945" lon="0.76607">
        <ele>134.5</ele>
        <time>2014-7-5T10:5:3.000Z</time>
      </trkpt>
      <trkpt lat="44.52947" lon="0.76597">
        <ele>134.5</ele>
        <time>2014-7-5T10:5:3.000Z</time>
      </trkpt>
      <trkpt lat="44.52947" lon="0.76597">
        <ele>134.5</ele>
        <time>2014-7-5T10:5:3.000Z</time>
      </trkpt>
      <trkpt lat="44.52947" lon="0.76584">
        <ele>133.5</ele>
        <time>2014-7-5T10:5:3.000Z</time>
      </trkpt>
      <trkpt lat="44.52947" lon="0.76584">
        <ele>133.5</ele>
        <time>2014-7-5T10:5:3.000Z</time>
      </trkpt>
      <trkpt lat="44.52947" lon="0.76574">
        <ele>132.5</ele>
        <time>2014-7-5T10:5:3.000Z</time>
      </trkpt>
      <trkpt lat="44.52947" lon="0.76574">
        <ele>132.5</ele>
        <time>2014-7-5T10:5:3.000Z</time>
      </trkpt>
      <trkpt lat="44.52949" lon="0.76562">
        <ele>132.5</ele>
        <time>2014-7-5T10:5:3.000Z</time>
      </trkpt>
      <trkpt lat="44.52949" lon="0.76562">
        <ele>132.5</ele>
        <time>2014-7-5T10:5:3.000Z</time>
      </trkpt>
      <trkpt lat="44.5295" lon="0.76552">
        <ele>132.5</ele>
        <time>2014-7-5T10:5:3.000Z</time>
      </trkpt>
      <trkpt lat="44.5295" lon="0.76552">
        <ele>132.5</ele>
        <time>2014-7-5T10:5:3.000Z</time>
      </trkpt>
      <trkpt lat="44.52952" lon="0.7653">
        <ele>131.5</ele>
        <time>2014-7-5T10:5:3.000Z</time>
      </trkpt>
      <trkpt lat="44.52952" lon="0.7653">
        <ele>131.5</ele>
        <time>2014-7-5T10:5:3.000Z</time>
      </trkpt>
      <trkpt lat="44.52953" lon="0.76519">
        <ele>131.5</ele>
        <time>2014-7-5T10:5:3.000Z</time>
      </trkpt>
      <trkpt lat="44.52953" lon="0.76519">
        <ele>131.5</ele>
        <time>2014-7-5T10:5:3.000Z</time>
      </trkpt>
      <trkpt lat="44.52954" lon="0.76508">
        <ele>130.5</ele>
        <time>2014-7-5T10:5:3.000Z</time>
      </trkpt>
      <trkpt lat="44.52954" lon="0.76508">
        <ele>130.5</ele>
        <time>2014-7-5T10:5:3.000Z</time>
      </trkpt>
      <trkpt lat="44.52955" lon="0.76496">
        <ele>130.5</ele>
        <time>2014-7-5T10:5:3.000Z</time>
      </trkpt>
      <trkpt lat="44.52955" lon="0.76496">
        <ele>130.5</ele>
        <time>2014-7-5T10:5:3.000Z</time>
      </trkpt>
      <trkpt lat="44.52956" lon="0.76485">
        <ele>130.5</ele>
        <time>2014-7-5T10:5:3.000Z</time>
      </trkpt>
      <trkpt lat="44.52956" lon="0.76485">
        <ele>130.5</ele>
        <time>2014-7-5T10:5:3.000Z</time>
      </trkpt>
      <trkpt lat="44.52956" lon="0.76473">
        <ele>129.5</ele>
        <time>2014-7-5T10:5:3.000Z</time>
      </trkpt>
      <trkpt lat="44.52956" lon="0.76473">
        <ele>129.5</ele>
        <time>2014-7-5T10:5:3.000Z</time>
      </trkpt>
      <trkpt lat="44.52955" lon="0.76462">
        <ele>128.5</ele>
        <time>2014-7-5T10:5:3.000Z</time>
      </trkpt>
      <trkpt lat="44.52955" lon="0.76462">
        <ele>128.5</ele>
        <time>2014-7-5T10:5:3.000Z</time>
      </trkpt>
      <trkpt lat="44.52954" lon="0.76452">
        <ele>128.5</ele>
        <time>2014-7-5T10:5:3.000Z</time>
      </trkpt>
      <trkpt lat="44.52954" lon="0.76452">
        <ele>128.5</ele>
        <time>2014-7-5T10:5:3.000Z</time>
      </trkpt>
      <trkpt lat="44.52952" lon="0.7644">
        <ele>127.5</ele>
        <time>2014-7-5T10:5:3.000Z</time>
      </trkpt>
      <trkpt lat="44.52952" lon="0.7644">
        <ele>127.5</ele>
        <time>2014-7-5T10:5:3.000Z</time>
      </trkpt>
      <trkpt lat="44.52951" lon="0.7643">
        <ele>127.5</ele>
        <time>2014-7-5T10:5:3.000Z</time>
      </trkpt>
      <trkpt lat="44.52951" lon="0.7643">
        <ele>127.5</ele>
        <time>2014-7-5T10:5:3.000Z</time>
      </trkpt>
      <trkpt lat="44.52948" lon="0.76419">
        <ele>127.5</ele>
        <time>2014-7-5T10:5:3.000Z</time>
      </trkpt>
      <trkpt lat="44.52948" lon="0.76419">
        <ele>127.5</ele>
        <time>2014-7-5T10:5:3.000Z</time>
      </trkpt>
      <trkpt lat="44.52945" lon="0.76408">
        <ele>126.5</ele>
        <time>2014-7-5T10:5:3.000Z</time>
      </trkpt>
      <trkpt lat="44.52945" lon="0.76408">
        <ele>126.5</ele>
        <time>2014-7-5T10:5:3.000Z</time>
      </trkpt>
      <trkpt lat="44.52943" lon="0.76399">
        <ele>126.5</ele>
        <time>2014-7-5T10:5:3.000Z</time>
      </trkpt>
      <trkpt lat="44.52943" lon="0.76399">
        <ele>126.5</ele>
        <time>2014-7-5T10:5:3.000Z</time>
      </trkpt>
      <trkpt lat="44.52939" lon="0.7639">
        <ele>126.5</ele>
        <time>2014-7-5T10:5:3.000Z</time>
      </trkpt>
      <trkpt lat="44.52939" lon="0.7639">
        <ele>126.5</ele>
        <time>2014-7-5T10:5:3.000Z</time>
      </trkpt>
      <trkpt lat="44.52936" lon="0.76381">
        <ele>125.5</ele>
        <time>2014-7-5T10:5:3.000Z</time>
      </trkpt>
      <trkpt lat="44.52936" lon="0.76381">
        <ele>125.5</ele>
        <time>2014-7-5T10:5:3.000Z</time>
      </trkpt>
      <trkpt lat="44.52933" lon="0.76373">
        <ele>125.5</ele>
        <time>2014-7-5T10:5:3.000Z</time>
      </trkpt>
      <trkpt lat="44.52933" lon="0.76373">
        <ele>125.5</ele>
        <time>2014-7-5T10:5:3.000Z</time>
      </trkpt>
      <trkpt lat="44.52928" lon="0.76365">
        <ele>125.5</ele>
        <time>2014-7-5T10:5:3.000Z</time>
      </trkpt>
      <trkpt lat="44.52928" lon="0.76365">
        <ele>125.5</ele>
        <time>2014-7-5T10:5:3.000Z</time>
      </trkpt>
      <trkpt lat="44.52925" lon="0.76358">
        <ele>125.5</ele>
        <time>2014-7-5T10:5:3.000Z</time>
      </trkpt>
      <trkpt lat="44.52925" lon="0.76358">
        <ele>125.5</ele>
        <time>2014-7-5T10:5:3.000Z</time>
      </trkpt>
      <trkpt lat="44.52921" lon="0.7635">
        <ele>125.5</ele>
        <time>2014-7-5T10:5:3.000Z</time>
      </trkpt>
      <trkpt lat="44.52921" lon="0.7635">
        <ele>125.5</ele>
        <time>2014-7-5T10:5:3.000Z</time>
      </trkpt>
      <trkpt lat="44.52917" lon="0.76343">
        <ele>125.5</ele>
        <time>2014-7-5T10:5:3.000Z</time>
      </trkpt>
      <trkpt lat="44.52917" lon="0.76343">
        <ele>125.5</ele>
        <time>2014-7-5T10:5:3.000Z</time>
      </trkpt>
      <trkpt lat="44.52913" lon="0.76337">
        <ele>124.5</ele>
        <time>2014-7-5T10:5:3.000Z</time>
      </trkpt>
      <trkpt lat="44.52913" lon="0.76337">
        <ele>124.5</ele>
        <time>2014-7-5T10:5:3.000Z</time>
      </trkpt>
      <trkpt lat="44.52908" lon="0.76329">
        <ele>124.5</ele>
        <time>2014-7-5T10:5:3.000Z</time>
      </trkpt>
      <trkpt lat="44.52908" lon="0.76329">
        <ele>124.5</ele>
        <time>2014-7-5T10:5:3.000Z</time>
      </trkpt>
      <trkpt lat="44.52903" lon="0.76323">
        <ele>124.5</ele>
        <time>2014-7-5T10:5:3.000Z</time>
      </trkpt>
      <trkpt lat="44.52903" lon="0.76323">
        <ele>124.5</ele>
        <time>2014-7-5T10:5:54.000Z</time>
      </trkpt>
      <trkpt lat="44.52899" lon="0.76317">
        <ele>124.5</ele>
        <time>2014-7-5T10:5:54.000Z</time>
      </trkpt>
      <trkpt lat="44.52899" lon="0.76317">
        <ele>124.5</ele>
        <time>2014-7-5T10:5:54.000Z</time>
      </trkpt>
      <trkpt lat="44.52894" lon="0.7631">
        <ele>124.5</ele>
        <time>2014-7-5T10:5:54.000Z</time>
      </trkpt>
      <trkpt lat="44.52894" lon="0.7631">
        <ele>124.5</ele>
        <time>2014-7-5T10:5:54.000Z</time>
      </trkpt>
      <trkpt lat="44.52891" lon="0.76305">
        <ele>123.5</ele>
        <time>2014-7-5T10:5:54.000Z</time>
      </trkpt>
      <trkpt lat="44.52891" lon="0.76305">
        <ele>123.5</ele>
        <time>2014-7-5T10:5:54.000Z</time>
      </trkpt>
      <trkpt lat="44.52886" lon="0.76299">
        <ele>122.5</ele>
        <time>2014-7-5T10:5:54.000Z</time>
      </trkpt>
      <trkpt lat="44.52886" lon="0.76299">
        <ele>122.5</ele>
        <time>2014-7-5T10:5:54.000Z</time>
      </trkpt>
      <trkpt lat="44.52882" lon="0.76293">
        <ele>123.5</ele>
        <time>2014-7-5T10:5:54.000Z</time>
      </trkpt>
      <trkpt lat="44.52882" lon="0.76293">
        <ele>123.5</ele>
        <time>2014-7-5T10:5:54.000Z</time>
      </trkpt>
      <trkpt lat="44.52879" lon="0.76288">
        <ele>122.5</ele>
        <time>2014-7-5T10:5:54.000Z</time>
      </trkpt>
      <trkpt lat="44.52879" lon="0.76288">
        <ele>122.5</ele>
        <time>2014-7-5T10:5:54.000Z</time>
      </trkpt>
      <trkpt lat="44.52875" lon="0.76282">
        <ele>122.5</ele>
        <time>2014-7-5T10:5:54.000Z</time>
      </trkpt>
      <trkpt lat="44.52875" lon="0.76282">
        <ele>122.5</ele>
        <time>2014-7-5T10:5:54.000Z</time>
      </trkpt>
      <trkpt lat="44.52872" lon="0.76277">
        <ele>122.5</ele>
        <time>2014-7-5T10:5:54.000Z</time>
      </trkpt>
      <trkpt lat="44.52872" lon="0.76277">
        <ele>122.5</ele>
        <time>2014-7-5T10:5:54.000Z</time>
      </trkpt>
      <trkpt lat="44.52865" lon="0.76266">
        <ele>122.5</ele>
        <time>2014-7-5T10:5:54.000Z</time>
      </trkpt>
      <trkpt lat="44.52865" lon="0.76266">
        <ele>122.5</ele>
        <time>2014-7-5T10:5:54.000Z</time>
      </trkpt>
      <trkpt lat="44.52861" lon="0.76261">
        <ele>122.5</ele>
        <time>2014-7-5T10:5:54.000Z</time>
      </trkpt>
      <trkpt lat="44.52861" lon="0.76261">
        <ele>122.5</ele>
        <time>2014-7-5T10:5:54.000Z</time>
      </trkpt>
      <trkpt lat="44.52858" lon="0.76256">
        <ele>122.5</ele>
        <time>2014-7-5T10:5:54.000Z</time>
      </trkpt>
      <trkpt lat="44.52858" lon="0.76256">
        <ele>122.5</ele>
        <time>2014-7-5T10:5:54.000Z</time>
      </trkpt>
      <trkpt lat="44.52854" lon="0.7625">
        <ele>123.5</ele>
        <time>2014-7-5T10:5:54.000Z</time>
      </trkpt>
      <trkpt lat="44.52854" lon="0.7625">
        <ele>123.5</ele>
        <time>2014-7-5T10:5:54.000Z</time>
      </trkpt>
      <trkpt lat="44.52851" lon="0.76245">
        <ele>122.5</ele>
        <time>2014-7-5T10:5:54.000Z</time>
      </trkpt>
      <trkpt lat="44.52851" lon="0.76245">
        <ele>122.5</ele>
        <time>2014-7-5T10:5:54.000Z</time>
      </trkpt>
      <trkpt lat="44.52847" lon="0.7624">
        <ele>122.5</ele>
        <time>2014-7-5T10:5:54.000Z</time>
      </trkpt>
      <trkpt lat="44.52847" lon="0.7624">
        <ele>122.5</ele>
        <time>2014-7-5T10:5:54.000Z</time>
      </trkpt>
      <trkpt lat="44.52844" lon="0.76235">
        <ele>122.5</ele>
        <time>2014-7-5T10:5:54.000Z</time>
      </trkpt>
      <trkpt lat="44.52844" lon="0.76235">
        <ele>122.5</ele>
        <time>2014-7-5T10:5:54.000Z</time>
      </trkpt>
      <trkpt lat="44.5284" lon="0.7623">
        <ele>122.5</ele>
        <time>2014-7-5T10:5:54.000Z</time>
      </trkpt>
      <trkpt lat="44.5284" lon="0.7623">
        <ele>122.5</ele>
        <time>2014-7-5T10:5:54.000Z</time>
      </trkpt>
      <trkpt lat="44.52837" lon="0.76224">
        <ele>122.5</ele>
        <time>2014-7-5T10:5:54.000Z</time>
      </trkpt>
      <trkpt lat="44.52837" lon="0.76224">
        <ele>122.5</ele>
        <time>2014-7-5T10:5:54.000Z</time>
      </trkpt>
      <trkpt lat="44.52834" lon="0.76219">
        <ele>122.5</ele>
        <time>2014-7-5T10:5:54.000Z</time>
      </trkpt>
      <trkpt lat="44.52834" lon="0.76219">
        <ele>122.5</ele>
        <time>2014-7-5T10:5:54.000Z</time>
      </trkpt>
      <trkpt lat="44.52831" lon="0.76213">
        <ele>122.5</ele>
        <time>2014-7-5T10:5:54.000Z</time>
      </trkpt>
      <trkpt lat="44.52831" lon="0.76213">
        <ele>122.5</ele>
        <time>2014-7-5T10:5:54.000Z</time>
      </trkpt>
      <trkpt lat="44.52828" lon="0.76208">
        <ele>122.5</ele>
        <time>2014-7-5T10:5:54.000Z</time>
      </trkpt>
      <trkpt lat="44.52828" lon="0.76208">
        <ele>122.5</ele>
        <time>2014-7-5T10:5:54.000Z</time>
      </trkpt>
      <trkpt lat="44.52825" lon="0.76203">
        <ele>122.5</ele>
        <time>2014-7-5T10:5:54.000Z</time>
      </trkpt>
      <trkpt lat="44.52825" lon="0.76203">
        <ele>122.5</ele>
        <time>2014-7-5T10:5:54.000Z</time>
      </trkpt>
      <trkpt lat="44.52821" lon="0.76198">
        <ele>122.5</ele>
        <time>2014-7-5T10:5:54.000Z</time>
      </trkpt>
      <trkpt lat="44.52821" lon="0.76198">
        <ele>122.5</ele>
        <time>2014-7-5T10:5:54.000Z</time>
      </trkpt>
      <trkpt lat="44.52818" lon="0.76193">
        <ele>122.5</ele>
        <time>2014-7-5T10:5:54.000Z</time>
      </trkpt>
      <trkpt lat="44.52818" lon="0.76193">
        <ele>122.5</ele>
        <time>2014-7-5T10:5:54.000Z</time>
      </trkpt>
      <trkpt lat="44.52814" lon="0.76187">
        <ele>122.5</ele>
        <time>2014-7-5T10:5:54.000Z</time>
      </trkpt>
      <trkpt lat="44.52814" lon="0.76187">
        <ele>122.5</ele>
        <time>2014-7-5T10:5:54.000Z</time>
      </trkpt>
      <trkpt lat="44.52811" lon="0.76182">
        <ele>122.5</ele>
        <time>2014-7-5T10:5:54.000Z</time>
      </trkpt>
      <trkpt lat="44.52811" lon="0.76182">
        <ele>122.5</ele>
        <time>2014-7-5T10:5:54.000Z</time>
      </trkpt>
      <trkpt lat="44.52808" lon="0.76178">
        <ele>123.5</ele>
        <time>2014-7-5T10:5:54.000Z</time>
      </trkpt>
      <trkpt lat="44.52808" lon="0.76178">
        <ele>123.5</ele>
        <time>2014-7-5T10:5:54.000Z</time>
      </trkpt>
      <trkpt lat="44.52805" lon="0.76173">
        <ele>123.5</ele>
        <time>2014-7-5T10:5:54.000Z</time>
      </trkpt>
      <trkpt lat="44.52805" lon="0.76173">
        <ele>123.5</ele>
        <time>2014-7-5T10:5:54.000Z</time>
      </trkpt>
      <trkpt lat="44.52801" lon="0.76167">
        <ele>123.5</ele>
        <time>2014-7-5T10:5:54.000Z</time>
      </trkpt>
      <trkpt lat="44.52801" lon="0.76167">
        <ele>123.5</ele>
        <time>2014-7-5T10:5:54.000Z</time>
      </trkpt>
      <trkpt lat="44.52799" lon="0.76162">
        <ele>122.5</ele>
        <time>2014-7-5T10:5:54.000Z</time>
      </trkpt>
      <trkpt lat="44.52799" lon="0.76162">
        <ele>122.5</ele>
        <time>2014-7-5T10:5:54.000Z</time>
      </trkpt>
      <trkpt lat="44.52796" lon="0.76155">
        <ele>122.5</ele>
        <time>2014-7-5T10:5:54.000Z</time>
      </trkpt>
      <trkpt lat="44.52796" lon="0.76155">
        <ele>122.5</ele>
        <time>2014-7-5T10:5:54.000Z</time>
      </trkpt>
      <trkpt lat="44.52795" lon="0.7615">
        <ele>121.5</ele>
        <time>2014-7-5T10:5:54.000Z</time>
      </trkpt>
      <trkpt lat="44.52795" lon="0.7615">
        <ele>121.5</ele>
        <time>2014-7-5T10:5:54.000Z</time>
      </trkpt>
      <trkpt lat="44.52793" lon="0.76144">
        <ele>121.5</ele>
        <time>2014-7-5T10:5:54.000Z</time>
      </trkpt>
      <trkpt lat="44.52793" lon="0.76144">
        <ele>121.5</ele>
        <time>2014-7-5T10:5:54.000Z</time>
      </trkpt>
      <trkpt lat="44.5279" lon="0.76138">
        <ele>121.5</ele>
        <time>2014-7-5T10:5:54.000Z</time>
      </trkpt>
      <trkpt lat="44.5279" lon="0.76138">
        <ele>121.5</ele>
        <time>2014-7-5T10:5:54.000Z</time>
      </trkpt>
      <trkpt lat="44.52788" lon="0.76133">
        <ele>121.5</ele>
        <time>2014-7-5T10:5:54.000Z</time>
      </trkpt>
      <trkpt lat="44.52788" lon="0.76133">
        <ele>121.5</ele>
        <time>2014-7-5T10:5:54.000Z</time>
      </trkpt>
      <trkpt lat="44.52785" lon="0.76123">
        <ele>121.5</ele>
        <time>2014-7-5T10:5:54.000Z</time>
      </trkpt>
      <trkpt lat="44.52785" lon="0.76123">
        <ele>121.5</ele>
        <time>2014-7-5T10:5:54.000Z</time>
      </trkpt>
      <trkpt lat="44.52782" lon="0.76118">
        <ele>121.5</ele>
        <time>2014-7-5T10:5:54.000Z</time>
      </trkpt>
      <trkpt lat="44.52782" lon="0.76118">
        <ele>121.5</ele>
        <time>2014-7-5T10:5:54.000Z</time>
      </trkpt>
      <trkpt lat="44.52779" lon="0.76112">
        <ele>121.5</ele>
        <time>2014-7-5T10:5:54.000Z</time>
      </trkpt>
      <trkpt lat="44.52779" lon="0.76112">
        <ele>121.5</ele>
        <time>2014-7-5T10:5:54.000Z</time>
      </trkpt>
      <trkpt lat="44.52777" lon="0.76107">
        <ele>121.5</ele>
        <time>2014-7-5T10:5:54.000Z</time>
      </trkpt>
      <trkpt lat="44.52777" lon="0.76107">
        <ele>121.5</ele>
        <time>2014-7-5T10:5:54.000Z</time>
      </trkpt>
      <trkpt lat="44.52776" lon="0.76102">
        <ele>121.5</ele>
        <time>2014-7-5T10:5:54.000Z</time>
      </trkpt>
      <trkpt lat="44.52776" lon="0.76102">
        <ele>121.5</ele>
        <time>2014-7-5T10:5:54.000Z</time>
      </trkpt>
      <trkpt lat="44.52774" lon="0.76097">
        <ele>121.5</ele>
        <time>2014-7-5T10:5:54.000Z</time>
      </trkpt>
      <trkpt lat="44.52774" lon="0.76097">
        <ele>121.5</ele>
        <time>2014-7-5T10:5:54.000Z</time>
      </trkpt>
      <trkpt lat="44.52772" lon="0.76092">
        <ele>121.5</ele>
        <time>2014-7-5T10:5:54.000Z</time>
      </trkpt>
      <trkpt lat="44.52772" lon="0.76092">
        <ele>121.5</ele>
        <time>2014-7-5T10:5:54.000Z</time>
      </trkpt>
      <trkpt lat="44.52771" lon="0.76087">
        <ele>121.5</ele>
        <time>2014-7-5T10:5:54.000Z</time>
      </trkpt>
      <trkpt lat="44.52771" lon="0.76087">
        <ele>121.5</ele>
        <time>2014-7-5T10:5:54.000Z</time>
      </trkpt>
      <trkpt lat="44.52769" lon="0.76082">
        <ele>121.5</ele>
        <time>2014-7-5T10:5:54.000Z</time>
      </trkpt>
      <trkpt lat="44.52769" lon="0.76082">
        <ele>121.5</ele>
        <time>2014-7-5T10:5:54.000Z</time>
      </trkpt>
      <trkpt lat="44.52768" lon="0.76077">
        <ele>121.5</ele>
        <time>2014-7-5T10:5:54.000Z</time>
      </trkpt>
      <trkpt lat="44.52768" lon="0.76077">
        <ele>121.5</ele>
        <time>2014-7-5T10:5:54.000Z</time>
      </trkpt>
      <trkpt lat="44.52767" lon="0.76072">
        <ele>121.5</ele>
        <time>2014-7-5T10:5:54.000Z</time>
      </trkpt>
      <trkpt lat="44.52767" lon="0.76072">
        <ele>121.5</ele>
        <time>2014-7-5T10:5:54.000Z</time>
      </trkpt>
      <trkpt lat="44.52766" lon="0.76066">
        <ele>121.5</ele>
        <time>2014-7-5T10:5:54.000Z</time>
      </trkpt>
      <trkpt lat="44.52766" lon="0.76066">
        <ele>121.5</ele>
        <time>2014-7-5T10:5:54.000Z</time>
      </trkpt>
      <trkpt lat="44.52766" lon="0.76061">
        <ele>120.5</ele>
        <time>2014-7-5T10:5:54.000Z</time>
      </trkpt>
      <trkpt lat="44.52766" lon="0.76061">
        <ele>120.5</ele>
        <time>2014-7-5T10:5:54.000Z</time>
      </trkpt>
      <trkpt lat="44.52766" lon="0.76054">
        <ele>120.5</ele>
        <time>2014-7-5T10:5:54.000Z</time>
      </trkpt>
      <trkpt lat="44.52766" lon="0.76054">
        <ele>120.5</ele>
        <time>2014-7-5T10:5:54.000Z</time>
      </trkpt>
      <trkpt lat="44.52766" lon="0.76049">
        <ele>121.5</ele>
        <time>2014-7-5T10:5:54.000Z</time>
      </trkpt>
      <trkpt lat="44.52766" lon="0.76049">
        <ele>121.5</ele>
        <time>2014-7-5T10:5:54.000Z</time>
      </trkpt>
      <trkpt lat="44.52768" lon="0.76043">
        <ele>120.5</ele>
        <time>2014-7-5T10:5:54.000Z</time>
      </trkpt>
      <trkpt lat="44.52768" lon="0.76043">
        <ele>120.5</ele>
        <time>2014-7-5T10:5:54.000Z</time>
      </trkpt>
      <trkpt lat="44.5277" lon="0.76037">
        <ele>121.5</ele>
        <time>2014-7-5T10:6:49.000Z</time>
      </trkpt>
      <trkpt lat="44.5277" lon="0.76037">
        <ele>121.5</ele>
        <time>2014-7-5T10:6:49.000Z</time>
      </trkpt>
      <trkpt lat="44.52772" lon="0.76032">
        <ele>121.5</ele>
        <time>2014-7-5T10:6:49.000Z</time>
      </trkpt>
      <trkpt lat="44.52772" lon="0.76032">
        <ele>121.5</ele>
        <time>2014-7-5T10:6:49.000Z</time>
      </trkpt>
      <trkpt lat="44.52776" lon="0.76025">
        <ele>121.5</ele>
        <time>2014-7-5T10:6:49.000Z</time>
      </trkpt>
      <trkpt lat="44.52776" lon="0.76025">
        <ele>121.5</ele>
        <time>2014-7-5T10:6:49.000Z</time>
      </trkpt>
      <trkpt lat="44.52778" lon="0.76019">
        <ele>122.5</ele>
        <time>2014-7-5T10:6:49.000Z</time>
      </trkpt>
      <trkpt lat="44.52778" lon="0.76019">
        <ele>122.5</ele>
        <time>2014-7-5T10:6:49.000Z</time>
      </trkpt>
      <trkpt lat="44.5278" lon="0.76013">
        <ele>122.5</ele>
        <time>2014-7-5T10:6:49.000Z</time>
      </trkpt>
      <trkpt lat="44.5278" lon="0.76013">
        <ele>122.5</ele>
        <time>2014-7-5T10:6:49.000Z</time>
      </trkpt>
      <trkpt lat="44.52783" lon="0.76006">
        <ele>122.5</ele>
        <time>2014-7-5T10:6:49.000Z</time>
      </trkpt>
      <trkpt lat="44.52783" lon="0.76006">
        <ele>122.5</ele>
        <time>2014-7-5T10:6:49.000Z</time>
      </trkpt>
      <trkpt lat="44.52784" lon="0.76">
        <ele>121.5</ele>
        <time>2014-7-5T10:6:49.000Z</time>
      </trkpt>
      <trkpt lat="44.52784" lon="0.76">
        <ele>121.5</ele>
        <time>2014-7-5T10:6:49.000Z</time>
      </trkpt>
      <trkpt lat="44.52787" lon="0.75993">
        <ele>121.5</ele>
        <time>2014-7-5T10:6:49.000Z</time>
      </trkpt>
      <trkpt lat="44.52787" lon="0.75993">
        <ele>121.5</ele>
        <time>2014-7-5T10:6:49.000Z</time>
      </trkpt>
      <trkpt lat="44.52789" lon="0.75986">
        <ele>122.5</ele>
        <time>2014-7-5T10:6:49.000Z</time>
      </trkpt>
      <trkpt lat="44.52789" lon="0.75986">
        <ele>122.5</ele>
        <time>2014-7-5T10:6:49.000Z</time>
      </trkpt>
      <trkpt lat="44.52792" lon="0.75979">
        <ele>122.5</ele>
        <time>2014-7-5T10:6:49.000Z</time>
      </trkpt>
      <trkpt lat="44.52792" lon="0.75979">
        <ele>122.5</ele>
        <time>2014-7-5T10:6:49.000Z</time>
      </trkpt>
      <trkpt lat="44.52794" lon="0.75972">
        <ele>122.5</ele>
        <time>2014-7-5T10:6:49.000Z</time>
      </trkpt>
      <trkpt lat="44.52794" lon="0.75972">
        <ele>122.5</ele>
        <time>2014-7-5T10:6:49.000Z</time>
      </trkpt>
      <trkpt lat="44.52797" lon="0.75966">
        <ele>122.5</ele>
        <time>2014-7-5T10:6:49.000Z</time>
      </trkpt>
      <trkpt lat="44.52797" lon="0.75966">
        <ele>122.5</ele>
        <time>2014-7-5T10:6:49.000Z</time>
      </trkpt>
      <trkpt lat="44.52799" lon="0.75958">
        <ele>121.5</ele>
        <time>2014-7-5T10:6:49.000Z</time>
      </trkpt>
      <trkpt lat="44.52799" lon="0.75958">
        <ele>121.5</ele>
        <time>2014-7-5T10:6:49.000Z</time>
      </trkpt>
      <trkpt lat="44.52802" lon="0.7595">
        <ele>121.5</ele>
        <time>2014-7-5T10:6:49.000Z</time>
      </trkpt>
      <trkpt lat="44.52802" lon="0.7595">
        <ele>121.5</ele>
        <time>2014-7-5T10:6:49.000Z</time>
      </trkpt>
      <trkpt lat="44.52804" lon="0.75943">
        <ele>121.5</ele>
        <time>2014-7-5T10:6:49.000Z</time>
      </trkpt>
      <trkpt lat="44.52804" lon="0.75943">
        <ele>121.5</ele>
        <time>2014-7-5T10:6:49.000Z</time>
      </trkpt>
      <trkpt lat="44.52807" lon="0.75937">
        <ele>121.5</ele>
        <time>2014-7-5T10:6:49.000Z</time>
      </trkpt>
      <trkpt lat="44.52807" lon="0.75937">
        <ele>121.5</ele>
        <time>2014-7-5T10:6:49.000Z</time>
      </trkpt>
      <trkpt lat="44.52809" lon="0.75929">
        <ele>121.5</ele>
        <time>2014-7-5T10:6:49.000Z</time>
      </trkpt>
      <trkpt lat="44.52809" lon="0.75929">
        <ele>121.5</ele>
        <time>2014-7-5T10:6:49.000Z</time>
      </trkpt>
      <trkpt lat="44.52811" lon="0.75923">
        <ele>121.5</ele>
        <time>2014-7-5T10:6:49.000Z</time>
      </trkpt>
      <trkpt lat="44.52811" lon="0.75923">
        <ele>121.5</ele>
        <time>2014-7-5T10:6:49.000Z</time>
      </trkpt>
      <trkpt lat="44.52814" lon="0.75915">
        <ele>121.5</ele>
        <time>2014-7-5T10:6:49.000Z</time>
      </trkpt>
      <trkpt lat="44.52814" lon="0.75915">
        <ele>121.5</ele>
        <time>2014-7-5T10:6:49.000Z</time>
      </trkpt>
      <trkpt lat="44.52819" lon="0.75902">
        <ele>121.5</ele>
        <time>2014-7-5T10:6:49.000Z</time>
      </trkpt>
      <trkpt lat="44.52819" lon="0.75902">
        <ele>121.5</ele>
        <time>2014-7-5T10:6:49.000Z</time>
      </trkpt>
      <trkpt lat="44.52823" lon="0.75894">
        <ele>121.5</ele>
        <time>2014-7-5T10:6:49.000Z</time>
      </trkpt>
      <trkpt lat="44.52823" lon="0.75894">
        <ele>121.5</ele>
        <time>2014-7-5T10:6:49.000Z</time>
      </trkpt>
      <trkpt lat="44.52824" lon="0.75886">
        <ele>121.5</ele>
        <time>2014-7-5T10:6:49.000Z</time>
      </trkpt>
      <trkpt lat="44.52824" lon="0.75886">
        <ele>121.5</ele>
        <time>2014-7-5T10:6:49.000Z</time>
      </trkpt>
      <trkpt lat="44.52827" lon="0.75879">
        <ele>121.5</ele>
        <time>2014-7-5T10:6:49.000Z</time>
      </trkpt>
      <trkpt lat="44.52827" lon="0.75879">
        <ele>121.5</ele>
        <time>2014-7-5T10:6:49.000Z</time>
      </trkpt>
      <trkpt lat="44.52829" lon="0.75871">
        <ele>121.5</ele>
        <time>2014-7-5T10:6:49.000Z</time>
      </trkpt>
      <trkpt lat="44.52829" lon="0.75871">
        <ele>121.5</ele>
        <time>2014-7-5T10:6:49.000Z</time>
      </trkpt>
      <trkpt lat="44.52831" lon="0.75864">
        <ele>121.5</ele>
        <time>2014-7-5T10:6:49.000Z</time>
      </trkpt>
      <trkpt lat="44.52831" lon="0.75864">
        <ele>121.5</ele>
        <time>2014-7-5T10:6:49.000Z</time>
      </trkpt>
      <trkpt lat="44.52834" lon="0.75856">
        <ele>120.5</ele>
        <time>2014-7-5T10:6:49.000Z</time>
      </trkpt>
      <trkpt lat="44.52834" lon="0.75856">
        <ele>120.5</ele>
        <time>2014-7-5T10:6:49.000Z</time>
      </trkpt>
      <trkpt lat="44.52837" lon="0.7585">
        <ele>121.5</ele>
        <time>2014-7-5T10:6:49.000Z</time>
      </trkpt>
      <trkpt lat="44.52837" lon="0.7585">
        <ele>121.5</ele>
        <time>2014-7-5T10:6:49.000Z</time>
      </trkpt>
      <trkpt lat="44.52841" lon="0.75842">
        <ele>120.5</ele>
        <time>2014-7-5T10:6:49.000Z</time>
      </trkpt>
      <trkpt lat="44.52841" lon="0.75842">
        <ele>120.5</ele>
        <time>2014-7-5T10:6:49.000Z</time>
      </trkpt>
      <trkpt lat="44.52844" lon="0.75833">
        <ele>120.5</ele>
        <time>2014-7-5T10:6:49.000Z</time>
      </trkpt>
      <trkpt lat="44.52844" lon="0.75833">
        <ele>120.5</ele>
        <time>2014-7-5T10:6:49.000Z</time>
      </trkpt>
      <trkpt lat="44.52846" lon="0.75826">
        <ele>120.5</ele>
        <time>2014-7-5T10:6:49.000Z</time>
      </trkpt>
      <trkpt lat="44.52846" lon="0.75826">
        <ele>120.5</ele>
        <time>2014-7-5T10:6:49.000Z</time>
      </trkpt>
      <trkpt lat="44.52849" lon="0.75818">
        <ele>120.5</ele>
        <time>2014-7-5T10:6:49.000Z</time>
      </trkpt>
      <trkpt lat="44.52849" lon="0.75818">
        <ele>120.5</ele>
        <time>2014-7-5T10:6:49.000Z</time>
      </trkpt>
      <trkpt lat="44.52853" lon="0.75808">
        <ele>120.5</ele>
        <time>2014-7-5T10:6:49.000Z</time>
      </trkpt>
      <trkpt lat="44.52853" lon="0.75808">
        <ele>120.5</ele>
        <time>2014-7-5T10:6:49.000Z</time>
      </trkpt>
      <trkpt lat="44.52855" lon="0.758">
        <ele>119.5</ele>
        <time>2014-7-5T10:6:49.000Z</time>
      </trkpt>
      <trkpt lat="44.52855" lon="0.758">
        <ele>119.5</ele>
        <time>2014-7-5T10:6:49.000Z</time>
      </trkpt>
      <trkpt lat="44.52859" lon="0.75791">
        <ele>118.5</ele>
        <time>2014-7-5T10:6:49.000Z</time>
      </trkpt>
      <trkpt lat="44.52859" lon="0.75791">
        <ele>118.5</ele>
        <time>2014-7-5T10:6:49.000Z</time>
      </trkpt>
      <trkpt lat="44.52862" lon="0.75782">
        <ele>118.5</ele>
        <time>2014-7-5T10:6:49.000Z</time>
      </trkpt>
      <trkpt lat="44.52862" lon="0.75782">
        <ele>118.5</ele>
        <time>2014-7-5T10:6:49.000Z</time>
      </trkpt>
      <trkpt lat="44.52866" lon="0.75772">
        <ele>118.5</ele>
        <time>2014-7-5T10:6:49.000Z</time>
      </trkpt>
      <trkpt lat="44.52866" lon="0.75772">
        <ele>118.5</ele>
        <time>2014-7-5T10:6:49.000Z</time>
      </trkpt>
      <trkpt lat="44.5287" lon="0.75761">
        <ele>118.5</ele>
        <time>2014-7-5T10:6:49.000Z</time>
      </trkpt>
      <trkpt lat="44.5287" lon="0.75761">
        <ele>118.5</ele>
        <time>2014-7-5T10:6:49.000Z</time>
      </trkpt>
      <trkpt lat="44.52873" lon="0.75752">
        <ele>118.5</ele>
        <time>2014-7-5T10:6:49.000Z</time>
      </trkpt>
      <trkpt lat="44.52873" lon="0.75752">
        <ele>118.5</ele>
        <time>2014-7-5T10:6:49.000Z</time>
      </trkpt>
      <trkpt lat="44.52877" lon="0.75741">
        <ele>117.5</ele>
        <time>2014-7-5T10:6:49.000Z</time>
      </trkpt>
      <trkpt lat="44.52877" lon="0.75741">
        <ele>117.5</ele>
        <time>2014-7-5T10:6:49.000Z</time>
      </trkpt>
      <trkpt lat="44.52881" lon="0.75729">
        <ele>116.5</ele>
        <time>2014-7-5T10:6:49.000Z</time>
      </trkpt>
      <trkpt lat="44.52881" lon="0.75729">
        <ele>116.5</ele>
        <time>2014-7-5T10:6:49.000Z</time>
      </trkpt>
      <trkpt lat="44.52884" lon="0.7572">
        <ele>115.5</ele>
        <time>2014-7-5T10:6:49.000Z</time>
      </trkpt>
      <trkpt lat="44.52884" lon="0.7572">
        <ele>115.5</ele>
        <time>2014-7-5T10:6:49.000Z</time>
      </trkpt>
      <trkpt lat="44.52888" lon="0.75709">
        <ele>115.5</ele>
        <time>2014-7-5T10:6:49.000Z</time>
      </trkpt>
      <trkpt lat="44.52888" lon="0.75709">
        <ele>115.5</ele>
        <time>2014-7-5T10:6:49.000Z</time>
      </trkpt>
      <trkpt lat="44.52894" lon="0.7569">
        <ele>114.5</ele>
        <time>2014-7-5T10:6:49.000Z</time>
      </trkpt>
      <trkpt lat="44.52894" lon="0.7569">
        <ele>114.5</ele>
        <time>2014-7-5T10:6:49.000Z</time>
      </trkpt>
      <trkpt lat="44.52896" lon="0.75682">
        <ele>114.5</ele>
        <time>2014-7-5T10:6:49.000Z</time>
      </trkpt>
      <trkpt lat="44.52896" lon="0.75682">
        <ele>114.5</ele>
        <time>2014-7-5T10:6:49.000Z</time>
      </trkpt>
      <trkpt lat="44.52898" lon="0.75678">
        <ele>115.5</ele>
        <time>2014-7-5T10:6:49.000Z</time>
      </trkpt>
      <trkpt lat="44.52898" lon="0.75678">
        <ele>115.5</ele>
        <time>2014-7-5T10:6:49.000Z</time>
      </trkpt>
      <trkpt lat="44.52896" lon="0.75674">
        <ele>115.5</ele>
        <time>2014-7-5T10:6:49.000Z</time>
      </trkpt>
      <trkpt lat="44.52896" lon="0.75674">
        <ele>115.5</ele>
        <time>2014-7-5T10:6:49.000Z</time>
      </trkpt>
      <trkpt lat="44.52892" lon="0.75673">
        <ele>115.5</ele>
        <time>2014-7-5T10:6:49.000Z</time>
      </trkpt>
      <trkpt lat="44.52892" lon="0.75673">
        <ele>115.5</ele>
        <time>2014-7-5T10:6:49.000Z</time>
      </trkpt>
      <trkpt lat="44.52889" lon="0.75671">
        <ele>115.5</ele>
        <time>2014-7-5T10:6:49.000Z</time>
      </trkpt>
      <trkpt lat="44.52889" lon="0.75671">
        <ele>115.5</ele>
        <time>2014-7-5T10:6:49.000Z</time>
      </trkpt>
      <trkpt lat="44.52885" lon="0.75667">
        <ele>115.5</ele>
        <time>2014-7-5T10:6:49.000Z</time>
      </trkpt>
      <trkpt lat="44.52885" lon="0.75667">
        <ele>115.5</ele>
        <time>2014-7-5T10:6:49.000Z</time>
      </trkpt>
      <trkpt lat="44.52882" lon="0.75664">
        <ele>115.5</ele>
        <time>2014-7-5T10:6:49.000Z</time>
      </trkpt>
      <trkpt lat="44.52882" lon="0.75664">
        <ele>115.5</ele>
        <time>2014-7-5T10:6:49.000Z</time>
      </trkpt>
      <trkpt lat="44.52878" lon="0.75661">
        <ele>115.5</ele>
        <time>2014-7-5T10:6:49.000Z</time>
      </trkpt>
      <trkpt lat="44.52878" lon="0.75661">
        <ele>115.5</ele>
        <time>2014-7-5T10:7:38.000Z</time>
      </trkpt>
      <trkpt lat="44.52874" lon="0.75657">
        <ele>114.5</ele>
        <time>2014-7-5T10:7:38.000Z</time>
      </trkpt>
      <trkpt lat="44.52874" lon="0.75657">
        <ele>114.5</ele>
        <time>2014-7-5T10:7:38.000Z</time>
      </trkpt>
      <trkpt lat="44.52871" lon="0.75653">
        <ele>115.5</ele>
        <time>2014-7-5T10:7:38.000Z</time>
      </trkpt>
      <trkpt lat="44.52871" lon="0.75653">
        <ele>115.5</ele>
        <time>2014-7-5T10:7:38.000Z</time>
      </trkpt>
      <trkpt lat="44.52867" lon="0.75649">
        <ele>114.5</ele>
        <time>2014-7-5T10:7:38.000Z</time>
      </trkpt>
      <trkpt lat="44.52867" lon="0.75649">
        <ele>114.5</ele>
        <time>2014-7-5T10:7:38.000Z</time>
      </trkpt>
      <trkpt lat="44.52863" lon="0.75645">
        <ele>115.5</ele>
        <time>2014-7-5T10:7:38.000Z</time>
      </trkpt>
      <trkpt lat="44.52863" lon="0.75645">
        <ele>115.5</ele>
        <time>2014-7-5T10:7:38.000Z</time>
      </trkpt>
      <trkpt lat="44.5286" lon="0.75641">
        <ele>115.5</ele>
        <time>2014-7-5T10:7:38.000Z</time>
      </trkpt>
      <trkpt lat="44.5286" lon="0.75641">
        <ele>115.5</ele>
        <time>2014-7-5T10:7:38.000Z</time>
      </trkpt>
      <trkpt lat="44.52856" lon="0.75637">
        <ele>116.5</ele>
        <time>2014-7-5T10:7:38.000Z</time>
      </trkpt>
      <trkpt lat="44.52856" lon="0.75637">
        <ele>116.5</ele>
        <time>2014-7-5T10:7:38.000Z</time>
      </trkpt>
      <trkpt lat="44.52852" lon="0.75634">
        <ele>117.5</ele>
        <time>2014-7-5T10:7:38.000Z</time>
      </trkpt>
      <trkpt lat="44.52852" lon="0.75634">
        <ele>117.5</ele>
        <time>2014-7-5T10:7:38.000Z</time>
      </trkpt>
      <trkpt lat="44.52847" lon="0.75629">
        <ele>117.5</ele>
        <time>2014-7-5T10:7:38.000Z</time>
      </trkpt>
      <trkpt lat="44.52847" lon="0.75629">
        <ele>117.5</ele>
        <time>2014-7-5T10:7:38.000Z</time>
      </trkpt>
      <trkpt lat="44.52842" lon="0.75624">
        <ele>117.5</ele>
        <time>2014-7-5T10:7:38.000Z</time>
      </trkpt>
      <trkpt lat="44.52842" lon="0.75624">
        <ele>117.5</ele>
        <time>2014-7-5T10:7:38.000Z</time>
      </trkpt>
      <trkpt lat="44.52838" lon="0.75621">
        <ele>117.5</ele>
        <time>2014-7-5T10:7:38.000Z</time>
      </trkpt>
      <trkpt lat="44.52838" lon="0.75621">
        <ele>117.5</ele>
        <time>2014-7-5T10:7:38.000Z</time>
      </trkpt>
      <trkpt lat="44.52835" lon="0.75617">
        <ele>117.5</ele>
        <time>2014-7-5T10:7:38.000Z</time>
      </trkpt>
      <trkpt lat="44.52835" lon="0.75617">
        <ele>117.5</ele>
        <time>2014-7-5T10:7:38.000Z</time>
      </trkpt>
      <trkpt lat="44.5283" lon="0.75612">
        <ele>118.5</ele>
        <time>2014-7-5T10:7:38.000Z</time>
      </trkpt>
      <trkpt lat="44.5283" lon="0.75612">
        <ele>118.5</ele>
        <time>2014-7-5T10:7:38.000Z</time>
      </trkpt>
      <trkpt lat="44.52827" lon="0.7561">
        <ele>118.5</ele>
        <time>2014-7-5T10:7:38.000Z</time>
      </trkpt>
      <trkpt lat="44.52827" lon="0.7561">
        <ele>118.5</ele>
        <time>2014-7-5T10:7:38.000Z</time>
      </trkpt>
      <trkpt lat="44.52822" lon="0.75606">
        <ele>117.5</ele>
        <time>2014-7-5T10:7:38.000Z</time>
      </trkpt>
      <trkpt lat="44.52822" lon="0.75606">
        <ele>117.5</ele>
        <time>2014-7-5T10:7:38.000Z</time>
      </trkpt>
      <trkpt lat="44.52819" lon="0.75604">
        <ele>117.5</ele>
        <time>2014-7-5T10:7:38.000Z</time>
      </trkpt>
      <trkpt lat="44.52819" lon="0.75604">
        <ele>117.5</ele>
        <time>2014-7-5T10:7:38.000Z</time>
      </trkpt>
      <trkpt lat="44.52816" lon="0.75601">
        <ele>117.5</ele>
        <time>2014-7-5T10:7:38.000Z</time>
      </trkpt>
      <trkpt lat="44.52816" lon="0.75601">
        <ele>117.5</ele>
        <time>2014-7-5T10:7:38.000Z</time>
      </trkpt>
      <trkpt lat="44.52812" lon="0.75597">
        <ele>116.5</ele>
        <time>2014-7-5T10:7:38.000Z</time>
      </trkpt>
      <trkpt lat="44.52812" lon="0.75597">
        <ele>116.5</ele>
        <time>2014-7-5T10:7:38.000Z</time>
      </trkpt>
      <trkpt lat="44.52806" lon="0.7559">
        <ele>115.5</ele>
        <time>2014-7-5T10:7:38.000Z</time>
      </trkpt>
      <trkpt lat="44.52806" lon="0.7559">
        <ele>115.5</ele>
        <time>2014-7-5T10:7:38.000Z</time>
      </trkpt>
      <trkpt lat="44.52804" lon="0.75585">
        <ele>115.5</ele>
        <time>2014-7-5T10:7:38.000Z</time>
      </trkpt>
      <trkpt lat="44.52804" lon="0.75585">
        <ele>115.5</ele>
        <time>2014-7-5T10:7:38.000Z</time>
      </trkpt>
      <trkpt lat="44.52804" lon="0.75581">
        <ele>116.5</ele>
        <time>2014-7-5T10:7:38.000Z</time>
      </trkpt>
      <trkpt lat="44.52804" lon="0.75581">
        <ele>116.5</ele>
        <time>2014-7-5T10:7:38.000Z</time>
      </trkpt>
      <trkpt lat="44.52806" lon="0.75576">
        <ele>115.5</ele>
        <time>2014-7-5T10:7:38.000Z</time>
      </trkpt>
      <trkpt lat="44.52806" lon="0.75576">
        <ele>115.5</ele>
        <time>2014-7-5T10:7:38.000Z</time>
      </trkpt>
      <trkpt lat="44.52808" lon="0.75573">
        <ele>115.5</ele>
        <time>2014-7-5T10:7:38.000Z</time>
      </trkpt>
      <trkpt lat="44.52808" lon="0.75573">
        <ele>115.5</ele>
        <time>2014-7-5T10:7:38.000Z</time>
      </trkpt>
      <trkpt lat="44.52811" lon="0.7557">
        <ele>114.5</ele>
        <time>2014-7-5T10:7:38.000Z</time>
      </trkpt>
      <trkpt lat="44.52811" lon="0.7557">
        <ele>114.5</ele>
        <time>2014-7-5T10:7:38.000Z</time>
      </trkpt>
      <trkpt lat="44.52815" lon="0.75566">
        <ele>114.5</ele>
        <time>2014-7-5T10:7:38.000Z</time>
      </trkpt>
      <trkpt lat="44.52815" lon="0.75566">
        <ele>114.5</ele>
        <time>2014-7-5T10:7:38.000Z</time>
      </trkpt>
      <trkpt lat="44.52818" lon="0.75562">
        <ele>114.5</ele>
        <time>2014-7-5T10:7:38.000Z</time>
      </trkpt>
      <trkpt lat="44.52818" lon="0.75562">
        <ele>114.5</ele>
        <time>2014-7-5T10:7:38.000Z</time>
      </trkpt>
      <trkpt lat="44.52821" lon="0.75557">
        <ele>114.5</ele>
        <time>2014-7-5T10:7:38.000Z</time>
      </trkpt>
      <trkpt lat="44.52821" lon="0.75557">
        <ele>114.5</ele>
        <time>2014-7-5T10:7:38.000Z</time>
      </trkpt>
      <trkpt lat="44.52824" lon="0.7555">
        <ele>114.5</ele>
        <time>2014-7-5T10:7:38.000Z</time>
      </trkpt>
      <trkpt lat="44.52824" lon="0.7555">
        <ele>114.5</ele>
        <time>2014-7-5T10:7:38.000Z</time>
      </trkpt>
      <trkpt lat="44.52827" lon="0.75546">
        <ele>114.5</ele>
        <time>2014-7-5T10:7:38.000Z</time>
      </trkpt>
      <trkpt lat="44.52827" lon="0.75546">
        <ele>114.5</ele>
        <time>2014-7-5T10:7:38.000Z</time>
      </trkpt>
      <trkpt lat="44.5283" lon="0.75539">
        <ele>114.5</ele>
        <time>2014-7-5T10:7:38.000Z</time>
      </trkpt>
      <trkpt lat="44.5283" lon="0.75539">
        <ele>114.5</ele>
        <time>2014-7-5T10:7:38.000Z</time>
      </trkpt>
      <trkpt lat="44.52833" lon="0.75532">
        <ele>114.5</ele>
        <time>2014-7-5T10:7:38.000Z</time>
      </trkpt>
      <trkpt lat="44.52833" lon="0.75532">
        <ele>114.5</ele>
        <time>2014-7-5T10:7:38.000Z</time>
      </trkpt>
      <trkpt lat="44.52836" lon="0.75526">
        <ele>114.5</ele>
        <time>2014-7-5T10:7:38.000Z</time>
      </trkpt>
      <trkpt lat="44.52836" lon="0.75526">
        <ele>114.5</ele>
        <time>2014-7-5T10:7:38.000Z</time>
      </trkpt>
      <trkpt lat="44.52839" lon="0.7552">
        <ele>114.5</ele>
        <time>2014-7-5T10:7:38.000Z</time>
      </trkpt>
      <trkpt lat="44.52839" lon="0.7552">
        <ele>114.5</ele>
        <time>2014-7-5T10:7:38.000Z</time>
      </trkpt>
      <trkpt lat="44.52842" lon="0.75514">
        <ele>114.5</ele>
        <time>2014-7-5T10:7:38.000Z</time>
      </trkpt>
      <trkpt lat="44.52842" lon="0.75514">
        <ele>114.5</ele>
        <time>2014-7-5T10:7:38.000Z</time>
      </trkpt>
      <trkpt lat="44.52846" lon="0.75509">
        <ele>114.5</ele>
        <time>2014-7-5T10:7:38.000Z</time>
      </trkpt>
      <trkpt lat="44.52846" lon="0.75509">
        <ele>114.5</ele>
        <time>2014-7-5T10:7:38.000Z</time>
      </trkpt>
      <trkpt lat="44.52847" lon="0.75501">
        <ele>114.5</ele>
        <time>2014-7-5T10:7:38.000Z</time>
      </trkpt>
      <trkpt lat="44.52847" lon="0.75501">
        <ele>114.5</ele>
        <time>2014-7-5T10:7:38.000Z</time>
      </trkpt>
      <trkpt lat="44.52849" lon="0.75495">
        <ele>114.5</ele>
        <time>2014-7-5T10:7:38.000Z</time>
      </trkpt>
      <trkpt lat="44.52849" lon="0.75495">
        <ele>114.5</ele>
        <time>2014-7-5T10:7:38.000Z</time>
      </trkpt>
      <trkpt lat="44.52851" lon="0.75487">
        <ele>113.5</ele>
        <time>2014-7-5T10:7:38.000Z</time>
      </trkpt>
      <trkpt lat="44.52851" lon="0.75487">
        <ele>113.5</ele>
        <time>2014-7-5T10:7:38.000Z</time>
      </trkpt>
      <trkpt lat="44.52853" lon="0.7548">
        <ele>113.5</ele>
        <time>2014-7-5T10:7:38.000Z</time>
      </trkpt>
      <trkpt lat="44.52853" lon="0.7548">
        <ele>113.5</ele>
        <time>2014-7-5T10:7:38.000Z</time>
      </trkpt>
      <trkpt lat="44.52855" lon="0.75473">
        <ele>113.5</ele>
        <time>2014-7-5T10:7:38.000Z</time>
      </trkpt>
      <trkpt lat="44.52855" lon="0.75473">
        <ele>113.5</ele>
        <time>2014-7-5T10:7:38.000Z</time>
      </trkpt>
      <trkpt lat="44.52856" lon="0.75465">
        <ele>112.5</ele>
        <time>2014-7-5T10:7:38.000Z</time>
      </trkpt>
      <trkpt lat="44.52856" lon="0.75465">
        <ele>112.5</ele>
        <time>2014-7-5T10:7:38.000Z</time>
      </trkpt>
      <trkpt lat="44.52857" lon="0.75458">
        <ele>112.5</ele>
        <time>2014-7-5T10:7:38.000Z</time>
      </trkpt>
      <trkpt lat="44.52857" lon="0.75458">
        <ele>112.5</ele>
        <time>2014-7-5T10:7:38.000Z</time>
      </trkpt>
      <trkpt lat="44.52857" lon="0.7545">
        <ele>111.5</ele>
        <time>2014-7-5T10:7:38.000Z</time>
      </trkpt>
      <trkpt lat="44.52857" lon="0.7545">
        <ele>111.5</ele>
        <time>2014-7-5T10:7:38.000Z</time>
      </trkpt>
      <trkpt lat="44.52858" lon="0.75442">
        <ele>112.5</ele>
        <time>2014-7-5T10:7:38.000Z</time>
      </trkpt>
      <trkpt lat="44.52858" lon="0.75442">
        <ele>112.5</ele>
        <time>2014-7-5T10:7:38.000Z</time>
      </trkpt>
      <trkpt lat="44.52858" lon="0.75435">
        <ele>111.5</ele>
        <time>2014-7-5T10:7:38.000Z</time>
      </trkpt>
      <trkpt lat="44.52858" lon="0.75435">
        <ele>111.5</ele>
        <time>2014-7-5T10:7:38.000Z</time>
      </trkpt>
      <trkpt lat="44.52859" lon="0.75426">
        <ele>111.5</ele>
        <time>2014-7-5T10:7:38.000Z</time>
      </trkpt>
      <trkpt lat="44.52859" lon="0.75426">
        <ele>111.5</ele>
        <time>2014-7-5T10:7:38.000Z</time>
      </trkpt>
      <trkpt lat="44.52859" lon="0.75419">
        <ele>111.5</ele>
        <time>2014-7-5T10:7:38.000Z</time>
      </trkpt>
      <trkpt lat="44.52859" lon="0.75419">
        <ele>111.5</ele>
        <time>2014-7-5T10:7:38.000Z</time>
      </trkpt>
      <trkpt lat="44.52859" lon="0.75411">
        <ele>111.5</ele>
        <time>2014-7-5T10:7:38.000Z</time>
      </trkpt>
      <trkpt lat="44.52859" lon="0.75411">
        <ele>111.5</ele>
        <time>2014-7-5T10:7:38.000Z</time>
      </trkpt>
      <trkpt lat="44.5286" lon="0.75402">
        <ele>110.5</ele>
        <time>2014-7-5T10:7:38.000Z</time>
      </trkpt>
      <trkpt lat="44.5286" lon="0.75402">
        <ele>110.5</ele>
        <time>2014-7-5T10:7:38.000Z</time>
      </trkpt>
      <trkpt lat="44.5286" lon="0.75396">
        <ele>110.5</ele>
        <time>2014-7-5T10:7:38.000Z</time>
      </trkpt>
      <trkpt lat="44.5286" lon="0.75396">
        <ele>110.5</ele>
        <time>2014-7-5T10:7:38.000Z</time>
      </trkpt>
      <trkpt lat="44.52862" lon="0.75388">
        <ele>109.5</ele>
        <time>2014-7-5T10:7:38.000Z</time>
      </trkpt>
      <trkpt lat="44.52862" lon="0.75388">
        <ele>109.5</ele>
        <time>2014-7-5T10:7:38.000Z</time>
      </trkpt>
      <trkpt lat="44.52863" lon="0.7538">
        <ele>109.5</ele>
        <time>2014-7-5T10:8:29.000Z</time>
      </trkpt>
      <trkpt lat="44.52863" lon="0.7538">
        <ele>109.5</ele>
        <time>2014-7-5T10:8:29.000Z</time>
      </trkpt>
      <trkpt lat="44.52865" lon="0.75374">
        <ele>109.5</ele>
        <time>2014-7-5T10:8:29.000Z</time>
      </trkpt>
      <trkpt lat="44.52865" lon="0.75374">
        <ele>109.5</ele>
        <time>2014-7-5T10:8:29.000Z</time>
      </trkpt>
      <trkpt lat="44.52865" lon="0.75366">
        <ele>108.5</ele>
        <time>2014-7-5T10:8:29.000Z</time>
      </trkpt>
      <trkpt lat="44.52865" lon="0.75366">
        <ele>108.5</ele>
        <time>2014-7-5T10:8:29.000Z</time>
      </trkpt>
      <trkpt lat="44.52866" lon="0.75358">
        <ele>108.5</ele>
        <time>2014-7-5T10:8:29.000Z</time>
      </trkpt>
      <trkpt lat="44.52866" lon="0.75358">
        <ele>108.5</ele>
        <time>2014-7-5T10:8:29.000Z</time>
      </trkpt>
      <trkpt lat="44.52868" lon="0.75351">
        <ele>108.5</ele>
        <time>2014-7-5T10:8:29.000Z</time>
      </trkpt>
      <trkpt lat="44.52868" lon="0.75351">
        <ele>108.5</ele>
        <time>2014-7-5T10:8:29.000Z</time>
      </trkpt>
      <trkpt lat="44.52869" lon="0.75344">
        <ele>108.5</ele>
        <time>2014-7-5T10:8:29.000Z</time>
      </trkpt>
      <trkpt lat="44.52869" lon="0.75344">
        <ele>108.5</ele>
        <time>2014-7-5T10:8:29.000Z</time>
      </trkpt>
      <trkpt lat="44.52871" lon="0.75338">
        <ele>108.5</ele>
        <time>2014-7-5T10:8:29.000Z</time>
      </trkpt>
      <trkpt lat="44.52871" lon="0.75338">
        <ele>108.5</ele>
        <time>2014-7-5T10:8:29.000Z</time>
      </trkpt>
      <trkpt lat="44.52871" lon="0.75331">
        <ele>108.5</ele>
        <time>2014-7-5T10:8:29.000Z</time>
      </trkpt>
      <trkpt lat="44.52871" lon="0.75331">
        <ele>108.5</ele>
        <time>2014-7-5T10:8:29.000Z</time>
      </trkpt>
      <trkpt lat="44.52869" lon="0.75324">
        <ele>108.5</ele>
        <time>2014-7-5T10:8:29.000Z</time>
      </trkpt>
      <trkpt lat="44.52869" lon="0.75324">
        <ele>108.5</ele>
        <time>2014-7-5T10:8:29.000Z</time>
      </trkpt>
      <trkpt lat="44.52867" lon="0.75318">
        <ele>108.5</ele>
        <time>2014-7-5T10:8:29.000Z</time>
      </trkpt>
      <trkpt lat="44.52867" lon="0.75318">
        <ele>108.5</ele>
        <time>2014-7-5T10:8:29.000Z</time>
      </trkpt>
      <trkpt lat="44.52866" lon="0.75311">
        <ele>108.5</ele>
        <time>2014-7-5T10:8:29.000Z</time>
      </trkpt>
      <trkpt lat="44.52866" lon="0.75311">
        <ele>108.5</ele>
        <time>2014-7-5T10:8:29.000Z</time>
      </trkpt>
      <trkpt lat="44.52864" lon="0.75306">
        <ele>108.5</ele>
        <time>2014-7-5T10:8:29.000Z</time>
      </trkpt>
      <trkpt lat="44.52864" lon="0.75306">
        <ele>108.5</ele>
        <time>2014-7-5T10:8:29.000Z</time>
      </trkpt>
      <trkpt lat="44.52863" lon="0.75299">
        <ele>108.5</ele>
        <time>2014-7-5T10:8:29.000Z</time>
      </trkpt>
      <trkpt lat="44.52863" lon="0.75299">
        <ele>108.5</ele>
        <time>2014-7-5T10:8:29.000Z</time>
      </trkpt>
      <trkpt lat="44.52864" lon="0.75292">
        <ele>107.5</ele>
        <time>2014-7-5T10:8:29.000Z</time>
      </trkpt>
      <trkpt lat="44.52864" lon="0.75292">
        <ele>107.5</ele>
        <time>2014-7-5T10:8:29.000Z</time>
      </trkpt>
      <trkpt lat="44.52865" lon="0.75286">
        <ele>107.5</ele>
        <time>2014-7-5T10:8:29.000Z</time>
      </trkpt>
      <trkpt lat="44.52865" lon="0.75286">
        <ele>107.5</ele>
        <time>2014-7-5T10:8:29.000Z</time>
      </trkpt>
      <trkpt lat="44.52866" lon="0.75279">
        <ele>108.5</ele>
        <time>2014-7-5T10:8:29.000Z</time>
      </trkpt>
      <trkpt lat="44.52866" lon="0.75279">
        <ele>108.5</ele>
        <time>2014-7-5T10:8:29.000Z</time>
      </trkpt>
      <trkpt lat="44.52868" lon="0.75271">
        <ele>108.5</ele>
        <time>2014-7-5T10:8:29.000Z</time>
      </trkpt>
      <trkpt lat="44.52868" lon="0.75271">
        <ele>108.5</ele>
        <time>2014-7-5T10:8:29.000Z</time>
      </trkpt>
      <trkpt lat="44.52869" lon="0.75266">
        <ele>108.5</ele>
        <time>2014-7-5T10:8:29.000Z</time>
      </trkpt>
      <trkpt lat="44.52869" lon="0.75266">
        <ele>108.5</ele>
        <time>2014-7-5T10:8:29.000Z</time>
      </trkpt>
      <trkpt lat="44.52872" lon="0.75259">
        <ele>108.5</ele>
        <time>2014-7-5T10:8:29.000Z</time>
      </trkpt>
      <trkpt lat="44.52872" lon="0.75259">
        <ele>108.5</ele>
        <time>2014-7-5T10:8:29.000Z</time>
      </trkpt>
      <trkpt lat="44.52874" lon="0.75254">
        <ele>109.5</ele>
        <time>2014-7-5T10:8:29.000Z</time>
      </trkpt>
      <trkpt lat="44.52874" lon="0.75254">
        <ele>109.5</ele>
        <time>2014-7-5T10:8:29.000Z</time>
      </trkpt>
      <trkpt lat="44.52877" lon="0.75248">
        <ele>109.5</ele>
        <time>2014-7-5T10:8:29.000Z</time>
      </trkpt>
      <trkpt lat="44.52877" lon="0.75248">
        <ele>109.5</ele>
        <time>2014-7-5T10:8:29.000Z</time>
      </trkpt>
      <trkpt lat="44.5288" lon="0.75242">
        <ele>109.5</ele>
        <time>2014-7-5T10:8:29.000Z</time>
      </trkpt>
      <trkpt lat="44.5288" lon="0.75242">
        <ele>109.5</ele>
        <time>2014-7-5T10:8:29.000Z</time>
      </trkpt>
      <trkpt lat="44.52883" lon="0.75235">
        <ele>108.5</ele>
        <time>2014-7-5T10:8:29.000Z</time>
      </trkpt>
      <trkpt lat="44.52883" lon="0.75235">
        <ele>108.5</ele>
        <time>2014-7-5T10:8:29.000Z</time>
      </trkpt>
      <trkpt lat="44.52886" lon="0.7523">
        <ele>108.5</ele>
        <time>2014-7-5T10:8:29.000Z</time>
      </trkpt>
      <trkpt lat="44.52886" lon="0.7523">
        <ele>108.5</ele>
        <time>2014-7-5T10:8:29.000Z</time>
      </trkpt>
      <trkpt lat="44.5289" lon="0.75224">
        <ele>109.5</ele>
        <time>2014-7-5T10:8:29.000Z</time>
      </trkpt>
      <trkpt lat="44.5289" lon="0.75224">
        <ele>109.5</ele>
        <time>2014-7-5T10:8:29.000Z</time>
      </trkpt>
      <trkpt lat="44.52894" lon="0.75218">
        <ele>109.5</ele>
        <time>2014-7-5T10:8:29.000Z</time>
      </trkpt>
      <trkpt lat="44.52894" lon="0.75218">
        <ele>109.5</ele>
        <time>2014-7-5T10:8:29.000Z</time>
      </trkpt>
      <trkpt lat="44.52898" lon="0.75212">
        <ele>108.5</ele>
        <time>2014-7-5T10:8:29.000Z</time>
      </trkpt>
      <trkpt lat="44.52898" lon="0.75212">
        <ele>108.5</ele>
        <time>2014-7-5T10:8:29.000Z</time>
      </trkpt>
      <trkpt lat="44.52902" lon="0.75206">
        <ele>108.5</ele>
        <time>2014-7-5T10:8:29.000Z</time>
      </trkpt>
      <trkpt lat="44.52902" lon="0.75206">
        <ele>108.5</ele>
        <time>2014-7-5T10:8:29.000Z</time>
      </trkpt>
      <trkpt lat="44.52906" lon="0.752">
        <ele>108.5</ele>
        <time>2014-7-5T10:8:29.000Z</time>
      </trkpt>
      <trkpt lat="44.52906" lon="0.752">
        <ele>108.5</ele>
        <time>2014-7-5T10:8:29.000Z</time>
      </trkpt>
      <trkpt lat="44.5291" lon="0.75194">
        <ele>108.5</ele>
        <time>2014-7-5T10:8:29.000Z</time>
      </trkpt>
      <trkpt lat="44.5291" lon="0.75194">
        <ele>108.5</ele>
        <time>2014-7-5T10:8:29.000Z</time>
      </trkpt>
      <trkpt lat="44.52913" lon="0.75188">
        <ele>108.5</ele>
        <time>2014-7-5T10:8:29.000Z</time>
      </trkpt>
      <trkpt lat="44.52913" lon="0.75188">
        <ele>108.5</ele>
        <time>2014-7-5T10:8:29.000Z</time>
      </trkpt>
      <trkpt lat="44.52917" lon="0.75182">
        <ele>108.5</ele>
        <time>2014-7-5T10:8:29.000Z</time>
      </trkpt>
      <trkpt lat="44.52917" lon="0.75182">
        <ele>108.5</ele>
        <time>2014-7-5T10:8:29.000Z</time>
      </trkpt>
      <trkpt lat="44.5292" lon="0.75175">
        <ele>108.5</ele>
        <time>2014-7-5T10:8:29.000Z</time>
      </trkpt>
      <trkpt lat="44.5292" lon="0.75175">
        <ele>108.5</ele>
        <time>2014-7-5T10:8:29.000Z</time>
      </trkpt>
      <trkpt lat="44.52924" lon="0.7517">
        <ele>109.5</ele>
        <time>2014-7-5T10:8:29.000Z</time>
      </trkpt>
      <trkpt lat="44.52924" lon="0.7517">
        <ele>109.5</ele>
        <time>2014-7-5T10:8:29.000Z</time>
      </trkpt>
      <trkpt lat="44.52927" lon="0.75162">
        <ele>108.5</ele>
        <time>2014-7-5T10:8:29.000Z</time>
      </trkpt>
      <trkpt lat="44.52927" lon="0.75162">
        <ele>108.5</ele>
        <time>2014-7-5T10:8:29.000Z</time>
      </trkpt>
      <trkpt lat="44.52931" lon="0.75157">
        <ele>109.5</ele>
        <time>2014-7-5T10:8:29.000Z</time>
      </trkpt>
      <trkpt lat="44.52931" lon="0.75157">
        <ele>109.5</ele>
        <time>2014-7-5T10:8:29.000Z</time>
      </trkpt>
      <trkpt lat="44.52935" lon="0.75151">
        <ele>109.5</ele>
        <time>2014-7-5T10:8:29.000Z</time>
      </trkpt>
      <trkpt lat="44.52935" lon="0.75151">
        <ele>109.5</ele>
        <time>2014-7-5T10:8:29.000Z</time>
      </trkpt>
      <trkpt lat="44.52939" lon="0.75145">
        <ele>109.5</ele>
        <time>2014-7-5T10:8:29.000Z</time>
      </trkpt>
      <trkpt lat="44.52939" lon="0.75145">
        <ele>109.5</ele>
        <time>2014-7-5T10:8:29.000Z</time>
      </trkpt>
      <trkpt lat="44.52942" lon="0.75139">
        <ele>109.5</ele>
        <time>2014-7-5T10:8:29.000Z</time>
      </trkpt>
      <trkpt lat="44.52942" lon="0.75139">
        <ele>109.5</ele>
        <time>2014-7-5T10:8:29.000Z</time>
      </trkpt>
      <trkpt lat="44.52946" lon="0.75134">
        <ele>111.5</ele>
        <time>2014-7-5T10:8:29.000Z</time>
      </trkpt>
      <trkpt lat="44.52946" lon="0.75134">
        <ele>111.5</ele>
        <time>2014-7-5T10:8:29.000Z</time>
      </trkpt>
      <trkpt lat="44.5295" lon="0.75128">
        <ele>111.5</ele>
        <time>2014-7-5T10:8:29.000Z</time>
      </trkpt>
      <trkpt lat="44.5295" lon="0.75128">
        <ele>111.5</ele>
        <time>2014-7-5T10:8:29.000Z</time>
      </trkpt>
      <trkpt lat="44.52952" lon="0.75122">
        <ele>111.5</ele>
        <time>2014-7-5T10:8:29.000Z</time>
      </trkpt>
      <trkpt lat="44.52952" lon="0.75122">
        <ele>111.5</ele>
        <time>2014-7-5T10:8:29.000Z</time>
      </trkpt>
      <trkpt lat="44.52952" lon="0.75115">
        <ele>110.5</ele>
        <time>2014-7-5T10:8:29.000Z</time>
      </trkpt>
      <trkpt lat="44.52952" lon="0.75115">
        <ele>110.5</ele>
        <time>2014-7-5T10:8:29.000Z</time>
      </trkpt>
      <trkpt lat="44.52953" lon="0.75108">
        <ele>112.5</ele>
        <time>2014-7-5T10:8:29.000Z</time>
      </trkpt>
      <trkpt lat="44.52953" lon="0.75108">
        <ele>112.5</ele>
        <time>2014-7-5T10:8:29.000Z</time>
      </trkpt>
      <trkpt lat="44.52951" lon="0.751">
        <ele>109.5</ele>
        <time>2014-7-5T10:8:29.000Z</time>
      </trkpt>
      <trkpt lat="44.52951" lon="0.751">
        <ele>109.5</ele>
        <time>2014-7-5T10:8:29.000Z</time>
      </trkpt>
      <trkpt lat="44.52951" lon="0.75092">
        <ele>108.5</ele>
        <time>2014-7-5T10:8:29.000Z</time>
      </trkpt>
      <trkpt lat="44.52951" lon="0.75092">
        <ele>108.5</ele>
        <time>2014-7-5T10:8:29.000Z</time>
      </trkpt>
      <trkpt lat="44.52951" lon="0.75086">
        <ele>109.5</ele>
        <time>2014-7-5T10:8:29.000Z</time>
      </trkpt>
      <trkpt lat="44.52951" lon="0.75086">
        <ele>109.5</ele>
        <time>2014-7-5T10:8:29.000Z</time>
      </trkpt>
      <trkpt lat="44.52951" lon="0.7508">
        <ele>109.5</ele>
        <time>2014-7-5T10:8:29.000Z</time>
      </trkpt>
      <trkpt lat="44.52951" lon="0.7508">
        <ele>109.5</ele>
        <time>2014-7-5T10:8:29.000Z</time>
      </trkpt>
      <trkpt lat="44.52952" lon="0.75073">
        <ele>110.5</ele>
        <time>2014-7-5T10:8:29.000Z</time>
      </trkpt>
      <trkpt lat="44.52952" lon="0.75073">
        <ele>110.5</ele>
        <time>2014-7-5T10:8:29.000Z</time>
      </trkpt>
      <trkpt lat="44.52953" lon="0.75067">
        <ele>110.5</ele>
        <time>2014-7-5T10:8:29.000Z</time>
      </trkpt>
      <trkpt lat="44.52953" lon="0.75067">
        <ele>110.5</ele>
        <time>2014-7-5T10:8:29.000Z</time>
      </trkpt>
      <trkpt lat="44.52954" lon="0.7506">
        <ele>111.5</ele>
        <time>2014-7-5T10:8:29.000Z</time>
      </trkpt>
      <trkpt lat="44.52954" lon="0.7506">
        <ele>111.5</ele>
        <time>2014-7-5T10:9:28.000Z</time>
      </trkpt>
      <trkpt lat="44.52954" lon="0.75054">
        <ele>110.5</ele>
        <time>2014-7-5T10:9:28.000Z</time>
      </trkpt>
      <trkpt lat="44.52954" lon="0.75054">
        <ele>110.5</ele>
        <time>2014-7-5T10:9:28.000Z</time>
      </trkpt>
      <trkpt lat="44.52955" lon="0.75048">
        <ele>111.5</ele>
        <time>2014-7-5T10:9:28.000Z</time>
      </trkpt>
      <trkpt lat="44.52955" lon="0.75048">
        <ele>111.5</ele>
        <time>2014-7-5T10:9:28.000Z</time>
      </trkpt>
      <trkpt lat="44.52954" lon="0.75035">
        <ele>111.5</ele>
        <time>2014-7-5T10:9:28.000Z</time>
      </trkpt>
      <trkpt lat="44.52954" lon="0.75035">
        <ele>111.5</ele>
        <time>2014-7-5T10:9:28.000Z</time>
      </trkpt>
      <trkpt lat="44.52954" lon="0.75028">
        <ele>111.5</ele>
        <time>2014-7-5T10:9:28.000Z</time>
      </trkpt>
      <trkpt lat="44.52954" lon="0.75028">
        <ele>111.5</ele>
        <time>2014-7-5T10:9:28.000Z</time>
      </trkpt>
      <trkpt lat="44.52953" lon="0.75021">
        <ele>111.5</ele>
        <time>2014-7-5T10:9:28.000Z</time>
      </trkpt>
      <trkpt lat="44.52953" lon="0.75021">
        <ele>111.5</ele>
        <time>2014-7-5T10:9:28.000Z</time>
      </trkpt>
      <trkpt lat="44.52954" lon="0.75015">
        <ele>111.5</ele>
        <time>2014-7-5T10:9:28.000Z</time>
      </trkpt>
      <trkpt lat="44.52954" lon="0.75015">
        <ele>111.5</ele>
        <time>2014-7-5T10:9:28.000Z</time>
      </trkpt>
      <trkpt lat="44.52954" lon="0.75007">
        <ele>110.5</ele>
        <time>2014-7-5T10:9:28.000Z</time>
      </trkpt>
      <trkpt lat="44.52954" lon="0.75007">
        <ele>110.5</ele>
        <time>2014-7-5T10:9:28.000Z</time>
      </trkpt>
      <trkpt lat="44.52954" lon="0.75">
        <ele>110.5</ele>
        <time>2014-7-5T10:9:28.000Z</time>
      </trkpt>
      <trkpt lat="44.52954" lon="0.75">
        <ele>110.5</ele>
        <time>2014-7-5T10:9:28.000Z</time>
      </trkpt>
      <trkpt lat="44.52955" lon="0.74993">
        <ele>110.5</ele>
        <time>2014-7-5T10:9:28.000Z</time>
      </trkpt>
      <trkpt lat="44.52955" lon="0.74993">
        <ele>110.5</ele>
        <time>2014-7-5T10:9:28.000Z</time>
      </trkpt>
      <trkpt lat="44.52954" lon="0.74985">
        <ele>110.5</ele>
        <time>2014-7-5T10:9:28.000Z</time>
      </trkpt>
      <trkpt lat="44.52954" lon="0.74985">
        <ele>110.5</ele>
        <time>2014-7-5T10:9:28.000Z</time>
      </trkpt>
      <trkpt lat="44.52955" lon="0.74979">
        <ele>110.5</ele>
        <time>2014-7-5T10:9:28.000Z</time>
      </trkpt>
      <trkpt lat="44.52955" lon="0.74979">
        <ele>110.5</ele>
        <time>2014-7-5T10:9:28.000Z</time>
      </trkpt>
      <trkpt lat="44.52957" lon="0.74974">
        <ele>110.5</ele>
        <time>2014-7-5T10:9:28.000Z</time>
      </trkpt>
      <trkpt lat="44.52957" lon="0.74974">
        <ele>110.5</ele>
        <time>2014-7-5T10:9:28.000Z</time>
      </trkpt>
      <trkpt lat="44.52959" lon="0.74968">
        <ele>109.5</ele>
        <time>2014-7-5T10:9:28.000Z</time>
      </trkpt>
      <trkpt lat="44.52959" lon="0.74968">
        <ele>109.5</ele>
        <time>2014-7-5T10:9:28.000Z</time>
      </trkpt>
      <trkpt lat="44.5296" lon="0.74963">
        <ele>109.5</ele>
        <time>2014-7-5T10:9:28.000Z</time>
      </trkpt>
      <trkpt lat="44.5296" lon="0.74963">
        <ele>109.5</ele>
        <time>2014-7-5T10:9:28.000Z</time>
      </trkpt>
      <trkpt lat="44.52962" lon="0.74958">
        <ele>110.5</ele>
        <time>2014-7-5T10:9:28.000Z</time>
      </trkpt>
      <trkpt lat="44.52962" lon="0.74958">
        <ele>110.5</ele>
        <time>2014-7-5T10:9:28.000Z</time>
      </trkpt>
      <trkpt lat="44.52962" lon="0.74954">
        <ele>110.5</ele>
        <time>2014-7-5T10:9:28.000Z</time>
      </trkpt>
      <trkpt lat="44.52962" lon="0.74954">
        <ele>110.5</ele>
        <time>2014-7-5T10:9:28.000Z</time>
      </trkpt>
      <trkpt lat="44.52963" lon="0.74952">
        <ele>110.5</ele>
        <time>2014-7-5T10:9:28.000Z</time>
      </trkpt>
      <trkpt lat="44.52963" lon="0.74952">
        <ele>110.5</ele>
        <time>2014-7-5T10:9:28.000Z</time>
      </trkpt>
      <trkpt lat="44.52965" lon="0.74949">
        <ele>111.5</ele>
        <time>2014-7-5T10:9:28.000Z</time>
      </trkpt>
      <trkpt lat="44.52965" lon="0.74949">
        <ele>111.5</ele>
        <time>2014-7-5T10:9:28.000Z</time>
      </trkpt>
      <trkpt lat="44.52966" lon="0.74945">
        <ele>112.5</ele>
        <time>2014-7-5T10:9:28.000Z</time>
      </trkpt>
      <trkpt lat="44.52966" lon="0.74945">
        <ele>112.5</ele>
        <time>2014-7-5T10:9:28.000Z</time>
      </trkpt>
      <trkpt lat="44.52967" lon="0.74942">
        <ele>111.5</ele>
        <time>2014-7-5T10:9:28.000Z</time>
      </trkpt>
      <trkpt lat="44.52967" lon="0.74942">
        <ele>111.5</ele>
        <time>2014-7-5T10:9:28.000Z</time>
      </trkpt>
      <trkpt lat="44.52967" lon="0.74937">
        <ele>109.5</ele>
        <time>2014-7-5T10:9:28.000Z</time>
      </trkpt>
      <trkpt lat="44.52967" lon="0.74937">
        <ele>109.5</ele>
        <time>2014-7-5T10:9:28.000Z</time>
      </trkpt>
      <trkpt lat="44.52968" lon="0.74932">
        <ele>110.5</ele>
        <time>2014-7-5T10:9:28.000Z</time>
      </trkpt>
      <trkpt lat="44.52968" lon="0.74932">
        <ele>110.5</ele>
        <time>2014-7-5T10:9:28.000Z</time>
      </trkpt>
      <trkpt lat="44.52969" lon="0.7493">
        <ele>110.5</ele>
        <time>2014-7-5T10:9:28.000Z</time>
      </trkpt>
      <trkpt lat="44.52969" lon="0.7493">
        <ele>110.5</ele>
        <time>2014-7-5T10:9:28.000Z</time>
      </trkpt>
      <trkpt lat="44.5297" lon="0.74928">
        <ele>108.5</ele>
        <time>2014-7-5T10:9:28.000Z</time>
      </trkpt>
      <trkpt lat="44.5297" lon="0.74928">
        <ele>108.5</ele>
        <time>2014-7-5T10:9:28.000Z</time>
      </trkpt>
      <trkpt lat="44.52972" lon="0.74926">
        <ele>107.5</ele>
        <time>2014-7-5T10:9:28.000Z</time>
      </trkpt>
      <trkpt lat="44.52972" lon="0.74926">
        <ele>107.5</ele>
        <time>2014-7-5T10:9:28.000Z</time>
      </trkpt>
      <trkpt lat="44.52974" lon="0.74924">
        <ele>107.5</ele>
        <time>2014-7-5T10:9:28.000Z</time>
      </trkpt>
      <trkpt lat="44.52974" lon="0.74924">
        <ele>107.5</ele>
        <time>2014-7-5T10:9:28.000Z</time>
      </trkpt>
      <trkpt lat="44.52973" lon="0.74921">
        <ele>105.5</ele>
        <time>2014-7-5T10:9:28.000Z</time>
      </trkpt>
      <trkpt lat="44.52973" lon="0.74921">
        <ele>105.5</ele>
        <time>2014-7-5T10:9:28.000Z</time>
      </trkpt>
      <trkpt lat="44.52972" lon="0.74917">
        <ele>104.5</ele>
        <time>2014-7-5T10:9:28.000Z</time>
      </trkpt>
      <trkpt lat="44.52972" lon="0.74917">
        <ele>104.5</ele>
        <time>2014-7-5T10:9:28.000Z</time>
      </trkpt>
      <trkpt lat="44.52973" lon="0.74914">
        <ele>103.5</ele>
        <time>2014-7-5T10:9:28.000Z</time>
      </trkpt>
      <trkpt lat="44.52973" lon="0.74914">
        <ele>103.5</ele>
        <time>2014-7-5T10:9:28.000Z</time>
      </trkpt>
      <trkpt lat="44.52975" lon="0.74912">
        <ele>103.5</ele>
        <time>2014-7-5T10:9:28.000Z</time>
      </trkpt>
      <trkpt lat="44.52975" lon="0.74912">
        <ele>103.5</ele>
        <time>2014-7-5T10:9:28.000Z</time>
      </trkpt>
      <trkpt lat="44.52977" lon="0.7491">
        <ele>101.5</ele>
        <time>2014-7-5T10:9:28.000Z</time>
      </trkpt>
      <trkpt lat="44.52977" lon="0.7491">
        <ele>101.5</ele>
        <time>2014-7-5T10:9:28.000Z</time>
      </trkpt>
      <trkpt lat="44.52979" lon="0.74909">
        <ele>101.5</ele>
        <time>2014-7-5T10:9:28.000Z</time>
      </trkpt>
      <trkpt lat="44.52979" lon="0.74909">
        <ele>101.5</ele>
        <time>2014-7-5T10:9:28.000Z</time>
      </trkpt>
      <trkpt lat="44.52983" lon="0.74908">
        <ele>101.5</ele>
        <time>2014-7-5T10:9:28.000Z</time>
      </trkpt>
      <trkpt lat="44.52983" lon="0.74908">
        <ele>101.5</ele>
        <time>2014-7-5T10:9:28.000Z</time>
      </trkpt>
      <trkpt lat="44.52986" lon="0.74907">
        <ele>100.5</ele>
        <time>2014-7-5T10:9:28.000Z</time>
      </trkpt>
      <trkpt lat="44.52986" lon="0.74907">
        <ele>100.5</ele>
        <time>2014-7-5T10:9:28.000Z</time>
      </trkpt>
      <trkpt lat="44.5299" lon="0.74905">
        <ele>99.5</ele>
        <time>2014-7-5T10:9:28.000Z</time>
      </trkpt>
      <trkpt lat="44.5299" lon="0.74905">
        <ele>99.5</ele>
        <time>2014-7-5T10:9:28.000Z</time>
      </trkpt>
      <trkpt lat="44.52993" lon="0.74902">
        <ele>99.5</ele>
        <time>2014-7-5T10:9:28.000Z</time>
      </trkpt>
      <trkpt lat="44.52993" lon="0.74902">
        <ele>99.5</ele>
        <time>2014-7-5T10:9:28.000Z</time>
      </trkpt>
      <trkpt lat="44.52996" lon="0.749">
        <ele>99.5</ele>
        <time>2014-7-5T10:9:28.000Z</time>
      </trkpt>
      <trkpt lat="44.52996" lon="0.749">
        <ele>99.5</ele>
        <time>2014-7-5T10:9:28.000Z</time>
      </trkpt>
      <trkpt lat="44.52998" lon="0.74896">
        <ele>100.5</ele>
        <time>2014-7-5T10:9:28.000Z</time>
      </trkpt>
      <trkpt lat="44.52998" lon="0.74896">
        <ele>100.5</ele>
        <time>2014-7-5T10:9:28.000Z</time>
      </trkpt>
      <trkpt lat="44.53" lon="0.74892">
        <ele>99.5</ele>
        <time>2014-7-5T10:9:28.000Z</time>
      </trkpt>
      <trkpt lat="44.53" lon="0.74892">
        <ele>99.5</ele>
        <time>2014-7-5T10:9:28.000Z</time>
      </trkpt>
      <trkpt lat="44.53001" lon="0.74887">
        <ele>99.5</ele>
        <time>2014-7-5T10:9:28.000Z</time>
      </trkpt>
      <trkpt lat="44.53001" lon="0.74887">
        <ele>99.5</ele>
        <time>2014-7-5T10:9:28.000Z</time>
      </trkpt>
      <trkpt lat="44.53003" lon="0.74881">
        <ele>100.5</ele>
        <time>2014-7-5T10:9:28.000Z</time>
      </trkpt>
      <trkpt lat="44.53003" lon="0.74881">
        <ele>100.5</ele>
        <time>2014-7-5T10:9:28.000Z</time>
      </trkpt>
      <trkpt lat="44.53003" lon="0.74875">
        <ele>100.5</ele>
        <time>2014-7-5T10:9:28.000Z</time>
      </trkpt>
      <trkpt lat="44.53003" lon="0.74875">
        <ele>100.5</ele>
        <time>2014-7-5T10:9:28.000Z</time>
      </trkpt>
      <trkpt lat="44.53003" lon="0.74868">
        <ele>99.5</ele>
        <time>2014-7-5T10:9:28.000Z</time>
      </trkpt>
      <trkpt lat="44.53003" lon="0.74868">
        <ele>99.5</ele>
        <time>2014-7-5T10:9:28.000Z</time>
      </trkpt>
      <trkpt lat="44.53003" lon="0.74861">
        <ele>99.5</ele>
        <time>2014-7-5T10:9:28.000Z</time>
      </trkpt>
      <trkpt lat="44.53003" lon="0.74861">
        <ele>99.5</ele>
        <time>2014-7-5T10:9:28.000Z</time>
      </trkpt>
      <trkpt lat="44.53002" lon="0.74855">
        <ele>99.5</ele>
        <time>2014-7-5T10:9:28.000Z</time>
      </trkpt>
      <trkpt lat="44.53002" lon="0.74855">
        <ele>99.5</ele>
        <time>2014-7-5T10:9:28.000Z</time>
      </trkpt>
      <trkpt lat="44.53" lon="0.74845">
        <ele>98.5</ele>
        <time>2014-7-5T10:9:28.000Z</time>
      </trkpt>
      <trkpt lat="44.53" lon="0.74845">
        <ele>98.5</ele>
        <time>2014-7-5T10:9:28.000Z</time>
      </trkpt>
      <trkpt lat="44.53002" lon="0.74839">
        <ele>98.5</ele>
        <time>2014-7-5T10:9:28.000Z</time>
      </trkpt>
      <trkpt lat="44.53002" lon="0.74839">
        <ele>98.5</ele>
        <time>2014-7-5T10:9:28.000Z</time>
      </trkpt>
      <trkpt lat="44.53001" lon="0.74832">
        <ele>98.5</ele>
        <time>2014-7-5T10:9:28.000Z</time>
      </trkpt>
      <trkpt lat="44.53001" lon="0.74832">
        <ele>98.5</ele>
        <time>2014-7-5T10:9:28.000Z</time>
      </trkpt>
      <trkpt lat="44.53001" lon="0.74826">
        <ele>98.5</ele>
        <time>2014-7-5T10:9:28.000Z</time>
      </trkpt>
      <trkpt lat="44.53001" lon="0.74826">
        <ele>98.5</ele>
        <time>2014-7-5T10:9:28.000Z</time>
      </trkpt>
      <trkpt lat="44.52997" lon="0.74822">
        <ele>98.5</ele>
        <time>2014-7-5T10:9:28.000Z</time>
      </trkpt>
      <trkpt lat="44.52997" lon="0.74822">
        <ele>98.5</ele>
        <time>2014-7-5T10:9:28.000Z</time>
      </trkpt>
      <trkpt lat="44.52996" lon="0.74817">
        <ele>98.5</ele>
        <time>2014-7-5T10:10:30.000Z</time>
      </trkpt>
      <trkpt lat="44.52996" lon="0.74817">
        <ele>98.5</ele>
        <time>2014-7-5T10:10:30.000Z</time>
      </trkpt>
      <trkpt lat="44.52995" lon="0.74813">
        <ele>98.5</ele>
        <time>2014-7-5T10:10:30.000Z</time>
      </trkpt>
      <trkpt lat="44.52995" lon="0.74813">
        <ele>98.5</ele>
        <time>2014-7-5T10:10:30.000Z</time>
      </trkpt>
      <trkpt lat="44.52996" lon="0.74807">
        <ele>97.5</ele>
        <time>2014-7-5T10:10:30.000Z</time>
      </trkpt>
      <trkpt lat="44.52996" lon="0.74807">
        <ele>97.5</ele>
        <time>2014-7-5T10:10:30.000Z</time>
      </trkpt>
      <trkpt lat="44.52998" lon="0.74804">
        <ele>97.5</ele>
        <time>2014-7-5T10:10:30.000Z</time>
      </trkpt>
      <trkpt lat="44.52998" lon="0.74804">
        <ele>97.5</ele>
        <time>2014-7-5T10:10:30.000Z</time>
      </trkpt>
      <trkpt lat="44.52998" lon="0.74801">
        <ele>97.5</ele>
        <time>2014-7-5T10:10:30.000Z</time>
      </trkpt>
      <trkpt lat="44.52998" lon="0.74801">
        <ele>97.5</ele>
        <time>2014-7-5T10:10:30.000Z</time>
      </trkpt>
      <trkpt lat="44.53" lon="0.74798">
        <ele>97.5</ele>
        <time>2014-7-5T10:10:30.000Z</time>
      </trkpt>
      <trkpt lat="44.53" lon="0.74798">
        <ele>97.5</ele>
        <time>2014-7-5T10:10:30.000Z</time>
      </trkpt>
      <trkpt lat="44.53001" lon="0.74796">
        <ele>96.5</ele>
        <time>2014-7-5T10:10:30.000Z</time>
      </trkpt>
      <trkpt lat="44.53001" lon="0.74796">
        <ele>96.5</ele>
        <time>2014-7-5T10:10:30.000Z</time>
      </trkpt>
      <trkpt lat="44.53002" lon="0.74793">
        <ele>94.5</ele>
        <time>2014-7-5T10:10:30.000Z</time>
      </trkpt>
      <trkpt lat="44.53002" lon="0.74793">
        <ele>94.5</ele>
        <time>2014-7-5T10:10:30.000Z</time>
      </trkpt>
      <trkpt lat="44.53003" lon="0.74789">
        <ele>96.5</ele>
        <time>2014-7-5T10:10:30.000Z</time>
      </trkpt>
      <trkpt lat="44.53003" lon="0.74789">
        <ele>96.5</ele>
        <time>2014-7-5T10:10:30.000Z</time>
      </trkpt>
      <trkpt lat="44.53003" lon="0.74782">
        <ele>97.5</ele>
        <time>2014-7-5T10:10:30.000Z</time>
      </trkpt>
      <trkpt lat="44.53003" lon="0.74782">
        <ele>97.5</ele>
        <time>2014-7-5T10:10:30.000Z</time>
      </trkpt>
      <trkpt lat="44.53002" lon="0.74774">
        <ele>97.5</ele>
        <time>2014-7-5T10:10:30.000Z</time>
      </trkpt>
      <trkpt lat="44.53002" lon="0.74774">
        <ele>97.5</ele>
        <time>2014-7-5T10:10:30.000Z</time>
      </trkpt>
      <trkpt lat="44.53" lon="0.74763">
        <ele>98.5</ele>
        <time>2014-7-5T10:10:30.000Z</time>
      </trkpt>
      <trkpt lat="44.53" lon="0.74763">
        <ele>98.5</ele>
        <time>2014-7-5T10:10:30.000Z</time>
      </trkpt>
      <trkpt lat="44.52999" lon="0.74754">
        <ele>99.5</ele>
        <time>2014-7-5T10:10:30.000Z</time>
      </trkpt>
      <trkpt lat="44.52999" lon="0.74754">
        <ele>99.5</ele>
        <time>2014-7-5T10:10:30.000Z</time>
      </trkpt>
      <trkpt lat="44.52999" lon="0.74746">
        <ele>99.5</ele>
        <time>2014-7-5T10:10:30.000Z</time>
      </trkpt>
      <trkpt lat="44.52999" lon="0.74746">
        <ele>99.5</ele>
        <time>2014-7-5T10:10:30.000Z</time>
      </trkpt>
      <trkpt lat="44.52997" lon="0.74737">
        <ele>99.5</ele>
        <time>2014-7-5T10:10:30.000Z</time>
      </trkpt>
      <trkpt lat="44.52997" lon="0.74737">
        <ele>99.5</ele>
        <time>2014-7-5T10:10:30.000Z</time>
      </trkpt>
      <trkpt lat="44.52995" lon="0.74731">
        <ele>99.5</ele>
        <time>2014-7-5T10:10:30.000Z</time>
      </trkpt>
      <trkpt lat="44.52995" lon="0.74731">
        <ele>99.5</ele>
        <time>2014-7-5T10:10:30.000Z</time>
      </trkpt>
      <trkpt lat="44.52994" lon="0.74725">
        <ele>100.5</ele>
        <time>2014-7-5T10:10:30.000Z</time>
      </trkpt>
      <trkpt lat="44.52994" lon="0.74725">
        <ele>100.5</ele>
        <time>2014-7-5T10:10:30.000Z</time>
      </trkpt>
      <trkpt lat="44.52991" lon="0.7472">
        <ele>99.5</ele>
        <time>2014-7-5T10:10:30.000Z</time>
      </trkpt>
      <trkpt lat="44.52991" lon="0.7472">
        <ele>99.5</ele>
        <time>2014-7-5T10:10:30.000Z</time>
      </trkpt>
      <trkpt lat="44.52986" lon="0.74712">
        <ele>96.5</ele>
        <time>2014-7-5T10:10:30.000Z</time>
      </trkpt>
      <trkpt lat="44.52986" lon="0.74712">
        <ele>96.5</ele>
        <time>2014-7-5T10:10:30.000Z</time>
      </trkpt>
      <trkpt lat="44.52982" lon="0.74708">
        <ele>96.5</ele>
        <time>2014-7-5T10:10:30.000Z</time>
      </trkpt>
      <trkpt lat="44.52982" lon="0.74708">
        <ele>96.5</ele>
        <time>2014-7-5T10:10:30.000Z</time>
      </trkpt>
      <trkpt lat="44.52978" lon="0.74705">
        <ele>95.5</ele>
        <time>2014-7-5T10:10:30.000Z</time>
      </trkpt>
      <trkpt lat="44.52978" lon="0.74705">
        <ele>95.5</ele>
        <time>2014-7-5T10:10:30.000Z</time>
      </trkpt>
      <trkpt lat="44.52977" lon="0.74703">
        <ele>95.5</ele>
        <time>2014-7-5T10:10:30.000Z</time>
      </trkpt>
      <trkpt lat="44.52977" lon="0.74703">
        <ele>95.5</ele>
        <time>2014-7-5T10:10:30.000Z</time>
      </trkpt>
      <trkpt lat="44.52976" lon="0.74699">
        <ele>98.5</ele>
        <time>2014-7-5T10:10:30.000Z</time>
      </trkpt>
      <trkpt lat="44.52976" lon="0.74699">
        <ele>98.5</ele>
        <time>2014-7-5T10:10:30.000Z</time>
      </trkpt>
      <trkpt lat="44.52976" lon="0.74694">
        <ele>99.5</ele>
        <time>2014-7-5T10:10:30.000Z</time>
      </trkpt>
      <trkpt lat="44.52976" lon="0.74694">
        <ele>99.5</ele>
        <time>2014-7-5T10:10:30.000Z</time>
      </trkpt>
      <trkpt lat="44.52976" lon="0.74691">
        <ele>99.5</ele>
        <time>2014-7-5T10:10:30.000Z</time>
      </trkpt>
      <trkpt lat="44.52976" lon="0.74691">
        <ele>99.5</ele>
        <time>2014-7-5T10:10:30.000Z</time>
      </trkpt>
      <trkpt lat="44.52976" lon="0.74688">
        <ele>100.5</ele>
        <time>2014-7-5T10:10:30.000Z</time>
      </trkpt>
      <trkpt lat="44.52976" lon="0.74688">
        <ele>100.5</ele>
        <time>2014-7-5T10:10:30.000Z</time>
      </trkpt>
      <trkpt lat="44.52975" lon="0.74684">
        <ele>101.5</ele>
        <time>2014-7-5T10:10:30.000Z</time>
      </trkpt>
      <trkpt lat="44.52975" lon="0.74684">
        <ele>101.5</ele>
        <time>2014-7-5T10:10:30.000Z</time>
      </trkpt>
      <trkpt lat="44.52975" lon="0.74681">
        <ele>102.5</ele>
        <time>2014-7-5T10:10:30.000Z</time>
      </trkpt>
      <trkpt lat="44.52975" lon="0.74681">
        <ele>102.5</ele>
        <time>2014-7-5T10:10:30.000Z</time>
      </trkpt>
      <trkpt lat="44.52975" lon="0.74677">
        <ele>102.5</ele>
        <time>2014-7-5T10:10:30.000Z</time>
      </trkpt>
      <trkpt lat="44.52975" lon="0.74677">
        <ele>102.5</ele>
        <time>2014-7-5T10:10:30.000Z</time>
      </trkpt>
      <trkpt lat="44.52975" lon="0.74674">
        <ele>101.5</ele>
        <time>2014-7-5T10:10:30.000Z</time>
      </trkpt>
      <trkpt lat="44.52975" lon="0.74674">
        <ele>101.5</ele>
        <time>2014-7-5T10:10:30.000Z</time>
      </trkpt>
      <trkpt lat="44.52975" lon="0.74671">
        <ele>102.5</ele>
        <time>2014-7-5T10:10:30.000Z</time>
      </trkpt>
      <trkpt lat="44.52975" lon="0.74671">
        <ele>102.5</ele>
        <time>2014-7-5T10:10:30.000Z</time>
      </trkpt>
      <trkpt lat="44.52975" lon="0.74667">
        <ele>102.5</ele>
        <time>2014-7-5T10:10:30.000Z</time>
      </trkpt>
      <trkpt lat="44.52975" lon="0.74667">
        <ele>102.5</ele>
        <time>2014-7-5T10:10:30.000Z</time>
      </trkpt>
      <trkpt lat="44.52975" lon="0.74662">
        <ele>102.5</ele>
        <time>2014-7-5T10:10:30.000Z</time>
      </trkpt>
      <trkpt lat="44.52975" lon="0.74662">
        <ele>102.5</ele>
        <time>2014-7-5T10:10:30.000Z</time>
      </trkpt>
      <trkpt lat="44.52975" lon="0.74657">
        <ele>103.5</ele>
        <time>2014-7-5T10:10:30.000Z</time>
      </trkpt>
      <trkpt lat="44.52975" lon="0.74657">
        <ele>103.5</ele>
        <time>2014-7-5T10:10:30.000Z</time>
      </trkpt>
      <trkpt lat="44.52975" lon="0.74653">
        <ele>104.5</ele>
        <time>2014-7-5T10:10:30.000Z</time>
      </trkpt>
      <trkpt lat="44.52975" lon="0.74653">
        <ele>104.5</ele>
        <time>2014-7-5T10:10:30.000Z</time>
      </trkpt>
      <trkpt lat="44.52976" lon="0.74649">
        <ele>106.5</ele>
        <time>2014-7-5T10:10:30.000Z</time>
      </trkpt>
      <trkpt lat="44.52976" lon="0.74649">
        <ele>106.5</ele>
        <time>2014-7-5T10:10:30.000Z</time>
      </trkpt>
      <trkpt lat="44.52976" lon="0.74642">
        <ele>106.5</ele>
        <time>2014-7-5T10:10:30.000Z</time>
      </trkpt>
      <trkpt lat="44.52976" lon="0.74642">
        <ele>106.5</ele>
        <time>2014-7-5T10:10:30.000Z</time>
      </trkpt>
      <trkpt lat="44.52976" lon="0.74637">
        <ele>105.5</ele>
        <time>2014-7-5T10:10:30.000Z</time>
      </trkpt>
      <trkpt lat="44.52976" lon="0.74637">
        <ele>105.5</ele>
        <time>2014-7-5T10:10:30.000Z</time>
      </trkpt>
      <trkpt lat="44.52975" lon="0.74632">
        <ele>105.5</ele>
        <time>2014-7-5T10:10:30.000Z</time>
      </trkpt>
      <trkpt lat="44.52975" lon="0.74632">
        <ele>105.5</ele>
        <time>2014-7-5T10:10:30.000Z</time>
      </trkpt>
      <trkpt lat="44.52975" lon="0.74626">
        <ele>104.5</ele>
        <time>2014-7-5T10:10:30.000Z</time>
      </trkpt>
      <trkpt lat="44.52975" lon="0.74626">
        <ele>104.5</ele>
        <time>2014-7-5T10:10:30.000Z</time>
      </trkpt>
      <trkpt lat="44.52974" lon="0.7462">
        <ele>105.5</ele>
        <time>2014-7-5T10:10:30.000Z</time>
      </trkpt>
      <trkpt lat="44.52974" lon="0.7462">
        <ele>105.5</ele>
        <time>2014-7-5T10:10:30.000Z</time>
      </trkpt>
      <trkpt lat="44.52974" lon="0.74614">
        <ele>105.5</ele>
        <time>2014-7-5T10:10:30.000Z</time>
      </trkpt>
      <trkpt lat="44.52974" lon="0.74614">
        <ele>105.5</ele>
        <time>2014-7-5T10:10:30.000Z</time>
      </trkpt>
      <trkpt lat="44.52974" lon="0.74608">
        <ele>105.5</ele>
        <time>2014-7-5T10:10:30.000Z</time>
      </trkpt>
      <trkpt lat="44.52974" lon="0.74608">
        <ele>105.5</ele>
        <time>2014-7-5T10:10:30.000Z</time>
      </trkpt>
      <trkpt lat="44.52974" lon="0.74602">
        <ele>104.5</ele>
        <time>2014-7-5T10:10:30.000Z</time>
      </trkpt>
      <trkpt lat="44.52974" lon="0.74602">
        <ele>104.5</ele>
        <time>2014-7-5T10:10:30.000Z</time>
      </trkpt>
      <trkpt lat="44.52975" lon="0.74596">
        <ele>104.5</ele>
        <time>2014-7-5T10:10:30.000Z</time>
      </trkpt>
      <trkpt lat="44.52975" lon="0.74596">
        <ele>104.5</ele>
        <time>2014-7-5T10:10:30.000Z</time>
      </trkpt>
      <trkpt lat="44.52975" lon="0.74591">
        <ele>103.5</ele>
        <time>2014-7-5T10:10:30.000Z</time>
      </trkpt>
      <trkpt lat="44.52975" lon="0.74591">
        <ele>103.5</ele>
        <time>2014-7-5T10:10:30.000Z</time>
      </trkpt>
      <trkpt lat="44.52975" lon="0.74588">
        <ele>103.5</ele>
        <time>2014-7-5T10:10:30.000Z</time>
      </trkpt>
      <trkpt lat="44.52975" lon="0.74588">
        <ele>103.5</ele>
        <time>2014-7-5T10:10:30.000Z</time>
      </trkpt>
      <trkpt lat="44.52974" lon="0.74583">
        <ele>104.5</ele>
        <time>2014-7-5T10:10:30.000Z</time>
      </trkpt>
      <trkpt lat="44.52974" lon="0.74583">
        <ele>104.5</ele>
        <time>2014-7-5T10:10:30.000Z</time>
      </trkpt>
      <trkpt lat="44.52974" lon="0.74579">
        <ele>105.5</ele>
        <time>2014-7-5T10:10:30.000Z</time>
      </trkpt>
      <trkpt lat="44.52974" lon="0.74579">
        <ele>105.5</ele>
        <time>2014-7-5T10:10:30.000Z</time>
      </trkpt>
      <trkpt lat="44.52974" lon="0.74575">
        <ele>107.5</ele>
        <time>2014-7-5T10:10:30.000Z</time>
      </trkpt>
      <trkpt lat="44.52974" lon="0.74575">
        <ele>107.5</ele>
        <time>2014-7-5T10:10:30.000Z</time>
      </trkpt>
      <trkpt lat="44.52974" lon="0.74571">
        <ele>107.5</ele>
        <time>2014-7-5T10:10:30.000Z</time>
      </trkpt>
      <trkpt lat="44.52974" lon="0.74571">
        <ele>107.5</ele>
        <time>2014-7-5T10:12:11.000Z</time>
      </trkpt>
      <trkpt lat="44.52974" lon="0.74567">
        <ele>107.5</ele>
        <time>2014-7-5T10:12:11.000Z</time>
      </trkpt>
      <trkpt lat="44.52974" lon="0.74567">
        <ele>107.5</ele>
        <time>2014-7-5T10:12:11.000Z</time>
      </trkpt>
      <trkpt lat="44.52973" lon="0.74564">
        <ele>107.5</ele>
        <time>2014-7-5T10:12:11.000Z</time>
      </trkpt>
      <trkpt lat="44.52973" lon="0.74564">
        <ele>107.5</ele>
        <time>2014-7-5T10:12:11.000Z</time>
      </trkpt>
      <trkpt lat="44.52972" lon="0.7456">
        <ele>109.5</ele>
        <time>2014-7-5T10:12:11.000Z</time>
      </trkpt>
      <trkpt lat="44.52972" lon="0.7456">
        <ele>109.5</ele>
        <time>2014-7-5T10:12:11.000Z</time>
      </trkpt>
      <trkpt lat="44.52972" lon="0.74558">
        <ele>109.5</ele>
        <time>2014-7-5T10:12:11.000Z</time>
      </trkpt>
      <trkpt lat="44.52972" lon="0.74558">
        <ele>109.5</ele>
        <time>2014-7-5T10:12:11.000Z</time>
      </trkpt>
      <trkpt lat="44.52971" lon="0.74555">
        <ele>105.5</ele>
        <time>2014-7-5T10:12:11.000Z</time>
      </trkpt>
      <trkpt lat="44.52971" lon="0.74555">
        <ele>105.5</ele>
        <time>2014-7-5T10:12:11.000Z</time>
      </trkpt>
      <trkpt lat="44.5297" lon="0.74552">
        <ele>106.5</ele>
        <time>2014-7-5T10:12:11.000Z</time>
      </trkpt>
      <trkpt lat="44.5297" lon="0.74552">
        <ele>106.5</ele>
        <time>2014-7-5T10:12:11.000Z</time>
      </trkpt>
      <trkpt lat="44.5297" lon="0.74548">
        <ele>107.5</ele>
        <time>2014-7-5T10:12:11.000Z</time>
      </trkpt>
      <trkpt lat="44.5297" lon="0.74548">
        <ele>107.5</ele>
        <time>2014-7-5T10:12:11.000Z</time>
      </trkpt>
      <trkpt lat="44.52969" lon="0.74544">
        <ele>106.5</ele>
        <time>2014-7-5T10:12:11.000Z</time>
      </trkpt>
      <trkpt lat="44.52969" lon="0.74544">
        <ele>106.5</ele>
        <time>2014-7-5T10:12:11.000Z</time>
      </trkpt>
      <trkpt lat="44.52969" lon="0.74538">
        <ele>106.5</ele>
        <time>2014-7-5T10:12:11.000Z</time>
      </trkpt>
      <trkpt lat="44.52969" lon="0.74538">
        <ele>106.5</ele>
        <time>2014-7-5T10:12:11.000Z</time>
      </trkpt>
      <trkpt lat="44.52968" lon="0.74533">
        <ele>106.5</ele>
        <time>2014-7-5T10:12:11.000Z</time>
      </trkpt>
      <trkpt lat="44.52968" lon="0.74533">
        <ele>106.5</ele>
        <time>2014-7-5T10:12:11.000Z</time>
      </trkpt>
      <trkpt lat="44.52967" lon="0.74527">
        <ele>107.5</ele>
        <time>2014-7-5T10:12:11.000Z</time>
      </trkpt>
      <trkpt lat="44.52967" lon="0.74527">
        <ele>107.5</ele>
        <time>2014-7-5T10:12:11.000Z</time>
      </trkpt>
      <trkpt lat="44.52967" lon="0.74521">
        <ele>107.5</ele>
        <time>2014-7-5T10:12:11.000Z</time>
      </trkpt>
      <trkpt lat="44.52967" lon="0.74521">
        <ele>107.5</ele>
        <time>2014-7-5T10:12:11.000Z</time>
      </trkpt>
      <trkpt lat="44.52967" lon="0.74516">
        <ele>107.5</ele>
        <time>2014-7-5T10:12:11.000Z</time>
      </trkpt>
      <trkpt lat="44.52967" lon="0.74516">
        <ele>107.5</ele>
        <time>2014-7-5T10:12:11.000Z</time>
      </trkpt>
      <trkpt lat="44.52966" lon="0.74511">
        <ele>107.5</ele>
        <time>2014-7-5T10:12:11.000Z</time>
      </trkpt>
      <trkpt lat="44.52966" lon="0.74511">
        <ele>107.5</ele>
        <time>2014-7-5T10:12:11.000Z</time>
      </trkpt>
      <trkpt lat="44.52966" lon="0.74507">
        <ele>106.5</ele>
        <time>2014-7-5T10:12:11.000Z</time>
      </trkpt>
      <trkpt lat="44.52966" lon="0.74507">
        <ele>106.5</ele>
        <time>2014-7-5T10:12:11.000Z</time>
      </trkpt>
      <trkpt lat="44.52965" lon="0.74504">
        <ele>107.5</ele>
        <time>2014-7-5T10:12:11.000Z</time>
      </trkpt>
      <trkpt lat="44.52965" lon="0.74504">
        <ele>107.5</ele>
        <time>2014-7-5T10:12:11.000Z</time>
      </trkpt>
      <trkpt lat="44.52962" lon="0.74502">
        <ele>106.5</ele>
        <time>2014-7-5T10:12:11.000Z</time>
      </trkpt>
      <trkpt lat="44.52962" lon="0.74502">
        <ele>106.5</ele>
        <time>2014-7-5T10:12:11.000Z</time>
      </trkpt>
      <trkpt lat="44.5296" lon="0.74503">
        <ele>106.5</ele>
        <time>2014-7-5T10:12:11.000Z</time>
      </trkpt>
      <trkpt lat="44.5296" lon="0.74503">
        <ele>106.5</ele>
        <time>2014-7-5T10:12:11.000Z</time>
      </trkpt>
      <trkpt lat="44.52957" lon="0.74501">
        <ele>104.5</ele>
        <time>2014-7-5T10:12:11.000Z</time>
      </trkpt>
      <trkpt lat="44.52957" lon="0.74501">
        <ele>104.5</ele>
        <time>2014-7-5T10:12:11.000Z</time>
      </trkpt>
      <trkpt lat="44.52955" lon="0.74501">
        <ele>104.5</ele>
        <time>2014-7-5T10:12:11.000Z</time>
      </trkpt>
      <trkpt lat="44.52955" lon="0.74501">
        <ele>104.5</ele>
        <time>2014-7-5T10:12:11.000Z</time>
      </trkpt>
      <trkpt lat="44.52953" lon="0.745">
        <ele>104.5</ele>
        <time>2014-7-5T10:12:11.000Z</time>
      </trkpt>
      <trkpt lat="44.52953" lon="0.745">
        <ele>104.5</ele>
        <time>2014-7-5T10:12:11.000Z</time>
      </trkpt>
      <trkpt lat="44.52951" lon="0.74499">
        <ele>102.5</ele>
        <time>2014-7-5T10:12:11.000Z</time>
      </trkpt>
      <trkpt lat="44.52951" lon="0.74499">
        <ele>102.5</ele>
        <time>2014-7-5T10:12:11.000Z</time>
      </trkpt>
      <trkpt lat="44.52949" lon="0.74499">
        <ele>102.5</ele>
        <time>2014-7-5T10:12:11.000Z</time>
      </trkpt>
      <trkpt lat="44.52949" lon="0.74499">
        <ele>102.5</ele>
        <time>2014-7-5T10:12:11.000Z</time>
      </trkpt>
      <trkpt lat="44.52947" lon="0.74498">
        <ele>101.5</ele>
        <time>2014-7-5T10:12:11.000Z</time>
      </trkpt>
      <trkpt lat="44.52947" lon="0.74498">
        <ele>101.5</ele>
        <time>2014-7-5T10:12:11.000Z</time>
      </trkpt>
      <trkpt lat="44.52945" lon="0.74497">
        <ele>102.5</ele>
        <time>2014-7-5T10:12:11.000Z</time>
      </trkpt>
      <trkpt lat="44.52945" lon="0.74497">
        <ele>102.5</ele>
        <time>2014-7-5T10:12:11.000Z</time>
      </trkpt>
      <trkpt lat="44.52942" lon="0.74496">
        <ele>102.5</ele>
        <time>2014-7-5T10:12:11.000Z</time>
      </trkpt>
      <trkpt lat="44.52942" lon="0.74496">
        <ele>102.5</ele>
        <time>2014-7-5T10:12:11.000Z</time>
      </trkpt>
      <trkpt lat="44.5294" lon="0.74496">
        <ele>101.5</ele>
        <time>2014-7-5T10:12:11.000Z</time>
      </trkpt>
      <trkpt lat="44.5294" lon="0.74496">
        <ele>101.5</ele>
        <time>2014-7-5T10:12:11.000Z</time>
      </trkpt>
      <trkpt lat="44.52937" lon="0.74495">
        <ele>99.5</ele>
        <time>2014-7-5T10:12:11.000Z</time>
      </trkpt>
      <trkpt lat="44.52937" lon="0.74495">
        <ele>99.5</ele>
        <time>2014-7-5T10:12:11.000Z</time>
      </trkpt>
      <trkpt lat="44.52934" lon="0.74494">
        <ele>99.5</ele>
        <time>2014-7-5T10:12:11.000Z</time>
      </trkpt>
      <trkpt lat="44.52934" lon="0.74494">
        <ele>99.5</ele>
        <time>2014-7-5T10:12:11.000Z</time>
      </trkpt>
      <trkpt lat="44.5293" lon="0.74494">
        <ele>98.5</ele>
        <time>2014-7-5T10:12:11.000Z</time>
      </trkpt>
      <trkpt lat="44.5293" lon="0.74494">
        <ele>98.5</ele>
        <time>2014-7-5T10:12:11.000Z</time>
      </trkpt>
      <trkpt lat="44.52926" lon="0.74494">
        <ele>98.5</ele>
        <time>2014-7-5T10:12:11.000Z</time>
      </trkpt>
      <trkpt lat="44.52926" lon="0.74494">
        <ele>98.5</ele>
        <time>2014-7-5T10:12:11.000Z</time>
      </trkpt>
      <trkpt lat="44.52924" lon="0.74494">
        <ele>98.5</ele>
        <time>2014-7-5T10:12:11.000Z</time>
      </trkpt>
      <trkpt lat="44.52924" lon="0.74494">
        <ele>98.5</ele>
        <time>2014-7-5T10:12:11.000Z</time>
      </trkpt>
      <trkpt lat="44.52921" lon="0.74495">
        <ele>98.5</ele>
        <time>2014-7-5T10:12:11.000Z</time>
      </trkpt>
      <trkpt lat="44.52921" lon="0.74495">
        <ele>98.5</ele>
        <time>2014-7-5T10:12:11.000Z</time>
      </trkpt>
      <trkpt lat="44.52919" lon="0.74496">
        <ele>98.5</ele>
        <time>2014-7-5T10:12:11.000Z</time>
      </trkpt>
      <trkpt lat="44.52919" lon="0.74496">
        <ele>98.5</ele>
        <time>2014-7-5T10:12:11.000Z</time>
      </trkpt>
      <trkpt lat="44.52917" lon="0.74498">
        <ele>97.5</ele>
        <time>2014-7-5T10:12:11.000Z</time>
      </trkpt>
      <trkpt lat="44.52917" lon="0.74498">
        <ele>97.5</ele>
        <time>2014-7-5T10:12:11.000Z</time>
      </trkpt>
      <trkpt lat="44.52916" lon="0.74501">
        <ele>97.5</ele>
        <time>2014-7-5T10:12:11.000Z</time>
      </trkpt>
      <trkpt lat="44.52916" lon="0.74501">
        <ele>97.5</ele>
        <time>2014-7-5T10:12:11.000Z</time>
      </trkpt>
      <trkpt lat="44.52914" lon="0.74503">
        <ele>97.5</ele>
        <time>2014-7-5T10:12:11.000Z</time>
      </trkpt>
      <trkpt lat="44.52914" lon="0.74503">
        <ele>97.5</ele>
        <time>2014-7-5T10:12:11.000Z</time>
      </trkpt>
      <trkpt lat="44.52913" lon="0.74505">
        <ele>97.5</ele>
        <time>2014-7-5T10:12:11.000Z</time>
      </trkpt>
      <trkpt lat="44.52913" lon="0.74505">
        <ele>97.5</ele>
        <time>2014-7-5T10:12:11.000Z</time>
      </trkpt>
      <trkpt lat="44.52912" lon="0.74507">
        <ele>97.5</ele>
        <time>2014-7-5T10:12:11.000Z</time>
      </trkpt>
      <trkpt lat="44.52912" lon="0.74507">
        <ele>97.5</ele>
        <time>2014-7-5T10:12:11.000Z</time>
      </trkpt>
      <trkpt lat="44.52909" lon="0.7451">
        <ele>96.5</ele>
        <time>2014-7-5T10:12:11.000Z</time>
      </trkpt>
      <trkpt lat="44.52909" lon="0.7451">
        <ele>96.5</ele>
        <time>2014-7-5T10:12:11.000Z</time>
      </trkpt>
      <trkpt lat="44.52908" lon="0.74512">
        <ele>97.5</ele>
        <time>2014-7-5T10:12:11.000Z</time>
      </trkpt>
      <trkpt lat="44.52908" lon="0.74512">
        <ele>97.5</ele>
        <time>2014-7-5T10:12:11.000Z</time>
      </trkpt>
      <trkpt lat="44.52906" lon="0.74516">
        <ele>95.5</ele>
        <time>2014-7-5T10:12:11.000Z</time>
      </trkpt>
      <trkpt lat="44.52906" lon="0.74516">
        <ele>95.5</ele>
        <time>2014-7-5T10:12:11.000Z</time>
      </trkpt>
      <trkpt lat="44.52905" lon="0.74518">
        <ele>96.5</ele>
        <time>2014-7-5T10:12:11.000Z</time>
      </trkpt>
      <trkpt lat="44.52905" lon="0.74518">
        <ele>96.5</ele>
        <time>2014-7-5T10:12:11.000Z</time>
      </trkpt>
      <trkpt lat="44.52904" lon="0.74522">
        <ele>96.5</ele>
        <time>2014-7-5T10:12:11.000Z</time>
      </trkpt>
      <trkpt lat="44.52904" lon="0.74522">
        <ele>96.5</ele>
        <time>2014-7-5T10:12:11.000Z</time>
      </trkpt>
      <trkpt lat="44.52902" lon="0.74525">
        <ele>96.5</ele>
        <time>2014-7-5T10:12:11.000Z</time>
      </trkpt>
      <trkpt lat="44.52902" lon="0.74525">
        <ele>96.5</ele>
        <time>2014-7-5T10:12:11.000Z</time>
      </trkpt>
      <trkpt lat="44.52901" lon="0.74529">
        <ele>95.5</ele>
        <time>2014-7-5T10:12:11.000Z</time>
      </trkpt>
      <trkpt lat="44.52901" lon="0.74529">
        <ele>95.5</ele>
        <time>2014-7-5T10:12:11.000Z</time>
      </trkpt>
      <trkpt lat="44.52899" lon="0.74533">
        <ele>94.5</ele>
        <time>2014-7-5T10:12:11.000Z</time>
      </trkpt>
      <trkpt lat="44.52899" lon="0.74533">
        <ele>94.5</ele>
        <time>2014-7-5T10:12:11.000Z</time>
      </trkpt>
      <trkpt lat="44.52898" lon="0.74537">
        <ele>94.5</ele>
        <time>2014-7-5T10:12:11.000Z</time>
      </trkpt>
      <trkpt lat="44.52898" lon="0.74537">
        <ele>94.5</ele>
        <time>2014-7-5T10:12:11.000Z</time>
      </trkpt>
      <trkpt lat="44.52898" lon="0.7454">
        <ele>93.5</ele>
        <time>2014-7-5T10:12:11.000Z</time>
      </trkpt>
      <trkpt lat="44.52898" lon="0.7454">
        <ele>93.5</ele>
        <time>2014-7-5T10:12:11.000Z</time>
      </trkpt>
      <trkpt lat="44.52897" lon="0.74545">
        <ele>93.5</ele>
        <time>2014-7-5T10:12:11.000Z</time>
      </trkpt>
      <trkpt lat="44.52897" lon="0.74545">
        <ele>93.5</ele>
        <time>2014-7-5T10:12:11.000Z</time>
      </trkpt>
      <trkpt lat="44.52896" lon="0.74548">
        <ele>93.5</ele>
        <time>2014-7-5T10:13:27.000Z</time>
      </trkpt>
      <trkpt lat="44.52896" lon="0.74548">
        <ele>93.5</ele>
        <time>2014-7-5T10:13:27.000Z</time>
      </trkpt>
      <trkpt lat="44.52895" lon="0.74552">
        <ele>92.5</ele>
        <time>2014-7-5T10:13:27.000Z</time>
      </trkpt>
      <trkpt lat="44.52895" lon="0.74552">
        <ele>92.5</ele>
        <time>2014-7-5T10:13:27.000Z</time>
      </trkpt>
      <trkpt lat="44.52893" lon="0.74551">
        <ele>92.5</ele>
        <time>2014-7-5T10:13:27.000Z</time>
      </trkpt>
      <trkpt lat="44.52893" lon="0.74551">
        <ele>92.5</ele>
        <time>2014-7-5T10:13:27.000Z</time>
      </trkpt>
      <trkpt lat="44.52891" lon="0.74552">
        <ele>89.5</ele>
        <time>2014-7-5T10:13:27.000Z</time>
      </trkpt>
      <trkpt lat="44.52891" lon="0.74552">
        <ele>89.5</ele>
        <time>2014-7-5T10:13:27.000Z</time>
      </trkpt>
      <trkpt lat="44.52891" lon="0.7455">
        <ele>88.5</ele>
        <time>2014-7-5T10:13:27.000Z</time>
      </trkpt>
      <trkpt lat="44.52891" lon="0.7455">
        <ele>88.5</ele>
        <time>2014-7-5T10:13:27.000Z</time>
      </trkpt>
      <trkpt lat="44.52892" lon="0.74547">
        <ele>88.5</ele>
        <time>2014-7-5T10:13:27.000Z</time>
      </trkpt>
      <trkpt lat="44.52892" lon="0.74547">
        <ele>88.5</ele>
        <time>2014-7-5T10:13:27.000Z</time>
      </trkpt>
      <trkpt lat="44.52892" lon="0.74544">
        <ele>88.5</ele>
        <time>2014-7-5T10:13:27.000Z</time>
      </trkpt>
      <trkpt lat="44.52892" lon="0.74544">
        <ele>88.5</ele>
        <time>2014-7-5T10:13:27.000Z</time>
      </trkpt>
      <trkpt lat="44.52893" lon="0.7454">
        <ele>89.5</ele>
        <time>2014-7-5T10:13:27.000Z</time>
      </trkpt>
      <trkpt lat="44.52893" lon="0.7454">
        <ele>89.5</ele>
        <time>2014-7-5T10:13:27.000Z</time>
      </trkpt>
      <trkpt lat="44.52894" lon="0.74536">
        <ele>89.5</ele>
        <time>2014-7-5T10:13:27.000Z</time>
      </trkpt>
      <trkpt lat="44.52894" lon="0.74536">
        <ele>89.5</ele>
        <time>2014-7-5T10:13:27.000Z</time>
      </trkpt>
      <trkpt lat="44.52896" lon="0.74533">
        <ele>89.5</ele>
        <time>2014-7-5T10:13:27.000Z</time>
      </trkpt>
      <trkpt lat="44.52896" lon="0.74533">
        <ele>89.5</ele>
        <time>2014-7-5T10:13:27.000Z</time>
      </trkpt>
      <trkpt lat="44.52898" lon="0.74529">
        <ele>89.5</ele>
        <time>2014-7-5T10:13:27.000Z</time>
      </trkpt>
      <trkpt lat="44.52898" lon="0.74529">
        <ele>89.5</ele>
        <time>2014-7-5T10:13:27.000Z</time>
      </trkpt>
      <trkpt lat="44.52899" lon="0.74525">
        <ele>89.5</ele>
        <time>2014-7-5T10:13:27.000Z</time>
      </trkpt>
      <trkpt lat="44.52899" lon="0.74525">
        <ele>89.5</ele>
        <time>2014-7-5T10:13:27.000Z</time>
      </trkpt>
      <trkpt lat="44.52901" lon="0.74521">
        <ele>89.5</ele>
        <time>2014-7-5T10:13:27.000Z</time>
      </trkpt>
      <trkpt lat="44.52901" lon="0.74521">
        <ele>89.5</ele>
        <time>2014-7-5T10:13:27.000Z</time>
      </trkpt>
      <trkpt lat="44.52902" lon="0.74516">
        <ele>90.5</ele>
        <time>2014-7-5T10:13:27.000Z</time>
      </trkpt>
      <trkpt lat="44.52902" lon="0.74516">
        <ele>90.5</ele>
        <time>2014-7-5T10:13:27.000Z</time>
      </trkpt>
      <trkpt lat="44.52904" lon="0.7451">
        <ele>90.5</ele>
        <time>2014-7-5T10:13:27.000Z</time>
      </trkpt>
      <trkpt lat="44.52904" lon="0.7451">
        <ele>90.5</ele>
        <time>2014-7-5T10:13:27.000Z</time>
      </trkpt>
      <trkpt lat="44.52905" lon="0.74504">
        <ele>90.5</ele>
        <time>2014-7-5T10:13:27.000Z</time>
      </trkpt>
      <trkpt lat="44.52905" lon="0.74504">
        <ele>90.5</ele>
        <time>2014-7-5T10:13:27.000Z</time>
      </trkpt>
      <trkpt lat="44.52906" lon="0.74499">
        <ele>90.5</ele>
        <time>2014-7-5T10:13:27.000Z</time>
      </trkpt>
      <trkpt lat="44.52906" lon="0.74499">
        <ele>90.5</ele>
        <time>2014-7-5T10:13:27.000Z</time>
      </trkpt>
      <trkpt lat="44.52907" lon="0.74495">
        <ele>91.5</ele>
        <time>2014-7-5T10:13:27.000Z</time>
      </trkpt>
      <trkpt lat="44.52907" lon="0.74495">
        <ele>91.5</ele>
        <time>2014-7-5T10:13:27.000Z</time>
      </trkpt>
      <trkpt lat="44.52908" lon="0.74491">
        <ele>91.5</ele>
        <time>2014-7-5T10:13:27.000Z</time>
      </trkpt>
      <trkpt lat="44.52908" lon="0.74491">
        <ele>91.5</ele>
        <time>2014-7-5T10:13:27.000Z</time>
      </trkpt>
      <trkpt lat="44.52909" lon="0.74488">
        <ele>92.5</ele>
        <time>2014-7-5T10:13:27.000Z</time>
      </trkpt>
      <trkpt lat="44.52909" lon="0.74488">
        <ele>92.5</ele>
        <time>2014-7-5T10:13:27.000Z</time>
      </trkpt>
      <trkpt lat="44.5291" lon="0.74484">
        <ele>91.5</ele>
        <time>2014-7-5T10:13:27.000Z</time>
      </trkpt>
      <trkpt lat="44.5291" lon="0.74484">
        <ele>91.5</ele>
        <time>2014-7-5T10:13:27.000Z</time>
      </trkpt>
      <trkpt lat="44.52912" lon="0.74481">
        <ele>91.5</ele>
        <time>2014-7-5T10:13:27.000Z</time>
      </trkpt>
      <trkpt lat="44.52912" lon="0.74481">
        <ele>91.5</ele>
        <time>2014-7-5T10:13:27.000Z</time>
      </trkpt>
      <trkpt lat="44.52913" lon="0.74477">
        <ele>92.5</ele>
        <time>2014-7-5T10:13:27.000Z</time>
      </trkpt>
      <trkpt lat="44.52913" lon="0.74477">
        <ele>92.5</ele>
        <time>2014-7-5T10:13:27.000Z</time>
      </trkpt>
      <trkpt lat="44.52914" lon="0.74473">
        <ele>92.5</ele>
        <time>2014-7-5T10:13:27.000Z</time>
      </trkpt>
      <trkpt lat="44.52914" lon="0.74473">
        <ele>92.5</ele>
        <time>2014-7-5T10:13:27.000Z</time>
      </trkpt>
      <trkpt lat="44.52915" lon="0.7447">
        <ele>91.5</ele>
        <time>2014-7-5T10:13:27.000Z</time>
      </trkpt>
      <trkpt lat="44.52915" lon="0.7447">
        <ele>91.5</ele>
        <time>2014-7-5T10:13:27.000Z</time>
      </trkpt>
      <trkpt lat="44.52916" lon="0.74467">
        <ele>92.5</ele>
        <time>2014-7-5T10:13:27.000Z</time>
      </trkpt>
      <trkpt lat="44.52916" lon="0.74467">
        <ele>92.5</ele>
        <time>2014-7-5T10:13:27.000Z</time>
      </trkpt>
      <trkpt lat="44.52918" lon="0.74464">
        <ele>91.5</ele>
        <time>2014-7-5T10:13:27.000Z</time>
      </trkpt>
      <trkpt lat="44.52918" lon="0.74464">
        <ele>91.5</ele>
        <time>2014-7-5T10:13:27.000Z</time>
      </trkpt>
      <trkpt lat="44.52918" lon="0.74458">
        <ele>91.5</ele>
        <time>2014-7-5T10:13:27.000Z</time>
      </trkpt>
      <trkpt lat="44.52918" lon="0.74458">
        <ele>91.5</ele>
        <time>2014-7-5T10:13:27.000Z</time>
      </trkpt>
      <trkpt lat="44.52918" lon="0.74456">
        <ele>89.5</ele>
        <time>2014-7-5T10:13:27.000Z</time>
      </trkpt>
      <trkpt lat="44.52918" lon="0.74456">
        <ele>89.5</ele>
        <time>2014-7-5T10:13:27.000Z</time>
      </trkpt>
      <trkpt lat="44.52915" lon="0.74453">
        <ele>89.5</ele>
        <time>2014-7-5T10:13:27.000Z</time>
      </trkpt>
      <trkpt lat="44.52915" lon="0.74453">
        <ele>89.5</ele>
        <time>2014-7-5T10:13:27.000Z</time>
      </trkpt>
      <trkpt lat="44.52912" lon="0.74451">
        <ele>88.5</ele>
        <time>2014-7-5T10:13:27.000Z</time>
      </trkpt>
      <trkpt lat="44.52912" lon="0.74451">
        <ele>88.5</ele>
        <time>2014-7-5T10:13:27.000Z</time>
      </trkpt>
      <trkpt lat="44.52907" lon="0.74449">
        <ele>87.5</ele>
        <time>2014-7-5T10:13:27.000Z</time>
      </trkpt>
      <trkpt lat="44.52907" lon="0.74449">
        <ele>87.5</ele>
        <time>2014-7-5T10:13:27.000Z</time>
      </trkpt>
      <trkpt lat="44.52901" lon="0.74446">
        <ele>86.5</ele>
        <time>2014-7-5T10:13:27.000Z</time>
      </trkpt>
      <trkpt lat="44.52901" lon="0.74446">
        <ele>86.5</ele>
        <time>2014-7-5T10:13:27.000Z</time>
      </trkpt>
      <trkpt lat="44.52892" lon="0.74445">
        <ele>86.5</ele>
        <time>2014-7-5T10:13:27.000Z</time>
      </trkpt>
      <trkpt lat="44.52892" lon="0.74445">
        <ele>86.5</ele>
        <time>2014-7-5T10:13:27.000Z</time>
      </trkpt>
      <trkpt lat="44.52887" lon="0.74442">
        <ele>86.5</ele>
        <time>2014-7-5T10:13:27.000Z</time>
      </trkpt>
      <trkpt lat="44.52887" lon="0.74442">
        <ele>86.5</ele>
        <time>2014-7-5T10:13:27.000Z</time>
      </trkpt>
      <trkpt lat="44.52882" lon="0.74439">
        <ele>86.5</ele>
        <time>2014-7-5T10:13:27.000Z</time>
      </trkpt>
      <trkpt lat="44.52882" lon="0.74439">
        <ele>86.5</ele>
        <time>2014-7-5T10:13:27.000Z</time>
      </trkpt>
      <trkpt lat="44.52878" lon="0.74437">
        <ele>86.5</ele>
        <time>2014-7-5T10:13:27.000Z</time>
      </trkpt>
      <trkpt lat="44.52878" lon="0.74437">
        <ele>86.5</ele>
        <time>2014-7-5T10:13:27.000Z</time>
      </trkpt>
      <trkpt lat="44.52874" lon="0.74436">
        <ele>86.5</ele>
        <time>2014-7-5T10:13:27.000Z</time>
      </trkpt>
      <trkpt lat="44.52874" lon="0.74436">
        <ele>86.5</ele>
        <time>2014-7-5T10:13:27.000Z</time>
      </trkpt>
      <trkpt lat="44.5287" lon="0.74434">
        <ele>86.5</ele>
        <time>2014-7-5T10:13:27.000Z</time>
      </trkpt>
      <trkpt lat="44.5287" lon="0.74434">
        <ele>86.5</ele>
        <time>2014-7-5T10:13:27.000Z</time>
      </trkpt>
      <trkpt lat="44.52866" lon="0.74432">
        <ele>86.5</ele>
        <time>2014-7-5T10:13:27.000Z</time>
      </trkpt>
      <trkpt lat="44.52866" lon="0.74432">
        <ele>86.5</ele>
        <time>2014-7-5T10:13:27.000Z</time>
      </trkpt>
      <trkpt lat="44.52861" lon="0.74431">
        <ele>86.5</ele>
        <time>2014-7-5T10:13:27.000Z</time>
      </trkpt>
      <trkpt lat="44.52861" lon="0.74431">
        <ele>86.5</ele>
        <time>2014-7-5T10:13:27.000Z</time>
      </trkpt>
      <trkpt lat="44.52856" lon="0.74429">
        <ele>86.5</ele>
        <time>2014-7-5T10:13:27.000Z</time>
      </trkpt>
      <trkpt lat="44.52856" lon="0.74429">
        <ele>86.5</ele>
        <time>2014-7-5T10:13:27.000Z</time>
      </trkpt>
      <trkpt lat="44.52851" lon="0.74427">
        <ele>87.5</ele>
        <time>2014-7-5T10:13:27.000Z</time>
      </trkpt>
      <trkpt lat="44.52851" lon="0.74427">
        <ele>87.5</ele>
        <time>2014-7-5T10:13:27.000Z</time>
      </trkpt>
      <trkpt lat="44.52846" lon="0.74426">
        <ele>87.5</ele>
        <time>2014-7-5T10:13:27.000Z</time>
      </trkpt>
      <trkpt lat="44.52846" lon="0.74426">
        <ele>87.5</ele>
        <time>2014-7-5T10:13:27.000Z</time>
      </trkpt>
      <trkpt lat="44.52842" lon="0.74425">
        <ele>87.5</ele>
        <time>2014-7-5T10:13:27.000Z</time>
      </trkpt>
      <trkpt lat="44.52842" lon="0.74425">
        <ele>87.5</ele>
        <time>2014-7-5T10:13:27.000Z</time>
      </trkpt>
      <trkpt lat="44.52838" lon="0.74424">
        <ele>88.5</ele>
        <time>2014-7-5T10:13:27.000Z</time>
      </trkpt>
      <trkpt lat="44.52838" lon="0.74424">
        <ele>88.5</ele>
        <time>2014-7-5T10:13:27.000Z</time>
      </trkpt>
      <trkpt lat="44.52834" lon="0.74423">
        <ele>88.5</ele>
        <time>2014-7-5T10:13:27.000Z</time>
      </trkpt>
      <trkpt lat="44.52834" lon="0.74423">
        <ele>88.5</ele>
        <time>2014-7-5T10:13:27.000Z</time>
      </trkpt>
      <trkpt lat="44.52832" lon="0.74423">
        <ele>88.5</ele>
        <time>2014-7-5T10:13:27.000Z</time>
      </trkpt>
      <trkpt lat="44.52832" lon="0.74423">
        <ele>88.5</ele>
        <time>2014-7-5T10:13:27.000Z</time>
      </trkpt>
      <trkpt lat="44.52829" lon="0.74422">
        <ele>88.5</ele>
        <time>2014-7-5T10:13:27.000Z</time>
      </trkpt>
      <trkpt lat="44.52829" lon="0.74422">
        <ele>88.5</ele>
        <time>2014-7-5T10:13:27.000Z</time>
      </trkpt>
      <trkpt lat="44.52826" lon="0.74422">
        <ele>89.5</ele>
        <time>2014-7-5T10:13:27.000Z</time>
      </trkpt>
      <trkpt lat="44.52826" lon="0.74422">
        <ele>89.5</ele>
        <time>2014-7-5T10:13:27.000Z</time>
      </trkpt>
      <trkpt lat="44.52822" lon="0.74421">
        <ele>89.5</ele>
        <time>2014-7-5T10:13:27.000Z</time>
      </trkpt>
      <trkpt lat="44.52822" lon="0.74421">
        <ele>89.5</ele>
        <time>2014-7-5T10:14:40.000Z</time>
      </trkpt>
      <trkpt lat="44.52819" lon="0.74421">
        <ele>89.5</ele>
        <time>2014-7-5T10:14:40.000Z</time>
      </trkpt>
      <trkpt lat="44.52819" lon="0.74421">
        <ele>89.5</ele>
        <time>2014-7-5T10:14:40.000Z</time>
      </trkpt>
      <trkpt lat="44.52817" lon="0.74421">
        <ele>90.5</ele>
        <time>2014-7-5T10:14:40.000Z</time>
      </trkpt>
      <trkpt lat="44.52817" lon="0.74421">
        <ele>90.5</ele>
        <time>2014-7-5T10:14:40.000Z</time>
      </trkpt>
      <trkpt lat="44.52815" lon="0.74421">
        <ele>90.5</ele>
        <time>2014-7-5T10:14:40.000Z</time>
      </trkpt>
      <trkpt lat="44.52815" lon="0.74421">
        <ele>90.5</ele>
        <time>2014-7-5T10:14:40.000Z</time>
      </trkpt>
      <trkpt lat="44.52812" lon="0.74421">
        <ele>90.5</ele>
        <time>2014-7-5T10:14:40.000Z</time>
      </trkpt>
      <trkpt lat="44.52812" lon="0.74421">
        <ele>90.5</ele>
        <time>2014-7-5T10:14:40.000Z</time>
      </trkpt>
      <trkpt lat="44.52809" lon="0.74421">
        <ele>91.5</ele>
        <time>2014-7-5T10:14:40.000Z</time>
      </trkpt>
      <trkpt lat="44.52809" lon="0.74421">
        <ele>91.5</ele>
        <time>2014-7-5T10:14:40.000Z</time>
      </trkpt>
      <trkpt lat="44.52805" lon="0.74421">
        <ele>92.5</ele>
        <time>2014-7-5T10:14:40.000Z</time>
      </trkpt>
      <trkpt lat="44.52805" lon="0.74421">
        <ele>92.5</ele>
        <time>2014-7-5T10:14:40.000Z</time>
      </trkpt>
      <trkpt lat="44.52802" lon="0.74421">
        <ele>92.5</ele>
        <time>2014-7-5T10:14:40.000Z</time>
      </trkpt>
      <trkpt lat="44.52802" lon="0.74421">
        <ele>92.5</ele>
        <time>2014-7-5T10:14:40.000Z</time>
      </trkpt>
      <trkpt lat="44.528" lon="0.74421">
        <ele>92.5</ele>
        <time>2014-7-5T10:14:40.000Z</time>
      </trkpt>
      <trkpt lat="44.528" lon="0.74421">
        <ele>92.5</ele>
        <time>2014-7-5T10:14:40.000Z</time>
      </trkpt>
      <trkpt lat="44.52797" lon="0.74422">
        <ele>92.5</ele>
        <time>2014-7-5T10:14:40.000Z</time>
      </trkpt>
      <trkpt lat="44.52797" lon="0.74422">
        <ele>92.5</ele>
        <time>2014-7-5T10:14:40.000Z</time>
      </trkpt>
      <trkpt lat="44.52794" lon="0.74422">
        <ele>93.5</ele>
        <time>2014-7-5T10:14:40.000Z</time>
      </trkpt>
      <trkpt lat="44.52794" lon="0.74422">
        <ele>93.5</ele>
        <time>2014-7-5T10:14:40.000Z</time>
      </trkpt>
      <trkpt lat="44.52791" lon="0.74422">
        <ele>93.5</ele>
        <time>2014-7-5T10:14:40.000Z</time>
      </trkpt>
      <trkpt lat="44.52791" lon="0.74422">
        <ele>93.5</ele>
        <time>2014-7-5T10:14:40.000Z</time>
      </trkpt>
      <trkpt lat="44.52789" lon="0.74423">
        <ele>93.5</ele>
        <time>2014-7-5T10:14:40.000Z</time>
      </trkpt>
      <trkpt lat="44.52789" lon="0.74423">
        <ele>93.5</ele>
        <time>2014-7-5T10:14:40.000Z</time>
      </trkpt>
      <trkpt lat="44.52786" lon="0.74422">
        <ele>93.5</ele>
        <time>2014-7-5T10:14:40.000Z</time>
      </trkpt>
      <trkpt lat="44.52786" lon="0.74422">
        <ele>93.5</ele>
        <time>2014-7-5T10:14:40.000Z</time>
      </trkpt>
      <trkpt lat="44.52783" lon="0.74422">
        <ele>93.5</ele>
        <time>2014-7-5T10:14:40.000Z</time>
      </trkpt>
      <trkpt lat="44.52783" lon="0.74422">
        <ele>93.5</ele>
        <time>2014-7-5T10:14:40.000Z</time>
      </trkpt>
      <trkpt lat="44.5278" lon="0.74422">
        <ele>92.5</ele>
        <time>2014-7-5T10:14:40.000Z</time>
      </trkpt>
      <trkpt lat="44.5278" lon="0.74422">
        <ele>92.5</ele>
        <time>2014-7-5T10:14:40.000Z</time>
      </trkpt>
      <trkpt lat="44.52778" lon="0.74422">
        <ele>92.5</ele>
        <time>2014-7-5T10:14:40.000Z</time>
      </trkpt>
      <trkpt lat="44.52778" lon="0.74422">
        <ele>92.5</ele>
        <time>2014-7-5T10:14:40.000Z</time>
      </trkpt>
      <trkpt lat="44.52775" lon="0.74422">
        <ele>91.5</ele>
        <time>2014-7-5T10:14:40.000Z</time>
      </trkpt>
      <trkpt lat="44.52775" lon="0.74422">
        <ele>91.5</ele>
        <time>2014-7-5T10:14:40.000Z</time>
      </trkpt>
      <trkpt lat="44.52773" lon="0.7442">
        <ele>91.5</ele>
        <time>2014-7-5T10:14:40.000Z</time>
      </trkpt>
      <trkpt lat="44.52773" lon="0.7442">
        <ele>91.5</ele>
        <time>2014-7-5T10:14:40.000Z</time>
      </trkpt>
      <trkpt lat="44.52772" lon="0.74417">
        <ele>91.5</ele>
        <time>2014-7-5T10:14:40.000Z</time>
      </trkpt>
      <trkpt lat="44.52772" lon="0.74417">
        <ele>91.5</ele>
        <time>2014-7-5T10:14:40.000Z</time>
      </trkpt>
      <trkpt lat="44.52772" lon="0.74412">
        <ele>91.5</ele>
        <time>2014-7-5T10:14:40.000Z</time>
      </trkpt>
      <trkpt lat="44.52772" lon="0.74412">
        <ele>91.5</ele>
        <time>2014-7-5T10:14:40.000Z</time>
      </trkpt>
      <trkpt lat="44.52773" lon="0.74407">
        <ele>90.5</ele>
        <time>2014-7-5T10:14:40.000Z</time>
      </trkpt>
      <trkpt lat="44.52773" lon="0.74407">
        <ele>90.5</ele>
        <time>2014-7-5T10:14:40.000Z</time>
      </trkpt>
      <trkpt lat="44.52773" lon="0.74401">
        <ele>90.5</ele>
        <time>2014-7-5T10:14:40.000Z</time>
      </trkpt>
      <trkpt lat="44.52773" lon="0.74401">
        <ele>90.5</ele>
        <time>2014-7-5T10:14:40.000Z</time>
      </trkpt>
      <trkpt lat="44.52773" lon="0.74393">
        <ele>89.5</ele>
        <time>2014-7-5T10:14:40.000Z</time>
      </trkpt>
      <trkpt lat="44.52773" lon="0.74393">
        <ele>89.5</ele>
        <time>2014-7-5T10:14:40.000Z</time>
      </trkpt>
      <trkpt lat="44.52773" lon="0.74384">
        <ele>89.5</ele>
        <time>2014-7-5T10:14:40.000Z</time>
      </trkpt>
      <trkpt lat="44.52773" lon="0.74384">
        <ele>89.5</ele>
        <time>2014-7-5T10:14:40.000Z</time>
      </trkpt>
      <trkpt lat="44.52772" lon="0.74378">
        <ele>89.5</ele>
        <time>2014-7-5T10:14:40.000Z</time>
      </trkpt>
      <trkpt lat="44.52772" lon="0.74378">
        <ele>89.5</ele>
        <time>2014-7-5T10:14:40.000Z</time>
      </trkpt>
      <trkpt lat="44.52771" lon="0.7437">
        <ele>89.5</ele>
        <time>2014-7-5T10:14:40.000Z</time>
      </trkpt>
      <trkpt lat="44.52771" lon="0.7437">
        <ele>89.5</ele>
        <time>2014-7-5T10:14:40.000Z</time>
      </trkpt>
      <trkpt lat="44.52771" lon="0.74363">
        <ele>88.5</ele>
        <time>2014-7-5T10:14:40.000Z</time>
      </trkpt>
      <trkpt lat="44.52771" lon="0.74363">
        <ele>88.5</ele>
        <time>2014-7-5T10:14:40.000Z</time>
      </trkpt>
      <trkpt lat="44.5277" lon="0.74355">
        <ele>87.5</ele>
        <time>2014-7-5T10:14:40.000Z</time>
      </trkpt>
      <trkpt lat="44.5277" lon="0.74355">
        <ele>87.5</ele>
        <time>2014-7-5T10:14:40.000Z</time>
      </trkpt>
      <trkpt lat="44.52769" lon="0.74347">
        <ele>87.5</ele>
        <time>2014-7-5T10:14:40.000Z</time>
      </trkpt>
      <trkpt lat="44.52769" lon="0.74347">
        <ele>87.5</ele>
        <time>2014-7-5T10:14:40.000Z</time>
      </trkpt>
      <trkpt lat="44.52768" lon="0.74339">
        <ele>87.5</ele>
        <time>2014-7-5T10:14:40.000Z</time>
      </trkpt>
      <trkpt lat="44.52768" lon="0.74339">
        <ele>87.5</ele>
        <time>2014-7-5T10:14:40.000Z</time>
      </trkpt>
      <trkpt lat="44.52767" lon="0.74329">
        <ele>87.5</ele>
        <time>2014-7-5T10:14:40.000Z</time>
      </trkpt>
      <trkpt lat="44.52767" lon="0.74329">
        <ele>87.5</ele>
        <time>2014-7-5T10:14:40.000Z</time>
      </trkpt>
      <trkpt lat="44.52766" lon="0.74321">
        <ele>87.5</ele>
        <time>2014-7-5T10:14:40.000Z</time>
      </trkpt>
      <trkpt lat="44.52766" lon="0.74321">
        <ele>87.5</ele>
        <time>2014-7-5T10:14:40.000Z</time>
      </trkpt>
      <trkpt lat="44.52764" lon="0.74314">
        <ele>86.5</ele>
        <time>2014-7-5T10:14:40.000Z</time>
      </trkpt>
      <trkpt lat="44.52764" lon="0.74314">
        <ele>86.5</ele>
        <time>2014-7-5T10:14:40.000Z</time>
      </trkpt>
      <trkpt lat="44.52761" lon="0.74305">
        <ele>86.5</ele>
        <time>2014-7-5T10:14:40.000Z</time>
      </trkpt>
      <trkpt lat="44.52761" lon="0.74305">
        <ele>86.5</ele>
        <time>2014-7-5T10:14:40.000Z</time>
      </trkpt>
      <trkpt lat="44.52758" lon="0.74297">
        <ele>86.5</ele>
        <time>2014-7-5T10:14:40.000Z</time>
      </trkpt>
      <trkpt lat="44.52758" lon="0.74297">
        <ele>86.5</ele>
        <time>2014-7-5T10:14:40.000Z</time>
      </trkpt>
      <trkpt lat="44.52755" lon="0.74289">
        <ele>85.5</ele>
        <time>2014-7-5T10:14:40.000Z</time>
      </trkpt>
      <trkpt lat="44.52755" lon="0.74289">
        <ele>85.5</ele>
        <time>2014-7-5T10:14:40.000Z</time>
      </trkpt>
      <trkpt lat="44.52751" lon="0.7428">
        <ele>86.5</ele>
        <time>2014-7-5T10:14:40.000Z</time>
      </trkpt>
      <trkpt lat="44.52751" lon="0.7428">
        <ele>86.5</ele>
        <time>2014-7-5T10:14:40.000Z</time>
      </trkpt>
      <trkpt lat="44.52748" lon="0.74272">
        <ele>85.5</ele>
        <time>2014-7-5T10:14:40.000Z</time>
      </trkpt>
      <trkpt lat="44.52748" lon="0.74272">
        <ele>85.5</ele>
        <time>2014-7-5T10:14:40.000Z</time>
      </trkpt>
      <trkpt lat="44.52744" lon="0.74265">
        <ele>84.5</ele>
        <time>2014-7-5T10:14:40.000Z</time>
      </trkpt>
      <trkpt lat="44.52744" lon="0.74265">
        <ele>84.5</ele>
        <time>2014-7-5T10:14:40.000Z</time>
      </trkpt>
      <trkpt lat="44.52741" lon="0.74258">
        <ele>83.5</ele>
        <time>2014-7-5T10:14:40.000Z</time>
      </trkpt>
      <trkpt lat="44.52741" lon="0.74258">
        <ele>83.5</ele>
        <time>2014-7-5T10:14:40.000Z</time>
      </trkpt>
      <trkpt lat="44.52738" lon="0.74251">
        <ele>83.5</ele>
        <time>2014-7-5T10:14:40.000Z</time>
      </trkpt>
      <trkpt lat="44.52738" lon="0.74251">
        <ele>83.5</ele>
        <time>2014-7-5T10:14:40.000Z</time>
      </trkpt>
      <trkpt lat="44.52735" lon="0.74245">
        <ele>83.5</ele>
        <time>2014-7-5T10:14:40.000Z</time>
      </trkpt>
      <trkpt lat="44.52735" lon="0.74245">
        <ele>83.5</ele>
        <time>2014-7-5T10:14:40.000Z</time>
      </trkpt>
      <trkpt lat="44.52733" lon="0.7424">
        <ele>84.5</ele>
        <time>2014-7-5T10:14:40.000Z</time>
      </trkpt>
      <trkpt lat="44.52733" lon="0.7424">
        <ele>84.5</ele>
        <time>2014-7-5T10:14:40.000Z</time>
      </trkpt>
      <trkpt lat="44.5273" lon="0.74235">
        <ele>83.5</ele>
        <time>2014-7-5T10:14:40.000Z</time>
      </trkpt>
      <trkpt lat="44.5273" lon="0.74235">
        <ele>83.5</ele>
        <time>2014-7-5T10:14:40.000Z</time>
      </trkpt>
      <trkpt lat="44.52729" lon="0.74231">
        <ele>84.5</ele>
        <time>2014-7-5T10:14:40.000Z</time>
      </trkpt>
      <trkpt lat="44.52729" lon="0.74231">
        <ele>84.5</ele>
        <time>2014-7-5T10:14:40.000Z</time>
      </trkpt>
      <trkpt lat="44.52728" lon="0.74229">
        <ele>84.5</ele>
        <time>2014-7-5T10:14:40.000Z</time>
      </trkpt>
      <trkpt lat="44.52728" lon="0.74229">
        <ele>84.5</ele>
        <time>2014-7-5T10:14:40.000Z</time>
      </trkpt>
      <trkpt lat="44.5273" lon="0.74228">
        <ele>83.5</ele>
        <time>2014-7-5T10:14:40.000Z</time>
      </trkpt>
      <trkpt lat="44.5273" lon="0.74228">
        <ele>83.5</ele>
        <time>2014-7-5T10:14:40.000Z</time>
      </trkpt>
      <trkpt lat="44.5273" lon="0.74223">
        <ele>83.5</ele>
        <time>2014-7-5T10:14:40.000Z</time>
      </trkpt>
      <trkpt lat="44.5273" lon="0.74223">
        <ele>83.5</ele>
        <time>2014-7-5T10:14:40.000Z</time>
      </trkpt>
      <trkpt lat="44.5273" lon="0.74221">
        <ele>84.5</ele>
        <time>2014-7-5T10:14:40.000Z</time>
      </trkpt>
      <trkpt lat="44.5273" lon="0.74221">
        <ele>84.5</ele>
        <time>2014-7-5T10:14:40.000Z</time>
      </trkpt>
      <trkpt lat="44.52731" lon="0.74223">
        <ele>83.5</ele>
        <time>2014-7-5T10:14:40.000Z</time>
      </trkpt>
      <trkpt lat="44.52731" lon="0.74223">
        <ele>83.5</ele>
        <time>2014-7-5T10:14:40.000Z</time>
      </trkpt>
      <trkpt lat="44.52732" lon="0.74226">
        <ele>85.5</ele>
        <time>2014-7-5T10:15:41.000Z</time>
      </trkpt>
      <trkpt lat="44.52732" lon="0.74226">
        <ele>85.5</ele>
        <time>2014-7-5T10:15:41.000Z</time>
      </trkpt>
      <trkpt lat="44.52732" lon="0.74229">
        <ele>85.5</ele>
        <time>2014-7-5T10:15:41.000Z</time>
      </trkpt>
      <trkpt lat="44.52732" lon="0.74229">
        <ele>85.5</ele>
        <time>2014-7-5T10:15:41.000Z</time>
      </trkpt>
      <trkpt lat="44.5273" lon="0.74232">
        <ele>85.5</ele>
        <time>2014-7-5T10:15:41.000Z</time>
      </trkpt>
      <trkpt lat="44.5273" lon="0.74232">
        <ele>85.5</ele>
        <time>2014-7-5T10:15:41.000Z</time>
      </trkpt>
      <trkpt lat="44.52727" lon="0.74233">
        <ele>87.5</ele>
        <time>2014-7-5T10:15:41.000Z</time>
      </trkpt>
      <trkpt lat="44.52727" lon="0.74233">
        <ele>87.5</ele>
        <time>2014-7-5T10:15:41.000Z</time>
      </trkpt>
      <trkpt lat="44.52725" lon="0.74232">
        <ele>86.5</ele>
        <time>2014-7-5T10:15:41.000Z</time>
      </trkpt>
      <trkpt lat="44.52725" lon="0.74232">
        <ele>86.5</ele>
        <time>2014-7-5T10:15:41.000Z</time>
      </trkpt>
      <trkpt lat="44.52724" lon="0.74229">
        <ele>87.5</ele>
        <time>2014-7-5T10:15:41.000Z</time>
      </trkpt>
      <trkpt lat="44.52724" lon="0.74229">
        <ele>87.5</ele>
        <time>2014-7-5T10:15:41.000Z</time>
      </trkpt>
      <trkpt lat="44.52723" lon="0.74225">
        <ele>86.5</ele>
        <time>2014-7-5T10:15:41.000Z</time>
      </trkpt>
      <trkpt lat="44.52723" lon="0.74225">
        <ele>86.5</ele>
        <time>2014-7-5T10:15:41.000Z</time>
      </trkpt>
      <trkpt lat="44.5272" lon="0.7422">
        <ele>85.5</ele>
        <time>2014-7-5T10:15:41.000Z</time>
      </trkpt>
      <trkpt lat="44.5272" lon="0.7422">
        <ele>85.5</ele>
        <time>2014-7-5T10:15:41.000Z</time>
      </trkpt>
      <trkpt lat="44.52717" lon="0.74215">
        <ele>84.5</ele>
        <time>2014-7-5T10:15:41.000Z</time>
      </trkpt>
      <trkpt lat="44.52717" lon="0.74215">
        <ele>84.5</ele>
        <time>2014-7-5T10:15:41.000Z</time>
      </trkpt>
      <trkpt lat="44.52711" lon="0.74213">
        <ele>84.5</ele>
        <time>2014-7-5T10:15:41.000Z</time>
      </trkpt>
      <trkpt lat="44.52711" lon="0.74213">
        <ele>84.5</ele>
        <time>2014-7-5T10:15:41.000Z</time>
      </trkpt>
      <trkpt lat="44.52702" lon="0.7422">
        <ele>83.5</ele>
        <time>2014-7-5T10:15:41.000Z</time>
      </trkpt>
      <trkpt lat="44.52702" lon="0.7422">
        <ele>83.5</ele>
        <time>2014-7-5T10:15:41.000Z</time>
      </trkpt>
      <trkpt lat="44.52695" lon="0.74221">
        <ele>83.5</ele>
        <time>2014-7-5T10:15:41.000Z</time>
      </trkpt>
      <trkpt lat="44.52695" lon="0.74221">
        <ele>83.5</ele>
        <time>2014-7-5T10:15:41.000Z</time>
      </trkpt>
      <trkpt lat="44.52691" lon="0.74221">
        <ele>83.5</ele>
        <time>2014-7-5T10:15:41.000Z</time>
      </trkpt>
      <trkpt lat="44.52691" lon="0.74221">
        <ele>83.5</ele>
        <time>2014-7-5T10:15:41.000Z</time>
      </trkpt>
      <trkpt lat="44.52685" lon="0.74221">
        <ele>83.5</ele>
        <time>2014-7-5T10:15:41.000Z</time>
      </trkpt>
      <trkpt lat="44.52685" lon="0.74221">
        <ele>83.5</ele>
        <time>2014-7-5T10:15:41.000Z</time>
      </trkpt>
      <trkpt lat="44.52679" lon="0.7422">
        <ele>82.5</ele>
        <time>2014-7-5T10:15:41.000Z</time>
      </trkpt>
      <trkpt lat="44.52679" lon="0.7422">
        <ele>82.5</ele>
        <time>2014-7-5T10:15:41.000Z</time>
      </trkpt>
      <trkpt lat="44.52675" lon="0.7422">
        <ele>82.5</ele>
        <time>2014-7-5T10:15:41.000Z</time>
      </trkpt>
      <trkpt lat="44.52675" lon="0.7422">
        <ele>82.5</ele>
        <time>2014-7-5T10:15:41.000Z</time>
      </trkpt>
      <trkpt lat="44.5267" lon="0.74218">
        <ele>82.5</ele>
        <time>2014-7-5T10:15:41.000Z</time>
      </trkpt>
      <trkpt lat="44.5267" lon="0.74218">
        <ele>82.5</ele>
        <time>2014-7-5T10:15:41.000Z</time>
      </trkpt>
      <trkpt lat="44.52666" lon="0.74216">
        <ele>83.5</ele>
        <time>2014-7-5T10:15:41.000Z</time>
      </trkpt>
      <trkpt lat="44.52666" lon="0.74216">
        <ele>83.5</ele>
        <time>2014-7-5T10:15:41.000Z</time>
      </trkpt>
      <trkpt lat="44.52661" lon="0.74213">
        <ele>83.5</ele>
        <time>2014-7-5T10:15:41.000Z</time>
      </trkpt>
      <trkpt lat="44.52661" lon="0.74213">
        <ele>83.5</ele>
        <time>2014-7-5T10:15:41.000Z</time>
      </trkpt>
      <trkpt lat="44.52656" lon="0.7421">
        <ele>83.5</ele>
        <time>2014-7-5T10:15:41.000Z</time>
      </trkpt>
      <trkpt lat="44.52656" lon="0.7421">
        <ele>83.5</ele>
        <time>2014-7-5T10:15:41.000Z</time>
      </trkpt>
      <trkpt lat="44.52652" lon="0.74207">
        <ele>83.5</ele>
        <time>2014-7-5T10:15:41.000Z</time>
      </trkpt>
      <trkpt lat="44.52652" lon="0.74207">
        <ele>83.5</ele>
        <time>2014-7-5T10:15:41.000Z</time>
      </trkpt>
      <trkpt lat="44.52647" lon="0.74204">
        <ele>83.5</ele>
        <time>2014-7-5T10:15:41.000Z</time>
      </trkpt>
      <trkpt lat="44.52647" lon="0.74204">
        <ele>83.5</ele>
        <time>2014-7-5T10:15:41.000Z</time>
      </trkpt>
      <trkpt lat="44.52641" lon="0.742">
        <ele>82.5</ele>
        <time>2014-7-5T10:15:41.000Z</time>
      </trkpt>
      <trkpt lat="44.52641" lon="0.742">
        <ele>82.5</ele>
        <time>2014-7-5T10:15:41.000Z</time>
      </trkpt>
      <trkpt lat="44.52636" lon="0.74198">
        <ele>82.5</ele>
        <time>2014-7-5T10:15:41.000Z</time>
      </trkpt>
      <trkpt lat="44.52636" lon="0.74198">
        <ele>82.5</ele>
        <time>2014-7-5T10:15:41.000Z</time>
      </trkpt>
      <trkpt lat="44.52631" lon="0.74195">
        <ele>81.5</ele>
        <time>2014-7-5T10:15:41.000Z</time>
      </trkpt>
      <trkpt lat="44.52631" lon="0.74195">
        <ele>81.5</ele>
        <time>2014-7-5T10:15:41.000Z</time>
      </trkpt>
      <trkpt lat="44.52624" lon="0.74194">
        <ele>80.5</ele>
        <time>2014-7-5T10:15:41.000Z</time>
      </trkpt>
      <trkpt lat="44.52624" lon="0.74194">
        <ele>80.5</ele>
        <time>2014-7-5T10:15:41.000Z</time>
      </trkpt>
      <trkpt lat="44.5262" lon="0.74194">
        <ele>80.5</ele>
        <time>2014-7-5T10:15:41.000Z</time>
      </trkpt>
      <trkpt lat="44.5262" lon="0.74194">
        <ele>80.5</ele>
        <time>2014-7-5T10:15:41.000Z</time>
      </trkpt>
      <trkpt lat="44.52614" lon="0.74195">
        <ele>80.5</ele>
        <time>2014-7-5T10:15:41.000Z</time>
      </trkpt>
      <trkpt lat="44.52614" lon="0.74195">
        <ele>80.5</ele>
        <time>2014-7-5T10:15:41.000Z</time>
      </trkpt>
      <trkpt lat="44.52609" lon="0.74195">
        <ele>80.5</ele>
        <time>2014-7-5T10:15:41.000Z</time>
      </trkpt>
      <trkpt lat="44.52609" lon="0.74195">
        <ele>80.5</ele>
        <time>2014-7-5T10:15:41.000Z</time>
      </trkpt>
      <trkpt lat="44.52603" lon="0.74195">
        <ele>80.5</ele>
        <time>2014-7-5T10:15:41.000Z</time>
      </trkpt>
      <trkpt lat="44.52603" lon="0.74195">
        <ele>80.5</ele>
        <time>2014-7-5T10:15:41.000Z</time>
      </trkpt>
      <trkpt lat="44.52598" lon="0.74195">
        <ele>80.5</ele>
        <time>2014-7-5T10:15:41.000Z</time>
      </trkpt>
      <trkpt lat="44.52598" lon="0.74195">
        <ele>80.5</ele>
        <time>2014-7-5T10:15:41.000Z</time>
      </trkpt>
      <trkpt lat="44.52592" lon="0.74195">
        <ele>80.5</ele>
        <time>2014-7-5T10:15:41.000Z</time>
      </trkpt>
      <trkpt lat="44.52592" lon="0.74195">
        <ele>80.5</ele>
        <time>2014-7-5T10:15:41.000Z</time>
      </trkpt>
      <trkpt lat="44.52587" lon="0.74195">
        <ele>79.5</ele>
        <time>2014-7-5T10:15:41.000Z</time>
      </trkpt>
      <trkpt lat="44.52587" lon="0.74195">
        <ele>79.5</ele>
        <time>2014-7-5T10:15:41.000Z</time>
      </trkpt>
      <trkpt lat="44.52582" lon="0.74196">
        <ele>79.5</ele>
        <time>2014-7-5T10:15:41.000Z</time>
      </trkpt>
      <trkpt lat="44.52582" lon="0.74196">
        <ele>79.5</ele>
        <time>2014-7-5T10:15:41.000Z</time>
      </trkpt>
      <trkpt lat="44.52577" lon="0.74196">
        <ele>80.5</ele>
        <time>2014-7-5T10:15:41.000Z</time>
      </trkpt>
      <trkpt lat="44.52577" lon="0.74196">
        <ele>80.5</ele>
        <time>2014-7-5T10:15:41.000Z</time>
      </trkpt>
      <trkpt lat="44.52572" lon="0.74196">
        <ele>79.5</ele>
        <time>2014-7-5T10:15:41.000Z</time>
      </trkpt>
      <trkpt lat="44.52572" lon="0.74196">
        <ele>79.5</ele>
        <time>2014-7-5T10:15:41.000Z</time>
      </trkpt>
      <trkpt lat="44.52567" lon="0.74196">
        <ele>79.5</ele>
        <time>2014-7-5T10:15:41.000Z</time>
      </trkpt>
      <trkpt lat="44.52567" lon="0.74196">
        <ele>79.5</ele>
        <time>2014-7-5T10:15:41.000Z</time>
      </trkpt>
      <trkpt lat="44.52562" lon="0.74196">
        <ele>79.5</ele>
        <time>2014-7-5T10:15:41.000Z</time>
      </trkpt>
      <trkpt lat="44.52562" lon="0.74196">
        <ele>79.5</ele>
        <time>2014-7-5T10:15:41.000Z</time>
      </trkpt>
      <trkpt lat="44.52557" lon="0.74196">
        <ele>80.5</ele>
        <time>2014-7-5T10:15:41.000Z</time>
      </trkpt>
      <trkpt lat="44.52557" lon="0.74196">
        <ele>80.5</ele>
        <time>2014-7-5T10:15:41.000Z</time>
      </trkpt>
      <trkpt lat="44.52553" lon="0.74196">
        <ele>80.5</ele>
        <time>2014-7-5T10:15:41.000Z</time>
      </trkpt>
      <trkpt lat="44.52553" lon="0.74196">
        <ele>80.5</ele>
        <time>2014-7-5T10:15:41.000Z</time>
      </trkpt>
      <trkpt lat="44.52548" lon="0.74196">
        <ele>79.5</ele>
        <time>2014-7-5T10:15:41.000Z</time>
      </trkpt>
      <trkpt lat="44.52548" lon="0.74196">
        <ele>79.5</ele>
        <time>2014-7-5T10:15:41.000Z</time>
      </trkpt>
      <trkpt lat="44.52542" lon="0.74195">
        <ele>79.5</ele>
        <time>2014-7-5T10:15:41.000Z</time>
      </trkpt>
      <trkpt lat="44.52542" lon="0.74195">
        <ele>79.5</ele>
        <time>2014-7-5T10:15:41.000Z</time>
      </trkpt>
      <trkpt lat="44.52538" lon="0.74195">
        <ele>79.5</ele>
        <time>2014-7-5T10:15:41.000Z</time>
      </trkpt>
      <trkpt lat="44.52538" lon="0.74195">
        <ele>79.5</ele>
        <time>2014-7-5T10:15:41.000Z</time>
      </trkpt>
      <trkpt lat="44.52533" lon="0.74194">
        <ele>79.5</ele>
        <time>2014-7-5T10:15:41.000Z</time>
      </trkpt>
      <trkpt lat="44.52533" lon="0.74194">
        <ele>79.5</ele>
        <time>2014-7-5T10:15:41.000Z</time>
      </trkpt>
      <trkpt lat="44.52529" lon="0.74195">
        <ele>79.5</ele>
        <time>2014-7-5T10:15:41.000Z</time>
      </trkpt>
      <trkpt lat="44.52529" lon="0.74195">
        <ele>79.5</ele>
        <time>2014-7-5T10:15:41.000Z</time>
      </trkpt>
      <trkpt lat="44.52525" lon="0.74194">
        <ele>79.5</ele>
        <time>2014-7-5T10:15:41.000Z</time>
      </trkpt>
      <trkpt lat="44.52525" lon="0.74194">
        <ele>79.5</ele>
        <time>2014-7-5T10:15:41.000Z</time>
      </trkpt>
      <trkpt lat="44.5252" lon="0.74193">
        <ele>80.5</ele>
        <time>2014-7-5T10:15:41.000Z</time>
      </trkpt>
      <trkpt lat="44.5252" lon="0.74193">
        <ele>80.5</ele>
        <time>2014-7-5T10:15:41.000Z</time>
      </trkpt>
      <trkpt lat="44.52516" lon="0.74194">
        <ele>79.5</ele>
        <time>2014-7-5T10:15:41.000Z</time>
      </trkpt>
      <trkpt lat="44.52516" lon="0.74194">
        <ele>79.5</ele>
        <time>2014-7-5T10:15:41.000Z</time>
      </trkpt>
      <trkpt lat="44.52513" lon="0.74192">
        <ele>79.5</ele>
        <time>2014-7-5T10:15:41.000Z</time>
      </trkpt>
      <trkpt lat="44.52513" lon="0.74192">
        <ele>79.5</ele>
        <time>2014-7-5T10:15:41.000Z</time>
      </trkpt>
      <trkpt lat="44.52507" lon="0.74189">
        <ele>78.5</ele>
        <time>2014-7-5T10:15:41.000Z</time>
      </trkpt>
      <trkpt lat="44.52507" lon="0.74189">
        <ele>78.5</ele>
        <time>2014-7-5T10:15:41.000Z</time>
      </trkpt>
      <trkpt lat="44.52504" lon="0.74186">
        <ele>77.5</ele>
        <time>2014-7-5T10:15:41.000Z</time>
      </trkpt>
      <trkpt lat="44.52504" lon="0.74186">
        <ele>77.5</ele>
        <time>2014-7-5T10:16:35.000Z</time>
      </trkpt>
      <trkpt lat="44.52499" lon="0.74183">
        <ele>77.5</ele>
        <time>2014-7-5T10:16:35.000Z</time>
      </trkpt>
      <trkpt lat="44.52499" lon="0.74183">
        <ele>77.5</ele>
        <time>2014-7-5T10:16:35.000Z</time>
      </trkpt>
      <trkpt lat="44.52495" lon="0.7418">
        <ele>77.5</ele>
        <time>2014-7-5T10:16:35.000Z</time>
      </trkpt>
      <trkpt lat="44.52495" lon="0.7418">
        <ele>77.5</ele>
        <time>2014-7-5T10:16:35.000Z</time>
      </trkpt>
      <trkpt lat="44.52491" lon="0.74177">
        <ele>77.5</ele>
        <time>2014-7-5T10:16:35.000Z</time>
      </trkpt>
      <trkpt lat="44.52491" lon="0.74177">
        <ele>77.5</ele>
        <time>2014-7-5T10:16:35.000Z</time>
      </trkpt>
      <trkpt lat="44.52487" lon="0.74174">
        <ele>77.5</ele>
        <time>2014-7-5T10:16:35.000Z</time>
      </trkpt>
      <trkpt lat="44.52487" lon="0.74174">
        <ele>77.5</ele>
        <time>2014-7-5T10:16:35.000Z</time>
      </trkpt>
      <trkpt lat="44.52483" lon="0.7417">
        <ele>77.5</ele>
        <time>2014-7-5T10:16:35.000Z</time>
      </trkpt>
      <trkpt lat="44.52483" lon="0.7417">
        <ele>77.5</ele>
        <time>2014-7-5T10:16:35.000Z</time>
      </trkpt>
      <trkpt lat="44.5248" lon="0.74167">
        <ele>77.5</ele>
        <time>2014-7-5T10:16:35.000Z</time>
      </trkpt>
      <trkpt lat="44.5248" lon="0.74167">
        <ele>77.5</ele>
        <time>2014-7-5T10:16:35.000Z</time>
      </trkpt>
      <trkpt lat="44.52476" lon="0.74164">
        <ele>77.5</ele>
        <time>2014-7-5T10:16:35.000Z</time>
      </trkpt>
      <trkpt lat="44.52476" lon="0.74164">
        <ele>77.5</ele>
        <time>2014-7-5T10:16:35.000Z</time>
      </trkpt>
      <trkpt lat="44.52473" lon="0.74161">
        <ele>77.5</ele>
        <time>2014-7-5T10:16:35.000Z</time>
      </trkpt>
      <trkpt lat="44.52473" lon="0.74161">
        <ele>77.5</ele>
        <time>2014-7-5T10:16:35.000Z</time>
      </trkpt>
      <trkpt lat="44.52469" lon="0.74158">
        <ele>78.5</ele>
        <time>2014-7-5T10:16:35.000Z</time>
      </trkpt>
      <trkpt lat="44.52469" lon="0.74158">
        <ele>78.5</ele>
        <time>2014-7-5T10:16:35.000Z</time>
      </trkpt>
      <trkpt lat="44.52466" lon="0.74155">
        <ele>78.5</ele>
        <time>2014-7-5T10:16:35.000Z</time>
      </trkpt>
      <trkpt lat="44.52466" lon="0.74155">
        <ele>78.5</ele>
        <time>2014-7-5T10:16:35.000Z</time>
      </trkpt>
      <trkpt lat="44.52462" lon="0.74152">
        <ele>78.5</ele>
        <time>2014-7-5T10:16:35.000Z</time>
      </trkpt>
      <trkpt lat="44.52462" lon="0.74152">
        <ele>78.5</ele>
        <time>2014-7-5T10:16:35.000Z</time>
      </trkpt>
      <trkpt lat="44.52458" lon="0.74149">
        <ele>78.5</ele>
        <time>2014-7-5T10:16:35.000Z</time>
      </trkpt>
      <trkpt lat="44.52458" lon="0.74149">
        <ele>78.5</ele>
        <time>2014-7-5T10:16:35.000Z</time>
      </trkpt>
      <trkpt lat="44.52455" lon="0.74147">
        <ele>79.5</ele>
        <time>2014-7-5T10:16:35.000Z</time>
      </trkpt>
      <trkpt lat="44.52455" lon="0.74147">
        <ele>79.5</ele>
        <time>2014-7-5T10:16:35.000Z</time>
      </trkpt>
      <trkpt lat="44.52452" lon="0.74145">
        <ele>79.5</ele>
        <time>2014-7-5T10:16:35.000Z</time>
      </trkpt>
      <trkpt lat="44.52452" lon="0.74145">
        <ele>79.5</ele>
        <time>2014-7-5T10:16:35.000Z</time>
      </trkpt>
      <trkpt lat="44.52449" lon="0.74142">
        <ele>80.5</ele>
        <time>2014-7-5T10:16:35.000Z</time>
      </trkpt>
      <trkpt lat="44.52449" lon="0.74142">
        <ele>80.5</ele>
        <time>2014-7-5T10:16:35.000Z</time>
      </trkpt>
      <trkpt lat="44.52446" lon="0.74139">
        <ele>79.5</ele>
        <time>2014-7-5T10:16:35.000Z</time>
      </trkpt>
      <trkpt lat="44.52446" lon="0.74139">
        <ele>79.5</ele>
        <time>2014-7-5T10:16:35.000Z</time>
      </trkpt>
      <trkpt lat="44.52443" lon="0.74136">
        <ele>78.5</ele>
        <time>2014-7-5T10:16:35.000Z</time>
      </trkpt>
      <trkpt lat="44.52443" lon="0.74136">
        <ele>78.5</ele>
        <time>2014-7-5T10:16:35.000Z</time>
      </trkpt>
      <trkpt lat="44.5244" lon="0.74134">
        <ele>79.5</ele>
        <time>2014-7-5T10:16:35.000Z</time>
      </trkpt>
      <trkpt lat="44.5244" lon="0.74134">
        <ele>79.5</ele>
        <time>2014-7-5T10:16:35.000Z</time>
      </trkpt>
      <trkpt lat="44.52436" lon="0.74131">
        <ele>78.5</ele>
        <time>2014-7-5T10:16:35.000Z</time>
      </trkpt>
      <trkpt lat="44.52436" lon="0.74131">
        <ele>78.5</ele>
        <time>2014-7-5T10:16:35.000Z</time>
      </trkpt>
      <trkpt lat="44.52432" lon="0.74129">
        <ele>78.5</ele>
        <time>2014-7-5T10:16:35.000Z</time>
      </trkpt>
      <trkpt lat="44.52432" lon="0.74129">
        <ele>78.5</ele>
        <time>2014-7-5T10:16:35.000Z</time>
      </trkpt>
      <trkpt lat="44.52429" lon="0.74126">
        <ele>78.5</ele>
        <time>2014-7-5T10:16:35.000Z</time>
      </trkpt>
      <trkpt lat="44.52429" lon="0.74126">
        <ele>78.5</ele>
        <time>2014-7-5T10:16:35.000Z</time>
      </trkpt>
      <trkpt lat="44.52425" lon="0.74124">
        <ele>78.5</ele>
        <time>2014-7-5T10:16:35.000Z</time>
      </trkpt>
      <trkpt lat="44.52425" lon="0.74124">
        <ele>78.5</ele>
        <time>2014-7-5T10:16:35.000Z</time>
      </trkpt>
      <trkpt lat="44.52421" lon="0.74121">
        <ele>78.5</ele>
        <time>2014-7-5T10:16:35.000Z</time>
      </trkpt>
      <trkpt lat="44.52421" lon="0.74121">
        <ele>78.5</ele>
        <time>2014-7-5T10:16:35.000Z</time>
      </trkpt>
      <trkpt lat="44.52418" lon="0.74119">
        <ele>78.5</ele>
        <time>2014-7-5T10:16:35.000Z</time>
      </trkpt>
      <trkpt lat="44.52418" lon="0.74119">
        <ele>78.5</ele>
        <time>2014-7-5T10:16:35.000Z</time>
      </trkpt>
      <trkpt lat="44.52414" lon="0.74116">
        <ele>78.5</ele>
        <time>2014-7-5T10:16:35.000Z</time>
      </trkpt>
      <trkpt lat="44.52414" lon="0.74116">
        <ele>78.5</ele>
        <time>2014-7-5T10:16:35.000Z</time>
      </trkpt>
      <trkpt lat="44.5241" lon="0.74114">
        <ele>78.5</ele>
        <time>2014-7-5T10:16:35.000Z</time>
      </trkpt>
      <trkpt lat="44.5241" lon="0.74114">
        <ele>78.5</ele>
        <time>2014-7-5T10:16:35.000Z</time>
      </trkpt>
      <trkpt lat="44.52406" lon="0.74111">
        <ele>78.5</ele>
        <time>2014-7-5T10:16:35.000Z</time>
      </trkpt>
      <trkpt lat="44.52406" lon="0.74111">
        <ele>78.5</ele>
        <time>2014-7-5T10:16:35.000Z</time>
      </trkpt>
      <trkpt lat="44.52401" lon="0.74108">
        <ele>78.5</ele>
        <time>2014-7-5T10:16:35.000Z</time>
      </trkpt>
      <trkpt lat="44.52401" lon="0.74108">
        <ele>78.5</ele>
        <time>2014-7-5T10:16:35.000Z</time>
      </trkpt>
      <trkpt lat="44.52397" lon="0.74105">
        <ele>78.5</ele>
        <time>2014-7-5T10:16:35.000Z</time>
      </trkpt>
      <trkpt lat="44.52397" lon="0.74105">
        <ele>78.5</ele>
        <time>2014-7-5T10:16:35.000Z</time>
      </trkpt>
      <trkpt lat="44.52393" lon="0.74102">
        <ele>78.5</ele>
        <time>2014-7-5T10:16:35.000Z</time>
      </trkpt>
      <trkpt lat="44.52393" lon="0.74102">
        <ele>78.5</ele>
        <time>2014-7-5T10:16:35.000Z</time>
      </trkpt>
      <trkpt lat="44.52389" lon="0.74099">
        <ele>78.5</ele>
        <time>2014-7-5T10:16:35.000Z</time>
      </trkpt>
      <trkpt lat="44.52389" lon="0.74099">
        <ele>78.5</ele>
        <time>2014-7-5T10:16:35.000Z</time>
      </trkpt>
      <trkpt lat="44.52386" lon="0.74096">
        <ele>77.5</ele>
        <time>2014-7-5T10:16:35.000Z</time>
      </trkpt>
      <trkpt lat="44.52386" lon="0.74096">
        <ele>77.5</ele>
        <time>2014-7-5T10:16:35.000Z</time>
      </trkpt>
      <trkpt lat="44.52382" lon="0.74094">
        <ele>78.5</ele>
        <time>2014-7-5T10:16:35.000Z</time>
      </trkpt>
      <trkpt lat="44.52382" lon="0.74094">
        <ele>78.5</ele>
        <time>2014-7-5T10:16:35.000Z</time>
      </trkpt>
      <trkpt lat="44.52378" lon="0.74092">
        <ele>77.5</ele>
        <time>2014-7-5T10:16:35.000Z</time>
      </trkpt>
      <trkpt lat="44.52378" lon="0.74092">
        <ele>77.5</ele>
        <time>2014-7-5T10:16:35.000Z</time>
      </trkpt>
      <trkpt lat="44.52376" lon="0.74089">
        <ele>77.5</ele>
        <time>2014-7-5T10:16:35.000Z</time>
      </trkpt>
      <trkpt lat="44.52376" lon="0.74089">
        <ele>77.5</ele>
        <time>2014-7-5T10:16:35.000Z</time>
      </trkpt>
      <trkpt lat="44.52373" lon="0.74086">
        <ele>77.5</ele>
        <time>2014-7-5T10:16:35.000Z</time>
      </trkpt>
      <trkpt lat="44.52373" lon="0.74086">
        <ele>77.5</ele>
        <time>2014-7-5T10:16:35.000Z</time>
      </trkpt>
      <trkpt lat="44.5237" lon="0.74084">
        <ele>76.5</ele>
        <time>2014-7-5T10:16:35.000Z</time>
      </trkpt>
      <trkpt lat="44.5237" lon="0.74084">
        <ele>76.5</ele>
        <time>2014-7-5T10:16:35.000Z</time>
      </trkpt>
      <trkpt lat="44.52368" lon="0.74081">
        <ele>76.5</ele>
        <time>2014-7-5T10:16:35.000Z</time>
      </trkpt>
      <trkpt lat="44.52368" lon="0.74081">
        <ele>76.5</ele>
        <time>2014-7-5T10:16:35.000Z</time>
      </trkpt>
      <trkpt lat="44.52364" lon="0.74078">
        <ele>77.5</ele>
        <time>2014-7-5T10:16:35.000Z</time>
      </trkpt>
      <trkpt lat="44.52364" lon="0.74078">
        <ele>77.5</ele>
        <time>2014-7-5T10:16:35.000Z</time>
      </trkpt>
      <trkpt lat="44.52362" lon="0.74075">
        <ele>77.5</ele>
        <time>2014-7-5T10:16:35.000Z</time>
      </trkpt>
      <trkpt lat="44.52362" lon="0.74075">
        <ele>77.5</ele>
        <time>2014-7-5T10:16:35.000Z</time>
      </trkpt>
      <trkpt lat="44.52359" lon="0.74073">
        <ele>77.5</ele>
        <time>2014-7-5T10:16:35.000Z</time>
      </trkpt>
      <trkpt lat="44.52359" lon="0.74073">
        <ele>77.5</ele>
        <time>2014-7-5T10:16:35.000Z</time>
      </trkpt>
      <trkpt lat="44.52357" lon="0.74071">
        <ele>77.5</ele>
        <time>2014-7-5T10:16:35.000Z</time>
      </trkpt>
      <trkpt lat="44.52357" lon="0.74071">
        <ele>77.5</ele>
        <time>2014-7-5T10:16:35.000Z</time>
      </trkpt>
      <trkpt lat="44.52354" lon="0.74069">
        <ele>76.5</ele>
        <time>2014-7-5T10:16:35.000Z</time>
      </trkpt>
      <trkpt lat="44.52354" lon="0.74069">
        <ele>76.5</ele>
        <time>2014-7-5T10:16:35.000Z</time>
      </trkpt>
      <trkpt lat="44.52351" lon="0.74067">
        <ele>76.5</ele>
        <time>2014-7-5T10:16:35.000Z</time>
      </trkpt>
      <trkpt lat="44.52351" lon="0.74067">
        <ele>76.5</ele>
        <time>2014-7-5T10:16:35.000Z</time>
      </trkpt>
      <trkpt lat="44.52349" lon="0.74067">
        <ele>77.5</ele>
        <time>2014-7-5T10:16:35.000Z</time>
      </trkpt>
      <trkpt lat="44.52349" lon="0.74067">
        <ele>77.5</ele>
        <time>2014-7-5T10:16:35.000Z</time>
      </trkpt>
      <trkpt lat="44.52347" lon="0.74066">
        <ele>77.5</ele>
        <time>2014-7-5T10:16:35.000Z</time>
      </trkpt>
      <trkpt lat="44.52347" lon="0.74066">
        <ele>77.5</ele>
        <time>2014-7-5T10:16:35.000Z</time>
      </trkpt>
      <trkpt lat="44.52343" lon="0.74067">
        <ele>78.5</ele>
        <time>2014-7-5T10:16:35.000Z</time>
      </trkpt>
      <trkpt lat="44.52343" lon="0.74067">
        <ele>78.5</ele>
        <time>2014-7-5T10:16:35.000Z</time>
      </trkpt>
      <trkpt lat="44.52341" lon="0.74067">
        <ele>78.5</ele>
        <time>2014-7-5T10:16:35.000Z</time>
      </trkpt>
      <trkpt lat="44.52341" lon="0.74067">
        <ele>78.5</ele>
        <time>2014-7-5T10:16:35.000Z</time>
      </trkpt>
      <trkpt lat="44.52338" lon="0.74067">
        <ele>79.5</ele>
        <time>2014-7-5T10:16:35.000Z</time>
      </trkpt>
      <trkpt lat="44.52338" lon="0.74067">
        <ele>79.5</ele>
        <time>2014-7-5T10:16:35.000Z</time>
      </trkpt>
      <trkpt lat="44.52336" lon="0.74067">
        <ele>80.5</ele>
        <time>2014-7-5T10:16:35.000Z</time>
      </trkpt>
      <trkpt lat="44.52336" lon="0.74067">
        <ele>80.5</ele>
        <time>2014-7-5T10:16:35.000Z</time>
      </trkpt>
      <trkpt lat="44.52334" lon="0.74068">
        <ele>80.5</ele>
        <time>2014-7-5T10:17:42.000Z</time>
      </trkpt>
      <trkpt lat="44.52334" lon="0.74068">
        <ele>80.5</ele>
        <time>2014-7-5T10:17:42.000Z</time>
      </trkpt>
      <trkpt lat="44.52332" lon="0.74069">
        <ele>81.5</ele>
        <time>2014-7-5T10:17:42.000Z</time>
      </trkpt>
      <trkpt lat="44.52332" lon="0.74069">
        <ele>81.5</ele>
        <time>2014-7-5T10:17:42.000Z</time>
      </trkpt>
      <trkpt lat="44.52331" lon="0.7407">
        <ele>81.5</ele>
        <time>2014-7-5T10:17:42.000Z</time>
      </trkpt>
      <trkpt lat="44.52331" lon="0.7407">
        <ele>81.5</ele>
        <time>2014-7-5T10:17:42.000Z</time>
      </trkpt>
      <trkpt lat="44.52328" lon="0.74072">
        <ele>80.5</ele>
        <time>2014-7-5T10:17:42.000Z</time>
      </trkpt>
      <trkpt lat="44.52328" lon="0.74072">
        <ele>80.5</ele>
        <time>2014-7-5T10:17:42.000Z</time>
      </trkpt>
      <trkpt lat="44.52325" lon="0.7407">
        <ele>80.5</ele>
        <time>2014-7-5T10:17:42.000Z</time>
      </trkpt>
      <trkpt lat="44.52325" lon="0.7407">
        <ele>80.5</ele>
        <time>2014-7-5T10:17:42.000Z</time>
      </trkpt>
      <trkpt lat="44.52323" lon="0.74069">
        <ele>83.5</ele>
        <time>2014-7-5T10:17:42.000Z</time>
      </trkpt>
      <trkpt lat="44.52323" lon="0.74069">
        <ele>83.5</ele>
        <time>2014-7-5T10:17:42.000Z</time>
      </trkpt>
      <trkpt lat="44.52321" lon="0.74068">
        <ele>86.5</ele>
        <time>2014-7-5T10:17:42.000Z</time>
      </trkpt>
      <trkpt lat="44.52321" lon="0.74068">
        <ele>86.5</ele>
        <time>2014-7-5T10:17:42.000Z</time>
      </trkpt>
      <trkpt lat="44.52318" lon="0.74068">
        <ele>86.5</ele>
        <time>2014-7-5T10:17:42.000Z</time>
      </trkpt>
      <trkpt lat="44.52318" lon="0.74068">
        <ele>86.5</ele>
        <time>2014-7-5T10:17:42.000Z</time>
      </trkpt>
      <trkpt lat="44.52316" lon="0.74068">
        <ele>87.5</ele>
        <time>2014-7-5T10:17:42.000Z</time>
      </trkpt>
      <trkpt lat="44.52316" lon="0.74068">
        <ele>87.5</ele>
        <time>2014-7-5T10:17:42.000Z</time>
      </trkpt>
      <trkpt lat="44.52313" lon="0.74068">
        <ele>86.5</ele>
        <time>2014-7-5T10:17:42.000Z</time>
      </trkpt>
      <trkpt lat="44.52313" lon="0.74068">
        <ele>86.5</ele>
        <time>2014-7-5T10:17:42.000Z</time>
      </trkpt>
      <trkpt lat="44.5231" lon="0.7407">
        <ele>87.5</ele>
        <time>2014-7-5T10:17:42.000Z</time>
      </trkpt>
      <trkpt lat="44.5231" lon="0.7407">
        <ele>87.5</ele>
        <time>2014-7-5T10:17:42.000Z</time>
      </trkpt>
      <trkpt lat="44.52308" lon="0.74071">
        <ele>88.5</ele>
        <time>2014-7-5T10:17:42.000Z</time>
      </trkpt>
      <trkpt lat="44.52308" lon="0.74071">
        <ele>88.5</ele>
        <time>2014-7-5T10:17:42.000Z</time>
      </trkpt>
      <trkpt lat="44.52306" lon="0.74071">
        <ele>86.5</ele>
        <time>2014-7-5T10:17:42.000Z</time>
      </trkpt>
      <trkpt lat="44.52306" lon="0.74071">
        <ele>86.5</ele>
        <time>2014-7-5T10:17:42.000Z</time>
      </trkpt>
      <trkpt lat="44.52304" lon="0.7407">
        <ele>86.5</ele>
        <time>2014-7-5T10:17:42.000Z</time>
      </trkpt>
      <trkpt lat="44.52304" lon="0.7407">
        <ele>86.5</ele>
        <time>2014-7-5T10:17:42.000Z</time>
      </trkpt>
      <trkpt lat="44.52302" lon="0.74071">
        <ele>85.5</ele>
        <time>2014-7-5T10:17:42.000Z</time>
      </trkpt>
      <trkpt lat="44.52302" lon="0.74071">
        <ele>85.5</ele>
        <time>2014-7-5T10:17:42.000Z</time>
      </trkpt>
      <trkpt lat="44.523" lon="0.74072">
        <ele>84.5</ele>
        <time>2014-7-5T10:17:42.000Z</time>
      </trkpt>
      <trkpt lat="44.523" lon="0.74072">
        <ele>84.5</ele>
        <time>2014-7-5T10:17:42.000Z</time>
      </trkpt>
      <trkpt lat="44.52298" lon="0.74074">
        <ele>83.5</ele>
        <time>2014-7-5T10:17:42.000Z</time>
      </trkpt>
      <trkpt lat="44.52298" lon="0.74074">
        <ele>83.5</ele>
        <time>2014-7-5T10:17:42.000Z</time>
      </trkpt>
      <trkpt lat="44.52297" lon="0.74077">
        <ele>82.5</ele>
        <time>2014-7-5T10:17:42.000Z</time>
      </trkpt>
      <trkpt lat="44.52297" lon="0.74077">
        <ele>82.5</ele>
        <time>2014-7-5T10:17:42.000Z</time>
      </trkpt>
      <trkpt lat="44.52294" lon="0.74079">
        <ele>81.5</ele>
        <time>2014-7-5T10:17:42.000Z</time>
      </trkpt>
      <trkpt lat="44.52294" lon="0.74079">
        <ele>81.5</ele>
        <time>2014-7-5T10:17:42.000Z</time>
      </trkpt>
      <trkpt lat="44.5229" lon="0.7408">
        <ele>82.5</ele>
        <time>2014-7-5T10:17:42.000Z</time>
      </trkpt>
      <trkpt lat="44.5229" lon="0.7408">
        <ele>82.5</ele>
        <time>2014-7-5T10:17:42.000Z</time>
      </trkpt>
      <trkpt lat="44.52287" lon="0.74082">
        <ele>83.5</ele>
        <time>2014-7-5T10:17:42.000Z</time>
      </trkpt>
      <trkpt lat="44.52287" lon="0.74082">
        <ele>83.5</ele>
        <time>2014-7-5T10:17:42.000Z</time>
      </trkpt>
      <trkpt lat="44.52285" lon="0.74084">
        <ele>83.5</ele>
        <time>2014-7-5T10:17:42.000Z</time>
      </trkpt>
      <trkpt lat="44.52285" lon="0.74084">
        <ele>83.5</ele>
        <time>2014-7-5T10:17:42.000Z</time>
      </trkpt>
      <trkpt lat="44.52283" lon="0.74085">
        <ele>82.5</ele>
        <time>2014-7-5T10:17:42.000Z</time>
      </trkpt>
      <trkpt lat="44.52283" lon="0.74085">
        <ele>82.5</ele>
        <time>2014-7-5T10:17:42.000Z</time>
      </trkpt>
      <trkpt lat="44.5228" lon="0.74086">
        <ele>84.5</ele>
        <time>2014-7-5T10:17:42.000Z</time>
      </trkpt>
      <trkpt lat="44.5228" lon="0.74086">
        <ele>84.5</ele>
        <time>2014-7-5T10:17:42.000Z</time>
      </trkpt>
      <trkpt lat="44.52278" lon="0.74087">
        <ele>84.5</ele>
        <time>2014-7-5T10:17:42.000Z</time>
      </trkpt>
      <trkpt lat="44.52278" lon="0.74087">
        <ele>84.5</ele>
        <time>2014-7-5T10:17:42.000Z</time>
      </trkpt>
      <trkpt lat="44.52276" lon="0.74088">
        <ele>85.5</ele>
        <time>2014-7-5T10:17:42.000Z</time>
      </trkpt>
      <trkpt lat="44.52276" lon="0.74088">
        <ele>85.5</ele>
        <time>2014-7-5T10:17:42.000Z</time>
      </trkpt>
      <trkpt lat="44.52274" lon="0.74091">
        <ele>83.5</ele>
        <time>2014-7-5T10:17:42.000Z</time>
      </trkpt>
      <trkpt lat="44.52274" lon="0.74091">
        <ele>83.5</ele>
        <time>2014-7-5T10:17:42.000Z</time>
      </trkpt>
      <trkpt lat="44.52271" lon="0.74092">
        <ele>87.5</ele>
        <time>2014-7-5T10:17:42.000Z</time>
      </trkpt>
      <trkpt lat="44.52271" lon="0.74092">
        <ele>87.5</ele>
        <time>2014-7-5T10:17:42.000Z</time>
      </trkpt>
      <trkpt lat="44.52268" lon="0.74092">
        <ele>87.5</ele>
        <time>2014-7-5T10:17:42.000Z</time>
      </trkpt>
      <trkpt lat="44.52268" lon="0.74092">
        <ele>87.5</ele>
        <time>2014-7-5T10:17:42.000Z</time>
      </trkpt>
      <trkpt lat="44.52265" lon="0.74092">
        <ele>87.5</ele>
        <time>2014-7-5T10:17:42.000Z</time>
      </trkpt>
      <trkpt lat="44.52265" lon="0.74092">
        <ele>87.5</ele>
        <time>2014-7-5T10:17:42.000Z</time>
      </trkpt>
      <trkpt lat="44.52262" lon="0.74093">
        <ele>87.5</ele>
        <time>2014-7-5T10:17:42.000Z</time>
      </trkpt>
      <trkpt lat="44.52262" lon="0.74093">
        <ele>87.5</ele>
        <time>2014-7-5T10:17:42.000Z</time>
      </trkpt>
      <trkpt lat="44.5226" lon="0.74093">
        <ele>89.5</ele>
        <time>2014-7-5T10:17:42.000Z</time>
      </trkpt>
      <trkpt lat="44.5226" lon="0.74093">
        <ele>89.5</ele>
        <time>2014-7-5T10:17:42.000Z</time>
      </trkpt>
      <trkpt lat="44.52258" lon="0.74093">
        <ele>90.5</ele>
        <time>2014-7-5T10:17:42.000Z</time>
      </trkpt>
      <trkpt lat="44.52258" lon="0.74093">
        <ele>90.5</ele>
        <time>2014-7-5T10:17:42.000Z</time>
      </trkpt>
      <trkpt lat="44.52255" lon="0.74093">
        <ele>92.5</ele>
        <time>2014-7-5T10:17:42.000Z</time>
      </trkpt>
      <trkpt lat="44.52255" lon="0.74093">
        <ele>92.5</ele>
        <time>2014-7-5T10:17:42.000Z</time>
      </trkpt>
      <trkpt lat="44.52252" lon="0.74094">
        <ele>90.5</ele>
        <time>2014-7-5T10:17:42.000Z</time>
      </trkpt>
      <trkpt lat="44.52252" lon="0.74094">
        <ele>90.5</ele>
        <time>2014-7-5T10:17:42.000Z</time>
      </trkpt>
      <trkpt lat="44.5225" lon="0.74094">
        <ele>90.5</ele>
        <time>2014-7-5T10:17:42.000Z</time>
      </trkpt>
      <trkpt lat="44.5225" lon="0.74094">
        <ele>90.5</ele>
        <time>2014-7-5T10:17:42.000Z</time>
      </trkpt>
      <trkpt lat="44.52248" lon="0.74095">
        <ele>91.5</ele>
        <time>2014-7-5T10:17:42.000Z</time>
      </trkpt>
      <trkpt lat="44.52248" lon="0.74095">
        <ele>91.5</ele>
        <time>2014-7-5T10:17:42.000Z</time>
      </trkpt>
      <trkpt lat="44.52246" lon="0.74095">
        <ele>90.5</ele>
        <time>2014-7-5T10:17:42.000Z</time>
      </trkpt>
      <trkpt lat="44.52246" lon="0.74095">
        <ele>90.5</ele>
        <time>2014-7-5T10:17:42.000Z</time>
      </trkpt>
      <trkpt lat="44.52244" lon="0.74096">
        <ele>91.5</ele>
        <time>2014-7-5T10:17:42.000Z</time>
      </trkpt>
      <trkpt lat="44.52244" lon="0.74096">
        <ele>91.5</ele>
        <time>2014-7-5T10:17:42.000Z</time>
      </trkpt>
      <trkpt lat="44.5224" lon="0.74096">
        <ele>94.5</ele>
        <time>2014-7-5T10:17:42.000Z</time>
      </trkpt>
      <trkpt lat="44.5224" lon="0.74096">
        <ele>94.5</ele>
        <time>2014-7-5T10:17:42.000Z</time>
      </trkpt>
      <trkpt lat="44.52238" lon="0.74096">
        <ele>95.5</ele>
        <time>2014-7-5T10:17:42.000Z</time>
      </trkpt>
      <trkpt lat="44.52238" lon="0.74096">
        <ele>95.5</ele>
        <time>2014-7-5T10:17:42.000Z</time>
      </trkpt>
      <trkpt lat="44.52236" lon="0.74095">
        <ele>95.5</ele>
        <time>2014-7-5T10:17:42.000Z</time>
      </trkpt>
      <trkpt lat="44.52236" lon="0.74095">
        <ele>95.5</ele>
        <time>2014-7-5T10:17:42.000Z</time>
      </trkpt>
      <trkpt lat="44.52234" lon="0.74095">
        <ele>96.5</ele>
        <time>2014-7-5T10:17:42.000Z</time>
      </trkpt>
      <trkpt lat="44.52234" lon="0.74095">
        <ele>96.5</ele>
        <time>2014-7-5T10:17:42.000Z</time>
      </trkpt>
      <trkpt lat="44.52232" lon="0.74094">
        <ele>95.5</ele>
        <time>2014-7-5T10:17:42.000Z</time>
      </trkpt>
      <trkpt lat="44.52232" lon="0.74094">
        <ele>95.5</ele>
        <time>2014-7-5T10:17:42.000Z</time>
      </trkpt>
      <trkpt lat="44.5223" lon="0.74094">
        <ele>96.5</ele>
        <time>2014-7-5T10:17:42.000Z</time>
      </trkpt>
      <trkpt lat="44.5223" lon="0.74094">
        <ele>96.5</ele>
        <time>2014-7-5T10:17:42.000Z</time>
      </trkpt>
      <trkpt lat="44.52228" lon="0.74094">
        <ele>96.5</ele>
        <time>2014-7-5T10:17:42.000Z</time>
      </trkpt>
      <trkpt lat="44.52228" lon="0.74094">
        <ele>96.5</ele>
        <time>2014-7-5T10:17:42.000Z</time>
      </trkpt>
      <trkpt lat="44.52225" lon="0.74096">
        <ele>95.5</ele>
        <time>2014-7-5T10:17:42.000Z</time>
      </trkpt>
      <trkpt lat="44.52225" lon="0.74096">
        <ele>95.5</ele>
        <time>2014-7-5T10:17:42.000Z</time>
      </trkpt>
      <trkpt lat="44.52223" lon="0.74097">
        <ele>94.5</ele>
        <time>2014-7-5T10:17:42.000Z</time>
      </trkpt>
      <trkpt lat="44.52223" lon="0.74097">
        <ele>94.5</ele>
        <time>2014-7-5T10:17:42.000Z</time>
      </trkpt>
      <trkpt lat="44.52221" lon="0.74101">
        <ele>94.5</ele>
        <time>2014-7-5T10:17:42.000Z</time>
      </trkpt>
      <trkpt lat="44.52221" lon="0.74101">
        <ele>94.5</ele>
        <time>2014-7-5T10:17:42.000Z</time>
      </trkpt>
      <trkpt lat="44.5222" lon="0.74104">
        <ele>94.5</ele>
        <time>2014-7-5T10:17:42.000Z</time>
      </trkpt>
      <trkpt lat="44.5222" lon="0.74104">
        <ele>94.5</ele>
        <time>2014-7-5T10:17:42.000Z</time>
      </trkpt>
      <trkpt lat="44.52218" lon="0.74105">
        <ele>94.5</ele>
        <time>2014-7-5T10:17:42.000Z</time>
      </trkpt>
      <trkpt lat="44.52218" lon="0.74105">
        <ele>94.5</ele>
        <time>2014-7-5T10:18:36.000Z</time>
      </trkpt>
      <trkpt lat="44.52215" lon="0.74106">
        <ele>95.5</ele>
        <time>2014-7-5T10:18:36.000Z</time>
      </trkpt>
      <trkpt lat="44.52215" lon="0.74106">
        <ele>95.5</ele>
        <time>2014-7-5T10:18:36.000Z</time>
      </trkpt>
      <trkpt lat="44.52212" lon="0.74108">
        <ele>94.5</ele>
        <time>2014-7-5T10:18:36.000Z</time>
      </trkpt>
      <trkpt lat="44.52212" lon="0.74108">
        <ele>94.5</ele>
        <time>2014-7-5T10:18:36.000Z</time>
      </trkpt>
      <trkpt lat="44.52209" lon="0.7411">
        <ele>94.5</ele>
        <time>2014-7-5T10:18:36.000Z</time>
      </trkpt>
      <trkpt lat="44.52209" lon="0.7411">
        <ele>94.5</ele>
        <time>2014-7-5T10:18:36.000Z</time>
      </trkpt>
      <trkpt lat="44.52205" lon="0.74113">
        <ele>95.5</ele>
        <time>2014-7-5T10:18:36.000Z</time>
      </trkpt>
      <trkpt lat="44.52205" lon="0.74113">
        <ele>95.5</ele>
        <time>2014-7-5T10:18:36.000Z</time>
      </trkpt>
      <trkpt lat="44.52203" lon="0.74114">
        <ele>96.5</ele>
        <time>2014-7-5T10:18:36.000Z</time>
      </trkpt>
      <trkpt lat="44.52203" lon="0.74114">
        <ele>96.5</ele>
        <time>2014-7-5T10:18:36.000Z</time>
      </trkpt>
      <trkpt lat="44.52202" lon="0.74116">
        <ele>96.5</ele>
        <time>2014-7-5T10:18:36.000Z</time>
      </trkpt>
      <trkpt lat="44.52202" lon="0.74116">
        <ele>96.5</ele>
        <time>2014-7-5T10:18:36.000Z</time>
      </trkpt>
      <trkpt lat="44.52201" lon="0.74118">
        <ele>97.5</ele>
        <time>2014-7-5T10:18:36.000Z</time>
      </trkpt>
      <trkpt lat="44.52201" lon="0.74118">
        <ele>97.5</ele>
        <time>2014-7-5T10:18:36.000Z</time>
      </trkpt>
      <trkpt lat="44.52199" lon="0.7412">
        <ele>97.5</ele>
        <time>2014-7-5T10:18:36.000Z</time>
      </trkpt>
      <trkpt lat="44.52199" lon="0.7412">
        <ele>97.5</ele>
        <time>2014-7-5T10:18:36.000Z</time>
      </trkpt>
      <trkpt lat="44.52197" lon="0.74121">
        <ele>97.5</ele>
        <time>2014-7-5T10:18:36.000Z</time>
      </trkpt>
      <trkpt lat="44.52197" lon="0.74121">
        <ele>97.5</ele>
        <time>2014-7-5T10:18:36.000Z</time>
      </trkpt>
      <trkpt lat="44.52195" lon="0.74122">
        <ele>98.5</ele>
        <time>2014-7-5T10:18:36.000Z</time>
      </trkpt>
      <trkpt lat="44.52195" lon="0.74122">
        <ele>98.5</ele>
        <time>2014-7-5T10:18:36.000Z</time>
      </trkpt>
      <trkpt lat="44.52193" lon="0.74125">
        <ele>97.5</ele>
        <time>2014-7-5T10:18:36.000Z</time>
      </trkpt>
      <trkpt lat="44.52193" lon="0.74125">
        <ele>97.5</ele>
        <time>2014-7-5T10:18:36.000Z</time>
      </trkpt>
      <trkpt lat="44.52192" lon="0.74127">
        <ele>96.5</ele>
        <time>2014-7-5T10:18:36.000Z</time>
      </trkpt>
      <trkpt lat="44.52192" lon="0.74127">
        <ele>96.5</ele>
        <time>2014-7-5T10:18:36.000Z</time>
      </trkpt>
      <trkpt lat="44.5219" lon="0.7413">
        <ele>96.5</ele>
        <time>2014-7-5T10:18:36.000Z</time>
      </trkpt>
      <trkpt lat="44.5219" lon="0.7413">
        <ele>96.5</ele>
        <time>2014-7-5T10:18:36.000Z</time>
      </trkpt>
      <trkpt lat="44.52189" lon="0.74132">
        <ele>96.5</ele>
        <time>2014-7-5T10:18:36.000Z</time>
      </trkpt>
      <trkpt lat="44.52189" lon="0.74132">
        <ele>96.5</ele>
        <time>2014-7-5T10:18:36.000Z</time>
      </trkpt>
      <trkpt lat="44.52188" lon="0.74135">
        <ele>96.5</ele>
        <time>2014-7-5T10:18:36.000Z</time>
      </trkpt>
      <trkpt lat="44.52188" lon="0.74135">
        <ele>96.5</ele>
        <time>2014-7-5T10:18:36.000Z</time>
      </trkpt>
      <trkpt lat="44.52186" lon="0.74138">
        <ele>96.5</ele>
        <time>2014-7-5T10:18:36.000Z</time>
      </trkpt>
      <trkpt lat="44.52186" lon="0.74138">
        <ele>96.5</ele>
        <time>2014-7-5T10:18:36.000Z</time>
      </trkpt>
      <trkpt lat="44.52185" lon="0.7414">
        <ele>97.5</ele>
        <time>2014-7-5T10:18:36.000Z</time>
      </trkpt>
      <trkpt lat="44.52185" lon="0.7414">
        <ele>97.5</ele>
        <time>2014-7-5T10:18:36.000Z</time>
      </trkpt>
      <trkpt lat="44.52183" lon="0.74143">
        <ele>96.5</ele>
        <time>2014-7-5T10:18:36.000Z</time>
      </trkpt>
      <trkpt lat="44.52183" lon="0.74143">
        <ele>96.5</ele>
        <time>2014-7-5T10:18:36.000Z</time>
      </trkpt>
      <trkpt lat="44.52182" lon="0.74146">
        <ele>95.5</ele>
        <time>2014-7-5T10:18:36.000Z</time>
      </trkpt>
      <trkpt lat="44.52182" lon="0.74146">
        <ele>95.5</ele>
        <time>2014-7-5T10:18:36.000Z</time>
      </trkpt>
      <trkpt lat="44.5218" lon="0.74149">
        <ele>93.5</ele>
        <time>2014-7-5T10:18:36.000Z</time>
      </trkpt>
      <trkpt lat="44.5218" lon="0.74149">
        <ele>93.5</ele>
        <time>2014-7-5T10:18:36.000Z</time>
      </trkpt>
      <trkpt lat="44.52178" lon="0.74152">
        <ele>92.5</ele>
        <time>2014-7-5T10:18:36.000Z</time>
      </trkpt>
      <trkpt lat="44.52178" lon="0.74152">
        <ele>92.5</ele>
        <time>2014-7-5T10:18:36.000Z</time>
      </trkpt>
      <trkpt lat="44.52176" lon="0.74155">
        <ele>92.5</ele>
        <time>2014-7-5T10:18:36.000Z</time>
      </trkpt>
      <trkpt lat="44.52176" lon="0.74155">
        <ele>92.5</ele>
        <time>2014-7-5T10:18:36.000Z</time>
      </trkpt>
      <trkpt lat="44.52174" lon="0.74159">
        <ele>91.5</ele>
        <time>2014-7-5T10:18:36.000Z</time>
      </trkpt>
      <trkpt lat="44.52174" lon="0.74159">
        <ele>91.5</ele>
        <time>2014-7-5T10:18:36.000Z</time>
      </trkpt>
      <trkpt lat="44.52171" lon="0.74163">
        <ele>91.5</ele>
        <time>2014-7-5T10:18:36.000Z</time>
      </trkpt>
      <trkpt lat="44.52171" lon="0.74163">
        <ele>91.5</ele>
        <time>2014-7-5T10:18:36.000Z</time>
      </trkpt>
      <trkpt lat="44.52169" lon="0.74166">
        <ele>91.5</ele>
        <time>2014-7-5T10:18:36.000Z</time>
      </trkpt>
      <trkpt lat="44.52169" lon="0.74166">
        <ele>91.5</ele>
        <time>2014-7-5T10:18:36.000Z</time>
      </trkpt>
      <trkpt lat="44.52166" lon="0.74169">
        <ele>91.5</ele>
        <time>2014-7-5T10:18:36.000Z</time>
      </trkpt>
      <trkpt lat="44.52166" lon="0.74169">
        <ele>91.5</ele>
        <time>2014-7-5T10:18:36.000Z</time>
      </trkpt>
      <trkpt lat="44.52163" lon="0.74172">
        <ele>93.5</ele>
        <time>2014-7-5T10:18:36.000Z</time>
      </trkpt>
      <trkpt lat="44.52163" lon="0.74172">
        <ele>93.5</ele>
        <time>2014-7-5T10:18:36.000Z</time>
      </trkpt>
      <trkpt lat="44.52161" lon="0.74173">
        <ele>93.5</ele>
        <time>2014-7-5T10:18:36.000Z</time>
      </trkpt>
      <trkpt lat="44.52161" lon="0.74173">
        <ele>93.5</ele>
        <time>2014-7-5T10:18:36.000Z</time>
      </trkpt>
      <trkpt lat="44.52157" lon="0.74175">
        <ele>95.5</ele>
        <time>2014-7-5T10:18:36.000Z</time>
      </trkpt>
      <trkpt lat="44.52157" lon="0.74175">
        <ele>95.5</ele>
        <time>2014-7-5T10:18:36.000Z</time>
      </trkpt>
      <trkpt lat="44.52154" lon="0.74177">
        <ele>94.5</ele>
        <time>2014-7-5T10:18:36.000Z</time>
      </trkpt>
      <trkpt lat="44.52154" lon="0.74177">
        <ele>94.5</ele>
        <time>2014-7-5T10:18:36.000Z</time>
      </trkpt>
      <trkpt lat="44.52151" lon="0.74179">
        <ele>94.5</ele>
        <time>2014-7-5T10:18:36.000Z</time>
      </trkpt>
      <trkpt lat="44.52151" lon="0.74179">
        <ele>94.5</ele>
        <time>2014-7-5T10:18:36.000Z</time>
      </trkpt>
      <trkpt lat="44.52148" lon="0.74181">
        <ele>94.5</ele>
        <time>2014-7-5T10:18:36.000Z</time>
      </trkpt>
      <trkpt lat="44.52148" lon="0.74181">
        <ele>94.5</ele>
        <time>2014-7-5T10:18:36.000Z</time>
      </trkpt>
      <trkpt lat="44.52145" lon="0.74184">
        <ele>93.5</ele>
        <time>2014-7-5T10:18:36.000Z</time>
      </trkpt>
      <trkpt lat="44.52145" lon="0.74184">
        <ele>93.5</ele>
        <time>2014-7-5T10:18:36.000Z</time>
      </trkpt>
      <trkpt lat="44.52142" lon="0.74186">
        <ele>94.5</ele>
        <time>2014-7-5T10:18:36.000Z</time>
      </trkpt>
      <trkpt lat="44.52142" lon="0.74186">
        <ele>94.5</ele>
        <time>2014-7-5T10:18:36.000Z</time>
      </trkpt>
      <trkpt lat="44.5214" lon="0.74188">
        <ele>94.5</ele>
        <time>2014-7-5T10:18:36.000Z</time>
      </trkpt>
      <trkpt lat="44.5214" lon="0.74188">
        <ele>94.5</ele>
        <time>2014-7-5T10:18:36.000Z</time>
      </trkpt>
      <trkpt lat="44.52139" lon="0.7419">
        <ele>93.5</ele>
        <time>2014-7-5T10:18:36.000Z</time>
      </trkpt>
      <trkpt lat="44.52139" lon="0.7419">
        <ele>93.5</ele>
        <time>2014-7-5T10:18:36.000Z</time>
      </trkpt>
      <trkpt lat="44.52138" lon="0.74192">
        <ele>93.5</ele>
        <time>2014-7-5T10:18:36.000Z</time>
      </trkpt>
      <trkpt lat="44.52138" lon="0.74192">
        <ele>93.5</ele>
        <time>2014-7-5T10:18:36.000Z</time>
      </trkpt>
      <trkpt lat="44.52136" lon="0.74195">
        <ele>93.5</ele>
        <time>2014-7-5T10:18:36.000Z</time>
      </trkpt>
      <trkpt lat="44.52136" lon="0.74195">
        <ele>93.5</ele>
        <time>2014-7-5T10:18:36.000Z</time>
      </trkpt>
      <trkpt lat="44.52135" lon="0.74198">
        <ele>94.5</ele>
        <time>2014-7-5T10:18:36.000Z</time>
      </trkpt>
      <trkpt lat="44.52135" lon="0.74198">
        <ele>94.5</ele>
        <time>2014-7-5T10:18:36.000Z</time>
      </trkpt>
      <trkpt lat="44.52133" lon="0.74201">
        <ele>93.5</ele>
        <time>2014-7-5T10:18:36.000Z</time>
      </trkpt>
      <trkpt lat="44.52133" lon="0.74201">
        <ele>93.5</ele>
        <time>2014-7-5T10:18:36.000Z</time>
      </trkpt>
      <trkpt lat="44.5213" lon="0.74204">
        <ele>92.5</ele>
        <time>2014-7-5T10:18:36.000Z</time>
      </trkpt>
      <trkpt lat="44.5213" lon="0.74204">
        <ele>92.5</ele>
        <time>2014-7-5T10:18:36.000Z</time>
      </trkpt>
      <trkpt lat="44.52127" lon="0.74208">
        <ele>91.5</ele>
        <time>2014-7-5T10:18:36.000Z</time>
      </trkpt>
      <trkpt lat="44.52127" lon="0.74208">
        <ele>91.5</ele>
        <time>2014-7-5T10:18:36.000Z</time>
      </trkpt>
      <trkpt lat="44.52121" lon="0.74211">
        <ele>90.5</ele>
        <time>2014-7-5T10:18:36.000Z</time>
      </trkpt>
      <trkpt lat="44.52121" lon="0.74211">
        <ele>90.5</ele>
        <time>2014-7-5T10:18:36.000Z</time>
      </trkpt>
      <trkpt lat="44.52114" lon="0.74214">
        <ele>89.5</ele>
        <time>2014-7-5T10:18:36.000Z</time>
      </trkpt>
      <trkpt lat="44.52114" lon="0.74214">
        <ele>89.5</ele>
        <time>2014-7-5T10:18:36.000Z</time>
      </trkpt>
      <trkpt lat="44.52109" lon="0.74218">
        <ele>89.5</ele>
        <time>2014-7-5T10:18:36.000Z</time>
      </trkpt>
      <trkpt lat="44.52109" lon="0.74218">
        <ele>89.5</ele>
        <time>2014-7-5T10:18:36.000Z</time>
      </trkpt>
      <trkpt lat="44.52103" lon="0.74223">
        <ele>88.5</ele>
        <time>2014-7-5T10:18:36.000Z</time>
      </trkpt>
      <trkpt lat="44.52103" lon="0.74223">
        <ele>88.5</ele>
        <time>2014-7-5T10:18:36.000Z</time>
      </trkpt>
      <trkpt lat="44.52098" lon="0.74229">
        <ele>87.5</ele>
        <time>2014-7-5T10:18:36.000Z</time>
      </trkpt>
      <trkpt lat="44.52098" lon="0.74229">
        <ele>87.5</ele>
        <time>2014-7-5T10:18:36.000Z</time>
      </trkpt>
      <trkpt lat="44.52091" lon="0.74233">
        <ele>87.5</ele>
        <time>2014-7-5T10:18:36.000Z</time>
      </trkpt>
      <trkpt lat="44.52091" lon="0.74233">
        <ele>87.5</ele>
        <time>2014-7-5T10:18:36.000Z</time>
      </trkpt>
      <trkpt lat="44.52084" lon="0.74238">
        <ele>85.5</ele>
        <time>2014-7-5T10:18:36.000Z</time>
      </trkpt>
      <trkpt lat="44.52084" lon="0.74238">
        <ele>85.5</ele>
        <time>2014-7-5T10:18:36.000Z</time>
      </trkpt>
      <trkpt lat="44.52078" lon="0.74243">
        <ele>86.5</ele>
        <time>2014-7-5T10:18:36.000Z</time>
      </trkpt>
      <trkpt lat="44.52078" lon="0.74243">
        <ele>86.5</ele>
        <time>2014-7-5T10:18:36.000Z</time>
      </trkpt>
      <trkpt lat="44.52071" lon="0.74249">
        <ele>86.5</ele>
        <time>2014-7-5T10:19:27.000Z</time>
      </trkpt>
      <trkpt lat="44.52071" lon="0.74249">
        <ele>86.5</ele>
        <time>2014-7-5T10:19:27.000Z</time>
      </trkpt>
      <trkpt lat="44.52063" lon="0.74255">
        <ele>85.5</ele>
        <time>2014-7-5T10:19:27.000Z</time>
      </trkpt>
      <trkpt lat="44.52063" lon="0.74255">
        <ele>85.5</ele>
        <time>2014-7-5T10:19:27.000Z</time>
      </trkpt>
      <trkpt lat="44.52056" lon="0.74259">
        <ele>85.5</ele>
        <time>2014-7-5T10:19:27.000Z</time>
      </trkpt>
      <trkpt lat="44.52056" lon="0.74259">
        <ele>85.5</ele>
        <time>2014-7-5T10:19:27.000Z</time>
      </trkpt>
      <trkpt lat="44.52047" lon="0.74264">
        <ele>84.5</ele>
        <time>2014-7-5T10:19:27.000Z</time>
      </trkpt>
      <trkpt lat="44.52047" lon="0.74264">
        <ele>84.5</ele>
        <time>2014-7-5T10:19:27.000Z</time>
      </trkpt>
      <trkpt lat="44.5204" lon="0.74267">
        <ele>83.5</ele>
        <time>2014-7-5T10:19:27.000Z</time>
      </trkpt>
      <trkpt lat="44.5204" lon="0.74267">
        <ele>83.5</ele>
        <time>2014-7-5T10:19:27.000Z</time>
      </trkpt>
      <trkpt lat="44.52032" lon="0.74272">
        <ele>83.5</ele>
        <time>2014-7-5T10:19:27.000Z</time>
      </trkpt>
      <trkpt lat="44.52032" lon="0.74272">
        <ele>83.5</ele>
        <time>2014-7-5T10:19:27.000Z</time>
      </trkpt>
      <trkpt lat="44.52023" lon="0.74278">
        <ele>82.5</ele>
        <time>2014-7-5T10:19:27.000Z</time>
      </trkpt>
      <trkpt lat="44.52023" lon="0.74278">
        <ele>82.5</ele>
        <time>2014-7-5T10:19:27.000Z</time>
      </trkpt>
      <trkpt lat="44.52015" lon="0.74283">
        <ele>82.5</ele>
        <time>2014-7-5T10:19:27.000Z</time>
      </trkpt>
      <trkpt lat="44.52015" lon="0.74283">
        <ele>82.5</ele>
        <time>2014-7-5T10:19:27.000Z</time>
      </trkpt>
      <trkpt lat="44.52007" lon="0.74288">
        <ele>81.5</ele>
        <time>2014-7-5T10:19:27.000Z</time>
      </trkpt>
      <trkpt lat="44.52007" lon="0.74288">
        <ele>81.5</ele>
        <time>2014-7-5T10:19:27.000Z</time>
      </trkpt>
      <trkpt lat="44.51999" lon="0.74294">
        <ele>81.5</ele>
        <time>2014-7-5T10:19:27.000Z</time>
      </trkpt>
      <trkpt lat="44.51999" lon="0.74294">
        <ele>81.5</ele>
        <time>2014-7-5T10:19:27.000Z</time>
      </trkpt>
      <trkpt lat="44.51992" lon="0.74296">
        <ele>82.5</ele>
        <time>2014-7-5T10:19:27.000Z</time>
      </trkpt>
      <trkpt lat="44.51992" lon="0.74296">
        <ele>82.5</ele>
        <time>2014-7-5T10:19:27.000Z</time>
      </trkpt>
      <trkpt lat="44.51981" lon="0.74295">
        <ele>81.5</ele>
        <time>2014-7-5T10:19:27.000Z</time>
      </trkpt>
      <trkpt lat="44.51981" lon="0.74295">
        <ele>81.5</ele>
        <time>2014-7-5T10:19:27.000Z</time>
      </trkpt>
      <trkpt lat="44.51973" lon="0.7429">
        <ele>82.5</ele>
        <time>2014-7-5T10:19:27.000Z</time>
      </trkpt>
      <trkpt lat="44.51973" lon="0.7429">
        <ele>82.5</ele>
        <time>2014-7-5T10:19:27.000Z</time>
      </trkpt>
      <trkpt lat="44.5197" lon="0.7428">
        <ele>81.5</ele>
        <time>2014-7-5T10:19:27.000Z</time>
      </trkpt>
      <trkpt lat="44.5197" lon="0.7428">
        <ele>81.5</ele>
        <time>2014-7-5T10:19:27.000Z</time>
      </trkpt>
      <trkpt lat="44.51965" lon="0.74272">
        <ele>82.5</ele>
        <time>2014-7-5T10:19:27.000Z</time>
      </trkpt>
      <trkpt lat="44.51965" lon="0.74272">
        <ele>82.5</ele>
        <time>2014-7-5T10:19:27.000Z</time>
      </trkpt>
      <trkpt lat="44.51959" lon="0.74266">
        <ele>81.5</ele>
        <time>2014-7-5T10:19:27.000Z</time>
      </trkpt>
      <trkpt lat="44.51959" lon="0.74266">
        <ele>81.5</ele>
        <time>2014-7-5T10:19:27.000Z</time>
      </trkpt>
      <trkpt lat="44.51954" lon="0.74258">
        <ele>81.5</ele>
        <time>2014-7-5T10:19:27.000Z</time>
      </trkpt>
      <trkpt lat="44.51954" lon="0.74258">
        <ele>81.5</ele>
        <time>2014-7-5T10:19:27.000Z</time>
      </trkpt>
      <trkpt lat="44.51949" lon="0.74252">
        <ele>80.5</ele>
        <time>2014-7-5T10:19:27.000Z</time>
      </trkpt>
      <trkpt lat="44.51949" lon="0.74252">
        <ele>80.5</ele>
        <time>2014-7-5T10:19:27.000Z</time>
      </trkpt>
      <trkpt lat="44.51943" lon="0.74246">
        <ele>80.5</ele>
        <time>2014-7-5T10:19:27.000Z</time>
      </trkpt>
      <trkpt lat="44.51943" lon="0.74246">
        <ele>80.5</ele>
        <time>2014-7-5T10:19:27.000Z</time>
      </trkpt>
      <trkpt lat="44.51938" lon="0.7424">
        <ele>80.5</ele>
        <time>2014-7-5T10:19:27.000Z</time>
      </trkpt>
      <trkpt lat="44.51938" lon="0.7424">
        <ele>80.5</ele>
        <time>2014-7-5T10:19:27.000Z</time>
      </trkpt>
      <trkpt lat="44.51932" lon="0.74235">
        <ele>80.5</ele>
        <time>2014-7-5T10:19:27.000Z</time>
      </trkpt>
      <trkpt lat="44.51932" lon="0.74235">
        <ele>80.5</ele>
        <time>2014-7-5T10:19:27.000Z</time>
      </trkpt>
      <trkpt lat="44.51927" lon="0.74231">
        <ele>80.5</ele>
        <time>2014-7-5T10:19:27.000Z</time>
      </trkpt>
      <trkpt lat="44.51927" lon="0.74231">
        <ele>80.5</ele>
        <time>2014-7-5T10:19:27.000Z</time>
      </trkpt>
      <trkpt lat="44.51921" lon="0.74225">
        <ele>79.5</ele>
        <time>2014-7-5T10:19:27.000Z</time>
      </trkpt>
      <trkpt lat="44.51921" lon="0.74225">
        <ele>79.5</ele>
        <time>2014-7-5T10:19:27.000Z</time>
      </trkpt>
      <trkpt lat="44.51916" lon="0.74221">
        <ele>79.5</ele>
        <time>2014-7-5T10:19:27.000Z</time>
      </trkpt>
      <trkpt lat="44.51916" lon="0.74221">
        <ele>79.5</ele>
        <time>2014-7-5T10:19:27.000Z</time>
      </trkpt>
      <trkpt lat="44.51911" lon="0.74217">
        <ele>78.5</ele>
        <time>2014-7-5T10:19:27.000Z</time>
      </trkpt>
      <trkpt lat="44.51911" lon="0.74217">
        <ele>78.5</ele>
        <time>2014-7-5T10:19:27.000Z</time>
      </trkpt>
      <trkpt lat="44.51907" lon="0.74213">
        <ele>78.5</ele>
        <time>2014-7-5T10:19:27.000Z</time>
      </trkpt>
      <trkpt lat="44.51907" lon="0.74213">
        <ele>78.5</ele>
        <time>2014-7-5T10:19:27.000Z</time>
      </trkpt>
      <trkpt lat="44.51902" lon="0.74209">
        <ele>78.5</ele>
        <time>2014-7-5T10:19:27.000Z</time>
      </trkpt>
      <trkpt lat="44.51902" lon="0.74209">
        <ele>78.5</ele>
        <time>2014-7-5T10:19:27.000Z</time>
      </trkpt>
      <trkpt lat="44.51897" lon="0.74204">
        <ele>78.5</ele>
        <time>2014-7-5T10:19:27.000Z</time>
      </trkpt>
      <trkpt lat="44.51897" lon="0.74204">
        <ele>78.5</ele>
        <time>2014-7-5T10:19:27.000Z</time>
      </trkpt>
      <trkpt lat="44.51892" lon="0.742">
        <ele>77.5</ele>
        <time>2014-7-5T10:19:27.000Z</time>
      </trkpt>
      <trkpt lat="44.51892" lon="0.742">
        <ele>77.5</ele>
        <time>2014-7-5T10:19:27.000Z</time>
      </trkpt>
      <trkpt lat="44.51887" lon="0.74195">
        <ele>77.5</ele>
        <time>2014-7-5T10:19:27.000Z</time>
      </trkpt>
      <trkpt lat="44.51887" lon="0.74195">
        <ele>77.5</ele>
        <time>2014-7-5T10:19:27.000Z</time>
      </trkpt>
      <trkpt lat="44.51882" lon="0.74191">
        <ele>77.5</ele>
        <time>2014-7-5T10:19:27.000Z</time>
      </trkpt>
      <trkpt lat="44.51882" lon="0.74191">
        <ele>77.5</ele>
        <time>2014-7-5T10:19:27.000Z</time>
      </trkpt>
      <trkpt lat="44.51877" lon="0.74186">
        <ele>77.5</ele>
        <time>2014-7-5T10:19:27.000Z</time>
      </trkpt>
      <trkpt lat="44.51877" lon="0.74186">
        <ele>77.5</ele>
        <time>2014-7-5T10:19:27.000Z</time>
      </trkpt>
      <trkpt lat="44.51872" lon="0.74182">
        <ele>77.5</ele>
        <time>2014-7-5T10:19:27.000Z</time>
      </trkpt>
      <trkpt lat="44.51872" lon="0.74182">
        <ele>77.5</ele>
        <time>2014-7-5T10:19:27.000Z</time>
      </trkpt>
      <trkpt lat="44.51867" lon="0.74177">
        <ele>77.5</ele>
        <time>2014-7-5T10:19:27.000Z</time>
      </trkpt>
      <trkpt lat="44.51867" lon="0.74177">
        <ele>77.5</ele>
        <time>2014-7-5T10:19:27.000Z</time>
      </trkpt>
      <trkpt lat="44.51863" lon="0.74173">
        <ele>77.5</ele>
        <time>2014-7-5T10:19:27.000Z</time>
      </trkpt>
      <trkpt lat="44.51863" lon="0.74173">
        <ele>77.5</ele>
        <time>2014-7-5T10:19:27.000Z</time>
      </trkpt>
      <trkpt lat="44.51857" lon="0.74168">
        <ele>76.5</ele>
        <time>2014-7-5T10:19:27.000Z</time>
      </trkpt>
      <trkpt lat="44.51857" lon="0.74168">
        <ele>76.5</ele>
        <time>2014-7-5T10:19:27.000Z</time>
      </trkpt>
      <trkpt lat="44.51853" lon="0.74164">
        <ele>76.5</ele>
        <time>2014-7-5T10:19:27.000Z</time>
      </trkpt>
      <trkpt lat="44.51853" lon="0.74164">
        <ele>76.5</ele>
        <time>2014-7-5T10:19:27.000Z</time>
      </trkpt>
      <trkpt lat="44.51848" lon="0.7416">
        <ele>76.5</ele>
        <time>2014-7-5T10:19:27.000Z</time>
      </trkpt>
      <trkpt lat="44.51848" lon="0.7416">
        <ele>76.5</ele>
        <time>2014-7-5T10:19:27.000Z</time>
      </trkpt>
      <trkpt lat="44.51843" lon="0.74156">
        <ele>76.5</ele>
        <time>2014-7-5T10:19:27.000Z</time>
      </trkpt>
      <trkpt lat="44.51843" lon="0.74156">
        <ele>76.5</ele>
        <time>2014-7-5T10:19:27.000Z</time>
      </trkpt>
      <trkpt lat="44.51838" lon="0.74151">
        <ele>75.5</ele>
        <time>2014-7-5T10:19:27.000Z</time>
      </trkpt>
      <trkpt lat="44.51838" lon="0.74151">
        <ele>75.5</ele>
        <time>2014-7-5T10:19:27.000Z</time>
      </trkpt>
      <trkpt lat="44.51833" lon="0.74147">
        <ele>75.5</ele>
        <time>2014-7-5T10:19:27.000Z</time>
      </trkpt>
      <trkpt lat="44.51833" lon="0.74147">
        <ele>75.5</ele>
        <time>2014-7-5T10:19:27.000Z</time>
      </trkpt>
      <trkpt lat="44.51828" lon="0.74142">
        <ele>75.5</ele>
        <time>2014-7-5T10:19:27.000Z</time>
      </trkpt>
      <trkpt lat="44.51828" lon="0.74142">
        <ele>75.5</ele>
        <time>2014-7-5T10:19:27.000Z</time>
      </trkpt>
      <trkpt lat="44.51824" lon="0.74138">
        <ele>75.5</ele>
        <time>2014-7-5T10:19:27.000Z</time>
      </trkpt>
      <trkpt lat="44.51824" lon="0.74138">
        <ele>75.5</ele>
        <time>2014-7-5T10:19:27.000Z</time>
      </trkpt>
      <trkpt lat="44.51819" lon="0.74133">
        <ele>75.5</ele>
        <time>2014-7-5T10:19:27.000Z</time>
      </trkpt>
      <trkpt lat="44.51819" lon="0.74133">
        <ele>75.5</ele>
        <time>2014-7-5T10:19:27.000Z</time>
      </trkpt>
      <trkpt lat="44.51815" lon="0.7413">
        <ele>75.5</ele>
        <time>2014-7-5T10:19:27.000Z</time>
      </trkpt>
      <trkpt lat="44.51815" lon="0.7413">
        <ele>75.5</ele>
        <time>2014-7-5T10:19:27.000Z</time>
      </trkpt>
      <trkpt lat="44.51811" lon="0.74126">
        <ele>75.5</ele>
        <time>2014-7-5T10:19:27.000Z</time>
      </trkpt>
      <trkpt lat="44.51811" lon="0.74126">
        <ele>75.5</ele>
        <time>2014-7-5T10:19:27.000Z</time>
      </trkpt>
      <trkpt lat="44.51806" lon="0.74122">
        <ele>75.5</ele>
        <time>2014-7-5T10:19:27.000Z</time>
      </trkpt>
      <trkpt lat="44.51806" lon="0.74122">
        <ele>75.5</ele>
        <time>2014-7-5T10:19:27.000Z</time>
      </trkpt>
      <trkpt lat="44.51802" lon="0.74118">
        <ele>75.5</ele>
        <time>2014-7-5T10:19:27.000Z</time>
      </trkpt>
      <trkpt lat="44.51802" lon="0.74118">
        <ele>75.5</ele>
        <time>2014-7-5T10:19:27.000Z</time>
      </trkpt>
      <trkpt lat="44.51797" lon="0.74114">
        <ele>75.5</ele>
        <time>2014-7-5T10:19:27.000Z</time>
      </trkpt>
      <trkpt lat="44.51797" lon="0.74114">
        <ele>75.5</ele>
        <time>2014-7-5T10:19:27.000Z</time>
      </trkpt>
      <trkpt lat="44.51792" lon="0.74112">
        <ele>75.5</ele>
        <time>2014-7-5T10:19:27.000Z</time>
      </trkpt>
      <trkpt lat="44.51792" lon="0.74112">
        <ele>75.5</ele>
        <time>2014-7-5T10:19:27.000Z</time>
      </trkpt>
      <trkpt lat="44.51788" lon="0.74109">
        <ele>75.5</ele>
        <time>2014-7-5T10:19:27.000Z</time>
      </trkpt>
      <trkpt lat="44.51788" lon="0.74109">
        <ele>75.5</ele>
        <time>2014-7-5T10:22:6.000Z</time>
      </trkpt>
      <trkpt lat="44.51784" lon="0.74107">
        <ele>75.5</ele>
        <time>2014-7-5T10:22:6.000Z</time>
      </trkpt>
      <trkpt lat="44.51784" lon="0.74107">
        <ele>75.5</ele>
        <time>2014-7-5T10:22:6.000Z</time>
      </trkpt>
      <trkpt lat="44.5178" lon="0.74104">
        <ele>75.5</ele>
        <time>2014-7-5T10:22:6.000Z</time>
      </trkpt>
      <trkpt lat="44.5178" lon="0.74104">
        <ele>75.5</ele>
        <time>2014-7-5T10:22:6.000Z</time>
      </trkpt>
      <trkpt lat="44.51775" lon="0.74102">
        <ele>75.5</ele>
        <time>2014-7-5T10:22:6.000Z</time>
      </trkpt>
      <trkpt lat="44.51775" lon="0.74102">
        <ele>75.5</ele>
        <time>2014-7-5T10:22:6.000Z</time>
      </trkpt>
      <trkpt lat="44.51771" lon="0.74098">
        <ele>75.5</ele>
        <time>2014-7-5T10:22:6.000Z</time>
      </trkpt>
      <trkpt lat="44.51771" lon="0.74098">
        <ele>75.5</ele>
        <time>2014-7-5T10:22:6.000Z</time>
      </trkpt>
      <trkpt lat="44.51767" lon="0.74096">
        <ele>76.5</ele>
        <time>2014-7-5T10:22:6.000Z</time>
      </trkpt>
      <trkpt lat="44.51767" lon="0.74096">
        <ele>76.5</ele>
        <time>2014-7-5T10:22:6.000Z</time>
      </trkpt>
      <trkpt lat="44.51762" lon="0.74092">
        <ele>76.5</ele>
        <time>2014-7-5T10:22:6.000Z</time>
      </trkpt>
      <trkpt lat="44.51762" lon="0.74092">
        <ele>76.5</ele>
        <time>2014-7-5T10:22:6.000Z</time>
      </trkpt>
      <trkpt lat="44.51757" lon="0.74091">
        <ele>76.5</ele>
        <time>2014-7-5T10:22:6.000Z</time>
      </trkpt>
      <trkpt lat="44.51757" lon="0.74091">
        <ele>76.5</ele>
        <time>2014-7-5T10:22:6.000Z</time>
      </trkpt>
      <trkpt lat="44.51752" lon="0.74088">
        <ele>75.5</ele>
        <time>2014-7-5T10:22:6.000Z</time>
      </trkpt>
      <trkpt lat="44.51752" lon="0.74088">
        <ele>75.5</ele>
        <time>2014-7-5T10:22:6.000Z</time>
      </trkpt>
      <trkpt lat="44.51747" lon="0.74086">
        <ele>75.5</ele>
        <time>2014-7-5T10:22:6.000Z</time>
      </trkpt>
      <trkpt lat="44.51747" lon="0.74086">
        <ele>75.5</ele>
        <time>2014-7-5T10:22:6.000Z</time>
      </trkpt>
      <trkpt lat="44.51743" lon="0.74083">
        <ele>75.5</ele>
        <time>2014-7-5T10:22:6.000Z</time>
      </trkpt>
      <trkpt lat="44.51743" lon="0.74083">
        <ele>75.5</ele>
        <time>2014-7-5T10:22:6.000Z</time>
      </trkpt>
      <trkpt lat="44.51738" lon="0.74081">
        <ele>75.5</ele>
        <time>2014-7-5T10:22:6.000Z</time>
      </trkpt>
      <trkpt lat="44.51738" lon="0.74081">
        <ele>75.5</ele>
        <time>2014-7-5T10:22:6.000Z</time>
      </trkpt>
      <trkpt lat="44.51733" lon="0.74079">
        <ele>75.5</ele>
        <time>2014-7-5T10:22:6.000Z</time>
      </trkpt>
      <trkpt lat="44.51733" lon="0.74079">
        <ele>75.5</ele>
        <time>2014-7-5T10:22:6.000Z</time>
      </trkpt>
      <trkpt lat="44.51728" lon="0.74077">
        <ele>75.5</ele>
        <time>2014-7-5T10:22:6.000Z</time>
      </trkpt>
      <trkpt lat="44.51728" lon="0.74077">
        <ele>75.5</ele>
        <time>2014-7-5T10:22:6.000Z</time>
      </trkpt>
      <trkpt lat="44.51723" lon="0.74075">
        <ele>75.5</ele>
        <time>2014-7-5T10:22:6.000Z</time>
      </trkpt>
      <trkpt lat="44.51723" lon="0.74075">
        <ele>75.5</ele>
        <time>2014-7-5T10:22:6.000Z</time>
      </trkpt>
      <trkpt lat="44.51718" lon="0.74074">
        <ele>75.5</ele>
        <time>2014-7-5T10:22:6.000Z</time>
      </trkpt>
      <trkpt lat="44.51718" lon="0.74074">
        <ele>75.5</ele>
        <time>2014-7-5T10:22:6.000Z</time>
      </trkpt>
      <trkpt lat="44.51713" lon="0.74071">
        <ele>75.5</ele>
        <time>2014-7-5T10:22:6.000Z</time>
      </trkpt>
      <trkpt lat="44.51713" lon="0.74071">
        <ele>75.5</ele>
        <time>2014-7-5T10:22:6.000Z</time>
      </trkpt>
      <trkpt lat="44.51707" lon="0.74068">
        <ele>75.5</ele>
        <time>2014-7-5T10:22:6.000Z</time>
      </trkpt>
      <trkpt lat="44.51707" lon="0.74068">
        <ele>75.5</ele>
        <time>2014-7-5T10:22:6.000Z</time>
      </trkpt>
      <trkpt lat="44.51703" lon="0.74066">
        <ele>75.5</ele>
        <time>2014-7-5T10:22:6.000Z</time>
      </trkpt>
      <trkpt lat="44.51703" lon="0.74066">
        <ele>75.5</ele>
        <time>2014-7-5T10:22:6.000Z</time>
      </trkpt>
      <trkpt lat="44.51699" lon="0.74064">
        <ele>76.5</ele>
        <time>2014-7-5T10:22:6.000Z</time>
      </trkpt>
      <trkpt lat="44.51699" lon="0.74064">
        <ele>76.5</ele>
        <time>2014-7-5T10:22:6.000Z</time>
      </trkpt>
      <trkpt lat="44.51695" lon="0.74062">
        <ele>76.5</ele>
        <time>2014-7-5T10:22:6.000Z</time>
      </trkpt>
      <trkpt lat="44.51695" lon="0.74062">
        <ele>76.5</ele>
        <time>2014-7-5T10:22:6.000Z</time>
      </trkpt>
      <trkpt lat="44.51691" lon="0.74059">
        <ele>75.5</ele>
        <time>2014-7-5T10:22:6.000Z</time>
      </trkpt>
      <trkpt lat="44.51691" lon="0.74059">
        <ele>75.5</ele>
        <time>2014-7-5T10:22:6.000Z</time>
      </trkpt>
      <trkpt lat="44.51688" lon="0.74057">
        <ele>76.5</ele>
        <time>2014-7-5T10:22:6.000Z</time>
      </trkpt>
      <trkpt lat="44.51688" lon="0.74057">
        <ele>76.5</ele>
        <time>2014-7-5T10:22:6.000Z</time>
      </trkpt>
      <trkpt lat="44.51684" lon="0.74054">
        <ele>75.5</ele>
        <time>2014-7-5T10:22:6.000Z</time>
      </trkpt>
      <trkpt lat="44.51684" lon="0.74054">
        <ele>75.5</ele>
        <time>2014-7-5T10:22:6.000Z</time>
      </trkpt>
      <trkpt lat="44.5168" lon="0.74052">
        <ele>75.5</ele>
        <time>2014-7-5T10:22:6.000Z</time>
      </trkpt>
      <trkpt lat="44.5168" lon="0.74052">
        <ele>75.5</ele>
        <time>2014-7-5T10:22:6.000Z</time>
      </trkpt>
      <trkpt lat="44.51677" lon="0.74051">
        <ele>76.5</ele>
        <time>2014-7-5T10:22:6.000Z</time>
      </trkpt>
      <trkpt lat="44.51677" lon="0.74051">
        <ele>76.5</ele>
        <time>2014-7-5T10:22:6.000Z</time>
      </trkpt>
      <trkpt lat="44.51675" lon="0.74049">
        <ele>76.5</ele>
        <time>2014-7-5T10:22:6.000Z</time>
      </trkpt>
      <trkpt lat="44.51675" lon="0.74049">
        <ele>76.5</ele>
        <time>2014-7-5T10:22:6.000Z</time>
      </trkpt>
      <trkpt lat="44.51672" lon="0.74046">
        <ele>76.5</ele>
        <time>2014-7-5T10:22:6.000Z</time>
      </trkpt>
      <trkpt lat="44.51672" lon="0.74046">
        <ele>76.5</ele>
        <time>2014-7-5T10:22:6.000Z</time>
      </trkpt>
      <trkpt lat="44.51669" lon="0.74044">
        <ele>76.5</ele>
        <time>2014-7-5T10:22:6.000Z</time>
      </trkpt>
      <trkpt lat="44.51669" lon="0.74044">
        <ele>76.5</ele>
        <time>2014-7-5T10:22:6.000Z</time>
      </trkpt>
      <trkpt lat="44.51667" lon="0.74042">
        <ele>76.5</ele>
        <time>2014-7-5T10:22:6.000Z</time>
      </trkpt>
      <trkpt lat="44.51667" lon="0.74042">
        <ele>76.5</ele>
        <time>2014-7-5T10:22:6.000Z</time>
      </trkpt>
      <trkpt lat="44.51665" lon="0.7404">
        <ele>76.5</ele>
        <time>2014-7-5T10:22:6.000Z</time>
      </trkpt>
      <trkpt lat="44.51665" lon="0.7404">
        <ele>76.5</ele>
        <time>2014-7-5T10:22:6.000Z</time>
      </trkpt>
      <trkpt lat="44.51663" lon="0.74039">
        <ele>76.5</ele>
        <time>2014-7-5T10:22:6.000Z</time>
      </trkpt>
      <trkpt lat="44.51663" lon="0.74039">
        <ele>76.5</ele>
        <time>2014-7-5T10:22:6.000Z</time>
      </trkpt>
      <trkpt lat="44.51661" lon="0.74037">
        <ele>76.5</ele>
        <time>2014-7-5T10:22:6.000Z</time>
      </trkpt>
      <trkpt lat="44.51661" lon="0.74037">
        <ele>76.5</ele>
        <time>2014-7-5T10:22:6.000Z</time>
      </trkpt>
      <trkpt lat="44.51659" lon="0.74035">
        <ele>77.5</ele>
        <time>2014-7-5T10:22:6.000Z</time>
      </trkpt>
      <trkpt lat="44.51659" lon="0.74035">
        <ele>77.5</ele>
        <time>2014-7-5T10:22:6.000Z</time>
      </trkpt>
      <trkpt lat="44.51657" lon="0.74034">
        <ele>77.5</ele>
        <time>2014-7-5T10:22:6.000Z</time>
      </trkpt>
      <trkpt lat="44.51657" lon="0.74034">
        <ele>77.5</ele>
        <time>2014-7-5T10:22:6.000Z</time>
      </trkpt>
      <trkpt lat="44.51655" lon="0.74033">
        <ele>77.5</ele>
        <time>2014-7-5T10:22:6.000Z</time>
      </trkpt>
      <trkpt lat="44.51655" lon="0.74033">
        <ele>77.5</ele>
        <time>2014-7-5T10:22:6.000Z</time>
      </trkpt>
      <trkpt lat="44.51653" lon="0.74031">
        <ele>77.5</ele>
        <time>2014-7-5T10:22:6.000Z</time>
      </trkpt>
      <trkpt lat="44.51653" lon="0.74031">
        <ele>77.5</ele>
        <time>2014-7-5T10:22:6.000Z</time>
      </trkpt>
      <trkpt lat="44.51651" lon="0.74029">
        <ele>77.5</ele>
        <time>2014-7-5T10:22:6.000Z</time>
      </trkpt>
      <trkpt lat="44.51651" lon="0.74029">
        <ele>77.5</ele>
        <time>2014-7-5T10:22:6.000Z</time>
      </trkpt>
      <trkpt lat="44.51649" lon="0.74028">
        <ele>77.5</ele>
        <time>2014-7-5T10:22:6.000Z</time>
      </trkpt>
      <trkpt lat="44.51649" lon="0.74028">
        <ele>77.5</ele>
        <time>2014-7-5T10:22:6.000Z</time>
      </trkpt>
      <trkpt lat="44.51647" lon="0.74024">
        <ele>78.5</ele>
        <time>2014-7-5T10:22:6.000Z</time>
      </trkpt>
      <trkpt lat="44.51647" lon="0.74024">
        <ele>78.5</ele>
        <time>2014-7-5T10:22:6.000Z</time>
      </trkpt>
      <trkpt lat="44.51646" lon="0.74022">
        <ele>78.5</ele>
        <time>2014-7-5T10:22:6.000Z</time>
      </trkpt>
      <trkpt lat="44.51646" lon="0.74022">
        <ele>78.5</ele>
        <time>2014-7-5T10:22:6.000Z</time>
      </trkpt>
      <trkpt lat="44.51648" lon="0.74018">
        <ele>78.5</ele>
        <time>2014-7-5T10:22:6.000Z</time>
      </trkpt>
      <trkpt lat="44.51648" lon="0.74018">
        <ele>78.5</ele>
        <time>2014-7-5T10:22:6.000Z</time>
      </trkpt>
      <trkpt lat="44.5165" lon="0.74014">
        <ele>78.5</ele>
        <time>2014-7-5T10:22:6.000Z</time>
      </trkpt>
      <trkpt lat="44.5165" lon="0.74014">
        <ele>78.5</ele>
        <time>2014-7-5T10:22:6.000Z</time>
      </trkpt>
      <trkpt lat="44.51652" lon="0.7401">
        <ele>79.5</ele>
        <time>2014-7-5T10:22:6.000Z</time>
      </trkpt>
      <trkpt lat="44.51652" lon="0.7401">
        <ele>79.5</ele>
        <time>2014-7-5T10:22:6.000Z</time>
      </trkpt>
      <trkpt lat="44.51655" lon="0.74005">
        <ele>79.5</ele>
        <time>2014-7-5T10:22:6.000Z</time>
      </trkpt>
      <trkpt lat="44.51655" lon="0.74005">
        <ele>79.5</ele>
        <time>2014-7-5T10:22:6.000Z</time>
      </trkpt>
      <trkpt lat="44.51657" lon="0.74001">
        <ele>79.5</ele>
        <time>2014-7-5T10:22:6.000Z</time>
      </trkpt>
      <trkpt lat="44.51657" lon="0.74001">
        <ele>79.5</ele>
        <time>2014-7-5T10:22:6.000Z</time>
      </trkpt>
      <trkpt lat="44.5166" lon="0.73996">
        <ele>80.5</ele>
        <time>2014-7-5T10:22:6.000Z</time>
      </trkpt>
      <trkpt lat="44.5166" lon="0.73996">
        <ele>80.5</ele>
        <time>2014-7-5T10:22:6.000Z</time>
      </trkpt>
      <trkpt lat="44.51662" lon="0.73991">
        <ele>79.5</ele>
        <time>2014-7-5T10:22:6.000Z</time>
      </trkpt>
      <trkpt lat="44.51662" lon="0.73991">
        <ele>79.5</ele>
        <time>2014-7-5T10:22:6.000Z</time>
      </trkpt>
      <trkpt lat="44.51664" lon="0.73987">
        <ele>79.5</ele>
        <time>2014-7-5T10:22:6.000Z</time>
      </trkpt>
      <trkpt lat="44.51664" lon="0.73987">
        <ele>79.5</ele>
        <time>2014-7-5T10:22:6.000Z</time>
      </trkpt>
      <trkpt lat="44.51667" lon="0.73983">
        <ele>79.5</ele>
        <time>2014-7-5T10:22:6.000Z</time>
      </trkpt>
      <trkpt lat="44.51667" lon="0.73983">
        <ele>79.5</ele>
        <time>2014-7-5T10:22:6.000Z</time>
      </trkpt>
      <trkpt lat="44.5167" lon="0.73978">
        <ele>79.5</ele>
        <time>2014-7-5T10:22:6.000Z</time>
      </trkpt>
      <trkpt lat="44.5167" lon="0.73978">
        <ele>79.5</ele>
        <time>2014-7-5T10:22:6.000Z</time>
      </trkpt>
      <trkpt lat="44.51672" lon="0.73975">
        <ele>80.5</ele>
        <time>2014-7-5T10:22:57.000Z</time>
      </trkpt>
      <trkpt lat="44.51672" lon="0.73975">
        <ele>80.5</ele>
        <time>2014-7-5T10:22:57.000Z</time>
      </trkpt>
      <trkpt lat="44.51674" lon="0.73971">
        <ele>81.5</ele>
        <time>2014-7-5T10:22:57.000Z</time>
      </trkpt>
      <trkpt lat="44.51674" lon="0.73971">
        <ele>81.5</ele>
        <time>2014-7-5T10:22:57.000Z</time>
      </trkpt>
      <trkpt lat="44.51677" lon="0.73967">
        <ele>81.5</ele>
        <time>2014-7-5T10:22:57.000Z</time>
      </trkpt>
      <trkpt lat="44.51677" lon="0.73967">
        <ele>81.5</ele>
        <time>2014-7-5T10:22:57.000Z</time>
      </trkpt>
      <trkpt lat="44.5168" lon="0.73964">
        <ele>81.5</ele>
        <time>2014-7-5T10:22:57.000Z</time>
      </trkpt>
      <trkpt lat="44.5168" lon="0.73964">
        <ele>81.5</ele>
        <time>2014-7-5T10:22:57.000Z</time>
      </trkpt>
      <trkpt lat="44.51683" lon="0.7396">
        <ele>82.5</ele>
        <time>2014-7-5T10:22:57.000Z</time>
      </trkpt>
      <trkpt lat="44.51683" lon="0.7396">
        <ele>82.5</ele>
        <time>2014-7-5T10:22:57.000Z</time>
      </trkpt>
      <trkpt lat="44.51686" lon="0.73958">
        <ele>83.5</ele>
        <time>2014-7-5T10:22:57.000Z</time>
      </trkpt>
      <trkpt lat="44.51686" lon="0.73958">
        <ele>83.5</ele>
        <time>2014-7-5T10:22:57.000Z</time>
      </trkpt>
      <trkpt lat="44.51689" lon="0.73955">
        <ele>83.5</ele>
        <time>2014-7-5T10:22:57.000Z</time>
      </trkpt>
      <trkpt lat="44.51689" lon="0.73955">
        <ele>83.5</ele>
        <time>2014-7-5T10:22:57.000Z</time>
      </trkpt>
      <trkpt lat="44.51692" lon="0.73952">
        <ele>83.5</ele>
        <time>2014-7-5T10:22:57.000Z</time>
      </trkpt>
      <trkpt lat="44.51692" lon="0.73952">
        <ele>83.5</ele>
        <time>2014-7-5T10:22:57.000Z</time>
      </trkpt>
      <trkpt lat="44.51695" lon="0.73949">
        <ele>83.5</ele>
        <time>2014-7-5T10:22:57.000Z</time>
      </trkpt>
      <trkpt lat="44.51695" lon="0.73949">
        <ele>83.5</ele>
        <time>2014-7-5T10:22:57.000Z</time>
      </trkpt>
      <trkpt lat="44.51698" lon="0.73946">
        <ele>82.5</ele>
        <time>2014-7-5T10:22:57.000Z</time>
      </trkpt>
      <trkpt lat="44.51698" lon="0.73946">
        <ele>82.5</ele>
        <time>2014-7-5T10:22:57.000Z</time>
      </trkpt>
      <trkpt lat="44.517" lon="0.73943">
        <ele>82.5</ele>
        <time>2014-7-5T10:22:57.000Z</time>
      </trkpt>
      <trkpt lat="44.517" lon="0.73943">
        <ele>82.5</ele>
        <time>2014-7-5T10:22:57.000Z</time>
      </trkpt>
      <trkpt lat="44.51702" lon="0.7394">
        <ele>82.5</ele>
        <time>2014-7-5T10:22:57.000Z</time>
      </trkpt>
      <trkpt lat="44.51702" lon="0.7394">
        <ele>82.5</ele>
        <time>2014-7-5T10:22:57.000Z</time>
      </trkpt>
      <trkpt lat="44.51704" lon="0.73936">
        <ele>82.5</ele>
        <time>2014-7-5T10:22:57.000Z</time>
      </trkpt>
      <trkpt lat="44.51704" lon="0.73936">
        <ele>82.5</ele>
        <time>2014-7-5T10:22:57.000Z</time>
      </trkpt>
      <trkpt lat="44.51706" lon="0.73933">
        <ele>82.5</ele>
        <time>2014-7-5T10:22:57.000Z</time>
      </trkpt>
      <trkpt lat="44.51706" lon="0.73933">
        <ele>82.5</ele>
        <time>2014-7-5T10:22:57.000Z</time>
      </trkpt>
      <trkpt lat="44.51708" lon="0.73929">
        <ele>84.5</ele>
        <time>2014-7-5T10:22:57.000Z</time>
      </trkpt>
      <trkpt lat="44.51708" lon="0.73929">
        <ele>84.5</ele>
        <time>2014-7-5T10:22:57.000Z</time>
      </trkpt>
      <trkpt lat="44.51709" lon="0.73925">
        <ele>83.5</ele>
        <time>2014-7-5T10:22:57.000Z</time>
      </trkpt>
      <trkpt lat="44.51709" lon="0.73925">
        <ele>83.5</ele>
        <time>2014-7-5T10:22:57.000Z</time>
      </trkpt>
      <trkpt lat="44.51711" lon="0.73921">
        <ele>83.5</ele>
        <time>2014-7-5T10:22:57.000Z</time>
      </trkpt>
      <trkpt lat="44.51711" lon="0.73921">
        <ele>83.5</ele>
        <time>2014-7-5T10:22:57.000Z</time>
      </trkpt>
      <trkpt lat="44.51712" lon="0.73917">
        <ele>83.5</ele>
        <time>2014-7-5T10:22:57.000Z</time>
      </trkpt>
      <trkpt lat="44.51712" lon="0.73917">
        <ele>83.5</ele>
        <time>2014-7-5T10:22:57.000Z</time>
      </trkpt>
      <trkpt lat="44.51713" lon="0.73913">
        <ele>83.5</ele>
        <time>2014-7-5T10:22:57.000Z</time>
      </trkpt>
      <trkpt lat="44.51713" lon="0.73913">
        <ele>83.5</ele>
        <time>2014-7-5T10:22:57.000Z</time>
      </trkpt>
      <trkpt lat="44.51714" lon="0.73908">
        <ele>83.5</ele>
        <time>2014-7-5T10:22:57.000Z</time>
      </trkpt>
      <trkpt lat="44.51714" lon="0.73908">
        <ele>83.5</ele>
        <time>2014-7-5T10:22:57.000Z</time>
      </trkpt>
      <trkpt lat="44.51715" lon="0.73904">
        <ele>84.5</ele>
        <time>2014-7-5T10:22:57.000Z</time>
      </trkpt>
      <trkpt lat="44.51715" lon="0.73904">
        <ele>84.5</ele>
        <time>2014-7-5T10:22:57.000Z</time>
      </trkpt>
      <trkpt lat="44.51716" lon="0.739">
        <ele>84.5</ele>
        <time>2014-7-5T10:22:57.000Z</time>
      </trkpt>
      <trkpt lat="44.51716" lon="0.739">
        <ele>84.5</ele>
        <time>2014-7-5T10:22:57.000Z</time>
      </trkpt>
      <trkpt lat="44.51718" lon="0.73896">
        <ele>84.5</ele>
        <time>2014-7-5T10:22:57.000Z</time>
      </trkpt>
      <trkpt lat="44.51718" lon="0.73896">
        <ele>84.5</ele>
        <time>2014-7-5T10:22:57.000Z</time>
      </trkpt>
      <trkpt lat="44.51719" lon="0.73891">
        <ele>84.5</ele>
        <time>2014-7-5T10:22:57.000Z</time>
      </trkpt>
      <trkpt lat="44.51719" lon="0.73891">
        <ele>84.5</ele>
        <time>2014-7-5T10:22:57.000Z</time>
      </trkpt>
      <trkpt lat="44.5172" lon="0.73887">
        <ele>85.5</ele>
        <time>2014-7-5T10:22:57.000Z</time>
      </trkpt>
      <trkpt lat="44.5172" lon="0.73887">
        <ele>85.5</ele>
        <time>2014-7-5T10:22:57.000Z</time>
      </trkpt>
      <trkpt lat="44.51722" lon="0.73882">
        <ele>86.5</ele>
        <time>2014-7-5T10:22:57.000Z</time>
      </trkpt>
      <trkpt lat="44.51722" lon="0.73882">
        <ele>86.5</ele>
        <time>2014-7-5T10:22:57.000Z</time>
      </trkpt>
      <trkpt lat="44.51723" lon="0.73877">
        <ele>87.5</ele>
        <time>2014-7-5T10:22:57.000Z</time>
      </trkpt>
      <trkpt lat="44.51723" lon="0.73877">
        <ele>87.5</ele>
        <time>2014-7-5T10:22:57.000Z</time>
      </trkpt>
      <trkpt lat="44.51724" lon="0.73872">
        <ele>87.5</ele>
        <time>2014-7-5T10:22:57.000Z</time>
      </trkpt>
      <trkpt lat="44.51724" lon="0.73872">
        <ele>87.5</ele>
        <time>2014-7-5T10:22:57.000Z</time>
      </trkpt>
      <trkpt lat="44.51725" lon="0.73867">
        <ele>87.5</ele>
        <time>2014-7-5T10:22:57.000Z</time>
      </trkpt>
      <trkpt lat="44.51725" lon="0.73867">
        <ele>87.5</ele>
        <time>2014-7-5T10:22:57.000Z</time>
      </trkpt>
      <trkpt lat="44.51725" lon="0.73862">
        <ele>87.5</ele>
        <time>2014-7-5T10:22:57.000Z</time>
      </trkpt>
      <trkpt lat="44.51725" lon="0.73862">
        <ele>87.5</ele>
        <time>2014-7-5T10:22:57.000Z</time>
      </trkpt>
      <trkpt lat="44.51726" lon="0.73857">
        <ele>87.5</ele>
        <time>2014-7-5T10:22:57.000Z</time>
      </trkpt>
      <trkpt lat="44.51726" lon="0.73857">
        <ele>87.5</ele>
        <time>2014-7-5T10:22:57.000Z</time>
      </trkpt>
      <trkpt lat="44.51727" lon="0.73851">
        <ele>87.5</ele>
        <time>2014-7-5T10:22:57.000Z</time>
      </trkpt>
      <trkpt lat="44.51727" lon="0.73851">
        <ele>87.5</ele>
        <time>2014-7-5T10:22:57.000Z</time>
      </trkpt>
      <trkpt lat="44.51728" lon="0.73847">
        <ele>86.5</ele>
        <time>2014-7-5T10:22:57.000Z</time>
      </trkpt>
      <trkpt lat="44.51728" lon="0.73847">
        <ele>86.5</ele>
        <time>2014-7-5T10:22:57.000Z</time>
      </trkpt>
      <trkpt lat="44.5173" lon="0.73842">
        <ele>86.5</ele>
        <time>2014-7-5T10:22:57.000Z</time>
      </trkpt>
      <trkpt lat="44.5173" lon="0.73842">
        <ele>86.5</ele>
        <time>2014-7-5T10:22:57.000Z</time>
      </trkpt>
      <trkpt lat="44.51731" lon="0.73837">
        <ele>86.5</ele>
        <time>2014-7-5T10:22:57.000Z</time>
      </trkpt>
      <trkpt lat="44.51731" lon="0.73837">
        <ele>86.5</ele>
        <time>2014-7-5T10:22:57.000Z</time>
      </trkpt>
      <trkpt lat="44.51732" lon="0.73832">
        <ele>86.5</ele>
        <time>2014-7-5T10:22:57.000Z</time>
      </trkpt>
      <trkpt lat="44.51732" lon="0.73832">
        <ele>86.5</ele>
        <time>2014-7-5T10:22:57.000Z</time>
      </trkpt>
      <trkpt lat="44.51733" lon="0.73827">
        <ele>86.5</ele>
        <time>2014-7-5T10:22:57.000Z</time>
      </trkpt>
      <trkpt lat="44.51733" lon="0.73827">
        <ele>86.5</ele>
        <time>2014-7-5T10:22:57.000Z</time>
      </trkpt>
      <trkpt lat="44.51734" lon="0.73822">
        <ele>86.5</ele>
        <time>2014-7-5T10:22:57.000Z</time>
      </trkpt>
      <trkpt lat="44.51734" lon="0.73822">
        <ele>86.5</ele>
        <time>2014-7-5T10:22:57.000Z</time>
      </trkpt>
      <trkpt lat="44.51735" lon="0.73817">
        <ele>85.5</ele>
        <time>2014-7-5T10:22:57.000Z</time>
      </trkpt>
      <trkpt lat="44.51735" lon="0.73817">
        <ele>85.5</ele>
        <time>2014-7-5T10:22:57.000Z</time>
      </trkpt>
      <trkpt lat="44.51736" lon="0.73812">
        <ele>85.5</ele>
        <time>2014-7-5T10:22:57.000Z</time>
      </trkpt>
      <trkpt lat="44.51736" lon="0.73812">
        <ele>85.5</ele>
        <time>2014-7-5T10:22:57.000Z</time>
      </trkpt>
      <trkpt lat="44.51737" lon="0.73807">
        <ele>86.5</ele>
        <time>2014-7-5T10:22:57.000Z</time>
      </trkpt>
      <trkpt lat="44.51737" lon="0.73807">
        <ele>86.5</ele>
        <time>2014-7-5T10:22:57.000Z</time>
      </trkpt>
      <trkpt lat="44.51739" lon="0.73801">
        <ele>86.5</ele>
        <time>2014-7-5T10:22:57.000Z</time>
      </trkpt>
      <trkpt lat="44.51739" lon="0.73801">
        <ele>86.5</ele>
        <time>2014-7-5T10:22:57.000Z</time>
      </trkpt>
      <trkpt lat="44.5174" lon="0.73797">
        <ele>87.5</ele>
        <time>2014-7-5T10:22:57.000Z</time>
      </trkpt>
      <trkpt lat="44.5174" lon="0.73797">
        <ele>87.5</ele>
        <time>2014-7-5T10:22:57.000Z</time>
      </trkpt>
      <trkpt lat="44.51742" lon="0.73792">
        <ele>88.5</ele>
        <time>2014-7-5T10:22:57.000Z</time>
      </trkpt>
      <trkpt lat="44.51742" lon="0.73792">
        <ele>88.5</ele>
        <time>2014-7-5T10:22:57.000Z</time>
      </trkpt>
      <trkpt lat="44.51744" lon="0.73787">
        <ele>87.5</ele>
        <time>2014-7-5T10:22:57.000Z</time>
      </trkpt>
      <trkpt lat="44.51744" lon="0.73787">
        <ele>87.5</ele>
        <time>2014-7-5T10:22:57.000Z</time>
      </trkpt>
      <trkpt lat="44.51745" lon="0.73783">
        <ele>86.5</ele>
        <time>2014-7-5T10:22:57.000Z</time>
      </trkpt>
      <trkpt lat="44.51745" lon="0.73783">
        <ele>86.5</ele>
        <time>2014-7-5T10:22:57.000Z</time>
      </trkpt>
      <trkpt lat="44.51746" lon="0.73778">
        <ele>87.5</ele>
        <time>2014-7-5T10:22:57.000Z</time>
      </trkpt>
      <trkpt lat="44.51746" lon="0.73778">
        <ele>87.5</ele>
        <time>2014-7-5T10:22:57.000Z</time>
      </trkpt>
      <trkpt lat="44.51747" lon="0.73773">
        <ele>86.5</ele>
        <time>2014-7-5T10:22:57.000Z</time>
      </trkpt>
      <trkpt lat="44.51747" lon="0.73773">
        <ele>86.5</ele>
        <time>2014-7-5T10:22:57.000Z</time>
      </trkpt>
      <trkpt lat="44.51748" lon="0.73769">
        <ele>86.5</ele>
        <time>2014-7-5T10:22:57.000Z</time>
      </trkpt>
      <trkpt lat="44.51748" lon="0.73769">
        <ele>86.5</ele>
        <time>2014-7-5T10:22:57.000Z</time>
      </trkpt>
      <trkpt lat="44.5175" lon="0.73764">
        <ele>84.5</ele>
        <time>2014-7-5T10:22:57.000Z</time>
      </trkpt>
      <trkpt lat="44.5175" lon="0.73764">
        <ele>84.5</ele>
        <time>2014-7-5T10:22:57.000Z</time>
      </trkpt>
      <trkpt lat="44.51751" lon="0.7376">
        <ele>83.5</ele>
        <time>2014-7-5T10:22:57.000Z</time>
      </trkpt>
      <trkpt lat="44.51751" lon="0.7376">
        <ele>83.5</ele>
        <time>2014-7-5T10:23:49.000Z</time>
      </trkpt>
      <trkpt lat="44.51753" lon="0.73756">
        <ele>83.5</ele>
        <time>2014-7-5T10:23:49.000Z</time>
      </trkpt>
      <trkpt lat="44.51753" lon="0.73756">
        <ele>83.5</ele>
        <time>2014-7-5T10:23:49.000Z</time>
      </trkpt>
      <trkpt lat="44.51754" lon="0.73751">
        <ele>84.5</ele>
        <time>2014-7-5T10:23:49.000Z</time>
      </trkpt>
      <trkpt lat="44.51754" lon="0.73751">
        <ele>84.5</ele>
        <time>2014-7-5T10:23:49.000Z</time>
      </trkpt>
      <trkpt lat="44.51755" lon="0.73747">
        <ele>86.5</ele>
        <time>2014-7-5T10:23:49.000Z</time>
      </trkpt>
      <trkpt lat="44.51755" lon="0.73747">
        <ele>86.5</ele>
        <time>2014-7-5T10:23:49.000Z</time>
      </trkpt>
      <trkpt lat="44.51755" lon="0.73741">
        <ele>85.5</ele>
        <time>2014-7-5T10:23:49.000Z</time>
      </trkpt>
      <trkpt lat="44.51755" lon="0.73741">
        <ele>85.5</ele>
        <time>2014-7-5T10:23:49.000Z</time>
      </trkpt>
      <trkpt lat="44.51755" lon="0.73736">
        <ele>86.5</ele>
        <time>2014-7-5T10:23:49.000Z</time>
      </trkpt>
      <trkpt lat="44.51755" lon="0.73736">
        <ele>86.5</ele>
        <time>2014-7-5T10:23:49.000Z</time>
      </trkpt>
      <trkpt lat="44.51756" lon="0.73731">
        <ele>86.5</ele>
        <time>2014-7-5T10:23:49.000Z</time>
      </trkpt>
      <trkpt lat="44.51756" lon="0.73731">
        <ele>86.5</ele>
        <time>2014-7-5T10:23:49.000Z</time>
      </trkpt>
      <trkpt lat="44.51756" lon="0.73725">
        <ele>86.5</ele>
        <time>2014-7-5T10:23:49.000Z</time>
      </trkpt>
      <trkpt lat="44.51756" lon="0.73725">
        <ele>86.5</ele>
        <time>2014-7-5T10:23:49.000Z</time>
      </trkpt>
      <trkpt lat="44.51758" lon="0.73721">
        <ele>86.5</ele>
        <time>2014-7-5T10:23:49.000Z</time>
      </trkpt>
      <trkpt lat="44.51758" lon="0.73721">
        <ele>86.5</ele>
        <time>2014-7-5T10:23:49.000Z</time>
      </trkpt>
      <trkpt lat="44.51761" lon="0.73711">
        <ele>86.5</ele>
        <time>2014-7-5T10:23:49.000Z</time>
      </trkpt>
      <trkpt lat="44.51761" lon="0.73711">
        <ele>86.5</ele>
        <time>2014-7-5T10:23:49.000Z</time>
      </trkpt>
      <trkpt lat="44.51762" lon="0.73707">
        <ele>85.5</ele>
        <time>2014-7-5T10:23:49.000Z</time>
      </trkpt>
      <trkpt lat="44.51762" lon="0.73707">
        <ele>85.5</ele>
        <time>2014-7-5T10:23:49.000Z</time>
      </trkpt>
      <trkpt lat="44.51763" lon="0.73702">
        <ele>85.5</ele>
        <time>2014-7-5T10:23:49.000Z</time>
      </trkpt>
      <trkpt lat="44.51763" lon="0.73702">
        <ele>85.5</ele>
        <time>2014-7-5T10:23:49.000Z</time>
      </trkpt>
      <trkpt lat="44.51764" lon="0.73696">
        <ele>84.5</ele>
        <time>2014-7-5T10:23:49.000Z</time>
      </trkpt>
      <trkpt lat="44.51764" lon="0.73696">
        <ele>84.5</ele>
        <time>2014-7-5T10:23:49.000Z</time>
      </trkpt>
      <trkpt lat="44.51764" lon="0.73692">
        <ele>84.5</ele>
        <time>2014-7-5T10:23:49.000Z</time>
      </trkpt>
      <trkpt lat="44.51764" lon="0.73692">
        <ele>84.5</ele>
        <time>2014-7-5T10:23:49.000Z</time>
      </trkpt>
      <trkpt lat="44.51765" lon="0.73686">
        <ele>84.5</ele>
        <time>2014-7-5T10:23:49.000Z</time>
      </trkpt>
      <trkpt lat="44.51765" lon="0.73686">
        <ele>84.5</ele>
        <time>2014-7-5T10:23:49.000Z</time>
      </trkpt>
      <trkpt lat="44.51766" lon="0.73681">
        <ele>84.5</ele>
        <time>2014-7-5T10:23:49.000Z</time>
      </trkpt>
      <trkpt lat="44.51766" lon="0.73681">
        <ele>84.5</ele>
        <time>2014-7-5T10:23:49.000Z</time>
      </trkpt>
      <trkpt lat="44.51767" lon="0.73676">
        <ele>86.5</ele>
        <time>2014-7-5T10:23:49.000Z</time>
      </trkpt>
      <trkpt lat="44.51767" lon="0.73676">
        <ele>86.5</ele>
        <time>2014-7-5T10:23:49.000Z</time>
      </trkpt>
      <trkpt lat="44.51769" lon="0.73671">
        <ele>87.5</ele>
        <time>2014-7-5T10:23:49.000Z</time>
      </trkpt>
      <trkpt lat="44.51769" lon="0.73671">
        <ele>87.5</ele>
        <time>2014-7-5T10:23:49.000Z</time>
      </trkpt>
      <trkpt lat="44.5177" lon="0.73667">
        <ele>86.5</ele>
        <time>2014-7-5T10:23:49.000Z</time>
      </trkpt>
      <trkpt lat="44.5177" lon="0.73667">
        <ele>86.5</ele>
        <time>2014-7-5T10:23:49.000Z</time>
      </trkpt>
      <trkpt lat="44.51771" lon="0.73662">
        <ele>86.5</ele>
        <time>2014-7-5T10:23:49.000Z</time>
      </trkpt>
      <trkpt lat="44.51771" lon="0.73662">
        <ele>86.5</ele>
        <time>2014-7-5T10:23:49.000Z</time>
      </trkpt>
      <trkpt lat="44.51772" lon="0.73656">
        <ele>86.5</ele>
        <time>2014-7-5T10:23:49.000Z</time>
      </trkpt>
      <trkpt lat="44.51772" lon="0.73656">
        <ele>86.5</ele>
        <time>2014-7-5T10:23:49.000Z</time>
      </trkpt>
      <trkpt lat="44.51772" lon="0.73652">
        <ele>86.5</ele>
        <time>2014-7-5T10:23:49.000Z</time>
      </trkpt>
      <trkpt lat="44.51772" lon="0.73652">
        <ele>86.5</ele>
        <time>2014-7-5T10:23:49.000Z</time>
      </trkpt>
      <trkpt lat="44.51773" lon="0.73647">
        <ele>85.5</ele>
        <time>2014-7-5T10:23:49.000Z</time>
      </trkpt>
      <trkpt lat="44.51773" lon="0.73647">
        <ele>85.5</ele>
        <time>2014-7-5T10:23:49.000Z</time>
      </trkpt>
      <trkpt lat="44.51774" lon="0.73642">
        <ele>85.5</ele>
        <time>2014-7-5T10:23:49.000Z</time>
      </trkpt>
      <trkpt lat="44.51774" lon="0.73642">
        <ele>85.5</ele>
        <time>2014-7-5T10:23:49.000Z</time>
      </trkpt>
      <trkpt lat="44.51775" lon="0.73637">
        <ele>85.5</ele>
        <time>2014-7-5T10:23:49.000Z</time>
      </trkpt>
      <trkpt lat="44.51775" lon="0.73637">
        <ele>85.5</ele>
        <time>2014-7-5T10:23:49.000Z</time>
      </trkpt>
      <trkpt lat="44.51776" lon="0.73632">
        <ele>85.5</ele>
        <time>2014-7-5T10:23:49.000Z</time>
      </trkpt>
      <trkpt lat="44.51776" lon="0.73632">
        <ele>85.5</ele>
        <time>2014-7-5T10:23:49.000Z</time>
      </trkpt>
      <trkpt lat="44.51776" lon="0.73627">
        <ele>84.5</ele>
        <time>2014-7-5T10:23:49.000Z</time>
      </trkpt>
      <trkpt lat="44.51776" lon="0.73627">
        <ele>84.5</ele>
        <time>2014-7-5T10:23:49.000Z</time>
      </trkpt>
      <trkpt lat="44.51777" lon="0.73622">
        <ele>84.5</ele>
        <time>2014-7-5T10:23:49.000Z</time>
      </trkpt>
      <trkpt lat="44.51777" lon="0.73622">
        <ele>84.5</ele>
        <time>2014-7-5T10:23:49.000Z</time>
      </trkpt>
      <trkpt lat="44.51778" lon="0.73616">
        <ele>83.5</ele>
        <time>2014-7-5T10:23:49.000Z</time>
      </trkpt>
      <trkpt lat="44.51778" lon="0.73616">
        <ele>83.5</ele>
        <time>2014-7-5T10:23:49.000Z</time>
      </trkpt>
      <trkpt lat="44.51779" lon="0.73611">
        <ele>84.5</ele>
        <time>2014-7-5T10:23:49.000Z</time>
      </trkpt>
      <trkpt lat="44.51779" lon="0.73611">
        <ele>84.5</ele>
        <time>2014-7-5T10:23:49.000Z</time>
      </trkpt>
      <trkpt lat="44.51779" lon="0.73606">
        <ele>81.5</ele>
        <time>2014-7-5T10:23:49.000Z</time>
      </trkpt>
      <trkpt lat="44.51779" lon="0.73606">
        <ele>81.5</ele>
        <time>2014-7-5T10:23:49.000Z</time>
      </trkpt>
      <trkpt lat="44.51779" lon="0.73601">
        <ele>81.5</ele>
        <time>2014-7-5T10:23:49.000Z</time>
      </trkpt>
      <trkpt lat="44.51779" lon="0.73601">
        <ele>81.5</ele>
        <time>2014-7-5T10:23:49.000Z</time>
      </trkpt>
      <trkpt lat="44.5178" lon="0.73596">
        <ele>81.5</ele>
        <time>2014-7-5T10:23:49.000Z</time>
      </trkpt>
      <trkpt lat="44.5178" lon="0.73596">
        <ele>81.5</ele>
        <time>2014-7-5T10:23:49.000Z</time>
      </trkpt>
      <trkpt lat="44.51781" lon="0.73591">
        <ele>82.5</ele>
        <time>2014-7-5T10:23:49.000Z</time>
      </trkpt>
      <trkpt lat="44.51781" lon="0.73591">
        <ele>82.5</ele>
        <time>2014-7-5T10:23:49.000Z</time>
      </trkpt>
      <trkpt lat="44.51784" lon="0.73581">
        <ele>82.5</ele>
        <time>2014-7-5T10:23:49.000Z</time>
      </trkpt>
      <trkpt lat="44.51784" lon="0.73581">
        <ele>82.5</ele>
        <time>2014-7-5T10:23:49.000Z</time>
      </trkpt>
      <trkpt lat="44.51786" lon="0.73576">
        <ele>83.5</ele>
        <time>2014-7-5T10:23:49.000Z</time>
      </trkpt>
      <trkpt lat="44.51786" lon="0.73576">
        <ele>83.5</ele>
        <time>2014-7-5T10:23:49.000Z</time>
      </trkpt>
      <trkpt lat="44.51788" lon="0.73571">
        <ele>83.5</ele>
        <time>2014-7-5T10:23:49.000Z</time>
      </trkpt>
      <trkpt lat="44.51788" lon="0.73571">
        <ele>83.5</ele>
        <time>2014-7-5T10:23:49.000Z</time>
      </trkpt>
      <trkpt lat="44.5179" lon="0.73565">
        <ele>84.5</ele>
        <time>2014-7-5T10:23:49.000Z</time>
      </trkpt>
      <trkpt lat="44.5179" lon="0.73565">
        <ele>84.5</ele>
        <time>2014-7-5T10:23:49.000Z</time>
      </trkpt>
      <trkpt lat="44.51791" lon="0.73559">
        <ele>84.5</ele>
        <time>2014-7-5T10:23:49.000Z</time>
      </trkpt>
      <trkpt lat="44.51791" lon="0.73559">
        <ele>84.5</ele>
        <time>2014-7-5T10:23:49.000Z</time>
      </trkpt>
      <trkpt lat="44.51793" lon="0.73554">
        <ele>84.5</ele>
        <time>2014-7-5T10:23:49.000Z</time>
      </trkpt>
      <trkpt lat="44.51793" lon="0.73554">
        <ele>84.5</ele>
        <time>2014-7-5T10:23:49.000Z</time>
      </trkpt>
      <trkpt lat="44.51794" lon="0.73548">
        <ele>85.5</ele>
        <time>2014-7-5T10:23:49.000Z</time>
      </trkpt>
      <trkpt lat="44.51794" lon="0.73548">
        <ele>85.5</ele>
        <time>2014-7-5T10:23:49.000Z</time>
      </trkpt>
      <trkpt lat="44.51795" lon="0.73543">
        <ele>85.5</ele>
        <time>2014-7-5T10:23:49.000Z</time>
      </trkpt>
      <trkpt lat="44.51795" lon="0.73543">
        <ele>85.5</ele>
        <time>2014-7-5T10:23:49.000Z</time>
      </trkpt>
      <trkpt lat="44.51797" lon="0.73538">
        <ele>86.5</ele>
        <time>2014-7-5T10:23:49.000Z</time>
      </trkpt>
      <trkpt lat="44.51797" lon="0.73538">
        <ele>86.5</ele>
        <time>2014-7-5T10:23:49.000Z</time>
      </trkpt>
      <trkpt lat="44.51798" lon="0.73533">
        <ele>86.5</ele>
        <time>2014-7-5T10:23:49.000Z</time>
      </trkpt>
      <trkpt lat="44.51798" lon="0.73533">
        <ele>86.5</ele>
        <time>2014-7-5T10:23:49.000Z</time>
      </trkpt>
      <trkpt lat="44.51799" lon="0.73528">
        <ele>87.5</ele>
        <time>2014-7-5T10:23:49.000Z</time>
      </trkpt>
      <trkpt lat="44.51799" lon="0.73528">
        <ele>87.5</ele>
        <time>2014-7-5T10:23:49.000Z</time>
      </trkpt>
      <trkpt lat="44.518" lon="0.73523">
        <ele>87.5</ele>
        <time>2014-7-5T10:23:49.000Z</time>
      </trkpt>
      <trkpt lat="44.518" lon="0.73523">
        <ele>87.5</ele>
        <time>2014-7-5T10:23:49.000Z</time>
      </trkpt>
      <trkpt lat="44.51801" lon="0.73519">
        <ele>87.5</ele>
        <time>2014-7-5T10:23:49.000Z</time>
      </trkpt>
      <trkpt lat="44.51801" lon="0.73519">
        <ele>87.5</ele>
        <time>2014-7-5T10:23:49.000Z</time>
      </trkpt>
      <trkpt lat="44.51802" lon="0.73515">
        <ele>87.5</ele>
        <time>2014-7-5T10:23:49.000Z</time>
      </trkpt>
      <trkpt lat="44.51802" lon="0.73515">
        <ele>87.5</ele>
        <time>2014-7-5T10:23:49.000Z</time>
      </trkpt>
      <trkpt lat="44.51804" lon="0.7351">
        <ele>87.5</ele>
        <time>2014-7-5T10:23:49.000Z</time>
      </trkpt>
      <trkpt lat="44.51804" lon="0.7351">
        <ele>87.5</ele>
        <time>2014-7-5T10:23:49.000Z</time>
      </trkpt>
      <trkpt lat="44.51805" lon="0.73507">
        <ele>87.5</ele>
        <time>2014-7-5T10:23:49.000Z</time>
      </trkpt>
      <trkpt lat="44.51805" lon="0.73507">
        <ele>87.5</ele>
        <time>2014-7-5T10:23:49.000Z</time>
      </trkpt>
      <trkpt lat="44.51806" lon="0.73504">
        <ele>88.5</ele>
        <time>2014-7-5T10:23:49.000Z</time>
      </trkpt>
      <trkpt lat="44.51806" lon="0.73504">
        <ele>88.5</ele>
        <time>2014-7-5T10:23:49.000Z</time>
      </trkpt>
      <trkpt lat="44.51807" lon="0.735">
        <ele>88.5</ele>
        <time>2014-7-5T10:24:39.000Z</time>
      </trkpt>
      <trkpt lat="44.51807" lon="0.735">
        <ele>88.5</ele>
        <time>2014-7-5T10:24:39.000Z</time>
      </trkpt>
      <trkpt lat="44.51808" lon="0.73496">
        <ele>89.5</ele>
        <time>2014-7-5T10:24:39.000Z</time>
      </trkpt>
      <trkpt lat="44.51808" lon="0.73496">
        <ele>89.5</ele>
        <time>2014-7-5T10:24:39.000Z</time>
      </trkpt>
      <trkpt lat="44.51809" lon="0.73492">
        <ele>89.5</ele>
        <time>2014-7-5T10:24:39.000Z</time>
      </trkpt>
      <trkpt lat="44.51809" lon="0.73492">
        <ele>89.5</ele>
        <time>2014-7-5T10:24:39.000Z</time>
      </trkpt>
      <trkpt lat="44.5181" lon="0.73489">
        <ele>88.5</ele>
        <time>2014-7-5T10:24:39.000Z</time>
      </trkpt>
      <trkpt lat="44.5181" lon="0.73489">
        <ele>88.5</ele>
        <time>2014-7-5T10:24:39.000Z</time>
      </trkpt>
      <trkpt lat="44.51811" lon="0.73485">
        <ele>88.5</ele>
        <time>2014-7-5T10:24:39.000Z</time>
      </trkpt>
      <trkpt lat="44.51811" lon="0.73485">
        <ele>88.5</ele>
        <time>2014-7-5T10:24:39.000Z</time>
      </trkpt>
      <trkpt lat="44.51812" lon="0.73481">
        <ele>88.5</ele>
        <time>2014-7-5T10:24:39.000Z</time>
      </trkpt>
      <trkpt lat="44.51812" lon="0.73481">
        <ele>88.5</ele>
        <time>2014-7-5T10:24:39.000Z</time>
      </trkpt>
      <trkpt lat="44.51812" lon="0.73477">
        <ele>88.5</ele>
        <time>2014-7-5T10:24:39.000Z</time>
      </trkpt>
      <trkpt lat="44.51812" lon="0.73477">
        <ele>88.5</ele>
        <time>2014-7-5T10:24:39.000Z</time>
      </trkpt>
      <trkpt lat="44.51812" lon="0.73473">
        <ele>87.5</ele>
        <time>2014-7-5T10:24:39.000Z</time>
      </trkpt>
      <trkpt lat="44.51812" lon="0.73473">
        <ele>87.5</ele>
        <time>2014-7-5T10:24:39.000Z</time>
      </trkpt>
      <trkpt lat="44.51813" lon="0.73469">
        <ele>89.5</ele>
        <time>2014-7-5T10:24:39.000Z</time>
      </trkpt>
      <trkpt lat="44.51813" lon="0.73469">
        <ele>89.5</ele>
        <time>2014-7-5T10:24:39.000Z</time>
      </trkpt>
      <trkpt lat="44.51815" lon="0.73466">
        <ele>90.5</ele>
        <time>2014-7-5T10:24:39.000Z</time>
      </trkpt>
      <trkpt lat="44.51815" lon="0.73466">
        <ele>90.5</ele>
        <time>2014-7-5T10:24:39.000Z</time>
      </trkpt>
      <trkpt lat="44.51816" lon="0.73462">
        <ele>90.5</ele>
        <time>2014-7-5T10:24:39.000Z</time>
      </trkpt>
      <trkpt lat="44.51816" lon="0.73462">
        <ele>90.5</ele>
        <time>2014-7-5T10:24:39.000Z</time>
      </trkpt>
      <trkpt lat="44.51816" lon="0.73458">
        <ele>90.5</ele>
        <time>2014-7-5T10:24:39.000Z</time>
      </trkpt>
      <trkpt lat="44.51816" lon="0.73458">
        <ele>90.5</ele>
        <time>2014-7-5T10:24:39.000Z</time>
      </trkpt>
      <trkpt lat="44.51817" lon="0.73454">
        <ele>91.5</ele>
        <time>2014-7-5T10:24:39.000Z</time>
      </trkpt>
      <trkpt lat="44.51817" lon="0.73454">
        <ele>91.5</ele>
        <time>2014-7-5T10:24:39.000Z</time>
      </trkpt>
      <trkpt lat="44.51817" lon="0.73449">
        <ele>91.5</ele>
        <time>2014-7-5T10:24:39.000Z</time>
      </trkpt>
      <trkpt lat="44.51817" lon="0.73449">
        <ele>91.5</ele>
        <time>2014-7-5T10:24:39.000Z</time>
      </trkpt>
      <trkpt lat="44.51817" lon="0.73445">
        <ele>91.5</ele>
        <time>2014-7-5T10:24:39.000Z</time>
      </trkpt>
      <trkpt lat="44.51817" lon="0.73445">
        <ele>91.5</ele>
        <time>2014-7-5T10:24:39.000Z</time>
      </trkpt>
      <trkpt lat="44.51818" lon="0.7344">
        <ele>91.5</ele>
        <time>2014-7-5T10:24:39.000Z</time>
      </trkpt>
      <trkpt lat="44.51818" lon="0.7344">
        <ele>91.5</ele>
        <time>2014-7-5T10:24:39.000Z</time>
      </trkpt>
      <trkpt lat="44.51818" lon="0.73435">
        <ele>91.5</ele>
        <time>2014-7-5T10:24:39.000Z</time>
      </trkpt>
      <trkpt lat="44.51818" lon="0.73435">
        <ele>91.5</ele>
        <time>2014-7-5T10:24:39.000Z</time>
      </trkpt>
      <trkpt lat="44.51818" lon="0.73431">
        <ele>92.5</ele>
        <time>2014-7-5T10:24:39.000Z</time>
      </trkpt>
      <trkpt lat="44.51818" lon="0.73431">
        <ele>92.5</ele>
        <time>2014-7-5T10:24:39.000Z</time>
      </trkpt>
      <trkpt lat="44.51818" lon="0.73426">
        <ele>92.5</ele>
        <time>2014-7-5T10:24:39.000Z</time>
      </trkpt>
      <trkpt lat="44.51818" lon="0.73426">
        <ele>92.5</ele>
        <time>2014-7-5T10:24:39.000Z</time>
      </trkpt>
      <trkpt lat="44.51817" lon="0.73421">
        <ele>92.5</ele>
        <time>2014-7-5T10:24:39.000Z</time>
      </trkpt>
      <trkpt lat="44.51817" lon="0.73421">
        <ele>92.5</ele>
        <time>2014-7-5T10:24:39.000Z</time>
      </trkpt>
      <trkpt lat="44.51818" lon="0.73417">
        <ele>92.5</ele>
        <time>2014-7-5T10:24:39.000Z</time>
      </trkpt>
      <trkpt lat="44.51818" lon="0.73417">
        <ele>92.5</ele>
        <time>2014-7-5T10:24:39.000Z</time>
      </trkpt>
      <trkpt lat="44.51818" lon="0.73412">
        <ele>92.5</ele>
        <time>2014-7-5T10:24:39.000Z</time>
      </trkpt>
      <trkpt lat="44.51818" lon="0.73412">
        <ele>92.5</ele>
        <time>2014-7-5T10:24:39.000Z</time>
      </trkpt>
      <trkpt lat="44.51818" lon="0.73408">
        <ele>93.5</ele>
        <time>2014-7-5T10:24:39.000Z</time>
      </trkpt>
      <trkpt lat="44.51818" lon="0.73408">
        <ele>93.5</ele>
        <time>2014-7-5T10:24:39.000Z</time>
      </trkpt>
      <trkpt lat="44.51819" lon="0.73403">
        <ele>93.5</ele>
        <time>2014-7-5T10:24:39.000Z</time>
      </trkpt>
      <trkpt lat="44.51819" lon="0.73403">
        <ele>93.5</ele>
        <time>2014-7-5T10:24:39.000Z</time>
      </trkpt>
      <trkpt lat="44.51819" lon="0.73398">
        <ele>93.5</ele>
        <time>2014-7-5T10:24:39.000Z</time>
      </trkpt>
      <trkpt lat="44.51819" lon="0.73398">
        <ele>93.5</ele>
        <time>2014-7-5T10:24:39.000Z</time>
      </trkpt>
      <trkpt lat="44.5182" lon="0.73394">
        <ele>93.5</ele>
        <time>2014-7-5T10:24:39.000Z</time>
      </trkpt>
      <trkpt lat="44.5182" lon="0.73394">
        <ele>93.5</ele>
        <time>2014-7-5T10:24:39.000Z</time>
      </trkpt>
      <trkpt lat="44.5182" lon="0.7339">
        <ele>93.5</ele>
        <time>2014-7-5T10:24:39.000Z</time>
      </trkpt>
      <trkpt lat="44.5182" lon="0.7339">
        <ele>93.5</ele>
        <time>2014-7-5T10:24:39.000Z</time>
      </trkpt>
      <trkpt lat="44.5182" lon="0.73385">
        <ele>93.5</ele>
        <time>2014-7-5T10:24:39.000Z</time>
      </trkpt>
      <trkpt lat="44.5182" lon="0.73385">
        <ele>93.5</ele>
        <time>2014-7-5T10:24:39.000Z</time>
      </trkpt>
      <trkpt lat="44.51821" lon="0.73381">
        <ele>94.5</ele>
        <time>2014-7-5T10:24:39.000Z</time>
      </trkpt>
      <trkpt lat="44.51821" lon="0.73381">
        <ele>94.5</ele>
        <time>2014-7-5T10:24:39.000Z</time>
      </trkpt>
      <trkpt lat="44.51821" lon="0.73377">
        <ele>94.5</ele>
        <time>2014-7-5T10:24:39.000Z</time>
      </trkpt>
      <trkpt lat="44.51821" lon="0.73377">
        <ele>94.5</ele>
        <time>2014-7-5T10:24:39.000Z</time>
      </trkpt>
      <trkpt lat="44.51821" lon="0.73373">
        <ele>95.5</ele>
        <time>2014-7-5T10:24:39.000Z</time>
      </trkpt>
      <trkpt lat="44.51821" lon="0.73373">
        <ele>95.5</ele>
        <time>2014-7-5T10:24:39.000Z</time>
      </trkpt>
      <trkpt lat="44.51822" lon="0.73368">
        <ele>95.5</ele>
        <time>2014-7-5T10:24:39.000Z</time>
      </trkpt>
      <trkpt lat="44.51822" lon="0.73368">
        <ele>95.5</ele>
        <time>2014-7-5T10:24:39.000Z</time>
      </trkpt>
      <trkpt lat="44.51822" lon="0.73364">
        <ele>95.5</ele>
        <time>2014-7-5T10:24:39.000Z</time>
      </trkpt>
      <trkpt lat="44.51822" lon="0.73364">
        <ele>95.5</ele>
        <time>2014-7-5T10:24:39.000Z</time>
      </trkpt>
      <trkpt lat="44.51823" lon="0.7336">
        <ele>95.5</ele>
        <time>2014-7-5T10:24:39.000Z</time>
      </trkpt>
      <trkpt lat="44.51823" lon="0.7336">
        <ele>95.5</ele>
        <time>2014-7-5T10:24:39.000Z</time>
      </trkpt>
      <trkpt lat="44.51823" lon="0.73355">
        <ele>94.5</ele>
        <time>2014-7-5T10:24:39.000Z</time>
      </trkpt>
      <trkpt lat="44.51823" lon="0.73355">
        <ele>94.5</ele>
        <time>2014-7-5T10:24:39.000Z</time>
      </trkpt>
      <trkpt lat="44.51824" lon="0.73352">
        <ele>95.5</ele>
        <time>2014-7-5T10:24:39.000Z</time>
      </trkpt>
      <trkpt lat="44.51824" lon="0.73352">
        <ele>95.5</ele>
        <time>2014-7-5T10:24:39.000Z</time>
      </trkpt>
      <trkpt lat="44.51824" lon="0.73348">
        <ele>95.5</ele>
        <time>2014-7-5T10:24:39.000Z</time>
      </trkpt>
      <trkpt lat="44.51824" lon="0.73348">
        <ele>95.5</ele>
        <time>2014-7-5T10:24:39.000Z</time>
      </trkpt>
      <trkpt lat="44.51825" lon="0.73343">
        <ele>95.5</ele>
        <time>2014-7-5T10:24:39.000Z</time>
      </trkpt>
      <trkpt lat="44.51825" lon="0.73343">
        <ele>95.5</ele>
        <time>2014-7-5T10:24:39.000Z</time>
      </trkpt>
      <trkpt lat="44.51825" lon="0.73339">
        <ele>96.5</ele>
        <time>2014-7-5T10:24:39.000Z</time>
      </trkpt>
      <trkpt lat="44.51825" lon="0.73339">
        <ele>96.5</ele>
        <time>2014-7-5T10:24:39.000Z</time>
      </trkpt>
      <trkpt lat="44.51826" lon="0.73335">
        <ele>96.5</ele>
        <time>2014-7-5T10:24:39.000Z</time>
      </trkpt>
      <trkpt lat="44.51826" lon="0.73335">
        <ele>96.5</ele>
        <time>2014-7-5T10:24:39.000Z</time>
      </trkpt>
      <trkpt lat="44.51826" lon="0.7333">
        <ele>96.5</ele>
        <time>2014-7-5T10:24:39.000Z</time>
      </trkpt>
      <trkpt lat="44.51826" lon="0.7333">
        <ele>96.5</ele>
        <time>2014-7-5T10:24:39.000Z</time>
      </trkpt>
      <trkpt lat="44.51827" lon="0.73326">
        <ele>96.5</ele>
        <time>2014-7-5T10:24:39.000Z</time>
      </trkpt>
      <trkpt lat="44.51827" lon="0.73326">
        <ele>96.5</ele>
        <time>2014-7-5T10:24:39.000Z</time>
      </trkpt>
      <trkpt lat="44.51827" lon="0.73322">
        <ele>96.5</ele>
        <time>2014-7-5T10:24:39.000Z</time>
      </trkpt>
      <trkpt lat="44.51827" lon="0.73322">
        <ele>96.5</ele>
        <time>2014-7-5T10:24:39.000Z</time>
      </trkpt>
      <trkpt lat="44.51827" lon="0.73318">
        <ele>96.5</ele>
        <time>2014-7-5T10:24:39.000Z</time>
      </trkpt>
      <trkpt lat="44.51827" lon="0.73318">
        <ele>96.5</ele>
        <time>2014-7-5T10:24:39.000Z</time>
      </trkpt>
      <trkpt lat="44.51827" lon="0.73314">
        <ele>95.5</ele>
        <time>2014-7-5T10:24:39.000Z</time>
      </trkpt>
      <trkpt lat="44.51827" lon="0.73314">
        <ele>95.5</ele>
        <time>2014-7-5T10:24:39.000Z</time>
      </trkpt>
      <trkpt lat="44.51827" lon="0.7331">
        <ele>96.5</ele>
        <time>2014-7-5T10:24:39.000Z</time>
      </trkpt>
      <trkpt lat="44.51827" lon="0.7331">
        <ele>96.5</ele>
        <time>2014-7-5T10:24:39.000Z</time>
      </trkpt>
      <trkpt lat="44.51828" lon="0.73307">
        <ele>96.5</ele>
        <time>2014-7-5T10:24:39.000Z</time>
      </trkpt>
      <trkpt lat="44.51828" lon="0.73307">
        <ele>96.5</ele>
        <time>2014-7-5T10:24:39.000Z</time>
      </trkpt>
      <trkpt lat="44.51827" lon="0.73303">
        <ele>95.5</ele>
        <time>2014-7-5T10:24:39.000Z</time>
      </trkpt>
      <trkpt lat="44.51827" lon="0.73303">
        <ele>95.5</ele>
        <time>2014-7-5T10:24:39.000Z</time>
      </trkpt>
      <trkpt lat="44.51827" lon="0.73299">
        <ele>96.5</ele>
        <time>2014-7-5T10:24:39.000Z</time>
      </trkpt>
      <trkpt lat="44.51827" lon="0.73299">
        <ele>96.5</ele>
        <time>2014-7-5T10:24:39.000Z</time>
      </trkpt>
      <trkpt lat="44.51827" lon="0.73295">
        <ele>95.5</ele>
        <time>2014-7-5T10:24:39.000Z</time>
      </trkpt>
      <trkpt lat="44.51827" lon="0.73295">
        <ele>95.5</ele>
        <time>2014-7-5T10:24:39.000Z</time>
      </trkpt>
      <trkpt lat="44.51827" lon="0.73291">
        <ele>96.5</ele>
        <time>2014-7-5T10:24:39.000Z</time>
      </trkpt>
      <trkpt lat="44.51827" lon="0.73291">
        <ele>96.5</ele>
        <time>2014-7-5T10:25:31.000Z</time>
      </trkpt>
      <trkpt lat="44.51827" lon="0.73288">
        <ele>96.5</ele>
        <time>2014-7-5T10:25:31.000Z</time>
      </trkpt>
      <trkpt lat="44.51827" lon="0.73288">
        <ele>96.5</ele>
        <time>2014-7-5T10:25:31.000Z</time>
      </trkpt>
      <trkpt lat="44.51827" lon="0.73284">
        <ele>97.5</ele>
        <time>2014-7-5T10:25:31.000Z</time>
      </trkpt>
      <trkpt lat="44.51827" lon="0.73284">
        <ele>97.5</ele>
        <time>2014-7-5T10:25:31.000Z</time>
      </trkpt>
      <trkpt lat="44.51827" lon="0.7328">
        <ele>98.5</ele>
        <time>2014-7-5T10:25:31.000Z</time>
      </trkpt>
      <trkpt lat="44.51827" lon="0.7328">
        <ele>98.5</ele>
        <time>2014-7-5T10:25:31.000Z</time>
      </trkpt>
      <trkpt lat="44.51826" lon="0.73276">
        <ele>98.5</ele>
        <time>2014-7-5T10:25:31.000Z</time>
      </trkpt>
      <trkpt lat="44.51826" lon="0.73276">
        <ele>98.5</ele>
        <time>2014-7-5T10:25:31.000Z</time>
      </trkpt>
      <trkpt lat="44.51826" lon="0.73272">
        <ele>98.5</ele>
        <time>2014-7-5T10:25:31.000Z</time>
      </trkpt>
      <trkpt lat="44.51826" lon="0.73272">
        <ele>98.5</ele>
        <time>2014-7-5T10:25:31.000Z</time>
      </trkpt>
      <trkpt lat="44.51825" lon="0.73268">
        <ele>99.5</ele>
        <time>2014-7-5T10:25:31.000Z</time>
      </trkpt>
      <trkpt lat="44.51825" lon="0.73268">
        <ele>99.5</ele>
        <time>2014-7-5T10:25:31.000Z</time>
      </trkpt>
      <trkpt lat="44.51825" lon="0.73264">
        <ele>99.5</ele>
        <time>2014-7-5T10:25:31.000Z</time>
      </trkpt>
      <trkpt lat="44.51825" lon="0.73264">
        <ele>99.5</ele>
        <time>2014-7-5T10:25:31.000Z</time>
      </trkpt>
      <trkpt lat="44.51824" lon="0.7326">
        <ele>98.5</ele>
        <time>2014-7-5T10:25:31.000Z</time>
      </trkpt>
      <trkpt lat="44.51824" lon="0.7326">
        <ele>98.5</ele>
        <time>2014-7-5T10:25:31.000Z</time>
      </trkpt>
      <trkpt lat="44.51824" lon="0.73256">
        <ele>99.5</ele>
        <time>2014-7-5T10:25:31.000Z</time>
      </trkpt>
      <trkpt lat="44.51824" lon="0.73256">
        <ele>99.5</ele>
        <time>2014-7-5T10:25:31.000Z</time>
      </trkpt>
      <trkpt lat="44.51823" lon="0.73253">
        <ele>99.5</ele>
        <time>2014-7-5T10:25:31.000Z</time>
      </trkpt>
      <trkpt lat="44.51823" lon="0.73253">
        <ele>99.5</ele>
        <time>2014-7-5T10:25:31.000Z</time>
      </trkpt>
      <trkpt lat="44.51822" lon="0.73249">
        <ele>98.5</ele>
        <time>2014-7-5T10:25:31.000Z</time>
      </trkpt>
      <trkpt lat="44.51822" lon="0.73249">
        <ele>98.5</ele>
        <time>2014-7-5T10:25:31.000Z</time>
      </trkpt>
      <trkpt lat="44.51822" lon="0.73246">
        <ele>98.5</ele>
        <time>2014-7-5T10:25:31.000Z</time>
      </trkpt>
      <trkpt lat="44.51822" lon="0.73246">
        <ele>98.5</ele>
        <time>2014-7-5T10:25:31.000Z</time>
      </trkpt>
      <trkpt lat="44.51822" lon="0.73244">
        <ele>98.5</ele>
        <time>2014-7-5T10:25:31.000Z</time>
      </trkpt>
      <trkpt lat="44.51822" lon="0.73244">
        <ele>98.5</ele>
        <time>2014-7-5T10:25:31.000Z</time>
      </trkpt>
      <trkpt lat="44.51822" lon="0.73241">
        <ele>98.5</ele>
        <time>2014-7-5T10:25:31.000Z</time>
      </trkpt>
      <trkpt lat="44.51822" lon="0.73241">
        <ele>98.5</ele>
        <time>2014-7-5T10:25:31.000Z</time>
      </trkpt>
      <trkpt lat="44.51823" lon="0.73236">
        <ele>98.5</ele>
        <time>2014-7-5T10:25:31.000Z</time>
      </trkpt>
      <trkpt lat="44.51823" lon="0.73236">
        <ele>98.5</ele>
        <time>2014-7-5T10:25:31.000Z</time>
      </trkpt>
      <trkpt lat="44.51824" lon="0.73234">
        <ele>98.5</ele>
        <time>2014-7-5T10:25:31.000Z</time>
      </trkpt>
      <trkpt lat="44.51824" lon="0.73234">
        <ele>98.5</ele>
        <time>2014-7-5T10:25:31.000Z</time>
      </trkpt>
      <trkpt lat="44.51826" lon="0.73232">
        <ele>98.5</ele>
        <time>2014-7-5T10:25:31.000Z</time>
      </trkpt>
      <trkpt lat="44.51826" lon="0.73232">
        <ele>98.5</ele>
        <time>2014-7-5T10:25:31.000Z</time>
      </trkpt>
      <trkpt lat="44.51829" lon="0.7323">
        <ele>97.5</ele>
        <time>2014-7-5T10:25:31.000Z</time>
      </trkpt>
      <trkpt lat="44.51829" lon="0.7323">
        <ele>97.5</ele>
        <time>2014-7-5T10:25:31.000Z</time>
      </trkpt>
      <trkpt lat="44.51831" lon="0.7323">
        <ele>97.5</ele>
        <time>2014-7-5T10:25:31.000Z</time>
      </trkpt>
      <trkpt lat="44.51831" lon="0.7323">
        <ele>97.5</ele>
        <time>2014-7-5T10:25:31.000Z</time>
      </trkpt>
      <trkpt lat="44.51834" lon="0.73231">
        <ele>97.5</ele>
        <time>2014-7-5T10:25:31.000Z</time>
      </trkpt>
      <trkpt lat="44.51834" lon="0.73231">
        <ele>97.5</ele>
        <time>2014-7-5T10:25:31.000Z</time>
      </trkpt>
      <trkpt lat="44.51836" lon="0.73234">
        <ele>97.5</ele>
        <time>2014-7-5T10:25:31.000Z</time>
      </trkpt>
      <trkpt lat="44.51836" lon="0.73234">
        <ele>97.5</ele>
        <time>2014-7-5T10:25:31.000Z</time>
      </trkpt>
      <trkpt lat="44.51838" lon="0.73237">
        <ele>97.5</ele>
        <time>2014-7-5T10:25:31.000Z</time>
      </trkpt>
      <trkpt lat="44.51838" lon="0.73237">
        <ele>97.5</ele>
        <time>2014-7-5T10:25:31.000Z</time>
      </trkpt>
      <trkpt lat="44.51841" lon="0.73239">
        <ele>97.5</ele>
        <time>2014-7-5T10:25:31.000Z</time>
      </trkpt>
      <trkpt lat="44.51841" lon="0.73239">
        <ele>97.5</ele>
        <time>2014-7-5T10:25:31.000Z</time>
      </trkpt>
      <trkpt lat="44.51844" lon="0.73242">
        <ele>97.5</ele>
        <time>2014-7-5T10:25:31.000Z</time>
      </trkpt>
      <trkpt lat="44.51844" lon="0.73242">
        <ele>97.5</ele>
        <time>2014-7-5T10:25:31.000Z</time>
      </trkpt>
      <trkpt lat="44.51848" lon="0.73246">
        <ele>96.5</ele>
        <time>2014-7-5T10:25:31.000Z</time>
      </trkpt>
      <trkpt lat="44.51848" lon="0.73246">
        <ele>96.5</ele>
        <time>2014-7-5T10:25:31.000Z</time>
      </trkpt>
      <trkpt lat="44.51852" lon="0.7325">
        <ele>96.5</ele>
        <time>2014-7-5T10:25:31.000Z</time>
      </trkpt>
      <trkpt lat="44.51852" lon="0.7325">
        <ele>96.5</ele>
        <time>2014-7-5T10:25:31.000Z</time>
      </trkpt>
      <trkpt lat="44.51857" lon="0.73255">
        <ele>95.5</ele>
        <time>2014-7-5T10:25:31.000Z</time>
      </trkpt>
      <trkpt lat="44.51857" lon="0.73255">
        <ele>95.5</ele>
        <time>2014-7-5T10:25:31.000Z</time>
      </trkpt>
      <trkpt lat="44.51861" lon="0.73259">
        <ele>95.5</ele>
        <time>2014-7-5T10:25:31.000Z</time>
      </trkpt>
      <trkpt lat="44.51861" lon="0.73259">
        <ele>95.5</ele>
        <time>2014-7-5T10:25:31.000Z</time>
      </trkpt>
      <trkpt lat="44.51865" lon="0.73264">
        <ele>95.5</ele>
        <time>2014-7-5T10:25:31.000Z</time>
      </trkpt>
      <trkpt lat="44.51865" lon="0.73264">
        <ele>95.5</ele>
        <time>2014-7-5T10:25:31.000Z</time>
      </trkpt>
      <trkpt lat="44.51869" lon="0.73268">
        <ele>94.5</ele>
        <time>2014-7-5T10:25:31.000Z</time>
      </trkpt>
      <trkpt lat="44.51869" lon="0.73268">
        <ele>94.5</ele>
        <time>2014-7-5T10:25:31.000Z</time>
      </trkpt>
      <trkpt lat="44.51872" lon="0.73274">
        <ele>94.5</ele>
        <time>2014-7-5T10:25:31.000Z</time>
      </trkpt>
      <trkpt lat="44.51872" lon="0.73274">
        <ele>94.5</ele>
        <time>2014-7-5T10:25:31.000Z</time>
      </trkpt>
      <trkpt lat="44.51875" lon="0.73279">
        <ele>94.5</ele>
        <time>2014-7-5T10:25:31.000Z</time>
      </trkpt>
      <trkpt lat="44.51875" lon="0.73279">
        <ele>94.5</ele>
        <time>2014-7-5T10:25:31.000Z</time>
      </trkpt>
      <trkpt lat="44.51879" lon="0.73284">
        <ele>94.5</ele>
        <time>2014-7-5T10:25:31.000Z</time>
      </trkpt>
      <trkpt lat="44.51879" lon="0.73284">
        <ele>94.5</ele>
        <time>2014-7-5T10:25:31.000Z</time>
      </trkpt>
      <trkpt lat="44.51883" lon="0.73291">
        <ele>94.5</ele>
        <time>2014-7-5T10:25:31.000Z</time>
      </trkpt>
      <trkpt lat="44.51883" lon="0.73291">
        <ele>94.5</ele>
        <time>2014-7-5T10:25:31.000Z</time>
      </trkpt>
      <trkpt lat="44.51886" lon="0.73298">
        <ele>94.5</ele>
        <time>2014-7-5T10:25:31.000Z</time>
      </trkpt>
      <trkpt lat="44.51886" lon="0.73298">
        <ele>94.5</ele>
        <time>2014-7-5T10:25:31.000Z</time>
      </trkpt>
      <trkpt lat="44.51888" lon="0.73305">
        <ele>94.5</ele>
        <time>2014-7-5T10:25:31.000Z</time>
      </trkpt>
      <trkpt lat="44.51888" lon="0.73305">
        <ele>94.5</ele>
        <time>2014-7-5T10:25:31.000Z</time>
      </trkpt>
      <trkpt lat="44.51891" lon="0.73313">
        <ele>93.5</ele>
        <time>2014-7-5T10:25:31.000Z</time>
      </trkpt>
      <trkpt lat="44.51891" lon="0.73313">
        <ele>93.5</ele>
        <time>2014-7-5T10:25:31.000Z</time>
      </trkpt>
      <trkpt lat="44.51895" lon="0.73319">
        <ele>93.5</ele>
        <time>2014-7-5T10:25:31.000Z</time>
      </trkpt>
      <trkpt lat="44.51895" lon="0.73319">
        <ele>93.5</ele>
        <time>2014-7-5T10:25:31.000Z</time>
      </trkpt>
      <trkpt lat="44.51898" lon="0.73327">
        <ele>94.5</ele>
        <time>2014-7-5T10:25:31.000Z</time>
      </trkpt>
      <trkpt lat="44.51898" lon="0.73327">
        <ele>94.5</ele>
        <time>2014-7-5T10:25:31.000Z</time>
      </trkpt>
      <trkpt lat="44.51902" lon="0.73335">
        <ele>94.5</ele>
        <time>2014-7-5T10:25:31.000Z</time>
      </trkpt>
      <trkpt lat="44.51902" lon="0.73335">
        <ele>94.5</ele>
        <time>2014-7-5T10:25:31.000Z</time>
      </trkpt>
      <trkpt lat="44.51906" lon="0.73342">
        <ele>94.5</ele>
        <time>2014-7-5T10:25:31.000Z</time>
      </trkpt>
      <trkpt lat="44.51906" lon="0.73342">
        <ele>94.5</ele>
        <time>2014-7-5T10:25:31.000Z</time>
      </trkpt>
      <trkpt lat="44.5191" lon="0.73349">
        <ele>95.5</ele>
        <time>2014-7-5T10:25:31.000Z</time>
      </trkpt>
      <trkpt lat="44.5191" lon="0.73349">
        <ele>95.5</ele>
        <time>2014-7-5T10:25:31.000Z</time>
      </trkpt>
      <trkpt lat="44.51915" lon="0.73353">
        <ele>94.5</ele>
        <time>2014-7-5T10:25:31.000Z</time>
      </trkpt>
      <trkpt lat="44.51915" lon="0.73353">
        <ele>94.5</ele>
        <time>2014-7-5T10:25:31.000Z</time>
      </trkpt>
      <trkpt lat="44.51922" lon="0.73354">
        <ele>94.5</ele>
        <time>2014-7-5T10:25:31.000Z</time>
      </trkpt>
      <trkpt lat="44.51922" lon="0.73354">
        <ele>94.5</ele>
        <time>2014-7-5T10:25:31.000Z</time>
      </trkpt>
      <trkpt lat="44.5193" lon="0.73354">
        <ele>93.5</ele>
        <time>2014-7-5T10:25:31.000Z</time>
      </trkpt>
      <trkpt lat="44.5193" lon="0.73354">
        <ele>93.5</ele>
        <time>2014-7-5T10:25:31.000Z</time>
      </trkpt>
      <trkpt lat="44.51936" lon="0.73355">
        <ele>93.5</ele>
        <time>2014-7-5T10:25:31.000Z</time>
      </trkpt>
      <trkpt lat="44.51936" lon="0.73355">
        <ele>93.5</ele>
        <time>2014-7-5T10:25:31.000Z</time>
      </trkpt>
      <trkpt lat="44.51942" lon="0.73354">
        <ele>92.5</ele>
        <time>2014-7-5T10:25:31.000Z</time>
      </trkpt>
      <trkpt lat="44.51942" lon="0.73354">
        <ele>92.5</ele>
        <time>2014-7-5T10:25:31.000Z</time>
      </trkpt>
      <trkpt lat="44.51947" lon="0.73353">
        <ele>91.5</ele>
        <time>2014-7-5T10:25:31.000Z</time>
      </trkpt>
      <trkpt lat="44.51947" lon="0.73353">
        <ele>91.5</ele>
        <time>2014-7-5T10:25:31.000Z</time>
      </trkpt>
      <trkpt lat="44.51954" lon="0.73354">
        <ele>91.5</ele>
        <time>2014-7-5T10:25:31.000Z</time>
      </trkpt>
      <trkpt lat="44.51954" lon="0.73354">
        <ele>91.5</ele>
        <time>2014-7-5T10:25:31.000Z</time>
      </trkpt>
      <trkpt lat="44.51961" lon="0.73353">
        <ele>92.5</ele>
        <time>2014-7-5T10:25:31.000Z</time>
      </trkpt>
      <trkpt lat="44.51961" lon="0.73353">
        <ele>92.5</ele>
        <time>2014-7-5T10:25:31.000Z</time>
      </trkpt>
      <trkpt lat="44.51966" lon="0.73354">
        <ele>91.5</ele>
        <time>2014-7-5T10:26:22.000Z</time>
      </trkpt>
      <trkpt lat="44.51966" lon="0.73354">
        <ele>91.5</ele>
        <time>2014-7-5T10:26:22.000Z</time>
      </trkpt>
      <trkpt lat="44.51972" lon="0.73355">
        <ele>91.5</ele>
        <time>2014-7-5T10:26:22.000Z</time>
      </trkpt>
      <trkpt lat="44.51972" lon="0.73355">
        <ele>91.5</ele>
        <time>2014-7-5T10:26:22.000Z</time>
      </trkpt>
      <trkpt lat="44.51979" lon="0.73356">
        <ele>91.5</ele>
        <time>2014-7-5T10:26:22.000Z</time>
      </trkpt>
      <trkpt lat="44.51979" lon="0.73356">
        <ele>91.5</ele>
        <time>2014-7-5T10:26:22.000Z</time>
      </trkpt>
      <trkpt lat="44.51985" lon="0.73356">
        <ele>91.5</ele>
        <time>2014-7-5T10:26:22.000Z</time>
      </trkpt>
      <trkpt lat="44.51985" lon="0.73356">
        <ele>91.5</ele>
        <time>2014-7-5T10:26:22.000Z</time>
      </trkpt>
      <trkpt lat="44.51991" lon="0.73356">
        <ele>91.5</ele>
        <time>2014-7-5T10:26:22.000Z</time>
      </trkpt>
      <trkpt lat="44.51991" lon="0.73356">
        <ele>91.5</ele>
        <time>2014-7-5T10:26:22.000Z</time>
      </trkpt>
      <trkpt lat="44.51996" lon="0.73356">
        <ele>91.5</ele>
        <time>2014-7-5T10:26:22.000Z</time>
      </trkpt>
      <trkpt lat="44.51996" lon="0.73356">
        <ele>91.5</ele>
        <time>2014-7-5T10:26:22.000Z</time>
      </trkpt>
      <trkpt lat="44.52001" lon="0.73356">
        <ele>90.5</ele>
        <time>2014-7-5T10:26:22.000Z</time>
      </trkpt>
      <trkpt lat="44.52001" lon="0.73356">
        <ele>90.5</ele>
        <time>2014-7-5T10:26:22.000Z</time>
      </trkpt>
      <trkpt lat="44.52006" lon="0.73356">
        <ele>89.5</ele>
        <time>2014-7-5T10:26:22.000Z</time>
      </trkpt>
      <trkpt lat="44.52006" lon="0.73356">
        <ele>89.5</ele>
        <time>2014-7-5T10:26:22.000Z</time>
      </trkpt>
      <trkpt lat="44.5201" lon="0.73355">
        <ele>88.5</ele>
        <time>2014-7-5T10:26:22.000Z</time>
      </trkpt>
      <trkpt lat="44.5201" lon="0.73355">
        <ele>88.5</ele>
        <time>2014-7-5T10:26:22.000Z</time>
      </trkpt>
      <trkpt lat="44.52012" lon="0.73355">
        <ele>87.5</ele>
        <time>2014-7-5T10:26:22.000Z</time>
      </trkpt>
      <trkpt lat="44.52012" lon="0.73355">
        <ele>87.5</ele>
        <time>2014-7-5T10:26:22.000Z</time>
      </trkpt>
      <trkpt lat="44.52017" lon="0.73354">
        <ele>87.5</ele>
        <time>2014-7-5T10:26:22.000Z</time>
      </trkpt>
      <trkpt lat="44.52017" lon="0.73354">
        <ele>87.5</ele>
        <time>2014-7-5T10:26:22.000Z</time>
      </trkpt>
      <trkpt lat="44.52022" lon="0.73354">
        <ele>87.5</ele>
        <time>2014-7-5T10:26:22.000Z</time>
      </trkpt>
      <trkpt lat="44.52022" lon="0.73354">
        <ele>87.5</ele>
        <time>2014-7-5T10:26:22.000Z</time>
      </trkpt>
      <trkpt lat="44.52027" lon="0.73354">
        <ele>87.5</ele>
        <time>2014-7-5T10:26:22.000Z</time>
      </trkpt>
      <trkpt lat="44.52027" lon="0.73354">
        <ele>87.5</ele>
        <time>2014-7-5T10:26:22.000Z</time>
      </trkpt>
      <trkpt lat="44.52032" lon="0.73354">
        <ele>87.5</ele>
        <time>2014-7-5T10:26:22.000Z</time>
      </trkpt>
      <trkpt lat="44.52032" lon="0.73354">
        <ele>87.5</ele>
        <time>2014-7-5T10:26:22.000Z</time>
      </trkpt>
      <trkpt lat="44.52043" lon="0.73354">
        <ele>89.5</ele>
        <time>2014-7-5T10:26:22.000Z</time>
      </trkpt>
      <trkpt lat="44.52043" lon="0.73354">
        <ele>89.5</ele>
        <time>2014-7-5T10:26:22.000Z</time>
      </trkpt>
      <trkpt lat="44.52047" lon="0.73353">
        <ele>88.5</ele>
        <time>2014-7-5T10:26:22.000Z</time>
      </trkpt>
      <trkpt lat="44.52047" lon="0.73353">
        <ele>88.5</ele>
        <time>2014-7-5T10:26:22.000Z</time>
      </trkpt>
      <trkpt lat="44.52051" lon="0.73353">
        <ele>89.5</ele>
        <time>2014-7-5T10:26:22.000Z</time>
      </trkpt>
      <trkpt lat="44.52051" lon="0.73353">
        <ele>89.5</ele>
        <time>2014-7-5T10:26:22.000Z</time>
      </trkpt>
      <trkpt lat="44.52057" lon="0.73356">
        <ele>91.5</ele>
        <time>2014-7-5T10:26:22.000Z</time>
      </trkpt>
      <trkpt lat="44.52057" lon="0.73356">
        <ele>91.5</ele>
        <time>2014-7-5T10:26:22.000Z</time>
      </trkpt>
      <trkpt lat="44.52064" lon="0.73357">
        <ele>94.5</ele>
        <time>2014-7-5T10:26:22.000Z</time>
      </trkpt>
      <trkpt lat="44.52064" lon="0.73357">
        <ele>94.5</ele>
        <time>2014-7-5T10:26:22.000Z</time>
      </trkpt>
      <trkpt lat="44.52068" lon="0.73354">
        <ele>93.5</ele>
        <time>2014-7-5T10:26:22.000Z</time>
      </trkpt>
      <trkpt lat="44.52068" lon="0.73354">
        <ele>93.5</ele>
        <time>2014-7-5T10:26:22.000Z</time>
      </trkpt>
      <trkpt lat="44.52072" lon="0.73355">
        <ele>94.5</ele>
        <time>2014-7-5T10:26:22.000Z</time>
      </trkpt>
      <trkpt lat="44.52072" lon="0.73355">
        <ele>94.5</ele>
        <time>2014-7-5T10:26:22.000Z</time>
      </trkpt>
      <trkpt lat="44.52078" lon="0.73355">
        <ele>94.5</ele>
        <time>2014-7-5T10:26:22.000Z</time>
      </trkpt>
      <trkpt lat="44.52078" lon="0.73355">
        <ele>94.5</ele>
        <time>2014-7-5T10:26:22.000Z</time>
      </trkpt>
      <trkpt lat="44.52081" lon="0.73355">
        <ele>93.5</ele>
        <time>2014-7-5T10:26:22.000Z</time>
      </trkpt>
      <trkpt lat="44.52081" lon="0.73355">
        <ele>93.5</ele>
        <time>2014-7-5T10:26:22.000Z</time>
      </trkpt>
      <trkpt lat="44.52085" lon="0.73354">
        <ele>93.5</ele>
        <time>2014-7-5T10:26:22.000Z</time>
      </trkpt>
      <trkpt lat="44.52085" lon="0.73354">
        <ele>93.5</ele>
        <time>2014-7-5T10:26:22.000Z</time>
      </trkpt>
      <trkpt lat="44.52091" lon="0.73351">
        <ele>92.5</ele>
        <time>2014-7-5T10:26:22.000Z</time>
      </trkpt>
      <trkpt lat="44.52091" lon="0.73351">
        <ele>92.5</ele>
        <time>2014-7-5T10:26:22.000Z</time>
      </trkpt>
      <trkpt lat="44.52099" lon="0.7335">
        <ele>91.5</ele>
        <time>2014-7-5T10:26:22.000Z</time>
      </trkpt>
      <trkpt lat="44.52099" lon="0.7335">
        <ele>91.5</ele>
        <time>2014-7-5T10:26:22.000Z</time>
      </trkpt>
      <trkpt lat="44.52103" lon="0.7335">
        <ele>91.5</ele>
        <time>2014-7-5T10:26:22.000Z</time>
      </trkpt>
      <trkpt lat="44.52103" lon="0.7335">
        <ele>91.5</ele>
        <time>2014-7-5T10:26:22.000Z</time>
      </trkpt>
      <trkpt lat="44.5211" lon="0.73352">
        <ele>92.5</ele>
        <time>2014-7-5T10:26:22.000Z</time>
      </trkpt>
      <trkpt lat="44.5211" lon="0.73352">
        <ele>92.5</ele>
        <time>2014-7-5T10:26:22.000Z</time>
      </trkpt>
      <trkpt lat="44.52115" lon="0.73351">
        <ele>92.5</ele>
        <time>2014-7-5T10:26:22.000Z</time>
      </trkpt>
      <trkpt lat="44.52115" lon="0.73351">
        <ele>92.5</ele>
        <time>2014-7-5T10:26:22.000Z</time>
      </trkpt>
      <trkpt lat="44.5212" lon="0.73352">
        <ele>93.5</ele>
        <time>2014-7-5T10:26:22.000Z</time>
      </trkpt>
      <trkpt lat="44.5212" lon="0.73352">
        <ele>93.5</ele>
        <time>2014-7-5T10:26:22.000Z</time>
      </trkpt>
      <trkpt lat="44.52125" lon="0.73353">
        <ele>93.5</ele>
        <time>2014-7-5T10:26:22.000Z</time>
      </trkpt>
      <trkpt lat="44.52125" lon="0.73353">
        <ele>93.5</ele>
        <time>2014-7-5T10:26:22.000Z</time>
      </trkpt>
      <trkpt lat="44.52128" lon="0.73354">
        <ele>93.5</ele>
        <time>2014-7-5T10:26:22.000Z</time>
      </trkpt>
      <trkpt lat="44.52128" lon="0.73354">
        <ele>93.5</ele>
        <time>2014-7-5T10:26:22.000Z</time>
      </trkpt>
      <trkpt lat="44.52133" lon="0.73351">
        <ele>92.5</ele>
        <time>2014-7-5T10:26:22.000Z</time>
      </trkpt>
      <trkpt lat="44.52133" lon="0.73351">
        <ele>92.5</ele>
        <time>2014-7-5T10:26:22.000Z</time>
      </trkpt>
      <trkpt lat="44.52139" lon="0.73349">
        <ele>89.5</ele>
        <time>2014-7-5T10:26:22.000Z</time>
      </trkpt>
      <trkpt lat="44.52139" lon="0.73349">
        <ele>89.5</ele>
        <time>2014-7-5T10:26:22.000Z</time>
      </trkpt>
      <trkpt lat="44.52144" lon="0.73347">
        <ele>88.5</ele>
        <time>2014-7-5T10:26:22.000Z</time>
      </trkpt>
      <trkpt lat="44.52144" lon="0.73347">
        <ele>88.5</ele>
        <time>2014-7-5T10:26:22.000Z</time>
      </trkpt>
      <trkpt lat="44.5215" lon="0.73345">
        <ele>88.5</ele>
        <time>2014-7-5T10:26:22.000Z</time>
      </trkpt>
      <trkpt lat="44.5215" lon="0.73345">
        <ele>88.5</ele>
        <time>2014-7-5T10:26:22.000Z</time>
      </trkpt>
      <trkpt lat="44.52155" lon="0.73345">
        <ele>88.5</ele>
        <time>2014-7-5T10:26:22.000Z</time>
      </trkpt>
      <trkpt lat="44.52155" lon="0.73345">
        <ele>88.5</ele>
        <time>2014-7-5T10:26:22.000Z</time>
      </trkpt>
      <trkpt lat="44.52161" lon="0.73346">
        <ele>88.5</ele>
        <time>2014-7-5T10:26:22.000Z</time>
      </trkpt>
      <trkpt lat="44.52161" lon="0.73346">
        <ele>88.5</ele>
        <time>2014-7-5T10:26:22.000Z</time>
      </trkpt>
      <trkpt lat="44.52167" lon="0.73348">
        <ele>90.5</ele>
        <time>2014-7-5T10:26:22.000Z</time>
      </trkpt>
      <trkpt lat="44.52167" lon="0.73348">
        <ele>90.5</ele>
        <time>2014-7-5T10:26:22.000Z</time>
      </trkpt>
      <trkpt lat="44.52173" lon="0.73348">
        <ele>90.5</ele>
        <time>2014-7-5T10:26:22.000Z</time>
      </trkpt>
      <trkpt lat="44.52173" lon="0.73348">
        <ele>90.5</ele>
        <time>2014-7-5T10:26:22.000Z</time>
      </trkpt>
      <trkpt lat="44.52179" lon="0.73348">
        <ele>91.5</ele>
        <time>2014-7-5T10:26:22.000Z</time>
      </trkpt>
      <trkpt lat="44.52179" lon="0.73348">
        <ele>91.5</ele>
        <time>2014-7-5T10:26:22.000Z</time>
      </trkpt>
      <trkpt lat="44.52185" lon="0.73346">
        <ele>91.5</ele>
        <time>2014-7-5T10:26:22.000Z</time>
      </trkpt>
      <trkpt lat="44.52185" lon="0.73346">
        <ele>91.5</ele>
        <time>2014-7-5T10:26:22.000Z</time>
      </trkpt>
      <trkpt lat="44.52191" lon="0.73347">
        <ele>92.5</ele>
        <time>2014-7-5T10:26:22.000Z</time>
      </trkpt>
      <trkpt lat="44.52191" lon="0.73347">
        <ele>92.5</ele>
        <time>2014-7-5T10:26:22.000Z</time>
      </trkpt>
      <trkpt lat="44.52197" lon="0.73347">
        <ele>92.5</ele>
        <time>2014-7-5T10:26:22.000Z</time>
      </trkpt>
      <trkpt lat="44.52197" lon="0.73347">
        <ele>92.5</ele>
        <time>2014-7-5T10:26:22.000Z</time>
      </trkpt>
      <trkpt lat="44.52202" lon="0.73347">
        <ele>91.5</ele>
        <time>2014-7-5T10:26:22.000Z</time>
      </trkpt>
      <trkpt lat="44.52202" lon="0.73347">
        <ele>91.5</ele>
        <time>2014-7-5T10:26:22.000Z</time>
      </trkpt>
      <trkpt lat="44.52207" lon="0.73346">
        <ele>91.5</ele>
        <time>2014-7-5T10:26:22.000Z</time>
      </trkpt>
      <trkpt lat="44.52207" lon="0.73346">
        <ele>91.5</ele>
        <time>2014-7-5T10:26:22.000Z</time>
      </trkpt>
      <trkpt lat="44.52212" lon="0.73346">
        <ele>91.5</ele>
        <time>2014-7-5T10:26:22.000Z</time>
      </trkpt>
      <trkpt lat="44.52212" lon="0.73346">
        <ele>91.5</ele>
        <time>2014-7-5T10:26:22.000Z</time>
      </trkpt>
      <trkpt lat="44.52215" lon="0.73346">
        <ele>89.5</ele>
        <time>2014-7-5T10:26:22.000Z</time>
      </trkpt>
      <trkpt lat="44.52215" lon="0.73346">
        <ele>89.5</ele>
        <time>2014-7-5T10:26:22.000Z</time>
      </trkpt>
      <trkpt lat="44.52218" lon="0.73347">
        <ele>89.5</ele>
        <time>2014-7-5T10:26:22.000Z</time>
      </trkpt>
      <trkpt lat="44.52218" lon="0.73347">
        <ele>89.5</ele>
        <time>2014-7-5T10:26:22.000Z</time>
      </trkpt>
      <trkpt lat="44.5222" lon="0.73347">
        <ele>88.5</ele>
        <time>2014-7-5T10:26:22.000Z</time>
      </trkpt>
      <trkpt lat="44.5222" lon="0.73347">
        <ele>88.5</ele>
        <time>2014-7-5T10:26:22.000Z</time>
      </trkpt>
      <trkpt lat="44.52222" lon="0.73347">
        <ele>87.5</ele>
        <time>2014-7-5T10:26:22.000Z</time>
      </trkpt>
      <trkpt lat="44.52222" lon="0.73347">
        <ele>87.5</ele>
        <time>2014-7-5T10:27:32.000Z</time>
      </trkpt>
      <trkpt lat="44.52224" lon="0.73346">
        <ele>88.5</ele>
        <time>2014-7-5T10:27:32.000Z</time>
      </trkpt>
      <trkpt lat="44.52224" lon="0.73346">
        <ele>88.5</ele>
        <time>2014-7-5T10:27:32.000Z</time>
      </trkpt>
      <trkpt lat="44.52229" lon="0.73347">
        <ele>88.5</ele>
        <time>2014-7-5T10:27:32.000Z</time>
      </trkpt>
      <trkpt lat="44.52229" lon="0.73347">
        <ele>88.5</ele>
        <time>2014-7-5T10:27:32.000Z</time>
      </trkpt>
      <trkpt lat="44.52232" lon="0.73351">
        <ele>88.5</ele>
        <time>2014-7-5T10:27:32.000Z</time>
      </trkpt>
      <trkpt lat="44.52232" lon="0.73351">
        <ele>88.5</ele>
        <time>2014-7-5T10:27:32.000Z</time>
      </trkpt>
      <trkpt lat="44.52232" lon="0.73354">
        <ele>87.5</ele>
        <time>2014-7-5T10:27:32.000Z</time>
      </trkpt>
      <trkpt lat="44.52232" lon="0.73354">
        <ele>87.5</ele>
        <time>2014-7-5T10:27:32.000Z</time>
      </trkpt>
      <trkpt lat="44.52231" lon="0.73356">
        <ele>87.5</ele>
        <time>2014-7-5T10:27:32.000Z</time>
      </trkpt>
      <trkpt lat="44.52231" lon="0.73356">
        <ele>87.5</ele>
        <time>2014-7-5T10:27:32.000Z</time>
      </trkpt>
      <trkpt lat="44.52227" lon="0.73357">
        <ele>88.5</ele>
        <time>2014-7-5T10:27:32.000Z</time>
      </trkpt>
      <trkpt lat="44.52227" lon="0.73357">
        <ele>88.5</ele>
        <time>2014-7-5T10:27:32.000Z</time>
      </trkpt>
      <trkpt lat="44.52225" lon="0.73355">
        <ele>88.5</ele>
        <time>2014-7-5T10:27:32.000Z</time>
      </trkpt>
      <trkpt lat="44.52225" lon="0.73355">
        <ele>88.5</ele>
        <time>2014-7-5T10:27:32.000Z</time>
      </trkpt>
      <trkpt lat="44.52224" lon="0.73352">
        <ele>89.5</ele>
        <time>2014-7-5T10:27:32.000Z</time>
      </trkpt>
      <trkpt lat="44.52224" lon="0.73352">
        <ele>89.5</ele>
        <time>2014-7-5T10:27:32.000Z</time>
      </trkpt>
      <trkpt lat="44.52223" lon="0.73349">
        <ele>89.5</ele>
        <time>2014-7-5T10:27:32.000Z</time>
      </trkpt>
      <trkpt lat="44.52223" lon="0.73349">
        <ele>89.5</ele>
        <time>2014-7-5T10:27:32.000Z</time>
      </trkpt>
      <trkpt lat="44.52221" lon="0.73348">
        <ele>89.5</ele>
        <time>2014-7-5T10:27:32.000Z</time>
      </trkpt>
      <trkpt lat="44.52221" lon="0.73348">
        <ele>89.5</ele>
        <time>2014-7-5T10:27:32.000Z</time>
      </trkpt>
      <trkpt lat="44.52219" lon="0.73347">
        <ele>90.5</ele>
        <time>2014-7-5T10:27:32.000Z</time>
      </trkpt>
      <trkpt lat="44.52219" lon="0.73347">
        <ele>90.5</ele>
        <time>2014-7-5T10:27:32.000Z</time>
      </trkpt>
      <trkpt lat="44.52217" lon="0.73347">
        <ele>90.5</ele>
        <time>2014-7-5T10:27:32.000Z</time>
      </trkpt>
      <trkpt lat="44.52217" lon="0.73347">
        <ele>90.5</ele>
        <time>2014-7-5T10:27:32.000Z</time>
      </trkpt>
      <trkpt lat="44.52215" lon="0.73345">
        <ele>91.5</ele>
        <time>2014-7-5T10:27:32.000Z</time>
      </trkpt>
      <trkpt lat="44.52215" lon="0.73345">
        <ele>91.5</ele>
        <time>2014-7-5T10:27:32.000Z</time>
      </trkpt>
      <trkpt lat="44.52213" lon="0.73343">
        <ele>92.5</ele>
        <time>2014-7-5T10:27:32.000Z</time>
      </trkpt>
      <trkpt lat="44.52213" lon="0.73343">
        <ele>92.5</ele>
        <time>2014-7-5T10:27:32.000Z</time>
      </trkpt>
      <trkpt lat="44.52212" lon="0.73341">
        <ele>92.5</ele>
        <time>2014-7-5T10:27:32.000Z</time>
      </trkpt>
      <trkpt lat="44.52212" lon="0.73341">
        <ele>92.5</ele>
        <time>2014-7-5T10:27:32.000Z</time>
      </trkpt>
      <trkpt lat="44.52211" lon="0.73338">
        <ele>92.5</ele>
        <time>2014-7-5T10:27:32.000Z</time>
      </trkpt>
      <trkpt lat="44.52211" lon="0.73338">
        <ele>92.5</ele>
        <time>2014-7-5T10:27:32.000Z</time>
      </trkpt>
      <trkpt lat="44.5221" lon="0.73335">
        <ele>93.5</ele>
        <time>2014-7-5T10:27:32.000Z</time>
      </trkpt>
      <trkpt lat="44.5221" lon="0.73335">
        <ele>93.5</ele>
        <time>2014-7-5T10:27:32.000Z</time>
      </trkpt>
      <trkpt lat="44.52208" lon="0.73332">
        <ele>93.5</ele>
        <time>2014-7-5T10:27:32.000Z</time>
      </trkpt>
      <trkpt lat="44.52208" lon="0.73332">
        <ele>93.5</ele>
        <time>2014-7-5T10:27:32.000Z</time>
      </trkpt>
      <trkpt lat="44.52207" lon="0.7333">
        <ele>92.5</ele>
        <time>2014-7-5T10:27:32.000Z</time>
      </trkpt>
      <trkpt lat="44.52207" lon="0.7333">
        <ele>92.5</ele>
        <time>2014-7-5T10:27:32.000Z</time>
      </trkpt>
      <trkpt lat="44.52205" lon="0.73327">
        <ele>91.5</ele>
        <time>2014-7-5T10:27:32.000Z</time>
      </trkpt>
      <trkpt lat="44.52205" lon="0.73327">
        <ele>91.5</ele>
        <time>2014-7-5T10:27:32.000Z</time>
      </trkpt>
      <trkpt lat="44.52203" lon="0.73325">
        <ele>90.5</ele>
        <time>2014-7-5T10:27:32.000Z</time>
      </trkpt>
      <trkpt lat="44.52203" lon="0.73325">
        <ele>90.5</ele>
        <time>2014-7-5T10:27:32.000Z</time>
      </trkpt>
      <trkpt lat="44.52201" lon="0.73322">
        <ele>90.5</ele>
        <time>2014-7-5T10:27:32.000Z</time>
      </trkpt>
      <trkpt lat="44.52201" lon="0.73322">
        <ele>90.5</ele>
        <time>2014-7-5T10:27:32.000Z</time>
      </trkpt>
      <trkpt lat="44.52199" lon="0.7332">
        <ele>92.5</ele>
        <time>2014-7-5T10:27:32.000Z</time>
      </trkpt>
      <trkpt lat="44.52199" lon="0.7332">
        <ele>92.5</ele>
        <time>2014-7-5T10:27:32.000Z</time>
      </trkpt>
      <trkpt lat="44.52197" lon="0.73317">
        <ele>92.5</ele>
        <time>2014-7-5T10:27:32.000Z</time>
      </trkpt>
      <trkpt lat="44.52197" lon="0.73317">
        <ele>92.5</ele>
        <time>2014-7-5T10:27:32.000Z</time>
      </trkpt>
      <trkpt lat="44.52194" lon="0.73315">
        <ele>92.5</ele>
        <time>2014-7-5T10:27:32.000Z</time>
      </trkpt>
      <trkpt lat="44.52194" lon="0.73315">
        <ele>92.5</ele>
        <time>2014-7-5T10:27:32.000Z</time>
      </trkpt>
      <trkpt lat="44.52192" lon="0.73311">
        <ele>94.5</ele>
        <time>2014-7-5T10:27:32.000Z</time>
      </trkpt>
      <trkpt lat="44.52192" lon="0.73311">
        <ele>94.5</ele>
        <time>2014-7-5T10:27:32.000Z</time>
      </trkpt>
      <trkpt lat="44.5219" lon="0.73309">
        <ele>94.5</ele>
        <time>2014-7-5T10:27:32.000Z</time>
      </trkpt>
      <trkpt lat="44.5219" lon="0.73309">
        <ele>94.5</ele>
        <time>2014-7-5T10:27:32.000Z</time>
      </trkpt>
      <trkpt lat="44.52189" lon="0.73307">
        <ele>94.5</ele>
        <time>2014-7-5T10:27:32.000Z</time>
      </trkpt>
      <trkpt lat="44.52189" lon="0.73307">
        <ele>94.5</ele>
        <time>2014-7-5T10:27:32.000Z</time>
      </trkpt>
      <trkpt lat="44.52187" lon="0.73304">
        <ele>95.5</ele>
        <time>2014-7-5T10:27:32.000Z</time>
      </trkpt>
      <trkpt lat="44.52187" lon="0.73304">
        <ele>95.5</ele>
        <time>2014-7-5T10:27:32.000Z</time>
      </trkpt>
      <trkpt lat="44.52184" lon="0.73302">
        <ele>95.5</ele>
        <time>2014-7-5T10:27:32.000Z</time>
      </trkpt>
      <trkpt lat="44.52184" lon="0.73302">
        <ele>95.5</ele>
        <time>2014-7-5T10:27:32.000Z</time>
      </trkpt>
      <trkpt lat="44.52183" lon="0.73299">
        <ele>97.5</ele>
        <time>2014-7-5T10:27:32.000Z</time>
      </trkpt>
      <trkpt lat="44.52183" lon="0.73299">
        <ele>97.5</ele>
        <time>2014-7-5T10:27:32.000Z</time>
      </trkpt>
      <trkpt lat="44.52184" lon="0.73301">
        <ele>95.5</ele>
        <time>2014-7-5T10:27:32.000Z</time>
      </trkpt>
      <trkpt lat="44.52184" lon="0.73301">
        <ele>95.5</ele>
        <time>2014-7-5T10:27:32.000Z</time>
      </trkpt>
      <trkpt lat="44.52187" lon="0.73305">
        <ele>96.5</ele>
        <time>2014-7-5T10:27:32.000Z</time>
      </trkpt>
      <trkpt lat="44.52187" lon="0.73305">
        <ele>96.5</ele>
        <time>2014-7-5T10:27:32.000Z</time>
      </trkpt>
      <trkpt lat="44.52189" lon="0.73307">
        <ele>96.5</ele>
        <time>2014-7-5T10:27:32.000Z</time>
      </trkpt>
      <trkpt lat="44.52189" lon="0.73307">
        <ele>96.5</ele>
        <time>2014-7-5T10:27:32.000Z</time>
      </trkpt>
      <trkpt lat="44.52191" lon="0.7331">
        <ele>96.5</ele>
        <time>2014-7-5T10:27:32.000Z</time>
      </trkpt>
      <trkpt lat="44.52191" lon="0.7331">
        <ele>96.5</ele>
        <time>2014-7-5T10:27:32.000Z</time>
      </trkpt>
      <trkpt lat="44.52193" lon="0.73313">
        <ele>96.5</ele>
        <time>2014-7-5T10:27:32.000Z</time>
      </trkpt>
      <trkpt lat="44.52193" lon="0.73313">
        <ele>96.5</ele>
        <time>2014-7-5T10:27:32.000Z</time>
      </trkpt>
      <trkpt lat="44.52195" lon="0.73316">
        <ele>96.5</ele>
        <time>2014-7-5T10:27:32.000Z</time>
      </trkpt>
      <trkpt lat="44.52195" lon="0.73316">
        <ele>96.5</ele>
        <time>2014-7-5T10:27:32.000Z</time>
      </trkpt>
      <trkpt lat="44.52198" lon="0.7332">
        <ele>96.5</ele>
        <time>2014-7-5T10:27:32.000Z</time>
      </trkpt>
      <trkpt lat="44.52198" lon="0.7332">
        <ele>96.5</ele>
        <time>2014-7-5T10:27:32.000Z</time>
      </trkpt>
      <trkpt lat="44.522" lon="0.73323">
        <ele>96.5</ele>
        <time>2014-7-5T10:27:32.000Z</time>
      </trkpt>
      <trkpt lat="44.522" lon="0.73323">
        <ele>96.5</ele>
        <time>2014-7-5T10:27:32.000Z</time>
      </trkpt>
      <trkpt lat="44.52203" lon="0.73327">
        <ele>94.5</ele>
        <time>2014-7-5T10:27:32.000Z</time>
      </trkpt>
      <trkpt lat="44.52203" lon="0.73327">
        <ele>94.5</ele>
        <time>2014-7-5T10:27:32.000Z</time>
      </trkpt>
      <trkpt lat="44.52205" lon="0.7333">
        <ele>93.5</ele>
        <time>2014-7-5T10:27:32.000Z</time>
      </trkpt>
      <trkpt lat="44.52205" lon="0.7333">
        <ele>93.5</ele>
        <time>2014-7-5T10:27:32.000Z</time>
      </trkpt>
      <trkpt lat="44.52207" lon="0.73334">
        <ele>93.5</ele>
        <time>2014-7-5T10:27:32.000Z</time>
      </trkpt>
      <trkpt lat="44.52207" lon="0.73334">
        <ele>93.5</ele>
        <time>2014-7-5T10:27:32.000Z</time>
      </trkpt>
      <trkpt lat="44.52209" lon="0.73337">
        <ele>92.5</ele>
        <time>2014-7-5T10:27:32.000Z</time>
      </trkpt>
      <trkpt lat="44.52209" lon="0.73337">
        <ele>92.5</ele>
        <time>2014-7-5T10:27:32.000Z</time>
      </trkpt>
      <trkpt lat="44.52214" lon="0.73344">
        <ele>90.5</ele>
        <time>2014-7-5T10:27:32.000Z</time>
      </trkpt>
      <trkpt lat="44.52214" lon="0.73344">
        <ele>90.5</ele>
        <time>2014-7-5T10:27:32.000Z</time>
      </trkpt>
      <trkpt lat="44.52217" lon="0.73346">
        <ele>89.5</ele>
        <time>2014-7-5T10:27:32.000Z</time>
      </trkpt>
      <trkpt lat="44.52217" lon="0.73346">
        <ele>89.5</ele>
        <time>2014-7-5T10:27:32.000Z</time>
      </trkpt>
      <trkpt lat="44.5222" lon="0.73347">
        <ele>89.5</ele>
        <time>2014-7-5T10:27:32.000Z</time>
      </trkpt>
      <trkpt lat="44.5222" lon="0.73347">
        <ele>89.5</ele>
        <time>2014-7-5T10:27:32.000Z</time>
      </trkpt>
      <trkpt lat="44.52225" lon="0.73347">
        <ele>89.5</ele>
        <time>2014-7-5T10:27:32.000Z</time>
      </trkpt>
      <trkpt lat="44.52225" lon="0.73347">
        <ele>89.5</ele>
        <time>2014-7-5T10:27:32.000Z</time>
      </trkpt>
      <trkpt lat="44.5223" lon="0.73347">
        <ele>89.5</ele>
        <time>2014-7-5T10:27:32.000Z</time>
      </trkpt>
      <trkpt lat="44.5223" lon="0.73347">
        <ele>89.5</ele>
        <time>2014-7-5T10:27:32.000Z</time>
      </trkpt>
      <trkpt lat="44.52235" lon="0.73346">
        <ele>88.5</ele>
        <time>2014-7-5T10:27:32.000Z</time>
      </trkpt>
      <trkpt lat="44.52235" lon="0.73346">
        <ele>88.5</ele>
        <time>2014-7-5T10:27:32.000Z</time>
      </trkpt>
      <trkpt lat="44.52239" lon="0.73346">
        <ele>88.5</ele>
        <time>2014-7-5T10:27:32.000Z</time>
      </trkpt>
      <trkpt lat="44.52239" lon="0.73346">
        <ele>88.5</ele>
        <time>2014-7-5T10:27:32.000Z</time>
      </trkpt>
      <trkpt lat="44.52247" lon="0.73344">
        <ele>88.5</ele>
        <time>2014-7-5T10:28:24.000Z</time>
      </trkpt>
      <trkpt lat="44.52247" lon="0.73344">
        <ele>88.5</ele>
        <time>2014-7-5T10:28:24.000Z</time>
      </trkpt>
      <trkpt lat="44.52252" lon="0.73344">
        <ele>87.5</ele>
        <time>2014-7-5T10:28:24.000Z</time>
      </trkpt>
      <trkpt lat="44.52252" lon="0.73344">
        <ele>87.5</ele>
        <time>2014-7-5T10:28:24.000Z</time>
      </trkpt>
      <trkpt lat="44.52257" lon="0.73345">
        <ele>88.5</ele>
        <time>2014-7-5T10:28:24.000Z</time>
      </trkpt>
      <trkpt lat="44.52257" lon="0.73345">
        <ele>88.5</ele>
        <time>2014-7-5T10:28:24.000Z</time>
      </trkpt>
      <trkpt lat="44.52262" lon="0.73345">
        <ele>88.5</ele>
        <time>2014-7-5T10:28:24.000Z</time>
      </trkpt>
      <trkpt lat="44.52262" lon="0.73345">
        <ele>88.5</ele>
        <time>2014-7-5T10:28:24.000Z</time>
      </trkpt>
      <trkpt lat="44.52266" lon="0.73345">
        <ele>87.5</ele>
        <time>2014-7-5T10:28:24.000Z</time>
      </trkpt>
      <trkpt lat="44.52266" lon="0.73345">
        <ele>87.5</ele>
        <time>2014-7-5T10:28:24.000Z</time>
      </trkpt>
      <trkpt lat="44.52271" lon="0.73345">
        <ele>86.5</ele>
        <time>2014-7-5T10:28:24.000Z</time>
      </trkpt>
      <trkpt lat="44.52271" lon="0.73345">
        <ele>86.5</ele>
        <time>2014-7-5T10:28:24.000Z</time>
      </trkpt>
      <trkpt lat="44.52276" lon="0.73345">
        <ele>86.5</ele>
        <time>2014-7-5T10:28:24.000Z</time>
      </trkpt>
      <trkpt lat="44.52276" lon="0.73345">
        <ele>86.5</ele>
        <time>2014-7-5T10:28:24.000Z</time>
      </trkpt>
      <trkpt lat="44.52281" lon="0.73345">
        <ele>86.5</ele>
        <time>2014-7-5T10:28:24.000Z</time>
      </trkpt>
      <trkpt lat="44.52281" lon="0.73345">
        <ele>86.5</ele>
        <time>2014-7-5T10:28:24.000Z</time>
      </trkpt>
      <trkpt lat="44.52288" lon="0.73345">
        <ele>85.5</ele>
        <time>2014-7-5T10:28:24.000Z</time>
      </trkpt>
      <trkpt lat="44.52288" lon="0.73345">
        <ele>85.5</ele>
        <time>2014-7-5T10:28:24.000Z</time>
      </trkpt>
      <trkpt lat="44.52295" lon="0.73346">
        <ele>85.5</ele>
        <time>2014-7-5T10:28:24.000Z</time>
      </trkpt>
      <trkpt lat="44.52295" lon="0.73346">
        <ele>85.5</ele>
        <time>2014-7-5T10:28:24.000Z</time>
      </trkpt>
      <trkpt lat="44.523" lon="0.73345">
        <ele>85.5</ele>
        <time>2014-7-5T10:28:24.000Z</time>
      </trkpt>
      <trkpt lat="44.523" lon="0.73345">
        <ele>85.5</ele>
        <time>2014-7-5T10:28:24.000Z</time>
      </trkpt>
      <trkpt lat="44.52307" lon="0.73346">
        <ele>84.5</ele>
        <time>2014-7-5T10:28:24.000Z</time>
      </trkpt>
      <trkpt lat="44.52307" lon="0.73346">
        <ele>84.5</ele>
        <time>2014-7-5T10:28:24.000Z</time>
      </trkpt>
      <trkpt lat="44.52313" lon="0.73346">
        <ele>84.5</ele>
        <time>2014-7-5T10:28:24.000Z</time>
      </trkpt>
      <trkpt lat="44.52313" lon="0.73346">
        <ele>84.5</ele>
        <time>2014-7-5T10:28:24.000Z</time>
      </trkpt>
      <trkpt lat="44.52319" lon="0.73346">
        <ele>83.5</ele>
        <time>2014-7-5T10:28:24.000Z</time>
      </trkpt>
      <trkpt lat="44.52319" lon="0.73346">
        <ele>83.5</ele>
        <time>2014-7-5T10:28:24.000Z</time>
      </trkpt>
      <trkpt lat="44.52326" lon="0.73346">
        <ele>82.5</ele>
        <time>2014-7-5T10:28:24.000Z</time>
      </trkpt>
      <trkpt lat="44.52326" lon="0.73346">
        <ele>82.5</ele>
        <time>2014-7-5T10:28:24.000Z</time>
      </trkpt>
      <trkpt lat="44.52332" lon="0.73347">
        <ele>81.5</ele>
        <time>2014-7-5T10:28:24.000Z</time>
      </trkpt>
      <trkpt lat="44.52332" lon="0.73347">
        <ele>81.5</ele>
        <time>2014-7-5T10:28:24.000Z</time>
      </trkpt>
      <trkpt lat="44.52337" lon="0.73346">
        <ele>81.5</ele>
        <time>2014-7-5T10:28:24.000Z</time>
      </trkpt>
      <trkpt lat="44.52337" lon="0.73346">
        <ele>81.5</ele>
        <time>2014-7-5T10:28:24.000Z</time>
      </trkpt>
      <trkpt lat="44.52341" lon="0.73346">
        <ele>80.5</ele>
        <time>2014-7-5T10:28:24.000Z</time>
      </trkpt>
      <trkpt lat="44.52341" lon="0.73346">
        <ele>80.5</ele>
        <time>2014-7-5T10:28:24.000Z</time>
      </trkpt>
      <trkpt lat="44.52344" lon="0.73346">
        <ele>79.5</ele>
        <time>2014-7-5T10:28:24.000Z</time>
      </trkpt>
      <trkpt lat="44.52344" lon="0.73346">
        <ele>79.5</ele>
        <time>2014-7-5T10:28:24.000Z</time>
      </trkpt>
      <trkpt lat="44.52348" lon="0.73346">
        <ele>80.5</ele>
        <time>2014-7-5T10:28:24.000Z</time>
      </trkpt>
      <trkpt lat="44.52348" lon="0.73346">
        <ele>80.5</ele>
        <time>2014-7-5T10:28:24.000Z</time>
      </trkpt>
      <trkpt lat="44.5235" lon="0.73346">
        <ele>80.5</ele>
        <time>2014-7-5T10:28:24.000Z</time>
      </trkpt>
      <trkpt lat="44.5235" lon="0.73346">
        <ele>80.5</ele>
        <time>2014-7-5T10:28:24.000Z</time>
      </trkpt>
      <trkpt lat="44.52354" lon="0.73346">
        <ele>79.5</ele>
        <time>2014-7-5T10:28:24.000Z</time>
      </trkpt>
      <trkpt lat="44.52354" lon="0.73346">
        <ele>79.5</ele>
        <time>2014-7-5T10:28:24.000Z</time>
      </trkpt>
      <trkpt lat="44.5236" lon="0.73346">
        <ele>79.5</ele>
        <time>2014-7-5T10:28:24.000Z</time>
      </trkpt>
      <trkpt lat="44.5236" lon="0.73346">
        <ele>79.5</ele>
        <time>2014-7-5T10:28:24.000Z</time>
      </trkpt>
      <trkpt lat="44.52364" lon="0.73346">
        <ele>79.5</ele>
        <time>2014-7-5T10:28:24.000Z</time>
      </trkpt>
      <trkpt lat="44.52364" lon="0.73346">
        <ele>79.5</ele>
        <time>2014-7-5T10:28:24.000Z</time>
      </trkpt>
      <trkpt lat="44.52369" lon="0.73346">
        <ele>79.5</ele>
        <time>2014-7-5T10:28:24.000Z</time>
      </trkpt>
      <trkpt lat="44.52369" lon="0.73346">
        <ele>79.5</ele>
        <time>2014-7-5T10:28:24.000Z</time>
      </trkpt>
      <trkpt lat="44.52373" lon="0.73346">
        <ele>79.5</ele>
        <time>2014-7-5T10:28:24.000Z</time>
      </trkpt>
      <trkpt lat="44.52373" lon="0.73346">
        <ele>79.5</ele>
        <time>2014-7-5T10:28:24.000Z</time>
      </trkpt>
      <trkpt lat="44.52378" lon="0.73346">
        <ele>79.5</ele>
        <time>2014-7-5T10:28:24.000Z</time>
      </trkpt>
      <trkpt lat="44.52378" lon="0.73346">
        <ele>79.5</ele>
        <time>2014-7-5T10:28:24.000Z</time>
      </trkpt>
      <trkpt lat="44.52383" lon="0.73347">
        <ele>78.5</ele>
        <time>2014-7-5T10:28:24.000Z</time>
      </trkpt>
      <trkpt lat="44.52383" lon="0.73347">
        <ele>78.5</ele>
        <time>2014-7-5T10:28:24.000Z</time>
      </trkpt>
      <trkpt lat="44.52389" lon="0.73346">
        <ele>78.5</ele>
        <time>2014-7-5T10:28:24.000Z</time>
      </trkpt>
      <trkpt lat="44.52389" lon="0.73346">
        <ele>78.5</ele>
        <time>2014-7-5T10:28:24.000Z</time>
      </trkpt>
      <trkpt lat="44.52395" lon="0.73346">
        <ele>78.5</ele>
        <time>2014-7-5T10:28:24.000Z</time>
      </trkpt>
      <trkpt lat="44.52395" lon="0.73346">
        <ele>78.5</ele>
        <time>2014-7-5T10:28:24.000Z</time>
      </trkpt>
      <trkpt lat="44.524" lon="0.73346">
        <ele>77.5</ele>
        <time>2014-7-5T10:28:24.000Z</time>
      </trkpt>
      <trkpt lat="44.524" lon="0.73346">
        <ele>77.5</ele>
        <time>2014-7-5T10:28:24.000Z</time>
      </trkpt>
      <trkpt lat="44.52405" lon="0.73346">
        <ele>77.5</ele>
        <time>2014-7-5T10:28:24.000Z</time>
      </trkpt>
      <trkpt lat="44.52405" lon="0.73346">
        <ele>77.5</ele>
        <time>2014-7-5T10:28:24.000Z</time>
      </trkpt>
      <trkpt lat="44.52411" lon="0.73346">
        <ele>77.5</ele>
        <time>2014-7-5T10:28:24.000Z</time>
      </trkpt>
      <trkpt lat="44.52411" lon="0.73346">
        <ele>77.5</ele>
        <time>2014-7-5T10:28:24.000Z</time>
      </trkpt>
      <trkpt lat="44.52416" lon="0.73346">
        <ele>76.5</ele>
        <time>2014-7-5T10:28:24.000Z</time>
      </trkpt>
      <trkpt lat="44.52416" lon="0.73346">
        <ele>76.5</ele>
        <time>2014-7-5T10:28:24.000Z</time>
      </trkpt>
      <trkpt lat="44.52422" lon="0.73346">
        <ele>76.5</ele>
        <time>2014-7-5T10:28:24.000Z</time>
      </trkpt>
      <trkpt lat="44.52422" lon="0.73346">
        <ele>76.5</ele>
        <time>2014-7-5T10:28:24.000Z</time>
      </trkpt>
      <trkpt lat="44.52426" lon="0.73346">
        <ele>76.5</ele>
        <time>2014-7-5T10:28:24.000Z</time>
      </trkpt>
      <trkpt lat="44.52426" lon="0.73346">
        <ele>76.5</ele>
        <time>2014-7-5T10:28:24.000Z</time>
      </trkpt>
      <trkpt lat="44.5243" lon="0.73346">
        <ele>77.5</ele>
        <time>2014-7-5T10:28:24.000Z</time>
      </trkpt>
      <trkpt lat="44.5243" lon="0.73346">
        <ele>77.5</ele>
        <time>2014-7-5T10:28:24.000Z</time>
      </trkpt>
      <trkpt lat="44.52435" lon="0.73347">
        <ele>76.5</ele>
        <time>2014-7-5T10:28:24.000Z</time>
      </trkpt>
      <trkpt lat="44.52435" lon="0.73347">
        <ele>76.5</ele>
        <time>2014-7-5T10:28:24.000Z</time>
      </trkpt>
      <trkpt lat="44.52439" lon="0.73347">
        <ele>76.5</ele>
        <time>2014-7-5T10:28:24.000Z</time>
      </trkpt>
      <trkpt lat="44.52439" lon="0.73347">
        <ele>76.5</ele>
        <time>2014-7-5T10:28:24.000Z</time>
      </trkpt>
      <trkpt lat="44.52444" lon="0.73347">
        <ele>76.5</ele>
        <time>2014-7-5T10:28:24.000Z</time>
      </trkpt>
      <trkpt lat="44.52444" lon="0.73347">
        <ele>76.5</ele>
        <time>2014-7-5T10:28:24.000Z</time>
      </trkpt>
      <trkpt lat="44.52449" lon="0.73346">
        <ele>76.5</ele>
        <time>2014-7-5T10:28:24.000Z</time>
      </trkpt>
      <trkpt lat="44.52449" lon="0.73346">
        <ele>76.5</ele>
        <time>2014-7-5T10:28:24.000Z</time>
      </trkpt>
      <trkpt lat="44.52454" lon="0.73346">
        <ele>76.5</ele>
        <time>2014-7-5T10:28:24.000Z</time>
      </trkpt>
      <trkpt lat="44.52454" lon="0.73346">
        <ele>76.5</ele>
        <time>2014-7-5T10:28:24.000Z</time>
      </trkpt>
      <trkpt lat="44.5246" lon="0.73346">
        <ele>76.5</ele>
        <time>2014-7-5T10:28:24.000Z</time>
      </trkpt>
      <trkpt lat="44.5246" lon="0.73346">
        <ele>76.5</ele>
        <time>2014-7-5T10:28:24.000Z</time>
      </trkpt>
      <trkpt lat="44.52464" lon="0.73345">
        <ele>76.5</ele>
        <time>2014-7-5T10:28:24.000Z</time>
      </trkpt>
      <trkpt lat="44.52464" lon="0.73345">
        <ele>76.5</ele>
        <time>2014-7-5T10:28:24.000Z</time>
      </trkpt>
      <trkpt lat="44.52469" lon="0.73346">
        <ele>75.5</ele>
        <time>2014-7-5T10:28:24.000Z</time>
      </trkpt>
      <trkpt lat="44.52469" lon="0.73346">
        <ele>75.5</ele>
        <time>2014-7-5T10:28:24.000Z</time>
      </trkpt>
      <trkpt lat="44.52478" lon="0.73346">
        <ele>75.5</ele>
        <time>2014-7-5T10:28:24.000Z</time>
      </trkpt>
      <trkpt lat="44.52478" lon="0.73346">
        <ele>75.5</ele>
        <time>2014-7-5T10:28:24.000Z</time>
      </trkpt>
      <trkpt lat="44.52484" lon="0.73345">
        <ele>75.5</ele>
        <time>2014-7-5T10:28:24.000Z</time>
      </trkpt>
      <trkpt lat="44.52484" lon="0.73345">
        <ele>75.5</ele>
        <time>2014-7-5T10:28:24.000Z</time>
      </trkpt>
      <trkpt lat="44.52489" lon="0.73346">
        <ele>75.5</ele>
        <time>2014-7-5T10:28:24.000Z</time>
      </trkpt>
      <trkpt lat="44.52489" lon="0.73346">
        <ele>75.5</ele>
        <time>2014-7-5T10:28:24.000Z</time>
      </trkpt>
      <trkpt lat="44.52494" lon="0.73345">
        <ele>75.5</ele>
        <time>2014-7-5T10:28:24.000Z</time>
      </trkpt>
      <trkpt lat="44.52494" lon="0.73345">
        <ele>75.5</ele>
        <time>2014-7-5T10:28:24.000Z</time>
      </trkpt>
      <trkpt lat="44.525" lon="0.73346">
        <ele>75.5</ele>
        <time>2014-7-5T10:28:24.000Z</time>
      </trkpt>
      <trkpt lat="44.525" lon="0.73346">
        <ele>75.5</ele>
        <time>2014-7-5T10:28:24.000Z</time>
      </trkpt>
      <trkpt lat="44.52505" lon="0.73346">
        <ele>76.5</ele>
        <time>2014-7-5T10:28:24.000Z</time>
      </trkpt>
      <trkpt lat="44.52505" lon="0.73346">
        <ele>76.5</ele>
        <time>2014-7-5T10:29:14.000Z</time>
      </trkpt>
      <trkpt lat="44.5251" lon="0.73346">
        <ele>76.5</ele>
        <time>2014-7-5T10:29:14.000Z</time>
      </trkpt>
      <trkpt lat="44.5251" lon="0.73346">
        <ele>76.5</ele>
        <time>2014-7-5T10:29:14.000Z</time>
      </trkpt>
      <trkpt lat="44.52515" lon="0.73345">
        <ele>76.5</ele>
        <time>2014-7-5T10:29:14.000Z</time>
      </trkpt>
      <trkpt lat="44.52515" lon="0.73345">
        <ele>76.5</ele>
        <time>2014-7-5T10:29:14.000Z</time>
      </trkpt>
      <trkpt lat="44.52519" lon="0.73344">
        <ele>75.5</ele>
        <time>2014-7-5T10:29:14.000Z</time>
      </trkpt>
      <trkpt lat="44.52519" lon="0.73344">
        <ele>75.5</ele>
        <time>2014-7-5T10:29:14.000Z</time>
      </trkpt>
      <trkpt lat="44.52524" lon="0.73345">
        <ele>76.5</ele>
        <time>2014-7-5T10:29:14.000Z</time>
      </trkpt>
      <trkpt lat="44.52524" lon="0.73345">
        <ele>76.5</ele>
        <time>2014-7-5T10:29:14.000Z</time>
      </trkpt>
      <trkpt lat="44.52529" lon="0.73346">
        <ele>75.5</ele>
        <time>2014-7-5T10:29:14.000Z</time>
      </trkpt>
      <trkpt lat="44.52529" lon="0.73346">
        <ele>75.5</ele>
        <time>2014-7-5T10:29:14.000Z</time>
      </trkpt>
      <trkpt lat="44.52534" lon="0.73346">
        <ele>76.5</ele>
        <time>2014-7-5T10:29:14.000Z</time>
      </trkpt>
      <trkpt lat="44.52534" lon="0.73346">
        <ele>76.5</ele>
        <time>2014-7-5T10:29:14.000Z</time>
      </trkpt>
      <trkpt lat="44.52539" lon="0.73347">
        <ele>75.5</ele>
        <time>2014-7-5T10:29:14.000Z</time>
      </trkpt>
      <trkpt lat="44.52539" lon="0.73347">
        <ele>75.5</ele>
        <time>2014-7-5T10:29:14.000Z</time>
      </trkpt>
      <trkpt lat="44.52544" lon="0.73347">
        <ele>76.5</ele>
        <time>2014-7-5T10:29:14.000Z</time>
      </trkpt>
      <trkpt lat="44.52544" lon="0.73347">
        <ele>76.5</ele>
        <time>2014-7-5T10:29:14.000Z</time>
      </trkpt>
      <trkpt lat="44.52549" lon="0.73347">
        <ele>75.5</ele>
        <time>2014-7-5T10:29:14.000Z</time>
      </trkpt>
      <trkpt lat="44.52549" lon="0.73347">
        <ele>75.5</ele>
        <time>2014-7-5T10:29:14.000Z</time>
      </trkpt>
      <trkpt lat="44.52554" lon="0.73347">
        <ele>76.5</ele>
        <time>2014-7-5T10:29:14.000Z</time>
      </trkpt>
      <trkpt lat="44.52554" lon="0.73347">
        <ele>76.5</ele>
        <time>2014-7-5T10:29:14.000Z</time>
      </trkpt>
      <trkpt lat="44.52559" lon="0.73347">
        <ele>76.5</ele>
        <time>2014-7-5T10:29:14.000Z</time>
      </trkpt>
      <trkpt lat="44.52559" lon="0.73347">
        <ele>76.5</ele>
        <time>2014-7-5T10:29:14.000Z</time>
      </trkpt>
      <trkpt lat="44.52563" lon="0.73347">
        <ele>75.5</ele>
        <time>2014-7-5T10:29:14.000Z</time>
      </trkpt>
      <trkpt lat="44.52563" lon="0.73347">
        <ele>75.5</ele>
        <time>2014-7-5T10:29:14.000Z</time>
      </trkpt>
      <trkpt lat="44.52569" lon="0.73347">
        <ele>75.5</ele>
        <time>2014-7-5T10:29:14.000Z</time>
      </trkpt>
      <trkpt lat="44.52569" lon="0.73347">
        <ele>75.5</ele>
        <time>2014-7-5T10:29:14.000Z</time>
      </trkpt>
      <trkpt lat="44.52572" lon="0.73347">
        <ele>75.5</ele>
        <time>2014-7-5T10:29:14.000Z</time>
      </trkpt>
      <trkpt lat="44.52572" lon="0.73347">
        <ele>75.5</ele>
        <time>2014-7-5T10:29:14.000Z</time>
      </trkpt>
      <trkpt lat="44.52578" lon="0.73348">
        <ele>75.5</ele>
        <time>2014-7-5T10:29:14.000Z</time>
      </trkpt>
      <trkpt lat="44.52578" lon="0.73348">
        <ele>75.5</ele>
        <time>2014-7-5T10:29:14.000Z</time>
      </trkpt>
      <trkpt lat="44.52582" lon="0.73348">
        <ele>75.5</ele>
        <time>2014-7-5T10:29:14.000Z</time>
      </trkpt>
      <trkpt lat="44.52582" lon="0.73348">
        <ele>75.5</ele>
        <time>2014-7-5T10:29:14.000Z</time>
      </trkpt>
      <trkpt lat="44.52587" lon="0.73347">
        <ele>75.5</ele>
        <time>2014-7-5T10:29:14.000Z</time>
      </trkpt>
      <trkpt lat="44.52587" lon="0.73347">
        <ele>75.5</ele>
        <time>2014-7-5T10:29:14.000Z</time>
      </trkpt>
      <trkpt lat="44.52591" lon="0.73347">
        <ele>75.5</ele>
        <time>2014-7-5T10:29:14.000Z</time>
      </trkpt>
      <trkpt lat="44.52591" lon="0.73347">
        <ele>75.5</ele>
        <time>2014-7-5T10:29:14.000Z</time>
      </trkpt>
      <trkpt lat="44.52595" lon="0.73346">
        <ele>76.5</ele>
        <time>2014-7-5T10:29:14.000Z</time>
      </trkpt>
      <trkpt lat="44.52595" lon="0.73346">
        <ele>76.5</ele>
        <time>2014-7-5T10:29:14.000Z</time>
      </trkpt>
      <trkpt lat="44.52598" lon="0.73342">
        <ele>75.5</ele>
        <time>2014-7-5T10:29:14.000Z</time>
      </trkpt>
      <trkpt lat="44.52598" lon="0.73342">
        <ele>75.5</ele>
        <time>2014-7-5T10:29:14.000Z</time>
      </trkpt>
      <trkpt lat="44.52599" lon="0.73336">
        <ele>75.5</ele>
        <time>2014-7-5T10:29:14.000Z</time>
      </trkpt>
      <trkpt lat="44.52599" lon="0.73336">
        <ele>75.5</ele>
        <time>2014-7-5T10:29:14.000Z</time>
      </trkpt>
      <trkpt lat="44.52599" lon="0.73331">
        <ele>76.5</ele>
        <time>2014-7-5T10:29:14.000Z</time>
      </trkpt>
      <trkpt lat="44.52599" lon="0.73331">
        <ele>76.5</ele>
        <time>2014-7-5T10:29:14.000Z</time>
      </trkpt>
      <trkpt lat="44.52598" lon="0.73323">
        <ele>77.5</ele>
        <time>2014-7-5T10:29:14.000Z</time>
      </trkpt>
      <trkpt lat="44.52598" lon="0.73323">
        <ele>77.5</ele>
        <time>2014-7-5T10:29:14.000Z</time>
      </trkpt>
      <trkpt lat="44.52597" lon="0.73317">
        <ele>77.5</ele>
        <time>2014-7-5T10:29:14.000Z</time>
      </trkpt>
      <trkpt lat="44.52597" lon="0.73317">
        <ele>77.5</ele>
        <time>2014-7-5T10:29:14.000Z</time>
      </trkpt>
      <trkpt lat="44.52596" lon="0.7331">
        <ele>77.5</ele>
        <time>2014-7-5T10:29:14.000Z</time>
      </trkpt>
      <trkpt lat="44.52596" lon="0.7331">
        <ele>77.5</ele>
        <time>2014-7-5T10:29:14.000Z</time>
      </trkpt>
      <trkpt lat="44.52596" lon="0.73302">
        <ele>77.5</ele>
        <time>2014-7-5T10:29:14.000Z</time>
      </trkpt>
      <trkpt lat="44.52596" lon="0.73302">
        <ele>77.5</ele>
        <time>2014-7-5T10:29:14.000Z</time>
      </trkpt>
      <trkpt lat="44.52595" lon="0.73295">
        <ele>77.5</ele>
        <time>2014-7-5T10:29:14.000Z</time>
      </trkpt>
      <trkpt lat="44.52595" lon="0.73295">
        <ele>77.5</ele>
        <time>2014-7-5T10:29:14.000Z</time>
      </trkpt>
      <trkpt lat="44.52594" lon="0.73289">
        <ele>77.5</ele>
        <time>2014-7-5T10:29:14.000Z</time>
      </trkpt>
      <trkpt lat="44.52594" lon="0.73289">
        <ele>77.5</ele>
        <time>2014-7-5T10:29:14.000Z</time>
      </trkpt>
      <trkpt lat="44.52593" lon="0.73282">
        <ele>77.5</ele>
        <time>2014-7-5T10:29:14.000Z</time>
      </trkpt>
      <trkpt lat="44.52593" lon="0.73282">
        <ele>77.5</ele>
        <time>2014-7-5T10:29:14.000Z</time>
      </trkpt>
      <trkpt lat="44.52593" lon="0.73277">
        <ele>77.5</ele>
        <time>2014-7-5T10:29:14.000Z</time>
      </trkpt>
      <trkpt lat="44.52593" lon="0.73277">
        <ele>77.5</ele>
        <time>2014-7-5T10:29:14.000Z</time>
      </trkpt>
      <trkpt lat="44.52592" lon="0.73271">
        <ele>77.5</ele>
        <time>2014-7-5T10:29:14.000Z</time>
      </trkpt>
      <trkpt lat="44.52592" lon="0.73271">
        <ele>77.5</ele>
        <time>2014-7-5T10:29:14.000Z</time>
      </trkpt>
      <trkpt lat="44.5259" lon="0.73258">
        <ele>78.5</ele>
        <time>2014-7-5T10:29:14.000Z</time>
      </trkpt>
      <trkpt lat="44.5259" lon="0.73258">
        <ele>78.5</ele>
        <time>2014-7-5T10:29:14.000Z</time>
      </trkpt>
      <trkpt lat="44.52588" lon="0.73252">
        <ele>78.5</ele>
        <time>2014-7-5T10:29:14.000Z</time>
      </trkpt>
      <trkpt lat="44.52588" lon="0.73252">
        <ele>78.5</ele>
        <time>2014-7-5T10:29:14.000Z</time>
      </trkpt>
      <trkpt lat="44.52587" lon="0.73245">
        <ele>78.5</ele>
        <time>2014-7-5T10:29:14.000Z</time>
      </trkpt>
      <trkpt lat="44.52587" lon="0.73245">
        <ele>78.5</ele>
        <time>2014-7-5T10:29:14.000Z</time>
      </trkpt>
      <trkpt lat="44.52586" lon="0.73238">
        <ele>78.5</ele>
        <time>2014-7-5T10:29:14.000Z</time>
      </trkpt>
      <trkpt lat="44.52586" lon="0.73238">
        <ele>78.5</ele>
        <time>2014-7-5T10:29:14.000Z</time>
      </trkpt>
      <trkpt lat="44.52585" lon="0.7323">
        <ele>78.5</ele>
        <time>2014-7-5T10:29:14.000Z</time>
      </trkpt>
      <trkpt lat="44.52585" lon="0.7323">
        <ele>78.5</ele>
        <time>2014-7-5T10:29:14.000Z</time>
      </trkpt>
      <trkpt lat="44.52584" lon="0.73223">
        <ele>77.5</ele>
        <time>2014-7-5T10:29:14.000Z</time>
      </trkpt>
      <trkpt lat="44.52584" lon="0.73223">
        <ele>77.5</ele>
        <time>2014-7-5T10:29:14.000Z</time>
      </trkpt>
      <trkpt lat="44.52583" lon="0.73215">
        <ele>77.5</ele>
        <time>2014-7-5T10:29:14.000Z</time>
      </trkpt>
      <trkpt lat="44.52583" lon="0.73215">
        <ele>77.5</ele>
        <time>2014-7-5T10:29:14.000Z</time>
      </trkpt>
      <trkpt lat="44.52582" lon="0.73208">
        <ele>77.5</ele>
        <time>2014-7-5T10:29:14.000Z</time>
      </trkpt>
      <trkpt lat="44.52582" lon="0.73208">
        <ele>77.5</ele>
        <time>2014-7-5T10:29:14.000Z</time>
      </trkpt>
      <trkpt lat="44.5258" lon="0.73201">
        <ele>76.5</ele>
        <time>2014-7-5T10:29:14.000Z</time>
      </trkpt>
      <trkpt lat="44.5258" lon="0.73201">
        <ele>76.5</ele>
        <time>2014-7-5T10:29:14.000Z</time>
      </trkpt>
      <trkpt lat="44.52579" lon="0.73194">
        <ele>76.5</ele>
        <time>2014-7-5T10:29:14.000Z</time>
      </trkpt>
      <trkpt lat="44.52579" lon="0.73194">
        <ele>76.5</ele>
        <time>2014-7-5T10:29:14.000Z</time>
      </trkpt>
      <trkpt lat="44.52578" lon="0.73188">
        <ele>76.5</ele>
        <time>2014-7-5T10:29:14.000Z</time>
      </trkpt>
      <trkpt lat="44.52578" lon="0.73188">
        <ele>76.5</ele>
        <time>2014-7-5T10:29:14.000Z</time>
      </trkpt>
      <trkpt lat="44.52576" lon="0.73181">
        <ele>77.5</ele>
        <time>2014-7-5T10:29:14.000Z</time>
      </trkpt>
      <trkpt lat="44.52576" lon="0.73181">
        <ele>77.5</ele>
        <time>2014-7-5T10:29:14.000Z</time>
      </trkpt>
      <trkpt lat="44.52575" lon="0.73174">
        <ele>76.5</ele>
        <time>2014-7-5T10:29:14.000Z</time>
      </trkpt>
      <trkpt lat="44.52575" lon="0.73174">
        <ele>76.5</ele>
        <time>2014-7-5T10:29:14.000Z</time>
      </trkpt>
      <trkpt lat="44.52573" lon="0.73168">
        <ele>76.5</ele>
        <time>2014-7-5T10:29:14.000Z</time>
      </trkpt>
      <trkpt lat="44.52573" lon="0.73168">
        <ele>76.5</ele>
        <time>2014-7-5T10:29:14.000Z</time>
      </trkpt>
      <trkpt lat="44.52572" lon="0.7316">
        <ele>76.5</ele>
        <time>2014-7-5T10:29:14.000Z</time>
      </trkpt>
      <trkpt lat="44.52572" lon="0.7316">
        <ele>76.5</ele>
        <time>2014-7-5T10:29:14.000Z</time>
      </trkpt>
      <trkpt lat="44.52571" lon="0.73154">
        <ele>76.5</ele>
        <time>2014-7-5T10:29:14.000Z</time>
      </trkpt>
      <trkpt lat="44.52571" lon="0.73154">
        <ele>76.5</ele>
        <time>2014-7-5T10:29:14.000Z</time>
      </trkpt>
      <trkpt lat="44.52569" lon="0.73148">
        <ele>76.5</ele>
        <time>2014-7-5T10:29:14.000Z</time>
      </trkpt>
      <trkpt lat="44.52569" lon="0.73148">
        <ele>76.5</ele>
        <time>2014-7-5T10:29:14.000Z</time>
      </trkpt>
      <trkpt lat="44.52567" lon="0.73142">
        <ele>76.5</ele>
        <time>2014-7-5T10:29:14.000Z</time>
      </trkpt>
      <trkpt lat="44.52567" lon="0.73142">
        <ele>76.5</ele>
        <time>2014-7-5T10:29:14.000Z</time>
      </trkpt>
      <trkpt lat="44.52566" lon="0.73135">
        <ele>77.5</ele>
        <time>2014-7-5T10:29:14.000Z</time>
      </trkpt>
      <trkpt lat="44.52566" lon="0.73135">
        <ele>77.5</ele>
        <time>2014-7-5T10:29:14.000Z</time>
      </trkpt>
      <trkpt lat="44.52563" lon="0.73129">
        <ele>76.5</ele>
        <time>2014-7-5T10:30:6.000Z</time>
      </trkpt>
      <trkpt lat="44.52563" lon="0.73129">
        <ele>76.5</ele>
        <time>2014-7-5T10:30:6.000Z</time>
      </trkpt>
      <trkpt lat="44.5256" lon="0.73123">
        <ele>76.5</ele>
        <time>2014-7-5T10:30:6.000Z</time>
      </trkpt>
      <trkpt lat="44.5256" lon="0.73123">
        <ele>76.5</ele>
        <time>2014-7-5T10:30:6.000Z</time>
      </trkpt>
      <trkpt lat="44.52554" lon="0.73111">
        <ele>76.5</ele>
        <time>2014-7-5T10:30:6.000Z</time>
      </trkpt>
      <trkpt lat="44.52554" lon="0.73111">
        <ele>76.5</ele>
        <time>2014-7-5T10:30:6.000Z</time>
      </trkpt>
      <trkpt lat="44.52552" lon="0.73105">
        <ele>76.5</ele>
        <time>2014-7-5T10:30:6.000Z</time>
      </trkpt>
      <trkpt lat="44.52552" lon="0.73105">
        <ele>76.5</ele>
        <time>2014-7-5T10:30:6.000Z</time>
      </trkpt>
      <trkpt lat="44.5255" lon="0.73098">
        <ele>76.5</ele>
        <time>2014-7-5T10:30:6.000Z</time>
      </trkpt>
      <trkpt lat="44.5255" lon="0.73098">
        <ele>76.5</ele>
        <time>2014-7-5T10:30:6.000Z</time>
      </trkpt>
      <trkpt lat="44.52549" lon="0.73091">
        <ele>76.5</ele>
        <time>2014-7-5T10:30:6.000Z</time>
      </trkpt>
      <trkpt lat="44.52549" lon="0.73091">
        <ele>76.5</ele>
        <time>2014-7-5T10:30:6.000Z</time>
      </trkpt>
      <trkpt lat="44.52549" lon="0.73084">
        <ele>75.5</ele>
        <time>2014-7-5T10:30:6.000Z</time>
      </trkpt>
      <trkpt lat="44.52549" lon="0.73084">
        <ele>75.5</ele>
        <time>2014-7-5T10:30:6.000Z</time>
      </trkpt>
      <trkpt lat="44.52548" lon="0.73078">
        <ele>76.5</ele>
        <time>2014-7-5T10:30:6.000Z</time>
      </trkpt>
      <trkpt lat="44.52548" lon="0.73078">
        <ele>76.5</ele>
        <time>2014-7-5T10:30:6.000Z</time>
      </trkpt>
      <trkpt lat="44.52549" lon="0.7307">
        <ele>76.5</ele>
        <time>2014-7-5T10:30:6.000Z</time>
      </trkpt>
      <trkpt lat="44.52549" lon="0.7307">
        <ele>76.5</ele>
        <time>2014-7-5T10:30:6.000Z</time>
      </trkpt>
      <trkpt lat="44.52551" lon="0.73064">
        <ele>77.5</ele>
        <time>2014-7-5T10:30:6.000Z</time>
      </trkpt>
      <trkpt lat="44.52551" lon="0.73064">
        <ele>77.5</ele>
        <time>2014-7-5T10:30:6.000Z</time>
      </trkpt>
      <trkpt lat="44.52554" lon="0.73056">
        <ele>77.5</ele>
        <time>2014-7-5T10:30:6.000Z</time>
      </trkpt>
      <trkpt lat="44.52554" lon="0.73056">
        <ele>77.5</ele>
        <time>2014-7-5T10:30:6.000Z</time>
      </trkpt>
      <trkpt lat="44.52556" lon="0.7305">
        <ele>77.5</ele>
        <time>2014-7-5T10:30:6.000Z</time>
      </trkpt>
      <trkpt lat="44.52556" lon="0.7305">
        <ele>77.5</ele>
        <time>2014-7-5T10:30:6.000Z</time>
      </trkpt>
      <trkpt lat="44.52558" lon="0.73044">
        <ele>77.5</ele>
        <time>2014-7-5T10:30:6.000Z</time>
      </trkpt>
      <trkpt lat="44.52558" lon="0.73044">
        <ele>77.5</ele>
        <time>2014-7-5T10:30:6.000Z</time>
      </trkpt>
      <trkpt lat="44.5256" lon="0.73036">
        <ele>77.5</ele>
        <time>2014-7-5T10:30:6.000Z</time>
      </trkpt>
      <trkpt lat="44.5256" lon="0.73036">
        <ele>77.5</ele>
        <time>2014-7-5T10:30:6.000Z</time>
      </trkpt>
      <trkpt lat="44.52561" lon="0.73029">
        <ele>77.5</ele>
        <time>2014-7-5T10:30:6.000Z</time>
      </trkpt>
      <trkpt lat="44.52561" lon="0.73029">
        <ele>77.5</ele>
        <time>2014-7-5T10:30:6.000Z</time>
      </trkpt>
      <trkpt lat="44.52561" lon="0.73022">
        <ele>77.5</ele>
        <time>2014-7-5T10:30:6.000Z</time>
      </trkpt>
      <trkpt lat="44.52561" lon="0.73022">
        <ele>77.5</ele>
        <time>2014-7-5T10:30:6.000Z</time>
      </trkpt>
      <trkpt lat="44.5256" lon="0.73015">
        <ele>77.5</ele>
        <time>2014-7-5T10:30:6.000Z</time>
      </trkpt>
      <trkpt lat="44.5256" lon="0.73015">
        <ele>77.5</ele>
        <time>2014-7-5T10:30:6.000Z</time>
      </trkpt>
      <trkpt lat="44.52559" lon="0.7301">
        <ele>78.5</ele>
        <time>2014-7-5T10:30:6.000Z</time>
      </trkpt>
      <trkpt lat="44.52559" lon="0.7301">
        <ele>78.5</ele>
        <time>2014-7-5T10:30:6.000Z</time>
      </trkpt>
      <trkpt lat="44.52558" lon="0.73004">
        <ele>78.5</ele>
        <time>2014-7-5T10:30:6.000Z</time>
      </trkpt>
      <trkpt lat="44.52558" lon="0.73004">
        <ele>78.5</ele>
        <time>2014-7-5T10:30:6.000Z</time>
      </trkpt>
      <trkpt lat="44.52557" lon="0.72999">
        <ele>78.5</ele>
        <time>2014-7-5T10:30:6.000Z</time>
      </trkpt>
      <trkpt lat="44.52557" lon="0.72999">
        <ele>78.5</ele>
        <time>2014-7-5T10:30:6.000Z</time>
      </trkpt>
      <trkpt lat="44.52555" lon="0.72995">
        <ele>78.5</ele>
        <time>2014-7-5T10:30:6.000Z</time>
      </trkpt>
      <trkpt lat="44.52555" lon="0.72995">
        <ele>78.5</ele>
        <time>2014-7-5T10:30:6.000Z</time>
      </trkpt>
      <trkpt lat="44.52554" lon="0.7299">
        <ele>79.5</ele>
        <time>2014-7-5T10:30:6.000Z</time>
      </trkpt>
      <trkpt lat="44.52554" lon="0.7299">
        <ele>79.5</ele>
        <time>2014-7-5T10:30:6.000Z</time>
      </trkpt>
      <trkpt lat="44.52552" lon="0.72985">
        <ele>79.5</ele>
        <time>2014-7-5T10:30:6.000Z</time>
      </trkpt>
      <trkpt lat="44.52552" lon="0.72985">
        <ele>79.5</ele>
        <time>2014-7-5T10:30:6.000Z</time>
      </trkpt>
      <trkpt lat="44.52551" lon="0.72981">
        <ele>80.5</ele>
        <time>2014-7-5T10:30:6.000Z</time>
      </trkpt>
      <trkpt lat="44.52551" lon="0.72981">
        <ele>80.5</ele>
        <time>2014-7-5T10:30:6.000Z</time>
      </trkpt>
      <trkpt lat="44.52549" lon="0.72976">
        <ele>80.5</ele>
        <time>2014-7-5T10:30:6.000Z</time>
      </trkpt>
      <trkpt lat="44.52549" lon="0.72976">
        <ele>80.5</ele>
        <time>2014-7-5T10:30:6.000Z</time>
      </trkpt>
      <trkpt lat="44.52548" lon="0.72972">
        <ele>80.5</ele>
        <time>2014-7-5T10:30:6.000Z</time>
      </trkpt>
      <trkpt lat="44.52548" lon="0.72972">
        <ele>80.5</ele>
        <time>2014-7-5T10:30:6.000Z</time>
      </trkpt>
      <trkpt lat="44.52547" lon="0.72966">
        <ele>80.5</ele>
        <time>2014-7-5T10:30:6.000Z</time>
      </trkpt>
      <trkpt lat="44.52547" lon="0.72966">
        <ele>80.5</ele>
        <time>2014-7-5T10:30:6.000Z</time>
      </trkpt>
      <trkpt lat="44.52547" lon="0.72961">
        <ele>80.5</ele>
        <time>2014-7-5T10:30:6.000Z</time>
      </trkpt>
      <trkpt lat="44.52547" lon="0.72961">
        <ele>80.5</ele>
        <time>2014-7-5T10:30:6.000Z</time>
      </trkpt>
      <trkpt lat="44.52546" lon="0.72956">
        <ele>80.5</ele>
        <time>2014-7-5T10:30:6.000Z</time>
      </trkpt>
      <trkpt lat="44.52546" lon="0.72956">
        <ele>80.5</ele>
        <time>2014-7-5T10:30:6.000Z</time>
      </trkpt>
      <trkpt lat="44.52546" lon="0.72951">
        <ele>80.5</ele>
        <time>2014-7-5T10:30:6.000Z</time>
      </trkpt>
      <trkpt lat="44.52546" lon="0.72951">
        <ele>80.5</ele>
        <time>2014-7-5T10:30:6.000Z</time>
      </trkpt>
      <trkpt lat="44.52545" lon="0.72946">
        <ele>80.5</ele>
        <time>2014-7-5T10:30:6.000Z</time>
      </trkpt>
      <trkpt lat="44.52545" lon="0.72946">
        <ele>80.5</ele>
        <time>2014-7-5T10:30:6.000Z</time>
      </trkpt>
      <trkpt lat="44.52544" lon="0.72941">
        <ele>80.5</ele>
        <time>2014-7-5T10:30:6.000Z</time>
      </trkpt>
      <trkpt lat="44.52544" lon="0.72941">
        <ele>80.5</ele>
        <time>2014-7-5T10:30:6.000Z</time>
      </trkpt>
      <trkpt lat="44.52543" lon="0.72935">
        <ele>80.5</ele>
        <time>2014-7-5T10:30:6.000Z</time>
      </trkpt>
      <trkpt lat="44.52543" lon="0.72935">
        <ele>80.5</ele>
        <time>2014-7-5T10:30:6.000Z</time>
      </trkpt>
      <trkpt lat="44.52543" lon="0.7293">
        <ele>80.5</ele>
        <time>2014-7-5T10:30:6.000Z</time>
      </trkpt>
      <trkpt lat="44.52543" lon="0.7293">
        <ele>80.5</ele>
        <time>2014-7-5T10:30:6.000Z</time>
      </trkpt>
      <trkpt lat="44.52542" lon="0.72924">
        <ele>80.5</ele>
        <time>2014-7-5T10:30:6.000Z</time>
      </trkpt>
      <trkpt lat="44.52542" lon="0.72924">
        <ele>80.5</ele>
        <time>2014-7-5T10:30:6.000Z</time>
      </trkpt>
      <trkpt lat="44.52541" lon="0.72919">
        <ele>80.5</ele>
        <time>2014-7-5T10:30:6.000Z</time>
      </trkpt>
      <trkpt lat="44.52541" lon="0.72919">
        <ele>80.5</ele>
        <time>2014-7-5T10:30:6.000Z</time>
      </trkpt>
      <trkpt lat="44.5254" lon="0.72914">
        <ele>80.5</ele>
        <time>2014-7-5T10:30:6.000Z</time>
      </trkpt>
      <trkpt lat="44.5254" lon="0.72914">
        <ele>80.5</ele>
        <time>2014-7-5T10:30:6.000Z</time>
      </trkpt>
      <trkpt lat="44.5254" lon="0.72908">
        <ele>80.5</ele>
        <time>2014-7-5T10:30:6.000Z</time>
      </trkpt>
      <trkpt lat="44.5254" lon="0.72908">
        <ele>80.5</ele>
        <time>2014-7-5T10:30:6.000Z</time>
      </trkpt>
      <trkpt lat="44.52539" lon="0.72903">
        <ele>80.5</ele>
        <time>2014-7-5T10:30:6.000Z</time>
      </trkpt>
      <trkpt lat="44.52539" lon="0.72903">
        <ele>80.5</ele>
        <time>2014-7-5T10:30:6.000Z</time>
      </trkpt>
      <trkpt lat="44.52539" lon="0.72898">
        <ele>80.5</ele>
        <time>2014-7-5T10:30:6.000Z</time>
      </trkpt>
      <trkpt lat="44.52539" lon="0.72898">
        <ele>80.5</ele>
        <time>2014-7-5T10:30:6.000Z</time>
      </trkpt>
      <trkpt lat="44.52538" lon="0.72893">
        <ele>80.5</ele>
        <time>2014-7-5T10:30:6.000Z</time>
      </trkpt>
      <trkpt lat="44.52538" lon="0.72893">
        <ele>80.5</ele>
        <time>2014-7-5T10:30:6.000Z</time>
      </trkpt>
      <trkpt lat="44.52538" lon="0.72889">
        <ele>81.5</ele>
        <time>2014-7-5T10:30:6.000Z</time>
      </trkpt>
      <trkpt lat="44.52538" lon="0.72889">
        <ele>81.5</ele>
        <time>2014-7-5T10:30:6.000Z</time>
      </trkpt>
      <trkpt lat="44.52537" lon="0.72884">
        <ele>81.5</ele>
        <time>2014-7-5T10:30:6.000Z</time>
      </trkpt>
      <trkpt lat="44.52537" lon="0.72884">
        <ele>81.5</ele>
        <time>2014-7-5T10:30:6.000Z</time>
      </trkpt>
      <trkpt lat="44.52536" lon="0.7288">
        <ele>81.5</ele>
        <time>2014-7-5T10:30:6.000Z</time>
      </trkpt>
      <trkpt lat="44.52536" lon="0.7288">
        <ele>81.5</ele>
        <time>2014-7-5T10:30:6.000Z</time>
      </trkpt>
      <trkpt lat="44.52536" lon="0.72876">
        <ele>81.5</ele>
        <time>2014-7-5T10:30:6.000Z</time>
      </trkpt>
      <trkpt lat="44.52536" lon="0.72876">
        <ele>81.5</ele>
        <time>2014-7-5T10:30:6.000Z</time>
      </trkpt>
      <trkpt lat="44.52535" lon="0.72871">
        <ele>82.5</ele>
        <time>2014-7-5T10:30:6.000Z</time>
      </trkpt>
      <trkpt lat="44.52535" lon="0.72871">
        <ele>82.5</ele>
        <time>2014-7-5T10:30:6.000Z</time>
      </trkpt>
      <trkpt lat="44.52534" lon="0.72867">
        <ele>82.5</ele>
        <time>2014-7-5T10:30:6.000Z</time>
      </trkpt>
      <trkpt lat="44.52534" lon="0.72867">
        <ele>82.5</ele>
        <time>2014-7-5T10:30:6.000Z</time>
      </trkpt>
      <trkpt lat="44.52533" lon="0.72862">
        <ele>82.5</ele>
        <time>2014-7-5T10:30:6.000Z</time>
      </trkpt>
      <trkpt lat="44.52533" lon="0.72862">
        <ele>82.5</ele>
        <time>2014-7-5T10:30:6.000Z</time>
      </trkpt>
      <trkpt lat="44.52533" lon="0.72857">
        <ele>82.5</ele>
        <time>2014-7-5T10:30:6.000Z</time>
      </trkpt>
      <trkpt lat="44.52533" lon="0.72857">
        <ele>82.5</ele>
        <time>2014-7-5T10:30:6.000Z</time>
      </trkpt>
      <trkpt lat="44.52532" lon="0.72853">
        <ele>83.5</ele>
        <time>2014-7-5T10:30:6.000Z</time>
      </trkpt>
      <trkpt lat="44.52532" lon="0.72853">
        <ele>83.5</ele>
        <time>2014-7-5T10:30:6.000Z</time>
      </trkpt>
      <trkpt lat="44.5253" lon="0.72849">
        <ele>82.5</ele>
        <time>2014-7-5T10:30:6.000Z</time>
      </trkpt>
      <trkpt lat="44.5253" lon="0.72849">
        <ele>82.5</ele>
        <time>2014-7-5T10:30:57.000Z</time>
      </trkpt>
      <trkpt lat="44.52529" lon="0.72845">
        <ele>82.5</ele>
        <time>2014-7-5T10:30:57.000Z</time>
      </trkpt>
      <trkpt lat="44.52529" lon="0.72845">
        <ele>82.5</ele>
        <time>2014-7-5T10:30:57.000Z</time>
      </trkpt>
      <trkpt lat="44.52529" lon="0.72842">
        <ele>82.5</ele>
        <time>2014-7-5T10:30:57.000Z</time>
      </trkpt>
      <trkpt lat="44.52529" lon="0.72842">
        <ele>82.5</ele>
        <time>2014-7-5T10:30:57.000Z</time>
      </trkpt>
      <trkpt lat="44.52528" lon="0.72835">
        <ele>83.5</ele>
        <time>2014-7-5T10:30:57.000Z</time>
      </trkpt>
      <trkpt lat="44.52528" lon="0.72835">
        <ele>83.5</ele>
        <time>2014-7-5T10:30:57.000Z</time>
      </trkpt>
      <trkpt lat="44.52527" lon="0.72831">
        <ele>84.5</ele>
        <time>2014-7-5T10:30:57.000Z</time>
      </trkpt>
      <trkpt lat="44.52527" lon="0.72831">
        <ele>84.5</ele>
        <time>2014-7-5T10:30:57.000Z</time>
      </trkpt>
      <trkpt lat="44.52526" lon="0.72827">
        <ele>84.5</ele>
        <time>2014-7-5T10:30:57.000Z</time>
      </trkpt>
      <trkpt lat="44.52526" lon="0.72827">
        <ele>84.5</ele>
        <time>2014-7-5T10:30:57.000Z</time>
      </trkpt>
      <trkpt lat="44.52525" lon="0.72824">
        <ele>84.5</ele>
        <time>2014-7-5T10:30:57.000Z</time>
      </trkpt>
      <trkpt lat="44.52525" lon="0.72824">
        <ele>84.5</ele>
        <time>2014-7-5T10:30:57.000Z</time>
      </trkpt>
      <trkpt lat="44.52524" lon="0.7282">
        <ele>85.5</ele>
        <time>2014-7-5T10:30:57.000Z</time>
      </trkpt>
      <trkpt lat="44.52524" lon="0.7282">
        <ele>85.5</ele>
        <time>2014-7-5T10:30:57.000Z</time>
      </trkpt>
      <trkpt lat="44.52524" lon="0.72816">
        <ele>84.5</ele>
        <time>2014-7-5T10:30:57.000Z</time>
      </trkpt>
      <trkpt lat="44.52524" lon="0.72816">
        <ele>84.5</ele>
        <time>2014-7-5T10:30:57.000Z</time>
      </trkpt>
      <trkpt lat="44.52523" lon="0.72812">
        <ele>84.5</ele>
        <time>2014-7-5T10:30:57.000Z</time>
      </trkpt>
      <trkpt lat="44.52523" lon="0.72812">
        <ele>84.5</ele>
        <time>2014-7-5T10:30:57.000Z</time>
      </trkpt>
      <trkpt lat="44.52523" lon="0.72807">
        <ele>84.5</ele>
        <time>2014-7-5T10:30:57.000Z</time>
      </trkpt>
      <trkpt lat="44.52523" lon="0.72807">
        <ele>84.5</ele>
        <time>2014-7-5T10:30:57.000Z</time>
      </trkpt>
      <trkpt lat="44.52523" lon="0.72803">
        <ele>84.5</ele>
        <time>2014-7-5T10:30:57.000Z</time>
      </trkpt>
      <trkpt lat="44.52523" lon="0.72803">
        <ele>84.5</ele>
        <time>2014-7-5T10:30:57.000Z</time>
      </trkpt>
      <trkpt lat="44.52523" lon="0.72799">
        <ele>84.5</ele>
        <time>2014-7-5T10:30:57.000Z</time>
      </trkpt>
      <trkpt lat="44.52523" lon="0.72799">
        <ele>84.5</ele>
        <time>2014-7-5T10:30:57.000Z</time>
      </trkpt>
      <trkpt lat="44.52522" lon="0.72795">
        <ele>85.5</ele>
        <time>2014-7-5T10:30:57.000Z</time>
      </trkpt>
      <trkpt lat="44.52522" lon="0.72795">
        <ele>85.5</ele>
        <time>2014-7-5T10:30:57.000Z</time>
      </trkpt>
      <trkpt lat="44.52522" lon="0.72791">
        <ele>85.5</ele>
        <time>2014-7-5T10:30:57.000Z</time>
      </trkpt>
      <trkpt lat="44.52522" lon="0.72791">
        <ele>85.5</ele>
        <time>2014-7-5T10:30:57.000Z</time>
      </trkpt>
      <trkpt lat="44.52522" lon="0.72786">
        <ele>85.5</ele>
        <time>2014-7-5T10:30:57.000Z</time>
      </trkpt>
      <trkpt lat="44.52522" lon="0.72786">
        <ele>85.5</ele>
        <time>2014-7-5T10:30:57.000Z</time>
      </trkpt>
      <trkpt lat="44.52522" lon="0.72782">
        <ele>85.5</ele>
        <time>2014-7-5T10:30:57.000Z</time>
      </trkpt>
      <trkpt lat="44.52522" lon="0.72782">
        <ele>85.5</ele>
        <time>2014-7-5T10:30:57.000Z</time>
      </trkpt>
      <trkpt lat="44.52522" lon="0.72778">
        <ele>86.5</ele>
        <time>2014-7-5T10:30:57.000Z</time>
      </trkpt>
      <trkpt lat="44.52522" lon="0.72778">
        <ele>86.5</ele>
        <time>2014-7-5T10:30:57.000Z</time>
      </trkpt>
      <trkpt lat="44.52521" lon="0.72774">
        <ele>85.5</ele>
        <time>2014-7-5T10:30:57.000Z</time>
      </trkpt>
      <trkpt lat="44.52521" lon="0.72774">
        <ele>85.5</ele>
        <time>2014-7-5T10:30:57.000Z</time>
      </trkpt>
      <trkpt lat="44.52521" lon="0.7277">
        <ele>85.5</ele>
        <time>2014-7-5T10:30:57.000Z</time>
      </trkpt>
      <trkpt lat="44.52521" lon="0.7277">
        <ele>85.5</ele>
        <time>2014-7-5T10:30:57.000Z</time>
      </trkpt>
      <trkpt lat="44.52522" lon="0.72766">
        <ele>85.5</ele>
        <time>2014-7-5T10:30:57.000Z</time>
      </trkpt>
      <trkpt lat="44.52522" lon="0.72766">
        <ele>85.5</ele>
        <time>2014-7-5T10:30:57.000Z</time>
      </trkpt>
      <trkpt lat="44.52522" lon="0.72761">
        <ele>85.5</ele>
        <time>2014-7-5T10:30:57.000Z</time>
      </trkpt>
      <trkpt lat="44.52522" lon="0.72761">
        <ele>85.5</ele>
        <time>2014-7-5T10:30:57.000Z</time>
      </trkpt>
      <trkpt lat="44.52522" lon="0.72757">
        <ele>85.5</ele>
        <time>2014-7-5T10:30:57.000Z</time>
      </trkpt>
      <trkpt lat="44.52522" lon="0.72757">
        <ele>85.5</ele>
        <time>2014-7-5T10:30:57.000Z</time>
      </trkpt>
      <trkpt lat="44.52522" lon="0.72752">
        <ele>86.5</ele>
        <time>2014-7-5T10:30:57.000Z</time>
      </trkpt>
      <trkpt lat="44.52522" lon="0.72752">
        <ele>86.5</ele>
        <time>2014-7-5T10:30:57.000Z</time>
      </trkpt>
      <trkpt lat="44.52522" lon="0.72748">
        <ele>85.5</ele>
        <time>2014-7-5T10:30:57.000Z</time>
      </trkpt>
      <trkpt lat="44.52522" lon="0.72748">
        <ele>85.5</ele>
        <time>2014-7-5T10:30:57.000Z</time>
      </trkpt>
      <trkpt lat="44.52522" lon="0.72743">
        <ele>85.5</ele>
        <time>2014-7-5T10:30:57.000Z</time>
      </trkpt>
      <trkpt lat="44.52522" lon="0.72743">
        <ele>85.5</ele>
        <time>2014-7-5T10:30:57.000Z</time>
      </trkpt>
      <trkpt lat="44.52523" lon="0.72738">
        <ele>85.5</ele>
        <time>2014-7-5T10:30:57.000Z</time>
      </trkpt>
      <trkpt lat="44.52523" lon="0.72738">
        <ele>85.5</ele>
        <time>2014-7-5T10:30:57.000Z</time>
      </trkpt>
      <trkpt lat="44.52523" lon="0.72733">
        <ele>85.5</ele>
        <time>2014-7-5T10:30:57.000Z</time>
      </trkpt>
      <trkpt lat="44.52523" lon="0.72733">
        <ele>85.5</ele>
        <time>2014-7-5T10:30:57.000Z</time>
      </trkpt>
      <trkpt lat="44.52524" lon="0.72729">
        <ele>85.5</ele>
        <time>2014-7-5T10:30:57.000Z</time>
      </trkpt>
      <trkpt lat="44.52524" lon="0.72729">
        <ele>85.5</ele>
        <time>2014-7-5T10:30:57.000Z</time>
      </trkpt>
      <trkpt lat="44.52525" lon="0.72724">
        <ele>84.5</ele>
        <time>2014-7-5T10:30:57.000Z</time>
      </trkpt>
      <trkpt lat="44.52525" lon="0.72724">
        <ele>84.5</ele>
        <time>2014-7-5T10:30:57.000Z</time>
      </trkpt>
      <trkpt lat="44.52526" lon="0.7272">
        <ele>84.5</ele>
        <time>2014-7-5T10:30:57.000Z</time>
      </trkpt>
      <trkpt lat="44.52526" lon="0.7272">
        <ele>84.5</ele>
        <time>2014-7-5T10:30:57.000Z</time>
      </trkpt>
      <trkpt lat="44.52527" lon="0.72715">
        <ele>84.5</ele>
        <time>2014-7-5T10:30:57.000Z</time>
      </trkpt>
      <trkpt lat="44.52527" lon="0.72715">
        <ele>84.5</ele>
        <time>2014-7-5T10:30:57.000Z</time>
      </trkpt>
      <trkpt lat="44.52528" lon="0.72711">
        <ele>84.5</ele>
        <time>2014-7-5T10:30:57.000Z</time>
      </trkpt>
      <trkpt lat="44.52528" lon="0.72711">
        <ele>84.5</ele>
        <time>2014-7-5T10:30:57.000Z</time>
      </trkpt>
      <trkpt lat="44.52529" lon="0.72706">
        <ele>84.5</ele>
        <time>2014-7-5T10:30:57.000Z</time>
      </trkpt>
      <trkpt lat="44.52529" lon="0.72706">
        <ele>84.5</ele>
        <time>2014-7-5T10:30:57.000Z</time>
      </trkpt>
      <trkpt lat="44.5253" lon="0.72699">
        <ele>85.5</ele>
        <time>2014-7-5T10:30:57.000Z</time>
      </trkpt>
      <trkpt lat="44.5253" lon="0.72699">
        <ele>85.5</ele>
        <time>2014-7-5T10:30:57.000Z</time>
      </trkpt>
      <trkpt lat="44.52531" lon="0.72693">
        <ele>84.5</ele>
        <time>2014-7-5T10:30:57.000Z</time>
      </trkpt>
      <trkpt lat="44.52531" lon="0.72693">
        <ele>84.5</ele>
        <time>2014-7-5T10:30:57.000Z</time>
      </trkpt>
      <trkpt lat="44.52532" lon="0.72687">
        <ele>84.5</ele>
        <time>2014-7-5T10:30:57.000Z</time>
      </trkpt>
      <trkpt lat="44.52532" lon="0.72687">
        <ele>84.5</ele>
        <time>2014-7-5T10:30:57.000Z</time>
      </trkpt>
      <trkpt lat="44.52533" lon="0.7268">
        <ele>85.5</ele>
        <time>2014-7-5T10:30:57.000Z</time>
      </trkpt>
      <trkpt lat="44.52533" lon="0.7268">
        <ele>85.5</ele>
        <time>2014-7-5T10:30:57.000Z</time>
      </trkpt>
      <trkpt lat="44.52533" lon="0.72675">
        <ele>85.5</ele>
        <time>2014-7-5T10:30:57.000Z</time>
      </trkpt>
      <trkpt lat="44.52533" lon="0.72675">
        <ele>85.5</ele>
        <time>2014-7-5T10:30:57.000Z</time>
      </trkpt>
      <trkpt lat="44.52534" lon="0.72668">
        <ele>85.5</ele>
        <time>2014-7-5T10:30:57.000Z</time>
      </trkpt>
      <trkpt lat="44.52534" lon="0.72668">
        <ele>85.5</ele>
        <time>2014-7-5T10:30:57.000Z</time>
      </trkpt>
      <trkpt lat="44.52534" lon="0.72663">
        <ele>85.5</ele>
        <time>2014-7-5T10:30:57.000Z</time>
      </trkpt>
      <trkpt lat="44.52534" lon="0.72663">
        <ele>85.5</ele>
        <time>2014-7-5T10:30:57.000Z</time>
      </trkpt>
      <trkpt lat="44.52534" lon="0.72658">
        <ele>84.5</ele>
        <time>2014-7-5T10:30:57.000Z</time>
      </trkpt>
      <trkpt lat="44.52534" lon="0.72658">
        <ele>84.5</ele>
        <time>2014-7-5T10:30:57.000Z</time>
      </trkpt>
      <trkpt lat="44.52535" lon="0.72653">
        <ele>84.5</ele>
        <time>2014-7-5T10:30:57.000Z</time>
      </trkpt>
      <trkpt lat="44.52535" lon="0.72653">
        <ele>84.5</ele>
        <time>2014-7-5T10:30:57.000Z</time>
      </trkpt>
      <trkpt lat="44.52534" lon="0.72648">
        <ele>85.5</ele>
        <time>2014-7-5T10:30:57.000Z</time>
      </trkpt>
      <trkpt lat="44.52534" lon="0.72648">
        <ele>85.5</ele>
        <time>2014-7-5T10:30:57.000Z</time>
      </trkpt>
      <trkpt lat="44.52534" lon="0.72643">
        <ele>84.5</ele>
        <time>2014-7-5T10:30:57.000Z</time>
      </trkpt>
      <trkpt lat="44.52534" lon="0.72643">
        <ele>84.5</ele>
        <time>2014-7-5T10:30:57.000Z</time>
      </trkpt>
      <trkpt lat="44.52532" lon="0.72637">
        <ele>85.5</ele>
        <time>2014-7-5T10:30:57.000Z</time>
      </trkpt>
      <trkpt lat="44.52532" lon="0.72637">
        <ele>85.5</ele>
        <time>2014-7-5T10:30:57.000Z</time>
      </trkpt>
      <trkpt lat="44.5253" lon="0.72633">
        <ele>84.5</ele>
        <time>2014-7-5T10:30:57.000Z</time>
      </trkpt>
      <trkpt lat="44.5253" lon="0.72633">
        <ele>84.5</ele>
        <time>2014-7-5T10:30:57.000Z</time>
      </trkpt>
      <trkpt lat="44.52528" lon="0.72627">
        <ele>84.5</ele>
        <time>2014-7-5T10:30:57.000Z</time>
      </trkpt>
      <trkpt lat="44.52528" lon="0.72627">
        <ele>84.5</ele>
        <time>2014-7-5T10:30:57.000Z</time>
      </trkpt>
      <trkpt lat="44.52525" lon="0.72623">
        <ele>84.5</ele>
        <time>2014-7-5T10:30:57.000Z</time>
      </trkpt>
      <trkpt lat="44.52525" lon="0.72623">
        <ele>84.5</ele>
        <time>2014-7-5T10:30:57.000Z</time>
      </trkpt>
      <trkpt lat="44.52517" lon="0.72613">
        <ele>84.5</ele>
        <time>2014-7-5T10:30:57.000Z</time>
      </trkpt>
      <trkpt lat="44.52517" lon="0.72613">
        <ele>84.5</ele>
        <time>2014-7-5T10:30:57.000Z</time>
      </trkpt>
      <trkpt lat="44.52515" lon="0.72609">
        <ele>85.5</ele>
        <time>2014-7-5T10:30:57.000Z</time>
      </trkpt>
      <trkpt lat="44.52515" lon="0.72609">
        <ele>85.5</ele>
        <time>2014-7-5T10:30:57.000Z</time>
      </trkpt>
      <trkpt lat="44.52512" lon="0.72605">
        <ele>84.5</ele>
        <time>2014-7-5T10:31:48.000Z</time>
      </trkpt>
      <trkpt lat="44.52512" lon="0.72605">
        <ele>84.5</ele>
        <time>2014-7-5T10:31:48.000Z</time>
      </trkpt>
      <trkpt lat="44.5251" lon="0.726">
        <ele>84.5</ele>
        <time>2014-7-5T10:31:48.000Z</time>
      </trkpt>
      <trkpt lat="44.5251" lon="0.726">
        <ele>84.5</ele>
        <time>2014-7-5T10:31:48.000Z</time>
      </trkpt>
      <trkpt lat="44.52507" lon="0.72597">
        <ele>84.5</ele>
        <time>2014-7-5T10:31:48.000Z</time>
      </trkpt>
      <trkpt lat="44.52507" lon="0.72597">
        <ele>84.5</ele>
        <time>2014-7-5T10:31:48.000Z</time>
      </trkpt>
      <trkpt lat="44.52505" lon="0.72593">
        <ele>84.5</ele>
        <time>2014-7-5T10:31:48.000Z</time>
      </trkpt>
      <trkpt lat="44.52505" lon="0.72593">
        <ele>84.5</ele>
        <time>2014-7-5T10:31:48.000Z</time>
      </trkpt>
      <trkpt lat="44.52503" lon="0.72589">
        <ele>84.5</ele>
        <time>2014-7-5T10:31:48.000Z</time>
      </trkpt>
      <trkpt lat="44.52503" lon="0.72589">
        <ele>84.5</ele>
        <time>2014-7-5T10:31:48.000Z</time>
      </trkpt>
      <trkpt lat="44.52501" lon="0.72586">
        <ele>84.5</ele>
        <time>2014-7-5T10:31:48.000Z</time>
      </trkpt>
      <trkpt lat="44.52501" lon="0.72586">
        <ele>84.5</ele>
        <time>2014-7-5T10:31:48.000Z</time>
      </trkpt>
      <trkpt lat="44.52499" lon="0.72581">
        <ele>84.5</ele>
        <time>2014-7-5T10:31:48.000Z</time>
      </trkpt>
      <trkpt lat="44.52499" lon="0.72581">
        <ele>84.5</ele>
        <time>2014-7-5T10:31:48.000Z</time>
      </trkpt>
      <trkpt lat="44.52497" lon="0.72577">
        <ele>85.5</ele>
        <time>2014-7-5T10:31:48.000Z</time>
      </trkpt>
      <trkpt lat="44.52497" lon="0.72577">
        <ele>85.5</ele>
        <time>2014-7-5T10:31:48.000Z</time>
      </trkpt>
      <trkpt lat="44.52495" lon="0.72572">
        <ele>85.5</ele>
        <time>2014-7-5T10:31:48.000Z</time>
      </trkpt>
      <trkpt lat="44.52495" lon="0.72572">
        <ele>85.5</ele>
        <time>2014-7-5T10:31:48.000Z</time>
      </trkpt>
      <trkpt lat="44.52493" lon="0.72567">
        <ele>85.5</ele>
        <time>2014-7-5T10:31:48.000Z</time>
      </trkpt>
      <trkpt lat="44.52493" lon="0.72567">
        <ele>85.5</ele>
        <time>2014-7-5T10:31:48.000Z</time>
      </trkpt>
      <trkpt lat="44.52491" lon="0.72563">
        <ele>85.5</ele>
        <time>2014-7-5T10:31:48.000Z</time>
      </trkpt>
      <trkpt lat="44.52491" lon="0.72563">
        <ele>85.5</ele>
        <time>2014-7-5T10:31:48.000Z</time>
      </trkpt>
      <trkpt lat="44.52488" lon="0.72558">
        <ele>85.5</ele>
        <time>2014-7-5T10:31:48.000Z</time>
      </trkpt>
      <trkpt lat="44.52488" lon="0.72558">
        <ele>85.5</ele>
        <time>2014-7-5T10:31:48.000Z</time>
      </trkpt>
      <trkpt lat="44.52487" lon="0.72554">
        <ele>85.5</ele>
        <time>2014-7-5T10:31:48.000Z</time>
      </trkpt>
      <trkpt lat="44.52487" lon="0.72554">
        <ele>85.5</ele>
        <time>2014-7-5T10:31:48.000Z</time>
      </trkpt>
      <trkpt lat="44.52485" lon="0.72549">
        <ele>85.5</ele>
        <time>2014-7-5T10:31:48.000Z</time>
      </trkpt>
      <trkpt lat="44.52485" lon="0.72549">
        <ele>85.5</ele>
        <time>2014-7-5T10:31:48.000Z</time>
      </trkpt>
      <trkpt lat="44.52483" lon="0.72544">
        <ele>85.5</ele>
        <time>2014-7-5T10:31:48.000Z</time>
      </trkpt>
      <trkpt lat="44.52483" lon="0.72544">
        <ele>85.5</ele>
        <time>2014-7-5T10:31:48.000Z</time>
      </trkpt>
      <trkpt lat="44.5248" lon="0.72539">
        <ele>85.5</ele>
        <time>2014-7-5T10:31:48.000Z</time>
      </trkpt>
      <trkpt lat="44.5248" lon="0.72539">
        <ele>85.5</ele>
        <time>2014-7-5T10:31:48.000Z</time>
      </trkpt>
      <trkpt lat="44.52478" lon="0.72534">
        <ele>85.5</ele>
        <time>2014-7-5T10:31:48.000Z</time>
      </trkpt>
      <trkpt lat="44.52478" lon="0.72534">
        <ele>85.5</ele>
        <time>2014-7-5T10:31:48.000Z</time>
      </trkpt>
      <trkpt lat="44.52475" lon="0.72529">
        <ele>85.5</ele>
        <time>2014-7-5T10:31:48.000Z</time>
      </trkpt>
      <trkpt lat="44.52475" lon="0.72529">
        <ele>85.5</ele>
        <time>2014-7-5T10:31:48.000Z</time>
      </trkpt>
      <trkpt lat="44.52473" lon="0.72525">
        <ele>86.5</ele>
        <time>2014-7-5T10:31:48.000Z</time>
      </trkpt>
      <trkpt lat="44.52473" lon="0.72525">
        <ele>86.5</ele>
        <time>2014-7-5T10:31:48.000Z</time>
      </trkpt>
      <trkpt lat="44.52471" lon="0.7252">
        <ele>86.5</ele>
        <time>2014-7-5T10:31:48.000Z</time>
      </trkpt>
      <trkpt lat="44.52471" lon="0.7252">
        <ele>86.5</ele>
        <time>2014-7-5T10:31:48.000Z</time>
      </trkpt>
      <trkpt lat="44.52469" lon="0.72516">
        <ele>86.5</ele>
        <time>2014-7-5T10:31:48.000Z</time>
      </trkpt>
      <trkpt lat="44.52469" lon="0.72516">
        <ele>86.5</ele>
        <time>2014-7-5T10:31:48.000Z</time>
      </trkpt>
      <trkpt lat="44.52468" lon="0.72511">
        <ele>86.5</ele>
        <time>2014-7-5T10:31:48.000Z</time>
      </trkpt>
      <trkpt lat="44.52468" lon="0.72511">
        <ele>86.5</ele>
        <time>2014-7-5T10:31:48.000Z</time>
      </trkpt>
      <trkpt lat="44.52465" lon="0.72506">
        <ele>86.5</ele>
        <time>2014-7-5T10:31:48.000Z</time>
      </trkpt>
      <trkpt lat="44.52465" lon="0.72506">
        <ele>86.5</ele>
        <time>2014-7-5T10:31:48.000Z</time>
      </trkpt>
      <trkpt lat="44.52463" lon="0.72502">
        <ele>86.5</ele>
        <time>2014-7-5T10:31:48.000Z</time>
      </trkpt>
      <trkpt lat="44.52463" lon="0.72502">
        <ele>86.5</ele>
        <time>2014-7-5T10:31:48.000Z</time>
      </trkpt>
      <trkpt lat="44.52461" lon="0.72498">
        <ele>86.5</ele>
        <time>2014-7-5T10:31:48.000Z</time>
      </trkpt>
      <trkpt lat="44.52461" lon="0.72498">
        <ele>86.5</ele>
        <time>2014-7-5T10:31:48.000Z</time>
      </trkpt>
      <trkpt lat="44.52458" lon="0.72493">
        <ele>86.5</ele>
        <time>2014-7-5T10:31:48.000Z</time>
      </trkpt>
      <trkpt lat="44.52458" lon="0.72493">
        <ele>86.5</ele>
        <time>2014-7-5T10:31:48.000Z</time>
      </trkpt>
      <trkpt lat="44.52455" lon="0.7249">
        <ele>86.5</ele>
        <time>2014-7-5T10:31:48.000Z</time>
      </trkpt>
      <trkpt lat="44.52455" lon="0.7249">
        <ele>86.5</ele>
        <time>2014-7-5T10:31:48.000Z</time>
      </trkpt>
      <trkpt lat="44.52452" lon="0.72486">
        <ele>86.5</ele>
        <time>2014-7-5T10:31:48.000Z</time>
      </trkpt>
      <trkpt lat="44.52452" lon="0.72486">
        <ele>86.5</ele>
        <time>2014-7-5T10:31:48.000Z</time>
      </trkpt>
      <trkpt lat="44.52449" lon="0.72483">
        <ele>85.5</ele>
        <time>2014-7-5T10:31:48.000Z</time>
      </trkpt>
      <trkpt lat="44.52449" lon="0.72483">
        <ele>85.5</ele>
        <time>2014-7-5T10:31:48.000Z</time>
      </trkpt>
      <trkpt lat="44.52446" lon="0.7248">
        <ele>85.5</ele>
        <time>2014-7-5T10:31:48.000Z</time>
      </trkpt>
      <trkpt lat="44.52446" lon="0.7248">
        <ele>85.5</ele>
        <time>2014-7-5T10:31:48.000Z</time>
      </trkpt>
      <trkpt lat="44.52443" lon="0.72477">
        <ele>85.5</ele>
        <time>2014-7-5T10:31:48.000Z</time>
      </trkpt>
      <trkpt lat="44.52443" lon="0.72477">
        <ele>85.5</ele>
        <time>2014-7-5T10:31:48.000Z</time>
      </trkpt>
      <trkpt lat="44.5244" lon="0.72474">
        <ele>85.5</ele>
        <time>2014-7-5T10:31:48.000Z</time>
      </trkpt>
      <trkpt lat="44.5244" lon="0.72474">
        <ele>85.5</ele>
        <time>2014-7-5T10:31:48.000Z</time>
      </trkpt>
      <trkpt lat="44.52437" lon="0.72471">
        <ele>85.5</ele>
        <time>2014-7-5T10:31:48.000Z</time>
      </trkpt>
      <trkpt lat="44.52437" lon="0.72471">
        <ele>85.5</ele>
        <time>2014-7-5T10:31:48.000Z</time>
      </trkpt>
      <trkpt lat="44.52433" lon="0.72468">
        <ele>85.5</ele>
        <time>2014-7-5T10:31:48.000Z</time>
      </trkpt>
      <trkpt lat="44.52433" lon="0.72468">
        <ele>85.5</ele>
        <time>2014-7-5T10:31:48.000Z</time>
      </trkpt>
      <trkpt lat="44.5243" lon="0.72466">
        <ele>85.5</ele>
        <time>2014-7-5T10:31:48.000Z</time>
      </trkpt>
      <trkpt lat="44.5243" lon="0.72466">
        <ele>85.5</ele>
        <time>2014-7-5T10:31:48.000Z</time>
      </trkpt>
      <trkpt lat="44.52426" lon="0.72463">
        <ele>85.5</ele>
        <time>2014-7-5T10:31:48.000Z</time>
      </trkpt>
      <trkpt lat="44.52426" lon="0.72463">
        <ele>85.5</ele>
        <time>2014-7-5T10:31:48.000Z</time>
      </trkpt>
      <trkpt lat="44.52423" lon="0.7246">
        <ele>85.5</ele>
        <time>2014-7-5T10:31:48.000Z</time>
      </trkpt>
      <trkpt lat="44.52423" lon="0.7246">
        <ele>85.5</ele>
        <time>2014-7-5T10:31:48.000Z</time>
      </trkpt>
      <trkpt lat="44.52419" lon="0.72458">
        <ele>86.5</ele>
        <time>2014-7-5T10:31:48.000Z</time>
      </trkpt>
      <trkpt lat="44.52419" lon="0.72458">
        <ele>86.5</ele>
        <time>2014-7-5T10:31:48.000Z</time>
      </trkpt>
      <trkpt lat="44.52415" lon="0.72454">
        <ele>86.5</ele>
        <time>2014-7-5T10:31:48.000Z</time>
      </trkpt>
      <trkpt lat="44.52415" lon="0.72454">
        <ele>86.5</ele>
        <time>2014-7-5T10:31:48.000Z</time>
      </trkpt>
      <trkpt lat="44.52412" lon="0.72452">
        <ele>86.5</ele>
        <time>2014-7-5T10:31:48.000Z</time>
      </trkpt>
      <trkpt lat="44.52412" lon="0.72452">
        <ele>86.5</ele>
        <time>2014-7-5T10:31:48.000Z</time>
      </trkpt>
      <trkpt lat="44.52409" lon="0.72449">
        <ele>86.5</ele>
        <time>2014-7-5T10:31:48.000Z</time>
      </trkpt>
      <trkpt lat="44.52409" lon="0.72449">
        <ele>86.5</ele>
        <time>2014-7-5T10:31:48.000Z</time>
      </trkpt>
      <trkpt lat="44.52405" lon="0.72446">
        <ele>86.5</ele>
        <time>2014-7-5T10:31:48.000Z</time>
      </trkpt>
      <trkpt lat="44.52405" lon="0.72446">
        <ele>86.5</ele>
        <time>2014-7-5T10:31:48.000Z</time>
      </trkpt>
      <trkpt lat="44.52402" lon="0.72444">
        <ele>86.5</ele>
        <time>2014-7-5T10:31:48.000Z</time>
      </trkpt>
      <trkpt lat="44.52402" lon="0.72444">
        <ele>86.5</ele>
        <time>2014-7-5T10:31:48.000Z</time>
      </trkpt>
      <trkpt lat="44.52399" lon="0.72442">
        <ele>86.5</ele>
        <time>2014-7-5T10:31:48.000Z</time>
      </trkpt>
      <trkpt lat="44.52399" lon="0.72442">
        <ele>86.5</ele>
        <time>2014-7-5T10:31:48.000Z</time>
      </trkpt>
      <trkpt lat="44.52397" lon="0.7244">
        <ele>86.5</ele>
        <time>2014-7-5T10:31:48.000Z</time>
      </trkpt>
      <trkpt lat="44.52397" lon="0.7244">
        <ele>86.5</ele>
        <time>2014-7-5T10:31:48.000Z</time>
      </trkpt>
      <trkpt lat="44.52394" lon="0.72437">
        <ele>86.5</ele>
        <time>2014-7-5T10:31:48.000Z</time>
      </trkpt>
      <trkpt lat="44.52394" lon="0.72437">
        <ele>86.5</ele>
        <time>2014-7-5T10:31:48.000Z</time>
      </trkpt>
      <trkpt lat="44.52391" lon="0.72434">
        <ele>86.5</ele>
        <time>2014-7-5T10:31:48.000Z</time>
      </trkpt>
      <trkpt lat="44.52391" lon="0.72434">
        <ele>86.5</ele>
        <time>2014-7-5T10:31:48.000Z</time>
      </trkpt>
      <trkpt lat="44.52387" lon="0.72431">
        <ele>86.5</ele>
        <time>2014-7-5T10:31:48.000Z</time>
      </trkpt>
      <trkpt lat="44.52387" lon="0.72431">
        <ele>86.5</ele>
        <time>2014-7-5T10:31:48.000Z</time>
      </trkpt>
      <trkpt lat="44.52383" lon="0.72429">
        <ele>86.5</ele>
        <time>2014-7-5T10:31:48.000Z</time>
      </trkpt>
      <trkpt lat="44.52383" lon="0.72429">
        <ele>86.5</ele>
        <time>2014-7-5T10:31:48.000Z</time>
      </trkpt>
      <trkpt lat="44.52379" lon="0.72426">
        <ele>86.5</ele>
        <time>2014-7-5T10:31:48.000Z</time>
      </trkpt>
      <trkpt lat="44.52379" lon="0.72426">
        <ele>86.5</ele>
        <time>2014-7-5T10:31:48.000Z</time>
      </trkpt>
      <trkpt lat="44.52376" lon="0.72424">
        <ele>87.5</ele>
        <time>2014-7-5T10:31:48.000Z</time>
      </trkpt>
      <trkpt lat="44.52376" lon="0.72424">
        <ele>87.5</ele>
        <time>2014-7-5T10:32:42.000Z</time>
      </trkpt>
      <trkpt lat="44.52372" lon="0.7242">
        <ele>87.5</ele>
        <time>2014-7-5T10:32:42.000Z</time>
      </trkpt>
      <trkpt lat="44.52372" lon="0.7242">
        <ele>87.5</ele>
        <time>2014-7-5T10:32:42.000Z</time>
      </trkpt>
      <trkpt lat="44.52369" lon="0.72417">
        <ele>87.5</ele>
        <time>2014-7-5T10:32:42.000Z</time>
      </trkpt>
      <trkpt lat="44.52369" lon="0.72417">
        <ele>87.5</ele>
        <time>2014-7-5T10:32:42.000Z</time>
      </trkpt>
      <trkpt lat="44.52366" lon="0.72414">
        <ele>88.5</ele>
        <time>2014-7-5T10:32:42.000Z</time>
      </trkpt>
      <trkpt lat="44.52366" lon="0.72414">
        <ele>88.5</ele>
        <time>2014-7-5T10:32:42.000Z</time>
      </trkpt>
      <trkpt lat="44.52362" lon="0.7241">
        <ele>89.5</ele>
        <time>2014-7-5T10:32:42.000Z</time>
      </trkpt>
      <trkpt lat="44.52362" lon="0.7241">
        <ele>89.5</ele>
        <time>2014-7-5T10:32:42.000Z</time>
      </trkpt>
      <trkpt lat="44.5236" lon="0.72407">
        <ele>88.5</ele>
        <time>2014-7-5T10:32:42.000Z</time>
      </trkpt>
      <trkpt lat="44.5236" lon="0.72407">
        <ele>88.5</ele>
        <time>2014-7-5T10:32:42.000Z</time>
      </trkpt>
      <trkpt lat="44.52355" lon="0.72401">
        <ele>88.5</ele>
        <time>2014-7-5T10:32:42.000Z</time>
      </trkpt>
      <trkpt lat="44.52355" lon="0.72401">
        <ele>88.5</ele>
        <time>2014-7-5T10:32:42.000Z</time>
      </trkpt>
      <trkpt lat="44.52354" lon="0.72398">
        <ele>88.5</ele>
        <time>2014-7-5T10:32:42.000Z</time>
      </trkpt>
      <trkpt lat="44.52354" lon="0.72398">
        <ele>88.5</ele>
        <time>2014-7-5T10:32:42.000Z</time>
      </trkpt>
      <trkpt lat="44.52352" lon="0.72396">
        <ele>88.5</ele>
        <time>2014-7-5T10:32:42.000Z</time>
      </trkpt>
      <trkpt lat="44.52352" lon="0.72396">
        <ele>88.5</ele>
        <time>2014-7-5T10:32:42.000Z</time>
      </trkpt>
      <trkpt lat="44.5235" lon="0.72394">
        <ele>90.5</ele>
        <time>2014-7-5T10:32:42.000Z</time>
      </trkpt>
      <trkpt lat="44.5235" lon="0.72394">
        <ele>90.5</ele>
        <time>2014-7-5T10:32:42.000Z</time>
      </trkpt>
      <trkpt lat="44.52348" lon="0.72392">
        <ele>90.5</ele>
        <time>2014-7-5T10:32:42.000Z</time>
      </trkpt>
      <trkpt lat="44.52348" lon="0.72392">
        <ele>90.5</ele>
        <time>2014-7-5T10:32:42.000Z</time>
      </trkpt>
      <trkpt lat="44.52346" lon="0.7239">
        <ele>91.5</ele>
        <time>2014-7-5T10:32:42.000Z</time>
      </trkpt>
      <trkpt lat="44.52346" lon="0.7239">
        <ele>91.5</ele>
        <time>2014-7-5T10:32:42.000Z</time>
      </trkpt>
      <trkpt lat="44.52344" lon="0.72389">
        <ele>91.5</ele>
        <time>2014-7-5T10:32:42.000Z</time>
      </trkpt>
      <trkpt lat="44.52344" lon="0.72389">
        <ele>91.5</ele>
        <time>2014-7-5T10:32:42.000Z</time>
      </trkpt>
      <trkpt lat="44.52342" lon="0.72387">
        <ele>93.5</ele>
        <time>2014-7-5T10:32:42.000Z</time>
      </trkpt>
      <trkpt lat="44.52342" lon="0.72387">
        <ele>93.5</ele>
        <time>2014-7-5T10:32:42.000Z</time>
      </trkpt>
      <trkpt lat="44.52339" lon="0.72386">
        <ele>94.5</ele>
        <time>2014-7-5T10:32:42.000Z</time>
      </trkpt>
      <trkpt lat="44.52339" lon="0.72386">
        <ele>94.5</ele>
        <time>2014-7-5T10:32:42.000Z</time>
      </trkpt>
      <trkpt lat="44.52337" lon="0.72384">
        <ele>95.5</ele>
        <time>2014-7-5T10:32:42.000Z</time>
      </trkpt>
      <trkpt lat="44.52337" lon="0.72384">
        <ele>95.5</ele>
        <time>2014-7-5T10:32:42.000Z</time>
      </trkpt>
      <trkpt lat="44.52335" lon="0.72383">
        <ele>95.5</ele>
        <time>2014-7-5T10:32:42.000Z</time>
      </trkpt>
      <trkpt lat="44.52335" lon="0.72383">
        <ele>95.5</ele>
        <time>2014-7-5T10:32:42.000Z</time>
      </trkpt>
      <trkpt lat="44.52333" lon="0.7238">
        <ele>94.5</ele>
        <time>2014-7-5T10:32:42.000Z</time>
      </trkpt>
      <trkpt lat="44.52333" lon="0.7238">
        <ele>94.5</ele>
        <time>2014-7-5T10:32:42.000Z</time>
      </trkpt>
      <trkpt lat="44.52331" lon="0.72378">
        <ele>96.5</ele>
        <time>2014-7-5T10:32:42.000Z</time>
      </trkpt>
      <trkpt lat="44.52331" lon="0.72378">
        <ele>96.5</ele>
        <time>2014-7-5T10:32:42.000Z</time>
      </trkpt>
      <trkpt lat="44.52329" lon="0.72375">
        <ele>96.5</ele>
        <time>2014-7-5T10:32:42.000Z</time>
      </trkpt>
      <trkpt lat="44.52329" lon="0.72375">
        <ele>96.5</ele>
        <time>2014-7-5T10:32:42.000Z</time>
      </trkpt>
      <trkpt lat="44.52327" lon="0.72373">
        <ele>96.5</ele>
        <time>2014-7-5T10:32:42.000Z</time>
      </trkpt>
      <trkpt lat="44.52327" lon="0.72373">
        <ele>96.5</ele>
        <time>2014-7-5T10:32:42.000Z</time>
      </trkpt>
      <trkpt lat="44.52324" lon="0.7237">
        <ele>96.5</ele>
        <time>2014-7-5T10:32:42.000Z</time>
      </trkpt>
      <trkpt lat="44.52324" lon="0.7237">
        <ele>96.5</ele>
        <time>2014-7-5T10:32:42.000Z</time>
      </trkpt>
      <trkpt lat="44.52322" lon="0.72368">
        <ele>96.5</ele>
        <time>2014-7-5T10:32:42.000Z</time>
      </trkpt>
      <trkpt lat="44.52322" lon="0.72368">
        <ele>96.5</ele>
        <time>2014-7-5T10:32:42.000Z</time>
      </trkpt>
      <trkpt lat="44.52319" lon="0.72367">
        <ele>96.5</ele>
        <time>2014-7-5T10:32:42.000Z</time>
      </trkpt>
      <trkpt lat="44.52319" lon="0.72367">
        <ele>96.5</ele>
        <time>2014-7-5T10:32:42.000Z</time>
      </trkpt>
      <trkpt lat="44.52317" lon="0.72365">
        <ele>97.5</ele>
        <time>2014-7-5T10:32:42.000Z</time>
      </trkpt>
      <trkpt lat="44.52317" lon="0.72365">
        <ele>97.5</ele>
        <time>2014-7-5T10:32:42.000Z</time>
      </trkpt>
      <trkpt lat="44.52315" lon="0.72363">
        <ele>98.5</ele>
        <time>2014-7-5T10:32:42.000Z</time>
      </trkpt>
      <trkpt lat="44.52315" lon="0.72363">
        <ele>98.5</ele>
        <time>2014-7-5T10:32:42.000Z</time>
      </trkpt>
      <trkpt lat="44.52312" lon="0.72361">
        <ele>100.5</ele>
        <time>2014-7-5T10:32:42.000Z</time>
      </trkpt>
      <trkpt lat="44.52312" lon="0.72361">
        <ele>100.5</ele>
        <time>2014-7-5T10:32:42.000Z</time>
      </trkpt>
      <trkpt lat="44.5231" lon="0.7236">
        <ele>100.5</ele>
        <time>2014-7-5T10:32:42.000Z</time>
      </trkpt>
      <trkpt lat="44.5231" lon="0.7236">
        <ele>100.5</ele>
        <time>2014-7-5T10:32:42.000Z</time>
      </trkpt>
      <trkpt lat="44.52308" lon="0.72358">
        <ele>101.5</ele>
        <time>2014-7-5T10:32:42.000Z</time>
      </trkpt>
      <trkpt lat="44.52308" lon="0.72358">
        <ele>101.5</ele>
        <time>2014-7-5T10:32:42.000Z</time>
      </trkpt>
      <trkpt lat="44.52306" lon="0.72356">
        <ele>101.5</ele>
        <time>2014-7-5T10:32:42.000Z</time>
      </trkpt>
      <trkpt lat="44.52306" lon="0.72356">
        <ele>101.5</ele>
        <time>2014-7-5T10:32:42.000Z</time>
      </trkpt>
      <trkpt lat="44.52305" lon="0.72354">
        <ele>100.5</ele>
        <time>2014-7-5T10:32:42.000Z</time>
      </trkpt>
      <trkpt lat="44.52305" lon="0.72354">
        <ele>100.5</ele>
        <time>2014-7-5T10:32:42.000Z</time>
      </trkpt>
      <trkpt lat="44.52303" lon="0.72352">
        <ele>98.5</ele>
        <time>2014-7-5T10:32:42.000Z</time>
      </trkpt>
      <trkpt lat="44.52303" lon="0.72352">
        <ele>98.5</ele>
        <time>2014-7-5T10:32:42.000Z</time>
      </trkpt>
      <trkpt lat="44.52302" lon="0.7235">
        <ele>98.5</ele>
        <time>2014-7-5T10:32:42.000Z</time>
      </trkpt>
      <trkpt lat="44.52302" lon="0.7235">
        <ele>98.5</ele>
        <time>2014-7-5T10:32:42.000Z</time>
      </trkpt>
      <trkpt lat="44.523" lon="0.72348">
        <ele>97.5</ele>
        <time>2014-7-5T10:32:42.000Z</time>
      </trkpt>
      <trkpt lat="44.523" lon="0.72348">
        <ele>97.5</ele>
        <time>2014-7-5T10:32:42.000Z</time>
      </trkpt>
      <trkpt lat="44.52298" lon="0.72347">
        <ele>98.5</ele>
        <time>2014-7-5T10:32:42.000Z</time>
      </trkpt>
      <trkpt lat="44.52298" lon="0.72347">
        <ele>98.5</ele>
        <time>2014-7-5T10:32:42.000Z</time>
      </trkpt>
      <trkpt lat="44.52296" lon="0.72345">
        <ele>99.5</ele>
        <time>2014-7-5T10:32:42.000Z</time>
      </trkpt>
      <trkpt lat="44.52296" lon="0.72345">
        <ele>99.5</ele>
        <time>2014-7-5T10:32:42.000Z</time>
      </trkpt>
      <trkpt lat="44.52294" lon="0.72343">
        <ele>100.5</ele>
        <time>2014-7-5T10:32:42.000Z</time>
      </trkpt>
      <trkpt lat="44.52294" lon="0.72343">
        <ele>100.5</ele>
        <time>2014-7-5T10:32:42.000Z</time>
      </trkpt>
      <trkpt lat="44.52292" lon="0.72341">
        <ele>102.5</ele>
        <time>2014-7-5T10:32:42.000Z</time>
      </trkpt>
      <trkpt lat="44.52292" lon="0.72341">
        <ele>102.5</ele>
        <time>2014-7-5T10:32:42.000Z</time>
      </trkpt>
      <trkpt lat="44.52289" lon="0.72339">
        <ele>100.5</ele>
        <time>2014-7-5T10:32:42.000Z</time>
      </trkpt>
      <trkpt lat="44.52289" lon="0.72339">
        <ele>100.5</ele>
        <time>2014-7-5T10:32:42.000Z</time>
      </trkpt>
      <trkpt lat="44.52288" lon="0.72337">
        <ele>101.5</ele>
        <time>2014-7-5T10:32:42.000Z</time>
      </trkpt>
      <trkpt lat="44.52288" lon="0.72337">
        <ele>101.5</ele>
        <time>2014-7-5T10:32:42.000Z</time>
      </trkpt>
      <trkpt lat="44.52285" lon="0.72335">
        <ele>99.5</ele>
        <time>2014-7-5T10:32:42.000Z</time>
      </trkpt>
      <trkpt lat="44.52285" lon="0.72335">
        <ele>99.5</ele>
        <time>2014-7-5T10:32:42.000Z</time>
      </trkpt>
      <trkpt lat="44.52283" lon="0.72333">
        <ele>99.5</ele>
        <time>2014-7-5T10:32:42.000Z</time>
      </trkpt>
      <trkpt lat="44.52283" lon="0.72333">
        <ele>99.5</ele>
        <time>2014-7-5T10:32:42.000Z</time>
      </trkpt>
      <trkpt lat="44.52281" lon="0.72331">
        <ele>99.5</ele>
        <time>2014-7-5T10:32:42.000Z</time>
      </trkpt>
      <trkpt lat="44.52281" lon="0.72331">
        <ele>99.5</ele>
        <time>2014-7-5T10:32:42.000Z</time>
      </trkpt>
      <trkpt lat="44.52278" lon="0.72329">
        <ele>100.5</ele>
        <time>2014-7-5T10:32:42.000Z</time>
      </trkpt>
      <trkpt lat="44.52278" lon="0.72329">
        <ele>100.5</ele>
        <time>2014-7-5T10:32:42.000Z</time>
      </trkpt>
      <trkpt lat="44.52276" lon="0.72327">
        <ele>101.5</ele>
        <time>2014-7-5T10:32:42.000Z</time>
      </trkpt>
      <trkpt lat="44.52276" lon="0.72327">
        <ele>101.5</ele>
        <time>2014-7-5T10:32:42.000Z</time>
      </trkpt>
      <trkpt lat="44.52274" lon="0.72326">
        <ele>102.5</ele>
        <time>2014-7-5T10:32:42.000Z</time>
      </trkpt>
      <trkpt lat="44.52274" lon="0.72326">
        <ele>102.5</ele>
        <time>2014-7-5T10:32:42.000Z</time>
      </trkpt>
      <trkpt lat="44.52271" lon="0.72325">
        <ele>103.5</ele>
        <time>2014-7-5T10:32:42.000Z</time>
      </trkpt>
      <trkpt lat="44.52271" lon="0.72325">
        <ele>103.5</ele>
        <time>2014-7-5T10:32:42.000Z</time>
      </trkpt>
      <trkpt lat="44.52269" lon="0.72323">
        <ele>103.5</ele>
        <time>2014-7-5T10:32:42.000Z</time>
      </trkpt>
      <trkpt lat="44.52269" lon="0.72323">
        <ele>103.5</ele>
        <time>2014-7-5T10:32:42.000Z</time>
      </trkpt>
      <trkpt lat="44.52267" lon="0.72321">
        <ele>103.5</ele>
        <time>2014-7-5T10:32:42.000Z</time>
      </trkpt>
      <trkpt lat="44.52267" lon="0.72321">
        <ele>103.5</ele>
        <time>2014-7-5T10:32:42.000Z</time>
      </trkpt>
      <trkpt lat="44.52264" lon="0.72319">
        <ele>103.5</ele>
        <time>2014-7-5T10:32:42.000Z</time>
      </trkpt>
      <trkpt lat="44.52264" lon="0.72319">
        <ele>103.5</ele>
        <time>2014-7-5T10:32:42.000Z</time>
      </trkpt>
      <trkpt lat="44.52262" lon="0.72317">
        <ele>103.5</ele>
        <time>2014-7-5T10:32:42.000Z</time>
      </trkpt>
      <trkpt lat="44.52262" lon="0.72317">
        <ele>103.5</ele>
        <time>2014-7-5T10:32:42.000Z</time>
      </trkpt>
      <trkpt lat="44.5226" lon="0.72315">
        <ele>101.5</ele>
        <time>2014-7-5T10:33:30.000Z</time>
      </trkpt>
      <trkpt lat="44.5226" lon="0.72315">
        <ele>101.5</ele>
        <time>2014-7-5T10:33:30.000Z</time>
      </trkpt>
      <trkpt lat="44.52257" lon="0.72312">
        <ele>102.5</ele>
        <time>2014-7-5T10:33:30.000Z</time>
      </trkpt>
      <trkpt lat="44.52257" lon="0.72312">
        <ele>102.5</ele>
        <time>2014-7-5T10:33:30.000Z</time>
      </trkpt>
      <trkpt lat="44.52254" lon="0.7231">
        <ele>102.5</ele>
        <time>2014-7-5T10:33:30.000Z</time>
      </trkpt>
      <trkpt lat="44.52254" lon="0.7231">
        <ele>102.5</ele>
        <time>2014-7-5T10:33:30.000Z</time>
      </trkpt>
      <trkpt lat="44.52251" lon="0.72308">
        <ele>102.5</ele>
        <time>2014-7-5T10:33:30.000Z</time>
      </trkpt>
      <trkpt lat="44.52251" lon="0.72308">
        <ele>102.5</ele>
        <time>2014-7-5T10:33:30.000Z</time>
      </trkpt>
      <trkpt lat="44.52248" lon="0.72306">
        <ele>102.5</ele>
        <time>2014-7-5T10:33:30.000Z</time>
      </trkpt>
      <trkpt lat="44.52248" lon="0.72306">
        <ele>102.5</ele>
        <time>2014-7-5T10:33:30.000Z</time>
      </trkpt>
      <trkpt lat="44.52245" lon="0.72303">
        <ele>103.5</ele>
        <time>2014-7-5T10:33:30.000Z</time>
      </trkpt>
      <trkpt lat="44.52245" lon="0.72303">
        <ele>103.5</ele>
        <time>2014-7-5T10:33:30.000Z</time>
      </trkpt>
      <trkpt lat="44.52242" lon="0.72301">
        <ele>102.5</ele>
        <time>2014-7-5T10:33:30.000Z</time>
      </trkpt>
      <trkpt lat="44.52242" lon="0.72301">
        <ele>102.5</ele>
        <time>2014-7-5T10:33:30.000Z</time>
      </trkpt>
      <trkpt lat="44.52239" lon="0.72298">
        <ele>103.5</ele>
        <time>2014-7-5T10:33:30.000Z</time>
      </trkpt>
      <trkpt lat="44.52239" lon="0.72298">
        <ele>103.5</ele>
        <time>2014-7-5T10:33:30.000Z</time>
      </trkpt>
      <trkpt lat="44.52236" lon="0.72296">
        <ele>103.5</ele>
        <time>2014-7-5T10:33:30.000Z</time>
      </trkpt>
      <trkpt lat="44.52236" lon="0.72296">
        <ele>103.5</ele>
        <time>2014-7-5T10:33:30.000Z</time>
      </trkpt>
      <trkpt lat="44.52234" lon="0.72294">
        <ele>104.5</ele>
        <time>2014-7-5T10:33:30.000Z</time>
      </trkpt>
      <trkpt lat="44.52234" lon="0.72294">
        <ele>104.5</ele>
        <time>2014-7-5T10:33:30.000Z</time>
      </trkpt>
      <trkpt lat="44.52232" lon="0.72291">
        <ele>104.5</ele>
        <time>2014-7-5T10:33:30.000Z</time>
      </trkpt>
      <trkpt lat="44.52232" lon="0.72291">
        <ele>104.5</ele>
        <time>2014-7-5T10:33:30.000Z</time>
      </trkpt>
      <trkpt lat="44.52229" lon="0.72289">
        <ele>106.5</ele>
        <time>2014-7-5T10:33:30.000Z</time>
      </trkpt>
      <trkpt lat="44.52229" lon="0.72289">
        <ele>106.5</ele>
        <time>2014-7-5T10:33:30.000Z</time>
      </trkpt>
      <trkpt lat="44.52227" lon="0.72288">
        <ele>105.5</ele>
        <time>2014-7-5T10:33:30.000Z</time>
      </trkpt>
      <trkpt lat="44.52227" lon="0.72288">
        <ele>105.5</ele>
        <time>2014-7-5T10:33:30.000Z</time>
      </trkpt>
      <trkpt lat="44.52225" lon="0.72286">
        <ele>106.5</ele>
        <time>2014-7-5T10:33:30.000Z</time>
      </trkpt>
      <trkpt lat="44.52225" lon="0.72286">
        <ele>106.5</ele>
        <time>2014-7-5T10:33:30.000Z</time>
      </trkpt>
      <trkpt lat="44.52223" lon="0.72284">
        <ele>105.5</ele>
        <time>2014-7-5T10:33:30.000Z</time>
      </trkpt>
      <trkpt lat="44.52223" lon="0.72284">
        <ele>105.5</ele>
        <time>2014-7-5T10:33:30.000Z</time>
      </trkpt>
      <trkpt lat="44.52221" lon="0.72282">
        <ele>106.5</ele>
        <time>2014-7-5T10:33:30.000Z</time>
      </trkpt>
      <trkpt lat="44.52221" lon="0.72282">
        <ele>106.5</ele>
        <time>2014-7-5T10:33:30.000Z</time>
      </trkpt>
      <trkpt lat="44.52219" lon="0.72279">
        <ele>106.5</ele>
        <time>2014-7-5T10:33:30.000Z</time>
      </trkpt>
      <trkpt lat="44.52219" lon="0.72279">
        <ele>106.5</ele>
        <time>2014-7-5T10:33:30.000Z</time>
      </trkpt>
      <trkpt lat="44.52218" lon="0.72276">
        <ele>106.5</ele>
        <time>2014-7-5T10:33:30.000Z</time>
      </trkpt>
      <trkpt lat="44.52218" lon="0.72276">
        <ele>106.5</ele>
        <time>2014-7-5T10:33:30.000Z</time>
      </trkpt>
      <trkpt lat="44.52215" lon="0.72274">
        <ele>106.5</ele>
        <time>2014-7-5T10:33:30.000Z</time>
      </trkpt>
      <trkpt lat="44.52215" lon="0.72274">
        <ele>106.5</ele>
        <time>2014-7-5T10:33:30.000Z</time>
      </trkpt>
      <trkpt lat="44.52213" lon="0.72272">
        <ele>106.5</ele>
        <time>2014-7-5T10:33:30.000Z</time>
      </trkpt>
      <trkpt lat="44.52213" lon="0.72272">
        <ele>106.5</ele>
        <time>2014-7-5T10:33:30.000Z</time>
      </trkpt>
      <trkpt lat="44.52211" lon="0.7227">
        <ele>106.5</ele>
        <time>2014-7-5T10:33:30.000Z</time>
      </trkpt>
      <trkpt lat="44.52211" lon="0.7227">
        <ele>106.5</ele>
        <time>2014-7-5T10:33:30.000Z</time>
      </trkpt>
      <trkpt lat="44.52208" lon="0.72267">
        <ele>107.5</ele>
        <time>2014-7-5T10:33:30.000Z</time>
      </trkpt>
      <trkpt lat="44.52208" lon="0.72267">
        <ele>107.5</ele>
        <time>2014-7-5T10:33:30.000Z</time>
      </trkpt>
      <trkpt lat="44.52206" lon="0.72265">
        <ele>106.5</ele>
        <time>2014-7-5T10:33:30.000Z</time>
      </trkpt>
      <trkpt lat="44.52206" lon="0.72265">
        <ele>106.5</ele>
        <time>2014-7-5T10:33:30.000Z</time>
      </trkpt>
      <trkpt lat="44.52204" lon="0.72262">
        <ele>106.5</ele>
        <time>2014-7-5T10:33:30.000Z</time>
      </trkpt>
      <trkpt lat="44.52204" lon="0.72262">
        <ele>106.5</ele>
        <time>2014-7-5T10:33:30.000Z</time>
      </trkpt>
      <trkpt lat="44.52202" lon="0.72259">
        <ele>106.5</ele>
        <time>2014-7-5T10:33:30.000Z</time>
      </trkpt>
      <trkpt lat="44.52202" lon="0.72259">
        <ele>106.5</ele>
        <time>2014-7-5T10:33:30.000Z</time>
      </trkpt>
      <trkpt lat="44.522" lon="0.72256">
        <ele>106.5</ele>
        <time>2014-7-5T10:33:30.000Z</time>
      </trkpt>
      <trkpt lat="44.522" lon="0.72256">
        <ele>106.5</ele>
        <time>2014-7-5T10:33:30.000Z</time>
      </trkpt>
      <trkpt lat="44.52198" lon="0.72253">
        <ele>106.5</ele>
        <time>2014-7-5T10:33:30.000Z</time>
      </trkpt>
      <trkpt lat="44.52198" lon="0.72253">
        <ele>106.5</ele>
        <time>2014-7-5T10:33:30.000Z</time>
      </trkpt>
      <trkpt lat="44.52196" lon="0.7225">
        <ele>105.5</ele>
        <time>2014-7-5T10:33:30.000Z</time>
      </trkpt>
      <trkpt lat="44.52196" lon="0.7225">
        <ele>105.5</ele>
        <time>2014-7-5T10:33:30.000Z</time>
      </trkpt>
      <trkpt lat="44.52195" lon="0.72247">
        <ele>105.5</ele>
        <time>2014-7-5T10:33:30.000Z</time>
      </trkpt>
      <trkpt lat="44.52195" lon="0.72247">
        <ele>105.5</ele>
        <time>2014-7-5T10:33:30.000Z</time>
      </trkpt>
      <trkpt lat="44.52193" lon="0.72245">
        <ele>105.5</ele>
        <time>2014-7-5T10:33:30.000Z</time>
      </trkpt>
      <trkpt lat="44.52193" lon="0.72245">
        <ele>105.5</ele>
        <time>2014-7-5T10:33:30.000Z</time>
      </trkpt>
      <trkpt lat="44.52191" lon="0.72242">
        <ele>106.5</ele>
        <time>2014-7-5T10:33:30.000Z</time>
      </trkpt>
      <trkpt lat="44.52191" lon="0.72242">
        <ele>106.5</ele>
        <time>2014-7-5T10:33:30.000Z</time>
      </trkpt>
      <trkpt lat="44.52189" lon="0.7224">
        <ele>105.5</ele>
        <time>2014-7-5T10:33:30.000Z</time>
      </trkpt>
      <trkpt lat="44.52189" lon="0.7224">
        <ele>105.5</ele>
        <time>2014-7-5T10:33:30.000Z</time>
      </trkpt>
      <trkpt lat="44.52187" lon="0.72237">
        <ele>105.5</ele>
        <time>2014-7-5T10:33:30.000Z</time>
      </trkpt>
      <trkpt lat="44.52187" lon="0.72237">
        <ele>105.5</ele>
        <time>2014-7-5T10:33:30.000Z</time>
      </trkpt>
      <trkpt lat="44.52186" lon="0.72234">
        <ele>105.5</ele>
        <time>2014-7-5T10:33:30.000Z</time>
      </trkpt>
      <trkpt lat="44.52186" lon="0.72234">
        <ele>105.5</ele>
        <time>2014-7-5T10:33:30.000Z</time>
      </trkpt>
      <trkpt lat="44.52184" lon="0.72231">
        <ele>105.5</ele>
        <time>2014-7-5T10:33:30.000Z</time>
      </trkpt>
      <trkpt lat="44.52184" lon="0.72231">
        <ele>105.5</ele>
        <time>2014-7-5T10:33:30.000Z</time>
      </trkpt>
      <trkpt lat="44.52183" lon="0.72226">
        <ele>105.5</ele>
        <time>2014-7-5T10:33:30.000Z</time>
      </trkpt>
      <trkpt lat="44.52183" lon="0.72226">
        <ele>105.5</ele>
        <time>2014-7-5T10:33:30.000Z</time>
      </trkpt>
      <trkpt lat="44.52182" lon="0.72222">
        <ele>106.5</ele>
        <time>2014-7-5T10:33:30.000Z</time>
      </trkpt>
      <trkpt lat="44.52182" lon="0.72222">
        <ele>106.5</ele>
        <time>2014-7-5T10:33:30.000Z</time>
      </trkpt>
      <trkpt lat="44.5218" lon="0.72218">
        <ele>105.5</ele>
        <time>2014-7-5T10:33:30.000Z</time>
      </trkpt>
      <trkpt lat="44.5218" lon="0.72218">
        <ele>105.5</ele>
        <time>2014-7-5T10:33:30.000Z</time>
      </trkpt>
      <trkpt lat="44.52179" lon="0.72214">
        <ele>106.5</ele>
        <time>2014-7-5T10:33:30.000Z</time>
      </trkpt>
      <trkpt lat="44.52179" lon="0.72214">
        <ele>106.5</ele>
        <time>2014-7-5T10:33:30.000Z</time>
      </trkpt>
      <trkpt lat="44.52178" lon="0.7221">
        <ele>106.5</ele>
        <time>2014-7-5T10:33:30.000Z</time>
      </trkpt>
      <trkpt lat="44.52178" lon="0.7221">
        <ele>106.5</ele>
        <time>2014-7-5T10:33:30.000Z</time>
      </trkpt>
      <trkpt lat="44.52177" lon="0.72206">
        <ele>106.5</ele>
        <time>2014-7-5T10:33:30.000Z</time>
      </trkpt>
      <trkpt lat="44.52177" lon="0.72206">
        <ele>106.5</ele>
        <time>2014-7-5T10:33:30.000Z</time>
      </trkpt>
      <trkpt lat="44.52176" lon="0.72202">
        <ele>106.5</ele>
        <time>2014-7-5T10:33:30.000Z</time>
      </trkpt>
      <trkpt lat="44.52176" lon="0.72202">
        <ele>106.5</ele>
        <time>2014-7-5T10:33:30.000Z</time>
      </trkpt>
      <trkpt lat="44.52175" lon="0.72199">
        <ele>106.5</ele>
        <time>2014-7-5T10:33:30.000Z</time>
      </trkpt>
      <trkpt lat="44.52175" lon="0.72199">
        <ele>106.5</ele>
        <time>2014-7-5T10:33:30.000Z</time>
      </trkpt>
      <trkpt lat="44.52174" lon="0.72195">
        <ele>106.5</ele>
        <time>2014-7-5T10:33:30.000Z</time>
      </trkpt>
      <trkpt lat="44.52174" lon="0.72195">
        <ele>106.5</ele>
        <time>2014-7-5T10:33:30.000Z</time>
      </trkpt>
      <trkpt lat="44.52173" lon="0.72191">
        <ele>106.5</ele>
        <time>2014-7-5T10:33:30.000Z</time>
      </trkpt>
      <trkpt lat="44.52173" lon="0.72191">
        <ele>106.5</ele>
        <time>2014-7-5T10:33:30.000Z</time>
      </trkpt>
      <trkpt lat="44.52172" lon="0.72187">
        <ele>106.5</ele>
        <time>2014-7-5T10:33:30.000Z</time>
      </trkpt>
      <trkpt lat="44.52172" lon="0.72187">
        <ele>106.5</ele>
        <time>2014-7-5T10:33:30.000Z</time>
      </trkpt>
      <trkpt lat="44.52171" lon="0.72183">
        <ele>106.5</ele>
        <time>2014-7-5T10:33:30.000Z</time>
      </trkpt>
      <trkpt lat="44.52171" lon="0.72183">
        <ele>106.5</ele>
        <time>2014-7-5T10:33:30.000Z</time>
      </trkpt>
      <trkpt lat="44.52171" lon="0.72179">
        <ele>105.5</ele>
        <time>2014-7-5T10:33:30.000Z</time>
      </trkpt>
      <trkpt lat="44.52171" lon="0.72179">
        <ele>105.5</ele>
        <time>2014-7-5T10:33:30.000Z</time>
      </trkpt>
      <trkpt lat="44.5217" lon="0.72175">
        <ele>105.5</ele>
        <time>2014-7-5T10:33:30.000Z</time>
      </trkpt>
      <trkpt lat="44.5217" lon="0.72175">
        <ele>105.5</ele>
        <time>2014-7-5T10:33:30.000Z</time>
      </trkpt>
      <trkpt lat="44.52169" lon="0.72171">
        <ele>105.5</ele>
        <time>2014-7-5T10:33:30.000Z</time>
      </trkpt>
      <trkpt lat="44.52169" lon="0.72171">
        <ele>105.5</ele>
        <time>2014-7-5T10:33:30.000Z</time>
      </trkpt>
      <trkpt lat="44.52169" lon="0.72168">
        <ele>105.5</ele>
        <time>2014-7-5T10:33:30.000Z</time>
      </trkpt>
      <trkpt lat="44.52169" lon="0.72168">
        <ele>105.5</ele>
        <time>2014-7-5T10:34:20.000Z</time>
      </trkpt>
      <trkpt lat="44.52168" lon="0.72165">
        <ele>105.5</ele>
        <time>2014-7-5T10:34:20.000Z</time>
      </trkpt>
      <trkpt lat="44.52168" lon="0.72165">
        <ele>105.5</ele>
        <time>2014-7-5T10:34:20.000Z</time>
      </trkpt>
      <trkpt lat="44.52167" lon="0.72161">
        <ele>105.5</ele>
        <time>2014-7-5T10:34:20.000Z</time>
      </trkpt>
      <trkpt lat="44.52167" lon="0.72161">
        <ele>105.5</ele>
        <time>2014-7-5T10:34:20.000Z</time>
      </trkpt>
      <trkpt lat="44.52167" lon="0.72157">
        <ele>105.5</ele>
        <time>2014-7-5T10:34:20.000Z</time>
      </trkpt>
      <trkpt lat="44.52167" lon="0.72157">
        <ele>105.5</ele>
        <time>2014-7-5T10:34:20.000Z</time>
      </trkpt>
      <trkpt lat="44.52166" lon="0.72154">
        <ele>105.5</ele>
        <time>2014-7-5T10:34:20.000Z</time>
      </trkpt>
      <trkpt lat="44.52166" lon="0.72154">
        <ele>105.5</ele>
        <time>2014-7-5T10:34:20.000Z</time>
      </trkpt>
      <trkpt lat="44.52166" lon="0.7215">
        <ele>105.5</ele>
        <time>2014-7-5T10:34:20.000Z</time>
      </trkpt>
      <trkpt lat="44.52166" lon="0.7215">
        <ele>105.5</ele>
        <time>2014-7-5T10:34:20.000Z</time>
      </trkpt>
      <trkpt lat="44.52166" lon="0.72147">
        <ele>105.5</ele>
        <time>2014-7-5T10:34:20.000Z</time>
      </trkpt>
      <trkpt lat="44.52166" lon="0.72147">
        <ele>105.5</ele>
        <time>2014-7-5T10:34:20.000Z</time>
      </trkpt>
      <trkpt lat="44.52165" lon="0.72144">
        <ele>105.5</ele>
        <time>2014-7-5T10:34:20.000Z</time>
      </trkpt>
      <trkpt lat="44.52165" lon="0.72144">
        <ele>105.5</ele>
        <time>2014-7-5T10:34:20.000Z</time>
      </trkpt>
      <trkpt lat="44.52165" lon="0.72141">
        <ele>105.5</ele>
        <time>2014-7-5T10:34:20.000Z</time>
      </trkpt>
      <trkpt lat="44.52165" lon="0.72141">
        <ele>105.5</ele>
        <time>2014-7-5T10:34:20.000Z</time>
      </trkpt>
      <trkpt lat="44.52164" lon="0.72137">
        <ele>105.5</ele>
        <time>2014-7-5T10:34:20.000Z</time>
      </trkpt>
      <trkpt lat="44.52164" lon="0.72137">
        <ele>105.5</ele>
        <time>2014-7-5T10:34:20.000Z</time>
      </trkpt>
      <trkpt lat="44.52164" lon="0.72134">
        <ele>104.5</ele>
        <time>2014-7-5T10:34:20.000Z</time>
      </trkpt>
      <trkpt lat="44.52164" lon="0.72134">
        <ele>104.5</ele>
        <time>2014-7-5T10:34:20.000Z</time>
      </trkpt>
      <trkpt lat="44.52163" lon="0.7213">
        <ele>105.5</ele>
        <time>2014-7-5T10:34:20.000Z</time>
      </trkpt>
      <trkpt lat="44.52163" lon="0.7213">
        <ele>105.5</ele>
        <time>2014-7-5T10:34:20.000Z</time>
      </trkpt>
      <trkpt lat="44.52162" lon="0.72127">
        <ele>104.5</ele>
        <time>2014-7-5T10:34:20.000Z</time>
      </trkpt>
      <trkpt lat="44.52162" lon="0.72127">
        <ele>104.5</ele>
        <time>2014-7-5T10:34:20.000Z</time>
      </trkpt>
      <trkpt lat="44.52161" lon="0.72123">
        <ele>105.5</ele>
        <time>2014-7-5T10:34:20.000Z</time>
      </trkpt>
      <trkpt lat="44.52161" lon="0.72123">
        <ele>105.5</ele>
        <time>2014-7-5T10:34:20.000Z</time>
      </trkpt>
      <trkpt lat="44.5216" lon="0.72118">
        <ele>104.5</ele>
        <time>2014-7-5T10:34:20.000Z</time>
      </trkpt>
      <trkpt lat="44.5216" lon="0.72118">
        <ele>104.5</ele>
        <time>2014-7-5T10:34:20.000Z</time>
      </trkpt>
      <trkpt lat="44.52159" lon="0.72114">
        <ele>104.5</ele>
        <time>2014-7-5T10:34:20.000Z</time>
      </trkpt>
      <trkpt lat="44.52159" lon="0.72114">
        <ele>104.5</ele>
        <time>2014-7-5T10:34:20.000Z</time>
      </trkpt>
      <trkpt lat="44.52158" lon="0.72109">
        <ele>104.5</ele>
        <time>2014-7-5T10:34:20.000Z</time>
      </trkpt>
      <trkpt lat="44.52158" lon="0.72109">
        <ele>104.5</ele>
        <time>2014-7-5T10:34:20.000Z</time>
      </trkpt>
      <trkpt lat="44.52157" lon="0.72105">
        <ele>104.5</ele>
        <time>2014-7-5T10:34:20.000Z</time>
      </trkpt>
      <trkpt lat="44.52157" lon="0.72105">
        <ele>104.5</ele>
        <time>2014-7-5T10:34:20.000Z</time>
      </trkpt>
      <trkpt lat="44.52156" lon="0.72101">
        <ele>105.5</ele>
        <time>2014-7-5T10:34:20.000Z</time>
      </trkpt>
      <trkpt lat="44.52156" lon="0.72101">
        <ele>105.5</ele>
        <time>2014-7-5T10:34:20.000Z</time>
      </trkpt>
      <trkpt lat="44.52155" lon="0.72096">
        <ele>105.5</ele>
        <time>2014-7-5T10:34:20.000Z</time>
      </trkpt>
      <trkpt lat="44.52155" lon="0.72096">
        <ele>105.5</ele>
        <time>2014-7-5T10:34:20.000Z</time>
      </trkpt>
      <trkpt lat="44.52154" lon="0.72092">
        <ele>105.5</ele>
        <time>2014-7-5T10:34:20.000Z</time>
      </trkpt>
      <trkpt lat="44.52154" lon="0.72092">
        <ele>105.5</ele>
        <time>2014-7-5T10:34:20.000Z</time>
      </trkpt>
      <trkpt lat="44.52153" lon="0.72087">
        <ele>105.5</ele>
        <time>2014-7-5T10:34:20.000Z</time>
      </trkpt>
      <trkpt lat="44.52153" lon="0.72087">
        <ele>105.5</ele>
        <time>2014-7-5T10:34:20.000Z</time>
      </trkpt>
      <trkpt lat="44.52151" lon="0.72083">
        <ele>106.5</ele>
        <time>2014-7-5T10:34:20.000Z</time>
      </trkpt>
      <trkpt lat="44.52151" lon="0.72083">
        <ele>106.5</ele>
        <time>2014-7-5T10:34:20.000Z</time>
      </trkpt>
      <trkpt lat="44.5215" lon="0.72079">
        <ele>106.5</ele>
        <time>2014-7-5T10:34:20.000Z</time>
      </trkpt>
      <trkpt lat="44.5215" lon="0.72079">
        <ele>106.5</ele>
        <time>2014-7-5T10:34:20.000Z</time>
      </trkpt>
      <trkpt lat="44.52149" lon="0.72075">
        <ele>106.5</ele>
        <time>2014-7-5T10:34:20.000Z</time>
      </trkpt>
      <trkpt lat="44.52149" lon="0.72075">
        <ele>106.5</ele>
        <time>2014-7-5T10:34:20.000Z</time>
      </trkpt>
      <trkpt lat="44.52147" lon="0.7207">
        <ele>105.5</ele>
        <time>2014-7-5T10:34:20.000Z</time>
      </trkpt>
      <trkpt lat="44.52147" lon="0.7207">
        <ele>105.5</ele>
        <time>2014-7-5T10:34:20.000Z</time>
      </trkpt>
      <trkpt lat="44.52146" lon="0.72066">
        <ele>106.5</ele>
        <time>2014-7-5T10:34:20.000Z</time>
      </trkpt>
      <trkpt lat="44.52146" lon="0.72066">
        <ele>106.5</ele>
        <time>2014-7-5T10:34:20.000Z</time>
      </trkpt>
      <trkpt lat="44.52144" lon="0.72062">
        <ele>106.5</ele>
        <time>2014-7-5T10:34:20.000Z</time>
      </trkpt>
      <trkpt lat="44.52144" lon="0.72062">
        <ele>106.5</ele>
        <time>2014-7-5T10:34:20.000Z</time>
      </trkpt>
      <trkpt lat="44.52143" lon="0.72058">
        <ele>106.5</ele>
        <time>2014-7-5T10:34:20.000Z</time>
      </trkpt>
      <trkpt lat="44.52143" lon="0.72058">
        <ele>106.5</ele>
        <time>2014-7-5T10:34:20.000Z</time>
      </trkpt>
      <trkpt lat="44.52142" lon="0.72054">
        <ele>105.5</ele>
        <time>2014-7-5T10:34:20.000Z</time>
      </trkpt>
      <trkpt lat="44.52142" lon="0.72054">
        <ele>105.5</ele>
        <time>2014-7-5T10:34:20.000Z</time>
      </trkpt>
      <trkpt lat="44.52141" lon="0.72049">
        <ele>105.5</ele>
        <time>2014-7-5T10:34:20.000Z</time>
      </trkpt>
      <trkpt lat="44.52141" lon="0.72049">
        <ele>105.5</ele>
        <time>2014-7-5T10:34:20.000Z</time>
      </trkpt>
      <trkpt lat="44.5214" lon="0.72045">
        <ele>105.5</ele>
        <time>2014-7-5T10:34:20.000Z</time>
      </trkpt>
      <trkpt lat="44.5214" lon="0.72045">
        <ele>105.5</ele>
        <time>2014-7-5T10:34:20.000Z</time>
      </trkpt>
      <trkpt lat="44.52139" lon="0.72041">
        <ele>106.5</ele>
        <time>2014-7-5T10:34:20.000Z</time>
      </trkpt>
      <trkpt lat="44.52139" lon="0.72041">
        <ele>106.5</ele>
        <time>2014-7-5T10:34:20.000Z</time>
      </trkpt>
      <trkpt lat="44.52137" lon="0.72037">
        <ele>106.5</ele>
        <time>2014-7-5T10:34:20.000Z</time>
      </trkpt>
      <trkpt lat="44.52137" lon="0.72037">
        <ele>106.5</ele>
        <time>2014-7-5T10:34:20.000Z</time>
      </trkpt>
      <trkpt lat="44.52135" lon="0.72033">
        <ele>107.5</ele>
        <time>2014-7-5T10:34:20.000Z</time>
      </trkpt>
      <trkpt lat="44.52135" lon="0.72033">
        <ele>107.5</ele>
        <time>2014-7-5T10:34:20.000Z</time>
      </trkpt>
      <trkpt lat="44.52134" lon="0.72029">
        <ele>108.5</ele>
        <time>2014-7-5T10:34:20.000Z</time>
      </trkpt>
      <trkpt lat="44.52134" lon="0.72029">
        <ele>108.5</ele>
        <time>2014-7-5T10:34:20.000Z</time>
      </trkpt>
      <trkpt lat="44.52132" lon="0.72025">
        <ele>108.5</ele>
        <time>2014-7-5T10:34:20.000Z</time>
      </trkpt>
      <trkpt lat="44.52132" lon="0.72025">
        <ele>108.5</ele>
        <time>2014-7-5T10:34:20.000Z</time>
      </trkpt>
      <trkpt lat="44.52131" lon="0.72023">
        <ele>108.5</ele>
        <time>2014-7-5T10:34:20.000Z</time>
      </trkpt>
      <trkpt lat="44.52131" lon="0.72023">
        <ele>108.5</ele>
        <time>2014-7-5T10:34:20.000Z</time>
      </trkpt>
      <trkpt lat="44.52131" lon="0.72019">
        <ele>108.5</ele>
        <time>2014-7-5T10:34:20.000Z</time>
      </trkpt>
      <trkpt lat="44.52131" lon="0.72019">
        <ele>108.5</ele>
        <time>2014-7-5T10:34:20.000Z</time>
      </trkpt>
      <trkpt lat="44.5213" lon="0.72016">
        <ele>109.5</ele>
        <time>2014-7-5T10:34:20.000Z</time>
      </trkpt>
      <trkpt lat="44.5213" lon="0.72016">
        <ele>109.5</ele>
        <time>2014-7-5T10:34:20.000Z</time>
      </trkpt>
      <trkpt lat="44.5213" lon="0.72013">
        <ele>109.5</ele>
        <time>2014-7-5T10:34:20.000Z</time>
      </trkpt>
      <trkpt lat="44.5213" lon="0.72013">
        <ele>109.5</ele>
        <time>2014-7-5T10:34:20.000Z</time>
      </trkpt>
      <trkpt lat="44.5213" lon="0.72009">
        <ele>109.5</ele>
        <time>2014-7-5T10:34:20.000Z</time>
      </trkpt>
      <trkpt lat="44.5213" lon="0.72009">
        <ele>109.5</ele>
        <time>2014-7-5T10:34:20.000Z</time>
      </trkpt>
      <trkpt lat="44.52129" lon="0.72006">
        <ele>109.5</ele>
        <time>2014-7-5T10:34:20.000Z</time>
      </trkpt>
      <trkpt lat="44.52129" lon="0.72006">
        <ele>109.5</ele>
        <time>2014-7-5T10:34:20.000Z</time>
      </trkpt>
      <trkpt lat="44.52127" lon="0.72002">
        <ele>110.5</ele>
        <time>2014-7-5T10:34:20.000Z</time>
      </trkpt>
      <trkpt lat="44.52127" lon="0.72002">
        <ele>110.5</ele>
        <time>2014-7-5T10:34:20.000Z</time>
      </trkpt>
      <trkpt lat="44.52126" lon="0.71999">
        <ele>109.5</ele>
        <time>2014-7-5T10:34:20.000Z</time>
      </trkpt>
      <trkpt lat="44.52126" lon="0.71999">
        <ele>109.5</ele>
        <time>2014-7-5T10:34:20.000Z</time>
      </trkpt>
      <trkpt lat="44.52125" lon="0.71995">
        <ele>110.5</ele>
        <time>2014-7-5T10:34:20.000Z</time>
      </trkpt>
      <trkpt lat="44.52125" lon="0.71995">
        <ele>110.5</ele>
        <time>2014-7-5T10:34:20.000Z</time>
      </trkpt>
      <trkpt lat="44.52124" lon="0.71992">
        <ele>110.5</ele>
        <time>2014-7-5T10:34:20.000Z</time>
      </trkpt>
      <trkpt lat="44.52124" lon="0.71992">
        <ele>110.5</ele>
        <time>2014-7-5T10:34:20.000Z</time>
      </trkpt>
      <trkpt lat="44.52123" lon="0.71989">
        <ele>110.5</ele>
        <time>2014-7-5T10:34:20.000Z</time>
      </trkpt>
      <trkpt lat="44.52123" lon="0.71989">
        <ele>110.5</ele>
        <time>2014-7-5T10:34:20.000Z</time>
      </trkpt>
      <trkpt lat="44.52122" lon="0.71986">
        <ele>112.5</ele>
        <time>2014-7-5T10:34:20.000Z</time>
      </trkpt>
      <trkpt lat="44.52122" lon="0.71986">
        <ele>112.5</ele>
        <time>2014-7-5T10:34:20.000Z</time>
      </trkpt>
      <trkpt lat="44.52121" lon="0.71982">
        <ele>112.5</ele>
        <time>2014-7-5T10:34:20.000Z</time>
      </trkpt>
      <trkpt lat="44.52121" lon="0.71982">
        <ele>112.5</ele>
        <time>2014-7-5T10:34:20.000Z</time>
      </trkpt>
      <trkpt lat="44.5212" lon="0.71979">
        <ele>112.5</ele>
        <time>2014-7-5T10:34:20.000Z</time>
      </trkpt>
      <trkpt lat="44.5212" lon="0.71979">
        <ele>112.5</ele>
        <time>2014-7-5T10:34:20.000Z</time>
      </trkpt>
      <trkpt lat="44.52119" lon="0.71975">
        <ele>113.5</ele>
        <time>2014-7-5T10:35:14.000Z</time>
      </trkpt>
      <trkpt lat="44.52119" lon="0.71975">
        <ele>113.5</ele>
        <time>2014-7-5T10:35:14.000Z</time>
      </trkpt>
      <trkpt lat="44.52118" lon="0.71972">
        <ele>112.5</ele>
        <time>2014-7-5T10:35:14.000Z</time>
      </trkpt>
      <trkpt lat="44.52118" lon="0.71972">
        <ele>112.5</ele>
        <time>2014-7-5T10:35:14.000Z</time>
      </trkpt>
      <trkpt lat="44.52117" lon="0.71968">
        <ele>112.5</ele>
        <time>2014-7-5T10:35:14.000Z</time>
      </trkpt>
      <trkpt lat="44.52117" lon="0.71968">
        <ele>112.5</ele>
        <time>2014-7-5T10:35:14.000Z</time>
      </trkpt>
      <trkpt lat="44.52117" lon="0.71964">
        <ele>112.5</ele>
        <time>2014-7-5T10:35:14.000Z</time>
      </trkpt>
      <trkpt lat="44.52117" lon="0.71964">
        <ele>112.5</ele>
        <time>2014-7-5T10:35:14.000Z</time>
      </trkpt>
      <trkpt lat="44.52116" lon="0.7196">
        <ele>112.5</ele>
        <time>2014-7-5T10:35:14.000Z</time>
      </trkpt>
      <trkpt lat="44.52116" lon="0.7196">
        <ele>112.5</ele>
        <time>2014-7-5T10:35:14.000Z</time>
      </trkpt>
      <trkpt lat="44.52115" lon="0.71956">
        <ele>112.5</ele>
        <time>2014-7-5T10:35:14.000Z</time>
      </trkpt>
      <trkpt lat="44.52115" lon="0.71956">
        <ele>112.5</ele>
        <time>2014-7-5T10:35:14.000Z</time>
      </trkpt>
      <trkpt lat="44.52115" lon="0.71952">
        <ele>112.5</ele>
        <time>2014-7-5T10:35:14.000Z</time>
      </trkpt>
      <trkpt lat="44.52115" lon="0.71952">
        <ele>112.5</ele>
        <time>2014-7-5T10:35:14.000Z</time>
      </trkpt>
      <trkpt lat="44.52115" lon="0.71948">
        <ele>111.5</ele>
        <time>2014-7-5T10:35:14.000Z</time>
      </trkpt>
      <trkpt lat="44.52115" lon="0.71948">
        <ele>111.5</ele>
        <time>2014-7-5T10:35:14.000Z</time>
      </trkpt>
      <trkpt lat="44.52115" lon="0.71943">
        <ele>111.5</ele>
        <time>2014-7-5T10:35:14.000Z</time>
      </trkpt>
      <trkpt lat="44.52115" lon="0.71943">
        <ele>111.5</ele>
        <time>2014-7-5T10:35:14.000Z</time>
      </trkpt>
      <trkpt lat="44.52114" lon="0.71939">
        <ele>111.5</ele>
        <time>2014-7-5T10:35:14.000Z</time>
      </trkpt>
      <trkpt lat="44.52114" lon="0.71939">
        <ele>111.5</ele>
        <time>2014-7-5T10:35:14.000Z</time>
      </trkpt>
      <trkpt lat="44.52114" lon="0.71934">
        <ele>111.5</ele>
        <time>2014-7-5T10:35:14.000Z</time>
      </trkpt>
      <trkpt lat="44.52114" lon="0.71934">
        <ele>111.5</ele>
        <time>2014-7-5T10:35:14.000Z</time>
      </trkpt>
      <trkpt lat="44.52113" lon="0.7193">
        <ele>111.5</ele>
        <time>2014-7-5T10:35:14.000Z</time>
      </trkpt>
      <trkpt lat="44.52113" lon="0.7193">
        <ele>111.5</ele>
        <time>2014-7-5T10:35:14.000Z</time>
      </trkpt>
      <trkpt lat="44.52113" lon="0.71925">
        <ele>110.5</ele>
        <time>2014-7-5T10:35:14.000Z</time>
      </trkpt>
      <trkpt lat="44.52113" lon="0.71925">
        <ele>110.5</ele>
        <time>2014-7-5T10:35:14.000Z</time>
      </trkpt>
      <trkpt lat="44.52112" lon="0.7192">
        <ele>111.5</ele>
        <time>2014-7-5T10:35:14.000Z</time>
      </trkpt>
      <trkpt lat="44.52112" lon="0.7192">
        <ele>111.5</ele>
        <time>2014-7-5T10:35:14.000Z</time>
      </trkpt>
      <trkpt lat="44.52112" lon="0.71915">
        <ele>111.5</ele>
        <time>2014-7-5T10:35:14.000Z</time>
      </trkpt>
      <trkpt lat="44.52112" lon="0.71915">
        <ele>111.5</ele>
        <time>2014-7-5T10:35:14.000Z</time>
      </trkpt>
      <trkpt lat="44.52111" lon="0.7191">
        <ele>111.5</ele>
        <time>2014-7-5T10:35:14.000Z</time>
      </trkpt>
      <trkpt lat="44.52111" lon="0.7191">
        <ele>111.5</ele>
        <time>2014-7-5T10:35:14.000Z</time>
      </trkpt>
      <trkpt lat="44.5211" lon="0.71905">
        <ele>111.5</ele>
        <time>2014-7-5T10:35:14.000Z</time>
      </trkpt>
      <trkpt lat="44.5211" lon="0.71905">
        <ele>111.5</ele>
        <time>2014-7-5T10:35:14.000Z</time>
      </trkpt>
      <trkpt lat="44.5211" lon="0.719">
        <ele>111.5</ele>
        <time>2014-7-5T10:35:14.000Z</time>
      </trkpt>
      <trkpt lat="44.5211" lon="0.719">
        <ele>111.5</ele>
        <time>2014-7-5T10:35:14.000Z</time>
      </trkpt>
      <trkpt lat="44.52109" lon="0.71895">
        <ele>111.5</ele>
        <time>2014-7-5T10:35:14.000Z</time>
      </trkpt>
      <trkpt lat="44.52109" lon="0.71895">
        <ele>111.5</ele>
        <time>2014-7-5T10:35:14.000Z</time>
      </trkpt>
      <trkpt lat="44.52108" lon="0.71889">
        <ele>111.5</ele>
        <time>2014-7-5T10:35:14.000Z</time>
      </trkpt>
      <trkpt lat="44.52108" lon="0.71889">
        <ele>111.5</ele>
        <time>2014-7-5T10:35:14.000Z</time>
      </trkpt>
      <trkpt lat="44.52108" lon="0.71885">
        <ele>111.5</ele>
        <time>2014-7-5T10:35:14.000Z</time>
      </trkpt>
      <trkpt lat="44.52108" lon="0.71885">
        <ele>111.5</ele>
        <time>2014-7-5T10:35:14.000Z</time>
      </trkpt>
      <trkpt lat="44.52107" lon="0.71881">
        <ele>111.5</ele>
        <time>2014-7-5T10:35:14.000Z</time>
      </trkpt>
      <trkpt lat="44.52107" lon="0.71881">
        <ele>111.5</ele>
        <time>2014-7-5T10:35:14.000Z</time>
      </trkpt>
      <trkpt lat="44.52106" lon="0.71876">
        <ele>112.5</ele>
        <time>2014-7-5T10:35:14.000Z</time>
      </trkpt>
      <trkpt lat="44.52106" lon="0.71876">
        <ele>112.5</ele>
        <time>2014-7-5T10:35:14.000Z</time>
      </trkpt>
      <trkpt lat="44.52106" lon="0.71872">
        <ele>112.5</ele>
        <time>2014-7-5T10:35:14.000Z</time>
      </trkpt>
      <trkpt lat="44.52106" lon="0.71872">
        <ele>112.5</ele>
        <time>2014-7-5T10:35:14.000Z</time>
      </trkpt>
      <trkpt lat="44.52105" lon="0.71868">
        <ele>111.5</ele>
        <time>2014-7-5T10:35:14.000Z</time>
      </trkpt>
      <trkpt lat="44.52105" lon="0.71868">
        <ele>111.5</ele>
        <time>2014-7-5T10:35:14.000Z</time>
      </trkpt>
      <trkpt lat="44.52104" lon="0.71863">
        <ele>111.5</ele>
        <time>2014-7-5T10:35:14.000Z</time>
      </trkpt>
      <trkpt lat="44.52104" lon="0.71863">
        <ele>111.5</ele>
        <time>2014-7-5T10:35:14.000Z</time>
      </trkpt>
      <trkpt lat="44.52103" lon="0.71859">
        <ele>111.5</ele>
        <time>2014-7-5T10:35:14.000Z</time>
      </trkpt>
      <trkpt lat="44.52103" lon="0.71859">
        <ele>111.5</ele>
        <time>2014-7-5T10:35:14.000Z</time>
      </trkpt>
      <trkpt lat="44.52102" lon="0.71854">
        <ele>112.5</ele>
        <time>2014-7-5T10:35:14.000Z</time>
      </trkpt>
      <trkpt lat="44.52102" lon="0.71854">
        <ele>112.5</ele>
        <time>2014-7-5T10:35:14.000Z</time>
      </trkpt>
      <trkpt lat="44.52102" lon="0.7185">
        <ele>112.5</ele>
        <time>2014-7-5T10:35:14.000Z</time>
      </trkpt>
      <trkpt lat="44.52102" lon="0.7185">
        <ele>112.5</ele>
        <time>2014-7-5T10:35:14.000Z</time>
      </trkpt>
      <trkpt lat="44.52101" lon="0.71845">
        <ele>112.5</ele>
        <time>2014-7-5T10:35:14.000Z</time>
      </trkpt>
      <trkpt lat="44.52101" lon="0.71845">
        <ele>112.5</ele>
        <time>2014-7-5T10:35:14.000Z</time>
      </trkpt>
      <trkpt lat="44.52101" lon="0.71841">
        <ele>111.5</ele>
        <time>2014-7-5T10:35:14.000Z</time>
      </trkpt>
      <trkpt lat="44.52101" lon="0.71841">
        <ele>111.5</ele>
        <time>2014-7-5T10:35:14.000Z</time>
      </trkpt>
      <trkpt lat="44.521" lon="0.71837">
        <ele>112.5</ele>
        <time>2014-7-5T10:35:14.000Z</time>
      </trkpt>
      <trkpt lat="44.521" lon="0.71837">
        <ele>112.5</ele>
        <time>2014-7-5T10:35:14.000Z</time>
      </trkpt>
      <trkpt lat="44.52099" lon="0.71833">
        <ele>112.5</ele>
        <time>2014-7-5T10:35:14.000Z</time>
      </trkpt>
      <trkpt lat="44.52099" lon="0.71833">
        <ele>112.5</ele>
        <time>2014-7-5T10:35:14.000Z</time>
      </trkpt>
      <trkpt lat="44.52097" lon="0.7183">
        <ele>113.5</ele>
        <time>2014-7-5T10:35:14.000Z</time>
      </trkpt>
      <trkpt lat="44.52097" lon="0.7183">
        <ele>113.5</ele>
        <time>2014-7-5T10:35:14.000Z</time>
      </trkpt>
      <trkpt lat="44.52096" lon="0.71826">
        <ele>113.5</ele>
        <time>2014-7-5T10:35:14.000Z</time>
      </trkpt>
      <trkpt lat="44.52096" lon="0.71826">
        <ele>113.5</ele>
        <time>2014-7-5T10:35:14.000Z</time>
      </trkpt>
      <trkpt lat="44.52094" lon="0.71818">
        <ele>113.5</ele>
        <time>2014-7-5T10:35:14.000Z</time>
      </trkpt>
      <trkpt lat="44.52094" lon="0.71818">
        <ele>113.5</ele>
        <time>2014-7-5T10:35:14.000Z</time>
      </trkpt>
      <trkpt lat="44.52093" lon="0.71814">
        <ele>113.5</ele>
        <time>2014-7-5T10:35:14.000Z</time>
      </trkpt>
      <trkpt lat="44.52093" lon="0.71814">
        <ele>113.5</ele>
        <time>2014-7-5T10:35:14.000Z</time>
      </trkpt>
      <trkpt lat="44.52091" lon="0.7181">
        <ele>113.5</ele>
        <time>2014-7-5T10:35:14.000Z</time>
      </trkpt>
      <trkpt lat="44.52091" lon="0.7181">
        <ele>113.5</ele>
        <time>2014-7-5T10:35:14.000Z</time>
      </trkpt>
      <trkpt lat="44.5209" lon="0.71806">
        <ele>113.5</ele>
        <time>2014-7-5T10:35:14.000Z</time>
      </trkpt>
      <trkpt lat="44.5209" lon="0.71806">
        <ele>113.5</ele>
        <time>2014-7-5T10:35:14.000Z</time>
      </trkpt>
      <trkpt lat="44.52089" lon="0.71802">
        <ele>114.5</ele>
        <time>2014-7-5T10:35:14.000Z</time>
      </trkpt>
      <trkpt lat="44.52089" lon="0.71802">
        <ele>114.5</ele>
        <time>2014-7-5T10:35:14.000Z</time>
      </trkpt>
      <trkpt lat="44.52087" lon="0.71798">
        <ele>113.5</ele>
        <time>2014-7-5T10:35:14.000Z</time>
      </trkpt>
      <trkpt lat="44.52087" lon="0.71798">
        <ele>113.5</ele>
        <time>2014-7-5T10:35:14.000Z</time>
      </trkpt>
      <trkpt lat="44.52086" lon="0.71794">
        <ele>113.5</ele>
        <time>2014-7-5T10:35:14.000Z</time>
      </trkpt>
      <trkpt lat="44.52086" lon="0.71794">
        <ele>113.5</ele>
        <time>2014-7-5T10:35:14.000Z</time>
      </trkpt>
      <trkpt lat="44.52085" lon="0.7179">
        <ele>113.5</ele>
        <time>2014-7-5T10:35:14.000Z</time>
      </trkpt>
      <trkpt lat="44.52085" lon="0.7179">
        <ele>113.5</ele>
        <time>2014-7-5T10:35:14.000Z</time>
      </trkpt>
      <trkpt lat="44.52083" lon="0.71786">
        <ele>114.5</ele>
        <time>2014-7-5T10:35:14.000Z</time>
      </trkpt>
      <trkpt lat="44.52083" lon="0.71786">
        <ele>114.5</ele>
        <time>2014-7-5T10:35:14.000Z</time>
      </trkpt>
      <trkpt lat="44.52082" lon="0.71782">
        <ele>114.5</ele>
        <time>2014-7-5T10:35:14.000Z</time>
      </trkpt>
      <trkpt lat="44.52082" lon="0.71782">
        <ele>114.5</ele>
        <time>2014-7-5T10:35:14.000Z</time>
      </trkpt>
      <trkpt lat="44.5208" lon="0.71778">
        <ele>114.5</ele>
        <time>2014-7-5T10:35:14.000Z</time>
      </trkpt>
      <trkpt lat="44.5208" lon="0.71778">
        <ele>114.5</ele>
        <time>2014-7-5T10:35:14.000Z</time>
      </trkpt>
      <trkpt lat="44.52079" lon="0.71774">
        <ele>114.5</ele>
        <time>2014-7-5T10:35:14.000Z</time>
      </trkpt>
      <trkpt lat="44.52079" lon="0.71774">
        <ele>114.5</ele>
        <time>2014-7-5T10:35:14.000Z</time>
      </trkpt>
      <trkpt lat="44.52077" lon="0.71768">
        <ele>113.5</ele>
        <time>2014-7-5T10:35:14.000Z</time>
      </trkpt>
      <trkpt lat="44.52077" lon="0.71768">
        <ele>113.5</ele>
        <time>2014-7-5T10:35:14.000Z</time>
      </trkpt>
      <trkpt lat="44.52076" lon="0.71764">
        <ele>113.5</ele>
        <time>2014-7-5T10:35:14.000Z</time>
      </trkpt>
      <trkpt lat="44.52076" lon="0.71764">
        <ele>113.5</ele>
        <time>2014-7-5T10:35:14.000Z</time>
      </trkpt>
      <trkpt lat="44.52075" lon="0.71759">
        <ele>113.5</ele>
        <time>2014-7-5T10:35:14.000Z</time>
      </trkpt>
      <trkpt lat="44.52075" lon="0.71759">
        <ele>113.5</ele>
        <time>2014-7-5T10:35:14.000Z</time>
      </trkpt>
      <trkpt lat="44.52073" lon="0.71754">
        <ele>113.5</ele>
        <time>2014-7-5T10:35:14.000Z</time>
      </trkpt>
      <trkpt lat="44.52073" lon="0.71754">
        <ele>113.5</ele>
        <time>2014-7-5T10:36:5.000Z</time>
      </trkpt>
      <trkpt lat="44.52072" lon="0.7175">
        <ele>113.5</ele>
        <time>2014-7-5T10:36:5.000Z</time>
      </trkpt>
      <trkpt lat="44.52072" lon="0.7175">
        <ele>113.5</ele>
        <time>2014-7-5T10:36:5.000Z</time>
      </trkpt>
      <trkpt lat="44.52071" lon="0.71746">
        <ele>113.5</ele>
        <time>2014-7-5T10:36:5.000Z</time>
      </trkpt>
      <trkpt lat="44.52071" lon="0.71746">
        <ele>113.5</ele>
        <time>2014-7-5T10:36:5.000Z</time>
      </trkpt>
      <trkpt lat="44.52071" lon="0.71742">
        <ele>114.5</ele>
        <time>2014-7-5T10:36:5.000Z</time>
      </trkpt>
      <trkpt lat="44.52071" lon="0.71742">
        <ele>114.5</ele>
        <time>2014-7-5T10:36:5.000Z</time>
      </trkpt>
      <trkpt lat="44.5207" lon="0.71738">
        <ele>114.5</ele>
        <time>2014-7-5T10:36:5.000Z</time>
      </trkpt>
      <trkpt lat="44.5207" lon="0.71738">
        <ele>114.5</ele>
        <time>2014-7-5T10:36:5.000Z</time>
      </trkpt>
      <trkpt lat="44.5207" lon="0.71734">
        <ele>114.5</ele>
        <time>2014-7-5T10:36:5.000Z</time>
      </trkpt>
      <trkpt lat="44.5207" lon="0.71734">
        <ele>114.5</ele>
        <time>2014-7-5T10:36:5.000Z</time>
      </trkpt>
      <trkpt lat="44.52069" lon="0.7173">
        <ele>114.5</ele>
        <time>2014-7-5T10:36:5.000Z</time>
      </trkpt>
      <trkpt lat="44.52069" lon="0.7173">
        <ele>114.5</ele>
        <time>2014-7-5T10:36:5.000Z</time>
      </trkpt>
      <trkpt lat="44.52069" lon="0.71726">
        <ele>115.5</ele>
        <time>2014-7-5T10:36:5.000Z</time>
      </trkpt>
      <trkpt lat="44.52069" lon="0.71726">
        <ele>115.5</ele>
        <time>2014-7-5T10:36:5.000Z</time>
      </trkpt>
      <trkpt lat="44.52068" lon="0.71721">
        <ele>115.5</ele>
        <time>2014-7-5T10:36:5.000Z</time>
      </trkpt>
      <trkpt lat="44.52068" lon="0.71721">
        <ele>115.5</ele>
        <time>2014-7-5T10:36:5.000Z</time>
      </trkpt>
      <trkpt lat="44.52066" lon="0.71716">
        <ele>114.5</ele>
        <time>2014-7-5T10:36:5.000Z</time>
      </trkpt>
      <trkpt lat="44.52066" lon="0.71716">
        <ele>114.5</ele>
        <time>2014-7-5T10:36:5.000Z</time>
      </trkpt>
      <trkpt lat="44.52065" lon="0.71712">
        <ele>114.5</ele>
        <time>2014-7-5T10:36:5.000Z</time>
      </trkpt>
      <trkpt lat="44.52065" lon="0.71712">
        <ele>114.5</ele>
        <time>2014-7-5T10:36:5.000Z</time>
      </trkpt>
      <trkpt lat="44.52064" lon="0.71707">
        <ele>114.5</ele>
        <time>2014-7-5T10:36:5.000Z</time>
      </trkpt>
      <trkpt lat="44.52064" lon="0.71707">
        <ele>114.5</ele>
        <time>2014-7-5T10:36:5.000Z</time>
      </trkpt>
      <trkpt lat="44.52063" lon="0.71703">
        <ele>114.5</ele>
        <time>2014-7-5T10:36:5.000Z</time>
      </trkpt>
      <trkpt lat="44.52063" lon="0.71703">
        <ele>114.5</ele>
        <time>2014-7-5T10:36:5.000Z</time>
      </trkpt>
      <trkpt lat="44.52062" lon="0.71698">
        <ele>114.5</ele>
        <time>2014-7-5T10:36:5.000Z</time>
      </trkpt>
      <trkpt lat="44.52062" lon="0.71698">
        <ele>114.5</ele>
        <time>2014-7-5T10:36:5.000Z</time>
      </trkpt>
      <trkpt lat="44.52061" lon="0.71695">
        <ele>114.5</ele>
        <time>2014-7-5T10:36:5.000Z</time>
      </trkpt>
      <trkpt lat="44.52061" lon="0.71695">
        <ele>114.5</ele>
        <time>2014-7-5T10:36:5.000Z</time>
      </trkpt>
      <trkpt lat="44.52061" lon="0.71691">
        <ele>114.5</ele>
        <time>2014-7-5T10:36:5.000Z</time>
      </trkpt>
      <trkpt lat="44.52061" lon="0.71691">
        <ele>114.5</ele>
        <time>2014-7-5T10:36:5.000Z</time>
      </trkpt>
      <trkpt lat="44.5206" lon="0.71687">
        <ele>114.5</ele>
        <time>2014-7-5T10:36:5.000Z</time>
      </trkpt>
      <trkpt lat="44.5206" lon="0.71687">
        <ele>114.5</ele>
        <time>2014-7-5T10:36:5.000Z</time>
      </trkpt>
      <trkpt lat="44.52059" lon="0.71684">
        <ele>114.5</ele>
        <time>2014-7-5T10:36:5.000Z</time>
      </trkpt>
      <trkpt lat="44.52059" lon="0.71684">
        <ele>114.5</ele>
        <time>2014-7-5T10:36:5.000Z</time>
      </trkpt>
      <trkpt lat="44.52058" lon="0.7168">
        <ele>114.5</ele>
        <time>2014-7-5T10:36:5.000Z</time>
      </trkpt>
      <trkpt lat="44.52058" lon="0.7168">
        <ele>114.5</ele>
        <time>2014-7-5T10:36:5.000Z</time>
      </trkpt>
      <trkpt lat="44.52056" lon="0.71675">
        <ele>113.5</ele>
        <time>2014-7-5T10:36:5.000Z</time>
      </trkpt>
      <trkpt lat="44.52056" lon="0.71675">
        <ele>113.5</ele>
        <time>2014-7-5T10:36:5.000Z</time>
      </trkpt>
      <trkpt lat="44.52054" lon="0.71671">
        <ele>114.5</ele>
        <time>2014-7-5T10:36:5.000Z</time>
      </trkpt>
      <trkpt lat="44.52054" lon="0.71671">
        <ele>114.5</ele>
        <time>2014-7-5T10:36:5.000Z</time>
      </trkpt>
      <trkpt lat="44.52052" lon="0.71666">
        <ele>113.5</ele>
        <time>2014-7-5T10:36:5.000Z</time>
      </trkpt>
      <trkpt lat="44.52052" lon="0.71666">
        <ele>113.5</ele>
        <time>2014-7-5T10:36:5.000Z</time>
      </trkpt>
      <trkpt lat="44.52051" lon="0.71662">
        <ele>113.5</ele>
        <time>2014-7-5T10:36:5.000Z</time>
      </trkpt>
      <trkpt lat="44.52051" lon="0.71662">
        <ele>113.5</ele>
        <time>2014-7-5T10:36:5.000Z</time>
      </trkpt>
      <trkpt lat="44.52049" lon="0.71658">
        <ele>113.5</ele>
        <time>2014-7-5T10:36:5.000Z</time>
      </trkpt>
      <trkpt lat="44.52049" lon="0.71658">
        <ele>113.5</ele>
        <time>2014-7-5T10:36:5.000Z</time>
      </trkpt>
      <trkpt lat="44.52046" lon="0.71653">
        <ele>113.5</ele>
        <time>2014-7-5T10:36:5.000Z</time>
      </trkpt>
      <trkpt lat="44.52046" lon="0.71653">
        <ele>113.5</ele>
        <time>2014-7-5T10:36:5.000Z</time>
      </trkpt>
      <trkpt lat="44.52044" lon="0.7165">
        <ele>113.5</ele>
        <time>2014-7-5T10:36:5.000Z</time>
      </trkpt>
      <trkpt lat="44.52044" lon="0.7165">
        <ele>113.5</ele>
        <time>2014-7-5T10:36:5.000Z</time>
      </trkpt>
      <trkpt lat="44.52042" lon="0.71647">
        <ele>113.5</ele>
        <time>2014-7-5T10:36:5.000Z</time>
      </trkpt>
      <trkpt lat="44.52042" lon="0.71647">
        <ele>113.5</ele>
        <time>2014-7-5T10:36:5.000Z</time>
      </trkpt>
      <trkpt lat="44.5204" lon="0.71643">
        <ele>113.5</ele>
        <time>2014-7-5T10:36:5.000Z</time>
      </trkpt>
      <trkpt lat="44.5204" lon="0.71643">
        <ele>113.5</ele>
        <time>2014-7-5T10:36:5.000Z</time>
      </trkpt>
      <trkpt lat="44.52037" lon="0.7164">
        <ele>113.5</ele>
        <time>2014-7-5T10:36:5.000Z</time>
      </trkpt>
      <trkpt lat="44.52037" lon="0.7164">
        <ele>113.5</ele>
        <time>2014-7-5T10:36:5.000Z</time>
      </trkpt>
      <trkpt lat="44.52035" lon="0.71636">
        <ele>113.5</ele>
        <time>2014-7-5T10:36:5.000Z</time>
      </trkpt>
      <trkpt lat="44.52035" lon="0.71636">
        <ele>113.5</ele>
        <time>2014-7-5T10:36:5.000Z</time>
      </trkpt>
      <trkpt lat="44.52033" lon="0.71633">
        <ele>113.5</ele>
        <time>2014-7-5T10:36:5.000Z</time>
      </trkpt>
      <trkpt lat="44.52033" lon="0.71633">
        <ele>113.5</ele>
        <time>2014-7-5T10:36:5.000Z</time>
      </trkpt>
      <trkpt lat="44.5203" lon="0.71629">
        <ele>113.5</ele>
        <time>2014-7-5T10:36:5.000Z</time>
      </trkpt>
      <trkpt lat="44.5203" lon="0.71629">
        <ele>113.5</ele>
        <time>2014-7-5T10:36:5.000Z</time>
      </trkpt>
      <trkpt lat="44.52028" lon="0.71625">
        <ele>113.5</ele>
        <time>2014-7-5T10:36:5.000Z</time>
      </trkpt>
      <trkpt lat="44.52028" lon="0.71625">
        <ele>113.5</ele>
        <time>2014-7-5T10:36:5.000Z</time>
      </trkpt>
      <trkpt lat="44.52026" lon="0.71621">
        <ele>113.5</ele>
        <time>2014-7-5T10:36:5.000Z</time>
      </trkpt>
      <trkpt lat="44.52026" lon="0.71621">
        <ele>113.5</ele>
        <time>2014-7-5T10:36:5.000Z</time>
      </trkpt>
      <trkpt lat="44.52023" lon="0.71618">
        <ele>113.5</ele>
        <time>2014-7-5T10:36:5.000Z</time>
      </trkpt>
      <trkpt lat="44.52023" lon="0.71618">
        <ele>113.5</ele>
        <time>2014-7-5T10:36:5.000Z</time>
      </trkpt>
      <trkpt lat="44.5202" lon="0.71614">
        <ele>113.5</ele>
        <time>2014-7-5T10:36:5.000Z</time>
      </trkpt>
      <trkpt lat="44.5202" lon="0.71614">
        <ele>113.5</ele>
        <time>2014-7-5T10:36:5.000Z</time>
      </trkpt>
      <trkpt lat="44.52018" lon="0.71611">
        <ele>114.5</ele>
        <time>2014-7-5T10:36:5.000Z</time>
      </trkpt>
      <trkpt lat="44.52018" lon="0.71611">
        <ele>114.5</ele>
        <time>2014-7-5T10:36:5.000Z</time>
      </trkpt>
      <trkpt lat="44.52015" lon="0.71607">
        <ele>114.5</ele>
        <time>2014-7-5T10:36:5.000Z</time>
      </trkpt>
      <trkpt lat="44.52015" lon="0.71607">
        <ele>114.5</ele>
        <time>2014-7-5T10:36:5.000Z</time>
      </trkpt>
      <trkpt lat="44.52013" lon="0.71603">
        <ele>113.5</ele>
        <time>2014-7-5T10:36:5.000Z</time>
      </trkpt>
      <trkpt lat="44.52013" lon="0.71603">
        <ele>113.5</ele>
        <time>2014-7-5T10:36:5.000Z</time>
      </trkpt>
      <trkpt lat="44.52011" lon="0.71599">
        <ele>114.5</ele>
        <time>2014-7-5T10:36:5.000Z</time>
      </trkpt>
      <trkpt lat="44.52011" lon="0.71599">
        <ele>114.5</ele>
        <time>2014-7-5T10:36:5.000Z</time>
      </trkpt>
      <trkpt lat="44.52008" lon="0.71595">
        <ele>114.5</ele>
        <time>2014-7-5T10:36:5.000Z</time>
      </trkpt>
      <trkpt lat="44.52008" lon="0.71595">
        <ele>114.5</ele>
        <time>2014-7-5T10:36:5.000Z</time>
      </trkpt>
      <trkpt lat="44.52006" lon="0.71591">
        <ele>114.5</ele>
        <time>2014-7-5T10:36:5.000Z</time>
      </trkpt>
      <trkpt lat="44.52006" lon="0.71591">
        <ele>114.5</ele>
        <time>2014-7-5T10:36:5.000Z</time>
      </trkpt>
      <trkpt lat="44.52004" lon="0.71587">
        <ele>114.5</ele>
        <time>2014-7-5T10:36:5.000Z</time>
      </trkpt>
      <trkpt lat="44.52004" lon="0.71587">
        <ele>114.5</ele>
        <time>2014-7-5T10:36:5.000Z</time>
      </trkpt>
      <trkpt lat="44.52002" lon="0.71583">
        <ele>115.5</ele>
        <time>2014-7-5T10:36:5.000Z</time>
      </trkpt>
      <trkpt lat="44.52002" lon="0.71583">
        <ele>115.5</ele>
        <time>2014-7-5T10:36:5.000Z</time>
      </trkpt>
      <trkpt lat="44.52" lon="0.71579">
        <ele>115.5</ele>
        <time>2014-7-5T10:36:5.000Z</time>
      </trkpt>
      <trkpt lat="44.52" lon="0.71579">
        <ele>115.5</ele>
        <time>2014-7-5T10:36:5.000Z</time>
      </trkpt>
      <trkpt lat="44.51998" lon="0.71574">
        <ele>115.5</ele>
        <time>2014-7-5T10:36:5.000Z</time>
      </trkpt>
      <trkpt lat="44.51998" lon="0.71574">
        <ele>115.5</ele>
        <time>2014-7-5T10:36:5.000Z</time>
      </trkpt>
      <trkpt lat="44.51996" lon="0.71571">
        <ele>116.5</ele>
        <time>2014-7-5T10:36:5.000Z</time>
      </trkpt>
      <trkpt lat="44.51996" lon="0.71571">
        <ele>116.5</ele>
        <time>2014-7-5T10:36:5.000Z</time>
      </trkpt>
      <trkpt lat="44.51994" lon="0.71566">
        <ele>116.5</ele>
        <time>2014-7-5T10:36:5.000Z</time>
      </trkpt>
      <trkpt lat="44.51994" lon="0.71566">
        <ele>116.5</ele>
        <time>2014-7-5T10:36:5.000Z</time>
      </trkpt>
      <trkpt lat="44.51992" lon="0.71562">
        <ele>116.5</ele>
        <time>2014-7-5T10:36:5.000Z</time>
      </trkpt>
      <trkpt lat="44.51992" lon="0.71562">
        <ele>116.5</ele>
        <time>2014-7-5T10:36:5.000Z</time>
      </trkpt>
      <trkpt lat="44.5199" lon="0.71558">
        <ele>116.5</ele>
        <time>2014-7-5T10:36:5.000Z</time>
      </trkpt>
      <trkpt lat="44.5199" lon="0.71558">
        <ele>116.5</ele>
        <time>2014-7-5T10:36:5.000Z</time>
      </trkpt>
      <trkpt lat="44.51988" lon="0.71554">
        <ele>117.5</ele>
        <time>2014-7-5T10:36:5.000Z</time>
      </trkpt>
      <trkpt lat="44.51988" lon="0.71554">
        <ele>117.5</ele>
        <time>2014-7-5T10:36:5.000Z</time>
      </trkpt>
      <trkpt lat="44.51986" lon="0.7155">
        <ele>117.5</ele>
        <time>2014-7-5T10:36:57.000Z</time>
      </trkpt>
      <trkpt lat="44.51986" lon="0.7155">
        <ele>117.5</ele>
        <time>2014-7-5T10:36:57.000Z</time>
      </trkpt>
      <trkpt lat="44.51984" lon="0.71546">
        <ele>116.5</ele>
        <time>2014-7-5T10:36:57.000Z</time>
      </trkpt>
      <trkpt lat="44.51984" lon="0.71546">
        <ele>116.5</ele>
        <time>2014-7-5T10:36:57.000Z</time>
      </trkpt>
      <trkpt lat="44.51983" lon="0.71541">
        <ele>117.5</ele>
        <time>2014-7-5T10:36:57.000Z</time>
      </trkpt>
      <trkpt lat="44.51983" lon="0.71541">
        <ele>117.5</ele>
        <time>2014-7-5T10:36:57.000Z</time>
      </trkpt>
      <trkpt lat="44.51981" lon="0.71537">
        <ele>117.5</ele>
        <time>2014-7-5T10:36:57.000Z</time>
      </trkpt>
      <trkpt lat="44.51981" lon="0.71537">
        <ele>117.5</ele>
        <time>2014-7-5T10:36:57.000Z</time>
      </trkpt>
      <trkpt lat="44.5198" lon="0.71533">
        <ele>117.5</ele>
        <time>2014-7-5T10:36:57.000Z</time>
      </trkpt>
      <trkpt lat="44.5198" lon="0.71533">
        <ele>117.5</ele>
        <time>2014-7-5T10:36:57.000Z</time>
      </trkpt>
      <trkpt lat="44.51979" lon="0.71529">
        <ele>117.5</ele>
        <time>2014-7-5T10:36:57.000Z</time>
      </trkpt>
      <trkpt lat="44.51979" lon="0.71529">
        <ele>117.5</ele>
        <time>2014-7-5T10:36:57.000Z</time>
      </trkpt>
      <trkpt lat="44.51978" lon="0.71525">
        <ele>117.5</ele>
        <time>2014-7-5T10:36:57.000Z</time>
      </trkpt>
      <trkpt lat="44.51978" lon="0.71525">
        <ele>117.5</ele>
        <time>2014-7-5T10:36:57.000Z</time>
      </trkpt>
      <trkpt lat="44.51977" lon="0.71521">
        <ele>117.5</ele>
        <time>2014-7-5T10:36:57.000Z</time>
      </trkpt>
      <trkpt lat="44.51977" lon="0.71521">
        <ele>117.5</ele>
        <time>2014-7-5T10:36:57.000Z</time>
      </trkpt>
      <trkpt lat="44.51976" lon="0.71517">
        <ele>118.5</ele>
        <time>2014-7-5T10:36:57.000Z</time>
      </trkpt>
      <trkpt lat="44.51976" lon="0.71517">
        <ele>118.5</ele>
        <time>2014-7-5T10:36:57.000Z</time>
      </trkpt>
      <trkpt lat="44.51975" lon="0.71513">
        <ele>118.5</ele>
        <time>2014-7-5T10:36:57.000Z</time>
      </trkpt>
      <trkpt lat="44.51975" lon="0.71513">
        <ele>118.5</ele>
        <time>2014-7-5T10:36:57.000Z</time>
      </trkpt>
      <trkpt lat="44.51974" lon="0.71509">
        <ele>117.5</ele>
        <time>2014-7-5T10:36:57.000Z</time>
      </trkpt>
      <trkpt lat="44.51974" lon="0.71509">
        <ele>117.5</ele>
        <time>2014-7-5T10:36:57.000Z</time>
      </trkpt>
      <trkpt lat="44.51974" lon="0.71505">
        <ele>118.5</ele>
        <time>2014-7-5T10:36:57.000Z</time>
      </trkpt>
      <trkpt lat="44.51974" lon="0.71505">
        <ele>118.5</ele>
        <time>2014-7-5T10:36:57.000Z</time>
      </trkpt>
      <trkpt lat="44.51973" lon="0.71501">
        <ele>118.5</ele>
        <time>2014-7-5T10:36:57.000Z</time>
      </trkpt>
      <trkpt lat="44.51973" lon="0.71501">
        <ele>118.5</ele>
        <time>2014-7-5T10:36:57.000Z</time>
      </trkpt>
      <trkpt lat="44.51972" lon="0.71497">
        <ele>118.5</ele>
        <time>2014-7-5T10:36:57.000Z</time>
      </trkpt>
      <trkpt lat="44.51972" lon="0.71497">
        <ele>118.5</ele>
        <time>2014-7-5T10:36:57.000Z</time>
      </trkpt>
      <trkpt lat="44.51971" lon="0.71493">
        <ele>118.5</ele>
        <time>2014-7-5T10:36:57.000Z</time>
      </trkpt>
      <trkpt lat="44.51971" lon="0.71493">
        <ele>118.5</ele>
        <time>2014-7-5T10:36:57.000Z</time>
      </trkpt>
      <trkpt lat="44.51971" lon="0.71489">
        <ele>119.5</ele>
        <time>2014-7-5T10:36:57.000Z</time>
      </trkpt>
      <trkpt lat="44.51971" lon="0.71489">
        <ele>119.5</ele>
        <time>2014-7-5T10:36:57.000Z</time>
      </trkpt>
      <trkpt lat="44.5197" lon="0.71485">
        <ele>119.5</ele>
        <time>2014-7-5T10:36:57.000Z</time>
      </trkpt>
      <trkpt lat="44.5197" lon="0.71485">
        <ele>119.5</ele>
        <time>2014-7-5T10:36:57.000Z</time>
      </trkpt>
      <trkpt lat="44.51969" lon="0.71482">
        <ele>119.5</ele>
        <time>2014-7-5T10:36:57.000Z</time>
      </trkpt>
      <trkpt lat="44.51969" lon="0.71482">
        <ele>119.5</ele>
        <time>2014-7-5T10:36:57.000Z</time>
      </trkpt>
      <trkpt lat="44.51968" lon="0.7148">
        <ele>119.5</ele>
        <time>2014-7-5T10:36:57.000Z</time>
      </trkpt>
      <trkpt lat="44.51968" lon="0.7148">
        <ele>119.5</ele>
        <time>2014-7-5T10:36:57.000Z</time>
      </trkpt>
      <trkpt lat="44.51967" lon="0.71475">
        <ele>120.5</ele>
        <time>2014-7-5T10:36:57.000Z</time>
      </trkpt>
      <trkpt lat="44.51967" lon="0.71475">
        <ele>120.5</ele>
        <time>2014-7-5T10:36:57.000Z</time>
      </trkpt>
      <trkpt lat="44.51967" lon="0.71472">
        <ele>120.5</ele>
        <time>2014-7-5T10:36:57.000Z</time>
      </trkpt>
      <trkpt lat="44.51967" lon="0.71472">
        <ele>120.5</ele>
        <time>2014-7-5T10:36:57.000Z</time>
      </trkpt>
      <trkpt lat="44.51967" lon="0.71469">
        <ele>120.5</ele>
        <time>2014-7-5T10:36:57.000Z</time>
      </trkpt>
      <trkpt lat="44.51967" lon="0.71469">
        <ele>120.5</ele>
        <time>2014-7-5T10:36:57.000Z</time>
      </trkpt>
      <trkpt lat="44.51966" lon="0.71466">
        <ele>120.5</ele>
        <time>2014-7-5T10:36:57.000Z</time>
      </trkpt>
      <trkpt lat="44.51966" lon="0.71466">
        <ele>120.5</ele>
        <time>2014-7-5T10:36:57.000Z</time>
      </trkpt>
      <trkpt lat="44.51964" lon="0.71464">
        <ele>120.5</ele>
        <time>2014-7-5T10:36:57.000Z</time>
      </trkpt>
      <trkpt lat="44.51964" lon="0.71464">
        <ele>120.5</ele>
        <time>2014-7-5T10:36:57.000Z</time>
      </trkpt>
      <trkpt lat="44.51963" lon="0.7146">
        <ele>120.5</ele>
        <time>2014-7-5T10:36:57.000Z</time>
      </trkpt>
      <trkpt lat="44.51963" lon="0.7146">
        <ele>120.5</ele>
        <time>2014-7-5T10:36:57.000Z</time>
      </trkpt>
      <trkpt lat="44.51962" lon="0.71457">
        <ele>121.5</ele>
        <time>2014-7-5T10:36:57.000Z</time>
      </trkpt>
      <trkpt lat="44.51962" lon="0.71457">
        <ele>121.5</ele>
        <time>2014-7-5T10:36:57.000Z</time>
      </trkpt>
      <trkpt lat="44.51962" lon="0.71454">
        <ele>121.5</ele>
        <time>2014-7-5T10:36:57.000Z</time>
      </trkpt>
      <trkpt lat="44.51962" lon="0.71454">
        <ele>121.5</ele>
        <time>2014-7-5T10:36:57.000Z</time>
      </trkpt>
      <trkpt lat="44.51962" lon="0.7145">
        <ele>121.5</ele>
        <time>2014-7-5T10:36:57.000Z</time>
      </trkpt>
      <trkpt lat="44.51962" lon="0.7145">
        <ele>121.5</ele>
        <time>2014-7-5T10:36:57.000Z</time>
      </trkpt>
      <trkpt lat="44.51961" lon="0.71447">
        <ele>121.5</ele>
        <time>2014-7-5T10:36:57.000Z</time>
      </trkpt>
      <trkpt lat="44.51961" lon="0.71447">
        <ele>121.5</ele>
        <time>2014-7-5T10:36:57.000Z</time>
      </trkpt>
      <trkpt lat="44.51961" lon="0.71444">
        <ele>122.5</ele>
        <time>2014-7-5T10:36:57.000Z</time>
      </trkpt>
      <trkpt lat="44.51961" lon="0.71444">
        <ele>122.5</ele>
        <time>2014-7-5T10:36:57.000Z</time>
      </trkpt>
      <trkpt lat="44.51961" lon="0.7144">
        <ele>122.5</ele>
        <time>2014-7-5T10:36:57.000Z</time>
      </trkpt>
      <trkpt lat="44.51961" lon="0.7144">
        <ele>122.5</ele>
        <time>2014-7-5T10:36:57.000Z</time>
      </trkpt>
      <trkpt lat="44.51961" lon="0.71437">
        <ele>122.5</ele>
        <time>2014-7-5T10:36:57.000Z</time>
      </trkpt>
      <trkpt lat="44.51961" lon="0.71437">
        <ele>122.5</ele>
        <time>2014-7-5T10:36:57.000Z</time>
      </trkpt>
      <trkpt lat="44.5196" lon="0.71434">
        <ele>122.5</ele>
        <time>2014-7-5T10:36:57.000Z</time>
      </trkpt>
      <trkpt lat="44.5196" lon="0.71434">
        <ele>122.5</ele>
        <time>2014-7-5T10:36:57.000Z</time>
      </trkpt>
      <trkpt lat="44.51959" lon="0.71431">
        <ele>122.5</ele>
        <time>2014-7-5T10:36:57.000Z</time>
      </trkpt>
      <trkpt lat="44.51959" lon="0.71431">
        <ele>122.5</ele>
        <time>2014-7-5T10:36:57.000Z</time>
      </trkpt>
      <trkpt lat="44.51958" lon="0.71428">
        <ele>122.5</ele>
        <time>2014-7-5T10:36:57.000Z</time>
      </trkpt>
      <trkpt lat="44.51958" lon="0.71428">
        <ele>122.5</ele>
        <time>2014-7-5T10:36:57.000Z</time>
      </trkpt>
      <trkpt lat="44.51957" lon="0.71425">
        <ele>122.5</ele>
        <time>2014-7-5T10:36:57.000Z</time>
      </trkpt>
      <trkpt lat="44.51957" lon="0.71425">
        <ele>122.5</ele>
        <time>2014-7-5T10:36:57.000Z</time>
      </trkpt>
      <trkpt lat="44.51957" lon="0.71422">
        <ele>122.5</ele>
        <time>2014-7-5T10:36:57.000Z</time>
      </trkpt>
      <trkpt lat="44.51957" lon="0.71422">
        <ele>122.5</ele>
        <time>2014-7-5T10:36:57.000Z</time>
      </trkpt>
      <trkpt lat="44.51956" lon="0.71419">
        <ele>123.5</ele>
        <time>2014-7-5T10:36:57.000Z</time>
      </trkpt>
      <trkpt lat="44.51956" lon="0.71419">
        <ele>123.5</ele>
        <time>2014-7-5T10:36:57.000Z</time>
      </trkpt>
      <trkpt lat="44.51955" lon="0.71416">
        <ele>123.5</ele>
        <time>2014-7-5T10:36:57.000Z</time>
      </trkpt>
      <trkpt lat="44.51955" lon="0.71416">
        <ele>123.5</ele>
        <time>2014-7-5T10:36:57.000Z</time>
      </trkpt>
      <trkpt lat="44.51955" lon="0.71413">
        <ele>122.5</ele>
        <time>2014-7-5T10:36:57.000Z</time>
      </trkpt>
      <trkpt lat="44.51955" lon="0.71413">
        <ele>122.5</ele>
        <time>2014-7-5T10:36:57.000Z</time>
      </trkpt>
      <trkpt lat="44.51955" lon="0.7141">
        <ele>122.5</ele>
        <time>2014-7-5T10:36:57.000Z</time>
      </trkpt>
      <trkpt lat="44.51955" lon="0.7141">
        <ele>122.5</ele>
        <time>2014-7-5T10:36:57.000Z</time>
      </trkpt>
      <trkpt lat="44.51955" lon="0.71407">
        <ele>122.5</ele>
        <time>2014-7-5T10:36:57.000Z</time>
      </trkpt>
      <trkpt lat="44.51955" lon="0.71407">
        <ele>122.5</ele>
        <time>2014-7-5T10:36:57.000Z</time>
      </trkpt>
      <trkpt lat="44.51954" lon="0.71404">
        <ele>123.5</ele>
        <time>2014-7-5T10:36:57.000Z</time>
      </trkpt>
      <trkpt lat="44.51954" lon="0.71404">
        <ele>123.5</ele>
        <time>2014-7-5T10:36:57.000Z</time>
      </trkpt>
      <trkpt lat="44.51953" lon="0.71401">
        <ele>123.5</ele>
        <time>2014-7-5T10:36:57.000Z</time>
      </trkpt>
      <trkpt lat="44.51953" lon="0.71401">
        <ele>123.5</ele>
        <time>2014-7-5T10:36:57.000Z</time>
      </trkpt>
      <trkpt lat="44.51952" lon="0.71398">
        <ele>123.5</ele>
        <time>2014-7-5T10:36:57.000Z</time>
      </trkpt>
      <trkpt lat="44.51952" lon="0.71398">
        <ele>123.5</ele>
        <time>2014-7-5T10:36:57.000Z</time>
      </trkpt>
      <trkpt lat="44.51952" lon="0.71395">
        <ele>123.5</ele>
        <time>2014-7-5T10:36:57.000Z</time>
      </trkpt>
      <trkpt lat="44.51952" lon="0.71395">
        <ele>123.5</ele>
        <time>2014-7-5T10:36:57.000Z</time>
      </trkpt>
      <trkpt lat="44.51951" lon="0.71392">
        <ele>123.5</ele>
        <time>2014-7-5T10:36:57.000Z</time>
      </trkpt>
      <trkpt lat="44.51951" lon="0.71392">
        <ele>123.5</ele>
        <time>2014-7-5T10:36:57.000Z</time>
      </trkpt>
      <trkpt lat="44.51951" lon="0.71388">
        <ele>123.5</ele>
        <time>2014-7-5T10:36:57.000Z</time>
      </trkpt>
      <trkpt lat="44.51951" lon="0.71388">
        <ele>123.5</ele>
        <time>2014-7-5T10:36:57.000Z</time>
      </trkpt>
      <trkpt lat="44.51951" lon="0.71385">
        <ele>123.5</ele>
        <time>2014-7-5T10:36:57.000Z</time>
      </trkpt>
      <trkpt lat="44.51951" lon="0.71385">
        <ele>123.5</ele>
        <time>2014-7-5T10:36:57.000Z</time>
      </trkpt>
      <trkpt lat="44.51951" lon="0.71382">
        <ele>124.5</ele>
        <time>2014-7-5T10:36:57.000Z</time>
      </trkpt>
      <trkpt lat="44.51951" lon="0.71382">
        <ele>124.5</ele>
        <time>2014-7-5T10:36:57.000Z</time>
      </trkpt>
      <trkpt lat="44.51951" lon="0.71379">
        <ele>124.5</ele>
        <time>2014-7-5T10:36:57.000Z</time>
      </trkpt>
      <trkpt lat="44.51951" lon="0.71379">
        <ele>124.5</ele>
        <time>2014-7-5T10:38:18.000Z</time>
      </trkpt>
      <trkpt lat="44.5195" lon="0.71376">
        <ele>125.5</ele>
        <time>2014-7-5T10:38:18.000Z</time>
      </trkpt>
      <trkpt lat="44.5195" lon="0.71376">
        <ele>125.5</ele>
        <time>2014-7-5T10:38:18.000Z</time>
      </trkpt>
      <trkpt lat="44.51949" lon="0.71373">
        <ele>125.5</ele>
        <time>2014-7-5T10:38:18.000Z</time>
      </trkpt>
      <trkpt lat="44.51949" lon="0.71373">
        <ele>125.5</ele>
        <time>2014-7-5T10:38:18.000Z</time>
      </trkpt>
      <trkpt lat="44.51949" lon="0.7137">
        <ele>125.5</ele>
        <time>2014-7-5T10:38:18.000Z</time>
      </trkpt>
      <trkpt lat="44.51949" lon="0.7137">
        <ele>125.5</ele>
        <time>2014-7-5T10:38:18.000Z</time>
      </trkpt>
      <trkpt lat="44.51949" lon="0.71368">
        <ele>125.5</ele>
        <time>2014-7-5T10:38:18.000Z</time>
      </trkpt>
      <trkpt lat="44.51949" lon="0.71368">
        <ele>125.5</ele>
        <time>2014-7-5T10:38:18.000Z</time>
      </trkpt>
      <trkpt lat="44.51948" lon="0.71365">
        <ele>126.5</ele>
        <time>2014-7-5T10:38:18.000Z</time>
      </trkpt>
      <trkpt lat="44.51948" lon="0.71365">
        <ele>126.5</ele>
        <time>2014-7-5T10:38:18.000Z</time>
      </trkpt>
      <trkpt lat="44.51947" lon="0.71361">
        <ele>126.5</ele>
        <time>2014-7-5T10:38:18.000Z</time>
      </trkpt>
      <trkpt lat="44.51947" lon="0.71361">
        <ele>126.5</ele>
        <time>2014-7-5T10:38:18.000Z</time>
      </trkpt>
      <trkpt lat="44.51946" lon="0.71355">
        <ele>126.5</ele>
        <time>2014-7-5T10:38:18.000Z</time>
      </trkpt>
      <trkpt lat="44.51946" lon="0.71355">
        <ele>126.5</ele>
        <time>2014-7-5T10:38:18.000Z</time>
      </trkpt>
      <trkpt lat="44.51946" lon="0.71353">
        <ele>126.5</ele>
        <time>2014-7-5T10:38:18.000Z</time>
      </trkpt>
      <trkpt lat="44.51946" lon="0.71353">
        <ele>126.5</ele>
        <time>2014-7-5T10:38:18.000Z</time>
      </trkpt>
      <trkpt lat="44.51945" lon="0.7135">
        <ele>127.5</ele>
        <time>2014-7-5T10:38:18.000Z</time>
      </trkpt>
      <trkpt lat="44.51945" lon="0.7135">
        <ele>127.5</ele>
        <time>2014-7-5T10:38:18.000Z</time>
      </trkpt>
      <trkpt lat="44.51945" lon="0.71348">
        <ele>127.5</ele>
        <time>2014-7-5T10:38:18.000Z</time>
      </trkpt>
      <trkpt lat="44.51945" lon="0.71348">
        <ele>127.5</ele>
        <time>2014-7-5T10:38:18.000Z</time>
      </trkpt>
      <trkpt lat="44.51944" lon="0.71343">
        <ele>128.5</ele>
        <time>2014-7-5T10:38:18.000Z</time>
      </trkpt>
      <trkpt lat="44.51944" lon="0.71343">
        <ele>128.5</ele>
        <time>2014-7-5T10:38:18.000Z</time>
      </trkpt>
      <trkpt lat="44.51943" lon="0.71338">
        <ele>128.5</ele>
        <time>2014-7-5T10:38:18.000Z</time>
      </trkpt>
      <trkpt lat="44.51943" lon="0.71338">
        <ele>128.5</ele>
        <time>2014-7-5T10:38:18.000Z</time>
      </trkpt>
      <trkpt lat="44.51942" lon="0.71335">
        <ele>128.5</ele>
        <time>2014-7-5T10:38:18.000Z</time>
      </trkpt>
      <trkpt lat="44.51942" lon="0.71335">
        <ele>128.5</ele>
        <time>2014-7-5T10:38:18.000Z</time>
      </trkpt>
      <trkpt lat="44.51942" lon="0.71332">
        <ele>127.5</ele>
        <time>2014-7-5T10:38:18.000Z</time>
      </trkpt>
      <trkpt lat="44.51942" lon="0.71332">
        <ele>127.5</ele>
        <time>2014-7-5T10:38:18.000Z</time>
      </trkpt>
      <trkpt lat="44.51942" lon="0.7133">
        <ele>128.5</ele>
        <time>2014-7-5T10:38:18.000Z</time>
      </trkpt>
      <trkpt lat="44.51942" lon="0.7133">
        <ele>128.5</ele>
        <time>2014-7-5T10:38:18.000Z</time>
      </trkpt>
      <trkpt lat="44.51942" lon="0.71327">
        <ele>128.5</ele>
        <time>2014-7-5T10:38:18.000Z</time>
      </trkpt>
      <trkpt lat="44.51942" lon="0.71327">
        <ele>128.5</ele>
        <time>2014-7-5T10:38:18.000Z</time>
      </trkpt>
      <trkpt lat="44.51942" lon="0.71324">
        <ele>128.5</ele>
        <time>2014-7-5T10:38:18.000Z</time>
      </trkpt>
      <trkpt lat="44.51942" lon="0.71324">
        <ele>128.5</ele>
        <time>2014-7-5T10:38:18.000Z</time>
      </trkpt>
      <trkpt lat="44.51941" lon="0.71321">
        <ele>128.5</ele>
        <time>2014-7-5T10:38:18.000Z</time>
      </trkpt>
      <trkpt lat="44.51941" lon="0.71321">
        <ele>128.5</ele>
        <time>2014-7-5T10:38:18.000Z</time>
      </trkpt>
      <trkpt lat="44.5194" lon="0.71316">
        <ele>129.5</ele>
        <time>2014-7-5T10:38:18.000Z</time>
      </trkpt>
      <trkpt lat="44.5194" lon="0.71316">
        <ele>129.5</ele>
        <time>2014-7-5T10:38:18.000Z</time>
      </trkpt>
      <trkpt lat="44.5194" lon="0.71313">
        <ele>129.5</ele>
        <time>2014-7-5T10:38:18.000Z</time>
      </trkpt>
      <trkpt lat="44.5194" lon="0.71313">
        <ele>129.5</ele>
        <time>2014-7-5T10:38:18.000Z</time>
      </trkpt>
      <trkpt lat="44.51939" lon="0.71308">
        <ele>129.5</ele>
        <time>2014-7-5T10:38:18.000Z</time>
      </trkpt>
      <trkpt lat="44.51939" lon="0.71308">
        <ele>129.5</ele>
        <time>2014-7-5T10:38:18.000Z</time>
      </trkpt>
      <trkpt lat="44.51938" lon="0.71305">
        <ele>129.5</ele>
        <time>2014-7-5T10:38:18.000Z</time>
      </trkpt>
      <trkpt lat="44.51938" lon="0.71305">
        <ele>129.5</ele>
        <time>2014-7-5T10:38:18.000Z</time>
      </trkpt>
      <trkpt lat="44.51938" lon="0.71301">
        <ele>129.5</ele>
        <time>2014-7-5T10:38:18.000Z</time>
      </trkpt>
      <trkpt lat="44.51938" lon="0.71301">
        <ele>129.5</ele>
        <time>2014-7-5T10:38:18.000Z</time>
      </trkpt>
      <trkpt lat="44.51937" lon="0.71296">
        <ele>130.5</ele>
        <time>2014-7-5T10:38:18.000Z</time>
      </trkpt>
      <trkpt lat="44.51937" lon="0.71296">
        <ele>130.5</ele>
        <time>2014-7-5T10:38:18.000Z</time>
      </trkpt>
      <trkpt lat="44.51936" lon="0.71292">
        <ele>130.5</ele>
        <time>2014-7-5T10:38:18.000Z</time>
      </trkpt>
      <trkpt lat="44.51936" lon="0.71292">
        <ele>130.5</ele>
        <time>2014-7-5T10:38:18.000Z</time>
      </trkpt>
      <trkpt lat="44.51935" lon="0.71288">
        <ele>130.5</ele>
        <time>2014-7-5T10:38:18.000Z</time>
      </trkpt>
      <trkpt lat="44.51935" lon="0.71288">
        <ele>130.5</ele>
        <time>2014-7-5T10:38:18.000Z</time>
      </trkpt>
      <trkpt lat="44.51934" lon="0.71284">
        <ele>130.5</ele>
        <time>2014-7-5T10:38:18.000Z</time>
      </trkpt>
      <trkpt lat="44.51934" lon="0.71284">
        <ele>130.5</ele>
        <time>2014-7-5T10:38:18.000Z</time>
      </trkpt>
      <trkpt lat="44.51934" lon="0.7128">
        <ele>131.5</ele>
        <time>2014-7-5T10:38:18.000Z</time>
      </trkpt>
      <trkpt lat="44.51934" lon="0.7128">
        <ele>131.5</ele>
        <time>2014-7-5T10:38:18.000Z</time>
      </trkpt>
      <trkpt lat="44.51933" lon="0.71275">
        <ele>132.5</ele>
        <time>2014-7-5T10:38:18.000Z</time>
      </trkpt>
      <trkpt lat="44.51933" lon="0.71275">
        <ele>132.5</ele>
        <time>2014-7-5T10:38:18.000Z</time>
      </trkpt>
      <trkpt lat="44.51933" lon="0.71273">
        <ele>132.5</ele>
        <time>2014-7-5T10:38:18.000Z</time>
      </trkpt>
      <trkpt lat="44.51933" lon="0.71273">
        <ele>132.5</ele>
        <time>2014-7-5T10:38:18.000Z</time>
      </trkpt>
      <trkpt lat="44.51932" lon="0.71268">
        <ele>132.5</ele>
        <time>2014-7-5T10:38:18.000Z</time>
      </trkpt>
      <trkpt lat="44.51932" lon="0.71268">
        <ele>132.5</ele>
        <time>2014-7-5T10:38:18.000Z</time>
      </trkpt>
      <trkpt lat="44.51932" lon="0.71265">
        <ele>133.5</ele>
        <time>2014-7-5T10:38:18.000Z</time>
      </trkpt>
      <trkpt lat="44.51932" lon="0.71265">
        <ele>133.5</ele>
        <time>2014-7-5T10:38:18.000Z</time>
      </trkpt>
      <trkpt lat="44.51931" lon="0.71261">
        <ele>133.5</ele>
        <time>2014-7-5T10:38:18.000Z</time>
      </trkpt>
      <trkpt lat="44.51931" lon="0.71261">
        <ele>133.5</ele>
        <time>2014-7-5T10:38:18.000Z</time>
      </trkpt>
      <trkpt lat="44.51929" lon="0.71258">
        <ele>134.5</ele>
        <time>2014-7-5T10:38:18.000Z</time>
      </trkpt>
      <trkpt lat="44.51929" lon="0.71258">
        <ele>134.5</ele>
        <time>2014-7-5T10:38:18.000Z</time>
      </trkpt>
      <trkpt lat="44.51929" lon="0.71255">
        <ele>134.5</ele>
        <time>2014-7-5T10:38:18.000Z</time>
      </trkpt>
      <trkpt lat="44.51929" lon="0.71255">
        <ele>134.5</ele>
        <time>2014-7-5T10:38:18.000Z</time>
      </trkpt>
      <trkpt lat="44.51929" lon="0.71252">
        <ele>134.5</ele>
        <time>2014-7-5T10:38:18.000Z</time>
      </trkpt>
      <trkpt lat="44.51929" lon="0.71252">
        <ele>134.5</ele>
        <time>2014-7-5T10:38:18.000Z</time>
      </trkpt>
      <trkpt lat="44.51929" lon="0.71248">
        <ele>134.5</ele>
        <time>2014-7-5T10:38:18.000Z</time>
      </trkpt>
      <trkpt lat="44.51929" lon="0.71248">
        <ele>134.5</ele>
        <time>2014-7-5T10:38:18.000Z</time>
      </trkpt>
      <trkpt lat="44.51928" lon="0.71245">
        <ele>135.5</ele>
        <time>2014-7-5T10:38:18.000Z</time>
      </trkpt>
      <trkpt lat="44.51928" lon="0.71245">
        <ele>135.5</ele>
        <time>2014-7-5T10:38:18.000Z</time>
      </trkpt>
      <trkpt lat="44.51926" lon="0.71242">
        <ele>134.5</ele>
        <time>2014-7-5T10:38:18.000Z</time>
      </trkpt>
      <trkpt lat="44.51926" lon="0.71242">
        <ele>134.5</ele>
        <time>2014-7-5T10:38:18.000Z</time>
      </trkpt>
      <trkpt lat="44.51926" lon="0.71237">
        <ele>135.5</ele>
        <time>2014-7-5T10:38:18.000Z</time>
      </trkpt>
      <trkpt lat="44.51926" lon="0.71237">
        <ele>135.5</ele>
        <time>2014-7-5T10:38:18.000Z</time>
      </trkpt>
      <trkpt lat="44.51926" lon="0.71233">
        <ele>134.5</ele>
        <time>2014-7-5T10:38:18.000Z</time>
      </trkpt>
      <trkpt lat="44.51926" lon="0.71233">
        <ele>134.5</ele>
        <time>2014-7-5T10:38:18.000Z</time>
      </trkpt>
      <trkpt lat="44.51924" lon="0.71229">
        <ele>134.5</ele>
        <time>2014-7-5T10:38:18.000Z</time>
      </trkpt>
      <trkpt lat="44.51924" lon="0.71229">
        <ele>134.5</ele>
        <time>2014-7-5T10:38:18.000Z</time>
      </trkpt>
      <trkpt lat="44.51924" lon="0.71224">
        <ele>135.5</ele>
        <time>2014-7-5T10:38:18.000Z</time>
      </trkpt>
      <trkpt lat="44.51924" lon="0.71224">
        <ele>135.5</ele>
        <time>2014-7-5T10:38:18.000Z</time>
      </trkpt>
      <trkpt lat="44.51923" lon="0.7122">
        <ele>135.5</ele>
        <time>2014-7-5T10:38:18.000Z</time>
      </trkpt>
      <trkpt lat="44.51923" lon="0.7122">
        <ele>135.5</ele>
        <time>2014-7-5T10:38:18.000Z</time>
      </trkpt>
      <trkpt lat="44.51923" lon="0.71217">
        <ele>135.5</ele>
        <time>2014-7-5T10:38:18.000Z</time>
      </trkpt>
      <trkpt lat="44.51923" lon="0.71217">
        <ele>135.5</ele>
        <time>2014-7-5T10:38:18.000Z</time>
      </trkpt>
      <trkpt lat="44.51923" lon="0.71213">
        <ele>136.5</ele>
        <time>2014-7-5T10:38:18.000Z</time>
      </trkpt>
      <trkpt lat="44.51923" lon="0.71213">
        <ele>136.5</ele>
        <time>2014-7-5T10:38:18.000Z</time>
      </trkpt>
      <trkpt lat="44.51922" lon="0.71208">
        <ele>137.5</ele>
        <time>2014-7-5T10:38:18.000Z</time>
      </trkpt>
      <trkpt lat="44.51922" lon="0.71208">
        <ele>137.5</ele>
        <time>2014-7-5T10:38:18.000Z</time>
      </trkpt>
      <trkpt lat="44.51921" lon="0.71205">
        <ele>137.5</ele>
        <time>2014-7-5T10:38:18.000Z</time>
      </trkpt>
      <trkpt lat="44.51921" lon="0.71205">
        <ele>137.5</ele>
        <time>2014-7-5T10:38:18.000Z</time>
      </trkpt>
      <trkpt lat="44.5192" lon="0.71201">
        <ele>137.5</ele>
        <time>2014-7-5T10:38:18.000Z</time>
      </trkpt>
      <trkpt lat="44.5192" lon="0.71201">
        <ele>137.5</ele>
        <time>2014-7-5T10:38:18.000Z</time>
      </trkpt>
      <trkpt lat="44.5192" lon="0.71198">
        <ele>138.5</ele>
        <time>2014-7-5T10:38:18.000Z</time>
      </trkpt>
      <trkpt lat="44.5192" lon="0.71198">
        <ele>138.5</ele>
        <time>2014-7-5T10:38:18.000Z</time>
      </trkpt>
      <trkpt lat="44.51919" lon="0.71193">
        <ele>138.5</ele>
        <time>2014-7-5T10:39:24.000Z</time>
      </trkpt>
      <trkpt lat="44.51919" lon="0.71193">
        <ele>138.5</ele>
        <time>2014-7-5T10:39:24.000Z</time>
      </trkpt>
      <trkpt lat="44.51918" lon="0.7119">
        <ele>138.5</ele>
        <time>2014-7-5T10:39:24.000Z</time>
      </trkpt>
      <trkpt lat="44.51918" lon="0.7119">
        <ele>138.5</ele>
        <time>2014-7-5T10:39:24.000Z</time>
      </trkpt>
      <trkpt lat="44.51918" lon="0.71188">
        <ele>138.5</ele>
        <time>2014-7-5T10:39:24.000Z</time>
      </trkpt>
      <trkpt lat="44.51918" lon="0.71188">
        <ele>138.5</ele>
        <time>2014-7-5T10:39:24.000Z</time>
      </trkpt>
      <trkpt lat="44.51917" lon="0.71185">
        <ele>138.5</ele>
        <time>2014-7-5T10:39:24.000Z</time>
      </trkpt>
      <trkpt lat="44.51917" lon="0.71185">
        <ele>138.5</ele>
        <time>2014-7-5T10:39:24.000Z</time>
      </trkpt>
      <trkpt lat="44.51917" lon="0.71182">
        <ele>138.5</ele>
        <time>2014-7-5T10:39:24.000Z</time>
      </trkpt>
      <trkpt lat="44.51917" lon="0.71182">
        <ele>138.5</ele>
        <time>2014-7-5T10:39:24.000Z</time>
      </trkpt>
      <trkpt lat="44.51916" lon="0.7118">
        <ele>139.5</ele>
        <time>2014-7-5T10:39:24.000Z</time>
      </trkpt>
      <trkpt lat="44.51916" lon="0.7118">
        <ele>139.5</ele>
        <time>2014-7-5T10:39:24.000Z</time>
      </trkpt>
      <trkpt lat="44.51915" lon="0.71177">
        <ele>139.5</ele>
        <time>2014-7-5T10:39:24.000Z</time>
      </trkpt>
      <trkpt lat="44.51915" lon="0.71177">
        <ele>139.5</ele>
        <time>2014-7-5T10:39:24.000Z</time>
      </trkpt>
      <trkpt lat="44.51915" lon="0.71174">
        <ele>139.5</ele>
        <time>2014-7-5T10:39:24.000Z</time>
      </trkpt>
      <trkpt lat="44.51915" lon="0.71174">
        <ele>139.5</ele>
        <time>2014-7-5T10:39:24.000Z</time>
      </trkpt>
      <trkpt lat="44.51914" lon="0.71172">
        <ele>138.5</ele>
        <time>2014-7-5T10:39:24.000Z</time>
      </trkpt>
      <trkpt lat="44.51914" lon="0.71172">
        <ele>138.5</ele>
        <time>2014-7-5T10:39:24.000Z</time>
      </trkpt>
      <trkpt lat="44.51913" lon="0.71169">
        <ele>138.5</ele>
        <time>2014-7-5T10:39:24.000Z</time>
      </trkpt>
      <trkpt lat="44.51913" lon="0.71169">
        <ele>138.5</ele>
        <time>2014-7-5T10:39:24.000Z</time>
      </trkpt>
      <trkpt lat="44.51913" lon="0.71166">
        <ele>139.5</ele>
        <time>2014-7-5T10:39:24.000Z</time>
      </trkpt>
      <trkpt lat="44.51913" lon="0.71166">
        <ele>139.5</ele>
        <time>2014-7-5T10:39:24.000Z</time>
      </trkpt>
      <trkpt lat="44.51912" lon="0.71163">
        <ele>139.5</ele>
        <time>2014-7-5T10:39:24.000Z</time>
      </trkpt>
      <trkpt lat="44.51912" lon="0.71163">
        <ele>139.5</ele>
        <time>2014-7-5T10:39:24.000Z</time>
      </trkpt>
      <trkpt lat="44.51911" lon="0.71161">
        <ele>139.5</ele>
        <time>2014-7-5T10:39:24.000Z</time>
      </trkpt>
      <trkpt lat="44.51911" lon="0.71161">
        <ele>139.5</ele>
        <time>2014-7-5T10:39:24.000Z</time>
      </trkpt>
      <trkpt lat="44.5191" lon="0.71158">
        <ele>139.5</ele>
        <time>2014-7-5T10:39:24.000Z</time>
      </trkpt>
      <trkpt lat="44.5191" lon="0.71158">
        <ele>139.5</ele>
        <time>2014-7-5T10:39:24.000Z</time>
      </trkpt>
      <trkpt lat="44.5191" lon="0.71155">
        <ele>139.5</ele>
        <time>2014-7-5T10:39:24.000Z</time>
      </trkpt>
      <trkpt lat="44.5191" lon="0.71155">
        <ele>139.5</ele>
        <time>2014-7-5T10:39:24.000Z</time>
      </trkpt>
      <trkpt lat="44.51909" lon="0.71153">
        <ele>139.5</ele>
        <time>2014-7-5T10:39:24.000Z</time>
      </trkpt>
      <trkpt lat="44.51909" lon="0.71153">
        <ele>139.5</ele>
        <time>2014-7-5T10:39:24.000Z</time>
      </trkpt>
      <trkpt lat="44.51908" lon="0.7115">
        <ele>139.5</ele>
        <time>2014-7-5T10:39:24.000Z</time>
      </trkpt>
      <trkpt lat="44.51908" lon="0.7115">
        <ele>139.5</ele>
        <time>2014-7-5T10:39:24.000Z</time>
      </trkpt>
      <trkpt lat="44.51908" lon="0.71147">
        <ele>139.5</ele>
        <time>2014-7-5T10:39:24.000Z</time>
      </trkpt>
      <trkpt lat="44.51908" lon="0.71147">
        <ele>139.5</ele>
        <time>2014-7-5T10:39:24.000Z</time>
      </trkpt>
      <trkpt lat="44.51907" lon="0.71142">
        <ele>139.5</ele>
        <time>2014-7-5T10:39:24.000Z</time>
      </trkpt>
      <trkpt lat="44.51907" lon="0.71142">
        <ele>139.5</ele>
        <time>2014-7-5T10:39:24.000Z</time>
      </trkpt>
      <trkpt lat="44.51907" lon="0.71139">
        <ele>139.5</ele>
        <time>2014-7-5T10:39:24.000Z</time>
      </trkpt>
      <trkpt lat="44.51907" lon="0.71139">
        <ele>139.5</ele>
        <time>2014-7-5T10:39:24.000Z</time>
      </trkpt>
      <trkpt lat="44.51905" lon="0.71136">
        <ele>139.5</ele>
        <time>2014-7-5T10:39:24.000Z</time>
      </trkpt>
      <trkpt lat="44.51905" lon="0.71136">
        <ele>139.5</ele>
        <time>2014-7-5T10:39:24.000Z</time>
      </trkpt>
      <trkpt lat="44.51904" lon="0.71133">
        <ele>139.5</ele>
        <time>2014-7-5T10:39:24.000Z</time>
      </trkpt>
      <trkpt lat="44.51904" lon="0.71133">
        <ele>139.5</ele>
        <time>2014-7-5T10:39:24.000Z</time>
      </trkpt>
      <trkpt lat="44.51904" lon="0.7113">
        <ele>139.5</ele>
        <time>2014-7-5T10:39:24.000Z</time>
      </trkpt>
      <trkpt lat="44.51904" lon="0.7113">
        <ele>139.5</ele>
        <time>2014-7-5T10:39:24.000Z</time>
      </trkpt>
      <trkpt lat="44.51903" lon="0.71126">
        <ele>140.5</ele>
        <time>2014-7-5T10:39:24.000Z</time>
      </trkpt>
      <trkpt lat="44.51903" lon="0.71126">
        <ele>140.5</ele>
        <time>2014-7-5T10:39:24.000Z</time>
      </trkpt>
      <trkpt lat="44.51902" lon="0.71123">
        <ele>140.5</ele>
        <time>2014-7-5T10:39:24.000Z</time>
      </trkpt>
      <trkpt lat="44.51902" lon="0.71123">
        <ele>140.5</ele>
        <time>2014-7-5T10:39:24.000Z</time>
      </trkpt>
      <trkpt lat="44.51901" lon="0.7112">
        <ele>140.5</ele>
        <time>2014-7-5T10:39:24.000Z</time>
      </trkpt>
      <trkpt lat="44.51901" lon="0.7112">
        <ele>140.5</ele>
        <time>2014-7-5T10:39:24.000Z</time>
      </trkpt>
      <trkpt lat="44.51899" lon="0.71115">
        <ele>141.5</ele>
        <time>2014-7-5T10:39:24.000Z</time>
      </trkpt>
      <trkpt lat="44.51899" lon="0.71115">
        <ele>141.5</ele>
        <time>2014-7-5T10:39:24.000Z</time>
      </trkpt>
      <trkpt lat="44.51899" lon="0.71112">
        <ele>141.5</ele>
        <time>2014-7-5T10:39:24.000Z</time>
      </trkpt>
      <trkpt lat="44.51899" lon="0.71112">
        <ele>141.5</ele>
        <time>2014-7-5T10:39:24.000Z</time>
      </trkpt>
      <trkpt lat="44.51898" lon="0.71109">
        <ele>141.5</ele>
        <time>2014-7-5T10:39:24.000Z</time>
      </trkpt>
      <trkpt lat="44.51898" lon="0.71109">
        <ele>141.5</ele>
        <time>2014-7-5T10:39:24.000Z</time>
      </trkpt>
      <trkpt lat="44.51897" lon="0.71105">
        <ele>141.5</ele>
        <time>2014-7-5T10:39:24.000Z</time>
      </trkpt>
      <trkpt lat="44.51897" lon="0.71105">
        <ele>141.5</ele>
        <time>2014-7-5T10:39:24.000Z</time>
      </trkpt>
      <trkpt lat="44.51896" lon="0.711">
        <ele>141.5</ele>
        <time>2014-7-5T10:39:24.000Z</time>
      </trkpt>
      <trkpt lat="44.51896" lon="0.711">
        <ele>141.5</ele>
        <time>2014-7-5T10:39:24.000Z</time>
      </trkpt>
      <trkpt lat="44.51896" lon="0.71095">
        <ele>141.5</ele>
        <time>2014-7-5T10:39:24.000Z</time>
      </trkpt>
      <trkpt lat="44.51896" lon="0.71095">
        <ele>141.5</ele>
        <time>2014-7-5T10:39:24.000Z</time>
      </trkpt>
      <trkpt lat="44.51894" lon="0.71091">
        <ele>141.5</ele>
        <time>2014-7-5T10:39:24.000Z</time>
      </trkpt>
      <trkpt lat="44.51894" lon="0.71091">
        <ele>141.5</ele>
        <time>2014-7-5T10:39:24.000Z</time>
      </trkpt>
      <trkpt lat="44.51893" lon="0.71086">
        <ele>142.5</ele>
        <time>2014-7-5T10:39:24.000Z</time>
      </trkpt>
      <trkpt lat="44.51893" lon="0.71086">
        <ele>142.5</ele>
        <time>2014-7-5T10:39:24.000Z</time>
      </trkpt>
      <trkpt lat="44.51892" lon="0.71083">
        <ele>141.5</ele>
        <time>2014-7-5T10:39:24.000Z</time>
      </trkpt>
      <trkpt lat="44.51892" lon="0.71083">
        <ele>141.5</ele>
        <time>2014-7-5T10:39:24.000Z</time>
      </trkpt>
      <trkpt lat="44.51892" lon="0.71081">
        <ele>142.5</ele>
        <time>2014-7-5T10:39:24.000Z</time>
      </trkpt>
      <trkpt lat="44.51892" lon="0.71081">
        <ele>142.5</ele>
        <time>2014-7-5T10:39:24.000Z</time>
      </trkpt>
      <trkpt lat="44.51891" lon="0.71078">
        <ele>142.5</ele>
        <time>2014-7-5T10:39:24.000Z</time>
      </trkpt>
      <trkpt lat="44.51891" lon="0.71078">
        <ele>142.5</ele>
        <time>2014-7-5T10:39:24.000Z</time>
      </trkpt>
      <trkpt lat="44.51891" lon="0.71075">
        <ele>142.5</ele>
        <time>2014-7-5T10:39:24.000Z</time>
      </trkpt>
      <trkpt lat="44.51891" lon="0.71075">
        <ele>142.5</ele>
        <time>2014-7-5T10:39:24.000Z</time>
      </trkpt>
      <trkpt lat="44.5189" lon="0.71072">
        <ele>142.5</ele>
        <time>2014-7-5T10:39:24.000Z</time>
      </trkpt>
      <trkpt lat="44.5189" lon="0.71072">
        <ele>142.5</ele>
        <time>2014-7-5T10:39:24.000Z</time>
      </trkpt>
      <trkpt lat="44.5189" lon="0.7107">
        <ele>142.5</ele>
        <time>2014-7-5T10:39:24.000Z</time>
      </trkpt>
      <trkpt lat="44.5189" lon="0.7107">
        <ele>142.5</ele>
        <time>2014-7-5T10:39:24.000Z</time>
      </trkpt>
      <trkpt lat="44.51889" lon="0.71067">
        <ele>143.5</ele>
        <time>2014-7-5T10:39:24.000Z</time>
      </trkpt>
      <trkpt lat="44.51889" lon="0.71067">
        <ele>143.5</ele>
        <time>2014-7-5T10:39:24.000Z</time>
      </trkpt>
      <trkpt lat="44.51888" lon="0.71064">
        <ele>143.5</ele>
        <time>2014-7-5T10:39:24.000Z</time>
      </trkpt>
      <trkpt lat="44.51888" lon="0.71064">
        <ele>143.5</ele>
        <time>2014-7-5T10:39:24.000Z</time>
      </trkpt>
      <trkpt lat="44.51887" lon="0.71062">
        <ele>143.5</ele>
        <time>2014-7-5T10:39:24.000Z</time>
      </trkpt>
      <trkpt lat="44.51887" lon="0.71062">
        <ele>143.5</ele>
        <time>2014-7-5T10:39:24.000Z</time>
      </trkpt>
      <trkpt lat="44.51886" lon="0.71059">
        <ele>143.5</ele>
        <time>2014-7-5T10:39:24.000Z</time>
      </trkpt>
      <trkpt lat="44.51886" lon="0.71059">
        <ele>143.5</ele>
        <time>2014-7-5T10:39:24.000Z</time>
      </trkpt>
      <trkpt lat="44.51885" lon="0.71057">
        <ele>143.5</ele>
        <time>2014-7-5T10:39:24.000Z</time>
      </trkpt>
      <trkpt lat="44.51885" lon="0.71057">
        <ele>143.5</ele>
        <time>2014-7-5T10:39:24.000Z</time>
      </trkpt>
      <trkpt lat="44.51884" lon="0.71053">
        <ele>143.5</ele>
        <time>2014-7-5T10:39:24.000Z</time>
      </trkpt>
      <trkpt lat="44.51884" lon="0.71053">
        <ele>143.5</ele>
        <time>2014-7-5T10:39:24.000Z</time>
      </trkpt>
      <trkpt lat="44.51884" lon="0.71051">
        <ele>143.5</ele>
        <time>2014-7-5T10:39:24.000Z</time>
      </trkpt>
      <trkpt lat="44.51884" lon="0.71051">
        <ele>143.5</ele>
        <time>2014-7-5T10:39:24.000Z</time>
      </trkpt>
      <trkpt lat="44.51884" lon="0.71047">
        <ele>143.5</ele>
        <time>2014-7-5T10:39:24.000Z</time>
      </trkpt>
      <trkpt lat="44.51884" lon="0.71047">
        <ele>143.5</ele>
        <time>2014-7-5T10:39:24.000Z</time>
      </trkpt>
      <trkpt lat="44.51884" lon="0.71045">
        <ele>143.5</ele>
        <time>2014-7-5T10:39:24.000Z</time>
      </trkpt>
      <trkpt lat="44.51884" lon="0.71045">
        <ele>143.5</ele>
        <time>2014-7-5T10:39:24.000Z</time>
      </trkpt>
      <trkpt lat="44.51883" lon="0.71042">
        <ele>143.5</ele>
        <time>2014-7-5T10:39:24.000Z</time>
      </trkpt>
      <trkpt lat="44.51883" lon="0.71042">
        <ele>143.5</ele>
        <time>2014-7-5T10:39:24.000Z</time>
      </trkpt>
      <trkpt lat="44.51882" lon="0.71039">
        <ele>144.5</ele>
        <time>2014-7-5T10:39:24.000Z</time>
      </trkpt>
      <trkpt lat="44.51882" lon="0.71039">
        <ele>144.5</ele>
        <time>2014-7-5T10:40:41.000Z</time>
      </trkpt>
      <trkpt lat="44.51881" lon="0.71036">
        <ele>144.5</ele>
        <time>2014-7-5T10:40:41.000Z</time>
      </trkpt>
      <trkpt lat="44.51881" lon="0.71036">
        <ele>144.5</ele>
        <time>2014-7-5T10:40:41.000Z</time>
      </trkpt>
      <trkpt lat="44.5188" lon="0.71033">
        <ele>144.5</ele>
        <time>2014-7-5T10:40:41.000Z</time>
      </trkpt>
      <trkpt lat="44.5188" lon="0.71033">
        <ele>144.5</ele>
        <time>2014-7-5T10:40:41.000Z</time>
      </trkpt>
      <trkpt lat="44.51879" lon="0.7103">
        <ele>144.5</ele>
        <time>2014-7-5T10:40:41.000Z</time>
      </trkpt>
      <trkpt lat="44.51879" lon="0.7103">
        <ele>144.5</ele>
        <time>2014-7-5T10:40:41.000Z</time>
      </trkpt>
      <trkpt lat="44.51878" lon="0.71028">
        <ele>144.5</ele>
        <time>2014-7-5T10:40:41.000Z</time>
      </trkpt>
      <trkpt lat="44.51878" lon="0.71028">
        <ele>144.5</ele>
        <time>2014-7-5T10:40:41.000Z</time>
      </trkpt>
      <trkpt lat="44.51877" lon="0.71025">
        <ele>144.5</ele>
        <time>2014-7-5T10:40:41.000Z</time>
      </trkpt>
      <trkpt lat="44.51877" lon="0.71025">
        <ele>144.5</ele>
        <time>2014-7-5T10:40:41.000Z</time>
      </trkpt>
      <trkpt lat="44.51877" lon="0.71022">
        <ele>144.5</ele>
        <time>2014-7-5T10:40:41.000Z</time>
      </trkpt>
      <trkpt lat="44.51877" lon="0.71022">
        <ele>144.5</ele>
        <time>2014-7-5T10:40:41.000Z</time>
      </trkpt>
      <trkpt lat="44.51876" lon="0.71019">
        <ele>145.5</ele>
        <time>2014-7-5T10:40:41.000Z</time>
      </trkpt>
      <trkpt lat="44.51876" lon="0.71019">
        <ele>145.5</ele>
        <time>2014-7-5T10:40:41.000Z</time>
      </trkpt>
      <trkpt lat="44.51876" lon="0.71016">
        <ele>145.5</ele>
        <time>2014-7-5T10:40:41.000Z</time>
      </trkpt>
      <trkpt lat="44.51876" lon="0.71016">
        <ele>145.5</ele>
        <time>2014-7-5T10:40:41.000Z</time>
      </trkpt>
      <trkpt lat="44.51875" lon="0.71013">
        <ele>145.5</ele>
        <time>2014-7-5T10:40:41.000Z</time>
      </trkpt>
      <trkpt lat="44.51875" lon="0.71013">
        <ele>145.5</ele>
        <time>2014-7-5T10:40:41.000Z</time>
      </trkpt>
      <trkpt lat="44.51875" lon="0.7101">
        <ele>145.5</ele>
        <time>2014-7-5T10:40:41.000Z</time>
      </trkpt>
      <trkpt lat="44.51875" lon="0.7101">
        <ele>145.5</ele>
        <time>2014-7-5T10:40:41.000Z</time>
      </trkpt>
      <trkpt lat="44.51874" lon="0.71007">
        <ele>145.5</ele>
        <time>2014-7-5T10:40:41.000Z</time>
      </trkpt>
      <trkpt lat="44.51874" lon="0.71007">
        <ele>145.5</ele>
        <time>2014-7-5T10:40:41.000Z</time>
      </trkpt>
      <trkpt lat="44.51873" lon="0.71004">
        <ele>146.5</ele>
        <time>2014-7-5T10:40:41.000Z</time>
      </trkpt>
      <trkpt lat="44.51873" lon="0.71004">
        <ele>146.5</ele>
        <time>2014-7-5T10:40:41.000Z</time>
      </trkpt>
      <trkpt lat="44.51872" lon="0.71001">
        <ele>146.5</ele>
        <time>2014-7-5T10:40:41.000Z</time>
      </trkpt>
      <trkpt lat="44.51872" lon="0.71001">
        <ele>146.5</ele>
        <time>2014-7-5T10:40:41.000Z</time>
      </trkpt>
      <trkpt lat="44.51871" lon="0.70999">
        <ele>146.5</ele>
        <time>2014-7-5T10:40:41.000Z</time>
      </trkpt>
      <trkpt lat="44.51871" lon="0.70999">
        <ele>146.5</ele>
        <time>2014-7-5T10:40:41.000Z</time>
      </trkpt>
      <trkpt lat="44.51871" lon="0.70996">
        <ele>147.5</ele>
        <time>2014-7-5T10:40:41.000Z</time>
      </trkpt>
      <trkpt lat="44.51871" lon="0.70996">
        <ele>147.5</ele>
        <time>2014-7-5T10:40:41.000Z</time>
      </trkpt>
      <trkpt lat="44.5187" lon="0.70993">
        <ele>147.5</ele>
        <time>2014-7-5T10:40:41.000Z</time>
      </trkpt>
      <trkpt lat="44.5187" lon="0.70993">
        <ele>147.5</ele>
        <time>2014-7-5T10:40:41.000Z</time>
      </trkpt>
      <trkpt lat="44.51869" lon="0.7099">
        <ele>148.5</ele>
        <time>2014-7-5T10:40:41.000Z</time>
      </trkpt>
      <trkpt lat="44.51869" lon="0.7099">
        <ele>148.5</ele>
        <time>2014-7-5T10:40:41.000Z</time>
      </trkpt>
      <trkpt lat="44.51868" lon="0.70987">
        <ele>148.5</ele>
        <time>2014-7-5T10:40:41.000Z</time>
      </trkpt>
      <trkpt lat="44.51868" lon="0.70987">
        <ele>148.5</ele>
        <time>2014-7-5T10:40:41.000Z</time>
      </trkpt>
      <trkpt lat="44.51868" lon="0.70984">
        <ele>149.5</ele>
        <time>2014-7-5T10:40:41.000Z</time>
      </trkpt>
      <trkpt lat="44.51868" lon="0.70984">
        <ele>149.5</ele>
        <time>2014-7-5T10:40:41.000Z</time>
      </trkpt>
      <trkpt lat="44.51867" lon="0.70982">
        <ele>149.5</ele>
        <time>2014-7-5T10:40:41.000Z</time>
      </trkpt>
      <trkpt lat="44.51867" lon="0.70982">
        <ele>149.5</ele>
        <time>2014-7-5T10:40:41.000Z</time>
      </trkpt>
      <trkpt lat="44.51866" lon="0.70978">
        <ele>149.5</ele>
        <time>2014-7-5T10:40:41.000Z</time>
      </trkpt>
      <trkpt lat="44.51866" lon="0.70978">
        <ele>149.5</ele>
        <time>2014-7-5T10:40:41.000Z</time>
      </trkpt>
      <trkpt lat="44.51866" lon="0.70976">
        <ele>149.5</ele>
        <time>2014-7-5T10:40:41.000Z</time>
      </trkpt>
      <trkpt lat="44.51866" lon="0.70976">
        <ele>149.5</ele>
        <time>2014-7-5T10:40:41.000Z</time>
      </trkpt>
      <trkpt lat="44.51864" lon="0.70972">
        <ele>149.5</ele>
        <time>2014-7-5T10:40:41.000Z</time>
      </trkpt>
      <trkpt lat="44.51864" lon="0.70972">
        <ele>149.5</ele>
        <time>2014-7-5T10:40:41.000Z</time>
      </trkpt>
      <trkpt lat="44.51863" lon="0.70969">
        <ele>150.5</ele>
        <time>2014-7-5T10:40:41.000Z</time>
      </trkpt>
      <trkpt lat="44.51863" lon="0.70969">
        <ele>150.5</ele>
        <time>2014-7-5T10:40:41.000Z</time>
      </trkpt>
      <trkpt lat="44.51863" lon="0.70966">
        <ele>150.5</ele>
        <time>2014-7-5T10:40:41.000Z</time>
      </trkpt>
      <trkpt lat="44.51863" lon="0.70966">
        <ele>150.5</ele>
        <time>2014-7-5T10:40:41.000Z</time>
      </trkpt>
      <trkpt lat="44.51863" lon="0.70961">
        <ele>151.5</ele>
        <time>2014-7-5T10:40:41.000Z</time>
      </trkpt>
      <trkpt lat="44.51863" lon="0.70961">
        <ele>151.5</ele>
        <time>2014-7-5T10:40:41.000Z</time>
      </trkpt>
      <trkpt lat="44.51862" lon="0.70957">
        <ele>151.5</ele>
        <time>2014-7-5T10:40:41.000Z</time>
      </trkpt>
      <trkpt lat="44.51862" lon="0.70957">
        <ele>151.5</ele>
        <time>2014-7-5T10:40:41.000Z</time>
      </trkpt>
      <trkpt lat="44.5186" lon="0.70953">
        <ele>151.5</ele>
        <time>2014-7-5T10:40:41.000Z</time>
      </trkpt>
      <trkpt lat="44.5186" lon="0.70953">
        <ele>151.5</ele>
        <time>2014-7-5T10:40:41.000Z</time>
      </trkpt>
      <trkpt lat="44.51859" lon="0.70951">
        <ele>151.5</ele>
        <time>2014-7-5T10:40:41.000Z</time>
      </trkpt>
      <trkpt lat="44.51859" lon="0.70951">
        <ele>151.5</ele>
        <time>2014-7-5T10:40:41.000Z</time>
      </trkpt>
      <trkpt lat="44.51858" lon="0.70949">
        <ele>152.5</ele>
        <time>2014-7-5T10:40:41.000Z</time>
      </trkpt>
      <trkpt lat="44.51858" lon="0.70949">
        <ele>152.5</ele>
        <time>2014-7-5T10:40:41.000Z</time>
      </trkpt>
      <trkpt lat="44.51857" lon="0.70945">
        <ele>152.5</ele>
        <time>2014-7-5T10:40:41.000Z</time>
      </trkpt>
      <trkpt lat="44.51857" lon="0.70945">
        <ele>152.5</ele>
        <time>2014-7-5T10:40:41.000Z</time>
      </trkpt>
      <trkpt lat="44.51857" lon="0.70942">
        <ele>152.5</ele>
        <time>2014-7-5T10:40:41.000Z</time>
      </trkpt>
      <trkpt lat="44.51857" lon="0.70942">
        <ele>152.5</ele>
        <time>2014-7-5T10:40:41.000Z</time>
      </trkpt>
      <trkpt lat="44.51857" lon="0.70938">
        <ele>152.5</ele>
        <time>2014-7-5T10:40:41.000Z</time>
      </trkpt>
      <trkpt lat="44.51857" lon="0.70938">
        <ele>152.5</ele>
        <time>2014-7-5T10:40:41.000Z</time>
      </trkpt>
      <trkpt lat="44.51856" lon="0.70934">
        <ele>153.5</ele>
        <time>2014-7-5T10:40:41.000Z</time>
      </trkpt>
      <trkpt lat="44.51856" lon="0.70934">
        <ele>153.5</ele>
        <time>2014-7-5T10:40:41.000Z</time>
      </trkpt>
      <trkpt lat="44.51855" lon="0.7093">
        <ele>153.5</ele>
        <time>2014-7-5T10:40:41.000Z</time>
      </trkpt>
      <trkpt lat="44.51855" lon="0.7093">
        <ele>153.5</ele>
        <time>2014-7-5T10:40:41.000Z</time>
      </trkpt>
      <trkpt lat="44.51854" lon="0.70927">
        <ele>153.5</ele>
        <time>2014-7-5T10:40:41.000Z</time>
      </trkpt>
      <trkpt lat="44.51854" lon="0.70927">
        <ele>153.5</ele>
        <time>2014-7-5T10:40:41.000Z</time>
      </trkpt>
      <trkpt lat="44.51853" lon="0.70923">
        <ele>154.5</ele>
        <time>2014-7-5T10:40:41.000Z</time>
      </trkpt>
      <trkpt lat="44.51853" lon="0.70923">
        <ele>154.5</ele>
        <time>2014-7-5T10:40:41.000Z</time>
      </trkpt>
      <trkpt lat="44.51852" lon="0.7092">
        <ele>154.5</ele>
        <time>2014-7-5T10:40:41.000Z</time>
      </trkpt>
      <trkpt lat="44.51852" lon="0.7092">
        <ele>154.5</ele>
        <time>2014-7-5T10:40:41.000Z</time>
      </trkpt>
      <trkpt lat="44.5185" lon="0.70917">
        <ele>154.5</ele>
        <time>2014-7-5T10:40:41.000Z</time>
      </trkpt>
      <trkpt lat="44.5185" lon="0.70917">
        <ele>154.5</ele>
        <time>2014-7-5T10:40:41.000Z</time>
      </trkpt>
      <trkpt lat="44.5185" lon="0.70913">
        <ele>155.5</ele>
        <time>2014-7-5T10:40:41.000Z</time>
      </trkpt>
      <trkpt lat="44.5185" lon="0.70913">
        <ele>155.5</ele>
        <time>2014-7-5T10:40:41.000Z</time>
      </trkpt>
      <trkpt lat="44.5185" lon="0.70909">
        <ele>155.5</ele>
        <time>2014-7-5T10:40:41.000Z</time>
      </trkpt>
      <trkpt lat="44.5185" lon="0.70909">
        <ele>155.5</ele>
        <time>2014-7-5T10:40:41.000Z</time>
      </trkpt>
      <trkpt lat="44.51849" lon="0.70906">
        <ele>156.5</ele>
        <time>2014-7-5T10:40:41.000Z</time>
      </trkpt>
      <trkpt lat="44.51849" lon="0.70906">
        <ele>156.5</ele>
        <time>2014-7-5T10:40:41.000Z</time>
      </trkpt>
      <trkpt lat="44.51848" lon="0.70903">
        <ele>156.5</ele>
        <time>2014-7-5T10:40:41.000Z</time>
      </trkpt>
      <trkpt lat="44.51848" lon="0.70903">
        <ele>156.5</ele>
        <time>2014-7-5T10:40:41.000Z</time>
      </trkpt>
      <trkpt lat="44.51848" lon="0.70901">
        <ele>156.5</ele>
        <time>2014-7-5T10:40:41.000Z</time>
      </trkpt>
      <trkpt lat="44.51848" lon="0.70901">
        <ele>156.5</ele>
        <time>2014-7-5T10:40:41.000Z</time>
      </trkpt>
      <trkpt lat="44.51849" lon="0.70898">
        <ele>156.5</ele>
        <time>2014-7-5T10:40:41.000Z</time>
      </trkpt>
      <trkpt lat="44.51849" lon="0.70898">
        <ele>156.5</ele>
        <time>2014-7-5T10:40:41.000Z</time>
      </trkpt>
      <trkpt lat="44.51848" lon="0.70895">
        <ele>156.5</ele>
        <time>2014-7-5T10:40:41.000Z</time>
      </trkpt>
      <trkpt lat="44.51848" lon="0.70895">
        <ele>156.5</ele>
        <time>2014-7-5T10:40:41.000Z</time>
      </trkpt>
      <trkpt lat="44.51846" lon="0.70892">
        <ele>157.5</ele>
        <time>2014-7-5T10:40:41.000Z</time>
      </trkpt>
      <trkpt lat="44.51846" lon="0.70892">
        <ele>157.5</ele>
        <time>2014-7-5T10:40:41.000Z</time>
      </trkpt>
      <trkpt lat="44.51845" lon="0.70889">
        <ele>157.5</ele>
        <time>2014-7-5T10:40:41.000Z</time>
      </trkpt>
      <trkpt lat="44.51845" lon="0.70889">
        <ele>157.5</ele>
        <time>2014-7-5T10:40:41.000Z</time>
      </trkpt>
      <trkpt lat="44.51846" lon="0.70886">
        <ele>158.5</ele>
        <time>2014-7-5T10:40:41.000Z</time>
      </trkpt>
      <trkpt lat="44.51846" lon="0.70886">
        <ele>158.5</ele>
        <time>2014-7-5T10:40:41.000Z</time>
      </trkpt>
      <trkpt lat="44.51845" lon="0.70882">
        <ele>159.5</ele>
        <time>2014-7-5T10:40:41.000Z</time>
      </trkpt>
      <trkpt lat="44.51845" lon="0.70882">
        <ele>159.5</ele>
        <time>2014-7-5T10:40:41.000Z</time>
      </trkpt>
      <trkpt lat="44.51842" lon="0.70879">
        <ele>159.5</ele>
        <time>2014-7-5T10:42:15.000Z</time>
      </trkpt>
      <trkpt lat="44.51842" lon="0.70879">
        <ele>159.5</ele>
        <time>2014-7-5T10:42:15.000Z</time>
      </trkpt>
      <trkpt lat="44.51842" lon="0.70876">
        <ele>159.5</ele>
        <time>2014-7-5T10:42:15.000Z</time>
      </trkpt>
      <trkpt lat="44.51842" lon="0.70876">
        <ele>159.5</ele>
        <time>2014-7-5T10:42:15.000Z</time>
      </trkpt>
      <trkpt lat="44.51842" lon="0.70873">
        <ele>159.5</ele>
        <time>2014-7-5T10:42:15.000Z</time>
      </trkpt>
      <trkpt lat="44.51842" lon="0.70873">
        <ele>159.5</ele>
        <time>2014-7-5T10:42:15.000Z</time>
      </trkpt>
      <trkpt lat="44.51842" lon="0.7087">
        <ele>160.5</ele>
        <time>2014-7-5T10:42:15.000Z</time>
      </trkpt>
      <trkpt lat="44.51842" lon="0.7087">
        <ele>160.5</ele>
        <time>2014-7-5T10:42:15.000Z</time>
      </trkpt>
      <trkpt lat="44.51841" lon="0.70867">
        <ele>160.5</ele>
        <time>2014-7-5T10:42:15.000Z</time>
      </trkpt>
      <trkpt lat="44.51841" lon="0.70867">
        <ele>160.5</ele>
        <time>2014-7-5T10:42:15.000Z</time>
      </trkpt>
      <trkpt lat="44.51839" lon="0.70864">
        <ele>160.5</ele>
        <time>2014-7-5T10:42:15.000Z</time>
      </trkpt>
      <trkpt lat="44.51839" lon="0.70864">
        <ele>160.5</ele>
        <time>2014-7-5T10:42:15.000Z</time>
      </trkpt>
      <trkpt lat="44.51839" lon="0.70861">
        <ele>160.5</ele>
        <time>2014-7-5T10:42:15.000Z</time>
      </trkpt>
      <trkpt lat="44.51839" lon="0.70861">
        <ele>160.5</ele>
        <time>2014-7-5T10:42:15.000Z</time>
      </trkpt>
      <trkpt lat="44.51838" lon="0.70858">
        <ele>160.5</ele>
        <time>2014-7-5T10:42:15.000Z</time>
      </trkpt>
      <trkpt lat="44.51838" lon="0.70858">
        <ele>160.5</ele>
        <time>2014-7-5T10:42:15.000Z</time>
      </trkpt>
      <trkpt lat="44.51838" lon="0.70855">
        <ele>160.5</ele>
        <time>2014-7-5T10:42:15.000Z</time>
      </trkpt>
      <trkpt lat="44.51838" lon="0.70855">
        <ele>160.5</ele>
        <time>2014-7-5T10:42:15.000Z</time>
      </trkpt>
      <trkpt lat="44.51837" lon="0.70852">
        <ele>160.5</ele>
        <time>2014-7-5T10:42:15.000Z</time>
      </trkpt>
      <trkpt lat="44.51837" lon="0.70852">
        <ele>160.5</ele>
        <time>2014-7-5T10:42:15.000Z</time>
      </trkpt>
      <trkpt lat="44.51836" lon="0.70849">
        <ele>161.5</ele>
        <time>2014-7-5T10:42:15.000Z</time>
      </trkpt>
      <trkpt lat="44.51836" lon="0.70849">
        <ele>161.5</ele>
        <time>2014-7-5T10:42:15.000Z</time>
      </trkpt>
      <trkpt lat="44.51835" lon="0.70846">
        <ele>161.5</ele>
        <time>2014-7-5T10:42:15.000Z</time>
      </trkpt>
      <trkpt lat="44.51835" lon="0.70846">
        <ele>161.5</ele>
        <time>2014-7-5T10:42:15.000Z</time>
      </trkpt>
      <trkpt lat="44.51835" lon="0.70842">
        <ele>161.5</ele>
        <time>2014-7-5T10:42:15.000Z</time>
      </trkpt>
      <trkpt lat="44.51835" lon="0.70842">
        <ele>161.5</ele>
        <time>2014-7-5T10:42:15.000Z</time>
      </trkpt>
      <trkpt lat="44.51835" lon="0.70839">
        <ele>162.5</ele>
        <time>2014-7-5T10:42:15.000Z</time>
      </trkpt>
      <trkpt lat="44.51835" lon="0.70839">
        <ele>162.5</ele>
        <time>2014-7-5T10:42:15.000Z</time>
      </trkpt>
      <trkpt lat="44.51833" lon="0.70838">
        <ele>162.5</ele>
        <time>2014-7-5T10:42:15.000Z</time>
      </trkpt>
      <trkpt lat="44.51833" lon="0.70838">
        <ele>162.5</ele>
        <time>2014-7-5T10:42:15.000Z</time>
      </trkpt>
      <trkpt lat="44.51832" lon="0.70835">
        <ele>162.5</ele>
        <time>2014-7-5T10:42:15.000Z</time>
      </trkpt>
      <trkpt lat="44.51832" lon="0.70835">
        <ele>162.5</ele>
        <time>2014-7-5T10:42:15.000Z</time>
      </trkpt>
      <trkpt lat="44.51832" lon="0.70832">
        <ele>162.5</ele>
        <time>2014-7-5T10:42:15.000Z</time>
      </trkpt>
      <trkpt lat="44.51832" lon="0.70832">
        <ele>162.5</ele>
        <time>2014-7-5T10:42:15.000Z</time>
      </trkpt>
      <trkpt lat="44.51832" lon="0.70828">
        <ele>163.5</ele>
        <time>2014-7-5T10:42:15.000Z</time>
      </trkpt>
      <trkpt lat="44.51832" lon="0.70828">
        <ele>163.5</ele>
        <time>2014-7-5T10:42:15.000Z</time>
      </trkpt>
      <trkpt lat="44.51831" lon="0.70824">
        <ele>163.5</ele>
        <time>2014-7-5T10:42:15.000Z</time>
      </trkpt>
      <trkpt lat="44.51831" lon="0.70824">
        <ele>163.5</ele>
        <time>2014-7-5T10:42:15.000Z</time>
      </trkpt>
      <trkpt lat="44.51829" lon="0.70821">
        <ele>163.5</ele>
        <time>2014-7-5T10:42:15.000Z</time>
      </trkpt>
      <trkpt lat="44.51829" lon="0.70821">
        <ele>163.5</ele>
        <time>2014-7-5T10:42:15.000Z</time>
      </trkpt>
      <trkpt lat="44.51828" lon="0.70818">
        <ele>164.5</ele>
        <time>2014-7-5T10:42:15.000Z</time>
      </trkpt>
      <trkpt lat="44.51828" lon="0.70818">
        <ele>164.5</ele>
        <time>2014-7-5T10:42:15.000Z</time>
      </trkpt>
      <trkpt lat="44.51827" lon="0.70815">
        <ele>164.5</ele>
        <time>2014-7-5T10:42:15.000Z</time>
      </trkpt>
      <trkpt lat="44.51827" lon="0.70815">
        <ele>164.5</ele>
        <time>2014-7-5T10:42:15.000Z</time>
      </trkpt>
      <trkpt lat="44.51828" lon="0.70811">
        <ele>164.5</ele>
        <time>2014-7-5T10:42:15.000Z</time>
      </trkpt>
      <trkpt lat="44.51828" lon="0.70811">
        <ele>164.5</ele>
        <time>2014-7-5T10:42:15.000Z</time>
      </trkpt>
      <trkpt lat="44.51827" lon="0.70807">
        <ele>164.5</ele>
        <time>2014-7-5T10:42:15.000Z</time>
      </trkpt>
      <trkpt lat="44.51827" lon="0.70807">
        <ele>164.5</ele>
        <time>2014-7-5T10:42:15.000Z</time>
      </trkpt>
      <trkpt lat="44.51826" lon="0.70804">
        <ele>164.5</ele>
        <time>2014-7-5T10:42:15.000Z</time>
      </trkpt>
      <trkpt lat="44.51826" lon="0.70804">
        <ele>164.5</ele>
        <time>2014-7-5T10:42:15.000Z</time>
      </trkpt>
      <trkpt lat="44.51825" lon="0.70801">
        <ele>165.5</ele>
        <time>2014-7-5T10:42:15.000Z</time>
      </trkpt>
      <trkpt lat="44.51825" lon="0.70801">
        <ele>165.5</ele>
        <time>2014-7-5T10:42:15.000Z</time>
      </trkpt>
      <trkpt lat="44.51824" lon="0.70797">
        <ele>165.5</ele>
        <time>2014-7-5T10:42:15.000Z</time>
      </trkpt>
      <trkpt lat="44.51824" lon="0.70797">
        <ele>165.5</ele>
        <time>2014-7-5T10:42:15.000Z</time>
      </trkpt>
      <trkpt lat="44.51824" lon="0.70795">
        <ele>166.5</ele>
        <time>2014-7-5T10:42:15.000Z</time>
      </trkpt>
      <trkpt lat="44.51824" lon="0.70795">
        <ele>166.5</ele>
        <time>2014-7-5T10:42:15.000Z</time>
      </trkpt>
      <trkpt lat="44.51823" lon="0.7079">
        <ele>166.5</ele>
        <time>2014-7-5T10:42:15.000Z</time>
      </trkpt>
      <trkpt lat="44.51823" lon="0.7079">
        <ele>166.5</ele>
        <time>2014-7-5T10:42:15.000Z</time>
      </trkpt>
      <trkpt lat="44.51823" lon="0.70785">
        <ele>166.5</ele>
        <time>2014-7-5T10:42:15.000Z</time>
      </trkpt>
      <trkpt lat="44.51823" lon="0.70785">
        <ele>166.5</ele>
        <time>2014-7-5T10:42:15.000Z</time>
      </trkpt>
      <trkpt lat="44.51821" lon="0.70782">
        <ele>168.5</ele>
        <time>2014-7-5T10:42:15.000Z</time>
      </trkpt>
      <trkpt lat="44.51821" lon="0.70782">
        <ele>168.5</ele>
        <time>2014-7-5T10:42:15.000Z</time>
      </trkpt>
      <trkpt lat="44.51819" lon="0.70779">
        <ele>168.5</ele>
        <time>2014-7-5T10:42:15.000Z</time>
      </trkpt>
      <trkpt lat="44.51819" lon="0.70779">
        <ele>168.5</ele>
        <time>2014-7-5T10:42:15.000Z</time>
      </trkpt>
      <trkpt lat="44.51818" lon="0.70775">
        <ele>169.5</ele>
        <time>2014-7-5T10:42:15.000Z</time>
      </trkpt>
      <trkpt lat="44.51818" lon="0.70775">
        <ele>169.5</ele>
        <time>2014-7-5T10:42:15.000Z</time>
      </trkpt>
      <trkpt lat="44.51818" lon="0.70773">
        <ele>170.5</ele>
        <time>2014-7-5T10:42:15.000Z</time>
      </trkpt>
      <trkpt lat="44.51818" lon="0.70773">
        <ele>170.5</ele>
        <time>2014-7-5T10:42:15.000Z</time>
      </trkpt>
      <trkpt lat="44.51819" lon="0.70769">
        <ele>170.5</ele>
        <time>2014-7-5T10:42:15.000Z</time>
      </trkpt>
      <trkpt lat="44.51819" lon="0.70769">
        <ele>170.5</ele>
        <time>2014-7-5T10:42:15.000Z</time>
      </trkpt>
      <trkpt lat="44.51821" lon="0.70767">
        <ele>171.5</ele>
        <time>2014-7-5T10:42:15.000Z</time>
      </trkpt>
      <trkpt lat="44.51821" lon="0.70767">
        <ele>171.5</ele>
        <time>2014-7-5T10:42:15.000Z</time>
      </trkpt>
      <trkpt lat="44.51823" lon="0.70766">
        <ele>171.5</ele>
        <time>2014-7-5T10:42:15.000Z</time>
      </trkpt>
      <trkpt lat="44.51823" lon="0.70766">
        <ele>171.5</ele>
        <time>2014-7-5T10:42:15.000Z</time>
      </trkpt>
      <trkpt lat="44.51826" lon="0.70764">
        <ele>171.5</ele>
        <time>2014-7-5T10:42:15.000Z</time>
      </trkpt>
      <trkpt lat="44.51826" lon="0.70764">
        <ele>171.5</ele>
        <time>2014-7-5T10:42:15.000Z</time>
      </trkpt>
      <trkpt lat="44.51828" lon="0.70762">
        <ele>171.5</ele>
        <time>2014-7-5T10:42:15.000Z</time>
      </trkpt>
      <trkpt lat="44.51828" lon="0.70762">
        <ele>171.5</ele>
        <time>2014-7-5T10:42:15.000Z</time>
      </trkpt>
      <trkpt lat="44.5183" lon="0.7076">
        <ele>172.5</ele>
        <time>2014-7-5T10:42:15.000Z</time>
      </trkpt>
      <trkpt lat="44.5183" lon="0.7076">
        <ele>172.5</ele>
        <time>2014-7-5T10:42:15.000Z</time>
      </trkpt>
      <trkpt lat="44.51832" lon="0.70756">
        <ele>171.5</ele>
        <time>2014-7-5T10:42:15.000Z</time>
      </trkpt>
      <trkpt lat="44.51832" lon="0.70756">
        <ele>171.5</ele>
        <time>2014-7-5T10:42:15.000Z</time>
      </trkpt>
      <trkpt lat="44.51833" lon="0.70753">
        <ele>172.5</ele>
        <time>2014-7-5T10:42:15.000Z</time>
      </trkpt>
      <trkpt lat="44.51833" lon="0.70753">
        <ele>172.5</ele>
        <time>2014-7-5T10:42:15.000Z</time>
      </trkpt>
      <trkpt lat="44.51835" lon="0.7075">
        <ele>172.5</ele>
        <time>2014-7-5T10:42:15.000Z</time>
      </trkpt>
      <trkpt lat="44.51835" lon="0.7075">
        <ele>172.5</ele>
        <time>2014-7-5T10:42:15.000Z</time>
      </trkpt>
      <trkpt lat="44.51837" lon="0.70747">
        <ele>172.5</ele>
        <time>2014-7-5T10:42:15.000Z</time>
      </trkpt>
      <trkpt lat="44.51837" lon="0.70747">
        <ele>172.5</ele>
        <time>2014-7-5T10:42:15.000Z</time>
      </trkpt>
      <trkpt lat="44.51839" lon="0.70743">
        <ele>171.5</ele>
        <time>2014-7-5T10:42:15.000Z</time>
      </trkpt>
      <trkpt lat="44.51839" lon="0.70743">
        <ele>171.5</ele>
        <time>2014-7-5T10:42:15.000Z</time>
      </trkpt>
      <trkpt lat="44.51841" lon="0.7074">
        <ele>171.5</ele>
        <time>2014-7-5T10:42:15.000Z</time>
      </trkpt>
      <trkpt lat="44.51841" lon="0.7074">
        <ele>171.5</ele>
        <time>2014-7-5T10:42:15.000Z</time>
      </trkpt>
      <trkpt lat="44.51843" lon="0.70738">
        <ele>171.5</ele>
        <time>2014-7-5T10:42:15.000Z</time>
      </trkpt>
      <trkpt lat="44.51843" lon="0.70738">
        <ele>171.5</ele>
        <time>2014-7-5T10:42:15.000Z</time>
      </trkpt>
      <trkpt lat="44.51845" lon="0.70735">
        <ele>171.5</ele>
        <time>2014-7-5T10:42:15.000Z</time>
      </trkpt>
      <trkpt lat="44.51845" lon="0.70735">
        <ele>171.5</ele>
        <time>2014-7-5T10:42:15.000Z</time>
      </trkpt>
      <trkpt lat="44.51848" lon="0.70731">
        <ele>171.5</ele>
        <time>2014-7-5T10:42:15.000Z</time>
      </trkpt>
      <trkpt lat="44.51848" lon="0.70731">
        <ele>171.5</ele>
        <time>2014-7-5T10:42:15.000Z</time>
      </trkpt>
      <trkpt lat="44.5185" lon="0.70726">
        <ele>171.5</ele>
        <time>2014-7-5T10:42:15.000Z</time>
      </trkpt>
      <trkpt lat="44.5185" lon="0.70726">
        <ele>171.5</ele>
        <time>2014-7-5T10:42:15.000Z</time>
      </trkpt>
      <trkpt lat="44.51851" lon="0.70721">
        <ele>171.5</ele>
        <time>2014-7-5T10:42:15.000Z</time>
      </trkpt>
      <trkpt lat="44.51851" lon="0.70721">
        <ele>171.5</ele>
        <time>2014-7-5T10:43:45.000Z</time>
      </trkpt>
      <trkpt lat="44.51852" lon="0.70716">
        <ele>171.5</ele>
        <time>2014-7-5T10:43:45.000Z</time>
      </trkpt>
      <trkpt lat="44.51852" lon="0.70716">
        <ele>171.5</ele>
        <time>2014-7-5T10:43:45.000Z</time>
      </trkpt>
      <trkpt lat="44.51854" lon="0.70711">
        <ele>171.5</ele>
        <time>2014-7-5T10:43:45.000Z</time>
      </trkpt>
      <trkpt lat="44.51854" lon="0.70711">
        <ele>171.5</ele>
        <time>2014-7-5T10:43:45.000Z</time>
      </trkpt>
      <trkpt lat="44.51856" lon="0.70708">
        <ele>171.5</ele>
        <time>2014-7-5T10:43:45.000Z</time>
      </trkpt>
      <trkpt lat="44.51856" lon="0.70708">
        <ele>171.5</ele>
        <time>2014-7-5T10:43:45.000Z</time>
      </trkpt>
      <trkpt lat="44.51859" lon="0.70704">
        <ele>171.5</ele>
        <time>2014-7-5T10:43:45.000Z</time>
      </trkpt>
      <trkpt lat="44.51859" lon="0.70704">
        <ele>171.5</ele>
        <time>2014-7-5T10:43:45.000Z</time>
      </trkpt>
      <trkpt lat="44.51861" lon="0.707">
        <ele>172.5</ele>
        <time>2014-7-5T10:43:45.000Z</time>
      </trkpt>
      <trkpt lat="44.51861" lon="0.707">
        <ele>172.5</ele>
        <time>2014-7-5T10:43:45.000Z</time>
      </trkpt>
      <trkpt lat="44.51864" lon="0.70697">
        <ele>171.5</ele>
        <time>2014-7-5T10:43:45.000Z</time>
      </trkpt>
      <trkpt lat="44.51864" lon="0.70697">
        <ele>171.5</ele>
        <time>2014-7-5T10:43:45.000Z</time>
      </trkpt>
      <trkpt lat="44.51868" lon="0.70694">
        <ele>172.5</ele>
        <time>2014-7-5T10:43:45.000Z</time>
      </trkpt>
      <trkpt lat="44.51868" lon="0.70694">
        <ele>172.5</ele>
        <time>2014-7-5T10:43:45.000Z</time>
      </trkpt>
      <trkpt lat="44.51871" lon="0.70692">
        <ele>172.5</ele>
        <time>2014-7-5T10:43:45.000Z</time>
      </trkpt>
      <trkpt lat="44.51871" lon="0.70692">
        <ele>172.5</ele>
        <time>2014-7-5T10:43:45.000Z</time>
      </trkpt>
      <trkpt lat="44.51875" lon="0.70689">
        <ele>172.5</ele>
        <time>2014-7-5T10:43:45.000Z</time>
      </trkpt>
      <trkpt lat="44.51875" lon="0.70689">
        <ele>172.5</ele>
        <time>2014-7-5T10:43:45.000Z</time>
      </trkpt>
      <trkpt lat="44.51882" lon="0.70683">
        <ele>170.5</ele>
        <time>2014-7-5T10:43:45.000Z</time>
      </trkpt>
      <trkpt lat="44.51882" lon="0.70683">
        <ele>170.5</ele>
        <time>2014-7-5T10:43:45.000Z</time>
      </trkpt>
      <trkpt lat="44.51886" lon="0.70678">
        <ele>169.5</ele>
        <time>2014-7-5T10:43:45.000Z</time>
      </trkpt>
      <trkpt lat="44.51886" lon="0.70678">
        <ele>169.5</ele>
        <time>2014-7-5T10:43:45.000Z</time>
      </trkpt>
      <trkpt lat="44.5189" lon="0.70671">
        <ele>167.5</ele>
        <time>2014-7-5T10:43:45.000Z</time>
      </trkpt>
      <trkpt lat="44.5189" lon="0.70671">
        <ele>167.5</ele>
        <time>2014-7-5T10:43:45.000Z</time>
      </trkpt>
      <trkpt lat="44.51894" lon="0.70663">
        <ele>168.5</ele>
        <time>2014-7-5T10:43:45.000Z</time>
      </trkpt>
      <trkpt lat="44.51894" lon="0.70663">
        <ele>168.5</ele>
        <time>2014-7-5T10:43:45.000Z</time>
      </trkpt>
      <trkpt lat="44.51896" lon="0.70656">
        <ele>167.5</ele>
        <time>2014-7-5T10:43:45.000Z</time>
      </trkpt>
      <trkpt lat="44.51896" lon="0.70656">
        <ele>167.5</ele>
        <time>2014-7-5T10:43:45.000Z</time>
      </trkpt>
      <trkpt lat="44.51899" lon="0.7065">
        <ele>167.5</ele>
        <time>2014-7-5T10:43:45.000Z</time>
      </trkpt>
      <trkpt lat="44.51899" lon="0.7065">
        <ele>167.5</ele>
        <time>2014-7-5T10:43:45.000Z</time>
      </trkpt>
      <trkpt lat="44.51901" lon="0.70645">
        <ele>167.5</ele>
        <time>2014-7-5T10:43:45.000Z</time>
      </trkpt>
      <trkpt lat="44.51901" lon="0.70645">
        <ele>167.5</ele>
        <time>2014-7-5T10:43:45.000Z</time>
      </trkpt>
      <trkpt lat="44.51903" lon="0.7064">
        <ele>166.5</ele>
        <time>2014-7-5T10:43:45.000Z</time>
      </trkpt>
      <trkpt lat="44.51903" lon="0.7064">
        <ele>166.5</ele>
        <time>2014-7-5T10:43:45.000Z</time>
      </trkpt>
      <trkpt lat="44.51905" lon="0.70634">
        <ele>165.5</ele>
        <time>2014-7-5T10:43:45.000Z</time>
      </trkpt>
      <trkpt lat="44.51905" lon="0.70634">
        <ele>165.5</ele>
        <time>2014-7-5T10:43:45.000Z</time>
      </trkpt>
      <trkpt lat="44.51907" lon="0.7063">
        <ele>166.5</ele>
        <time>2014-7-5T10:43:45.000Z</time>
      </trkpt>
      <trkpt lat="44.51907" lon="0.7063">
        <ele>166.5</ele>
        <time>2014-7-5T10:43:45.000Z</time>
      </trkpt>
      <trkpt lat="44.51908" lon="0.70628">
        <ele>165.5</ele>
        <time>2014-7-5T10:43:45.000Z</time>
      </trkpt>
      <trkpt lat="44.51908" lon="0.70628">
        <ele>165.5</ele>
        <time>2014-7-5T10:43:45.000Z</time>
      </trkpt>
      <trkpt lat="44.51908" lon="0.70624">
        <ele>166.5</ele>
        <time>2014-7-5T10:43:45.000Z</time>
      </trkpt>
      <trkpt lat="44.51908" lon="0.70624">
        <ele>166.5</ele>
        <time>2014-7-5T10:43:45.000Z</time>
      </trkpt>
      <trkpt lat="44.51909" lon="0.70622">
        <ele>167.5</ele>
        <time>2014-7-5T10:43:45.000Z</time>
      </trkpt>
      <trkpt lat="44.51909" lon="0.70622">
        <ele>167.5</ele>
        <time>2014-7-5T10:43:45.000Z</time>
      </trkpt>
      <trkpt lat="44.51912" lon="0.70617">
        <ele>167.5</ele>
        <time>2014-7-5T10:43:45.000Z</time>
      </trkpt>
      <trkpt lat="44.51912" lon="0.70617">
        <ele>167.5</ele>
        <time>2014-7-5T10:43:45.000Z</time>
      </trkpt>
      <trkpt lat="44.51913" lon="0.70614">
        <ele>168.5</ele>
        <time>2014-7-5T10:43:45.000Z</time>
      </trkpt>
      <trkpt lat="44.51913" lon="0.70614">
        <ele>168.5</ele>
        <time>2014-7-5T10:43:45.000Z</time>
      </trkpt>
      <trkpt lat="44.51914" lon="0.70612">
        <ele>168.5</ele>
        <time>2014-7-5T10:43:45.000Z</time>
      </trkpt>
      <trkpt lat="44.51914" lon="0.70612">
        <ele>168.5</ele>
        <time>2014-7-5T10:43:45.000Z</time>
      </trkpt>
      <trkpt lat="44.51915" lon="0.70609">
        <ele>167.5</ele>
        <time>2014-7-5T10:43:45.000Z</time>
      </trkpt>
      <trkpt lat="44.51915" lon="0.70609">
        <ele>167.5</ele>
        <time>2014-7-5T10:43:45.000Z</time>
      </trkpt>
      <trkpt lat="44.51917" lon="0.70606">
        <ele>168.5</ele>
        <time>2014-7-5T10:43:45.000Z</time>
      </trkpt>
      <trkpt lat="44.51917" lon="0.70606">
        <ele>168.5</ele>
        <time>2014-7-5T10:43:45.000Z</time>
      </trkpt>
      <trkpt lat="44.51919" lon="0.70604">
        <ele>169.5</ele>
        <time>2014-7-5T10:43:45.000Z</time>
      </trkpt>
      <trkpt lat="44.51919" lon="0.70604">
        <ele>169.5</ele>
        <time>2014-7-5T10:43:45.000Z</time>
      </trkpt>
      <trkpt lat="44.51921" lon="0.70601">
        <ele>170.5</ele>
        <time>2014-7-5T10:43:45.000Z</time>
      </trkpt>
      <trkpt lat="44.51921" lon="0.70601">
        <ele>170.5</ele>
        <time>2014-7-5T10:43:45.000Z</time>
      </trkpt>
      <trkpt lat="44.51923" lon="0.70598">
        <ele>171.5</ele>
        <time>2014-7-5T10:43:45.000Z</time>
      </trkpt>
      <trkpt lat="44.51923" lon="0.70598">
        <ele>171.5</ele>
        <time>2014-7-5T10:43:45.000Z</time>
      </trkpt>
      <trkpt lat="44.51924" lon="0.70595">
        <ele>170.5</ele>
        <time>2014-7-5T10:43:45.000Z</time>
      </trkpt>
      <trkpt lat="44.51924" lon="0.70595">
        <ele>170.5</ele>
        <time>2014-7-5T10:43:45.000Z</time>
      </trkpt>
      <trkpt lat="44.51924" lon="0.70593">
        <ele>169.5</ele>
        <time>2014-7-5T10:43:45.000Z</time>
      </trkpt>
      <trkpt lat="44.51924" lon="0.70593">
        <ele>169.5</ele>
        <time>2014-7-5T10:43:45.000Z</time>
      </trkpt>
      <trkpt lat="44.51925" lon="0.7059">
        <ele>171.5</ele>
        <time>2014-7-5T10:43:45.000Z</time>
      </trkpt>
      <trkpt lat="44.51925" lon="0.7059">
        <ele>171.5</ele>
        <time>2014-7-5T10:43:45.000Z</time>
      </trkpt>
      <trkpt lat="44.51926" lon="0.70588">
        <ele>172.5</ele>
        <time>2014-7-5T10:43:45.000Z</time>
      </trkpt>
      <trkpt lat="44.51926" lon="0.70588">
        <ele>172.5</ele>
        <time>2014-7-5T10:43:45.000Z</time>
      </trkpt>
      <trkpt lat="44.51927" lon="0.70586">
        <ele>172.5</ele>
        <time>2014-7-5T10:43:45.000Z</time>
      </trkpt>
      <trkpt lat="44.51927" lon="0.70586">
        <ele>172.5</ele>
        <time>2014-7-5T10:43:45.000Z</time>
      </trkpt>
      <trkpt lat="44.51927" lon="0.70583">
        <ele>171.5</ele>
        <time>2014-7-5T10:43:45.000Z</time>
      </trkpt>
      <trkpt lat="44.51927" lon="0.70583">
        <ele>171.5</ele>
        <time>2014-7-5T10:43:45.000Z</time>
      </trkpt>
      <trkpt lat="44.51928" lon="0.7058">
        <ele>172.5</ele>
        <time>2014-7-5T10:43:45.000Z</time>
      </trkpt>
      <trkpt lat="44.51928" lon="0.7058">
        <ele>172.5</ele>
        <time>2014-7-5T10:43:45.000Z</time>
      </trkpt>
      <trkpt lat="44.51929" lon="0.70577">
        <ele>171.5</ele>
        <time>2014-7-5T10:43:45.000Z</time>
      </trkpt>
      <trkpt lat="44.51929" lon="0.70577">
        <ele>171.5</ele>
        <time>2014-7-5T10:43:45.000Z</time>
      </trkpt>
      <trkpt lat="44.5193" lon="0.70574">
        <ele>170.5</ele>
        <time>2014-7-5T10:43:45.000Z</time>
      </trkpt>
      <trkpt lat="44.5193" lon="0.70574">
        <ele>170.5</ele>
        <time>2014-7-5T10:43:45.000Z</time>
      </trkpt>
      <trkpt lat="44.5193" lon="0.70571">
        <ele>169.5</ele>
        <time>2014-7-5T10:43:45.000Z</time>
      </trkpt>
      <trkpt lat="44.5193" lon="0.70571">
        <ele>169.5</ele>
        <time>2014-7-5T10:43:45.000Z</time>
      </trkpt>
      <trkpt lat="44.5193" lon="0.70567">
        <ele>170.5</ele>
        <time>2014-7-5T10:43:45.000Z</time>
      </trkpt>
      <trkpt lat="44.5193" lon="0.70567">
        <ele>170.5</ele>
        <time>2014-7-5T10:43:45.000Z</time>
      </trkpt>
      <trkpt lat="44.5193" lon="0.70564">
        <ele>170.5</ele>
        <time>2014-7-5T10:43:45.000Z</time>
      </trkpt>
      <trkpt lat="44.5193" lon="0.70564">
        <ele>170.5</ele>
        <time>2014-7-5T10:43:45.000Z</time>
      </trkpt>
      <trkpt lat="44.5193" lon="0.70562">
        <ele>171.5</ele>
        <time>2014-7-5T10:43:45.000Z</time>
      </trkpt>
      <trkpt lat="44.5193" lon="0.70562">
        <ele>171.5</ele>
        <time>2014-7-5T10:43:45.000Z</time>
      </trkpt>
      <trkpt lat="44.5193" lon="0.70558">
        <ele>171.5</ele>
        <time>2014-7-5T10:43:45.000Z</time>
      </trkpt>
      <trkpt lat="44.5193" lon="0.70558">
        <ele>171.5</ele>
        <time>2014-7-5T10:43:45.000Z</time>
      </trkpt>
      <trkpt lat="44.51931" lon="0.70554">
        <ele>172.5</ele>
        <time>2014-7-5T10:43:45.000Z</time>
      </trkpt>
      <trkpt lat="44.51931" lon="0.70554">
        <ele>172.5</ele>
        <time>2014-7-5T10:43:45.000Z</time>
      </trkpt>
      <trkpt lat="44.51931" lon="0.70551">
        <ele>172.5</ele>
        <time>2014-7-5T10:43:45.000Z</time>
      </trkpt>
      <trkpt lat="44.51931" lon="0.70551">
        <ele>172.5</ele>
        <time>2014-7-5T10:43:45.000Z</time>
      </trkpt>
      <trkpt lat="44.51931" lon="0.70549">
        <ele>172.5</ele>
        <time>2014-7-5T10:43:45.000Z</time>
      </trkpt>
      <trkpt lat="44.51931" lon="0.70549">
        <ele>172.5</ele>
        <time>2014-7-5T10:43:45.000Z</time>
      </trkpt>
      <trkpt lat="44.51932" lon="0.70546">
        <ele>173.5</ele>
        <time>2014-7-5T10:43:45.000Z</time>
      </trkpt>
      <trkpt lat="44.51932" lon="0.70546">
        <ele>173.5</ele>
        <time>2014-7-5T10:43:45.000Z</time>
      </trkpt>
      <trkpt lat="44.51932" lon="0.70543">
        <ele>172.5</ele>
        <time>2014-7-5T10:43:45.000Z</time>
      </trkpt>
      <trkpt lat="44.51932" lon="0.70543">
        <ele>172.5</ele>
        <time>2014-7-5T10:43:45.000Z</time>
      </trkpt>
      <trkpt lat="44.51933" lon="0.70539">
        <ele>172.5</ele>
        <time>2014-7-5T10:43:45.000Z</time>
      </trkpt>
      <trkpt lat="44.51933" lon="0.70539">
        <ele>172.5</ele>
        <time>2014-7-5T10:43:45.000Z</time>
      </trkpt>
      <trkpt lat="44.51934" lon="0.70535">
        <ele>172.5</ele>
        <time>2014-7-5T10:44:40.000Z</time>
      </trkpt>
      <trkpt lat="44.51934" lon="0.70535">
        <ele>172.5</ele>
        <time>2014-7-5T10:44:40.000Z</time>
      </trkpt>
      <trkpt lat="44.51935" lon="0.70531">
        <ele>171.5</ele>
        <time>2014-7-5T10:44:40.000Z</time>
      </trkpt>
      <trkpt lat="44.51935" lon="0.70531">
        <ele>171.5</ele>
        <time>2014-7-5T10:44:40.000Z</time>
      </trkpt>
      <trkpt lat="44.51935" lon="0.70528">
        <ele>171.5</ele>
        <time>2014-7-5T10:44:40.000Z</time>
      </trkpt>
      <trkpt lat="44.51935" lon="0.70528">
        <ele>171.5</ele>
        <time>2014-7-5T10:44:40.000Z</time>
      </trkpt>
      <trkpt lat="44.51936" lon="0.70525">
        <ele>171.5</ele>
        <time>2014-7-5T10:44:40.000Z</time>
      </trkpt>
      <trkpt lat="44.51936" lon="0.70525">
        <ele>171.5</ele>
        <time>2014-7-5T10:44:40.000Z</time>
      </trkpt>
      <trkpt lat="44.51937" lon="0.70522">
        <ele>172.5</ele>
        <time>2014-7-5T10:44:40.000Z</time>
      </trkpt>
      <trkpt lat="44.51937" lon="0.70522">
        <ele>172.5</ele>
        <time>2014-7-5T10:44:40.000Z</time>
      </trkpt>
      <trkpt lat="44.51937" lon="0.70518">
        <ele>171.5</ele>
        <time>2014-7-5T10:44:40.000Z</time>
      </trkpt>
      <trkpt lat="44.51937" lon="0.70518">
        <ele>171.5</ele>
        <time>2014-7-5T10:44:40.000Z</time>
      </trkpt>
      <trkpt lat="44.51937" lon="0.70515">
        <ele>172.5</ele>
        <time>2014-7-5T10:44:40.000Z</time>
      </trkpt>
      <trkpt lat="44.51937" lon="0.70515">
        <ele>172.5</ele>
        <time>2014-7-5T10:44:40.000Z</time>
      </trkpt>
      <trkpt lat="44.51938" lon="0.70512">
        <ele>174.5</ele>
        <time>2014-7-5T10:44:40.000Z</time>
      </trkpt>
      <trkpt lat="44.51938" lon="0.70512">
        <ele>174.5</ele>
        <time>2014-7-5T10:44:40.000Z</time>
      </trkpt>
      <trkpt lat="44.51938" lon="0.70509">
        <ele>173.5</ele>
        <time>2014-7-5T10:44:40.000Z</time>
      </trkpt>
      <trkpt lat="44.51938" lon="0.70509">
        <ele>173.5</ele>
        <time>2014-7-5T10:44:40.000Z</time>
      </trkpt>
      <trkpt lat="44.51939" lon="0.70505">
        <ele>175.5</ele>
        <time>2014-7-5T10:44:40.000Z</time>
      </trkpt>
      <trkpt lat="44.51939" lon="0.70505">
        <ele>175.5</ele>
        <time>2014-7-5T10:44:40.000Z</time>
      </trkpt>
      <trkpt lat="44.5194" lon="0.70502">
        <ele>175.5</ele>
        <time>2014-7-5T10:44:40.000Z</time>
      </trkpt>
      <trkpt lat="44.5194" lon="0.70502">
        <ele>175.5</ele>
        <time>2014-7-5T10:44:40.000Z</time>
      </trkpt>
      <trkpt lat="44.51941" lon="0.70499">
        <ele>177.5</ele>
        <time>2014-7-5T10:44:40.000Z</time>
      </trkpt>
      <trkpt lat="44.51941" lon="0.70499">
        <ele>177.5</ele>
        <time>2014-7-5T10:44:40.000Z</time>
      </trkpt>
      <trkpt lat="44.51943" lon="0.70495">
        <ele>180.5</ele>
        <time>2014-7-5T10:44:40.000Z</time>
      </trkpt>
      <trkpt lat="44.51943" lon="0.70495">
        <ele>180.5</ele>
        <time>2014-7-5T10:44:40.000Z</time>
      </trkpt>
      <trkpt lat="44.51944" lon="0.70493">
        <ele>180.5</ele>
        <time>2014-7-5T10:44:40.000Z</time>
      </trkpt>
      <trkpt lat="44.51944" lon="0.70493">
        <ele>180.5</ele>
        <time>2014-7-5T10:44:40.000Z</time>
      </trkpt>
      <trkpt lat="44.51945" lon="0.7049">
        <ele>178.5</ele>
        <time>2014-7-5T10:44:40.000Z</time>
      </trkpt>
      <trkpt lat="44.51945" lon="0.7049">
        <ele>178.5</ele>
        <time>2014-7-5T10:44:40.000Z</time>
      </trkpt>
      <trkpt lat="44.51946" lon="0.70486">
        <ele>177.5</ele>
        <time>2014-7-5T10:44:40.000Z</time>
      </trkpt>
      <trkpt lat="44.51946" lon="0.70486">
        <ele>177.5</ele>
        <time>2014-7-5T10:44:40.000Z</time>
      </trkpt>
      <trkpt lat="44.51945" lon="0.70483">
        <ele>175.5</ele>
        <time>2014-7-5T10:44:40.000Z</time>
      </trkpt>
      <trkpt lat="44.51945" lon="0.70483">
        <ele>175.5</ele>
        <time>2014-7-5T10:44:40.000Z</time>
      </trkpt>
      <trkpt lat="44.51945" lon="0.70479">
        <ele>175.5</ele>
        <time>2014-7-5T10:44:40.000Z</time>
      </trkpt>
      <trkpt lat="44.51945" lon="0.70479">
        <ele>175.5</ele>
        <time>2014-7-5T10:44:40.000Z</time>
      </trkpt>
      <trkpt lat="44.51945" lon="0.70476">
        <ele>174.5</ele>
        <time>2014-7-5T10:44:40.000Z</time>
      </trkpt>
      <trkpt lat="44.51945" lon="0.70476">
        <ele>174.5</ele>
        <time>2014-7-5T10:44:40.000Z</time>
      </trkpt>
      <trkpt lat="44.51945" lon="0.70473">
        <ele>174.5</ele>
        <time>2014-7-5T10:44:40.000Z</time>
      </trkpt>
      <trkpt lat="44.51945" lon="0.70473">
        <ele>174.5</ele>
        <time>2014-7-5T10:44:40.000Z</time>
      </trkpt>
      <trkpt lat="44.51945" lon="0.70469">
        <ele>174.5</ele>
        <time>2014-7-5T10:44:40.000Z</time>
      </trkpt>
      <trkpt lat="44.51945" lon="0.70469">
        <ele>174.5</ele>
        <time>2014-7-5T10:44:40.000Z</time>
      </trkpt>
      <trkpt lat="44.51944" lon="0.70466">
        <ele>175.5</ele>
        <time>2014-7-5T10:44:40.000Z</time>
      </trkpt>
      <trkpt lat="44.51944" lon="0.70466">
        <ele>175.5</ele>
        <time>2014-7-5T10:44:40.000Z</time>
      </trkpt>
      <trkpt lat="44.51944" lon="0.70463">
        <ele>176.5</ele>
        <time>2014-7-5T10:44:40.000Z</time>
      </trkpt>
      <trkpt lat="44.51944" lon="0.70463">
        <ele>176.5</ele>
        <time>2014-7-5T10:44:40.000Z</time>
      </trkpt>
      <trkpt lat="44.51943" lon="0.70459">
        <ele>176.5</ele>
        <time>2014-7-5T10:44:40.000Z</time>
      </trkpt>
      <trkpt lat="44.51943" lon="0.70459">
        <ele>176.5</ele>
        <time>2014-7-5T10:44:40.000Z</time>
      </trkpt>
      <trkpt lat="44.51943" lon="0.70456">
        <ele>177.5</ele>
        <time>2014-7-5T10:44:40.000Z</time>
      </trkpt>
      <trkpt lat="44.51943" lon="0.70456">
        <ele>177.5</ele>
        <time>2014-7-5T10:44:40.000Z</time>
      </trkpt>
      <trkpt lat="44.51944" lon="0.70452">
        <ele>176.5</ele>
        <time>2014-7-5T10:44:40.000Z</time>
      </trkpt>
      <trkpt lat="44.51944" lon="0.70452">
        <ele>176.5</ele>
        <time>2014-7-5T10:44:40.000Z</time>
      </trkpt>
      <trkpt lat="44.51944" lon="0.70447">
        <ele>175.5</ele>
        <time>2014-7-5T10:44:40.000Z</time>
      </trkpt>
      <trkpt lat="44.51944" lon="0.70447">
        <ele>175.5</ele>
        <time>2014-7-5T10:44:40.000Z</time>
      </trkpt>
      <trkpt lat="44.51945" lon="0.70443">
        <ele>175.5</ele>
        <time>2014-7-5T10:44:40.000Z</time>
      </trkpt>
      <trkpt lat="44.51945" lon="0.70443">
        <ele>175.5</ele>
        <time>2014-7-5T10:44:40.000Z</time>
      </trkpt>
      <trkpt lat="44.51946" lon="0.70438">
        <ele>176.5</ele>
        <time>2014-7-5T10:44:40.000Z</time>
      </trkpt>
      <trkpt lat="44.51946" lon="0.70438">
        <ele>176.5</ele>
        <time>2014-7-5T10:44:40.000Z</time>
      </trkpt>
      <trkpt lat="44.51947" lon="0.70434">
        <ele>176.5</ele>
        <time>2014-7-5T10:44:40.000Z</time>
      </trkpt>
      <trkpt lat="44.51947" lon="0.70434">
        <ele>176.5</ele>
        <time>2014-7-5T10:44:40.000Z</time>
      </trkpt>
      <trkpt lat="44.51948" lon="0.70429">
        <ele>177.5</ele>
        <time>2014-7-5T10:44:40.000Z</time>
      </trkpt>
      <trkpt lat="44.51948" lon="0.70429">
        <ele>177.5</ele>
        <time>2014-7-5T10:44:40.000Z</time>
      </trkpt>
      <trkpt lat="44.51949" lon="0.70424">
        <ele>177.5</ele>
        <time>2014-7-5T10:44:40.000Z</time>
      </trkpt>
      <trkpt lat="44.51949" lon="0.70424">
        <ele>177.5</ele>
        <time>2014-7-5T10:44:40.000Z</time>
      </trkpt>
      <trkpt lat="44.51949" lon="0.70419">
        <ele>178.5</ele>
        <time>2014-7-5T10:44:40.000Z</time>
      </trkpt>
      <trkpt lat="44.51949" lon="0.70419">
        <ele>178.5</ele>
        <time>2014-7-5T10:44:40.000Z</time>
      </trkpt>
      <trkpt lat="44.5195" lon="0.70414">
        <ele>179.5</ele>
        <time>2014-7-5T10:44:40.000Z</time>
      </trkpt>
      <trkpt lat="44.5195" lon="0.70414">
        <ele>179.5</ele>
        <time>2014-7-5T10:44:40.000Z</time>
      </trkpt>
      <trkpt lat="44.51951" lon="0.70409">
        <ele>177.5</ele>
        <time>2014-7-5T10:44:40.000Z</time>
      </trkpt>
      <trkpt lat="44.51951" lon="0.70409">
        <ele>177.5</ele>
        <time>2014-7-5T10:44:40.000Z</time>
      </trkpt>
      <trkpt lat="44.51952" lon="0.70405">
        <ele>178.5</ele>
        <time>2014-7-5T10:44:40.000Z</time>
      </trkpt>
      <trkpt lat="44.51952" lon="0.70405">
        <ele>178.5</ele>
        <time>2014-7-5T10:44:40.000Z</time>
      </trkpt>
      <trkpt lat="44.51954" lon="0.704">
        <ele>177.5</ele>
        <time>2014-7-5T10:44:40.000Z</time>
      </trkpt>
      <trkpt lat="44.51954" lon="0.704">
        <ele>177.5</ele>
        <time>2014-7-5T10:44:40.000Z</time>
      </trkpt>
      <trkpt lat="44.51955" lon="0.70396">
        <ele>178.5</ele>
        <time>2014-7-5T10:44:40.000Z</time>
      </trkpt>
      <trkpt lat="44.51955" lon="0.70396">
        <ele>178.5</ele>
        <time>2014-7-5T10:44:40.000Z</time>
      </trkpt>
      <trkpt lat="44.51955" lon="0.70394">
        <ele>179.5</ele>
        <time>2014-7-5T10:44:40.000Z</time>
      </trkpt>
      <trkpt lat="44.51955" lon="0.70394">
        <ele>179.5</ele>
        <time>2014-7-5T10:44:40.000Z</time>
      </trkpt>
      <trkpt lat="44.51956" lon="0.70391">
        <ele>180.5</ele>
        <time>2014-7-5T10:44:40.000Z</time>
      </trkpt>
      <trkpt lat="44.51956" lon="0.70391">
        <ele>180.5</ele>
        <time>2014-7-5T10:44:40.000Z</time>
      </trkpt>
      <trkpt lat="44.51958" lon="0.70387">
        <ele>177.5</ele>
        <time>2014-7-5T10:44:40.000Z</time>
      </trkpt>
      <trkpt lat="44.51958" lon="0.70387">
        <ele>177.5</ele>
        <time>2014-7-5T10:44:40.000Z</time>
      </trkpt>
      <trkpt lat="44.51958" lon="0.70384">
        <ele>177.5</ele>
        <time>2014-7-5T10:44:40.000Z</time>
      </trkpt>
      <trkpt lat="44.51958" lon="0.70384">
        <ele>177.5</ele>
        <time>2014-7-5T10:44:40.000Z</time>
      </trkpt>
      <trkpt lat="44.51958" lon="0.70381">
        <ele>177.5</ele>
        <time>2014-7-5T10:44:40.000Z</time>
      </trkpt>
      <trkpt lat="44.51958" lon="0.70381">
        <ele>177.5</ele>
        <time>2014-7-5T10:44:40.000Z</time>
      </trkpt>
      <trkpt lat="44.51959" lon="0.70379">
        <ele>178.5</ele>
        <time>2014-7-5T10:44:40.000Z</time>
      </trkpt>
      <trkpt lat="44.51959" lon="0.70379">
        <ele>178.5</ele>
        <time>2014-7-5T10:44:40.000Z</time>
      </trkpt>
      <trkpt lat="44.51959" lon="0.70376">
        <ele>178.5</ele>
        <time>2014-7-5T10:44:40.000Z</time>
      </trkpt>
      <trkpt lat="44.51959" lon="0.70376">
        <ele>178.5</ele>
        <time>2014-7-5T10:44:40.000Z</time>
      </trkpt>
      <trkpt lat="44.5196" lon="0.70373">
        <ele>177.5</ele>
        <time>2014-7-5T10:44:40.000Z</time>
      </trkpt>
      <trkpt lat="44.5196" lon="0.70373">
        <ele>177.5</ele>
        <time>2014-7-5T10:44:40.000Z</time>
      </trkpt>
      <trkpt lat="44.5196" lon="0.7037">
        <ele>176.5</ele>
        <time>2014-7-5T10:44:40.000Z</time>
      </trkpt>
      <trkpt lat="44.5196" lon="0.7037">
        <ele>176.5</ele>
        <time>2014-7-5T10:44:40.000Z</time>
      </trkpt>
      <trkpt lat="44.51961" lon="0.70366">
        <ele>176.5</ele>
        <time>2014-7-5T10:44:40.000Z</time>
      </trkpt>
      <trkpt lat="44.51961" lon="0.70366">
        <ele>176.5</ele>
        <time>2014-7-5T10:44:40.000Z</time>
      </trkpt>
      <trkpt lat="44.51963" lon="0.70362">
        <ele>177.5</ele>
        <time>2014-7-5T10:44:40.000Z</time>
      </trkpt>
      <trkpt lat="44.51963" lon="0.70362">
        <ele>177.5</ele>
        <time>2014-7-5T10:44:40.000Z</time>
      </trkpt>
      <trkpt lat="44.51965" lon="0.70357">
        <ele>177.5</ele>
        <time>2014-7-5T10:44:40.000Z</time>
      </trkpt>
      <trkpt lat="44.51965" lon="0.70357">
        <ele>177.5</ele>
        <time>2014-7-5T10:44:40.000Z</time>
      </trkpt>
      <trkpt lat="44.51968" lon="0.70351">
        <ele>177.5</ele>
        <time>2014-7-5T10:44:40.000Z</time>
      </trkpt>
      <trkpt lat="44.51968" lon="0.70351">
        <ele>177.5</ele>
        <time>2014-7-5T10:46:51.000Z</time>
      </trkpt>
      <trkpt lat="44.51971" lon="0.70346">
        <ele>178.5</ele>
        <time>2014-7-5T10:46:51.000Z</time>
      </trkpt>
      <trkpt lat="44.51971" lon="0.70346">
        <ele>178.5</ele>
        <time>2014-7-5T10:46:51.000Z</time>
      </trkpt>
      <trkpt lat="44.51974" lon="0.70342">
        <ele>177.5</ele>
        <time>2014-7-5T10:46:51.000Z</time>
      </trkpt>
      <trkpt lat="44.51974" lon="0.70342">
        <ele>177.5</ele>
        <time>2014-7-5T10:46:51.000Z</time>
      </trkpt>
      <trkpt lat="44.51976" lon="0.70338">
        <ele>177.5</ele>
        <time>2014-7-5T10:46:51.000Z</time>
      </trkpt>
      <trkpt lat="44.51976" lon="0.70338">
        <ele>177.5</ele>
        <time>2014-7-5T10:46:51.000Z</time>
      </trkpt>
      <trkpt lat="44.51976" lon="0.70335">
        <ele>178.5</ele>
        <time>2014-7-5T10:46:51.000Z</time>
      </trkpt>
      <trkpt lat="44.51976" lon="0.70335">
        <ele>178.5</ele>
        <time>2014-7-5T10:46:51.000Z</time>
      </trkpt>
      <trkpt lat="44.51974" lon="0.70335">
        <ele>176.5</ele>
        <time>2014-7-5T10:46:51.000Z</time>
      </trkpt>
      <trkpt lat="44.51974" lon="0.70335">
        <ele>176.5</ele>
        <time>2014-7-5T10:46:51.000Z</time>
      </trkpt>
      <trkpt lat="44.51972" lon="0.70335">
        <ele>175.5</ele>
        <time>2014-7-5T10:46:51.000Z</time>
      </trkpt>
      <trkpt lat="44.51972" lon="0.70335">
        <ele>175.5</ele>
        <time>2014-7-5T10:46:51.000Z</time>
      </trkpt>
      <trkpt lat="44.51971" lon="0.70337">
        <ele>176.5</ele>
        <time>2014-7-5T10:46:51.000Z</time>
      </trkpt>
      <trkpt lat="44.51971" lon="0.70337">
        <ele>176.5</ele>
        <time>2014-7-5T10:46:51.000Z</time>
      </trkpt>
      <trkpt lat="44.5197" lon="0.70342">
        <ele>176.5</ele>
        <time>2014-7-5T10:46:51.000Z</time>
      </trkpt>
      <trkpt lat="44.5197" lon="0.70342">
        <ele>176.5</ele>
        <time>2014-7-5T10:46:51.000Z</time>
      </trkpt>
      <trkpt lat="44.51968" lon="0.70346">
        <ele>176.5</ele>
        <time>2014-7-5T10:46:51.000Z</time>
      </trkpt>
      <trkpt lat="44.51968" lon="0.70346">
        <ele>176.5</ele>
        <time>2014-7-5T10:46:51.000Z</time>
      </trkpt>
      <trkpt lat="44.51966" lon="0.7035">
        <ele>175.5</ele>
        <time>2014-7-5T10:46:51.000Z</time>
      </trkpt>
      <trkpt lat="44.51966" lon="0.7035">
        <ele>175.5</ele>
        <time>2014-7-5T10:46:51.000Z</time>
      </trkpt>
      <trkpt lat="44.51965" lon="0.70353">
        <ele>176.5</ele>
        <time>2014-7-5T10:46:51.000Z</time>
      </trkpt>
      <trkpt lat="44.51965" lon="0.70353">
        <ele>176.5</ele>
        <time>2014-7-5T10:46:51.000Z</time>
      </trkpt>
      <trkpt lat="44.51962" lon="0.70355">
        <ele>176.5</ele>
        <time>2014-7-5T10:46:51.000Z</time>
      </trkpt>
      <trkpt lat="44.51962" lon="0.70355">
        <ele>176.5</ele>
        <time>2014-7-5T10:46:51.000Z</time>
      </trkpt>
      <trkpt lat="44.5196" lon="0.70358">
        <ele>176.5</ele>
        <time>2014-7-5T10:46:51.000Z</time>
      </trkpt>
      <trkpt lat="44.5196" lon="0.70358">
        <ele>176.5</ele>
        <time>2014-7-5T10:46:51.000Z</time>
      </trkpt>
      <trkpt lat="44.51959" lon="0.7036">
        <ele>178.5</ele>
        <time>2014-7-5T10:46:51.000Z</time>
      </trkpt>
      <trkpt lat="44.51959" lon="0.7036">
        <ele>178.5</ele>
        <time>2014-7-5T10:46:51.000Z</time>
      </trkpt>
      <trkpt lat="44.51957" lon="0.70366">
        <ele>177.5</ele>
        <time>2014-7-5T10:46:51.000Z</time>
      </trkpt>
      <trkpt lat="44.51957" lon="0.70366">
        <ele>177.5</ele>
        <time>2014-7-5T10:46:51.000Z</time>
      </trkpt>
      <trkpt lat="44.51957" lon="0.70369">
        <ele>176.5</ele>
        <time>2014-7-5T10:46:51.000Z</time>
      </trkpt>
      <trkpt lat="44.51957" lon="0.70369">
        <ele>176.5</ele>
        <time>2014-7-5T10:46:51.000Z</time>
      </trkpt>
      <trkpt lat="44.51957" lon="0.70372">
        <ele>175.5</ele>
        <time>2014-7-5T10:46:51.000Z</time>
      </trkpt>
      <trkpt lat="44.51957" lon="0.70372">
        <ele>175.5</ele>
        <time>2014-7-5T10:46:51.000Z</time>
      </trkpt>
      <trkpt lat="44.51956" lon="0.70376">
        <ele>176.5</ele>
        <time>2014-7-5T10:46:51.000Z</time>
      </trkpt>
      <trkpt lat="44.51956" lon="0.70376">
        <ele>176.5</ele>
        <time>2014-7-5T10:46:51.000Z</time>
      </trkpt>
      <trkpt lat="44.51955" lon="0.7038">
        <ele>175.5</ele>
        <time>2014-7-5T10:46:51.000Z</time>
      </trkpt>
      <trkpt lat="44.51955" lon="0.7038">
        <ele>175.5</ele>
        <time>2014-7-5T10:46:51.000Z</time>
      </trkpt>
      <trkpt lat="44.51954" lon="0.70384">
        <ele>174.5</ele>
        <time>2014-7-5T10:46:51.000Z</time>
      </trkpt>
      <trkpt lat="44.51954" lon="0.70384">
        <ele>174.5</ele>
        <time>2014-7-5T10:46:51.000Z</time>
      </trkpt>
      <trkpt lat="44.51953" lon="0.70389">
        <ele>176.5</ele>
        <time>2014-7-5T10:46:51.000Z</time>
      </trkpt>
      <trkpt lat="44.51953" lon="0.70389">
        <ele>176.5</ele>
        <time>2014-7-5T10:46:51.000Z</time>
      </trkpt>
      <trkpt lat="44.51951" lon="0.70393">
        <ele>176.5</ele>
        <time>2014-7-5T10:46:51.000Z</time>
      </trkpt>
      <trkpt lat="44.51951" lon="0.70393">
        <ele>176.5</ele>
        <time>2014-7-5T10:46:51.000Z</time>
      </trkpt>
      <trkpt lat="44.5195" lon="0.70397">
        <ele>175.5</ele>
        <time>2014-7-5T10:46:51.000Z</time>
      </trkpt>
      <trkpt lat="44.5195" lon="0.70397">
        <ele>175.5</ele>
        <time>2014-7-5T10:46:51.000Z</time>
      </trkpt>
      <trkpt lat="44.51949" lon="0.70399">
        <ele>176.5</ele>
        <time>2014-7-5T10:46:51.000Z</time>
      </trkpt>
      <trkpt lat="44.51949" lon="0.70399">
        <ele>176.5</ele>
        <time>2014-7-5T10:46:51.000Z</time>
      </trkpt>
      <trkpt lat="44.51946" lon="0.70401">
        <ele>175.5</ele>
        <time>2014-7-5T10:46:51.000Z</time>
      </trkpt>
      <trkpt lat="44.51946" lon="0.70401">
        <ele>175.5</ele>
        <time>2014-7-5T10:46:51.000Z</time>
      </trkpt>
      <trkpt lat="44.51943" lon="0.70402">
        <ele>175.5</ele>
        <time>2014-7-5T10:46:51.000Z</time>
      </trkpt>
      <trkpt lat="44.51943" lon="0.70402">
        <ele>175.5</ele>
        <time>2014-7-5T10:46:51.000Z</time>
      </trkpt>
      <trkpt lat="44.5194" lon="0.70401">
        <ele>177.5</ele>
        <time>2014-7-5T10:46:51.000Z</time>
      </trkpt>
      <trkpt lat="44.5194" lon="0.70401">
        <ele>177.5</ele>
        <time>2014-7-5T10:46:51.000Z</time>
      </trkpt>
      <trkpt lat="44.51938" lon="0.704">
        <ele>178.5</ele>
        <time>2014-7-5T10:46:51.000Z</time>
      </trkpt>
      <trkpt lat="44.51938" lon="0.704">
        <ele>178.5</ele>
        <time>2014-7-5T10:46:51.000Z</time>
      </trkpt>
      <trkpt lat="44.51936" lon="0.704">
        <ele>180.5</ele>
        <time>2014-7-5T10:46:51.000Z</time>
      </trkpt>
      <trkpt lat="44.51936" lon="0.704">
        <ele>180.5</ele>
        <time>2014-7-5T10:46:51.000Z</time>
      </trkpt>
      <trkpt lat="44.51934" lon="0.70401">
        <ele>183.5</ele>
        <time>2014-7-5T10:46:51.000Z</time>
      </trkpt>
      <trkpt lat="44.51934" lon="0.70401">
        <ele>183.5</ele>
        <time>2014-7-5T10:46:51.000Z</time>
      </trkpt>
      <trkpt lat="44.51932" lon="0.70401">
        <ele>187.5</ele>
        <time>2014-7-5T10:46:51.000Z</time>
      </trkpt>
      <trkpt lat="44.51932" lon="0.70401">
        <ele>187.5</ele>
        <time>2014-7-5T10:46:51.000Z</time>
      </trkpt>
      <trkpt lat="44.5193" lon="0.70402">
        <ele>187.5</ele>
        <time>2014-7-5T10:46:51.000Z</time>
      </trkpt>
      <trkpt lat="44.5193" lon="0.70402">
        <ele>187.5</ele>
        <time>2014-7-5T10:46:51.000Z</time>
      </trkpt>
      <trkpt lat="44.51928" lon="0.70402">
        <ele>189.5</ele>
        <time>2014-7-5T10:46:51.000Z</time>
      </trkpt>
      <trkpt lat="44.51928" lon="0.70402">
        <ele>189.5</ele>
        <time>2014-7-5T10:46:51.000Z</time>
      </trkpt>
      <trkpt lat="44.51926" lon="0.70402">
        <ele>189.5</ele>
        <time>2014-7-5T10:46:51.000Z</time>
      </trkpt>
      <trkpt lat="44.51926" lon="0.70402">
        <ele>189.5</ele>
        <time>2014-7-5T10:46:51.000Z</time>
      </trkpt>
      <trkpt lat="44.51924" lon="0.70403">
        <ele>191.5</ele>
        <time>2014-7-5T10:46:51.000Z</time>
      </trkpt>
      <trkpt lat="44.51924" lon="0.70403">
        <ele>191.5</ele>
        <time>2014-7-5T10:46:51.000Z</time>
      </trkpt>
      <trkpt lat="44.51923" lon="0.70402">
        <ele>191.5</ele>
        <time>2014-7-5T10:46:51.000Z</time>
      </trkpt>
      <trkpt lat="44.51923" lon="0.70402">
        <ele>191.5</ele>
        <time>2014-7-5T10:46:51.000Z</time>
      </trkpt>
      <trkpt lat="44.51921" lon="0.70401">
        <ele>191.5</ele>
        <time>2014-7-5T10:46:51.000Z</time>
      </trkpt>
      <trkpt lat="44.51921" lon="0.70401">
        <ele>191.5</ele>
        <time>2014-7-5T10:46:51.000Z</time>
      </trkpt>
      <trkpt lat="44.51919" lon="0.70402">
        <ele>193.5</ele>
        <time>2014-7-5T10:46:51.000Z</time>
      </trkpt>
      <trkpt lat="44.51919" lon="0.70402">
        <ele>193.5</ele>
        <time>2014-7-5T10:46:51.000Z</time>
      </trkpt>
      <trkpt lat="44.51916" lon="0.70402">
        <ele>192.5</ele>
        <time>2014-7-5T10:46:51.000Z</time>
      </trkpt>
      <trkpt lat="44.51916" lon="0.70402">
        <ele>192.5</ele>
        <time>2014-7-5T10:46:51.000Z</time>
      </trkpt>
      <trkpt lat="44.51914" lon="0.70402">
        <ele>193.5</ele>
        <time>2014-7-5T10:46:51.000Z</time>
      </trkpt>
      <trkpt lat="44.51914" lon="0.70402">
        <ele>193.5</ele>
        <time>2014-7-5T10:46:51.000Z</time>
      </trkpt>
      <trkpt lat="44.51912" lon="0.70402">
        <ele>193.5</ele>
        <time>2014-7-5T10:46:51.000Z</time>
      </trkpt>
      <trkpt lat="44.51912" lon="0.70402">
        <ele>193.5</ele>
        <time>2014-7-5T10:46:51.000Z</time>
      </trkpt>
      <trkpt lat="44.51909" lon="0.70402">
        <ele>195.5</ele>
        <time>2014-7-5T10:46:51.000Z</time>
      </trkpt>
      <trkpt lat="44.51909" lon="0.70402">
        <ele>195.5</ele>
        <time>2014-7-5T10:46:51.000Z</time>
      </trkpt>
      <trkpt lat="44.51907" lon="0.70401">
        <ele>198.5</ele>
        <time>2014-7-5T10:46:51.000Z</time>
      </trkpt>
      <trkpt lat="44.51907" lon="0.70401">
        <ele>198.5</ele>
        <time>2014-7-5T10:46:51.000Z</time>
      </trkpt>
      <trkpt lat="44.51905" lon="0.704">
        <ele>200.5</ele>
        <time>2014-7-5T10:46:51.000Z</time>
      </trkpt>
      <trkpt lat="44.51905" lon="0.704">
        <ele>200.5</ele>
        <time>2014-7-5T10:46:51.000Z</time>
      </trkpt>
      <trkpt lat="44.51903" lon="0.704">
        <ele>201.5</ele>
        <time>2014-7-5T10:46:51.000Z</time>
      </trkpt>
      <trkpt lat="44.51903" lon="0.704">
        <ele>201.5</ele>
        <time>2014-7-5T10:46:51.000Z</time>
      </trkpt>
      <trkpt lat="44.519" lon="0.704">
        <ele>201.5</ele>
        <time>2014-7-5T10:46:51.000Z</time>
      </trkpt>
      <trkpt lat="44.519" lon="0.704">
        <ele>201.5</ele>
        <time>2014-7-5T10:46:51.000Z</time>
      </trkpt>
      <trkpt lat="44.51898" lon="0.70399">
        <ele>201.5</ele>
        <time>2014-7-5T10:46:51.000Z</time>
      </trkpt>
      <trkpt lat="44.51898" lon="0.70399">
        <ele>201.5</ele>
        <time>2014-7-5T10:46:51.000Z</time>
      </trkpt>
      <trkpt lat="44.51896" lon="0.70399">
        <ele>202.5</ele>
        <time>2014-7-5T10:46:51.000Z</time>
      </trkpt>
      <trkpt lat="44.51896" lon="0.70399">
        <ele>202.5</ele>
        <time>2014-7-5T10:46:51.000Z</time>
      </trkpt>
      <trkpt lat="44.51894" lon="0.70398">
        <ele>202.5</ele>
        <time>2014-7-5T10:46:51.000Z</time>
      </trkpt>
      <trkpt lat="44.51894" lon="0.70398">
        <ele>202.5</ele>
        <time>2014-7-5T10:46:51.000Z</time>
      </trkpt>
      <trkpt lat="44.51892" lon="0.70398">
        <ele>203.5</ele>
        <time>2014-7-5T10:46:51.000Z</time>
      </trkpt>
      <trkpt lat="44.51892" lon="0.70398">
        <ele>203.5</ele>
        <time>2014-7-5T10:46:51.000Z</time>
      </trkpt>
      <trkpt lat="44.51889" lon="0.70399">
        <ele>204.5</ele>
        <time>2014-7-5T10:49:9.000Z</time>
      </trkpt>
      <trkpt lat="44.51889" lon="0.70399">
        <ele>204.5</ele>
        <time>2014-7-5T10:49:9.000Z</time>
      </trkpt>
      <trkpt lat="44.51887" lon="0.70398">
        <ele>203.5</ele>
        <time>2014-7-5T10:49:9.000Z</time>
      </trkpt>
      <trkpt lat="44.51887" lon="0.70398">
        <ele>203.5</ele>
        <time>2014-7-5T10:49:9.000Z</time>
      </trkpt>
      <trkpt lat="44.51886" lon="0.70398">
        <ele>204.5</ele>
        <time>2014-7-5T10:49:9.000Z</time>
      </trkpt>
      <trkpt lat="44.51886" lon="0.70398">
        <ele>204.5</ele>
        <time>2014-7-5T10:49:9.000Z</time>
      </trkpt>
      <trkpt lat="44.51883" lon="0.70398">
        <ele>203.5</ele>
        <time>2014-7-5T10:49:9.000Z</time>
      </trkpt>
      <trkpt lat="44.51883" lon="0.70398">
        <ele>203.5</ele>
        <time>2014-7-5T10:49:9.000Z</time>
      </trkpt>
      <trkpt lat="44.51881" lon="0.70399">
        <ele>203.5</ele>
        <time>2014-7-5T10:49:9.000Z</time>
      </trkpt>
      <trkpt lat="44.51881" lon="0.70399">
        <ele>203.5</ele>
        <time>2014-7-5T10:49:9.000Z</time>
      </trkpt>
      <trkpt lat="44.51879" lon="0.70399">
        <ele>203.5</ele>
        <time>2014-7-5T10:49:9.000Z</time>
      </trkpt>
      <trkpt lat="44.51879" lon="0.70399">
        <ele>203.5</ele>
        <time>2014-7-5T10:49:9.000Z</time>
      </trkpt>
      <trkpt lat="44.51877" lon="0.70397">
        <ele>207.5</ele>
        <time>2014-7-5T10:49:9.000Z</time>
      </trkpt>
      <trkpt lat="44.51877" lon="0.70397">
        <ele>207.5</ele>
        <time>2014-7-5T10:49:9.000Z</time>
      </trkpt>
      <trkpt lat="44.51875" lon="0.70397">
        <ele>206.5</ele>
        <time>2014-7-5T10:49:9.000Z</time>
      </trkpt>
      <trkpt lat="44.51875" lon="0.70397">
        <ele>206.5</ele>
        <time>2014-7-5T10:49:9.000Z</time>
      </trkpt>
      <trkpt lat="44.51873" lon="0.70397">
        <ele>207.5</ele>
        <time>2014-7-5T10:49:9.000Z</time>
      </trkpt>
      <trkpt lat="44.51873" lon="0.70397">
        <ele>207.5</ele>
        <time>2014-7-5T10:49:9.000Z</time>
      </trkpt>
      <trkpt lat="44.51871" lon="0.70396">
        <ele>209.5</ele>
        <time>2014-7-5T10:49:9.000Z</time>
      </trkpt>
      <trkpt lat="44.51871" lon="0.70396">
        <ele>209.5</ele>
        <time>2014-7-5T10:49:9.000Z</time>
      </trkpt>
      <trkpt lat="44.51869" lon="0.70396">
        <ele>210.5</ele>
        <time>2014-7-5T10:49:9.000Z</time>
      </trkpt>
      <trkpt lat="44.51869" lon="0.70396">
        <ele>210.5</ele>
        <time>2014-7-5T10:49:9.000Z</time>
      </trkpt>
      <trkpt lat="44.51867" lon="0.70396">
        <ele>210.5</ele>
        <time>2014-7-5T10:49:9.000Z</time>
      </trkpt>
      <trkpt lat="44.51867" lon="0.70396">
        <ele>210.5</ele>
        <time>2014-7-5T10:49:9.000Z</time>
      </trkpt>
      <trkpt lat="44.51865" lon="0.70395">
        <ele>210.5</ele>
        <time>2014-7-5T10:49:9.000Z</time>
      </trkpt>
      <trkpt lat="44.51865" lon="0.70395">
        <ele>210.5</ele>
        <time>2014-7-5T10:49:9.000Z</time>
      </trkpt>
      <trkpt lat="44.51864" lon="0.70394">
        <ele>209.5</ele>
        <time>2014-7-5T10:49:9.000Z</time>
      </trkpt>
      <trkpt lat="44.51864" lon="0.70394">
        <ele>209.5</ele>
        <time>2014-7-5T10:49:9.000Z</time>
      </trkpt>
      <trkpt lat="44.51862" lon="0.70394">
        <ele>210.5</ele>
        <time>2014-7-5T10:49:9.000Z</time>
      </trkpt>
      <trkpt lat="44.51862" lon="0.70394">
        <ele>210.5</ele>
        <time>2014-7-5T10:49:9.000Z</time>
      </trkpt>
      <trkpt lat="44.51859" lon="0.70393">
        <ele>211.5</ele>
        <time>2014-7-5T10:49:9.000Z</time>
      </trkpt>
      <trkpt lat="44.51859" lon="0.70393">
        <ele>211.5</ele>
        <time>2014-7-5T10:49:9.000Z</time>
      </trkpt>
      <trkpt lat="44.51857" lon="0.70393">
        <ele>210.5</ele>
        <time>2014-7-5T10:49:9.000Z</time>
      </trkpt>
      <trkpt lat="44.51857" lon="0.70393">
        <ele>210.5</ele>
        <time>2014-7-5T10:49:9.000Z</time>
      </trkpt>
      <trkpt lat="44.51855" lon="0.70394">
        <ele>211.5</ele>
        <time>2014-7-5T10:49:9.000Z</time>
      </trkpt>
      <trkpt lat="44.51855" lon="0.70394">
        <ele>211.5</ele>
        <time>2014-7-5T10:49:9.000Z</time>
      </trkpt>
      <trkpt lat="44.51853" lon="0.70393">
        <ele>214.5</ele>
        <time>2014-7-5T10:49:9.000Z</time>
      </trkpt>
      <trkpt lat="44.51853" lon="0.70393">
        <ele>214.5</ele>
        <time>2014-7-5T10:49:9.000Z</time>
      </trkpt>
      <trkpt lat="44.5185" lon="0.70392">
        <ele>215.5</ele>
        <time>2014-7-5T10:49:9.000Z</time>
      </trkpt>
      <trkpt lat="44.5185" lon="0.70392">
        <ele>215.5</ele>
        <time>2014-7-5T10:49:9.000Z</time>
      </trkpt>
      <trkpt lat="44.51848" lon="0.70392">
        <ele>215.5</ele>
        <time>2014-7-5T10:49:9.000Z</time>
      </trkpt>
      <trkpt lat="44.51848" lon="0.70392">
        <ele>215.5</ele>
        <time>2014-7-5T10:49:9.000Z</time>
      </trkpt>
      <trkpt lat="44.51846" lon="0.70392">
        <ele>214.5</ele>
        <time>2014-7-5T10:49:9.000Z</time>
      </trkpt>
      <trkpt lat="44.51846" lon="0.70392">
        <ele>214.5</ele>
        <time>2014-7-5T10:49:9.000Z</time>
      </trkpt>
      <trkpt lat="44.51845" lon="0.70392">
        <ele>216.5</ele>
        <time>2014-7-5T10:49:9.000Z</time>
      </trkpt>
      <trkpt lat="44.51845" lon="0.70392">
        <ele>216.5</ele>
        <time>2014-7-5T10:49:9.000Z</time>
      </trkpt>
      <trkpt lat="44.51843" lon="0.70391">
        <ele>216.5</ele>
        <time>2014-7-5T10:49:9.000Z</time>
      </trkpt>
      <trkpt lat="44.51843" lon="0.70391">
        <ele>216.5</ele>
        <time>2014-7-5T10:49:9.000Z</time>
      </trkpt>
      <trkpt lat="44.51841" lon="0.7039">
        <ele>217.5</ele>
        <time>2014-7-5T10:49:9.000Z</time>
      </trkpt>
      <trkpt lat="44.51841" lon="0.7039">
        <ele>217.5</ele>
        <time>2014-7-5T10:49:9.000Z</time>
      </trkpt>
      <trkpt lat="44.51839" lon="0.70389">
        <ele>216.5</ele>
        <time>2014-7-5T10:49:9.000Z</time>
      </trkpt>
      <trkpt lat="44.51839" lon="0.70389">
        <ele>216.5</ele>
        <time>2014-7-5T10:49:9.000Z</time>
      </trkpt>
      <trkpt lat="44.51837" lon="0.70387">
        <ele>214.5</ele>
        <time>2014-7-5T10:49:9.000Z</time>
      </trkpt>
      <trkpt lat="44.51837" lon="0.70387">
        <ele>214.5</ele>
        <time>2014-7-5T10:49:9.000Z</time>
      </trkpt>
      <trkpt lat="44.51837" lon="0.70384">
        <ele>217.5</ele>
        <time>2014-7-5T10:49:9.000Z</time>
      </trkpt>
      <trkpt lat="44.51837" lon="0.70384">
        <ele>217.5</ele>
        <time>2014-7-5T10:49:9.000Z</time>
      </trkpt>
      <trkpt lat="44.51838" lon="0.70378">
        <ele>218.5</ele>
        <time>2014-7-5T10:49:9.000Z</time>
      </trkpt>
      <trkpt lat="44.51838" lon="0.70378">
        <ele>218.5</ele>
        <time>2014-7-5T10:49:9.000Z</time>
      </trkpt>
      <trkpt lat="44.51838" lon="0.70373">
        <ele>218.5</ele>
        <time>2014-7-5T10:49:9.000Z</time>
      </trkpt>
      <trkpt lat="44.51838" lon="0.70373">
        <ele>218.5</ele>
        <time>2014-7-5T10:49:9.000Z</time>
      </trkpt>
      <trkpt lat="44.51838" lon="0.70369">
        <ele>219.5</ele>
        <time>2014-7-5T10:49:9.000Z</time>
      </trkpt>
      <trkpt lat="44.51838" lon="0.70369">
        <ele>219.5</ele>
        <time>2014-7-5T10:49:9.000Z</time>
      </trkpt>
      <trkpt lat="44.51837" lon="0.70365">
        <ele>219.5</ele>
        <time>2014-7-5T10:49:9.000Z</time>
      </trkpt>
      <trkpt lat="44.51837" lon="0.70365">
        <ele>219.5</ele>
        <time>2014-7-5T10:49:9.000Z</time>
      </trkpt>
      <trkpt lat="44.51837" lon="0.7036">
        <ele>218.5</ele>
        <time>2014-7-5T10:49:9.000Z</time>
      </trkpt>
      <trkpt lat="44.51837" lon="0.7036">
        <ele>218.5</ele>
        <time>2014-7-5T10:49:9.000Z</time>
      </trkpt>
      <trkpt lat="44.51836" lon="0.70358">
        <ele>217.5</ele>
        <time>2014-7-5T10:49:9.000Z</time>
      </trkpt>
      <trkpt lat="44.51836" lon="0.70358">
        <ele>217.5</ele>
        <time>2014-7-5T10:49:9.000Z</time>
      </trkpt>
      <trkpt lat="44.51836" lon="0.70355">
        <ele>217.5</ele>
        <time>2014-7-5T10:49:9.000Z</time>
      </trkpt>
      <trkpt lat="44.51836" lon="0.70355">
        <ele>217.5</ele>
        <time>2014-7-5T10:49:9.000Z</time>
      </trkpt>
      <trkpt lat="44.51836" lon="0.70351">
        <ele>217.5</ele>
        <time>2014-7-5T10:49:9.000Z</time>
      </trkpt>
      <trkpt lat="44.51836" lon="0.70351">
        <ele>217.5</ele>
        <time>2014-7-5T10:49:9.000Z</time>
      </trkpt>
      <trkpt lat="44.51835" lon="0.70348">
        <ele>217.5</ele>
        <time>2014-7-5T10:49:9.000Z</time>
      </trkpt>
      <trkpt lat="44.51835" lon="0.70348">
        <ele>217.5</ele>
        <time>2014-7-5T10:49:9.000Z</time>
      </trkpt>
      <trkpt lat="44.51835" lon="0.70345">
        <ele>217.5</ele>
        <time>2014-7-5T10:49:9.000Z</time>
      </trkpt>
      <trkpt lat="44.51835" lon="0.70345">
        <ele>217.5</ele>
        <time>2014-7-5T10:49:9.000Z</time>
      </trkpt>
      <trkpt lat="44.51834" lon="0.70341">
        <ele>217.5</ele>
        <time>2014-7-5T10:49:9.000Z</time>
      </trkpt>
      <trkpt lat="44.51834" lon="0.70341">
        <ele>217.5</ele>
        <time>2014-7-5T10:49:9.000Z</time>
      </trkpt>
      <trkpt lat="44.51834" lon="0.70338">
        <ele>217.5</ele>
        <time>2014-7-5T10:49:9.000Z</time>
      </trkpt>
      <trkpt lat="44.51834" lon="0.70338">
        <ele>217.5</ele>
        <time>2014-7-5T10:49:9.000Z</time>
      </trkpt>
      <trkpt lat="44.51833" lon="0.70335">
        <ele>217.5</ele>
        <time>2014-7-5T10:49:9.000Z</time>
      </trkpt>
      <trkpt lat="44.51833" lon="0.70335">
        <ele>217.5</ele>
        <time>2014-7-5T10:49:9.000Z</time>
      </trkpt>
      <trkpt lat="44.51832" lon="0.70332">
        <ele>217.5</ele>
        <time>2014-7-5T10:49:9.000Z</time>
      </trkpt>
      <trkpt lat="44.51832" lon="0.70332">
        <ele>217.5</ele>
        <time>2014-7-5T10:49:9.000Z</time>
      </trkpt>
      <trkpt lat="44.51832" lon="0.70328">
        <ele>217.5</ele>
        <time>2014-7-5T10:49:9.000Z</time>
      </trkpt>
      <trkpt lat="44.51832" lon="0.70328">
        <ele>217.5</ele>
        <time>2014-7-5T10:49:9.000Z</time>
      </trkpt>
      <trkpt lat="44.51831" lon="0.70325">
        <ele>218.5</ele>
        <time>2014-7-5T10:49:9.000Z</time>
      </trkpt>
      <trkpt lat="44.51831" lon="0.70325">
        <ele>218.5</ele>
        <time>2014-7-5T10:49:9.000Z</time>
      </trkpt>
      <trkpt lat="44.5183" lon="0.70322">
        <ele>218.5</ele>
        <time>2014-7-5T10:49:9.000Z</time>
      </trkpt>
      <trkpt lat="44.5183" lon="0.70322">
        <ele>218.5</ele>
        <time>2014-7-5T10:49:9.000Z</time>
      </trkpt>
      <trkpt lat="44.5183" lon="0.70319">
        <ele>215.5</ele>
        <time>2014-7-5T10:49:9.000Z</time>
      </trkpt>
      <trkpt lat="44.5183" lon="0.70319">
        <ele>215.5</ele>
        <time>2014-7-5T10:49:9.000Z</time>
      </trkpt>
      <trkpt lat="44.51829" lon="0.70316">
        <ele>214.5</ele>
        <time>2014-7-5T10:49:9.000Z</time>
      </trkpt>
      <trkpt lat="44.51829" lon="0.70316">
        <ele>214.5</ele>
        <time>2014-7-5T10:49:9.000Z</time>
      </trkpt>
      <trkpt lat="44.51828" lon="0.70314">
        <ele>214.5</ele>
        <time>2014-7-5T10:49:9.000Z</time>
      </trkpt>
      <trkpt lat="44.51828" lon="0.70314">
        <ele>214.5</ele>
        <time>2014-7-5T10:49:9.000Z</time>
      </trkpt>
      <trkpt lat="44.51826" lon="0.70313">
        <ele>212.5</ele>
        <time>2014-7-5T10:49:9.000Z</time>
      </trkpt>
      <trkpt lat="44.51826" lon="0.70313">
        <ele>212.5</ele>
        <time>2014-7-5T10:49:9.000Z</time>
      </trkpt>
      <trkpt lat="44.51824" lon="0.70314">
        <ele>213.5</ele>
        <time>2014-7-5T10:49:9.000Z</time>
      </trkpt>
      <trkpt lat="44.51824" lon="0.70314">
        <ele>213.5</ele>
        <time>2014-7-5T10:49:9.000Z</time>
      </trkpt>
      <trkpt lat="44.51821" lon="0.70312">
        <ele>213.5</ele>
        <time>2014-7-5T10:49:9.000Z</time>
      </trkpt>
      <trkpt lat="44.51821" lon="0.70312">
        <ele>213.5</ele>
        <time>2014-7-5T10:50:3.000Z</time>
      </trkpt>
      <trkpt lat="44.5182" lon="0.70308">
        <ele>213.5</ele>
        <time>2014-7-5T10:50:3.000Z</time>
      </trkpt>
      <trkpt lat="44.5182" lon="0.70308">
        <ele>213.5</ele>
        <time>2014-7-5T10:50:3.000Z</time>
      </trkpt>
      <trkpt lat="44.51819" lon="0.70304">
        <ele>212.5</ele>
        <time>2014-7-5T10:50:3.000Z</time>
      </trkpt>
      <trkpt lat="44.51819" lon="0.70304">
        <ele>212.5</ele>
        <time>2014-7-5T10:50:3.000Z</time>
      </trkpt>
      <trkpt lat="44.51819" lon="0.70299">
        <ele>213.5</ele>
        <time>2014-7-5T10:50:3.000Z</time>
      </trkpt>
      <trkpt lat="44.51819" lon="0.70299">
        <ele>213.5</ele>
        <time>2014-7-5T10:50:3.000Z</time>
      </trkpt>
      <trkpt lat="44.51819" lon="0.70294">
        <ele>212.5</ele>
        <time>2014-7-5T10:50:3.000Z</time>
      </trkpt>
      <trkpt lat="44.51819" lon="0.70294">
        <ele>212.5</ele>
        <time>2014-7-5T10:50:3.000Z</time>
      </trkpt>
      <trkpt lat="44.5182" lon="0.70291">
        <ele>211.5</ele>
        <time>2014-7-5T10:50:3.000Z</time>
      </trkpt>
      <trkpt lat="44.5182" lon="0.70291">
        <ele>211.5</ele>
        <time>2014-7-5T10:50:3.000Z</time>
      </trkpt>
      <trkpt lat="44.5182" lon="0.70289">
        <ele>211.5</ele>
        <time>2014-7-5T10:50:3.000Z</time>
      </trkpt>
      <trkpt lat="44.5182" lon="0.70289">
        <ele>211.5</ele>
        <time>2014-7-5T10:50:3.000Z</time>
      </trkpt>
      <trkpt lat="44.51821" lon="0.70286">
        <ele>211.5</ele>
        <time>2014-7-5T10:50:3.000Z</time>
      </trkpt>
      <trkpt lat="44.51821" lon="0.70286">
        <ele>211.5</ele>
        <time>2014-7-5T10:50:3.000Z</time>
      </trkpt>
      <trkpt lat="44.51821" lon="0.70282">
        <ele>211.5</ele>
        <time>2014-7-5T10:50:3.000Z</time>
      </trkpt>
      <trkpt lat="44.51821" lon="0.70282">
        <ele>211.5</ele>
        <time>2014-7-5T10:50:3.000Z</time>
      </trkpt>
      <trkpt lat="44.51822" lon="0.70279">
        <ele>211.5</ele>
        <time>2014-7-5T10:50:3.000Z</time>
      </trkpt>
      <trkpt lat="44.51822" lon="0.70279">
        <ele>211.5</ele>
        <time>2014-7-5T10:50:3.000Z</time>
      </trkpt>
      <trkpt lat="44.51822" lon="0.70276">
        <ele>211.5</ele>
        <time>2014-7-5T10:50:3.000Z</time>
      </trkpt>
      <trkpt lat="44.51822" lon="0.70276">
        <ele>211.5</ele>
        <time>2014-7-5T10:50:3.000Z</time>
      </trkpt>
      <trkpt lat="44.51823" lon="0.70273">
        <ele>211.5</ele>
        <time>2014-7-5T10:50:3.000Z</time>
      </trkpt>
      <trkpt lat="44.51823" lon="0.70273">
        <ele>211.5</ele>
        <time>2014-7-5T10:50:3.000Z</time>
      </trkpt>
      <trkpt lat="44.51824" lon="0.7027">
        <ele>211.5</ele>
        <time>2014-7-5T10:50:3.000Z</time>
      </trkpt>
      <trkpt lat="44.51824" lon="0.7027">
        <ele>211.5</ele>
        <time>2014-7-5T10:50:3.000Z</time>
      </trkpt>
      <trkpt lat="44.51824" lon="0.70266">
        <ele>210.5</ele>
        <time>2014-7-5T10:50:3.000Z</time>
      </trkpt>
      <trkpt lat="44.51824" lon="0.70266">
        <ele>210.5</ele>
        <time>2014-7-5T10:50:3.000Z</time>
      </trkpt>
      <trkpt lat="44.51825" lon="0.70262">
        <ele>211.5</ele>
        <time>2014-7-5T10:50:3.000Z</time>
      </trkpt>
      <trkpt lat="44.51825" lon="0.70262">
        <ele>211.5</ele>
        <time>2014-7-5T10:50:3.000Z</time>
      </trkpt>
      <trkpt lat="44.51825" lon="0.70258">
        <ele>210.5</ele>
        <time>2014-7-5T10:50:3.000Z</time>
      </trkpt>
      <trkpt lat="44.51825" lon="0.70258">
        <ele>210.5</ele>
        <time>2014-7-5T10:50:3.000Z</time>
      </trkpt>
      <trkpt lat="44.51825" lon="0.70255">
        <ele>211.5</ele>
        <time>2014-7-5T10:50:3.000Z</time>
      </trkpt>
      <trkpt lat="44.51825" lon="0.70255">
        <ele>211.5</ele>
        <time>2014-7-5T10:50:3.000Z</time>
      </trkpt>
      <trkpt lat="44.51824" lon="0.70251">
        <ele>211.5</ele>
        <time>2014-7-5T10:50:3.000Z</time>
      </trkpt>
      <trkpt lat="44.51824" lon="0.70251">
        <ele>211.5</ele>
        <time>2014-7-5T10:50:3.000Z</time>
      </trkpt>
      <trkpt lat="44.51823" lon="0.70248">
        <ele>211.5</ele>
        <time>2014-7-5T10:50:3.000Z</time>
      </trkpt>
      <trkpt lat="44.51823" lon="0.70248">
        <ele>211.5</ele>
        <time>2014-7-5T10:50:3.000Z</time>
      </trkpt>
      <trkpt lat="44.51821" lon="0.70246">
        <ele>211.5</ele>
        <time>2014-7-5T10:50:3.000Z</time>
      </trkpt>
      <trkpt lat="44.51821" lon="0.70246">
        <ele>211.5</ele>
        <time>2014-7-5T10:50:3.000Z</time>
      </trkpt>
      <trkpt lat="44.51818" lon="0.70245">
        <ele>211.5</ele>
        <time>2014-7-5T10:50:3.000Z</time>
      </trkpt>
      <trkpt lat="44.51818" lon="0.70245">
        <ele>211.5</ele>
        <time>2014-7-5T10:50:3.000Z</time>
      </trkpt>
      <trkpt lat="44.51816" lon="0.70245">
        <ele>211.5</ele>
        <time>2014-7-5T10:50:3.000Z</time>
      </trkpt>
      <trkpt lat="44.51816" lon="0.70245">
        <ele>211.5</ele>
        <time>2014-7-5T10:50:3.000Z</time>
      </trkpt>
      <trkpt lat="44.51813" lon="0.70245">
        <ele>211.5</ele>
        <time>2014-7-5T10:50:3.000Z</time>
      </trkpt>
      <trkpt lat="44.51813" lon="0.70245">
        <ele>211.5</ele>
        <time>2014-7-5T10:50:3.000Z</time>
      </trkpt>
      <trkpt lat="44.5181" lon="0.70246">
        <ele>211.5</ele>
        <time>2014-7-5T10:50:3.000Z</time>
      </trkpt>
      <trkpt lat="44.5181" lon="0.70246">
        <ele>211.5</ele>
        <time>2014-7-5T10:50:3.000Z</time>
      </trkpt>
      <trkpt lat="44.51807" lon="0.70247">
        <ele>211.5</ele>
        <time>2014-7-5T10:50:3.000Z</time>
      </trkpt>
      <trkpt lat="44.51807" lon="0.70247">
        <ele>211.5</ele>
        <time>2014-7-5T10:50:3.000Z</time>
      </trkpt>
      <trkpt lat="44.51805" lon="0.70249">
        <ele>211.5</ele>
        <time>2014-7-5T10:50:3.000Z</time>
      </trkpt>
      <trkpt lat="44.51805" lon="0.70249">
        <ele>211.5</ele>
        <time>2014-7-5T10:50:3.000Z</time>
      </trkpt>
      <trkpt lat="44.51802" lon="0.70251">
        <ele>210.5</ele>
        <time>2014-7-5T10:50:3.000Z</time>
      </trkpt>
      <trkpt lat="44.51802" lon="0.70251">
        <ele>210.5</ele>
        <time>2014-7-5T10:50:3.000Z</time>
      </trkpt>
      <trkpt lat="44.518" lon="0.70253">
        <ele>209.5</ele>
        <time>2014-7-5T10:50:3.000Z</time>
      </trkpt>
      <trkpt lat="44.518" lon="0.70253">
        <ele>209.5</ele>
        <time>2014-7-5T10:50:3.000Z</time>
      </trkpt>
      <trkpt lat="44.51798" lon="0.70254">
        <ele>210.5</ele>
        <time>2014-7-5T10:50:3.000Z</time>
      </trkpt>
      <trkpt lat="44.51798" lon="0.70254">
        <ele>210.5</ele>
        <time>2014-7-5T10:50:3.000Z</time>
      </trkpt>
      <trkpt lat="44.51796" lon="0.70256">
        <ele>210.5</ele>
        <time>2014-7-5T10:50:3.000Z</time>
      </trkpt>
      <trkpt lat="44.51796" lon="0.70256">
        <ele>210.5</ele>
        <time>2014-7-5T10:50:3.000Z</time>
      </trkpt>
      <trkpt lat="44.51794" lon="0.70258">
        <ele>210.5</ele>
        <time>2014-7-5T10:50:3.000Z</time>
      </trkpt>
      <trkpt lat="44.51794" lon="0.70258">
        <ele>210.5</ele>
        <time>2014-7-5T10:50:3.000Z</time>
      </trkpt>
      <trkpt lat="44.51792" lon="0.7026">
        <ele>209.5</ele>
        <time>2014-7-5T10:50:3.000Z</time>
      </trkpt>
      <trkpt lat="44.51792" lon="0.7026">
        <ele>209.5</ele>
        <time>2014-7-5T10:50:3.000Z</time>
      </trkpt>
      <trkpt lat="44.51788" lon="0.7026">
        <ele>208.5</ele>
        <time>2014-7-5T10:50:3.000Z</time>
      </trkpt>
      <trkpt lat="44.51788" lon="0.7026">
        <ele>208.5</ele>
        <time>2014-7-5T10:50:3.000Z</time>
      </trkpt>
      <trkpt lat="44.51787" lon="0.70256">
        <ele>208.5</ele>
        <time>2014-7-5T10:50:3.000Z</time>
      </trkpt>
      <trkpt lat="44.51787" lon="0.70256">
        <ele>208.5</ele>
        <time>2014-7-5T10:50:3.000Z</time>
      </trkpt>
      <trkpt lat="44.51789" lon="0.70253">
        <ele>207.5</ele>
        <time>2014-7-5T10:50:3.000Z</time>
      </trkpt>
      <trkpt lat="44.51789" lon="0.70253">
        <ele>207.5</ele>
        <time>2014-7-5T10:50:3.000Z</time>
      </trkpt>
      <trkpt lat="44.51791" lon="0.70251">
        <ele>207.5</ele>
        <time>2014-7-5T10:50:3.000Z</time>
      </trkpt>
      <trkpt lat="44.51791" lon="0.70251">
        <ele>207.5</ele>
        <time>2014-7-5T10:50:3.000Z</time>
      </trkpt>
      <trkpt lat="44.51792" lon="0.70248">
        <ele>207.5</ele>
        <time>2014-7-5T10:50:3.000Z</time>
      </trkpt>
      <trkpt lat="44.51792" lon="0.70248">
        <ele>207.5</ele>
        <time>2014-7-5T10:50:3.000Z</time>
      </trkpt>
      <trkpt lat="44.51794" lon="0.70245">
        <ele>207.5</ele>
        <time>2014-7-5T10:50:3.000Z</time>
      </trkpt>
      <trkpt lat="44.51794" lon="0.70245">
        <ele>207.5</ele>
        <time>2014-7-5T10:50:3.000Z</time>
      </trkpt>
      <trkpt lat="44.51796" lon="0.70243">
        <ele>207.5</ele>
        <time>2014-7-5T10:50:3.000Z</time>
      </trkpt>
      <trkpt lat="44.51796" lon="0.70243">
        <ele>207.5</ele>
        <time>2014-7-5T10:50:3.000Z</time>
      </trkpt>
      <trkpt lat="44.51798" lon="0.7024">
        <ele>206.5</ele>
        <time>2014-7-5T10:50:3.000Z</time>
      </trkpt>
      <trkpt lat="44.51798" lon="0.7024">
        <ele>206.5</ele>
        <time>2014-7-5T10:50:3.000Z</time>
      </trkpt>
      <trkpt lat="44.51799" lon="0.70237">
        <ele>206.5</ele>
        <time>2014-7-5T10:50:3.000Z</time>
      </trkpt>
      <trkpt lat="44.51799" lon="0.70237">
        <ele>206.5</ele>
        <time>2014-7-5T10:50:3.000Z</time>
      </trkpt>
      <trkpt lat="44.51801" lon="0.70234">
        <ele>206.5</ele>
        <time>2014-7-5T10:50:3.000Z</time>
      </trkpt>
      <trkpt lat="44.51801" lon="0.70234">
        <ele>206.5</ele>
        <time>2014-7-5T10:50:3.000Z</time>
      </trkpt>
      <trkpt lat="44.51802" lon="0.70231">
        <ele>205.5</ele>
        <time>2014-7-5T10:50:3.000Z</time>
      </trkpt>
      <trkpt lat="44.51802" lon="0.70231">
        <ele>205.5</ele>
        <time>2014-7-5T10:50:3.000Z</time>
      </trkpt>
      <trkpt lat="44.51803" lon="0.70227">
        <ele>205.5</ele>
        <time>2014-7-5T10:50:3.000Z</time>
      </trkpt>
      <trkpt lat="44.51803" lon="0.70227">
        <ele>205.5</ele>
        <time>2014-7-5T10:50:3.000Z</time>
      </trkpt>
      <trkpt lat="44.51806" lon="0.7022">
        <ele>205.5</ele>
        <time>2014-7-5T10:50:3.000Z</time>
      </trkpt>
      <trkpt lat="44.51806" lon="0.7022">
        <ele>205.5</ele>
        <time>2014-7-5T10:50:3.000Z</time>
      </trkpt>
      <trkpt lat="44.51808" lon="0.70216">
        <ele>204.5</ele>
        <time>2014-7-5T10:50:3.000Z</time>
      </trkpt>
      <trkpt lat="44.51808" lon="0.70216">
        <ele>204.5</ele>
        <time>2014-7-5T10:50:3.000Z</time>
      </trkpt>
      <trkpt lat="44.51811" lon="0.70213">
        <ele>204.5</ele>
        <time>2014-7-5T10:50:3.000Z</time>
      </trkpt>
      <trkpt lat="44.51811" lon="0.70213">
        <ele>204.5</ele>
        <time>2014-7-5T10:50:3.000Z</time>
      </trkpt>
      <trkpt lat="44.51813" lon="0.70209">
        <ele>203.5</ele>
        <time>2014-7-5T10:50:3.000Z</time>
      </trkpt>
      <trkpt lat="44.51813" lon="0.70209">
        <ele>203.5</ele>
        <time>2014-7-5T10:50:3.000Z</time>
      </trkpt>
      <trkpt lat="44.51815" lon="0.70205">
        <ele>202.5</ele>
        <time>2014-7-5T10:50:3.000Z</time>
      </trkpt>
      <trkpt lat="44.51815" lon="0.70205">
        <ele>202.5</ele>
        <time>2014-7-5T10:50:3.000Z</time>
      </trkpt>
      <trkpt lat="44.51817" lon="0.70201">
        <ele>202.5</ele>
        <time>2014-7-5T10:50:3.000Z</time>
      </trkpt>
      <trkpt lat="44.51817" lon="0.70201">
        <ele>202.5</ele>
        <time>2014-7-5T10:50:3.000Z</time>
      </trkpt>
      <trkpt lat="44.5182" lon="0.70197">
        <ele>203.5</ele>
        <time>2014-7-5T10:50:3.000Z</time>
      </trkpt>
      <trkpt lat="44.5182" lon="0.70197">
        <ele>203.5</ele>
        <time>2014-7-5T10:50:3.000Z</time>
      </trkpt>
      <trkpt lat="44.51822" lon="0.70193">
        <ele>203.5</ele>
        <time>2014-7-5T10:51:3.000Z</time>
      </trkpt>
      <trkpt lat="44.51822" lon="0.70193">
        <ele>203.5</ele>
        <time>2014-7-5T10:51:3.000Z</time>
      </trkpt>
      <trkpt lat="44.51825" lon="0.70188">
        <ele>203.5</ele>
        <time>2014-7-5T10:51:3.000Z</time>
      </trkpt>
      <trkpt lat="44.51825" lon="0.70188">
        <ele>203.5</ele>
        <time>2014-7-5T10:51:3.000Z</time>
      </trkpt>
      <trkpt lat="44.51827" lon="0.70184">
        <ele>202.5</ele>
        <time>2014-7-5T10:51:3.000Z</time>
      </trkpt>
      <trkpt lat="44.51827" lon="0.70184">
        <ele>202.5</ele>
        <time>2014-7-5T10:51:3.000Z</time>
      </trkpt>
      <trkpt lat="44.51829" lon="0.7018">
        <ele>204.5</ele>
        <time>2014-7-5T10:51:3.000Z</time>
      </trkpt>
      <trkpt lat="44.51829" lon="0.7018">
        <ele>204.5</ele>
        <time>2014-7-5T10:51:3.000Z</time>
      </trkpt>
      <trkpt lat="44.51831" lon="0.70175">
        <ele>204.5</ele>
        <time>2014-7-5T10:51:3.000Z</time>
      </trkpt>
      <trkpt lat="44.51831" lon="0.70175">
        <ele>204.5</ele>
        <time>2014-7-5T10:51:3.000Z</time>
      </trkpt>
      <trkpt lat="44.51832" lon="0.7017">
        <ele>204.5</ele>
        <time>2014-7-5T10:51:3.000Z</time>
      </trkpt>
      <trkpt lat="44.51832" lon="0.7017">
        <ele>204.5</ele>
        <time>2014-7-5T10:51:3.000Z</time>
      </trkpt>
      <trkpt lat="44.51834" lon="0.70166">
        <ele>202.5</ele>
        <time>2014-7-5T10:51:3.000Z</time>
      </trkpt>
      <trkpt lat="44.51834" lon="0.70166">
        <ele>202.5</ele>
        <time>2014-7-5T10:51:3.000Z</time>
      </trkpt>
      <trkpt lat="44.51835" lon="0.70161">
        <ele>202.5</ele>
        <time>2014-7-5T10:51:3.000Z</time>
      </trkpt>
      <trkpt lat="44.51835" lon="0.70161">
        <ele>202.5</ele>
        <time>2014-7-5T10:51:3.000Z</time>
      </trkpt>
      <trkpt lat="44.51837" lon="0.70157">
        <ele>202.5</ele>
        <time>2014-7-5T10:51:3.000Z</time>
      </trkpt>
      <trkpt lat="44.51837" lon="0.70157">
        <ele>202.5</ele>
        <time>2014-7-5T10:51:3.000Z</time>
      </trkpt>
      <trkpt lat="44.51838" lon="0.70155">
        <ele>201.5</ele>
        <time>2014-7-5T10:51:3.000Z</time>
      </trkpt>
      <trkpt lat="44.51838" lon="0.70155">
        <ele>201.5</ele>
        <time>2014-7-5T10:51:3.000Z</time>
      </trkpt>
      <trkpt lat="44.51838" lon="0.70152">
        <ele>201.5</ele>
        <time>2014-7-5T10:51:3.000Z</time>
      </trkpt>
      <trkpt lat="44.51838" lon="0.70152">
        <ele>201.5</ele>
        <time>2014-7-5T10:51:3.000Z</time>
      </trkpt>
      <trkpt lat="44.51839" lon="0.70149">
        <ele>202.5</ele>
        <time>2014-7-5T10:51:3.000Z</time>
      </trkpt>
      <trkpt lat="44.51839" lon="0.70149">
        <ele>202.5</ele>
        <time>2014-7-5T10:51:3.000Z</time>
      </trkpt>
      <trkpt lat="44.5184" lon="0.70146">
        <ele>200.5</ele>
        <time>2014-7-5T10:51:3.000Z</time>
      </trkpt>
      <trkpt lat="44.5184" lon="0.70146">
        <ele>200.5</ele>
        <time>2014-7-5T10:51:3.000Z</time>
      </trkpt>
      <trkpt lat="44.51841" lon="0.70143">
        <ele>200.5</ele>
        <time>2014-7-5T10:51:3.000Z</time>
      </trkpt>
      <trkpt lat="44.51841" lon="0.70143">
        <ele>200.5</ele>
        <time>2014-7-5T10:51:3.000Z</time>
      </trkpt>
      <trkpt lat="44.51841" lon="0.70139">
        <ele>200.5</ele>
        <time>2014-7-5T10:51:3.000Z</time>
      </trkpt>
      <trkpt lat="44.51841" lon="0.70139">
        <ele>200.5</ele>
        <time>2014-7-5T10:51:3.000Z</time>
      </trkpt>
      <trkpt lat="44.51841" lon="0.70132">
        <ele>201.5</ele>
        <time>2014-7-5T10:51:3.000Z</time>
      </trkpt>
      <trkpt lat="44.51841" lon="0.70132">
        <ele>201.5</ele>
        <time>2014-7-5T10:51:3.000Z</time>
      </trkpt>
      <trkpt lat="44.51842" lon="0.70129">
        <ele>200.5</ele>
        <time>2014-7-5T10:51:3.000Z</time>
      </trkpt>
      <trkpt lat="44.51842" lon="0.70129">
        <ele>200.5</ele>
        <time>2014-7-5T10:51:3.000Z</time>
      </trkpt>
      <trkpt lat="44.51842" lon="0.70126">
        <ele>199.5</ele>
        <time>2014-7-5T10:51:3.000Z</time>
      </trkpt>
      <trkpt lat="44.51842" lon="0.70126">
        <ele>199.5</ele>
        <time>2014-7-5T10:51:3.000Z</time>
      </trkpt>
      <trkpt lat="44.51843" lon="0.70122">
        <ele>199.5</ele>
        <time>2014-7-5T10:51:3.000Z</time>
      </trkpt>
      <trkpt lat="44.51843" lon="0.70122">
        <ele>199.5</ele>
        <time>2014-7-5T10:51:3.000Z</time>
      </trkpt>
      <trkpt lat="44.51843" lon="0.70119">
        <ele>198.5</ele>
        <time>2014-7-5T10:51:3.000Z</time>
      </trkpt>
      <trkpt lat="44.51843" lon="0.70119">
        <ele>198.5</ele>
        <time>2014-7-5T10:51:3.000Z</time>
      </trkpt>
      <trkpt lat="44.51843" lon="0.70116">
        <ele>198.5</ele>
        <time>2014-7-5T10:51:3.000Z</time>
      </trkpt>
      <trkpt lat="44.51843" lon="0.70116">
        <ele>198.5</ele>
        <time>2014-7-5T10:51:3.000Z</time>
      </trkpt>
      <trkpt lat="44.51844" lon="0.70112">
        <ele>198.5</ele>
        <time>2014-7-5T10:51:3.000Z</time>
      </trkpt>
      <trkpt lat="44.51844" lon="0.70112">
        <ele>198.5</ele>
        <time>2014-7-5T10:51:3.000Z</time>
      </trkpt>
      <trkpt lat="44.51844" lon="0.70109">
        <ele>197.5</ele>
        <time>2014-7-5T10:51:3.000Z</time>
      </trkpt>
      <trkpt lat="44.51844" lon="0.70109">
        <ele>197.5</ele>
        <time>2014-7-5T10:51:3.000Z</time>
      </trkpt>
      <trkpt lat="44.51845" lon="0.70105">
        <ele>197.5</ele>
        <time>2014-7-5T10:51:3.000Z</time>
      </trkpt>
      <trkpt lat="44.51845" lon="0.70105">
        <ele>197.5</ele>
        <time>2014-7-5T10:51:3.000Z</time>
      </trkpt>
      <trkpt lat="44.51845" lon="0.70102">
        <ele>197.5</ele>
        <time>2014-7-5T10:51:3.000Z</time>
      </trkpt>
      <trkpt lat="44.51845" lon="0.70102">
        <ele>197.5</ele>
        <time>2014-7-5T10:51:3.000Z</time>
      </trkpt>
      <trkpt lat="44.51846" lon="0.70098">
        <ele>197.5</ele>
        <time>2014-7-5T10:51:3.000Z</time>
      </trkpt>
      <trkpt lat="44.51846" lon="0.70098">
        <ele>197.5</ele>
        <time>2014-7-5T10:51:3.000Z</time>
      </trkpt>
      <trkpt lat="44.51846" lon="0.70095">
        <ele>197.5</ele>
        <time>2014-7-5T10:51:3.000Z</time>
      </trkpt>
      <trkpt lat="44.51846" lon="0.70095">
        <ele>197.5</ele>
        <time>2014-7-5T10:51:3.000Z</time>
      </trkpt>
      <trkpt lat="44.51847" lon="0.70087">
        <ele>196.5</ele>
        <time>2014-7-5T10:51:3.000Z</time>
      </trkpt>
      <trkpt lat="44.51847" lon="0.70087">
        <ele>196.5</ele>
        <time>2014-7-5T10:51:3.000Z</time>
      </trkpt>
      <trkpt lat="44.51848" lon="0.70082">
        <ele>196.5</ele>
        <time>2014-7-5T10:51:3.000Z</time>
      </trkpt>
      <trkpt lat="44.51848" lon="0.70082">
        <ele>196.5</ele>
        <time>2014-7-5T10:51:3.000Z</time>
      </trkpt>
      <trkpt lat="44.51848" lon="0.70078">
        <ele>196.5</ele>
        <time>2014-7-5T10:51:3.000Z</time>
      </trkpt>
      <trkpt lat="44.51848" lon="0.70078">
        <ele>196.5</ele>
        <time>2014-7-5T10:51:3.000Z</time>
      </trkpt>
      <trkpt lat="44.51849" lon="0.70074">
        <ele>196.5</ele>
        <time>2014-7-5T10:51:3.000Z</time>
      </trkpt>
      <trkpt lat="44.51849" lon="0.70074">
        <ele>196.5</ele>
        <time>2014-7-5T10:51:3.000Z</time>
      </trkpt>
      <trkpt lat="44.5185" lon="0.7007">
        <ele>197.5</ele>
        <time>2014-7-5T10:51:3.000Z</time>
      </trkpt>
      <trkpt lat="44.5185" lon="0.7007">
        <ele>197.5</ele>
        <time>2014-7-5T10:51:3.000Z</time>
      </trkpt>
      <trkpt lat="44.5185" lon="0.70066">
        <ele>198.5</ele>
        <time>2014-7-5T10:51:3.000Z</time>
      </trkpt>
      <trkpt lat="44.5185" lon="0.70066">
        <ele>198.5</ele>
        <time>2014-7-5T10:51:3.000Z</time>
      </trkpt>
      <trkpt lat="44.51851" lon="0.70063">
        <ele>198.5</ele>
        <time>2014-7-5T10:51:3.000Z</time>
      </trkpt>
      <trkpt lat="44.51851" lon="0.70063">
        <ele>198.5</ele>
        <time>2014-7-5T10:51:3.000Z</time>
      </trkpt>
      <trkpt lat="44.51851" lon="0.70059">
        <ele>198.5</ele>
        <time>2014-7-5T10:51:3.000Z</time>
      </trkpt>
      <trkpt lat="44.51851" lon="0.70059">
        <ele>198.5</ele>
        <time>2014-7-5T10:51:3.000Z</time>
      </trkpt>
      <trkpt lat="44.51851" lon="0.70056">
        <ele>198.5</ele>
        <time>2014-7-5T10:51:3.000Z</time>
      </trkpt>
      <trkpt lat="44.51851" lon="0.70056">
        <ele>198.5</ele>
        <time>2014-7-5T10:51:3.000Z</time>
      </trkpt>
      <trkpt lat="44.51851" lon="0.70052">
        <ele>199.5</ele>
        <time>2014-7-5T10:51:3.000Z</time>
      </trkpt>
      <trkpt lat="44.51851" lon="0.70052">
        <ele>199.5</ele>
        <time>2014-7-5T10:51:3.000Z</time>
      </trkpt>
      <trkpt lat="44.51852" lon="0.70048">
        <ele>199.5</ele>
        <time>2014-7-5T10:51:3.000Z</time>
      </trkpt>
      <trkpt lat="44.51852" lon="0.70048">
        <ele>199.5</ele>
        <time>2014-7-5T10:51:3.000Z</time>
      </trkpt>
      <trkpt lat="44.51853" lon="0.70044">
        <ele>199.5</ele>
        <time>2014-7-5T10:51:3.000Z</time>
      </trkpt>
      <trkpt lat="44.51853" lon="0.70044">
        <ele>199.5</ele>
        <time>2014-7-5T10:51:3.000Z</time>
      </trkpt>
      <trkpt lat="44.51853" lon="0.70041">
        <ele>200.5</ele>
        <time>2014-7-5T10:51:3.000Z</time>
      </trkpt>
      <trkpt lat="44.51853" lon="0.70041">
        <ele>200.5</ele>
        <time>2014-7-5T10:51:3.000Z</time>
      </trkpt>
      <trkpt lat="44.51854" lon="0.70038">
        <ele>200.5</ele>
        <time>2014-7-5T10:51:3.000Z</time>
      </trkpt>
      <trkpt lat="44.51854" lon="0.70038">
        <ele>200.5</ele>
        <time>2014-7-5T10:51:3.000Z</time>
      </trkpt>
      <trkpt lat="44.51854" lon="0.70035">
        <ele>200.5</ele>
        <time>2014-7-5T10:51:3.000Z</time>
      </trkpt>
      <trkpt lat="44.51854" lon="0.70035">
        <ele>200.5</ele>
        <time>2014-7-5T10:51:3.000Z</time>
      </trkpt>
      <trkpt lat="44.51854" lon="0.70032">
        <ele>200.5</ele>
        <time>2014-7-5T10:51:3.000Z</time>
      </trkpt>
      <trkpt lat="44.51854" lon="0.70032">
        <ele>200.5</ele>
        <time>2014-7-5T10:51:3.000Z</time>
      </trkpt>
      <trkpt lat="44.51854" lon="0.70029">
        <ele>199.5</ele>
        <time>2014-7-5T10:51:3.000Z</time>
      </trkpt>
      <trkpt lat="44.51854" lon="0.70029">
        <ele>199.5</ele>
        <time>2014-7-5T10:51:3.000Z</time>
      </trkpt>
      <trkpt lat="44.51854" lon="0.70027">
        <ele>200.5</ele>
        <time>2014-7-5T10:51:3.000Z</time>
      </trkpt>
      <trkpt lat="44.51854" lon="0.70027">
        <ele>200.5</ele>
        <time>2014-7-5T10:51:3.000Z</time>
      </trkpt>
      <trkpt lat="44.51855" lon="0.70024">
        <ele>200.5</ele>
        <time>2014-7-5T10:51:3.000Z</time>
      </trkpt>
      <trkpt lat="44.51855" lon="0.70024">
        <ele>200.5</ele>
        <time>2014-7-5T10:51:3.000Z</time>
      </trkpt>
      <trkpt lat="44.51855" lon="0.70021">
        <ele>201.5</ele>
        <time>2014-7-5T10:51:3.000Z</time>
      </trkpt>
      <trkpt lat="44.51855" lon="0.70021">
        <ele>201.5</ele>
        <time>2014-7-5T10:51:3.000Z</time>
      </trkpt>
      <trkpt lat="44.51854" lon="0.70016">
        <ele>202.5</ele>
        <time>2014-7-5T10:51:3.000Z</time>
      </trkpt>
      <trkpt lat="44.51854" lon="0.70016">
        <ele>202.5</ele>
        <time>2014-7-5T10:51:3.000Z</time>
      </trkpt>
      <trkpt lat="44.51854" lon="0.70013">
        <ele>202.5</ele>
        <time>2014-7-5T10:51:3.000Z</time>
      </trkpt>
      <trkpt lat="44.51854" lon="0.70013">
        <ele>202.5</ele>
        <time>2014-7-5T10:51:3.000Z</time>
      </trkpt>
      <trkpt lat="44.51854" lon="0.70009">
        <ele>203.5</ele>
        <time>2014-7-5T10:51:3.000Z</time>
      </trkpt>
      <trkpt lat="44.51854" lon="0.70009">
        <ele>203.5</ele>
        <time>2014-7-5T10:51:3.000Z</time>
      </trkpt>
      <trkpt lat="44.51855" lon="0.70006">
        <ele>203.5</ele>
        <time>2014-7-5T10:51:3.000Z</time>
      </trkpt>
      <trkpt lat="44.51855" lon="0.70006">
        <ele>203.5</ele>
        <time>2014-7-5T10:52:8.000Z</time>
      </trkpt>
      <trkpt lat="44.51855" lon="0.70002">
        <ele>203.5</ele>
        <time>2014-7-5T10:52:8.000Z</time>
      </trkpt>
      <trkpt lat="44.51855" lon="0.70002">
        <ele>203.5</ele>
        <time>2014-7-5T10:52:8.000Z</time>
      </trkpt>
      <trkpt lat="44.51854" lon="0.69998">
        <ele>202.5</ele>
        <time>2014-7-5T10:52:8.000Z</time>
      </trkpt>
      <trkpt lat="44.51854" lon="0.69998">
        <ele>202.5</ele>
        <time>2014-7-5T10:52:8.000Z</time>
      </trkpt>
      <trkpt lat="44.51854" lon="0.69994">
        <ele>203.5</ele>
        <time>2014-7-5T10:52:8.000Z</time>
      </trkpt>
      <trkpt lat="44.51854" lon="0.69994">
        <ele>203.5</ele>
        <time>2014-7-5T10:52:8.000Z</time>
      </trkpt>
      <trkpt lat="44.51855" lon="0.69991">
        <ele>203.5</ele>
        <time>2014-7-5T10:52:8.000Z</time>
      </trkpt>
      <trkpt lat="44.51855" lon="0.69991">
        <ele>203.5</ele>
        <time>2014-7-5T10:52:8.000Z</time>
      </trkpt>
      <trkpt lat="44.51855" lon="0.69987">
        <ele>203.5</ele>
        <time>2014-7-5T10:52:8.000Z</time>
      </trkpt>
      <trkpt lat="44.51855" lon="0.69987">
        <ele>203.5</ele>
        <time>2014-7-5T10:52:8.000Z</time>
      </trkpt>
      <trkpt lat="44.51856" lon="0.69983">
        <ele>203.5</ele>
        <time>2014-7-5T10:52:8.000Z</time>
      </trkpt>
      <trkpt lat="44.51856" lon="0.69983">
        <ele>203.5</ele>
        <time>2014-7-5T10:52:8.000Z</time>
      </trkpt>
      <trkpt lat="44.51857" lon="0.69979">
        <ele>203.5</ele>
        <time>2014-7-5T10:52:8.000Z</time>
      </trkpt>
      <trkpt lat="44.51857" lon="0.69979">
        <ele>203.5</ele>
        <time>2014-7-5T10:52:8.000Z</time>
      </trkpt>
      <trkpt lat="44.51857" lon="0.69975">
        <ele>202.5</ele>
        <time>2014-7-5T10:52:8.000Z</time>
      </trkpt>
      <trkpt lat="44.51857" lon="0.69975">
        <ele>202.5</ele>
        <time>2014-7-5T10:52:8.000Z</time>
      </trkpt>
      <trkpt lat="44.51858" lon="0.6997">
        <ele>202.5</ele>
        <time>2014-7-5T10:52:8.000Z</time>
      </trkpt>
      <trkpt lat="44.51858" lon="0.6997">
        <ele>202.5</ele>
        <time>2014-7-5T10:52:8.000Z</time>
      </trkpt>
      <trkpt lat="44.51858" lon="0.69966">
        <ele>203.5</ele>
        <time>2014-7-5T10:52:8.000Z</time>
      </trkpt>
      <trkpt lat="44.51858" lon="0.69966">
        <ele>203.5</ele>
        <time>2014-7-5T10:52:8.000Z</time>
      </trkpt>
      <trkpt lat="44.51858" lon="0.69962">
        <ele>203.5</ele>
        <time>2014-7-5T10:52:8.000Z</time>
      </trkpt>
      <trkpt lat="44.51858" lon="0.69962">
        <ele>203.5</ele>
        <time>2014-7-5T10:52:8.000Z</time>
      </trkpt>
      <trkpt lat="44.51859" lon="0.69958">
        <ele>202.5</ele>
        <time>2014-7-5T10:52:8.000Z</time>
      </trkpt>
      <trkpt lat="44.51859" lon="0.69958">
        <ele>202.5</ele>
        <time>2014-7-5T10:52:8.000Z</time>
      </trkpt>
      <trkpt lat="44.5186" lon="0.69953">
        <ele>202.5</ele>
        <time>2014-7-5T10:52:8.000Z</time>
      </trkpt>
      <trkpt lat="44.5186" lon="0.69953">
        <ele>202.5</ele>
        <time>2014-7-5T10:52:8.000Z</time>
      </trkpt>
      <trkpt lat="44.5186" lon="0.6995">
        <ele>202.5</ele>
        <time>2014-7-5T10:52:8.000Z</time>
      </trkpt>
      <trkpt lat="44.5186" lon="0.6995">
        <ele>202.5</ele>
        <time>2014-7-5T10:52:8.000Z</time>
      </trkpt>
      <trkpt lat="44.51859" lon="0.69948">
        <ele>201.5</ele>
        <time>2014-7-5T10:52:8.000Z</time>
      </trkpt>
      <trkpt lat="44.51859" lon="0.69948">
        <ele>201.5</ele>
        <time>2014-7-5T10:52:8.000Z</time>
      </trkpt>
      <trkpt lat="44.51859" lon="0.69945">
        <ele>202.5</ele>
        <time>2014-7-5T10:52:8.000Z</time>
      </trkpt>
      <trkpt lat="44.51859" lon="0.69945">
        <ele>202.5</ele>
        <time>2014-7-5T10:52:8.000Z</time>
      </trkpt>
      <trkpt lat="44.51859" lon="0.69942">
        <ele>202.5</ele>
        <time>2014-7-5T10:52:8.000Z</time>
      </trkpt>
      <trkpt lat="44.51859" lon="0.69942">
        <ele>202.5</ele>
        <time>2014-7-5T10:52:8.000Z</time>
      </trkpt>
      <trkpt lat="44.51859" lon="0.69939">
        <ele>203.5</ele>
        <time>2014-7-5T10:52:8.000Z</time>
      </trkpt>
      <trkpt lat="44.51859" lon="0.69939">
        <ele>203.5</ele>
        <time>2014-7-5T10:52:8.000Z</time>
      </trkpt>
      <trkpt lat="44.51859" lon="0.69936">
        <ele>203.5</ele>
        <time>2014-7-5T10:52:8.000Z</time>
      </trkpt>
      <trkpt lat="44.51859" lon="0.69936">
        <ele>203.5</ele>
        <time>2014-7-5T10:52:8.000Z</time>
      </trkpt>
      <trkpt lat="44.51859" lon="0.69933">
        <ele>203.5</ele>
        <time>2014-7-5T10:52:8.000Z</time>
      </trkpt>
      <trkpt lat="44.51859" lon="0.69933">
        <ele>203.5</ele>
        <time>2014-7-5T10:52:8.000Z</time>
      </trkpt>
      <trkpt lat="44.51858" lon="0.6993">
        <ele>203.5</ele>
        <time>2014-7-5T10:52:8.000Z</time>
      </trkpt>
      <trkpt lat="44.51858" lon="0.6993">
        <ele>203.5</ele>
        <time>2014-7-5T10:52:8.000Z</time>
      </trkpt>
      <trkpt lat="44.51858" lon="0.69927">
        <ele>203.5</ele>
        <time>2014-7-5T10:52:8.000Z</time>
      </trkpt>
      <trkpt lat="44.51858" lon="0.69927">
        <ele>203.5</ele>
        <time>2014-7-5T10:52:8.000Z</time>
      </trkpt>
      <trkpt lat="44.51858" lon="0.69921">
        <ele>203.5</ele>
        <time>2014-7-5T10:52:8.000Z</time>
      </trkpt>
      <trkpt lat="44.51858" lon="0.69921">
        <ele>203.5</ele>
        <time>2014-7-5T10:52:8.000Z</time>
      </trkpt>
      <trkpt lat="44.51857" lon="0.69915">
        <ele>203.5</ele>
        <time>2014-7-5T10:52:8.000Z</time>
      </trkpt>
      <trkpt lat="44.51857" lon="0.69915">
        <ele>203.5</ele>
        <time>2014-7-5T10:52:8.000Z</time>
      </trkpt>
      <trkpt lat="44.51857" lon="0.6991">
        <ele>203.5</ele>
        <time>2014-7-5T10:52:8.000Z</time>
      </trkpt>
      <trkpt lat="44.51857" lon="0.6991">
        <ele>203.5</ele>
        <time>2014-7-5T10:52:8.000Z</time>
      </trkpt>
      <trkpt lat="44.51856" lon="0.69904">
        <ele>203.5</ele>
        <time>2014-7-5T10:52:8.000Z</time>
      </trkpt>
      <trkpt lat="44.51856" lon="0.69904">
        <ele>203.5</ele>
        <time>2014-7-5T10:52:8.000Z</time>
      </trkpt>
      <trkpt lat="44.51855" lon="0.69899">
        <ele>203.5</ele>
        <time>2014-7-5T10:52:8.000Z</time>
      </trkpt>
      <trkpt lat="44.51855" lon="0.69899">
        <ele>203.5</ele>
        <time>2014-7-5T10:52:8.000Z</time>
      </trkpt>
      <trkpt lat="44.51854" lon="0.69893">
        <ele>202.5</ele>
        <time>2014-7-5T10:52:8.000Z</time>
      </trkpt>
      <trkpt lat="44.51854" lon="0.69893">
        <ele>202.5</ele>
        <time>2014-7-5T10:52:8.000Z</time>
      </trkpt>
      <trkpt lat="44.51853" lon="0.69886">
        <ele>202.5</ele>
        <time>2014-7-5T10:52:8.000Z</time>
      </trkpt>
      <trkpt lat="44.51853" lon="0.69886">
        <ele>202.5</ele>
        <time>2014-7-5T10:52:8.000Z</time>
      </trkpt>
      <trkpt lat="44.51852" lon="0.69873">
        <ele>202.5</ele>
        <time>2014-7-5T10:52:8.000Z</time>
      </trkpt>
      <trkpt lat="44.51852" lon="0.69873">
        <ele>202.5</ele>
        <time>2014-7-5T10:52:8.000Z</time>
      </trkpt>
      <trkpt lat="44.51851" lon="0.69865">
        <ele>201.5</ele>
        <time>2014-7-5T10:52:8.000Z</time>
      </trkpt>
      <trkpt lat="44.51851" lon="0.69865">
        <ele>201.5</ele>
        <time>2014-7-5T10:52:8.000Z</time>
      </trkpt>
      <trkpt lat="44.51849" lon="0.69859">
        <ele>201.5</ele>
        <time>2014-7-5T10:52:8.000Z</time>
      </trkpt>
      <trkpt lat="44.51849" lon="0.69859">
        <ele>201.5</ele>
        <time>2014-7-5T10:52:8.000Z</time>
      </trkpt>
      <trkpt lat="44.51848" lon="0.69851">
        <ele>201.5</ele>
        <time>2014-7-5T10:52:8.000Z</time>
      </trkpt>
      <trkpt lat="44.51848" lon="0.69851">
        <ele>201.5</ele>
        <time>2014-7-5T10:52:8.000Z</time>
      </trkpt>
      <trkpt lat="44.51848" lon="0.69847">
        <ele>202.5</ele>
        <time>2014-7-5T10:52:8.000Z</time>
      </trkpt>
      <trkpt lat="44.51848" lon="0.69847">
        <ele>202.5</ele>
        <time>2014-7-5T10:52:8.000Z</time>
      </trkpt>
      <trkpt lat="44.51847" lon="0.69841">
        <ele>202.5</ele>
        <time>2014-7-5T10:52:8.000Z</time>
      </trkpt>
      <trkpt lat="44.51847" lon="0.69841">
        <ele>202.5</ele>
        <time>2014-7-5T10:52:8.000Z</time>
      </trkpt>
      <trkpt lat="44.51847" lon="0.69835">
        <ele>203.5</ele>
        <time>2014-7-5T10:52:8.000Z</time>
      </trkpt>
      <trkpt lat="44.51847" lon="0.69835">
        <ele>203.5</ele>
        <time>2014-7-5T10:52:8.000Z</time>
      </trkpt>
      <trkpt lat="44.51848" lon="0.6983">
        <ele>203.5</ele>
        <time>2014-7-5T10:52:8.000Z</time>
      </trkpt>
      <trkpt lat="44.51848" lon="0.6983">
        <ele>203.5</ele>
        <time>2014-7-5T10:52:8.000Z</time>
      </trkpt>
      <trkpt lat="44.51847" lon="0.69825">
        <ele>202.5</ele>
        <time>2014-7-5T10:52:8.000Z</time>
      </trkpt>
      <trkpt lat="44.51847" lon="0.69825">
        <ele>202.5</ele>
        <time>2014-7-5T10:52:8.000Z</time>
      </trkpt>
      <trkpt lat="44.51847" lon="0.69821">
        <ele>202.5</ele>
        <time>2014-7-5T10:52:8.000Z</time>
      </trkpt>
      <trkpt lat="44.51847" lon="0.69821">
        <ele>202.5</ele>
        <time>2014-7-5T10:52:8.000Z</time>
      </trkpt>
      <trkpt lat="44.51847" lon="0.69815">
        <ele>203.5</ele>
        <time>2014-7-5T10:52:8.000Z</time>
      </trkpt>
      <trkpt lat="44.51847" lon="0.69815">
        <ele>203.5</ele>
        <time>2014-7-5T10:52:8.000Z</time>
      </trkpt>
      <trkpt lat="44.51847" lon="0.69809">
        <ele>203.5</ele>
        <time>2014-7-5T10:52:8.000Z</time>
      </trkpt>
      <trkpt lat="44.51847" lon="0.69809">
        <ele>203.5</ele>
        <time>2014-7-5T10:52:8.000Z</time>
      </trkpt>
      <trkpt lat="44.51846" lon="0.69805">
        <ele>204.5</ele>
        <time>2014-7-5T10:52:8.000Z</time>
      </trkpt>
      <trkpt lat="44.51846" lon="0.69805">
        <ele>204.5</ele>
        <time>2014-7-5T10:52:8.000Z</time>
      </trkpt>
      <trkpt lat="44.51846" lon="0.698">
        <ele>204.5</ele>
        <time>2014-7-5T10:52:8.000Z</time>
      </trkpt>
      <trkpt lat="44.51846" lon="0.698">
        <ele>204.5</ele>
        <time>2014-7-5T10:52:8.000Z</time>
      </trkpt>
      <trkpt lat="44.51846" lon="0.69794">
        <ele>204.5</ele>
        <time>2014-7-5T10:52:8.000Z</time>
      </trkpt>
      <trkpt lat="44.51846" lon="0.69794">
        <ele>204.5</ele>
        <time>2014-7-5T10:52:8.000Z</time>
      </trkpt>
      <trkpt lat="44.51846" lon="0.6979">
        <ele>204.5</ele>
        <time>2014-7-5T10:52:8.000Z</time>
      </trkpt>
      <trkpt lat="44.51846" lon="0.6979">
        <ele>204.5</ele>
        <time>2014-7-5T10:52:8.000Z</time>
      </trkpt>
      <trkpt lat="44.51845" lon="0.69786">
        <ele>204.5</ele>
        <time>2014-7-5T10:52:8.000Z</time>
      </trkpt>
      <trkpt lat="44.51845" lon="0.69786">
        <ele>204.5</ele>
        <time>2014-7-5T10:52:8.000Z</time>
      </trkpt>
      <trkpt lat="44.51845" lon="0.69781">
        <ele>204.5</ele>
        <time>2014-7-5T10:52:8.000Z</time>
      </trkpt>
      <trkpt lat="44.51845" lon="0.69781">
        <ele>204.5</ele>
        <time>2014-7-5T10:52:8.000Z</time>
      </trkpt>
      <trkpt lat="44.51845" lon="0.69778">
        <ele>204.5</ele>
        <time>2014-7-5T10:52:8.000Z</time>
      </trkpt>
      <trkpt lat="44.51845" lon="0.69778">
        <ele>204.5</ele>
        <time>2014-7-5T10:52:8.000Z</time>
      </trkpt>
      <trkpt lat="44.51845" lon="0.69774">
        <ele>204.5</ele>
        <time>2014-7-5T10:52:8.000Z</time>
      </trkpt>
      <trkpt lat="44.51845" lon="0.69774">
        <ele>204.5</ele>
        <time>2014-7-5T10:52:8.000Z</time>
      </trkpt>
      <trkpt lat="44.51845" lon="0.6977">
        <ele>204.5</ele>
        <time>2014-7-5T10:52:8.000Z</time>
      </trkpt>
      <trkpt lat="44.51845" lon="0.6977">
        <ele>204.5</ele>
        <time>2014-7-5T10:52:8.000Z</time>
      </trkpt>
      <trkpt lat="44.51846" lon="0.69766">
        <ele>205.5</ele>
        <time>2014-7-5T10:53:9.000Z</time>
      </trkpt>
      <trkpt lat="44.51846" lon="0.69766">
        <ele>205.5</ele>
        <time>2014-7-5T10:53:9.000Z</time>
      </trkpt>
      <trkpt lat="44.51846" lon="0.69761">
        <ele>205.5</ele>
        <time>2014-7-5T10:53:9.000Z</time>
      </trkpt>
      <trkpt lat="44.51846" lon="0.69761">
        <ele>205.5</ele>
        <time>2014-7-5T10:53:9.000Z</time>
      </trkpt>
      <trkpt lat="44.51846" lon="0.69752">
        <ele>205.5</ele>
        <time>2014-7-5T10:53:9.000Z</time>
      </trkpt>
      <trkpt lat="44.51846" lon="0.69752">
        <ele>205.5</ele>
        <time>2014-7-5T10:53:9.000Z</time>
      </trkpt>
      <trkpt lat="44.51846" lon="0.69748">
        <ele>205.5</ele>
        <time>2014-7-5T10:53:9.000Z</time>
      </trkpt>
      <trkpt lat="44.51846" lon="0.69748">
        <ele>205.5</ele>
        <time>2014-7-5T10:53:9.000Z</time>
      </trkpt>
      <trkpt lat="44.51846" lon="0.69744">
        <ele>205.5</ele>
        <time>2014-7-5T10:53:9.000Z</time>
      </trkpt>
      <trkpt lat="44.51846" lon="0.69744">
        <ele>205.5</ele>
        <time>2014-7-5T10:53:9.000Z</time>
      </trkpt>
      <trkpt lat="44.51847" lon="0.69741">
        <ele>204.5</ele>
        <time>2014-7-5T10:53:9.000Z</time>
      </trkpt>
      <trkpt lat="44.51847" lon="0.69741">
        <ele>204.5</ele>
        <time>2014-7-5T10:53:9.000Z</time>
      </trkpt>
      <trkpt lat="44.51848" lon="0.69737">
        <ele>205.5</ele>
        <time>2014-7-5T10:53:9.000Z</time>
      </trkpt>
      <trkpt lat="44.51848" lon="0.69737">
        <ele>205.5</ele>
        <time>2014-7-5T10:53:9.000Z</time>
      </trkpt>
      <trkpt lat="44.51848" lon="0.69733">
        <ele>205.5</ele>
        <time>2014-7-5T10:53:9.000Z</time>
      </trkpt>
      <trkpt lat="44.51848" lon="0.69733">
        <ele>205.5</ele>
        <time>2014-7-5T10:53:9.000Z</time>
      </trkpt>
      <trkpt lat="44.51849" lon="0.69729">
        <ele>205.5</ele>
        <time>2014-7-5T10:53:9.000Z</time>
      </trkpt>
      <trkpt lat="44.51849" lon="0.69729">
        <ele>205.5</ele>
        <time>2014-7-5T10:53:9.000Z</time>
      </trkpt>
      <trkpt lat="44.5185" lon="0.69725">
        <ele>205.5</ele>
        <time>2014-7-5T10:53:9.000Z</time>
      </trkpt>
      <trkpt lat="44.5185" lon="0.69725">
        <ele>205.5</ele>
        <time>2014-7-5T10:53:9.000Z</time>
      </trkpt>
      <trkpt lat="44.51851" lon="0.6972">
        <ele>205.5</ele>
        <time>2014-7-5T10:53:9.000Z</time>
      </trkpt>
      <trkpt lat="44.51851" lon="0.6972">
        <ele>205.5</ele>
        <time>2014-7-5T10:53:9.000Z</time>
      </trkpt>
      <trkpt lat="44.51852" lon="0.69716">
        <ele>205.5</ele>
        <time>2014-7-5T10:53:9.000Z</time>
      </trkpt>
      <trkpt lat="44.51852" lon="0.69716">
        <ele>205.5</ele>
        <time>2014-7-5T10:53:9.000Z</time>
      </trkpt>
      <trkpt lat="44.51852" lon="0.69712">
        <ele>204.5</ele>
        <time>2014-7-5T10:53:9.000Z</time>
      </trkpt>
      <trkpt lat="44.51852" lon="0.69712">
        <ele>204.5</ele>
        <time>2014-7-5T10:53:9.000Z</time>
      </trkpt>
      <trkpt lat="44.51853" lon="0.69708">
        <ele>204.5</ele>
        <time>2014-7-5T10:53:9.000Z</time>
      </trkpt>
      <trkpt lat="44.51853" lon="0.69708">
        <ele>204.5</ele>
        <time>2014-7-5T10:53:9.000Z</time>
      </trkpt>
      <trkpt lat="44.51854" lon="0.69703">
        <ele>204.5</ele>
        <time>2014-7-5T10:53:9.000Z</time>
      </trkpt>
      <trkpt lat="44.51854" lon="0.69703">
        <ele>204.5</ele>
        <time>2014-7-5T10:53:9.000Z</time>
      </trkpt>
      <trkpt lat="44.51854" lon="0.69698">
        <ele>204.5</ele>
        <time>2014-7-5T10:53:9.000Z</time>
      </trkpt>
      <trkpt lat="44.51854" lon="0.69698">
        <ele>204.5</ele>
        <time>2014-7-5T10:53:9.000Z</time>
      </trkpt>
      <trkpt lat="44.51854" lon="0.69693">
        <ele>204.5</ele>
        <time>2014-7-5T10:53:9.000Z</time>
      </trkpt>
      <trkpt lat="44.51854" lon="0.69693">
        <ele>204.5</ele>
        <time>2014-7-5T10:53:9.000Z</time>
      </trkpt>
      <trkpt lat="44.51855" lon="0.69688">
        <ele>204.5</ele>
        <time>2014-7-5T10:53:9.000Z</time>
      </trkpt>
      <trkpt lat="44.51855" lon="0.69688">
        <ele>204.5</ele>
        <time>2014-7-5T10:53:9.000Z</time>
      </trkpt>
      <trkpt lat="44.51855" lon="0.69683">
        <ele>204.5</ele>
        <time>2014-7-5T10:53:9.000Z</time>
      </trkpt>
      <trkpt lat="44.51855" lon="0.69683">
        <ele>204.5</ele>
        <time>2014-7-5T10:53:9.000Z</time>
      </trkpt>
      <trkpt lat="44.51855" lon="0.69677">
        <ele>204.5</ele>
        <time>2014-7-5T10:53:9.000Z</time>
      </trkpt>
      <trkpt lat="44.51855" lon="0.69677">
        <ele>204.5</ele>
        <time>2014-7-5T10:53:9.000Z</time>
      </trkpt>
      <trkpt lat="44.51856" lon="0.6967">
        <ele>204.5</ele>
        <time>2014-7-5T10:53:9.000Z</time>
      </trkpt>
      <trkpt lat="44.51856" lon="0.6967">
        <ele>204.5</ele>
        <time>2014-7-5T10:53:9.000Z</time>
      </trkpt>
      <trkpt lat="44.51856" lon="0.69664">
        <ele>205.5</ele>
        <time>2014-7-5T10:53:9.000Z</time>
      </trkpt>
      <trkpt lat="44.51856" lon="0.69664">
        <ele>205.5</ele>
        <time>2014-7-5T10:53:9.000Z</time>
      </trkpt>
      <trkpt lat="44.51856" lon="0.69658">
        <ele>205.5</ele>
        <time>2014-7-5T10:53:9.000Z</time>
      </trkpt>
      <trkpt lat="44.51856" lon="0.69658">
        <ele>205.5</ele>
        <time>2014-7-5T10:53:9.000Z</time>
      </trkpt>
      <trkpt lat="44.51857" lon="0.69648">
        <ele>205.5</ele>
        <time>2014-7-5T10:53:9.000Z</time>
      </trkpt>
      <trkpt lat="44.51857" lon="0.69648">
        <ele>205.5</ele>
        <time>2014-7-5T10:53:9.000Z</time>
      </trkpt>
      <trkpt lat="44.51857" lon="0.69644">
        <ele>205.5</ele>
        <time>2014-7-5T10:53:9.000Z</time>
      </trkpt>
      <trkpt lat="44.51857" lon="0.69644">
        <ele>205.5</ele>
        <time>2014-7-5T10:53:9.000Z</time>
      </trkpt>
      <trkpt lat="44.51857" lon="0.6964">
        <ele>205.5</ele>
        <time>2014-7-5T10:53:9.000Z</time>
      </trkpt>
      <trkpt lat="44.51857" lon="0.6964">
        <ele>205.5</ele>
        <time>2014-7-5T10:53:9.000Z</time>
      </trkpt>
      <trkpt lat="44.51857" lon="0.69637">
        <ele>204.5</ele>
        <time>2014-7-5T10:53:9.000Z</time>
      </trkpt>
      <trkpt lat="44.51857" lon="0.69637">
        <ele>204.5</ele>
        <time>2014-7-5T10:53:9.000Z</time>
      </trkpt>
      <trkpt lat="44.51857" lon="0.69633">
        <ele>204.5</ele>
        <time>2014-7-5T10:53:9.000Z</time>
      </trkpt>
      <trkpt lat="44.51857" lon="0.69633">
        <ele>204.5</ele>
        <time>2014-7-5T10:53:9.000Z</time>
      </trkpt>
      <trkpt lat="44.51858" lon="0.69629">
        <ele>204.5</ele>
        <time>2014-7-5T10:53:9.000Z</time>
      </trkpt>
      <trkpt lat="44.51858" lon="0.69629">
        <ele>204.5</ele>
        <time>2014-7-5T10:53:9.000Z</time>
      </trkpt>
      <trkpt lat="44.51858" lon="0.69625">
        <ele>204.5</ele>
        <time>2014-7-5T10:53:9.000Z</time>
      </trkpt>
      <trkpt lat="44.51858" lon="0.69625">
        <ele>204.5</ele>
        <time>2014-7-5T10:53:9.000Z</time>
      </trkpt>
      <trkpt lat="44.51858" lon="0.6962">
        <ele>204.5</ele>
        <time>2014-7-5T10:53:9.000Z</time>
      </trkpt>
      <trkpt lat="44.51858" lon="0.6962">
        <ele>204.5</ele>
        <time>2014-7-5T10:53:9.000Z</time>
      </trkpt>
      <trkpt lat="44.51858" lon="0.69615">
        <ele>204.5</ele>
        <time>2014-7-5T10:53:9.000Z</time>
      </trkpt>
      <trkpt lat="44.51858" lon="0.69615">
        <ele>204.5</ele>
        <time>2014-7-5T10:53:9.000Z</time>
      </trkpt>
      <trkpt lat="44.51859" lon="0.6961">
        <ele>204.5</ele>
        <time>2014-7-5T10:53:9.000Z</time>
      </trkpt>
      <trkpt lat="44.51859" lon="0.6961">
        <ele>204.5</ele>
        <time>2014-7-5T10:53:9.000Z</time>
      </trkpt>
      <trkpt lat="44.51859" lon="0.69605">
        <ele>205.5</ele>
        <time>2014-7-5T10:53:9.000Z</time>
      </trkpt>
      <trkpt lat="44.51859" lon="0.69605">
        <ele>205.5</ele>
        <time>2014-7-5T10:53:9.000Z</time>
      </trkpt>
      <trkpt lat="44.5186" lon="0.69599">
        <ele>204.5</ele>
        <time>2014-7-5T10:53:9.000Z</time>
      </trkpt>
      <trkpt lat="44.5186" lon="0.69599">
        <ele>204.5</ele>
        <time>2014-7-5T10:53:9.000Z</time>
      </trkpt>
      <trkpt lat="44.51861" lon="0.69595">
        <ele>204.5</ele>
        <time>2014-7-5T10:53:9.000Z</time>
      </trkpt>
      <trkpt lat="44.51861" lon="0.69595">
        <ele>204.5</ele>
        <time>2014-7-5T10:53:9.000Z</time>
      </trkpt>
      <trkpt lat="44.51861" lon="0.6959">
        <ele>204.5</ele>
        <time>2014-7-5T10:53:9.000Z</time>
      </trkpt>
      <trkpt lat="44.51861" lon="0.6959">
        <ele>204.5</ele>
        <time>2014-7-5T10:53:9.000Z</time>
      </trkpt>
      <trkpt lat="44.51862" lon="0.69585">
        <ele>204.5</ele>
        <time>2014-7-5T10:53:9.000Z</time>
      </trkpt>
      <trkpt lat="44.51862" lon="0.69585">
        <ele>204.5</ele>
        <time>2014-7-5T10:53:9.000Z</time>
      </trkpt>
      <trkpt lat="44.51863" lon="0.69582">
        <ele>204.5</ele>
        <time>2014-7-5T10:53:9.000Z</time>
      </trkpt>
      <trkpt lat="44.51863" lon="0.69582">
        <ele>204.5</ele>
        <time>2014-7-5T10:53:9.000Z</time>
      </trkpt>
      <trkpt lat="44.51864" lon="0.69579">
        <ele>204.5</ele>
        <time>2014-7-5T10:53:9.000Z</time>
      </trkpt>
      <trkpt lat="44.51864" lon="0.69579">
        <ele>204.5</ele>
        <time>2014-7-5T10:53:9.000Z</time>
      </trkpt>
      <trkpt lat="44.51866" lon="0.69572">
        <ele>204.5</ele>
        <time>2014-7-5T10:53:9.000Z</time>
      </trkpt>
      <trkpt lat="44.51866" lon="0.69572">
        <ele>204.5</ele>
        <time>2014-7-5T10:53:9.000Z</time>
      </trkpt>
      <trkpt lat="44.51866" lon="0.69568">
        <ele>204.5</ele>
        <time>2014-7-5T10:53:9.000Z</time>
      </trkpt>
      <trkpt lat="44.51866" lon="0.69568">
        <ele>204.5</ele>
        <time>2014-7-5T10:53:9.000Z</time>
      </trkpt>
      <trkpt lat="44.51867" lon="0.69565">
        <ele>204.5</ele>
        <time>2014-7-5T10:53:9.000Z</time>
      </trkpt>
      <trkpt lat="44.51867" lon="0.69565">
        <ele>204.5</ele>
        <time>2014-7-5T10:53:9.000Z</time>
      </trkpt>
      <trkpt lat="44.51868" lon="0.69561">
        <ele>205.5</ele>
        <time>2014-7-5T10:53:9.000Z</time>
      </trkpt>
      <trkpt lat="44.51868" lon="0.69561">
        <ele>205.5</ele>
        <time>2014-7-5T10:53:9.000Z</time>
      </trkpt>
      <trkpt lat="44.51868" lon="0.69557">
        <ele>205.5</ele>
        <time>2014-7-5T10:53:9.000Z</time>
      </trkpt>
      <trkpt lat="44.51868" lon="0.69557">
        <ele>205.5</ele>
        <time>2014-7-5T10:53:9.000Z</time>
      </trkpt>
      <trkpt lat="44.51869" lon="0.69554">
        <ele>205.5</ele>
        <time>2014-7-5T10:53:9.000Z</time>
      </trkpt>
      <trkpt lat="44.51869" lon="0.69554">
        <ele>205.5</ele>
        <time>2014-7-5T10:53:9.000Z</time>
      </trkpt>
      <trkpt lat="44.5187" lon="0.6955">
        <ele>205.5</ele>
        <time>2014-7-5T10:53:9.000Z</time>
      </trkpt>
      <trkpt lat="44.5187" lon="0.6955">
        <ele>205.5</ele>
        <time>2014-7-5T10:53:9.000Z</time>
      </trkpt>
      <trkpt lat="44.5187" lon="0.69546">
        <ele>205.5</ele>
        <time>2014-7-5T10:53:9.000Z</time>
      </trkpt>
      <trkpt lat="44.5187" lon="0.69546">
        <ele>205.5</ele>
        <time>2014-7-5T10:53:9.000Z</time>
      </trkpt>
      <trkpt lat="44.51871" lon="0.69543">
        <ele>205.5</ele>
        <time>2014-7-5T10:53:9.000Z</time>
      </trkpt>
      <trkpt lat="44.51871" lon="0.69543">
        <ele>205.5</ele>
        <time>2014-7-5T10:53:9.000Z</time>
      </trkpt>
      <trkpt lat="44.51872" lon="0.6954">
        <ele>205.5</ele>
        <time>2014-7-5T10:53:9.000Z</time>
      </trkpt>
      <trkpt lat="44.51872" lon="0.6954">
        <ele>205.5</ele>
        <time>2014-7-5T10:53:9.000Z</time>
      </trkpt>
      <trkpt lat="44.51871" lon="0.69536">
        <ele>205.5</ele>
        <time>2014-7-5T10:53:9.000Z</time>
      </trkpt>
      <trkpt lat="44.51871" lon="0.69536">
        <ele>205.5</ele>
        <time>2014-7-5T10:54:39.000Z</time>
      </trkpt>
      <trkpt lat="44.51869" lon="0.69536">
        <ele>205.5</ele>
        <time>2014-7-5T10:54:39.000Z</time>
      </trkpt>
      <trkpt lat="44.51869" lon="0.69536">
        <ele>205.5</ele>
        <time>2014-7-5T10:54:39.000Z</time>
      </trkpt>
      <trkpt lat="44.51866" lon="0.69536">
        <ele>204.5</ele>
        <time>2014-7-5T10:54:39.000Z</time>
      </trkpt>
      <trkpt lat="44.51866" lon="0.69536">
        <ele>204.5</ele>
        <time>2014-7-5T10:54:39.000Z</time>
      </trkpt>
      <trkpt lat="44.51863" lon="0.69537">
        <ele>204.5</ele>
        <time>2014-7-5T10:54:39.000Z</time>
      </trkpt>
      <trkpt lat="44.51863" lon="0.69537">
        <ele>204.5</ele>
        <time>2014-7-5T10:54:39.000Z</time>
      </trkpt>
      <trkpt lat="44.51861" lon="0.69538">
        <ele>204.5</ele>
        <time>2014-7-5T10:54:39.000Z</time>
      </trkpt>
      <trkpt lat="44.51861" lon="0.69538">
        <ele>204.5</ele>
        <time>2014-7-5T10:54:39.000Z</time>
      </trkpt>
      <trkpt lat="44.51859" lon="0.6954">
        <ele>204.5</ele>
        <time>2014-7-5T10:54:39.000Z</time>
      </trkpt>
      <trkpt lat="44.51859" lon="0.6954">
        <ele>204.5</ele>
        <time>2014-7-5T10:54:39.000Z</time>
      </trkpt>
      <trkpt lat="44.51857" lon="0.69542">
        <ele>204.5</ele>
        <time>2014-7-5T10:54:39.000Z</time>
      </trkpt>
      <trkpt lat="44.51857" lon="0.69542">
        <ele>204.5</ele>
        <time>2014-7-5T10:54:39.000Z</time>
      </trkpt>
      <trkpt lat="44.51855" lon="0.69544">
        <ele>204.5</ele>
        <time>2014-7-5T10:54:39.000Z</time>
      </trkpt>
      <trkpt lat="44.51855" lon="0.69544">
        <ele>204.5</ele>
        <time>2014-7-5T10:54:39.000Z</time>
      </trkpt>
      <trkpt lat="44.51853" lon="0.69545">
        <ele>204.5</ele>
        <time>2014-7-5T10:54:39.000Z</time>
      </trkpt>
      <trkpt lat="44.51853" lon="0.69545">
        <ele>204.5</ele>
        <time>2014-7-5T10:54:39.000Z</time>
      </trkpt>
      <trkpt lat="44.51851" lon="0.69546">
        <ele>204.5</ele>
        <time>2014-7-5T10:54:39.000Z</time>
      </trkpt>
      <trkpt lat="44.51851" lon="0.69546">
        <ele>204.5</ele>
        <time>2014-7-5T10:54:39.000Z</time>
      </trkpt>
      <trkpt lat="44.51849" lon="0.69546">
        <ele>204.5</ele>
        <time>2014-7-5T10:54:39.000Z</time>
      </trkpt>
      <trkpt lat="44.51849" lon="0.69546">
        <ele>204.5</ele>
        <time>2014-7-5T10:54:39.000Z</time>
      </trkpt>
      <trkpt lat="44.51847" lon="0.69545">
        <ele>204.5</ele>
        <time>2014-7-5T10:54:39.000Z</time>
      </trkpt>
      <trkpt lat="44.51847" lon="0.69545">
        <ele>204.5</ele>
        <time>2014-7-5T10:54:39.000Z</time>
      </trkpt>
      <trkpt lat="44.51846" lon="0.69543">
        <ele>204.5</ele>
        <time>2014-7-5T10:54:39.000Z</time>
      </trkpt>
      <trkpt lat="44.51846" lon="0.69543">
        <ele>204.5</ele>
        <time>2014-7-5T10:54:39.000Z</time>
      </trkpt>
      <trkpt lat="44.51843" lon="0.69544">
        <ele>203.5</ele>
        <time>2014-7-5T10:54:39.000Z</time>
      </trkpt>
      <trkpt lat="44.51843" lon="0.69544">
        <ele>203.5</ele>
        <time>2014-7-5T10:54:39.000Z</time>
      </trkpt>
      <trkpt lat="44.51841" lon="0.69547">
        <ele>204.5</ele>
        <time>2014-7-5T10:54:39.000Z</time>
      </trkpt>
      <trkpt lat="44.51841" lon="0.69547">
        <ele>204.5</ele>
        <time>2014-7-5T10:54:39.000Z</time>
      </trkpt>
      <trkpt lat="44.5184" lon="0.69551">
        <ele>203.5</ele>
        <time>2014-7-5T10:54:39.000Z</time>
      </trkpt>
      <trkpt lat="44.5184" lon="0.69551">
        <ele>203.5</ele>
        <time>2014-7-5T10:54:39.000Z</time>
      </trkpt>
      <trkpt lat="44.51839" lon="0.69554">
        <ele>203.5</ele>
        <time>2014-7-5T10:54:39.000Z</time>
      </trkpt>
      <trkpt lat="44.51839" lon="0.69554">
        <ele>203.5</ele>
        <time>2014-7-5T10:54:39.000Z</time>
      </trkpt>
      <trkpt lat="44.51838" lon="0.69558">
        <ele>203.5</ele>
        <time>2014-7-5T10:54:39.000Z</time>
      </trkpt>
      <trkpt lat="44.51838" lon="0.69558">
        <ele>203.5</ele>
        <time>2014-7-5T10:54:39.000Z</time>
      </trkpt>
      <trkpt lat="44.51838" lon="0.69561">
        <ele>203.5</ele>
        <time>2014-7-5T10:54:39.000Z</time>
      </trkpt>
      <trkpt lat="44.51838" lon="0.69561">
        <ele>203.5</ele>
        <time>2014-7-5T10:54:39.000Z</time>
      </trkpt>
      <trkpt lat="44.51836" lon="0.69565">
        <ele>203.5</ele>
        <time>2014-7-5T10:54:39.000Z</time>
      </trkpt>
      <trkpt lat="44.51836" lon="0.69565">
        <ele>203.5</ele>
        <time>2014-7-5T10:54:39.000Z</time>
      </trkpt>
      <trkpt lat="44.51833" lon="0.69565">
        <ele>202.5</ele>
        <time>2014-7-5T10:54:39.000Z</time>
      </trkpt>
      <trkpt lat="44.51833" lon="0.69565">
        <ele>202.5</ele>
        <time>2014-7-5T10:54:39.000Z</time>
      </trkpt>
      <trkpt lat="44.51832" lon="0.69561">
        <ele>202.5</ele>
        <time>2014-7-5T10:54:39.000Z</time>
      </trkpt>
      <trkpt lat="44.51832" lon="0.69561">
        <ele>202.5</ele>
        <time>2014-7-5T10:54:39.000Z</time>
      </trkpt>
      <trkpt lat="44.51833" lon="0.69557">
        <ele>202.5</ele>
        <time>2014-7-5T10:54:39.000Z</time>
      </trkpt>
      <trkpt lat="44.51833" lon="0.69557">
        <ele>202.5</ele>
        <time>2014-7-5T10:54:39.000Z</time>
      </trkpt>
      <trkpt lat="44.51835" lon="0.69554">
        <ele>202.5</ele>
        <time>2014-7-5T10:54:39.000Z</time>
      </trkpt>
      <trkpt lat="44.51835" lon="0.69554">
        <ele>202.5</ele>
        <time>2014-7-5T10:54:39.000Z</time>
      </trkpt>
      <trkpt lat="44.51837" lon="0.69551">
        <ele>203.5</ele>
        <time>2014-7-5T10:54:39.000Z</time>
      </trkpt>
      <trkpt lat="44.51837" lon="0.69551">
        <ele>203.5</ele>
        <time>2014-7-5T10:54:39.000Z</time>
      </trkpt>
      <trkpt lat="44.51841" lon="0.69549">
        <ele>203.5</ele>
        <time>2014-7-5T10:54:39.000Z</time>
      </trkpt>
      <trkpt lat="44.51841" lon="0.69549">
        <ele>203.5</ele>
        <time>2014-7-5T10:54:39.000Z</time>
      </trkpt>
      <trkpt lat="44.51843" lon="0.69548">
        <ele>203.5</ele>
        <time>2014-7-5T10:54:39.000Z</time>
      </trkpt>
      <trkpt lat="44.51843" lon="0.69548">
        <ele>203.5</ele>
        <time>2014-7-5T10:54:39.000Z</time>
      </trkpt>
      <trkpt lat="44.51845" lon="0.69546">
        <ele>203.5</ele>
        <time>2014-7-5T10:54:39.000Z</time>
      </trkpt>
      <trkpt lat="44.51845" lon="0.69546">
        <ele>203.5</ele>
        <time>2014-7-5T10:54:39.000Z</time>
      </trkpt>
      <trkpt lat="44.51849" lon="0.69542">
        <ele>203.5</ele>
        <time>2014-7-5T10:54:39.000Z</time>
      </trkpt>
      <trkpt lat="44.51849" lon="0.69542">
        <ele>203.5</ele>
        <time>2014-7-5T10:54:39.000Z</time>
      </trkpt>
      <trkpt lat="44.51851" lon="0.69539">
        <ele>203.5</ele>
        <time>2014-7-5T10:54:39.000Z</time>
      </trkpt>
      <trkpt lat="44.51851" lon="0.69539">
        <ele>203.5</ele>
        <time>2014-7-5T10:54:39.000Z</time>
      </trkpt>
      <trkpt lat="44.51853" lon="0.69537">
        <ele>203.5</ele>
        <time>2014-7-5T10:54:39.000Z</time>
      </trkpt>
      <trkpt lat="44.51853" lon="0.69537">
        <ele>203.5</ele>
        <time>2014-7-5T10:54:39.000Z</time>
      </trkpt>
      <trkpt lat="44.51855" lon="0.69535">
        <ele>203.5</ele>
        <time>2014-7-5T10:54:39.000Z</time>
      </trkpt>
      <trkpt lat="44.51855" lon="0.69535">
        <ele>203.5</ele>
        <time>2014-7-5T10:54:39.000Z</time>
      </trkpt>
      <trkpt lat="44.51858" lon="0.69532">
        <ele>203.5</ele>
        <time>2014-7-5T10:54:39.000Z</time>
      </trkpt>
      <trkpt lat="44.51858" lon="0.69532">
        <ele>203.5</ele>
        <time>2014-7-5T10:54:39.000Z</time>
      </trkpt>
      <trkpt lat="44.5186" lon="0.69531">
        <ele>203.5</ele>
        <time>2014-7-5T10:54:39.000Z</time>
      </trkpt>
      <trkpt lat="44.5186" lon="0.69531">
        <ele>203.5</ele>
        <time>2014-7-5T10:54:39.000Z</time>
      </trkpt>
      <trkpt lat="44.51863" lon="0.69529">
        <ele>203.5</ele>
        <time>2014-7-5T10:54:39.000Z</time>
      </trkpt>
      <trkpt lat="44.51863" lon="0.69529">
        <ele>203.5</ele>
        <time>2014-7-5T10:54:39.000Z</time>
      </trkpt>
      <trkpt lat="44.51865" lon="0.69528">
        <ele>203.5</ele>
        <time>2014-7-5T10:54:39.000Z</time>
      </trkpt>
      <trkpt lat="44.51865" lon="0.69528">
        <ele>203.5</ele>
        <time>2014-7-5T10:54:39.000Z</time>
      </trkpt>
      <trkpt lat="44.51867" lon="0.69526">
        <ele>203.5</ele>
        <time>2014-7-5T10:54:39.000Z</time>
      </trkpt>
      <trkpt lat="44.51867" lon="0.69526">
        <ele>203.5</ele>
        <time>2014-7-5T10:54:39.000Z</time>
      </trkpt>
      <trkpt lat="44.5187" lon="0.69525">
        <ele>203.5</ele>
        <time>2014-7-5T10:54:39.000Z</time>
      </trkpt>
      <trkpt lat="44.5187" lon="0.69525">
        <ele>203.5</ele>
        <time>2014-7-5T10:54:39.000Z</time>
      </trkpt>
      <trkpt lat="44.51872" lon="0.69524">
        <ele>203.5</ele>
        <time>2014-7-5T10:54:39.000Z</time>
      </trkpt>
      <trkpt lat="44.51872" lon="0.69524">
        <ele>203.5</ele>
        <time>2014-7-5T10:54:39.000Z</time>
      </trkpt>
      <trkpt lat="44.51875" lon="0.69521">
        <ele>203.5</ele>
        <time>2014-7-5T10:54:39.000Z</time>
      </trkpt>
      <trkpt lat="44.51875" lon="0.69521">
        <ele>203.5</ele>
        <time>2014-7-5T10:54:39.000Z</time>
      </trkpt>
      <trkpt lat="44.51876" lon="0.69519">
        <ele>203.5</ele>
        <time>2014-7-5T10:54:39.000Z</time>
      </trkpt>
      <trkpt lat="44.51876" lon="0.69519">
        <ele>203.5</ele>
        <time>2014-7-5T10:54:39.000Z</time>
      </trkpt>
      <trkpt lat="44.51878" lon="0.69517">
        <ele>204.5</ele>
        <time>2014-7-5T10:54:39.000Z</time>
      </trkpt>
      <trkpt lat="44.51878" lon="0.69517">
        <ele>204.5</ele>
        <time>2014-7-5T10:54:39.000Z</time>
      </trkpt>
      <trkpt lat="44.5188" lon="0.69515">
        <ele>203.5</ele>
        <time>2014-7-5T10:54:39.000Z</time>
      </trkpt>
      <trkpt lat="44.5188" lon="0.69515">
        <ele>203.5</ele>
        <time>2014-7-5T10:54:39.000Z</time>
      </trkpt>
      <trkpt lat="44.51882" lon="0.69512">
        <ele>203.5</ele>
        <time>2014-7-5T10:54:39.000Z</time>
      </trkpt>
      <trkpt lat="44.51882" lon="0.69512">
        <ele>203.5</ele>
        <time>2014-7-5T10:54:39.000Z</time>
      </trkpt>
      <trkpt lat="44.51883" lon="0.69508">
        <ele>203.5</ele>
        <time>2014-7-5T10:54:39.000Z</time>
      </trkpt>
      <trkpt lat="44.51883" lon="0.69508">
        <ele>203.5</ele>
        <time>2014-7-5T10:54:39.000Z</time>
      </trkpt>
      <trkpt lat="44.51884" lon="0.69505">
        <ele>203.5</ele>
        <time>2014-7-5T10:54:39.000Z</time>
      </trkpt>
      <trkpt lat="44.51884" lon="0.69505">
        <ele>203.5</ele>
        <time>2014-7-5T10:54:39.000Z</time>
      </trkpt>
      <trkpt lat="44.51885" lon="0.69502">
        <ele>203.5</ele>
        <time>2014-7-5T10:54:39.000Z</time>
      </trkpt>
      <trkpt lat="44.51885" lon="0.69502">
        <ele>203.5</ele>
        <time>2014-7-5T10:54:39.000Z</time>
      </trkpt>
      <trkpt lat="44.51885" lon="0.69499">
        <ele>203.5</ele>
        <time>2014-7-5T10:54:39.000Z</time>
      </trkpt>
      <trkpt lat="44.51885" lon="0.69499">
        <ele>203.5</ele>
        <time>2014-7-5T10:54:39.000Z</time>
      </trkpt>
      <trkpt lat="44.51886" lon="0.69496">
        <ele>204.5</ele>
        <time>2014-7-5T10:54:39.000Z</time>
      </trkpt>
      <trkpt lat="44.51886" lon="0.69496">
        <ele>204.5</ele>
        <time>2014-7-5T10:54:39.000Z</time>
      </trkpt>
      <trkpt lat="44.51888" lon="0.69492">
        <ele>203.5</ele>
        <time>2014-7-5T10:54:39.000Z</time>
      </trkpt>
      <trkpt lat="44.51888" lon="0.69492">
        <ele>203.5</ele>
        <time>2014-7-5T10:54:39.000Z</time>
      </trkpt>
      <trkpt lat="44.5189" lon="0.6949">
        <ele>203.5</ele>
        <time>2014-7-5T10:54:39.000Z</time>
      </trkpt>
      <trkpt lat="44.5189" lon="0.6949">
        <ele>203.5</ele>
        <time>2014-7-5T10:54:39.000Z</time>
      </trkpt>
      <trkpt lat="44.51893" lon="0.69491">
        <ele>203.5</ele>
        <time>2014-7-5T10:55:38.000Z</time>
      </trkpt>
      <trkpt lat="44.51893" lon="0.69491">
        <ele>203.5</ele>
        <time>2014-7-5T10:55:38.000Z</time>
      </trkpt>
      <trkpt lat="44.51894" lon="0.69494">
        <ele>203.5</ele>
        <time>2014-7-5T10:55:38.000Z</time>
      </trkpt>
      <trkpt lat="44.51894" lon="0.69494">
        <ele>203.5</ele>
        <time>2014-7-5T10:55:38.000Z</time>
      </trkpt>
      <trkpt lat="44.51894" lon="0.69496">
        <ele>203.5</ele>
        <time>2014-7-5T10:55:38.000Z</time>
      </trkpt>
      <trkpt lat="44.51894" lon="0.69496">
        <ele>203.5</ele>
        <time>2014-7-5T10:55:38.000Z</time>
      </trkpt>
      <trkpt lat="44.51893" lon="0.69499">
        <ele>204.5</ele>
        <time>2014-7-5T10:55:38.000Z</time>
      </trkpt>
      <trkpt lat="44.51893" lon="0.69499">
        <ele>204.5</ele>
        <time>2014-7-5T10:55:38.000Z</time>
      </trkpt>
      <trkpt lat="44.51891" lon="0.69501">
        <ele>204.5</ele>
        <time>2014-7-5T10:55:38.000Z</time>
      </trkpt>
      <trkpt lat="44.51891" lon="0.69501">
        <ele>204.5</ele>
        <time>2014-7-5T10:55:38.000Z</time>
      </trkpt>
      <trkpt lat="44.5189" lon="0.69504">
        <ele>204.5</ele>
        <time>2014-7-5T10:55:38.000Z</time>
      </trkpt>
      <trkpt lat="44.5189" lon="0.69504">
        <ele>204.5</ele>
        <time>2014-7-5T10:55:38.000Z</time>
      </trkpt>
      <trkpt lat="44.51889" lon="0.69507">
        <ele>204.5</ele>
        <time>2014-7-5T10:55:38.000Z</time>
      </trkpt>
      <trkpt lat="44.51889" lon="0.69507">
        <ele>204.5</ele>
        <time>2014-7-5T10:55:38.000Z</time>
      </trkpt>
      <trkpt lat="44.51888" lon="0.6951">
        <ele>204.5</ele>
        <time>2014-7-5T10:55:38.000Z</time>
      </trkpt>
      <trkpt lat="44.51888" lon="0.6951">
        <ele>204.5</ele>
        <time>2014-7-5T10:55:38.000Z</time>
      </trkpt>
      <trkpt lat="44.51887" lon="0.69514">
        <ele>204.5</ele>
        <time>2014-7-5T10:55:38.000Z</time>
      </trkpt>
      <trkpt lat="44.51887" lon="0.69514">
        <ele>204.5</ele>
        <time>2014-7-5T10:55:38.000Z</time>
      </trkpt>
      <trkpt lat="44.51886" lon="0.69518">
        <ele>204.5</ele>
        <time>2014-7-5T10:55:38.000Z</time>
      </trkpt>
      <trkpt lat="44.51886" lon="0.69518">
        <ele>204.5</ele>
        <time>2014-7-5T10:55:38.000Z</time>
      </trkpt>
      <trkpt lat="44.51885" lon="0.69521">
        <ele>204.5</ele>
        <time>2014-7-5T10:55:38.000Z</time>
      </trkpt>
      <trkpt lat="44.51885" lon="0.69521">
        <ele>204.5</ele>
        <time>2014-7-5T10:55:38.000Z</time>
      </trkpt>
      <trkpt lat="44.51885" lon="0.69524">
        <ele>204.5</ele>
        <time>2014-7-5T10:55:38.000Z</time>
      </trkpt>
      <trkpt lat="44.51885" lon="0.69524">
        <ele>204.5</ele>
        <time>2014-7-5T10:55:38.000Z</time>
      </trkpt>
      <trkpt lat="44.51884" lon="0.69527">
        <ele>204.5</ele>
        <time>2014-7-5T10:55:38.000Z</time>
      </trkpt>
      <trkpt lat="44.51884" lon="0.69527">
        <ele>204.5</ele>
        <time>2014-7-5T10:55:38.000Z</time>
      </trkpt>
      <trkpt lat="44.51883" lon="0.69531">
        <ele>203.5</ele>
        <time>2014-7-5T10:55:38.000Z</time>
      </trkpt>
      <trkpt lat="44.51883" lon="0.69531">
        <ele>203.5</ele>
        <time>2014-7-5T10:55:38.000Z</time>
      </trkpt>
      <trkpt lat="44.51882" lon="0.69535">
        <ele>203.5</ele>
        <time>2014-7-5T10:55:38.000Z</time>
      </trkpt>
      <trkpt lat="44.51882" lon="0.69535">
        <ele>203.5</ele>
        <time>2014-7-5T10:55:38.000Z</time>
      </trkpt>
      <trkpt lat="44.5188" lon="0.69539">
        <ele>203.5</ele>
        <time>2014-7-5T10:55:38.000Z</time>
      </trkpt>
      <trkpt lat="44.5188" lon="0.69539">
        <ele>203.5</ele>
        <time>2014-7-5T10:55:38.000Z</time>
      </trkpt>
      <trkpt lat="44.5188" lon="0.69542">
        <ele>203.5</ele>
        <time>2014-7-5T10:55:38.000Z</time>
      </trkpt>
      <trkpt lat="44.5188" lon="0.69542">
        <ele>203.5</ele>
        <time>2014-7-5T10:55:38.000Z</time>
      </trkpt>
      <trkpt lat="44.51879" lon="0.69546">
        <ele>203.5</ele>
        <time>2014-7-5T10:55:38.000Z</time>
      </trkpt>
      <trkpt lat="44.51879" lon="0.69546">
        <ele>203.5</ele>
        <time>2014-7-5T10:55:38.000Z</time>
      </trkpt>
      <trkpt lat="44.51877" lon="0.6955">
        <ele>203.5</ele>
        <time>2014-7-5T10:55:38.000Z</time>
      </trkpt>
      <trkpt lat="44.51877" lon="0.6955">
        <ele>203.5</ele>
        <time>2014-7-5T10:55:38.000Z</time>
      </trkpt>
      <trkpt lat="44.51876" lon="0.69554">
        <ele>203.5</ele>
        <time>2014-7-5T10:55:38.000Z</time>
      </trkpt>
      <trkpt lat="44.51876" lon="0.69554">
        <ele>203.5</ele>
        <time>2014-7-5T10:55:38.000Z</time>
      </trkpt>
      <trkpt lat="44.51875" lon="0.69557">
        <ele>202.5</ele>
        <time>2014-7-5T10:55:38.000Z</time>
      </trkpt>
      <trkpt lat="44.51875" lon="0.69557">
        <ele>202.5</ele>
        <time>2014-7-5T10:55:38.000Z</time>
      </trkpt>
      <trkpt lat="44.51875" lon="0.69562">
        <ele>201.5</ele>
        <time>2014-7-5T10:55:38.000Z</time>
      </trkpt>
      <trkpt lat="44.51875" lon="0.69562">
        <ele>201.5</ele>
        <time>2014-7-5T10:55:38.000Z</time>
      </trkpt>
      <trkpt lat="44.51875" lon="0.69566">
        <ele>201.5</ele>
        <time>2014-7-5T10:55:38.000Z</time>
      </trkpt>
      <trkpt lat="44.51875" lon="0.69566">
        <ele>201.5</ele>
        <time>2014-7-5T10:55:38.000Z</time>
      </trkpt>
      <trkpt lat="44.51875" lon="0.6957">
        <ele>201.5</ele>
        <time>2014-7-5T10:55:38.000Z</time>
      </trkpt>
      <trkpt lat="44.51875" lon="0.6957">
        <ele>201.5</ele>
        <time>2014-7-5T10:55:38.000Z</time>
      </trkpt>
      <trkpt lat="44.51875" lon="0.69577">
        <ele>200.5</ele>
        <time>2014-7-5T10:55:38.000Z</time>
      </trkpt>
      <trkpt lat="44.51875" lon="0.69577">
        <ele>200.5</ele>
        <time>2014-7-5T10:55:38.000Z</time>
      </trkpt>
      <trkpt lat="44.51875" lon="0.69585">
        <ele>201.5</ele>
        <time>2014-7-5T10:55:38.000Z</time>
      </trkpt>
      <trkpt lat="44.51875" lon="0.69585">
        <ele>201.5</ele>
        <time>2014-7-5T10:55:38.000Z</time>
      </trkpt>
      <trkpt lat="44.51875" lon="0.69592">
        <ele>200.5</ele>
        <time>2014-7-5T10:55:38.000Z</time>
      </trkpt>
      <trkpt lat="44.51875" lon="0.69592">
        <ele>200.5</ele>
        <time>2014-7-5T10:55:38.000Z</time>
      </trkpt>
      <trkpt lat="44.51874" lon="0.69597">
        <ele>200.5</ele>
        <time>2014-7-5T10:55:38.000Z</time>
      </trkpt>
      <trkpt lat="44.51874" lon="0.69597">
        <ele>200.5</ele>
        <time>2014-7-5T10:55:38.000Z</time>
      </trkpt>
      <trkpt lat="44.51874" lon="0.69602">
        <ele>200.5</ele>
        <time>2014-7-5T10:55:38.000Z</time>
      </trkpt>
      <trkpt lat="44.51874" lon="0.69602">
        <ele>200.5</ele>
        <time>2014-7-5T10:55:38.000Z</time>
      </trkpt>
      <trkpt lat="44.51875" lon="0.69608">
        <ele>198.5</ele>
        <time>2014-7-5T10:55:38.000Z</time>
      </trkpt>
      <trkpt lat="44.51875" lon="0.69608">
        <ele>198.5</ele>
        <time>2014-7-5T10:55:38.000Z</time>
      </trkpt>
      <trkpt lat="44.51875" lon="0.69612">
        <ele>198.5</ele>
        <time>2014-7-5T10:55:38.000Z</time>
      </trkpt>
      <trkpt lat="44.51875" lon="0.69612">
        <ele>198.5</ele>
        <time>2014-7-5T10:55:38.000Z</time>
      </trkpt>
      <trkpt lat="44.51875" lon="0.69614">
        <ele>198.5</ele>
        <time>2014-7-5T10:55:38.000Z</time>
      </trkpt>
      <trkpt lat="44.51875" lon="0.69614">
        <ele>198.5</ele>
        <time>2014-7-5T10:55:38.000Z</time>
      </trkpt>
      <trkpt lat="44.51874" lon="0.69619">
        <ele>197.5</ele>
        <time>2014-7-5T10:55:38.000Z</time>
      </trkpt>
      <trkpt lat="44.51874" lon="0.69619">
        <ele>197.5</ele>
        <time>2014-7-5T10:55:38.000Z</time>
      </trkpt>
      <trkpt lat="44.51873" lon="0.69623">
        <ele>197.5</ele>
        <time>2014-7-5T10:55:38.000Z</time>
      </trkpt>
      <trkpt lat="44.51873" lon="0.69623">
        <ele>197.5</ele>
        <time>2014-7-5T10:55:38.000Z</time>
      </trkpt>
      <trkpt lat="44.51871" lon="0.69626">
        <ele>197.5</ele>
        <time>2014-7-5T10:55:38.000Z</time>
      </trkpt>
      <trkpt lat="44.51871" lon="0.69626">
        <ele>197.5</ele>
        <time>2014-7-5T10:55:38.000Z</time>
      </trkpt>
      <trkpt lat="44.5187" lon="0.69628">
        <ele>197.5</ele>
        <time>2014-7-5T10:55:38.000Z</time>
      </trkpt>
      <trkpt lat="44.5187" lon="0.69628">
        <ele>197.5</ele>
        <time>2014-7-5T10:55:38.000Z</time>
      </trkpt>
      <trkpt lat="44.51869" lon="0.69631">
        <ele>197.5</ele>
        <time>2014-7-5T10:55:38.000Z</time>
      </trkpt>
      <trkpt lat="44.51869" lon="0.69631">
        <ele>197.5</ele>
        <time>2014-7-5T10:55:38.000Z</time>
      </trkpt>
      <trkpt lat="44.51869" lon="0.69634">
        <ele>196.5</ele>
        <time>2014-7-5T10:55:38.000Z</time>
      </trkpt>
      <trkpt lat="44.51869" lon="0.69634">
        <ele>196.5</ele>
        <time>2014-7-5T10:55:38.000Z</time>
      </trkpt>
      <trkpt lat="44.5187" lon="0.69638">
        <ele>196.5</ele>
        <time>2014-7-5T10:55:38.000Z</time>
      </trkpt>
      <trkpt lat="44.5187" lon="0.69638">
        <ele>196.5</ele>
        <time>2014-7-5T10:55:38.000Z</time>
      </trkpt>
      <trkpt lat="44.51871" lon="0.69641">
        <ele>196.5</ele>
        <time>2014-7-5T10:55:38.000Z</time>
      </trkpt>
      <trkpt lat="44.51871" lon="0.69641">
        <ele>196.5</ele>
        <time>2014-7-5T10:55:38.000Z</time>
      </trkpt>
      <trkpt lat="44.51872" lon="0.69644">
        <ele>195.5</ele>
        <time>2014-7-5T10:55:38.000Z</time>
      </trkpt>
      <trkpt lat="44.51872" lon="0.69644">
        <ele>195.5</ele>
        <time>2014-7-5T10:55:38.000Z</time>
      </trkpt>
      <trkpt lat="44.51873" lon="0.69647">
        <ele>196.5</ele>
        <time>2014-7-5T10:55:38.000Z</time>
      </trkpt>
      <trkpt lat="44.51873" lon="0.69647">
        <ele>196.5</ele>
        <time>2014-7-5T10:55:38.000Z</time>
      </trkpt>
      <trkpt lat="44.51873" lon="0.69651">
        <ele>195.5</ele>
        <time>2014-7-5T10:55:38.000Z</time>
      </trkpt>
      <trkpt lat="44.51873" lon="0.69651">
        <ele>195.5</ele>
        <time>2014-7-5T10:55:38.000Z</time>
      </trkpt>
      <trkpt lat="44.51874" lon="0.69654">
        <ele>195.5</ele>
        <time>2014-7-5T10:55:38.000Z</time>
      </trkpt>
      <trkpt lat="44.51874" lon="0.69654">
        <ele>195.5</ele>
        <time>2014-7-5T10:55:38.000Z</time>
      </trkpt>
      <trkpt lat="44.51874" lon="0.69656">
        <ele>195.5</ele>
        <time>2014-7-5T10:55:38.000Z</time>
      </trkpt>
      <trkpt lat="44.51874" lon="0.69656">
        <ele>195.5</ele>
        <time>2014-7-5T10:55:38.000Z</time>
      </trkpt>
      <trkpt lat="44.51874" lon="0.69659">
        <ele>194.5</ele>
        <time>2014-7-5T10:55:38.000Z</time>
      </trkpt>
      <trkpt lat="44.51874" lon="0.69659">
        <ele>194.5</ele>
        <time>2014-7-5T10:55:38.000Z</time>
      </trkpt>
      <trkpt lat="44.51875" lon="0.69664">
        <ele>194.5</ele>
        <time>2014-7-5T10:55:38.000Z</time>
      </trkpt>
      <trkpt lat="44.51875" lon="0.69664">
        <ele>194.5</ele>
        <time>2014-7-5T10:55:38.000Z</time>
      </trkpt>
      <trkpt lat="44.51876" lon="0.69669">
        <ele>194.5</ele>
        <time>2014-7-5T10:55:38.000Z</time>
      </trkpt>
      <trkpt lat="44.51876" lon="0.69669">
        <ele>194.5</ele>
        <time>2014-7-5T10:55:38.000Z</time>
      </trkpt>
      <trkpt lat="44.51876" lon="0.69675">
        <ele>193.5</ele>
        <time>2014-7-5T10:55:38.000Z</time>
      </trkpt>
      <trkpt lat="44.51876" lon="0.69675">
        <ele>193.5</ele>
        <time>2014-7-5T10:55:38.000Z</time>
      </trkpt>
      <trkpt lat="44.51877" lon="0.69681">
        <ele>192.5</ele>
        <time>2014-7-5T10:55:38.000Z</time>
      </trkpt>
      <trkpt lat="44.51877" lon="0.69681">
        <ele>192.5</ele>
        <time>2014-7-5T10:55:38.000Z</time>
      </trkpt>
      <trkpt lat="44.51878" lon="0.69686">
        <ele>191.5</ele>
        <time>2014-7-5T10:55:38.000Z</time>
      </trkpt>
      <trkpt lat="44.51878" lon="0.69686">
        <ele>191.5</ele>
        <time>2014-7-5T10:56:31.000Z</time>
      </trkpt>
      <trkpt lat="44.51878" lon="0.69692">
        <ele>190.5</ele>
        <time>2014-7-5T10:56:31.000Z</time>
      </trkpt>
      <trkpt lat="44.51878" lon="0.69692">
        <ele>190.5</ele>
        <time>2014-7-5T10:56:31.000Z</time>
      </trkpt>
      <trkpt lat="44.51879" lon="0.69697">
        <ele>190.5</ele>
        <time>2014-7-5T10:56:31.000Z</time>
      </trkpt>
      <trkpt lat="44.51879" lon="0.69697">
        <ele>190.5</ele>
        <time>2014-7-5T10:56:31.000Z</time>
      </trkpt>
      <trkpt lat="44.51879" lon="0.69701">
        <ele>190.5</ele>
        <time>2014-7-5T10:56:31.000Z</time>
      </trkpt>
      <trkpt lat="44.51879" lon="0.69701">
        <ele>190.5</ele>
        <time>2014-7-5T10:56:31.000Z</time>
      </trkpt>
      <trkpt lat="44.5188" lon="0.69704">
        <ele>190.5</ele>
        <time>2014-7-5T10:56:31.000Z</time>
      </trkpt>
      <trkpt lat="44.5188" lon="0.69704">
        <ele>190.5</ele>
        <time>2014-7-5T10:56:31.000Z</time>
      </trkpt>
      <trkpt lat="44.5188" lon="0.69707">
        <ele>190.5</ele>
        <time>2014-7-5T10:56:31.000Z</time>
      </trkpt>
      <trkpt lat="44.5188" lon="0.69707">
        <ele>190.5</ele>
        <time>2014-7-5T10:56:31.000Z</time>
      </trkpt>
      <trkpt lat="44.5188" lon="0.69711">
        <ele>189.5</ele>
        <time>2014-7-5T10:56:31.000Z</time>
      </trkpt>
      <trkpt lat="44.5188" lon="0.69711">
        <ele>189.5</ele>
        <time>2014-7-5T10:56:31.000Z</time>
      </trkpt>
      <trkpt lat="44.51881" lon="0.69714">
        <ele>189.5</ele>
        <time>2014-7-5T10:56:31.000Z</time>
      </trkpt>
      <trkpt lat="44.51881" lon="0.69714">
        <ele>189.5</ele>
        <time>2014-7-5T10:56:31.000Z</time>
      </trkpt>
      <trkpt lat="44.51884" lon="0.69715">
        <ele>189.5</ele>
        <time>2014-7-5T10:56:31.000Z</time>
      </trkpt>
      <trkpt lat="44.51884" lon="0.69715">
        <ele>189.5</ele>
        <time>2014-7-5T10:56:31.000Z</time>
      </trkpt>
      <trkpt lat="44.51885" lon="0.69713">
        <ele>189.5</ele>
        <time>2014-7-5T10:56:31.000Z</time>
      </trkpt>
      <trkpt lat="44.51885" lon="0.69713">
        <ele>189.5</ele>
        <time>2014-7-5T10:56:31.000Z</time>
      </trkpt>
      <trkpt lat="44.51885" lon="0.6971">
        <ele>189.5</ele>
        <time>2014-7-5T10:56:31.000Z</time>
      </trkpt>
      <trkpt lat="44.51885" lon="0.6971">
        <ele>189.5</ele>
        <time>2014-7-5T10:56:31.000Z</time>
      </trkpt>
      <trkpt lat="44.51886" lon="0.69706">
        <ele>189.5</ele>
        <time>2014-7-5T10:56:31.000Z</time>
      </trkpt>
      <trkpt lat="44.51886" lon="0.69706">
        <ele>189.5</ele>
        <time>2014-7-5T10:56:31.000Z</time>
      </trkpt>
      <trkpt lat="44.51886" lon="0.69702">
        <ele>189.5</ele>
        <time>2014-7-5T10:56:31.000Z</time>
      </trkpt>
      <trkpt lat="44.51886" lon="0.69702">
        <ele>189.5</ele>
        <time>2014-7-5T10:56:31.000Z</time>
      </trkpt>
      <trkpt lat="44.51886" lon="0.69696">
        <ele>189.5</ele>
        <time>2014-7-5T10:56:31.000Z</time>
      </trkpt>
      <trkpt lat="44.51886" lon="0.69696">
        <ele>189.5</ele>
        <time>2014-7-5T10:56:31.000Z</time>
      </trkpt>
      <trkpt lat="44.51886" lon="0.69691">
        <ele>189.5</ele>
        <time>2014-7-5T10:56:31.000Z</time>
      </trkpt>
      <trkpt lat="44.51886" lon="0.69691">
        <ele>189.5</ele>
        <time>2014-7-5T10:56:31.000Z</time>
      </trkpt>
      <trkpt lat="44.51887" lon="0.69685">
        <ele>190.5</ele>
        <time>2014-7-5T10:56:31.000Z</time>
      </trkpt>
      <trkpt lat="44.51887" lon="0.69685">
        <ele>190.5</ele>
        <time>2014-7-5T10:56:31.000Z</time>
      </trkpt>
      <trkpt lat="44.51887" lon="0.6968">
        <ele>191.5</ele>
        <time>2014-7-5T10:56:31.000Z</time>
      </trkpt>
      <trkpt lat="44.51887" lon="0.6968">
        <ele>191.5</ele>
        <time>2014-7-5T10:56:31.000Z</time>
      </trkpt>
      <trkpt lat="44.51887" lon="0.69676">
        <ele>190.5</ele>
        <time>2014-7-5T10:56:31.000Z</time>
      </trkpt>
      <trkpt lat="44.51887" lon="0.69676">
        <ele>190.5</ele>
        <time>2014-7-5T10:56:31.000Z</time>
      </trkpt>
      <trkpt lat="44.51887" lon="0.69672">
        <ele>190.5</ele>
        <time>2014-7-5T10:56:31.000Z</time>
      </trkpt>
      <trkpt lat="44.51887" lon="0.69672">
        <ele>190.5</ele>
        <time>2014-7-5T10:56:31.000Z</time>
      </trkpt>
      <trkpt lat="44.51888" lon="0.69668">
        <ele>188.5</ele>
        <time>2014-7-5T10:56:31.000Z</time>
      </trkpt>
      <trkpt lat="44.51888" lon="0.69668">
        <ele>188.5</ele>
        <time>2014-7-5T10:56:31.000Z</time>
      </trkpt>
      <trkpt lat="44.51889" lon="0.69664">
        <ele>189.5</ele>
        <time>2014-7-5T10:56:31.000Z</time>
      </trkpt>
      <trkpt lat="44.51889" lon="0.69664">
        <ele>189.5</ele>
        <time>2014-7-5T10:56:31.000Z</time>
      </trkpt>
      <trkpt lat="44.5189" lon="0.69659">
        <ele>188.5</ele>
        <time>2014-7-5T10:56:31.000Z</time>
      </trkpt>
      <trkpt lat="44.5189" lon="0.69659">
        <ele>188.5</ele>
        <time>2014-7-5T10:56:31.000Z</time>
      </trkpt>
      <trkpt lat="44.5189" lon="0.69654">
        <ele>189.5</ele>
        <time>2014-7-5T10:56:31.000Z</time>
      </trkpt>
      <trkpt lat="44.5189" lon="0.69654">
        <ele>189.5</ele>
        <time>2014-7-5T10:56:31.000Z</time>
      </trkpt>
      <trkpt lat="44.51891" lon="0.69649">
        <ele>189.5</ele>
        <time>2014-7-5T10:56:31.000Z</time>
      </trkpt>
      <trkpt lat="44.51891" lon="0.69649">
        <ele>189.5</ele>
        <time>2014-7-5T10:56:31.000Z</time>
      </trkpt>
      <trkpt lat="44.51891" lon="0.69643">
        <ele>189.5</ele>
        <time>2014-7-5T10:56:31.000Z</time>
      </trkpt>
      <trkpt lat="44.51891" lon="0.69643">
        <ele>189.5</ele>
        <time>2014-7-5T10:56:31.000Z</time>
      </trkpt>
      <trkpt lat="44.51892" lon="0.69638">
        <ele>189.5</ele>
        <time>2014-7-5T10:56:31.000Z</time>
      </trkpt>
      <trkpt lat="44.51892" lon="0.69638">
        <ele>189.5</ele>
        <time>2014-7-5T10:56:31.000Z</time>
      </trkpt>
      <trkpt lat="44.51894" lon="0.69632">
        <ele>189.5</ele>
        <time>2014-7-5T10:56:31.000Z</time>
      </trkpt>
      <trkpt lat="44.51894" lon="0.69632">
        <ele>189.5</ele>
        <time>2014-7-5T10:56:31.000Z</time>
      </trkpt>
      <trkpt lat="44.51896" lon="0.69625">
        <ele>189.5</ele>
        <time>2014-7-5T10:56:31.000Z</time>
      </trkpt>
      <trkpt lat="44.51896" lon="0.69625">
        <ele>189.5</ele>
        <time>2014-7-5T10:56:31.000Z</time>
      </trkpt>
      <trkpt lat="44.51898" lon="0.69617">
        <ele>188.5</ele>
        <time>2014-7-5T10:56:31.000Z</time>
      </trkpt>
      <trkpt lat="44.51898" lon="0.69617">
        <ele>188.5</ele>
        <time>2014-7-5T10:56:31.000Z</time>
      </trkpt>
      <trkpt lat="44.51898" lon="0.6961">
        <ele>188.5</ele>
        <time>2014-7-5T10:56:31.000Z</time>
      </trkpt>
      <trkpt lat="44.51898" lon="0.6961">
        <ele>188.5</ele>
        <time>2014-7-5T10:56:31.000Z</time>
      </trkpt>
      <trkpt lat="44.519" lon="0.69604">
        <ele>188.5</ele>
        <time>2014-7-5T10:56:31.000Z</time>
      </trkpt>
      <trkpt lat="44.519" lon="0.69604">
        <ele>188.5</ele>
        <time>2014-7-5T10:56:31.000Z</time>
      </trkpt>
      <trkpt lat="44.51901" lon="0.69598">
        <ele>188.5</ele>
        <time>2014-7-5T10:56:31.000Z</time>
      </trkpt>
      <trkpt lat="44.51901" lon="0.69598">
        <ele>188.5</ele>
        <time>2014-7-5T10:56:31.000Z</time>
      </trkpt>
      <trkpt lat="44.51902" lon="0.69592">
        <ele>188.5</ele>
        <time>2014-7-5T10:56:31.000Z</time>
      </trkpt>
      <trkpt lat="44.51902" lon="0.69592">
        <ele>188.5</ele>
        <time>2014-7-5T10:56:31.000Z</time>
      </trkpt>
      <trkpt lat="44.51903" lon="0.69589">
        <ele>189.5</ele>
        <time>2014-7-5T10:56:31.000Z</time>
      </trkpt>
      <trkpt lat="44.51903" lon="0.69589">
        <ele>189.5</ele>
        <time>2014-7-5T10:56:31.000Z</time>
      </trkpt>
      <trkpt lat="44.51904" lon="0.69584">
        <ele>188.5</ele>
        <time>2014-7-5T10:56:31.000Z</time>
      </trkpt>
      <trkpt lat="44.51904" lon="0.69584">
        <ele>188.5</ele>
        <time>2014-7-5T10:56:31.000Z</time>
      </trkpt>
      <trkpt lat="44.51905" lon="0.69578">
        <ele>187.5</ele>
        <time>2014-7-5T10:56:31.000Z</time>
      </trkpt>
      <trkpt lat="44.51905" lon="0.69578">
        <ele>187.5</ele>
        <time>2014-7-5T10:56:31.000Z</time>
      </trkpt>
      <trkpt lat="44.51906" lon="0.69573">
        <ele>188.5</ele>
        <time>2014-7-5T10:56:31.000Z</time>
      </trkpt>
      <trkpt lat="44.51906" lon="0.69573">
        <ele>188.5</ele>
        <time>2014-7-5T10:56:31.000Z</time>
      </trkpt>
      <trkpt lat="44.51908" lon="0.69567">
        <ele>188.5</ele>
        <time>2014-7-5T10:56:31.000Z</time>
      </trkpt>
      <trkpt lat="44.51908" lon="0.69567">
        <ele>188.5</ele>
        <time>2014-7-5T10:56:31.000Z</time>
      </trkpt>
      <trkpt lat="44.51909" lon="0.69562">
        <ele>188.5</ele>
        <time>2014-7-5T10:56:31.000Z</time>
      </trkpt>
      <trkpt lat="44.51909" lon="0.69562">
        <ele>188.5</ele>
        <time>2014-7-5T10:56:31.000Z</time>
      </trkpt>
      <trkpt lat="44.5191" lon="0.69556">
        <ele>188.5</ele>
        <time>2014-7-5T10:56:31.000Z</time>
      </trkpt>
      <trkpt lat="44.5191" lon="0.69556">
        <ele>188.5</ele>
        <time>2014-7-5T10:56:31.000Z</time>
      </trkpt>
      <trkpt lat="44.51911" lon="0.6955">
        <ele>188.5</ele>
        <time>2014-7-5T10:56:31.000Z</time>
      </trkpt>
      <trkpt lat="44.51911" lon="0.6955">
        <ele>188.5</ele>
        <time>2014-7-5T10:56:31.000Z</time>
      </trkpt>
      <trkpt lat="44.51913" lon="0.69545">
        <ele>188.5</ele>
        <time>2014-7-5T10:56:31.000Z</time>
      </trkpt>
      <trkpt lat="44.51913" lon="0.69545">
        <ele>188.5</ele>
        <time>2014-7-5T10:56:31.000Z</time>
      </trkpt>
      <trkpt lat="44.51916" lon="0.69533">
        <ele>187.5</ele>
        <time>2014-7-5T10:56:31.000Z</time>
      </trkpt>
      <trkpt lat="44.51916" lon="0.69533">
        <ele>187.5</ele>
        <time>2014-7-5T10:56:31.000Z</time>
      </trkpt>
      <trkpt lat="44.51918" lon="0.69529">
        <ele>187.5</ele>
        <time>2014-7-5T10:56:31.000Z</time>
      </trkpt>
      <trkpt lat="44.51918" lon="0.69529">
        <ele>187.5</ele>
        <time>2014-7-5T10:56:31.000Z</time>
      </trkpt>
      <trkpt lat="44.5192" lon="0.69524">
        <ele>188.5</ele>
        <time>2014-7-5T10:56:31.000Z</time>
      </trkpt>
      <trkpt lat="44.5192" lon="0.69524">
        <ele>188.5</ele>
        <time>2014-7-5T10:56:31.000Z</time>
      </trkpt>
      <trkpt lat="44.51921" lon="0.69519">
        <ele>188.5</ele>
        <time>2014-7-5T10:56:31.000Z</time>
      </trkpt>
      <trkpt lat="44.51921" lon="0.69519">
        <ele>188.5</ele>
        <time>2014-7-5T10:56:31.000Z</time>
      </trkpt>
      <trkpt lat="44.51923" lon="0.69515">
        <ele>189.5</ele>
        <time>2014-7-5T10:56:31.000Z</time>
      </trkpt>
      <trkpt lat="44.51923" lon="0.69515">
        <ele>189.5</ele>
        <time>2014-7-5T10:56:31.000Z</time>
      </trkpt>
      <trkpt lat="44.51924" lon="0.69511">
        <ele>188.5</ele>
        <time>2014-7-5T10:56:31.000Z</time>
      </trkpt>
      <trkpt lat="44.51924" lon="0.69511">
        <ele>188.5</ele>
        <time>2014-7-5T10:56:31.000Z</time>
      </trkpt>
      <trkpt lat="44.51926" lon="0.69506">
        <ele>188.5</ele>
        <time>2014-7-5T10:56:31.000Z</time>
      </trkpt>
      <trkpt lat="44.51926" lon="0.69506">
        <ele>188.5</ele>
        <time>2014-7-5T10:56:31.000Z</time>
      </trkpt>
      <trkpt lat="44.51928" lon="0.69501">
        <ele>188.5</ele>
        <time>2014-7-5T10:56:31.000Z</time>
      </trkpt>
      <trkpt lat="44.51928" lon="0.69501">
        <ele>188.5</ele>
        <time>2014-7-5T10:56:31.000Z</time>
      </trkpt>
      <trkpt lat="44.5193" lon="0.69496">
        <ele>188.5</ele>
        <time>2014-7-5T10:56:31.000Z</time>
      </trkpt>
      <trkpt lat="44.5193" lon="0.69496">
        <ele>188.5</ele>
        <time>2014-7-5T10:56:31.000Z</time>
      </trkpt>
      <trkpt lat="44.51931" lon="0.69491">
        <ele>188.5</ele>
        <time>2014-7-5T10:57:20.000Z</time>
      </trkpt>
      <trkpt lat="44.51931" lon="0.69491">
        <ele>188.5</ele>
        <time>2014-7-5T10:57:20.000Z</time>
      </trkpt>
      <trkpt lat="44.51933" lon="0.69486">
        <ele>188.5</ele>
        <time>2014-7-5T10:57:20.000Z</time>
      </trkpt>
      <trkpt lat="44.51933" lon="0.69486">
        <ele>188.5</ele>
        <time>2014-7-5T10:57:20.000Z</time>
      </trkpt>
      <trkpt lat="44.51934" lon="0.69481">
        <ele>187.5</ele>
        <time>2014-7-5T10:57:20.000Z</time>
      </trkpt>
      <trkpt lat="44.51934" lon="0.69481">
        <ele>187.5</ele>
        <time>2014-7-5T10:57:20.000Z</time>
      </trkpt>
      <trkpt lat="44.51936" lon="0.69476">
        <ele>188.5</ele>
        <time>2014-7-5T10:57:20.000Z</time>
      </trkpt>
      <trkpt lat="44.51936" lon="0.69476">
        <ele>188.5</ele>
        <time>2014-7-5T10:57:20.000Z</time>
      </trkpt>
      <trkpt lat="44.51938" lon="0.69471">
        <ele>188.5</ele>
        <time>2014-7-5T10:57:20.000Z</time>
      </trkpt>
      <trkpt lat="44.51938" lon="0.69471">
        <ele>188.5</ele>
        <time>2014-7-5T10:57:20.000Z</time>
      </trkpt>
      <trkpt lat="44.51939" lon="0.69467">
        <ele>188.5</ele>
        <time>2014-7-5T10:57:20.000Z</time>
      </trkpt>
      <trkpt lat="44.51939" lon="0.69467">
        <ele>188.5</ele>
        <time>2014-7-5T10:57:20.000Z</time>
      </trkpt>
      <trkpt lat="44.51941" lon="0.69462">
        <ele>189.5</ele>
        <time>2014-7-5T10:57:20.000Z</time>
      </trkpt>
      <trkpt lat="44.51941" lon="0.69462">
        <ele>189.5</ele>
        <time>2014-7-5T10:57:20.000Z</time>
      </trkpt>
      <trkpt lat="44.51943" lon="0.69457">
        <ele>189.5</ele>
        <time>2014-7-5T10:57:20.000Z</time>
      </trkpt>
      <trkpt lat="44.51943" lon="0.69457">
        <ele>189.5</ele>
        <time>2014-7-5T10:57:20.000Z</time>
      </trkpt>
      <trkpt lat="44.51944" lon="0.69452">
        <ele>187.5</ele>
        <time>2014-7-5T10:57:20.000Z</time>
      </trkpt>
      <trkpt lat="44.51944" lon="0.69452">
        <ele>187.5</ele>
        <time>2014-7-5T10:57:20.000Z</time>
      </trkpt>
      <trkpt lat="44.51945" lon="0.69447">
        <ele>188.5</ele>
        <time>2014-7-5T10:57:20.000Z</time>
      </trkpt>
      <trkpt lat="44.51945" lon="0.69447">
        <ele>188.5</ele>
        <time>2014-7-5T10:57:20.000Z</time>
      </trkpt>
      <trkpt lat="44.51947" lon="0.69442">
        <ele>187.5</ele>
        <time>2014-7-5T10:57:20.000Z</time>
      </trkpt>
      <trkpt lat="44.51947" lon="0.69442">
        <ele>187.5</ele>
        <time>2014-7-5T10:57:20.000Z</time>
      </trkpt>
      <trkpt lat="44.51948" lon="0.69437">
        <ele>188.5</ele>
        <time>2014-7-5T10:57:20.000Z</time>
      </trkpt>
      <trkpt lat="44.51948" lon="0.69437">
        <ele>188.5</ele>
        <time>2014-7-5T10:57:20.000Z</time>
      </trkpt>
      <trkpt lat="44.51949" lon="0.69432">
        <ele>189.5</ele>
        <time>2014-7-5T10:57:20.000Z</time>
      </trkpt>
      <trkpt lat="44.51949" lon="0.69432">
        <ele>189.5</ele>
        <time>2014-7-5T10:57:20.000Z</time>
      </trkpt>
      <trkpt lat="44.5195" lon="0.69427">
        <ele>186.5</ele>
        <time>2014-7-5T10:57:20.000Z</time>
      </trkpt>
      <trkpt lat="44.5195" lon="0.69427">
        <ele>186.5</ele>
        <time>2014-7-5T10:57:20.000Z</time>
      </trkpt>
      <trkpt lat="44.51951" lon="0.69422">
        <ele>188.5</ele>
        <time>2014-7-5T10:57:20.000Z</time>
      </trkpt>
      <trkpt lat="44.51951" lon="0.69422">
        <ele>188.5</ele>
        <time>2014-7-5T10:57:20.000Z</time>
      </trkpt>
      <trkpt lat="44.51952" lon="0.69417">
        <ele>189.5</ele>
        <time>2014-7-5T10:57:20.000Z</time>
      </trkpt>
      <trkpt lat="44.51952" lon="0.69417">
        <ele>189.5</ele>
        <time>2014-7-5T10:57:20.000Z</time>
      </trkpt>
      <trkpt lat="44.51953" lon="0.69412">
        <ele>189.5</ele>
        <time>2014-7-5T10:57:20.000Z</time>
      </trkpt>
      <trkpt lat="44.51953" lon="0.69412">
        <ele>189.5</ele>
        <time>2014-7-5T10:57:20.000Z</time>
      </trkpt>
      <trkpt lat="44.51954" lon="0.69407">
        <ele>188.5</ele>
        <time>2014-7-5T10:57:20.000Z</time>
      </trkpt>
      <trkpt lat="44.51954" lon="0.69407">
        <ele>188.5</ele>
        <time>2014-7-5T10:57:20.000Z</time>
      </trkpt>
      <trkpt lat="44.51955" lon="0.69402">
        <ele>188.5</ele>
        <time>2014-7-5T10:57:20.000Z</time>
      </trkpt>
      <trkpt lat="44.51955" lon="0.69402">
        <ele>188.5</ele>
        <time>2014-7-5T10:57:20.000Z</time>
      </trkpt>
      <trkpt lat="44.51955" lon="0.69397">
        <ele>188.5</ele>
        <time>2014-7-5T10:57:20.000Z</time>
      </trkpt>
      <trkpt lat="44.51955" lon="0.69397">
        <ele>188.5</ele>
        <time>2014-7-5T10:57:20.000Z</time>
      </trkpt>
      <trkpt lat="44.51956" lon="0.69391">
        <ele>188.5</ele>
        <time>2014-7-5T10:57:20.000Z</time>
      </trkpt>
      <trkpt lat="44.51956" lon="0.69391">
        <ele>188.5</ele>
        <time>2014-7-5T10:57:20.000Z</time>
      </trkpt>
      <trkpt lat="44.51957" lon="0.69387">
        <ele>187.5</ele>
        <time>2014-7-5T10:57:20.000Z</time>
      </trkpt>
      <trkpt lat="44.51957" lon="0.69387">
        <ele>187.5</ele>
        <time>2014-7-5T10:57:20.000Z</time>
      </trkpt>
      <trkpt lat="44.51958" lon="0.69382">
        <ele>185.5</ele>
        <time>2014-7-5T10:57:20.000Z</time>
      </trkpt>
      <trkpt lat="44.51958" lon="0.69382">
        <ele>185.5</ele>
        <time>2014-7-5T10:57:20.000Z</time>
      </trkpt>
      <trkpt lat="44.51959" lon="0.69376">
        <ele>184.5</ele>
        <time>2014-7-5T10:57:20.000Z</time>
      </trkpt>
      <trkpt lat="44.51959" lon="0.69376">
        <ele>184.5</ele>
        <time>2014-7-5T10:57:20.000Z</time>
      </trkpt>
      <trkpt lat="44.5196" lon="0.69369">
        <ele>184.5</ele>
        <time>2014-7-5T10:57:20.000Z</time>
      </trkpt>
      <trkpt lat="44.5196" lon="0.69369">
        <ele>184.5</ele>
        <time>2014-7-5T10:57:20.000Z</time>
      </trkpt>
      <trkpt lat="44.51961" lon="0.69364">
        <ele>183.5</ele>
        <time>2014-7-5T10:57:20.000Z</time>
      </trkpt>
      <trkpt lat="44.51961" lon="0.69364">
        <ele>183.5</ele>
        <time>2014-7-5T10:57:20.000Z</time>
      </trkpt>
      <trkpt lat="44.51962" lon="0.69359">
        <ele>182.5</ele>
        <time>2014-7-5T10:57:20.000Z</time>
      </trkpt>
      <trkpt lat="44.51962" lon="0.69359">
        <ele>182.5</ele>
        <time>2014-7-5T10:57:20.000Z</time>
      </trkpt>
      <trkpt lat="44.51962" lon="0.69353">
        <ele>182.5</ele>
        <time>2014-7-5T10:57:20.000Z</time>
      </trkpt>
      <trkpt lat="44.51962" lon="0.69353">
        <ele>182.5</ele>
        <time>2014-7-5T10:57:20.000Z</time>
      </trkpt>
      <trkpt lat="44.51962" lon="0.69347">
        <ele>181.5</ele>
        <time>2014-7-5T10:57:20.000Z</time>
      </trkpt>
      <trkpt lat="44.51962" lon="0.69347">
        <ele>181.5</ele>
        <time>2014-7-5T10:57:20.000Z</time>
      </trkpt>
      <trkpt lat="44.51963" lon="0.69342">
        <ele>180.5</ele>
        <time>2014-7-5T10:57:20.000Z</time>
      </trkpt>
      <trkpt lat="44.51963" lon="0.69342">
        <ele>180.5</ele>
        <time>2014-7-5T10:57:20.000Z</time>
      </trkpt>
      <trkpt lat="44.51963" lon="0.69336">
        <ele>180.5</ele>
        <time>2014-7-5T10:57:20.000Z</time>
      </trkpt>
      <trkpt lat="44.51963" lon="0.69336">
        <ele>180.5</ele>
        <time>2014-7-5T10:57:20.000Z</time>
      </trkpt>
      <trkpt lat="44.51963" lon="0.6933">
        <ele>179.5</ele>
        <time>2014-7-5T10:57:20.000Z</time>
      </trkpt>
      <trkpt lat="44.51963" lon="0.6933">
        <ele>179.5</ele>
        <time>2014-7-5T10:57:20.000Z</time>
      </trkpt>
      <trkpt lat="44.51963" lon="0.69324">
        <ele>180.5</ele>
        <time>2014-7-5T10:57:20.000Z</time>
      </trkpt>
      <trkpt lat="44.51963" lon="0.69324">
        <ele>180.5</ele>
        <time>2014-7-5T10:57:20.000Z</time>
      </trkpt>
      <trkpt lat="44.51962" lon="0.69318">
        <ele>180.5</ele>
        <time>2014-7-5T10:57:20.000Z</time>
      </trkpt>
      <trkpt lat="44.51962" lon="0.69318">
        <ele>180.5</ele>
        <time>2014-7-5T10:57:20.000Z</time>
      </trkpt>
      <trkpt lat="44.51962" lon="0.69312">
        <ele>179.5</ele>
        <time>2014-7-5T10:57:20.000Z</time>
      </trkpt>
      <trkpt lat="44.51962" lon="0.69312">
        <ele>179.5</ele>
        <time>2014-7-5T10:57:20.000Z</time>
      </trkpt>
      <trkpt lat="44.51962" lon="0.69304">
        <ele>179.5</ele>
        <time>2014-7-5T10:57:20.000Z</time>
      </trkpt>
      <trkpt lat="44.51962" lon="0.69304">
        <ele>179.5</ele>
        <time>2014-7-5T10:57:20.000Z</time>
      </trkpt>
      <trkpt lat="44.51962" lon="0.69298">
        <ele>179.5</ele>
        <time>2014-7-5T10:57:20.000Z</time>
      </trkpt>
      <trkpt lat="44.51962" lon="0.69298">
        <ele>179.5</ele>
        <time>2014-7-5T10:57:20.000Z</time>
      </trkpt>
      <trkpt lat="44.51962" lon="0.69293">
        <ele>178.5</ele>
        <time>2014-7-5T10:57:20.000Z</time>
      </trkpt>
      <trkpt lat="44.51962" lon="0.69293">
        <ele>178.5</ele>
        <time>2014-7-5T10:57:20.000Z</time>
      </trkpt>
      <trkpt lat="44.51961" lon="0.69288">
        <ele>178.5</ele>
        <time>2014-7-5T10:57:20.000Z</time>
      </trkpt>
      <trkpt lat="44.51961" lon="0.69288">
        <ele>178.5</ele>
        <time>2014-7-5T10:57:20.000Z</time>
      </trkpt>
      <trkpt lat="44.51961" lon="0.69283">
        <ele>178.5</ele>
        <time>2014-7-5T10:57:20.000Z</time>
      </trkpt>
      <trkpt lat="44.51961" lon="0.69283">
        <ele>178.5</ele>
        <time>2014-7-5T10:57:20.000Z</time>
      </trkpt>
      <trkpt lat="44.51961" lon="0.69278">
        <ele>177.5</ele>
        <time>2014-7-5T10:57:20.000Z</time>
      </trkpt>
      <trkpt lat="44.51961" lon="0.69278">
        <ele>177.5</ele>
        <time>2014-7-5T10:57:20.000Z</time>
      </trkpt>
      <trkpt lat="44.5196" lon="0.69273">
        <ele>176.5</ele>
        <time>2014-7-5T10:57:20.000Z</time>
      </trkpt>
      <trkpt lat="44.5196" lon="0.69273">
        <ele>176.5</ele>
        <time>2014-7-5T10:57:20.000Z</time>
      </trkpt>
      <trkpt lat="44.5196" lon="0.69267">
        <ele>175.5</ele>
        <time>2014-7-5T10:57:20.000Z</time>
      </trkpt>
      <trkpt lat="44.5196" lon="0.69267">
        <ele>175.5</ele>
        <time>2014-7-5T10:57:20.000Z</time>
      </trkpt>
      <trkpt lat="44.51959" lon="0.69261">
        <ele>175.5</ele>
        <time>2014-7-5T10:57:20.000Z</time>
      </trkpt>
      <trkpt lat="44.51959" lon="0.69261">
        <ele>175.5</ele>
        <time>2014-7-5T10:57:20.000Z</time>
      </trkpt>
      <trkpt lat="44.51956" lon="0.69255">
        <ele>174.5</ele>
        <time>2014-7-5T10:57:20.000Z</time>
      </trkpt>
      <trkpt lat="44.51956" lon="0.69255">
        <ele>174.5</ele>
        <time>2014-7-5T10:57:20.000Z</time>
      </trkpt>
      <trkpt lat="44.51954" lon="0.6925">
        <ele>173.5</ele>
        <time>2014-7-5T10:57:20.000Z</time>
      </trkpt>
      <trkpt lat="44.51954" lon="0.6925">
        <ele>173.5</ele>
        <time>2014-7-5T10:57:20.000Z</time>
      </trkpt>
      <trkpt lat="44.51953" lon="0.69243">
        <ele>173.5</ele>
        <time>2014-7-5T10:57:20.000Z</time>
      </trkpt>
      <trkpt lat="44.51953" lon="0.69243">
        <ele>173.5</ele>
        <time>2014-7-5T10:57:20.000Z</time>
      </trkpt>
      <trkpt lat="44.51953" lon="0.69236">
        <ele>172.5</ele>
        <time>2014-7-5T10:57:20.000Z</time>
      </trkpt>
      <trkpt lat="44.51953" lon="0.69236">
        <ele>172.5</ele>
        <time>2014-7-5T10:57:20.000Z</time>
      </trkpt>
      <trkpt lat="44.51953" lon="0.69229">
        <ele>172.5</ele>
        <time>2014-7-5T10:57:20.000Z</time>
      </trkpt>
      <trkpt lat="44.51953" lon="0.69229">
        <ele>172.5</ele>
        <time>2014-7-5T10:57:20.000Z</time>
      </trkpt>
      <trkpt lat="44.51954" lon="0.69221">
        <ele>171.5</ele>
        <time>2014-7-5T10:57:20.000Z</time>
      </trkpt>
      <trkpt lat="44.51954" lon="0.69221">
        <ele>171.5</ele>
        <time>2014-7-5T10:57:20.000Z</time>
      </trkpt>
      <trkpt lat="44.51955" lon="0.69214">
        <ele>171.5</ele>
        <time>2014-7-5T10:57:20.000Z</time>
      </trkpt>
      <trkpt lat="44.51955" lon="0.69214">
        <ele>171.5</ele>
        <time>2014-7-5T10:58:10.000Z</time>
      </trkpt>
      <trkpt lat="44.51958" lon="0.69206">
        <ele>171.5</ele>
        <time>2014-7-5T10:58:10.000Z</time>
      </trkpt>
      <trkpt lat="44.51958" lon="0.69206">
        <ele>171.5</ele>
        <time>2014-7-5T10:58:10.000Z</time>
      </trkpt>
      <trkpt lat="44.5196" lon="0.69196">
        <ele>171.5</ele>
        <time>2014-7-5T10:58:10.000Z</time>
      </trkpt>
      <trkpt lat="44.5196" lon="0.69196">
        <ele>171.5</ele>
        <time>2014-7-5T10:58:10.000Z</time>
      </trkpt>
      <trkpt lat="44.51963" lon="0.6919">
        <ele>172.5</ele>
        <time>2014-7-5T10:58:10.000Z</time>
      </trkpt>
      <trkpt lat="44.51963" lon="0.6919">
        <ele>172.5</ele>
        <time>2014-7-5T10:58:10.000Z</time>
      </trkpt>
      <trkpt lat="44.51967" lon="0.69183">
        <ele>172.5</ele>
        <time>2014-7-5T10:58:10.000Z</time>
      </trkpt>
      <trkpt lat="44.51967" lon="0.69183">
        <ele>172.5</ele>
        <time>2014-7-5T10:58:10.000Z</time>
      </trkpt>
      <trkpt lat="44.5197" lon="0.69177">
        <ele>172.5</ele>
        <time>2014-7-5T10:58:10.000Z</time>
      </trkpt>
      <trkpt lat="44.5197" lon="0.69177">
        <ele>172.5</ele>
        <time>2014-7-5T10:58:10.000Z</time>
      </trkpt>
      <trkpt lat="44.51973" lon="0.69171">
        <ele>172.5</ele>
        <time>2014-7-5T10:58:10.000Z</time>
      </trkpt>
      <trkpt lat="44.51973" lon="0.69171">
        <ele>172.5</ele>
        <time>2014-7-5T10:58:10.000Z</time>
      </trkpt>
      <trkpt lat="44.51977" lon="0.69164">
        <ele>172.5</ele>
        <time>2014-7-5T10:58:10.000Z</time>
      </trkpt>
      <trkpt lat="44.51977" lon="0.69164">
        <ele>172.5</ele>
        <time>2014-7-5T10:58:10.000Z</time>
      </trkpt>
      <trkpt lat="44.51979" lon="0.69158">
        <ele>173.5</ele>
        <time>2014-7-5T10:58:10.000Z</time>
      </trkpt>
      <trkpt lat="44.51979" lon="0.69158">
        <ele>173.5</ele>
        <time>2014-7-5T10:58:10.000Z</time>
      </trkpt>
      <trkpt lat="44.51981" lon="0.69153">
        <ele>173.5</ele>
        <time>2014-7-5T10:58:10.000Z</time>
      </trkpt>
      <trkpt lat="44.51981" lon="0.69153">
        <ele>173.5</ele>
        <time>2014-7-5T10:58:10.000Z</time>
      </trkpt>
      <trkpt lat="44.51984" lon="0.69148">
        <ele>173.5</ele>
        <time>2014-7-5T10:58:10.000Z</time>
      </trkpt>
      <trkpt lat="44.51984" lon="0.69148">
        <ele>173.5</ele>
        <time>2014-7-5T10:58:10.000Z</time>
      </trkpt>
      <trkpt lat="44.51986" lon="0.69144">
        <ele>174.5</ele>
        <time>2014-7-5T10:58:10.000Z</time>
      </trkpt>
      <trkpt lat="44.51986" lon="0.69144">
        <ele>174.5</ele>
        <time>2014-7-5T10:58:10.000Z</time>
      </trkpt>
      <trkpt lat="44.51987" lon="0.69139">
        <ele>174.5</ele>
        <time>2014-7-5T10:58:10.000Z</time>
      </trkpt>
      <trkpt lat="44.51987" lon="0.69139">
        <ele>174.5</ele>
        <time>2014-7-5T10:58:10.000Z</time>
      </trkpt>
      <trkpt lat="44.51989" lon="0.69134">
        <ele>175.5</ele>
        <time>2014-7-5T10:58:10.000Z</time>
      </trkpt>
      <trkpt lat="44.51989" lon="0.69134">
        <ele>175.5</ele>
        <time>2014-7-5T10:58:10.000Z</time>
      </trkpt>
      <trkpt lat="44.51991" lon="0.69129">
        <ele>174.5</ele>
        <time>2014-7-5T10:58:10.000Z</time>
      </trkpt>
      <trkpt lat="44.51991" lon="0.69129">
        <ele>174.5</ele>
        <time>2014-7-5T10:58:10.000Z</time>
      </trkpt>
      <trkpt lat="44.51992" lon="0.69124">
        <ele>175.5</ele>
        <time>2014-7-5T10:58:10.000Z</time>
      </trkpt>
      <trkpt lat="44.51992" lon="0.69124">
        <ele>175.5</ele>
        <time>2014-7-5T10:58:10.000Z</time>
      </trkpt>
      <trkpt lat="44.51993" lon="0.69119">
        <ele>175.5</ele>
        <time>2014-7-5T10:58:10.000Z</time>
      </trkpt>
      <trkpt lat="44.51993" lon="0.69119">
        <ele>175.5</ele>
        <time>2014-7-5T10:58:10.000Z</time>
      </trkpt>
      <trkpt lat="44.51994" lon="0.69115">
        <ele>175.5</ele>
        <time>2014-7-5T10:58:10.000Z</time>
      </trkpt>
      <trkpt lat="44.51994" lon="0.69115">
        <ele>175.5</ele>
        <time>2014-7-5T10:58:10.000Z</time>
      </trkpt>
      <trkpt lat="44.51995" lon="0.69111">
        <ele>175.5</ele>
        <time>2014-7-5T10:58:10.000Z</time>
      </trkpt>
      <trkpt lat="44.51995" lon="0.69111">
        <ele>175.5</ele>
        <time>2014-7-5T10:58:10.000Z</time>
      </trkpt>
      <trkpt lat="44.51996" lon="0.69107">
        <ele>176.5</ele>
        <time>2014-7-5T10:58:10.000Z</time>
      </trkpt>
      <trkpt lat="44.51996" lon="0.69107">
        <ele>176.5</ele>
        <time>2014-7-5T10:58:10.000Z</time>
      </trkpt>
      <trkpt lat="44.51998" lon="0.69104">
        <ele>175.5</ele>
        <time>2014-7-5T10:58:10.000Z</time>
      </trkpt>
      <trkpt lat="44.51998" lon="0.69104">
        <ele>175.5</ele>
        <time>2014-7-5T10:58:10.000Z</time>
      </trkpt>
      <trkpt lat="44.51999" lon="0.691">
        <ele>175.5</ele>
        <time>2014-7-5T10:58:10.000Z</time>
      </trkpt>
      <trkpt lat="44.51999" lon="0.691">
        <ele>175.5</ele>
        <time>2014-7-5T10:58:10.000Z</time>
      </trkpt>
      <trkpt lat="44.52001" lon="0.69097">
        <ele>175.5</ele>
        <time>2014-7-5T10:58:10.000Z</time>
      </trkpt>
      <trkpt lat="44.52001" lon="0.69097">
        <ele>175.5</ele>
        <time>2014-7-5T10:58:10.000Z</time>
      </trkpt>
      <trkpt lat="44.52003" lon="0.69093">
        <ele>174.5</ele>
        <time>2014-7-5T10:58:10.000Z</time>
      </trkpt>
      <trkpt lat="44.52003" lon="0.69093">
        <ele>174.5</ele>
        <time>2014-7-5T10:58:10.000Z</time>
      </trkpt>
      <trkpt lat="44.52005" lon="0.69089">
        <ele>174.5</ele>
        <time>2014-7-5T10:58:10.000Z</time>
      </trkpt>
      <trkpt lat="44.52005" lon="0.69089">
        <ele>174.5</ele>
        <time>2014-7-5T10:58:10.000Z</time>
      </trkpt>
      <trkpt lat="44.52007" lon="0.69084">
        <ele>173.5</ele>
        <time>2014-7-5T10:58:10.000Z</time>
      </trkpt>
      <trkpt lat="44.52007" lon="0.69084">
        <ele>173.5</ele>
        <time>2014-7-5T10:58:10.000Z</time>
      </trkpt>
      <trkpt lat="44.52011" lon="0.69078">
        <ele>173.5</ele>
        <time>2014-7-5T10:58:10.000Z</time>
      </trkpt>
      <trkpt lat="44.52011" lon="0.69078">
        <ele>173.5</ele>
        <time>2014-7-5T10:58:10.000Z</time>
      </trkpt>
      <trkpt lat="44.52014" lon="0.69073">
        <ele>172.5</ele>
        <time>2014-7-5T10:58:10.000Z</time>
      </trkpt>
      <trkpt lat="44.52014" lon="0.69073">
        <ele>172.5</ele>
        <time>2014-7-5T10:58:10.000Z</time>
      </trkpt>
      <trkpt lat="44.52018" lon="0.69067">
        <ele>171.5</ele>
        <time>2014-7-5T10:58:10.000Z</time>
      </trkpt>
      <trkpt lat="44.52018" lon="0.69067">
        <ele>171.5</ele>
        <time>2014-7-5T10:58:10.000Z</time>
      </trkpt>
      <trkpt lat="44.52023" lon="0.6906">
        <ele>171.5</ele>
        <time>2014-7-5T10:58:10.000Z</time>
      </trkpt>
      <trkpt lat="44.52023" lon="0.6906">
        <ele>171.5</ele>
        <time>2014-7-5T10:58:10.000Z</time>
      </trkpt>
      <trkpt lat="44.52027" lon="0.69054">
        <ele>170.5</ele>
        <time>2014-7-5T10:58:10.000Z</time>
      </trkpt>
      <trkpt lat="44.52027" lon="0.69054">
        <ele>170.5</ele>
        <time>2014-7-5T10:58:10.000Z</time>
      </trkpt>
      <trkpt lat="44.52031" lon="0.69047">
        <ele>170.5</ele>
        <time>2014-7-5T10:58:10.000Z</time>
      </trkpt>
      <trkpt lat="44.52031" lon="0.69047">
        <ele>170.5</ele>
        <time>2014-7-5T10:58:10.000Z</time>
      </trkpt>
      <trkpt lat="44.52035" lon="0.69041">
        <ele>170.5</ele>
        <time>2014-7-5T10:58:10.000Z</time>
      </trkpt>
      <trkpt lat="44.52035" lon="0.69041">
        <ele>170.5</ele>
        <time>2014-7-5T10:58:10.000Z</time>
      </trkpt>
      <trkpt lat="44.52038" lon="0.69037">
        <ele>170.5</ele>
        <time>2014-7-5T10:58:10.000Z</time>
      </trkpt>
      <trkpt lat="44.52038" lon="0.69037">
        <ele>170.5</ele>
        <time>2014-7-5T10:58:10.000Z</time>
      </trkpt>
      <trkpt lat="44.52041" lon="0.69031">
        <ele>169.5</ele>
        <time>2014-7-5T10:58:10.000Z</time>
      </trkpt>
      <trkpt lat="44.52041" lon="0.69031">
        <ele>169.5</ele>
        <time>2014-7-5T10:58:10.000Z</time>
      </trkpt>
      <trkpt lat="44.52044" lon="0.69026">
        <ele>169.5</ele>
        <time>2014-7-5T10:58:10.000Z</time>
      </trkpt>
      <trkpt lat="44.52044" lon="0.69026">
        <ele>169.5</ele>
        <time>2014-7-5T10:58:10.000Z</time>
      </trkpt>
      <trkpt lat="44.52047" lon="0.69022">
        <ele>168.5</ele>
        <time>2014-7-5T10:58:10.000Z</time>
      </trkpt>
      <trkpt lat="44.52047" lon="0.69022">
        <ele>168.5</ele>
        <time>2014-7-5T10:58:10.000Z</time>
      </trkpt>
      <trkpt lat="44.52052" lon="0.69022">
        <ele>167.5</ele>
        <time>2014-7-5T10:58:10.000Z</time>
      </trkpt>
      <trkpt lat="44.52052" lon="0.69022">
        <ele>167.5</ele>
        <time>2014-7-5T10:58:10.000Z</time>
      </trkpt>
      <trkpt lat="44.52057" lon="0.69025">
        <ele>165.5</ele>
        <time>2014-7-5T10:58:10.000Z</time>
      </trkpt>
      <trkpt lat="44.52057" lon="0.69025">
        <ele>165.5</ele>
        <time>2014-7-5T10:58:10.000Z</time>
      </trkpt>
      <trkpt lat="44.52063" lon="0.69029">
        <ele>165.5</ele>
        <time>2014-7-5T10:58:10.000Z</time>
      </trkpt>
      <trkpt lat="44.52063" lon="0.69029">
        <ele>165.5</ele>
        <time>2014-7-5T10:58:10.000Z</time>
      </trkpt>
      <trkpt lat="44.52068" lon="0.69032">
        <ele>165.5</ele>
        <time>2014-7-5T10:58:10.000Z</time>
      </trkpt>
      <trkpt lat="44.52068" lon="0.69032">
        <ele>165.5</ele>
        <time>2014-7-5T10:58:10.000Z</time>
      </trkpt>
      <trkpt lat="44.52072" lon="0.69034">
        <ele>164.5</ele>
        <time>2014-7-5T10:58:10.000Z</time>
      </trkpt>
      <trkpt lat="44.52072" lon="0.69034">
        <ele>164.5</ele>
        <time>2014-7-5T10:58:10.000Z</time>
      </trkpt>
      <trkpt lat="44.52076" lon="0.69033">
        <ele>164.5</ele>
        <time>2014-7-5T10:58:10.000Z</time>
      </trkpt>
      <trkpt lat="44.52076" lon="0.69033">
        <ele>164.5</ele>
        <time>2014-7-5T10:58:10.000Z</time>
      </trkpt>
      <trkpt lat="44.52078" lon="0.69029">
        <ele>164.5</ele>
        <time>2014-7-5T10:58:10.000Z</time>
      </trkpt>
      <trkpt lat="44.52078" lon="0.69029">
        <ele>164.5</ele>
        <time>2014-7-5T10:58:10.000Z</time>
      </trkpt>
      <trkpt lat="44.5208" lon="0.69025">
        <ele>164.5</ele>
        <time>2014-7-5T10:58:10.000Z</time>
      </trkpt>
      <trkpt lat="44.5208" lon="0.69025">
        <ele>164.5</ele>
        <time>2014-7-5T10:58:10.000Z</time>
      </trkpt>
      <trkpt lat="44.52081" lon="0.6902">
        <ele>164.5</ele>
        <time>2014-7-5T10:58:10.000Z</time>
      </trkpt>
      <trkpt lat="44.52081" lon="0.6902">
        <ele>164.5</ele>
        <time>2014-7-5T10:58:10.000Z</time>
      </trkpt>
      <trkpt lat="44.52082" lon="0.69016">
        <ele>164.5</ele>
        <time>2014-7-5T10:58:10.000Z</time>
      </trkpt>
      <trkpt lat="44.52082" lon="0.69016">
        <ele>164.5</ele>
        <time>2014-7-5T10:58:10.000Z</time>
      </trkpt>
      <trkpt lat="44.52084" lon="0.6901">
        <ele>164.5</ele>
        <time>2014-7-5T10:58:10.000Z</time>
      </trkpt>
      <trkpt lat="44.52084" lon="0.6901">
        <ele>164.5</ele>
        <time>2014-7-5T10:58:10.000Z</time>
      </trkpt>
      <trkpt lat="44.52085" lon="0.69004">
        <ele>163.5</ele>
        <time>2014-7-5T10:58:10.000Z</time>
      </trkpt>
      <trkpt lat="44.52085" lon="0.69004">
        <ele>163.5</ele>
        <time>2014-7-5T10:58:10.000Z</time>
      </trkpt>
      <trkpt lat="44.52087" lon="0.68999">
        <ele>163.5</ele>
        <time>2014-7-5T10:58:10.000Z</time>
      </trkpt>
      <trkpt lat="44.52087" lon="0.68999">
        <ele>163.5</ele>
        <time>2014-7-5T10:58:10.000Z</time>
      </trkpt>
      <trkpt lat="44.52088" lon="0.68993">
        <ele>163.5</ele>
        <time>2014-7-5T10:58:10.000Z</time>
      </trkpt>
      <trkpt lat="44.52088" lon="0.68993">
        <ele>163.5</ele>
        <time>2014-7-5T10:58:10.000Z</time>
      </trkpt>
      <trkpt lat="44.5209" lon="0.68989">
        <ele>163.5</ele>
        <time>2014-7-5T10:59:13.000Z</time>
      </trkpt>
      <trkpt lat="44.5209" lon="0.68989">
        <ele>163.5</ele>
        <time>2014-7-5T10:59:13.000Z</time>
      </trkpt>
      <trkpt lat="44.5209" lon="0.68983">
        <ele>163.5</ele>
        <time>2014-7-5T10:59:13.000Z</time>
      </trkpt>
      <trkpt lat="44.5209" lon="0.68983">
        <ele>163.5</ele>
        <time>2014-7-5T10:59:13.000Z</time>
      </trkpt>
      <trkpt lat="44.52092" lon="0.68979">
        <ele>162.5</ele>
        <time>2014-7-5T10:59:13.000Z</time>
      </trkpt>
      <trkpt lat="44.52092" lon="0.68979">
        <ele>162.5</ele>
        <time>2014-7-5T10:59:13.000Z</time>
      </trkpt>
      <trkpt lat="44.52092" lon="0.68976">
        <ele>162.5</ele>
        <time>2014-7-5T10:59:13.000Z</time>
      </trkpt>
      <trkpt lat="44.52092" lon="0.68976">
        <ele>162.5</ele>
        <time>2014-7-5T10:59:13.000Z</time>
      </trkpt>
      <trkpt lat="44.52092" lon="0.68978">
        <ele>162.5</ele>
        <time>2014-7-5T10:59:13.000Z</time>
      </trkpt>
      <trkpt lat="44.52092" lon="0.68978">
        <ele>162.5</ele>
        <time>2014-7-5T10:59:13.000Z</time>
      </trkpt>
      <trkpt lat="44.52093" lon="0.68975">
        <ele>162.5</ele>
        <time>2014-7-5T10:59:13.000Z</time>
      </trkpt>
      <trkpt lat="44.52093" lon="0.68975">
        <ele>162.5</ele>
        <time>2014-7-5T10:59:13.000Z</time>
      </trkpt>
      <trkpt lat="44.52095" lon="0.68972">
        <ele>161.5</ele>
        <time>2014-7-5T10:59:13.000Z</time>
      </trkpt>
      <trkpt lat="44.52095" lon="0.68972">
        <ele>161.5</ele>
        <time>2014-7-5T10:59:13.000Z</time>
      </trkpt>
      <trkpt lat="44.52096" lon="0.6897">
        <ele>161.5</ele>
        <time>2014-7-5T10:59:13.000Z</time>
      </trkpt>
      <trkpt lat="44.52096" lon="0.6897">
        <ele>161.5</ele>
        <time>2014-7-5T10:59:13.000Z</time>
      </trkpt>
      <trkpt lat="44.52095" lon="0.68967">
        <ele>160.5</ele>
        <time>2014-7-5T10:59:13.000Z</time>
      </trkpt>
      <trkpt lat="44.52095" lon="0.68967">
        <ele>160.5</ele>
        <time>2014-7-5T10:59:13.000Z</time>
      </trkpt>
      <trkpt lat="44.52096" lon="0.68963">
        <ele>161.5</ele>
        <time>2014-7-5T10:59:13.000Z</time>
      </trkpt>
      <trkpt lat="44.52096" lon="0.68963">
        <ele>161.5</ele>
        <time>2014-7-5T10:59:13.000Z</time>
      </trkpt>
      <trkpt lat="44.52097" lon="0.6896">
        <ele>161.5</ele>
        <time>2014-7-5T10:59:13.000Z</time>
      </trkpt>
      <trkpt lat="44.52097" lon="0.6896">
        <ele>161.5</ele>
        <time>2014-7-5T10:59:13.000Z</time>
      </trkpt>
      <trkpt lat="44.52098" lon="0.68956">
        <ele>161.5</ele>
        <time>2014-7-5T10:59:13.000Z</time>
      </trkpt>
      <trkpt lat="44.52098" lon="0.68956">
        <ele>161.5</ele>
        <time>2014-7-5T10:59:13.000Z</time>
      </trkpt>
      <trkpt lat="44.521" lon="0.68952">
        <ele>162.5</ele>
        <time>2014-7-5T10:59:13.000Z</time>
      </trkpt>
      <trkpt lat="44.521" lon="0.68952">
        <ele>162.5</ele>
        <time>2014-7-5T10:59:13.000Z</time>
      </trkpt>
      <trkpt lat="44.52102" lon="0.68947">
        <ele>161.5</ele>
        <time>2014-7-5T10:59:13.000Z</time>
      </trkpt>
      <trkpt lat="44.52102" lon="0.68947">
        <ele>161.5</ele>
        <time>2014-7-5T10:59:13.000Z</time>
      </trkpt>
      <trkpt lat="44.52103" lon="0.68941">
        <ele>161.5</ele>
        <time>2014-7-5T10:59:13.000Z</time>
      </trkpt>
      <trkpt lat="44.52103" lon="0.68941">
        <ele>161.5</ele>
        <time>2014-7-5T10:59:13.000Z</time>
      </trkpt>
      <trkpt lat="44.52105" lon="0.68937">
        <ele>161.5</ele>
        <time>2014-7-5T10:59:13.000Z</time>
      </trkpt>
      <trkpt lat="44.52105" lon="0.68937">
        <ele>161.5</ele>
        <time>2014-7-5T10:59:13.000Z</time>
      </trkpt>
      <trkpt lat="44.52107" lon="0.68932">
        <ele>161.5</ele>
        <time>2014-7-5T10:59:13.000Z</time>
      </trkpt>
      <trkpt lat="44.52107" lon="0.68932">
        <ele>161.5</ele>
        <time>2014-7-5T10:59:13.000Z</time>
      </trkpt>
      <trkpt lat="44.52109" lon="0.68927">
        <ele>162.5</ele>
        <time>2014-7-5T10:59:13.000Z</time>
      </trkpt>
      <trkpt lat="44.52109" lon="0.68927">
        <ele>162.5</ele>
        <time>2014-7-5T10:59:13.000Z</time>
      </trkpt>
      <trkpt lat="44.5211" lon="0.68922">
        <ele>162.5</ele>
        <time>2014-7-5T10:59:13.000Z</time>
      </trkpt>
      <trkpt lat="44.5211" lon="0.68922">
        <ele>162.5</ele>
        <time>2014-7-5T10:59:13.000Z</time>
      </trkpt>
      <trkpt lat="44.52112" lon="0.68917">
        <ele>162.5</ele>
        <time>2014-7-5T10:59:13.000Z</time>
      </trkpt>
      <trkpt lat="44.52112" lon="0.68917">
        <ele>162.5</ele>
        <time>2014-7-5T10:59:13.000Z</time>
      </trkpt>
      <trkpt lat="44.52114" lon="0.68913">
        <ele>162.5</ele>
        <time>2014-7-5T10:59:13.000Z</time>
      </trkpt>
      <trkpt lat="44.52114" lon="0.68913">
        <ele>162.5</ele>
        <time>2014-7-5T10:59:13.000Z</time>
      </trkpt>
      <trkpt lat="44.52116" lon="0.68908">
        <ele>162.5</ele>
        <time>2014-7-5T10:59:13.000Z</time>
      </trkpt>
      <trkpt lat="44.52116" lon="0.68908">
        <ele>162.5</ele>
        <time>2014-7-5T10:59:13.000Z</time>
      </trkpt>
      <trkpt lat="44.52118" lon="0.68902">
        <ele>162.5</ele>
        <time>2014-7-5T10:59:13.000Z</time>
      </trkpt>
      <trkpt lat="44.52118" lon="0.68902">
        <ele>162.5</ele>
        <time>2014-7-5T10:59:13.000Z</time>
      </trkpt>
      <trkpt lat="44.5212" lon="0.68896">
        <ele>162.5</ele>
        <time>2014-7-5T10:59:13.000Z</time>
      </trkpt>
      <trkpt lat="44.5212" lon="0.68896">
        <ele>162.5</ele>
        <time>2014-7-5T10:59:13.000Z</time>
      </trkpt>
      <trkpt lat="44.52121" lon="0.68891">
        <ele>162.5</ele>
        <time>2014-7-5T10:59:13.000Z</time>
      </trkpt>
      <trkpt lat="44.52121" lon="0.68891">
        <ele>162.5</ele>
        <time>2014-7-5T10:59:13.000Z</time>
      </trkpt>
      <trkpt lat="44.52123" lon="0.68885">
        <ele>163.5</ele>
        <time>2014-7-5T10:59:13.000Z</time>
      </trkpt>
      <trkpt lat="44.52123" lon="0.68885">
        <ele>163.5</ele>
        <time>2014-7-5T10:59:13.000Z</time>
      </trkpt>
      <trkpt lat="44.52125" lon="0.68881">
        <ele>163.5</ele>
        <time>2014-7-5T10:59:13.000Z</time>
      </trkpt>
      <trkpt lat="44.52125" lon="0.68881">
        <ele>163.5</ele>
        <time>2014-7-5T10:59:13.000Z</time>
      </trkpt>
      <trkpt lat="44.52126" lon="0.68877">
        <ele>163.5</ele>
        <time>2014-7-5T10:59:13.000Z</time>
      </trkpt>
      <trkpt lat="44.52126" lon="0.68877">
        <ele>163.5</ele>
        <time>2014-7-5T10:59:13.000Z</time>
      </trkpt>
      <trkpt lat="44.52127" lon="0.68873">
        <ele>163.5</ele>
        <time>2014-7-5T10:59:13.000Z</time>
      </trkpt>
      <trkpt lat="44.52127" lon="0.68873">
        <ele>163.5</ele>
        <time>2014-7-5T10:59:13.000Z</time>
      </trkpt>
      <trkpt lat="44.52128" lon="0.68869">
        <ele>164.5</ele>
        <time>2014-7-5T10:59:13.000Z</time>
      </trkpt>
      <trkpt lat="44.52128" lon="0.68869">
        <ele>164.5</ele>
        <time>2014-7-5T10:59:13.000Z</time>
      </trkpt>
      <trkpt lat="44.5213" lon="0.68864">
        <ele>164.5</ele>
        <time>2014-7-5T10:59:13.000Z</time>
      </trkpt>
      <trkpt lat="44.5213" lon="0.68864">
        <ele>164.5</ele>
        <time>2014-7-5T10:59:13.000Z</time>
      </trkpt>
      <trkpt lat="44.52131" lon="0.68861">
        <ele>164.5</ele>
        <time>2014-7-5T10:59:13.000Z</time>
      </trkpt>
      <trkpt lat="44.52131" lon="0.68861">
        <ele>164.5</ele>
        <time>2014-7-5T10:59:13.000Z</time>
      </trkpt>
      <trkpt lat="44.52132" lon="0.68857">
        <ele>163.5</ele>
        <time>2014-7-5T10:59:13.000Z</time>
      </trkpt>
      <trkpt lat="44.52132" lon="0.68857">
        <ele>163.5</ele>
        <time>2014-7-5T10:59:13.000Z</time>
      </trkpt>
      <trkpt lat="44.52134" lon="0.68853">
        <ele>163.5</ele>
        <time>2014-7-5T10:59:13.000Z</time>
      </trkpt>
      <trkpt lat="44.52134" lon="0.68853">
        <ele>163.5</ele>
        <time>2014-7-5T10:59:13.000Z</time>
      </trkpt>
      <trkpt lat="44.52135" lon="0.6885">
        <ele>163.5</ele>
        <time>2014-7-5T10:59:13.000Z</time>
      </trkpt>
      <trkpt lat="44.52135" lon="0.6885">
        <ele>163.5</ele>
        <time>2014-7-5T10:59:13.000Z</time>
      </trkpt>
      <trkpt lat="44.52136" lon="0.68847">
        <ele>163.5</ele>
        <time>2014-7-5T10:59:13.000Z</time>
      </trkpt>
      <trkpt lat="44.52136" lon="0.68847">
        <ele>163.5</ele>
        <time>2014-7-5T10:59:13.000Z</time>
      </trkpt>
      <trkpt lat="44.52137" lon="0.68844">
        <ele>163.5</ele>
        <time>2014-7-5T10:59:13.000Z</time>
      </trkpt>
      <trkpt lat="44.52137" lon="0.68844">
        <ele>163.5</ele>
        <time>2014-7-5T10:59:13.000Z</time>
      </trkpt>
      <trkpt lat="44.52138" lon="0.6884">
        <ele>163.5</ele>
        <time>2014-7-5T10:59:13.000Z</time>
      </trkpt>
      <trkpt lat="44.52138" lon="0.6884">
        <ele>163.5</ele>
        <time>2014-7-5T10:59:13.000Z</time>
      </trkpt>
      <trkpt lat="44.52139" lon="0.68837">
        <ele>163.5</ele>
        <time>2014-7-5T10:59:13.000Z</time>
      </trkpt>
      <trkpt lat="44.52139" lon="0.68837">
        <ele>163.5</ele>
        <time>2014-7-5T10:59:13.000Z</time>
      </trkpt>
      <trkpt lat="44.5214" lon="0.68834">
        <ele>163.5</ele>
        <time>2014-7-5T10:59:13.000Z</time>
      </trkpt>
      <trkpt lat="44.5214" lon="0.68834">
        <ele>163.5</ele>
        <time>2014-7-5T10:59:13.000Z</time>
      </trkpt>
      <trkpt lat="44.52141" lon="0.6883">
        <ele>163.5</ele>
        <time>2014-7-5T10:59:13.000Z</time>
      </trkpt>
      <trkpt lat="44.52141" lon="0.6883">
        <ele>163.5</ele>
        <time>2014-7-5T10:59:13.000Z</time>
      </trkpt>
      <trkpt lat="44.52142" lon="0.68827">
        <ele>163.5</ele>
        <time>2014-7-5T10:59:13.000Z</time>
      </trkpt>
      <trkpt lat="44.52142" lon="0.68827">
        <ele>163.5</ele>
        <time>2014-7-5T10:59:13.000Z</time>
      </trkpt>
      <trkpt lat="44.52143" lon="0.68823">
        <ele>163.5</ele>
        <time>2014-7-5T10:59:13.000Z</time>
      </trkpt>
      <trkpt lat="44.52143" lon="0.68823">
        <ele>163.5</ele>
        <time>2014-7-5T10:59:13.000Z</time>
      </trkpt>
      <trkpt lat="44.52144" lon="0.68819">
        <ele>163.5</ele>
        <time>2014-7-5T10:59:13.000Z</time>
      </trkpt>
      <trkpt lat="44.52144" lon="0.68819">
        <ele>163.5</ele>
        <time>2014-7-5T10:59:13.000Z</time>
      </trkpt>
      <trkpt lat="44.52145" lon="0.68815">
        <ele>163.5</ele>
        <time>2014-7-5T10:59:13.000Z</time>
      </trkpt>
      <trkpt lat="44.52145" lon="0.68815">
        <ele>163.5</ele>
        <time>2014-7-5T10:59:13.000Z</time>
      </trkpt>
      <trkpt lat="44.52146" lon="0.68812">
        <ele>163.5</ele>
        <time>2014-7-5T10:59:13.000Z</time>
      </trkpt>
      <trkpt lat="44.52146" lon="0.68812">
        <ele>163.5</ele>
        <time>2014-7-5T10:59:13.000Z</time>
      </trkpt>
      <trkpt lat="44.52147" lon="0.68808">
        <ele>163.5</ele>
        <time>2014-7-5T10:59:13.000Z</time>
      </trkpt>
      <trkpt lat="44.52147" lon="0.68808">
        <ele>163.5</ele>
        <time>2014-7-5T10:59:13.000Z</time>
      </trkpt>
      <trkpt lat="44.52148" lon="0.68804">
        <ele>162.5</ele>
        <time>2014-7-5T10:59:13.000Z</time>
      </trkpt>
      <trkpt lat="44.52148" lon="0.68804">
        <ele>162.5</ele>
        <time>2014-7-5T10:59:13.000Z</time>
      </trkpt>
      <trkpt lat="44.52149" lon="0.688">
        <ele>161.5</ele>
        <time>2014-7-5T10:59:13.000Z</time>
      </trkpt>
      <trkpt lat="44.52149" lon="0.688">
        <ele>161.5</ele>
        <time>2014-7-5T10:59:13.000Z</time>
      </trkpt>
      <trkpt lat="44.52151" lon="0.68794">
        <ele>161.5</ele>
        <time>2014-7-5T10:59:13.000Z</time>
      </trkpt>
      <trkpt lat="44.52151" lon="0.68794">
        <ele>161.5</ele>
        <time>2014-7-5T10:59:13.000Z</time>
      </trkpt>
      <trkpt lat="44.52153" lon="0.68789">
        <ele>160.5</ele>
        <time>2014-7-5T10:59:13.000Z</time>
      </trkpt>
      <trkpt lat="44.52153" lon="0.68789">
        <ele>160.5</ele>
        <time>2014-7-5T11:0:6.000Z</time>
      </trkpt>
      <trkpt lat="44.52155" lon="0.68783">
        <ele>160.5</ele>
        <time>2014-7-5T11:0:6.000Z</time>
      </trkpt>
      <trkpt lat="44.52155" lon="0.68783">
        <ele>160.5</ele>
        <time>2014-7-5T11:0:6.000Z</time>
      </trkpt>
      <trkpt lat="44.52156" lon="0.68777">
        <ele>159.5</ele>
        <time>2014-7-5T11:0:6.000Z</time>
      </trkpt>
      <trkpt lat="44.52156" lon="0.68777">
        <ele>159.5</ele>
        <time>2014-7-5T11:0:6.000Z</time>
      </trkpt>
      <trkpt lat="44.52158" lon="0.68769">
        <ele>159.5</ele>
        <time>2014-7-5T11:0:6.000Z</time>
      </trkpt>
      <trkpt lat="44.52158" lon="0.68769">
        <ele>159.5</ele>
        <time>2014-7-5T11:0:6.000Z</time>
      </trkpt>
      <trkpt lat="44.5216" lon="0.68762">
        <ele>158.5</ele>
        <time>2014-7-5T11:0:6.000Z</time>
      </trkpt>
      <trkpt lat="44.5216" lon="0.68762">
        <ele>158.5</ele>
        <time>2014-7-5T11:0:6.000Z</time>
      </trkpt>
      <trkpt lat="44.52162" lon="0.68755">
        <ele>158.5</ele>
        <time>2014-7-5T11:0:6.000Z</time>
      </trkpt>
      <trkpt lat="44.52162" lon="0.68755">
        <ele>158.5</ele>
        <time>2014-7-5T11:0:6.000Z</time>
      </trkpt>
      <trkpt lat="44.52164" lon="0.68748">
        <ele>157.5</ele>
        <time>2014-7-5T11:0:6.000Z</time>
      </trkpt>
      <trkpt lat="44.52164" lon="0.68748">
        <ele>157.5</ele>
        <time>2014-7-5T11:0:6.000Z</time>
      </trkpt>
      <trkpt lat="44.52166" lon="0.6874">
        <ele>156.5</ele>
        <time>2014-7-5T11:0:6.000Z</time>
      </trkpt>
      <trkpt lat="44.52166" lon="0.6874">
        <ele>156.5</ele>
        <time>2014-7-5T11:0:6.000Z</time>
      </trkpt>
      <trkpt lat="44.52167" lon="0.68733">
        <ele>156.5</ele>
        <time>2014-7-5T11:0:6.000Z</time>
      </trkpt>
      <trkpt lat="44.52167" lon="0.68733">
        <ele>156.5</ele>
        <time>2014-7-5T11:0:6.000Z</time>
      </trkpt>
      <trkpt lat="44.52169" lon="0.68724">
        <ele>156.5</ele>
        <time>2014-7-5T11:0:6.000Z</time>
      </trkpt>
      <trkpt lat="44.52169" lon="0.68724">
        <ele>156.5</ele>
        <time>2014-7-5T11:0:6.000Z</time>
      </trkpt>
      <trkpt lat="44.52171" lon="0.68717">
        <ele>155.5</ele>
        <time>2014-7-5T11:0:6.000Z</time>
      </trkpt>
      <trkpt lat="44.52171" lon="0.68717">
        <ele>155.5</ele>
        <time>2014-7-5T11:0:6.000Z</time>
      </trkpt>
      <trkpt lat="44.52172" lon="0.68712">
        <ele>155.5</ele>
        <time>2014-7-5T11:0:6.000Z</time>
      </trkpt>
      <trkpt lat="44.52172" lon="0.68712">
        <ele>155.5</ele>
        <time>2014-7-5T11:0:6.000Z</time>
      </trkpt>
      <trkpt lat="44.52174" lon="0.68707">
        <ele>154.5</ele>
        <time>2014-7-5T11:0:6.000Z</time>
      </trkpt>
      <trkpt lat="44.52174" lon="0.68707">
        <ele>154.5</ele>
        <time>2014-7-5T11:0:6.000Z</time>
      </trkpt>
      <trkpt lat="44.52177" lon="0.68704">
        <ele>154.5</ele>
        <time>2014-7-5T11:0:6.000Z</time>
      </trkpt>
      <trkpt lat="44.52177" lon="0.68704">
        <ele>154.5</ele>
        <time>2014-7-5T11:0:6.000Z</time>
      </trkpt>
      <trkpt lat="44.52179" lon="0.68705">
        <ele>154.5</ele>
        <time>2014-7-5T11:0:6.000Z</time>
      </trkpt>
      <trkpt lat="44.52179" lon="0.68705">
        <ele>154.5</ele>
        <time>2014-7-5T11:0:6.000Z</time>
      </trkpt>
      <trkpt lat="44.52181" lon="0.68707">
        <ele>154.5</ele>
        <time>2014-7-5T11:0:6.000Z</time>
      </trkpt>
      <trkpt lat="44.52181" lon="0.68707">
        <ele>154.5</ele>
        <time>2014-7-5T11:0:6.000Z</time>
      </trkpt>
      <trkpt lat="44.52183" lon="0.68709">
        <ele>154.5</ele>
        <time>2014-7-5T11:0:6.000Z</time>
      </trkpt>
      <trkpt lat="44.52183" lon="0.68709">
        <ele>154.5</ele>
        <time>2014-7-5T11:0:6.000Z</time>
      </trkpt>
      <trkpt lat="44.52184" lon="0.68712">
        <ele>154.5</ele>
        <time>2014-7-5T11:0:6.000Z</time>
      </trkpt>
      <trkpt lat="44.52184" lon="0.68712">
        <ele>154.5</ele>
        <time>2014-7-5T11:0:6.000Z</time>
      </trkpt>
      <trkpt lat="44.52184" lon="0.68714">
        <ele>154.5</ele>
        <time>2014-7-5T11:0:6.000Z</time>
      </trkpt>
      <trkpt lat="44.52184" lon="0.68714">
        <ele>154.5</ele>
        <time>2014-7-5T11:0:6.000Z</time>
      </trkpt>
      <trkpt lat="44.52186" lon="0.68718">
        <ele>154.5</ele>
        <time>2014-7-5T11:0:6.000Z</time>
      </trkpt>
      <trkpt lat="44.52186" lon="0.68718">
        <ele>154.5</ele>
        <time>2014-7-5T11:0:6.000Z</time>
      </trkpt>
      <trkpt lat="44.52188" lon="0.68721">
        <ele>154.5</ele>
        <time>2014-7-5T11:0:6.000Z</time>
      </trkpt>
      <trkpt lat="44.52188" lon="0.68721">
        <ele>154.5</ele>
        <time>2014-7-5T11:0:6.000Z</time>
      </trkpt>
      <trkpt lat="44.5219" lon="0.68724">
        <ele>154.5</ele>
        <time>2014-7-5T11:0:6.000Z</time>
      </trkpt>
      <trkpt lat="44.5219" lon="0.68724">
        <ele>154.5</ele>
        <time>2014-7-5T11:0:6.000Z</time>
      </trkpt>
      <trkpt lat="44.52193" lon="0.68726">
        <ele>153.5</ele>
        <time>2014-7-5T11:0:6.000Z</time>
      </trkpt>
      <trkpt lat="44.52193" lon="0.68726">
        <ele>153.5</ele>
        <time>2014-7-5T11:0:6.000Z</time>
      </trkpt>
      <trkpt lat="44.52196" lon="0.68729">
        <ele>154.5</ele>
        <time>2014-7-5T11:0:6.000Z</time>
      </trkpt>
      <trkpt lat="44.52196" lon="0.68729">
        <ele>154.5</ele>
        <time>2014-7-5T11:0:6.000Z</time>
      </trkpt>
      <trkpt lat="44.52198" lon="0.6873">
        <ele>153.5</ele>
        <time>2014-7-5T11:0:6.000Z</time>
      </trkpt>
      <trkpt lat="44.52198" lon="0.6873">
        <ele>153.5</ele>
        <time>2014-7-5T11:0:6.000Z</time>
      </trkpt>
      <trkpt lat="44.52202" lon="0.68732">
        <ele>154.5</ele>
        <time>2014-7-5T11:0:6.000Z</time>
      </trkpt>
      <trkpt lat="44.52202" lon="0.68732">
        <ele>154.5</ele>
        <time>2014-7-5T11:0:6.000Z</time>
      </trkpt>
      <trkpt lat="44.52205" lon="0.68734">
        <ele>153.5</ele>
        <time>2014-7-5T11:0:6.000Z</time>
      </trkpt>
      <trkpt lat="44.52205" lon="0.68734">
        <ele>153.5</ele>
        <time>2014-7-5T11:0:6.000Z</time>
      </trkpt>
      <trkpt lat="44.52209" lon="0.68736">
        <ele>153.5</ele>
        <time>2014-7-5T11:0:6.000Z</time>
      </trkpt>
      <trkpt lat="44.52209" lon="0.68736">
        <ele>153.5</ele>
        <time>2014-7-5T11:0:6.000Z</time>
      </trkpt>
      <trkpt lat="44.52213" lon="0.68739">
        <ele>153.5</ele>
        <time>2014-7-5T11:0:6.000Z</time>
      </trkpt>
      <trkpt lat="44.52213" lon="0.68739">
        <ele>153.5</ele>
        <time>2014-7-5T11:0:6.000Z</time>
      </trkpt>
      <trkpt lat="44.52217" lon="0.68742">
        <ele>153.5</ele>
        <time>2014-7-5T11:0:6.000Z</time>
      </trkpt>
      <trkpt lat="44.52217" lon="0.68742">
        <ele>153.5</ele>
        <time>2014-7-5T11:0:6.000Z</time>
      </trkpt>
      <trkpt lat="44.5222" lon="0.68744">
        <ele>153.5</ele>
        <time>2014-7-5T11:0:6.000Z</time>
      </trkpt>
      <trkpt lat="44.5222" lon="0.68744">
        <ele>153.5</ele>
        <time>2014-7-5T11:0:6.000Z</time>
      </trkpt>
      <trkpt lat="44.52224" lon="0.68747">
        <ele>153.5</ele>
        <time>2014-7-5T11:0:6.000Z</time>
      </trkpt>
      <trkpt lat="44.52224" lon="0.68747">
        <ele>153.5</ele>
        <time>2014-7-5T11:0:6.000Z</time>
      </trkpt>
      <trkpt lat="44.52227" lon="0.68749">
        <ele>153.5</ele>
        <time>2014-7-5T11:0:6.000Z</time>
      </trkpt>
      <trkpt lat="44.52227" lon="0.68749">
        <ele>153.5</ele>
        <time>2014-7-5T11:0:6.000Z</time>
      </trkpt>
      <trkpt lat="44.52231" lon="0.68752">
        <ele>153.5</ele>
        <time>2014-7-5T11:0:6.000Z</time>
      </trkpt>
      <trkpt lat="44.52231" lon="0.68752">
        <ele>153.5</ele>
        <time>2014-7-5T11:0:6.000Z</time>
      </trkpt>
      <trkpt lat="44.52235" lon="0.68755">
        <ele>152.5</ele>
        <time>2014-7-5T11:0:6.000Z</time>
      </trkpt>
      <trkpt lat="44.52235" lon="0.68755">
        <ele>152.5</ele>
        <time>2014-7-5T11:0:6.000Z</time>
      </trkpt>
      <trkpt lat="44.52239" lon="0.68757">
        <ele>152.5</ele>
        <time>2014-7-5T11:0:6.000Z</time>
      </trkpt>
      <trkpt lat="44.52239" lon="0.68757">
        <ele>152.5</ele>
        <time>2014-7-5T11:0:6.000Z</time>
      </trkpt>
      <trkpt lat="44.52246" lon="0.68759">
        <ele>152.5</ele>
        <time>2014-7-5T11:0:6.000Z</time>
      </trkpt>
      <trkpt lat="44.52246" lon="0.68759">
        <ele>152.5</ele>
        <time>2014-7-5T11:0:6.000Z</time>
      </trkpt>
      <trkpt lat="44.52251" lon="0.68761">
        <ele>152.5</ele>
        <time>2014-7-5T11:0:6.000Z</time>
      </trkpt>
      <trkpt lat="44.52251" lon="0.68761">
        <ele>152.5</ele>
        <time>2014-7-5T11:0:6.000Z</time>
      </trkpt>
      <trkpt lat="44.52257" lon="0.68761">
        <ele>152.5</ele>
        <time>2014-7-5T11:0:6.000Z</time>
      </trkpt>
      <trkpt lat="44.52257" lon="0.68761">
        <ele>152.5</ele>
        <time>2014-7-5T11:0:6.000Z</time>
      </trkpt>
      <trkpt lat="44.52262" lon="0.68761">
        <ele>151.5</ele>
        <time>2014-7-5T11:0:6.000Z</time>
      </trkpt>
      <trkpt lat="44.52262" lon="0.68761">
        <ele>151.5</ele>
        <time>2014-7-5T11:0:6.000Z</time>
      </trkpt>
      <trkpt lat="44.52267" lon="0.68761">
        <ele>151.5</ele>
        <time>2014-7-5T11:0:6.000Z</time>
      </trkpt>
      <trkpt lat="44.52267" lon="0.68761">
        <ele>151.5</ele>
        <time>2014-7-5T11:0:6.000Z</time>
      </trkpt>
      <trkpt lat="44.52272" lon="0.68759">
        <ele>151.5</ele>
        <time>2014-7-5T11:0:6.000Z</time>
      </trkpt>
      <trkpt lat="44.52272" lon="0.68759">
        <ele>151.5</ele>
        <time>2014-7-5T11:0:6.000Z</time>
      </trkpt>
      <trkpt lat="44.52277" lon="0.68758">
        <ele>151.5</ele>
        <time>2014-7-5T11:0:6.000Z</time>
      </trkpt>
      <trkpt lat="44.52277" lon="0.68758">
        <ele>151.5</ele>
        <time>2014-7-5T11:0:6.000Z</time>
      </trkpt>
      <trkpt lat="44.52282" lon="0.68757">
        <ele>150.5</ele>
        <time>2014-7-5T11:0:6.000Z</time>
      </trkpt>
      <trkpt lat="44.52282" lon="0.68757">
        <ele>150.5</ele>
        <time>2014-7-5T11:0:6.000Z</time>
      </trkpt>
      <trkpt lat="44.52288" lon="0.68756">
        <ele>150.5</ele>
        <time>2014-7-5T11:0:6.000Z</time>
      </trkpt>
      <trkpt lat="44.52288" lon="0.68756">
        <ele>150.5</ele>
        <time>2014-7-5T11:0:6.000Z</time>
      </trkpt>
      <trkpt lat="44.52293" lon="0.68755">
        <ele>149.5</ele>
        <time>2014-7-5T11:0:6.000Z</time>
      </trkpt>
      <trkpt lat="44.52293" lon="0.68755">
        <ele>149.5</ele>
        <time>2014-7-5T11:0:6.000Z</time>
      </trkpt>
      <trkpt lat="44.52299" lon="0.68755">
        <ele>149.5</ele>
        <time>2014-7-5T11:0:6.000Z</time>
      </trkpt>
      <trkpt lat="44.52299" lon="0.68755">
        <ele>149.5</ele>
        <time>2014-7-5T11:0:6.000Z</time>
      </trkpt>
      <trkpt lat="44.52305" lon="0.68755">
        <ele>149.5</ele>
        <time>2014-7-5T11:0:6.000Z</time>
      </trkpt>
      <trkpt lat="44.52305" lon="0.68755">
        <ele>149.5</ele>
        <time>2014-7-5T11:0:6.000Z</time>
      </trkpt>
      <trkpt lat="44.52311" lon="0.68755">
        <ele>149.5</ele>
        <time>2014-7-5T11:0:6.000Z</time>
      </trkpt>
      <trkpt lat="44.52311" lon="0.68755">
        <ele>149.5</ele>
        <time>2014-7-5T11:0:6.000Z</time>
      </trkpt>
      <trkpt lat="44.52318" lon="0.68753">
        <ele>148.5</ele>
        <time>2014-7-5T11:0:6.000Z</time>
      </trkpt>
      <trkpt lat="44.52318" lon="0.68753">
        <ele>148.5</ele>
        <time>2014-7-5T11:0:6.000Z</time>
      </trkpt>
      <trkpt lat="44.52332" lon="0.68748">
        <ele>147.5</ele>
        <time>2014-7-5T11:0:6.000Z</time>
      </trkpt>
      <trkpt lat="44.52332" lon="0.68748">
        <ele>147.5</ele>
        <time>2014-7-5T11:0:6.000Z</time>
      </trkpt>
      <trkpt lat="44.5234" lon="0.68747">
        <ele>146.5</ele>
        <time>2014-7-5T11:0:56.000Z</time>
      </trkpt>
      <trkpt lat="44.5234" lon="0.68747">
        <ele>146.5</ele>
        <time>2014-7-5T11:0:56.000Z</time>
      </trkpt>
      <trkpt lat="44.52346" lon="0.68744">
        <ele>146.5</ele>
        <time>2014-7-5T11:0:56.000Z</time>
      </trkpt>
      <trkpt lat="44.52346" lon="0.68744">
        <ele>146.5</ele>
        <time>2014-7-5T11:0:56.000Z</time>
      </trkpt>
      <trkpt lat="44.52354" lon="0.68742">
        <ele>146.5</ele>
        <time>2014-7-5T11:0:56.000Z</time>
      </trkpt>
      <trkpt lat="44.52354" lon="0.68742">
        <ele>146.5</ele>
        <time>2014-7-5T11:0:56.000Z</time>
      </trkpt>
      <trkpt lat="44.52362" lon="0.6874">
        <ele>146.5</ele>
        <time>2014-7-5T11:0:56.000Z</time>
      </trkpt>
      <trkpt lat="44.52362" lon="0.6874">
        <ele>146.5</ele>
        <time>2014-7-5T11:0:56.000Z</time>
      </trkpt>
      <trkpt lat="44.52369" lon="0.68737">
        <ele>145.5</ele>
        <time>2014-7-5T11:0:56.000Z</time>
      </trkpt>
      <trkpt lat="44.52369" lon="0.68737">
        <ele>145.5</ele>
        <time>2014-7-5T11:0:56.000Z</time>
      </trkpt>
      <trkpt lat="44.52377" lon="0.68734">
        <ele>145.5</ele>
        <time>2014-7-5T11:0:56.000Z</time>
      </trkpt>
      <trkpt lat="44.52377" lon="0.68734">
        <ele>145.5</ele>
        <time>2014-7-5T11:0:56.000Z</time>
      </trkpt>
      <trkpt lat="44.52385" lon="0.68731">
        <ele>144.5</ele>
        <time>2014-7-5T11:0:56.000Z</time>
      </trkpt>
      <trkpt lat="44.52385" lon="0.68731">
        <ele>144.5</ele>
        <time>2014-7-5T11:0:56.000Z</time>
      </trkpt>
      <trkpt lat="44.52393" lon="0.6873">
        <ele>144.5</ele>
        <time>2014-7-5T11:0:56.000Z</time>
      </trkpt>
      <trkpt lat="44.52393" lon="0.6873">
        <ele>144.5</ele>
        <time>2014-7-5T11:0:56.000Z</time>
      </trkpt>
      <trkpt lat="44.52401" lon="0.68728">
        <ele>143.5</ele>
        <time>2014-7-5T11:0:56.000Z</time>
      </trkpt>
      <trkpt lat="44.52401" lon="0.68728">
        <ele>143.5</ele>
        <time>2014-7-5T11:0:56.000Z</time>
      </trkpt>
      <trkpt lat="44.52409" lon="0.68726">
        <ele>143.5</ele>
        <time>2014-7-5T11:0:56.000Z</time>
      </trkpt>
      <trkpt lat="44.52409" lon="0.68726">
        <ele>143.5</ele>
        <time>2014-7-5T11:0:56.000Z</time>
      </trkpt>
      <trkpt lat="44.52417" lon="0.68726">
        <ele>142.5</ele>
        <time>2014-7-5T11:0:56.000Z</time>
      </trkpt>
      <trkpt lat="44.52417" lon="0.68726">
        <ele>142.5</ele>
        <time>2014-7-5T11:0:56.000Z</time>
      </trkpt>
      <trkpt lat="44.52425" lon="0.68727">
        <ele>142.5</ele>
        <time>2014-7-5T11:0:56.000Z</time>
      </trkpt>
      <trkpt lat="44.52425" lon="0.68727">
        <ele>142.5</ele>
        <time>2014-7-5T11:0:56.000Z</time>
      </trkpt>
      <trkpt lat="44.52432" lon="0.68729">
        <ele>142.5</ele>
        <time>2014-7-5T11:0:56.000Z</time>
      </trkpt>
      <trkpt lat="44.52432" lon="0.68729">
        <ele>142.5</ele>
        <time>2014-7-5T11:0:56.000Z</time>
      </trkpt>
      <trkpt lat="44.52437" lon="0.68727">
        <ele>142.5</ele>
        <time>2014-7-5T11:0:56.000Z</time>
      </trkpt>
      <trkpt lat="44.52437" lon="0.68727">
        <ele>142.5</ele>
        <time>2014-7-5T11:0:56.000Z</time>
      </trkpt>
      <trkpt lat="44.52443" lon="0.68723">
        <ele>141.5</ele>
        <time>2014-7-5T11:0:56.000Z</time>
      </trkpt>
      <trkpt lat="44.52443" lon="0.68723">
        <ele>141.5</ele>
        <time>2014-7-5T11:0:56.000Z</time>
      </trkpt>
      <trkpt lat="44.52445" lon="0.68717">
        <ele>142.5</ele>
        <time>2014-7-5T11:0:56.000Z</time>
      </trkpt>
      <trkpt lat="44.52445" lon="0.68717">
        <ele>142.5</ele>
        <time>2014-7-5T11:0:56.000Z</time>
      </trkpt>
      <trkpt lat="44.52449" lon="0.68711">
        <ele>142.5</ele>
        <time>2014-7-5T11:0:56.000Z</time>
      </trkpt>
      <trkpt lat="44.52449" lon="0.68711">
        <ele>142.5</ele>
        <time>2014-7-5T11:0:56.000Z</time>
      </trkpt>
      <trkpt lat="44.52452" lon="0.68706">
        <ele>143.5</ele>
        <time>2014-7-5T11:0:56.000Z</time>
      </trkpt>
      <trkpt lat="44.52452" lon="0.68706">
        <ele>143.5</ele>
        <time>2014-7-5T11:0:56.000Z</time>
      </trkpt>
      <trkpt lat="44.52456" lon="0.68704">
        <ele>143.5</ele>
        <time>2014-7-5T11:0:56.000Z</time>
      </trkpt>
      <trkpt lat="44.52456" lon="0.68704">
        <ele>143.5</ele>
        <time>2014-7-5T11:0:56.000Z</time>
      </trkpt>
      <trkpt lat="44.52459" lon="0.68704">
        <ele>144.5</ele>
        <time>2014-7-5T11:0:56.000Z</time>
      </trkpt>
      <trkpt lat="44.52459" lon="0.68704">
        <ele>144.5</ele>
        <time>2014-7-5T11:0:56.000Z</time>
      </trkpt>
      <trkpt lat="44.52462" lon="0.68703">
        <ele>145.5</ele>
        <time>2014-7-5T11:0:56.000Z</time>
      </trkpt>
      <trkpt lat="44.52462" lon="0.68703">
        <ele>145.5</ele>
        <time>2014-7-5T11:0:56.000Z</time>
      </trkpt>
      <trkpt lat="44.52465" lon="0.68703">
        <ele>146.5</ele>
        <time>2014-7-5T11:0:56.000Z</time>
      </trkpt>
      <trkpt lat="44.52465" lon="0.68703">
        <ele>146.5</ele>
        <time>2014-7-5T11:0:56.000Z</time>
      </trkpt>
      <trkpt lat="44.52469" lon="0.68703">
        <ele>145.5</ele>
        <time>2014-7-5T11:0:56.000Z</time>
      </trkpt>
      <trkpt lat="44.52469" lon="0.68703">
        <ele>145.5</ele>
        <time>2014-7-5T11:0:56.000Z</time>
      </trkpt>
      <trkpt lat="44.52471" lon="0.68701">
        <ele>146.5</ele>
        <time>2014-7-5T11:0:56.000Z</time>
      </trkpt>
      <trkpt lat="44.52471" lon="0.68701">
        <ele>146.5</ele>
        <time>2014-7-5T11:0:56.000Z</time>
      </trkpt>
      <trkpt lat="44.52475" lon="0.687">
        <ele>146.5</ele>
        <time>2014-7-5T11:0:56.000Z</time>
      </trkpt>
      <trkpt lat="44.52475" lon="0.687">
        <ele>146.5</ele>
        <time>2014-7-5T11:0:56.000Z</time>
      </trkpt>
      <trkpt lat="44.52478" lon="0.68699">
        <ele>146.5</ele>
        <time>2014-7-5T11:0:56.000Z</time>
      </trkpt>
      <trkpt lat="44.52478" lon="0.68699">
        <ele>146.5</ele>
        <time>2014-7-5T11:0:56.000Z</time>
      </trkpt>
      <trkpt lat="44.5248" lon="0.687">
        <ele>146.5</ele>
        <time>2014-7-5T11:0:56.000Z</time>
      </trkpt>
      <trkpt lat="44.5248" lon="0.687">
        <ele>146.5</ele>
        <time>2014-7-5T11:0:56.000Z</time>
      </trkpt>
      <trkpt lat="44.52482" lon="0.68699">
        <ele>147.5</ele>
        <time>2014-7-5T11:0:56.000Z</time>
      </trkpt>
      <trkpt lat="44.52482" lon="0.68699">
        <ele>147.5</ele>
        <time>2014-7-5T11:0:56.000Z</time>
      </trkpt>
      <trkpt lat="44.52485" lon="0.68698">
        <ele>147.5</ele>
        <time>2014-7-5T11:0:56.000Z</time>
      </trkpt>
      <trkpt lat="44.52485" lon="0.68698">
        <ele>147.5</ele>
        <time>2014-7-5T11:0:56.000Z</time>
      </trkpt>
      <trkpt lat="44.52487" lon="0.68697">
        <ele>147.5</ele>
        <time>2014-7-5T11:0:56.000Z</time>
      </trkpt>
      <trkpt lat="44.52487" lon="0.68697">
        <ele>147.5</ele>
        <time>2014-7-5T11:0:56.000Z</time>
      </trkpt>
      <trkpt lat="44.5249" lon="0.68697">
        <ele>147.5</ele>
        <time>2014-7-5T11:0:56.000Z</time>
      </trkpt>
      <trkpt lat="44.5249" lon="0.68697">
        <ele>147.5</ele>
        <time>2014-7-5T11:0:56.000Z</time>
      </trkpt>
      <trkpt lat="44.52492" lon="0.68697">
        <ele>148.5</ele>
        <time>2014-7-5T11:0:56.000Z</time>
      </trkpt>
      <trkpt lat="44.52492" lon="0.68697">
        <ele>148.5</ele>
        <time>2014-7-5T11:0:56.000Z</time>
      </trkpt>
      <trkpt lat="44.52495" lon="0.68699">
        <ele>148.5</ele>
        <time>2014-7-5T11:0:56.000Z</time>
      </trkpt>
      <trkpt lat="44.52495" lon="0.68699">
        <ele>148.5</ele>
        <time>2014-7-5T11:0:56.000Z</time>
      </trkpt>
      <trkpt lat="44.52497" lon="0.68701">
        <ele>146.5</ele>
        <time>2014-7-5T11:0:56.000Z</time>
      </trkpt>
      <trkpt lat="44.52497" lon="0.68701">
        <ele>146.5</ele>
        <time>2014-7-5T11:0:56.000Z</time>
      </trkpt>
      <trkpt lat="44.525" lon="0.68702">
        <ele>146.5</ele>
        <time>2014-7-5T11:0:56.000Z</time>
      </trkpt>
      <trkpt lat="44.525" lon="0.68702">
        <ele>146.5</ele>
        <time>2014-7-5T11:0:56.000Z</time>
      </trkpt>
      <trkpt lat="44.52503" lon="0.68703">
        <ele>147.5</ele>
        <time>2014-7-5T11:0:56.000Z</time>
      </trkpt>
      <trkpt lat="44.52503" lon="0.68703">
        <ele>147.5</ele>
        <time>2014-7-5T11:0:56.000Z</time>
      </trkpt>
      <trkpt lat="44.52506" lon="0.68703">
        <ele>147.5</ele>
        <time>2014-7-5T11:0:56.000Z</time>
      </trkpt>
      <trkpt lat="44.52506" lon="0.68703">
        <ele>147.5</ele>
        <time>2014-7-5T11:0:56.000Z</time>
      </trkpt>
      <trkpt lat="44.52509" lon="0.68701">
        <ele>147.5</ele>
        <time>2014-7-5T11:0:56.000Z</time>
      </trkpt>
      <trkpt lat="44.52509" lon="0.68701">
        <ele>147.5</ele>
        <time>2014-7-5T11:0:56.000Z</time>
      </trkpt>
      <trkpt lat="44.52512" lon="0.687">
        <ele>146.5</ele>
        <time>2014-7-5T11:0:56.000Z</time>
      </trkpt>
      <trkpt lat="44.52512" lon="0.687">
        <ele>146.5</ele>
        <time>2014-7-5T11:0:56.000Z</time>
      </trkpt>
      <trkpt lat="44.52514" lon="0.68698">
        <ele>147.5</ele>
        <time>2014-7-5T11:0:56.000Z</time>
      </trkpt>
      <trkpt lat="44.52514" lon="0.68698">
        <ele>147.5</ele>
        <time>2014-7-5T11:0:56.000Z</time>
      </trkpt>
      <trkpt lat="44.52518" lon="0.68697">
        <ele>146.5</ele>
        <time>2014-7-5T11:0:56.000Z</time>
      </trkpt>
      <trkpt lat="44.52518" lon="0.68697">
        <ele>146.5</ele>
        <time>2014-7-5T11:0:56.000Z</time>
      </trkpt>
      <trkpt lat="44.52521" lon="0.68696">
        <ele>146.5</ele>
        <time>2014-7-5T11:0:56.000Z</time>
      </trkpt>
      <trkpt lat="44.52521" lon="0.68696">
        <ele>146.5</ele>
        <time>2014-7-5T11:0:56.000Z</time>
      </trkpt>
      <trkpt lat="44.52524" lon="0.68695">
        <ele>145.5</ele>
        <time>2014-7-5T11:0:56.000Z</time>
      </trkpt>
      <trkpt lat="44.52524" lon="0.68695">
        <ele>145.5</ele>
        <time>2014-7-5T11:0:56.000Z</time>
      </trkpt>
      <trkpt lat="44.52527" lon="0.68693">
        <ele>144.5</ele>
        <time>2014-7-5T11:0:56.000Z</time>
      </trkpt>
      <trkpt lat="44.52527" lon="0.68693">
        <ele>144.5</ele>
        <time>2014-7-5T11:0:56.000Z</time>
      </trkpt>
      <trkpt lat="44.5253" lon="0.68692">
        <ele>144.5</ele>
        <time>2014-7-5T11:0:56.000Z</time>
      </trkpt>
      <trkpt lat="44.5253" lon="0.68692">
        <ele>144.5</ele>
        <time>2014-7-5T11:0:56.000Z</time>
      </trkpt>
      <trkpt lat="44.52533" lon="0.6869">
        <ele>144.5</ele>
        <time>2014-7-5T11:0:56.000Z</time>
      </trkpt>
      <trkpt lat="44.52533" lon="0.6869">
        <ele>144.5</ele>
        <time>2014-7-5T11:0:56.000Z</time>
      </trkpt>
      <trkpt lat="44.52536" lon="0.68689">
        <ele>145.5</ele>
        <time>2014-7-5T11:0:56.000Z</time>
      </trkpt>
      <trkpt lat="44.52536" lon="0.68689">
        <ele>145.5</ele>
        <time>2014-7-5T11:0:56.000Z</time>
      </trkpt>
      <trkpt lat="44.5254" lon="0.68689">
        <ele>145.5</ele>
        <time>2014-7-5T11:0:56.000Z</time>
      </trkpt>
      <trkpt lat="44.5254" lon="0.68689">
        <ele>145.5</ele>
        <time>2014-7-5T11:0:56.000Z</time>
      </trkpt>
      <trkpt lat="44.52544" lon="0.68688">
        <ele>144.5</ele>
        <time>2014-7-5T11:0:56.000Z</time>
      </trkpt>
      <trkpt lat="44.52544" lon="0.68688">
        <ele>144.5</ele>
        <time>2014-7-5T11:0:56.000Z</time>
      </trkpt>
      <trkpt lat="44.52547" lon="0.68688">
        <ele>144.5</ele>
        <time>2014-7-5T11:0:56.000Z</time>
      </trkpt>
      <trkpt lat="44.52547" lon="0.68688">
        <ele>144.5</ele>
        <time>2014-7-5T11:0:56.000Z</time>
      </trkpt>
      <trkpt lat="44.52551" lon="0.68688">
        <ele>144.5</ele>
        <time>2014-7-5T11:0:56.000Z</time>
      </trkpt>
      <trkpt lat="44.52551" lon="0.68688">
        <ele>144.5</ele>
        <time>2014-7-5T11:1:47.000Z</time>
      </trkpt>
      <trkpt lat="44.52555" lon="0.68687">
        <ele>143.5</ele>
        <time>2014-7-5T11:1:47.000Z</time>
      </trkpt>
      <trkpt lat="44.52555" lon="0.68687">
        <ele>143.5</ele>
        <time>2014-7-5T11:1:47.000Z</time>
      </trkpt>
      <trkpt lat="44.52558" lon="0.68687">
        <ele>144.5</ele>
        <time>2014-7-5T11:1:47.000Z</time>
      </trkpt>
      <trkpt lat="44.52558" lon="0.68687">
        <ele>144.5</ele>
        <time>2014-7-5T11:1:47.000Z</time>
      </trkpt>
      <trkpt lat="44.52562" lon="0.68688">
        <ele>144.5</ele>
        <time>2014-7-5T11:1:47.000Z</time>
      </trkpt>
      <trkpt lat="44.52562" lon="0.68688">
        <ele>144.5</ele>
        <time>2014-7-5T11:1:47.000Z</time>
      </trkpt>
      <trkpt lat="44.52565" lon="0.68688">
        <ele>144.5</ele>
        <time>2014-7-5T11:1:47.000Z</time>
      </trkpt>
      <trkpt lat="44.52565" lon="0.68688">
        <ele>144.5</ele>
        <time>2014-7-5T11:1:47.000Z</time>
      </trkpt>
      <trkpt lat="44.52569" lon="0.68688">
        <ele>144.5</ele>
        <time>2014-7-5T11:1:47.000Z</time>
      </trkpt>
      <trkpt lat="44.52569" lon="0.68688">
        <ele>144.5</ele>
        <time>2014-7-5T11:1:47.000Z</time>
      </trkpt>
      <trkpt lat="44.52572" lon="0.68687">
        <ele>144.5</ele>
        <time>2014-7-5T11:1:47.000Z</time>
      </trkpt>
      <trkpt lat="44.52572" lon="0.68687">
        <ele>144.5</ele>
        <time>2014-7-5T11:1:47.000Z</time>
      </trkpt>
      <trkpt lat="44.52575" lon="0.68686">
        <ele>144.5</ele>
        <time>2014-7-5T11:1:47.000Z</time>
      </trkpt>
      <trkpt lat="44.52575" lon="0.68686">
        <ele>144.5</ele>
        <time>2014-7-5T11:1:47.000Z</time>
      </trkpt>
      <trkpt lat="44.52579" lon="0.68686">
        <ele>145.5</ele>
        <time>2014-7-5T11:1:47.000Z</time>
      </trkpt>
      <trkpt lat="44.52579" lon="0.68686">
        <ele>145.5</ele>
        <time>2014-7-5T11:1:47.000Z</time>
      </trkpt>
      <trkpt lat="44.52582" lon="0.68685">
        <ele>145.5</ele>
        <time>2014-7-5T11:1:47.000Z</time>
      </trkpt>
      <trkpt lat="44.52582" lon="0.68685">
        <ele>145.5</ele>
        <time>2014-7-5T11:1:47.000Z</time>
      </trkpt>
      <trkpt lat="44.52584" lon="0.68685">
        <ele>145.5</ele>
        <time>2014-7-5T11:1:47.000Z</time>
      </trkpt>
      <trkpt lat="44.52584" lon="0.68685">
        <ele>145.5</ele>
        <time>2014-7-5T11:1:47.000Z</time>
      </trkpt>
      <trkpt lat="44.52588" lon="0.68684">
        <ele>145.5</ele>
        <time>2014-7-5T11:1:47.000Z</time>
      </trkpt>
      <trkpt lat="44.52588" lon="0.68684">
        <ele>145.5</ele>
        <time>2014-7-5T11:1:47.000Z</time>
      </trkpt>
      <trkpt lat="44.52591" lon="0.68682">
        <ele>145.5</ele>
        <time>2014-7-5T11:1:47.000Z</time>
      </trkpt>
      <trkpt lat="44.52591" lon="0.68682">
        <ele>145.5</ele>
        <time>2014-7-5T11:1:47.000Z</time>
      </trkpt>
      <trkpt lat="44.52594" lon="0.6868">
        <ele>145.5</ele>
        <time>2014-7-5T11:1:47.000Z</time>
      </trkpt>
      <trkpt lat="44.52594" lon="0.6868">
        <ele>145.5</ele>
        <time>2014-7-5T11:1:47.000Z</time>
      </trkpt>
      <trkpt lat="44.52598" lon="0.68679">
        <ele>145.5</ele>
        <time>2014-7-5T11:1:47.000Z</time>
      </trkpt>
      <trkpt lat="44.52598" lon="0.68679">
        <ele>145.5</ele>
        <time>2014-7-5T11:1:47.000Z</time>
      </trkpt>
      <trkpt lat="44.52601" lon="0.68678">
        <ele>146.5</ele>
        <time>2014-7-5T11:1:47.000Z</time>
      </trkpt>
      <trkpt lat="44.52601" lon="0.68678">
        <ele>146.5</ele>
        <time>2014-7-5T11:1:47.000Z</time>
      </trkpt>
      <trkpt lat="44.52604" lon="0.68677">
        <ele>146.5</ele>
        <time>2014-7-5T11:1:47.000Z</time>
      </trkpt>
      <trkpt lat="44.52604" lon="0.68677">
        <ele>146.5</ele>
        <time>2014-7-5T11:1:47.000Z</time>
      </trkpt>
      <trkpt lat="44.52607" lon="0.68675">
        <ele>145.5</ele>
        <time>2014-7-5T11:1:47.000Z</time>
      </trkpt>
      <trkpt lat="44.52607" lon="0.68675">
        <ele>145.5</ele>
        <time>2014-7-5T11:1:47.000Z</time>
      </trkpt>
      <trkpt lat="44.5261" lon="0.68674">
        <ele>145.5</ele>
        <time>2014-7-5T11:1:47.000Z</time>
      </trkpt>
      <trkpt lat="44.5261" lon="0.68674">
        <ele>145.5</ele>
        <time>2014-7-5T11:1:47.000Z</time>
      </trkpt>
      <trkpt lat="44.52613" lon="0.68674">
        <ele>145.5</ele>
        <time>2014-7-5T11:1:47.000Z</time>
      </trkpt>
      <trkpt lat="44.52613" lon="0.68674">
        <ele>145.5</ele>
        <time>2014-7-5T11:1:47.000Z</time>
      </trkpt>
      <trkpt lat="44.52617" lon="0.68673">
        <ele>145.5</ele>
        <time>2014-7-5T11:1:47.000Z</time>
      </trkpt>
      <trkpt lat="44.52617" lon="0.68673">
        <ele>145.5</ele>
        <time>2014-7-5T11:1:47.000Z</time>
      </trkpt>
      <trkpt lat="44.5262" lon="0.68672">
        <ele>145.5</ele>
        <time>2014-7-5T11:1:47.000Z</time>
      </trkpt>
      <trkpt lat="44.5262" lon="0.68672">
        <ele>145.5</ele>
        <time>2014-7-5T11:1:47.000Z</time>
      </trkpt>
      <trkpt lat="44.52623" lon="0.68672">
        <ele>145.5</ele>
        <time>2014-7-5T11:1:47.000Z</time>
      </trkpt>
      <trkpt lat="44.52623" lon="0.68672">
        <ele>145.5</ele>
        <time>2014-7-5T11:1:47.000Z</time>
      </trkpt>
      <trkpt lat="44.52626" lon="0.68672">
        <ele>145.5</ele>
        <time>2014-7-5T11:1:47.000Z</time>
      </trkpt>
      <trkpt lat="44.52626" lon="0.68672">
        <ele>145.5</ele>
        <time>2014-7-5T11:1:47.000Z</time>
      </trkpt>
      <trkpt lat="44.52629" lon="0.68671">
        <ele>146.5</ele>
        <time>2014-7-5T11:1:47.000Z</time>
      </trkpt>
      <trkpt lat="44.52629" lon="0.68671">
        <ele>146.5</ele>
        <time>2014-7-5T11:1:47.000Z</time>
      </trkpt>
      <trkpt lat="44.52632" lon="0.6867">
        <ele>146.5</ele>
        <time>2014-7-5T11:1:47.000Z</time>
      </trkpt>
      <trkpt lat="44.52632" lon="0.6867">
        <ele>146.5</ele>
        <time>2014-7-5T11:1:47.000Z</time>
      </trkpt>
      <trkpt lat="44.52635" lon="0.68669">
        <ele>145.5</ele>
        <time>2014-7-5T11:1:47.000Z</time>
      </trkpt>
      <trkpt lat="44.52635" lon="0.68669">
        <ele>145.5</ele>
        <time>2014-7-5T11:1:47.000Z</time>
      </trkpt>
      <trkpt lat="44.52638" lon="0.68667">
        <ele>145.5</ele>
        <time>2014-7-5T11:1:47.000Z</time>
      </trkpt>
      <trkpt lat="44.52638" lon="0.68667">
        <ele>145.5</ele>
        <time>2014-7-5T11:1:47.000Z</time>
      </trkpt>
      <trkpt lat="44.52641" lon="0.68667">
        <ele>145.5</ele>
        <time>2014-7-5T11:1:47.000Z</time>
      </trkpt>
      <trkpt lat="44.52641" lon="0.68667">
        <ele>145.5</ele>
        <time>2014-7-5T11:1:47.000Z</time>
      </trkpt>
      <trkpt lat="44.52644" lon="0.68666">
        <ele>145.5</ele>
        <time>2014-7-5T11:1:47.000Z</time>
      </trkpt>
      <trkpt lat="44.52644" lon="0.68666">
        <ele>145.5</ele>
        <time>2014-7-5T11:1:47.000Z</time>
      </trkpt>
      <trkpt lat="44.52647" lon="0.68666">
        <ele>145.5</ele>
        <time>2014-7-5T11:1:47.000Z</time>
      </trkpt>
      <trkpt lat="44.52647" lon="0.68666">
        <ele>145.5</ele>
        <time>2014-7-5T11:1:47.000Z</time>
      </trkpt>
      <trkpt lat="44.5265" lon="0.68666">
        <ele>145.5</ele>
        <time>2014-7-5T11:1:47.000Z</time>
      </trkpt>
      <trkpt lat="44.5265" lon="0.68666">
        <ele>145.5</ele>
        <time>2014-7-5T11:1:47.000Z</time>
      </trkpt>
      <trkpt lat="44.52653" lon="0.68667">
        <ele>145.5</ele>
        <time>2014-7-5T11:1:47.000Z</time>
      </trkpt>
      <trkpt lat="44.52653" lon="0.68667">
        <ele>145.5</ele>
        <time>2014-7-5T11:1:47.000Z</time>
      </trkpt>
      <trkpt lat="44.52656" lon="0.68668">
        <ele>145.5</ele>
        <time>2014-7-5T11:1:47.000Z</time>
      </trkpt>
      <trkpt lat="44.52656" lon="0.68668">
        <ele>145.5</ele>
        <time>2014-7-5T11:1:47.000Z</time>
      </trkpt>
      <trkpt lat="44.52659" lon="0.6867">
        <ele>145.5</ele>
        <time>2014-7-5T11:1:47.000Z</time>
      </trkpt>
      <trkpt lat="44.52659" lon="0.6867">
        <ele>145.5</ele>
        <time>2014-7-5T11:1:47.000Z</time>
      </trkpt>
      <trkpt lat="44.52661" lon="0.68671">
        <ele>145.5</ele>
        <time>2014-7-5T11:1:47.000Z</time>
      </trkpt>
      <trkpt lat="44.52661" lon="0.68671">
        <ele>145.5</ele>
        <time>2014-7-5T11:1:47.000Z</time>
      </trkpt>
      <trkpt lat="44.52663" lon="0.68672">
        <ele>145.5</ele>
        <time>2014-7-5T11:1:47.000Z</time>
      </trkpt>
      <trkpt lat="44.52663" lon="0.68672">
        <ele>145.5</ele>
        <time>2014-7-5T11:1:47.000Z</time>
      </trkpt>
      <trkpt lat="44.52666" lon="0.68673">
        <ele>145.5</ele>
        <time>2014-7-5T11:1:47.000Z</time>
      </trkpt>
      <trkpt lat="44.52666" lon="0.68673">
        <ele>145.5</ele>
        <time>2014-7-5T11:1:47.000Z</time>
      </trkpt>
      <trkpt lat="44.52669" lon="0.68673">
        <ele>145.5</ele>
        <time>2014-7-5T11:1:47.000Z</time>
      </trkpt>
      <trkpt lat="44.52669" lon="0.68673">
        <ele>145.5</ele>
        <time>2014-7-5T11:1:47.000Z</time>
      </trkpt>
      <trkpt lat="44.52673" lon="0.68674">
        <ele>145.5</ele>
        <time>2014-7-5T11:1:47.000Z</time>
      </trkpt>
      <trkpt lat="44.52673" lon="0.68674">
        <ele>145.5</ele>
        <time>2014-7-5T11:1:47.000Z</time>
      </trkpt>
      <trkpt lat="44.52677" lon="0.68674">
        <ele>145.5</ele>
        <time>2014-7-5T11:1:47.000Z</time>
      </trkpt>
      <trkpt lat="44.52677" lon="0.68674">
        <ele>145.5</ele>
        <time>2014-7-5T11:1:47.000Z</time>
      </trkpt>
      <trkpt lat="44.5268" lon="0.68675">
        <ele>143.5</ele>
        <time>2014-7-5T11:1:47.000Z</time>
      </trkpt>
      <trkpt lat="44.5268" lon="0.68675">
        <ele>143.5</ele>
        <time>2014-7-5T11:1:47.000Z</time>
      </trkpt>
      <trkpt lat="44.52684" lon="0.68676">
        <ele>143.5</ele>
        <time>2014-7-5T11:1:47.000Z</time>
      </trkpt>
      <trkpt lat="44.52684" lon="0.68676">
        <ele>143.5</ele>
        <time>2014-7-5T11:1:47.000Z</time>
      </trkpt>
      <trkpt lat="44.52687" lon="0.68678">
        <ele>143.5</ele>
        <time>2014-7-5T11:1:47.000Z</time>
      </trkpt>
      <trkpt lat="44.52687" lon="0.68678">
        <ele>143.5</ele>
        <time>2014-7-5T11:1:47.000Z</time>
      </trkpt>
      <trkpt lat="44.52691" lon="0.68679">
        <ele>142.5</ele>
        <time>2014-7-5T11:1:47.000Z</time>
      </trkpt>
      <trkpt lat="44.52691" lon="0.68679">
        <ele>142.5</ele>
        <time>2014-7-5T11:1:47.000Z</time>
      </trkpt>
      <trkpt lat="44.52694" lon="0.6868">
        <ele>143.5</ele>
        <time>2014-7-5T11:1:47.000Z</time>
      </trkpt>
      <trkpt lat="44.52694" lon="0.6868">
        <ele>143.5</ele>
        <time>2014-7-5T11:1:47.000Z</time>
      </trkpt>
      <trkpt lat="44.52698" lon="0.68681">
        <ele>142.5</ele>
        <time>2014-7-5T11:1:47.000Z</time>
      </trkpt>
      <trkpt lat="44.52698" lon="0.68681">
        <ele>142.5</ele>
        <time>2014-7-5T11:1:47.000Z</time>
      </trkpt>
      <trkpt lat="44.52701" lon="0.68682">
        <ele>142.5</ele>
        <time>2014-7-5T11:1:47.000Z</time>
      </trkpt>
      <trkpt lat="44.52701" lon="0.68682">
        <ele>142.5</ele>
        <time>2014-7-5T11:1:47.000Z</time>
      </trkpt>
      <trkpt lat="44.52706" lon="0.68682">
        <ele>143.5</ele>
        <time>2014-7-5T11:1:47.000Z</time>
      </trkpt>
      <trkpt lat="44.52706" lon="0.68682">
        <ele>143.5</ele>
        <time>2014-7-5T11:1:47.000Z</time>
      </trkpt>
      <trkpt lat="44.5271" lon="0.68683">
        <ele>142.5</ele>
        <time>2014-7-5T11:1:47.000Z</time>
      </trkpt>
      <trkpt lat="44.5271" lon="0.68683">
        <ele>142.5</ele>
        <time>2014-7-5T11:1:47.000Z</time>
      </trkpt>
      <trkpt lat="44.52714" lon="0.68684">
        <ele>142.5</ele>
        <time>2014-7-5T11:1:47.000Z</time>
      </trkpt>
      <trkpt lat="44.52714" lon="0.68684">
        <ele>142.5</ele>
        <time>2014-7-5T11:1:47.000Z</time>
      </trkpt>
      <trkpt lat="44.52719" lon="0.68685">
        <ele>142.5</ele>
        <time>2014-7-5T11:2:39.000Z</time>
      </trkpt>
      <trkpt lat="44.52719" lon="0.68685">
        <ele>142.5</ele>
        <time>2014-7-5T11:2:39.000Z</time>
      </trkpt>
      <trkpt lat="44.52723" lon="0.68685">
        <ele>142.5</ele>
        <time>2014-7-5T11:2:39.000Z</time>
      </trkpt>
      <trkpt lat="44.52723" lon="0.68685">
        <ele>142.5</ele>
        <time>2014-7-5T11:2:39.000Z</time>
      </trkpt>
      <trkpt lat="44.52728" lon="0.68686">
        <ele>141.5</ele>
        <time>2014-7-5T11:2:39.000Z</time>
      </trkpt>
      <trkpt lat="44.52728" lon="0.68686">
        <ele>141.5</ele>
        <time>2014-7-5T11:2:39.000Z</time>
      </trkpt>
      <trkpt lat="44.52732" lon="0.68687">
        <ele>142.5</ele>
        <time>2014-7-5T11:2:39.000Z</time>
      </trkpt>
      <trkpt lat="44.52732" lon="0.68687">
        <ele>142.5</ele>
        <time>2014-7-5T11:2:39.000Z</time>
      </trkpt>
      <trkpt lat="44.52736" lon="0.68688">
        <ele>141.5</ele>
        <time>2014-7-5T11:2:39.000Z</time>
      </trkpt>
      <trkpt lat="44.52736" lon="0.68688">
        <ele>141.5</ele>
        <time>2014-7-5T11:2:39.000Z</time>
      </trkpt>
      <trkpt lat="44.52741" lon="0.68689">
        <ele>140.5</ele>
        <time>2014-7-5T11:2:39.000Z</time>
      </trkpt>
      <trkpt lat="44.52741" lon="0.68689">
        <ele>140.5</ele>
        <time>2014-7-5T11:2:39.000Z</time>
      </trkpt>
      <trkpt lat="44.52744" lon="0.68691">
        <ele>140.5</ele>
        <time>2014-7-5T11:2:39.000Z</time>
      </trkpt>
      <trkpt lat="44.52744" lon="0.68691">
        <ele>140.5</ele>
        <time>2014-7-5T11:2:39.000Z</time>
      </trkpt>
      <trkpt lat="44.52749" lon="0.68692">
        <ele>140.5</ele>
        <time>2014-7-5T11:2:39.000Z</time>
      </trkpt>
      <trkpt lat="44.52749" lon="0.68692">
        <ele>140.5</ele>
        <time>2014-7-5T11:2:39.000Z</time>
      </trkpt>
      <trkpt lat="44.52753" lon="0.68692">
        <ele>140.5</ele>
        <time>2014-7-5T11:2:39.000Z</time>
      </trkpt>
      <trkpt lat="44.52753" lon="0.68692">
        <ele>140.5</ele>
        <time>2014-7-5T11:2:39.000Z</time>
      </trkpt>
      <trkpt lat="44.52757" lon="0.68692">
        <ele>143.5</ele>
        <time>2014-7-5T11:2:39.000Z</time>
      </trkpt>
      <trkpt lat="44.52757" lon="0.68692">
        <ele>143.5</ele>
        <time>2014-7-5T11:2:39.000Z</time>
      </trkpt>
      <trkpt lat="44.52761" lon="0.68692">
        <ele>143.5</ele>
        <time>2014-7-5T11:2:39.000Z</time>
      </trkpt>
      <trkpt lat="44.52761" lon="0.68692">
        <ele>143.5</ele>
        <time>2014-7-5T11:2:39.000Z</time>
      </trkpt>
      <trkpt lat="44.52765" lon="0.68691">
        <ele>144.5</ele>
        <time>2014-7-5T11:2:39.000Z</time>
      </trkpt>
      <trkpt lat="44.52765" lon="0.68691">
        <ele>144.5</ele>
        <time>2014-7-5T11:2:39.000Z</time>
      </trkpt>
      <trkpt lat="44.52769" lon="0.68691">
        <ele>144.5</ele>
        <time>2014-7-5T11:2:39.000Z</time>
      </trkpt>
      <trkpt lat="44.52769" lon="0.68691">
        <ele>144.5</ele>
        <time>2014-7-5T11:2:39.000Z</time>
      </trkpt>
      <trkpt lat="44.52773" lon="0.68691">
        <ele>144.5</ele>
        <time>2014-7-5T11:2:39.000Z</time>
      </trkpt>
      <trkpt lat="44.52773" lon="0.68691">
        <ele>144.5</ele>
        <time>2014-7-5T11:2:39.000Z</time>
      </trkpt>
      <trkpt lat="44.52778" lon="0.68689">
        <ele>144.5</ele>
        <time>2014-7-5T11:2:39.000Z</time>
      </trkpt>
      <trkpt lat="44.52778" lon="0.68689">
        <ele>144.5</ele>
        <time>2014-7-5T11:2:39.000Z</time>
      </trkpt>
      <trkpt lat="44.52783" lon="0.68688">
        <ele>145.5</ele>
        <time>2014-7-5T11:2:39.000Z</time>
      </trkpt>
      <trkpt lat="44.52783" lon="0.68688">
        <ele>145.5</ele>
        <time>2014-7-5T11:2:39.000Z</time>
      </trkpt>
      <trkpt lat="44.52789" lon="0.68691">
        <ele>145.5</ele>
        <time>2014-7-5T11:2:39.000Z</time>
      </trkpt>
      <trkpt lat="44.52789" lon="0.68691">
        <ele>145.5</ele>
        <time>2014-7-5T11:2:39.000Z</time>
      </trkpt>
      <trkpt lat="44.52795" lon="0.68691">
        <ele>146.5</ele>
        <time>2014-7-5T11:2:39.000Z</time>
      </trkpt>
      <trkpt lat="44.52795" lon="0.68691">
        <ele>146.5</ele>
        <time>2014-7-5T11:2:39.000Z</time>
      </trkpt>
      <trkpt lat="44.528" lon="0.68692">
        <ele>146.5</ele>
        <time>2014-7-5T11:2:39.000Z</time>
      </trkpt>
      <trkpt lat="44.528" lon="0.68692">
        <ele>146.5</ele>
        <time>2014-7-5T11:2:39.000Z</time>
      </trkpt>
      <trkpt lat="44.52805" lon="0.68693">
        <ele>146.5</ele>
        <time>2014-7-5T11:2:39.000Z</time>
      </trkpt>
      <trkpt lat="44.52805" lon="0.68693">
        <ele>146.5</ele>
        <time>2014-7-5T11:2:39.000Z</time>
      </trkpt>
      <trkpt lat="44.52812" lon="0.68694">
        <ele>145.5</ele>
        <time>2014-7-5T11:2:39.000Z</time>
      </trkpt>
      <trkpt lat="44.52812" lon="0.68694">
        <ele>145.5</ele>
        <time>2014-7-5T11:2:39.000Z</time>
      </trkpt>
      <trkpt lat="44.52817" lon="0.68695">
        <ele>145.5</ele>
        <time>2014-7-5T11:2:39.000Z</time>
      </trkpt>
      <trkpt lat="44.52817" lon="0.68695">
        <ele>145.5</ele>
        <time>2014-7-5T11:2:39.000Z</time>
      </trkpt>
      <trkpt lat="44.52821" lon="0.68696">
        <ele>146.5</ele>
        <time>2014-7-5T11:2:39.000Z</time>
      </trkpt>
      <trkpt lat="44.52821" lon="0.68696">
        <ele>146.5</ele>
        <time>2014-7-5T11:2:39.000Z</time>
      </trkpt>
      <trkpt lat="44.52826" lon="0.68697">
        <ele>147.5</ele>
        <time>2014-7-5T11:2:39.000Z</time>
      </trkpt>
      <trkpt lat="44.52826" lon="0.68697">
        <ele>147.5</ele>
        <time>2014-7-5T11:2:39.000Z</time>
      </trkpt>
      <trkpt lat="44.5283" lon="0.68698">
        <ele>148.5</ele>
        <time>2014-7-5T11:2:39.000Z</time>
      </trkpt>
      <trkpt lat="44.5283" lon="0.68698">
        <ele>148.5</ele>
        <time>2014-7-5T11:2:39.000Z</time>
      </trkpt>
      <trkpt lat="44.52834" lon="0.68698">
        <ele>149.5</ele>
        <time>2014-7-5T11:2:39.000Z</time>
      </trkpt>
      <trkpt lat="44.52834" lon="0.68698">
        <ele>149.5</ele>
        <time>2014-7-5T11:2:39.000Z</time>
      </trkpt>
      <trkpt lat="44.52839" lon="0.68695">
        <ele>145.5</ele>
        <time>2014-7-5T11:2:39.000Z</time>
      </trkpt>
      <trkpt lat="44.52839" lon="0.68695">
        <ele>145.5</ele>
        <time>2014-7-5T11:2:39.000Z</time>
      </trkpt>
      <trkpt lat="44.52843" lon="0.68694">
        <ele>145.5</ele>
        <time>2014-7-5T11:2:39.000Z</time>
      </trkpt>
      <trkpt lat="44.52843" lon="0.68694">
        <ele>145.5</ele>
        <time>2014-7-5T11:2:39.000Z</time>
      </trkpt>
      <trkpt lat="44.52846" lon="0.68695">
        <ele>144.5</ele>
        <time>2014-7-5T11:2:39.000Z</time>
      </trkpt>
      <trkpt lat="44.52846" lon="0.68695">
        <ele>144.5</ele>
        <time>2014-7-5T11:2:39.000Z</time>
      </trkpt>
      <trkpt lat="44.5285" lon="0.68696">
        <ele>144.5</ele>
        <time>2014-7-5T11:2:39.000Z</time>
      </trkpt>
      <trkpt lat="44.5285" lon="0.68696">
        <ele>144.5</ele>
        <time>2014-7-5T11:2:39.000Z</time>
      </trkpt>
      <trkpt lat="44.52854" lon="0.68695">
        <ele>144.5</ele>
        <time>2014-7-5T11:2:39.000Z</time>
      </trkpt>
      <trkpt lat="44.52854" lon="0.68695">
        <ele>144.5</ele>
        <time>2014-7-5T11:2:39.000Z</time>
      </trkpt>
      <trkpt lat="44.52858" lon="0.68696">
        <ele>143.5</ele>
        <time>2014-7-5T11:2:39.000Z</time>
      </trkpt>
      <trkpt lat="44.52858" lon="0.68696">
        <ele>143.5</ele>
        <time>2014-7-5T11:2:39.000Z</time>
      </trkpt>
      <trkpt lat="44.52862" lon="0.68696">
        <ele>143.5</ele>
        <time>2014-7-5T11:2:39.000Z</time>
      </trkpt>
      <trkpt lat="44.52862" lon="0.68696">
        <ele>143.5</ele>
        <time>2014-7-5T11:2:39.000Z</time>
      </trkpt>
      <trkpt lat="44.52865" lon="0.68697">
        <ele>143.5</ele>
        <time>2014-7-5T11:2:39.000Z</time>
      </trkpt>
      <trkpt lat="44.52865" lon="0.68697">
        <ele>143.5</ele>
        <time>2014-7-5T11:2:39.000Z</time>
      </trkpt>
      <trkpt lat="44.5287" lon="0.68697">
        <ele>143.5</ele>
        <time>2014-7-5T11:2:39.000Z</time>
      </trkpt>
      <trkpt lat="44.5287" lon="0.68697">
        <ele>143.5</ele>
        <time>2014-7-5T11:2:39.000Z</time>
      </trkpt>
      <trkpt lat="44.52873" lon="0.68697">
        <ele>144.5</ele>
        <time>2014-7-5T11:2:39.000Z</time>
      </trkpt>
      <trkpt lat="44.52873" lon="0.68697">
        <ele>144.5</ele>
        <time>2014-7-5T11:2:39.000Z</time>
      </trkpt>
      <trkpt lat="44.52877" lon="0.68698">
        <ele>144.5</ele>
        <time>2014-7-5T11:2:39.000Z</time>
      </trkpt>
      <trkpt lat="44.52877" lon="0.68698">
        <ele>144.5</ele>
        <time>2014-7-5T11:2:39.000Z</time>
      </trkpt>
      <trkpt lat="44.5288" lon="0.68698">
        <ele>143.5</ele>
        <time>2014-7-5T11:2:39.000Z</time>
      </trkpt>
      <trkpt lat="44.5288" lon="0.68698">
        <ele>143.5</ele>
        <time>2014-7-5T11:2:39.000Z</time>
      </trkpt>
      <trkpt lat="44.52884" lon="0.68698">
        <ele>143.5</ele>
        <time>2014-7-5T11:2:39.000Z</time>
      </trkpt>
      <trkpt lat="44.52884" lon="0.68698">
        <ele>143.5</ele>
        <time>2014-7-5T11:2:39.000Z</time>
      </trkpt>
      <trkpt lat="44.52887" lon="0.68698">
        <ele>142.5</ele>
        <time>2014-7-5T11:2:39.000Z</time>
      </trkpt>
      <trkpt lat="44.52887" lon="0.68698">
        <ele>142.5</ele>
        <time>2014-7-5T11:2:39.000Z</time>
      </trkpt>
      <trkpt lat="44.52892" lon="0.68699">
        <ele>142.5</ele>
        <time>2014-7-5T11:2:39.000Z</time>
      </trkpt>
      <trkpt lat="44.52892" lon="0.68699">
        <ele>142.5</ele>
        <time>2014-7-5T11:2:39.000Z</time>
      </trkpt>
      <trkpt lat="44.52896" lon="0.68699">
        <ele>142.5</ele>
        <time>2014-7-5T11:2:39.000Z</time>
      </trkpt>
      <trkpt lat="44.52896" lon="0.68699">
        <ele>142.5</ele>
        <time>2014-7-5T11:2:39.000Z</time>
      </trkpt>
      <trkpt lat="44.529" lon="0.687">
        <ele>142.5</ele>
        <time>2014-7-5T11:2:39.000Z</time>
      </trkpt>
      <trkpt lat="44.529" lon="0.687">
        <ele>142.5</ele>
        <time>2014-7-5T11:2:39.000Z</time>
      </trkpt>
      <trkpt lat="44.52904" lon="0.68701">
        <ele>142.5</ele>
        <time>2014-7-5T11:2:39.000Z</time>
      </trkpt>
      <trkpt lat="44.52904" lon="0.68701">
        <ele>142.5</ele>
        <time>2014-7-5T11:2:39.000Z</time>
      </trkpt>
      <trkpt lat="44.52908" lon="0.68701">
        <ele>142.5</ele>
        <time>2014-7-5T11:2:39.000Z</time>
      </trkpt>
      <trkpt lat="44.52908" lon="0.68701">
        <ele>142.5</ele>
        <time>2014-7-5T11:2:39.000Z</time>
      </trkpt>
      <trkpt lat="44.52913" lon="0.68701">
        <ele>142.5</ele>
        <time>2014-7-5T11:2:39.000Z</time>
      </trkpt>
      <trkpt lat="44.52913" lon="0.68701">
        <ele>142.5</ele>
        <time>2014-7-5T11:2:39.000Z</time>
      </trkpt>
      <trkpt lat="44.52917" lon="0.68702">
        <ele>142.5</ele>
        <time>2014-7-5T11:2:39.000Z</time>
      </trkpt>
      <trkpt lat="44.52917" lon="0.68702">
        <ele>142.5</ele>
        <time>2014-7-5T11:2:39.000Z</time>
      </trkpt>
      <trkpt lat="44.52921" lon="0.68702">
        <ele>141.5</ele>
        <time>2014-7-5T11:2:39.000Z</time>
      </trkpt>
      <trkpt lat="44.52921" lon="0.68702">
        <ele>141.5</ele>
        <time>2014-7-5T11:2:39.000Z</time>
      </trkpt>
      <trkpt lat="44.52925" lon="0.68703">
        <ele>141.5</ele>
        <time>2014-7-5T11:2:39.000Z</time>
      </trkpt>
      <trkpt lat="44.52925" lon="0.68703">
        <ele>141.5</ele>
        <time>2014-7-5T11:2:39.000Z</time>
      </trkpt>
      <trkpt lat="44.52929" lon="0.68703">
        <ele>141.5</ele>
        <time>2014-7-5T11:2:39.000Z</time>
      </trkpt>
      <trkpt lat="44.52929" lon="0.68703">
        <ele>141.5</ele>
        <time>2014-7-5T11:2:39.000Z</time>
      </trkpt>
      <trkpt lat="44.52934" lon="0.68703">
        <ele>141.5</ele>
        <time>2014-7-5T11:2:39.000Z</time>
      </trkpt>
      <trkpt lat="44.52934" lon="0.68703">
        <ele>141.5</ele>
        <time>2014-7-5T11:3:29.000Z</time>
      </trkpt>
      <trkpt lat="44.52938" lon="0.68703">
        <ele>140.5</ele>
        <time>2014-7-5T11:3:29.000Z</time>
      </trkpt>
      <trkpt lat="44.52938" lon="0.68703">
        <ele>140.5</ele>
        <time>2014-7-5T11:3:29.000Z</time>
      </trkpt>
      <trkpt lat="44.52942" lon="0.68704">
        <ele>140.5</ele>
        <time>2014-7-5T11:3:29.000Z</time>
      </trkpt>
      <trkpt lat="44.52942" lon="0.68704">
        <ele>140.5</ele>
        <time>2014-7-5T11:3:29.000Z</time>
      </trkpt>
      <trkpt lat="44.52946" lon="0.68704">
        <ele>139.5</ele>
        <time>2014-7-5T11:3:29.000Z</time>
      </trkpt>
      <trkpt lat="44.52946" lon="0.68704">
        <ele>139.5</ele>
        <time>2014-7-5T11:3:29.000Z</time>
      </trkpt>
      <trkpt lat="44.5295" lon="0.68704">
        <ele>139.5</ele>
        <time>2014-7-5T11:3:29.000Z</time>
      </trkpt>
      <trkpt lat="44.5295" lon="0.68704">
        <ele>139.5</ele>
        <time>2014-7-5T11:3:29.000Z</time>
      </trkpt>
      <trkpt lat="44.52954" lon="0.68704">
        <ele>139.5</ele>
        <time>2014-7-5T11:3:29.000Z</time>
      </trkpt>
      <trkpt lat="44.52954" lon="0.68704">
        <ele>139.5</ele>
        <time>2014-7-5T11:3:29.000Z</time>
      </trkpt>
      <trkpt lat="44.52958" lon="0.68704">
        <ele>139.5</ele>
        <time>2014-7-5T11:3:29.000Z</time>
      </trkpt>
      <trkpt lat="44.52958" lon="0.68704">
        <ele>139.5</ele>
        <time>2014-7-5T11:3:29.000Z</time>
      </trkpt>
      <trkpt lat="44.52962" lon="0.68704">
        <ele>139.5</ele>
        <time>2014-7-5T11:3:29.000Z</time>
      </trkpt>
      <trkpt lat="44.52962" lon="0.68704">
        <ele>139.5</ele>
        <time>2014-7-5T11:3:29.000Z</time>
      </trkpt>
      <trkpt lat="44.52966" lon="0.68705">
        <ele>138.5</ele>
        <time>2014-7-5T11:3:29.000Z</time>
      </trkpt>
      <trkpt lat="44.52966" lon="0.68705">
        <ele>138.5</ele>
        <time>2014-7-5T11:3:29.000Z</time>
      </trkpt>
      <trkpt lat="44.52969" lon="0.68705">
        <ele>138.5</ele>
        <time>2014-7-5T11:3:29.000Z</time>
      </trkpt>
      <trkpt lat="44.52969" lon="0.68705">
        <ele>138.5</ele>
        <time>2014-7-5T11:3:29.000Z</time>
      </trkpt>
      <trkpt lat="44.52973" lon="0.68706">
        <ele>138.5</ele>
        <time>2014-7-5T11:3:29.000Z</time>
      </trkpt>
      <trkpt lat="44.52973" lon="0.68706">
        <ele>138.5</ele>
        <time>2014-7-5T11:3:29.000Z</time>
      </trkpt>
      <trkpt lat="44.52977" lon="0.68709">
        <ele>139.5</ele>
        <time>2014-7-5T11:3:29.000Z</time>
      </trkpt>
      <trkpt lat="44.52977" lon="0.68709">
        <ele>139.5</ele>
        <time>2014-7-5T11:3:29.000Z</time>
      </trkpt>
      <trkpt lat="44.5298" lon="0.68712">
        <ele>139.5</ele>
        <time>2014-7-5T11:3:29.000Z</time>
      </trkpt>
      <trkpt lat="44.5298" lon="0.68712">
        <ele>139.5</ele>
        <time>2014-7-5T11:3:29.000Z</time>
      </trkpt>
      <trkpt lat="44.52983" lon="0.68717">
        <ele>139.5</ele>
        <time>2014-7-5T11:3:29.000Z</time>
      </trkpt>
      <trkpt lat="44.52983" lon="0.68717">
        <ele>139.5</ele>
        <time>2014-7-5T11:3:29.000Z</time>
      </trkpt>
      <trkpt lat="44.52987" lon="0.68721">
        <ele>138.5</ele>
        <time>2014-7-5T11:3:29.000Z</time>
      </trkpt>
      <trkpt lat="44.52987" lon="0.68721">
        <ele>138.5</ele>
        <time>2014-7-5T11:3:29.000Z</time>
      </trkpt>
      <trkpt lat="44.5299" lon="0.68724">
        <ele>138.5</ele>
        <time>2014-7-5T11:3:29.000Z</time>
      </trkpt>
      <trkpt lat="44.5299" lon="0.68724">
        <ele>138.5</ele>
        <time>2014-7-5T11:3:29.000Z</time>
      </trkpt>
      <trkpt lat="44.52994" lon="0.68727">
        <ele>138.5</ele>
        <time>2014-7-5T11:3:29.000Z</time>
      </trkpt>
      <trkpt lat="44.52994" lon="0.68727">
        <ele>138.5</ele>
        <time>2014-7-5T11:3:29.000Z</time>
      </trkpt>
      <trkpt lat="44.52997" lon="0.68729">
        <ele>137.5</ele>
        <time>2014-7-5T11:3:29.000Z</time>
      </trkpt>
      <trkpt lat="44.52997" lon="0.68729">
        <ele>137.5</ele>
        <time>2014-7-5T11:3:29.000Z</time>
      </trkpt>
      <trkpt lat="44.53" lon="0.68732">
        <ele>137.5</ele>
        <time>2014-7-5T11:3:29.000Z</time>
      </trkpt>
      <trkpt lat="44.53" lon="0.68732">
        <ele>137.5</ele>
        <time>2014-7-5T11:3:29.000Z</time>
      </trkpt>
      <trkpt lat="44.53004" lon="0.68734">
        <ele>137.5</ele>
        <time>2014-7-5T11:3:29.000Z</time>
      </trkpt>
      <trkpt lat="44.53004" lon="0.68734">
        <ele>137.5</ele>
        <time>2014-7-5T11:3:29.000Z</time>
      </trkpt>
      <trkpt lat="44.53007" lon="0.68737">
        <ele>137.5</ele>
        <time>2014-7-5T11:3:29.000Z</time>
      </trkpt>
      <trkpt lat="44.53007" lon="0.68737">
        <ele>137.5</ele>
        <time>2014-7-5T11:3:29.000Z</time>
      </trkpt>
      <trkpt lat="44.5301" lon="0.6874">
        <ele>138.5</ele>
        <time>2014-7-5T11:3:29.000Z</time>
      </trkpt>
      <trkpt lat="44.5301" lon="0.6874">
        <ele>138.5</ele>
        <time>2014-7-5T11:3:29.000Z</time>
      </trkpt>
      <trkpt lat="44.53013" lon="0.68743">
        <ele>138.5</ele>
        <time>2014-7-5T11:3:29.000Z</time>
      </trkpt>
      <trkpt lat="44.53013" lon="0.68743">
        <ele>138.5</ele>
        <time>2014-7-5T11:3:29.000Z</time>
      </trkpt>
      <trkpt lat="44.53016" lon="0.68746">
        <ele>137.5</ele>
        <time>2014-7-5T11:3:29.000Z</time>
      </trkpt>
      <trkpt lat="44.53016" lon="0.68746">
        <ele>137.5</ele>
        <time>2014-7-5T11:3:29.000Z</time>
      </trkpt>
      <trkpt lat="44.5302" lon="0.68749">
        <ele>138.5</ele>
        <time>2014-7-5T11:3:29.000Z</time>
      </trkpt>
      <trkpt lat="44.5302" lon="0.68749">
        <ele>138.5</ele>
        <time>2014-7-5T11:3:29.000Z</time>
      </trkpt>
      <trkpt lat="44.53023" lon="0.68752">
        <ele>138.5</ele>
        <time>2014-7-5T11:3:29.000Z</time>
      </trkpt>
      <trkpt lat="44.53023" lon="0.68752">
        <ele>138.5</ele>
        <time>2014-7-5T11:3:29.000Z</time>
      </trkpt>
      <trkpt lat="44.53027" lon="0.68757">
        <ele>138.5</ele>
        <time>2014-7-5T11:3:29.000Z</time>
      </trkpt>
      <trkpt lat="44.53027" lon="0.68757">
        <ele>138.5</ele>
        <time>2014-7-5T11:3:29.000Z</time>
      </trkpt>
      <trkpt lat="44.53031" lon="0.68761">
        <ele>139.5</ele>
        <time>2014-7-5T11:3:29.000Z</time>
      </trkpt>
      <trkpt lat="44.53031" lon="0.68761">
        <ele>139.5</ele>
        <time>2014-7-5T11:3:29.000Z</time>
      </trkpt>
      <trkpt lat="44.53035" lon="0.68765">
        <ele>139.5</ele>
        <time>2014-7-5T11:3:29.000Z</time>
      </trkpt>
      <trkpt lat="44.53035" lon="0.68765">
        <ele>139.5</ele>
        <time>2014-7-5T11:3:29.000Z</time>
      </trkpt>
      <trkpt lat="44.53037" lon="0.68768">
        <ele>139.5</ele>
        <time>2014-7-5T11:3:29.000Z</time>
      </trkpt>
      <trkpt lat="44.53037" lon="0.68768">
        <ele>139.5</ele>
        <time>2014-7-5T11:3:29.000Z</time>
      </trkpt>
      <trkpt lat="44.53041" lon="0.68772">
        <ele>139.5</ele>
        <time>2014-7-5T11:3:29.000Z</time>
      </trkpt>
      <trkpt lat="44.53041" lon="0.68772">
        <ele>139.5</ele>
        <time>2014-7-5T11:3:29.000Z</time>
      </trkpt>
      <trkpt lat="44.53044" lon="0.68775">
        <ele>140.5</ele>
        <time>2014-7-5T11:3:29.000Z</time>
      </trkpt>
      <trkpt lat="44.53044" lon="0.68775">
        <ele>140.5</ele>
        <time>2014-7-5T11:3:29.000Z</time>
      </trkpt>
      <trkpt lat="44.53047" lon="0.68777">
        <ele>140.5</ele>
        <time>2014-7-5T11:3:29.000Z</time>
      </trkpt>
      <trkpt lat="44.53047" lon="0.68777">
        <ele>140.5</ele>
        <time>2014-7-5T11:3:29.000Z</time>
      </trkpt>
      <trkpt lat="44.5305" lon="0.6878">
        <ele>140.5</ele>
        <time>2014-7-5T11:3:29.000Z</time>
      </trkpt>
      <trkpt lat="44.5305" lon="0.6878">
        <ele>140.5</ele>
        <time>2014-7-5T11:3:29.000Z</time>
      </trkpt>
      <trkpt lat="44.53054" lon="0.68783">
        <ele>140.5</ele>
        <time>2014-7-5T11:3:29.000Z</time>
      </trkpt>
      <trkpt lat="44.53054" lon="0.68783">
        <ele>140.5</ele>
        <time>2014-7-5T11:3:29.000Z</time>
      </trkpt>
      <trkpt lat="44.53057" lon="0.68787">
        <ele>140.5</ele>
        <time>2014-7-5T11:3:29.000Z</time>
      </trkpt>
      <trkpt lat="44.53057" lon="0.68787">
        <ele>140.5</ele>
        <time>2014-7-5T11:3:29.000Z</time>
      </trkpt>
      <trkpt lat="44.53061" lon="0.6879">
        <ele>139.5</ele>
        <time>2014-7-5T11:3:29.000Z</time>
      </trkpt>
      <trkpt lat="44.53061" lon="0.6879">
        <ele>139.5</ele>
        <time>2014-7-5T11:3:29.000Z</time>
      </trkpt>
      <trkpt lat="44.53065" lon="0.68794">
        <ele>138.5</ele>
        <time>2014-7-5T11:3:29.000Z</time>
      </trkpt>
      <trkpt lat="44.53065" lon="0.68794">
        <ele>138.5</ele>
        <time>2014-7-5T11:3:29.000Z</time>
      </trkpt>
      <trkpt lat="44.5307" lon="0.68797">
        <ele>136.5</ele>
        <time>2014-7-5T11:3:29.000Z</time>
      </trkpt>
      <trkpt lat="44.5307" lon="0.68797">
        <ele>136.5</ele>
        <time>2014-7-5T11:3:29.000Z</time>
      </trkpt>
      <trkpt lat="44.53074" lon="0.688">
        <ele>137.5</ele>
        <time>2014-7-5T11:3:29.000Z</time>
      </trkpt>
      <trkpt lat="44.53074" lon="0.688">
        <ele>137.5</ele>
        <time>2014-7-5T11:3:29.000Z</time>
      </trkpt>
      <trkpt lat="44.53077" lon="0.68804">
        <ele>137.5</ele>
        <time>2014-7-5T11:3:29.000Z</time>
      </trkpt>
      <trkpt lat="44.53077" lon="0.68804">
        <ele>137.5</ele>
        <time>2014-7-5T11:3:29.000Z</time>
      </trkpt>
      <trkpt lat="44.5308" lon="0.68807">
        <ele>138.5</ele>
        <time>2014-7-5T11:3:29.000Z</time>
      </trkpt>
      <trkpt lat="44.5308" lon="0.68807">
        <ele>138.5</ele>
        <time>2014-7-5T11:3:29.000Z</time>
      </trkpt>
      <trkpt lat="44.53084" lon="0.6881">
        <ele>138.5</ele>
        <time>2014-7-5T11:3:29.000Z</time>
      </trkpt>
      <trkpt lat="44.53084" lon="0.6881">
        <ele>138.5</ele>
        <time>2014-7-5T11:3:29.000Z</time>
      </trkpt>
      <trkpt lat="44.53087" lon="0.68814">
        <ele>137.5</ele>
        <time>2014-7-5T11:3:29.000Z</time>
      </trkpt>
      <trkpt lat="44.53087" lon="0.68814">
        <ele>137.5</ele>
        <time>2014-7-5T11:3:29.000Z</time>
      </trkpt>
      <trkpt lat="44.5309" lon="0.68819">
        <ele>138.5</ele>
        <time>2014-7-5T11:3:29.000Z</time>
      </trkpt>
      <trkpt lat="44.5309" lon="0.68819">
        <ele>138.5</ele>
        <time>2014-7-5T11:3:29.000Z</time>
      </trkpt>
      <trkpt lat="44.53093" lon="0.68824">
        <ele>138.5</ele>
        <time>2014-7-5T11:3:29.000Z</time>
      </trkpt>
      <trkpt lat="44.53093" lon="0.68824">
        <ele>138.5</ele>
        <time>2014-7-5T11:3:29.000Z</time>
      </trkpt>
      <trkpt lat="44.53095" lon="0.68829">
        <ele>137.5</ele>
        <time>2014-7-5T11:3:29.000Z</time>
      </trkpt>
      <trkpt lat="44.53095" lon="0.68829">
        <ele>137.5</ele>
        <time>2014-7-5T11:3:29.000Z</time>
      </trkpt>
      <trkpt lat="44.53098" lon="0.68833">
        <ele>137.5</ele>
        <time>2014-7-5T11:3:29.000Z</time>
      </trkpt>
      <trkpt lat="44.53098" lon="0.68833">
        <ele>137.5</ele>
        <time>2014-7-5T11:3:29.000Z</time>
      </trkpt>
      <trkpt lat="44.531" lon="0.68836">
        <ele>137.5</ele>
        <time>2014-7-5T11:3:29.000Z</time>
      </trkpt>
      <trkpt lat="44.531" lon="0.68836">
        <ele>137.5</ele>
        <time>2014-7-5T11:3:29.000Z</time>
      </trkpt>
      <trkpt lat="44.53101" lon="0.68839">
        <ele>136.5</ele>
        <time>2014-7-5T11:3:29.000Z</time>
      </trkpt>
      <trkpt lat="44.53101" lon="0.68839">
        <ele>136.5</ele>
        <time>2014-7-5T11:3:29.000Z</time>
      </trkpt>
      <trkpt lat="44.53104" lon="0.68841">
        <ele>137.5</ele>
        <time>2014-7-5T11:3:29.000Z</time>
      </trkpt>
      <trkpt lat="44.53104" lon="0.68841">
        <ele>137.5</ele>
        <time>2014-7-5T11:3:29.000Z</time>
      </trkpt>
      <trkpt lat="44.53106" lon="0.68846">
        <ele>137.5</ele>
        <time>2014-7-5T11:4:20.000Z</time>
      </trkpt>
      <trkpt lat="44.53106" lon="0.68846">
        <ele>137.5</ele>
        <time>2014-7-5T11:4:20.000Z</time>
      </trkpt>
      <trkpt lat="44.53109" lon="0.6885">
        <ele>136.5</ele>
        <time>2014-7-5T11:4:20.000Z</time>
      </trkpt>
      <trkpt lat="44.53109" lon="0.6885">
        <ele>136.5</ele>
        <time>2014-7-5T11:4:20.000Z</time>
      </trkpt>
      <trkpt lat="44.53112" lon="0.68854">
        <ele>136.5</ele>
        <time>2014-7-5T11:4:20.000Z</time>
      </trkpt>
      <trkpt lat="44.53112" lon="0.68854">
        <ele>136.5</ele>
        <time>2014-7-5T11:4:20.000Z</time>
      </trkpt>
      <trkpt lat="44.53115" lon="0.68859">
        <ele>136.5</ele>
        <time>2014-7-5T11:4:20.000Z</time>
      </trkpt>
      <trkpt lat="44.53115" lon="0.68859">
        <ele>136.5</ele>
        <time>2014-7-5T11:4:20.000Z</time>
      </trkpt>
      <trkpt lat="44.53117" lon="0.68863">
        <ele>136.5</ele>
        <time>2014-7-5T11:4:20.000Z</time>
      </trkpt>
      <trkpt lat="44.53117" lon="0.68863">
        <ele>136.5</ele>
        <time>2014-7-5T11:4:20.000Z</time>
      </trkpt>
      <trkpt lat="44.5312" lon="0.68868">
        <ele>135.5</ele>
        <time>2014-7-5T11:4:20.000Z</time>
      </trkpt>
      <trkpt lat="44.5312" lon="0.68868">
        <ele>135.5</ele>
        <time>2014-7-5T11:4:20.000Z</time>
      </trkpt>
      <trkpt lat="44.53123" lon="0.68872">
        <ele>135.5</ele>
        <time>2014-7-5T11:4:20.000Z</time>
      </trkpt>
      <trkpt lat="44.53123" lon="0.68872">
        <ele>135.5</ele>
        <time>2014-7-5T11:4:20.000Z</time>
      </trkpt>
      <trkpt lat="44.53126" lon="0.68877">
        <ele>135.5</ele>
        <time>2014-7-5T11:4:20.000Z</time>
      </trkpt>
      <trkpt lat="44.53126" lon="0.68877">
        <ele>135.5</ele>
        <time>2014-7-5T11:4:20.000Z</time>
      </trkpt>
      <trkpt lat="44.53129" lon="0.68882">
        <ele>134.5</ele>
        <time>2014-7-5T11:4:20.000Z</time>
      </trkpt>
      <trkpt lat="44.53129" lon="0.68882">
        <ele>134.5</ele>
        <time>2014-7-5T11:4:20.000Z</time>
      </trkpt>
      <trkpt lat="44.53131" lon="0.68887">
        <ele>135.5</ele>
        <time>2014-7-5T11:4:20.000Z</time>
      </trkpt>
      <trkpt lat="44.53131" lon="0.68887">
        <ele>135.5</ele>
        <time>2014-7-5T11:4:20.000Z</time>
      </trkpt>
      <trkpt lat="44.53134" lon="0.68891">
        <ele>134.5</ele>
        <time>2014-7-5T11:4:20.000Z</time>
      </trkpt>
      <trkpt lat="44.53134" lon="0.68891">
        <ele>134.5</ele>
        <time>2014-7-5T11:4:20.000Z</time>
      </trkpt>
      <trkpt lat="44.53137" lon="0.68896">
        <ele>134.5</ele>
        <time>2014-7-5T11:4:20.000Z</time>
      </trkpt>
      <trkpt lat="44.53137" lon="0.68896">
        <ele>134.5</ele>
        <time>2014-7-5T11:4:20.000Z</time>
      </trkpt>
      <trkpt lat="44.53139" lon="0.689">
        <ele>134.5</ele>
        <time>2014-7-5T11:4:20.000Z</time>
      </trkpt>
      <trkpt lat="44.53139" lon="0.689">
        <ele>134.5</ele>
        <time>2014-7-5T11:4:20.000Z</time>
      </trkpt>
      <trkpt lat="44.53141" lon="0.68903">
        <ele>135.5</ele>
        <time>2014-7-5T11:4:20.000Z</time>
      </trkpt>
      <trkpt lat="44.53141" lon="0.68903">
        <ele>135.5</ele>
        <time>2014-7-5T11:4:20.000Z</time>
      </trkpt>
      <trkpt lat="44.53144" lon="0.68907">
        <ele>135.5</ele>
        <time>2014-7-5T11:4:20.000Z</time>
      </trkpt>
      <trkpt lat="44.53144" lon="0.68907">
        <ele>135.5</ele>
        <time>2014-7-5T11:4:20.000Z</time>
      </trkpt>
      <trkpt lat="44.53147" lon="0.68912">
        <ele>135.5</ele>
        <time>2014-7-5T11:4:20.000Z</time>
      </trkpt>
      <trkpt lat="44.53147" lon="0.68912">
        <ele>135.5</ele>
        <time>2014-7-5T11:4:20.000Z</time>
      </trkpt>
      <trkpt lat="44.5315" lon="0.68917">
        <ele>134.5</ele>
        <time>2014-7-5T11:4:20.000Z</time>
      </trkpt>
      <trkpt lat="44.5315" lon="0.68917">
        <ele>134.5</ele>
        <time>2014-7-5T11:4:20.000Z</time>
      </trkpt>
      <trkpt lat="44.53153" lon="0.68922">
        <ele>134.5</ele>
        <time>2014-7-5T11:4:20.000Z</time>
      </trkpt>
      <trkpt lat="44.53153" lon="0.68922">
        <ele>134.5</ele>
        <time>2014-7-5T11:4:20.000Z</time>
      </trkpt>
      <trkpt lat="44.53157" lon="0.68926">
        <ele>134.5</ele>
        <time>2014-7-5T11:4:20.000Z</time>
      </trkpt>
      <trkpt lat="44.53157" lon="0.68926">
        <ele>134.5</ele>
        <time>2014-7-5T11:4:20.000Z</time>
      </trkpt>
      <trkpt lat="44.53161" lon="0.68929">
        <ele>134.5</ele>
        <time>2014-7-5T11:4:20.000Z</time>
      </trkpt>
      <trkpt lat="44.53161" lon="0.68929">
        <ele>134.5</ele>
        <time>2014-7-5T11:4:20.000Z</time>
      </trkpt>
      <trkpt lat="44.53164" lon="0.68932">
        <ele>134.5</ele>
        <time>2014-7-5T11:4:20.000Z</time>
      </trkpt>
      <trkpt lat="44.53164" lon="0.68932">
        <ele>134.5</ele>
        <time>2014-7-5T11:4:20.000Z</time>
      </trkpt>
      <trkpt lat="44.53167" lon="0.68936">
        <ele>134.5</ele>
        <time>2014-7-5T11:4:20.000Z</time>
      </trkpt>
      <trkpt lat="44.53167" lon="0.68936">
        <ele>134.5</ele>
        <time>2014-7-5T11:4:20.000Z</time>
      </trkpt>
      <trkpt lat="44.5317" lon="0.68941">
        <ele>133.5</ele>
        <time>2014-7-5T11:4:20.000Z</time>
      </trkpt>
      <trkpt lat="44.5317" lon="0.68941">
        <ele>133.5</ele>
        <time>2014-7-5T11:4:20.000Z</time>
      </trkpt>
      <trkpt lat="44.53173" lon="0.68944">
        <ele>133.5</ele>
        <time>2014-7-5T11:4:20.000Z</time>
      </trkpt>
      <trkpt lat="44.53173" lon="0.68944">
        <ele>133.5</ele>
        <time>2014-7-5T11:4:20.000Z</time>
      </trkpt>
      <trkpt lat="44.53177" lon="0.68947">
        <ele>133.5</ele>
        <time>2014-7-5T11:4:20.000Z</time>
      </trkpt>
      <trkpt lat="44.53177" lon="0.68947">
        <ele>133.5</ele>
        <time>2014-7-5T11:4:20.000Z</time>
      </trkpt>
      <trkpt lat="44.53181" lon="0.6895">
        <ele>133.5</ele>
        <time>2014-7-5T11:4:20.000Z</time>
      </trkpt>
      <trkpt lat="44.53181" lon="0.6895">
        <ele>133.5</ele>
        <time>2014-7-5T11:4:20.000Z</time>
      </trkpt>
      <trkpt lat="44.53185" lon="0.68953">
        <ele>133.5</ele>
        <time>2014-7-5T11:4:20.000Z</time>
      </trkpt>
      <trkpt lat="44.53185" lon="0.68953">
        <ele>133.5</ele>
        <time>2014-7-5T11:4:20.000Z</time>
      </trkpt>
      <trkpt lat="44.5319" lon="0.68955">
        <ele>133.5</ele>
        <time>2014-7-5T11:4:20.000Z</time>
      </trkpt>
      <trkpt lat="44.5319" lon="0.68955">
        <ele>133.5</ele>
        <time>2014-7-5T11:4:20.000Z</time>
      </trkpt>
      <trkpt lat="44.53193" lon="0.68958">
        <ele>133.5</ele>
        <time>2014-7-5T11:4:20.000Z</time>
      </trkpt>
      <trkpt lat="44.53193" lon="0.68958">
        <ele>133.5</ele>
        <time>2014-7-5T11:4:20.000Z</time>
      </trkpt>
      <trkpt lat="44.53197" lon="0.68962">
        <ele>133.5</ele>
        <time>2014-7-5T11:4:20.000Z</time>
      </trkpt>
      <trkpt lat="44.53197" lon="0.68962">
        <ele>133.5</ele>
        <time>2014-7-5T11:4:20.000Z</time>
      </trkpt>
      <trkpt lat="44.532" lon="0.68964">
        <ele>133.5</ele>
        <time>2014-7-5T11:4:20.000Z</time>
      </trkpt>
      <trkpt lat="44.532" lon="0.68964">
        <ele>133.5</ele>
        <time>2014-7-5T11:4:20.000Z</time>
      </trkpt>
      <trkpt lat="44.53204" lon="0.68966">
        <ele>133.5</ele>
        <time>2014-7-5T11:4:20.000Z</time>
      </trkpt>
      <trkpt lat="44.53204" lon="0.68966">
        <ele>133.5</ele>
        <time>2014-7-5T11:4:20.000Z</time>
      </trkpt>
      <trkpt lat="44.53208" lon="0.68969">
        <ele>133.5</ele>
        <time>2014-7-5T11:4:20.000Z</time>
      </trkpt>
      <trkpt lat="44.53208" lon="0.68969">
        <ele>133.5</ele>
        <time>2014-7-5T11:4:20.000Z</time>
      </trkpt>
      <trkpt lat="44.53211" lon="0.68971">
        <ele>133.5</ele>
        <time>2014-7-5T11:4:20.000Z</time>
      </trkpt>
      <trkpt lat="44.53211" lon="0.68971">
        <ele>133.5</ele>
        <time>2014-7-5T11:4:20.000Z</time>
      </trkpt>
      <trkpt lat="44.53214" lon="0.68972">
        <ele>133.5</ele>
        <time>2014-7-5T11:4:20.000Z</time>
      </trkpt>
      <trkpt lat="44.53214" lon="0.68972">
        <ele>133.5</ele>
        <time>2014-7-5T11:4:20.000Z</time>
      </trkpt>
      <trkpt lat="44.53219" lon="0.68975">
        <ele>133.5</ele>
        <time>2014-7-5T11:4:20.000Z</time>
      </trkpt>
      <trkpt lat="44.53219" lon="0.68975">
        <ele>133.5</ele>
        <time>2014-7-5T11:4:20.000Z</time>
      </trkpt>
      <trkpt lat="44.53222" lon="0.68978">
        <ele>132.5</ele>
        <time>2014-7-5T11:4:20.000Z</time>
      </trkpt>
      <trkpt lat="44.53222" lon="0.68978">
        <ele>132.5</ele>
        <time>2014-7-5T11:4:20.000Z</time>
      </trkpt>
      <trkpt lat="44.53227" lon="0.6898">
        <ele>132.5</ele>
        <time>2014-7-5T11:4:20.000Z</time>
      </trkpt>
      <trkpt lat="44.53227" lon="0.6898">
        <ele>132.5</ele>
        <time>2014-7-5T11:4:20.000Z</time>
      </trkpt>
      <trkpt lat="44.53231" lon="0.68982">
        <ele>133.5</ele>
        <time>2014-7-5T11:4:20.000Z</time>
      </trkpt>
      <trkpt lat="44.53231" lon="0.68982">
        <ele>133.5</ele>
        <time>2014-7-5T11:4:20.000Z</time>
      </trkpt>
      <trkpt lat="44.53235" lon="0.68984">
        <ele>132.5</ele>
        <time>2014-7-5T11:4:20.000Z</time>
      </trkpt>
      <trkpt lat="44.53235" lon="0.68984">
        <ele>132.5</ele>
        <time>2014-7-5T11:4:20.000Z</time>
      </trkpt>
      <trkpt lat="44.5324" lon="0.68984">
        <ele>131.5</ele>
        <time>2014-7-5T11:4:20.000Z</time>
      </trkpt>
      <trkpt lat="44.5324" lon="0.68984">
        <ele>131.5</ele>
        <time>2014-7-5T11:4:20.000Z</time>
      </trkpt>
      <trkpt lat="44.53244" lon="0.68985">
        <ele>131.5</ele>
        <time>2014-7-5T11:4:20.000Z</time>
      </trkpt>
      <trkpt lat="44.53244" lon="0.68985">
        <ele>131.5</ele>
        <time>2014-7-5T11:4:20.000Z</time>
      </trkpt>
      <trkpt lat="44.53248" lon="0.68985">
        <ele>131.5</ele>
        <time>2014-7-5T11:4:20.000Z</time>
      </trkpt>
      <trkpt lat="44.53248" lon="0.68985">
        <ele>131.5</ele>
        <time>2014-7-5T11:4:20.000Z</time>
      </trkpt>
      <trkpt lat="44.53251" lon="0.68983">
        <ele>131.5</ele>
        <time>2014-7-5T11:4:20.000Z</time>
      </trkpt>
      <trkpt lat="44.53251" lon="0.68983">
        <ele>131.5</ele>
        <time>2014-7-5T11:4:20.000Z</time>
      </trkpt>
      <trkpt lat="44.53254" lon="0.68983">
        <ele>131.5</ele>
        <time>2014-7-5T11:4:20.000Z</time>
      </trkpt>
      <trkpt lat="44.53254" lon="0.68983">
        <ele>131.5</ele>
        <time>2014-7-5T11:4:20.000Z</time>
      </trkpt>
      <trkpt lat="44.53258" lon="0.68982">
        <ele>131.5</ele>
        <time>2014-7-5T11:4:20.000Z</time>
      </trkpt>
      <trkpt lat="44.53258" lon="0.68982">
        <ele>131.5</ele>
        <time>2014-7-5T11:4:20.000Z</time>
      </trkpt>
      <trkpt lat="44.53262" lon="0.6898">
        <ele>131.5</ele>
        <time>2014-7-5T11:4:20.000Z</time>
      </trkpt>
      <trkpt lat="44.53262" lon="0.6898">
        <ele>131.5</ele>
        <time>2014-7-5T11:4:20.000Z</time>
      </trkpt>
      <trkpt lat="44.53265" lon="0.68977">
        <ele>132.5</ele>
        <time>2014-7-5T11:4:20.000Z</time>
      </trkpt>
      <trkpt lat="44.53265" lon="0.68977">
        <ele>132.5</ele>
        <time>2014-7-5T11:4:20.000Z</time>
      </trkpt>
      <trkpt lat="44.53266" lon="0.68972">
        <ele>132.5</ele>
        <time>2014-7-5T11:4:20.000Z</time>
      </trkpt>
      <trkpt lat="44.53266" lon="0.68972">
        <ele>132.5</ele>
        <time>2014-7-5T11:4:20.000Z</time>
      </trkpt>
      <trkpt lat="44.53268" lon="0.6897">
        <ele>132.5</ele>
        <time>2014-7-5T11:4:20.000Z</time>
      </trkpt>
      <trkpt lat="44.53268" lon="0.6897">
        <ele>132.5</ele>
        <time>2014-7-5T11:4:20.000Z</time>
      </trkpt>
      <trkpt lat="44.5327" lon="0.68965">
        <ele>132.5</ele>
        <time>2014-7-5T11:4:20.000Z</time>
      </trkpt>
      <trkpt lat="44.5327" lon="0.68965">
        <ele>132.5</ele>
        <time>2014-7-5T11:5:12.000Z</time>
      </trkpt>
      <trkpt lat="44.53272" lon="0.68962">
        <ele>131.5</ele>
        <time>2014-7-5T11:5:12.000Z</time>
      </trkpt>
      <trkpt lat="44.53272" lon="0.68962">
        <ele>131.5</ele>
        <time>2014-7-5T11:5:12.000Z</time>
      </trkpt>
      <trkpt lat="44.53275" lon="0.68958">
        <ele>131.5</ele>
        <time>2014-7-5T11:5:12.000Z</time>
      </trkpt>
      <trkpt lat="44.53275" lon="0.68958">
        <ele>131.5</ele>
        <time>2014-7-5T11:5:12.000Z</time>
      </trkpt>
      <trkpt lat="44.53277" lon="0.68954">
        <ele>132.5</ele>
        <time>2014-7-5T11:5:12.000Z</time>
      </trkpt>
      <trkpt lat="44.53277" lon="0.68954">
        <ele>132.5</ele>
        <time>2014-7-5T11:5:12.000Z</time>
      </trkpt>
      <trkpt lat="44.53279" lon="0.68951">
        <ele>132.5</ele>
        <time>2014-7-5T11:5:12.000Z</time>
      </trkpt>
      <trkpt lat="44.53279" lon="0.68951">
        <ele>132.5</ele>
        <time>2014-7-5T11:5:12.000Z</time>
      </trkpt>
      <trkpt lat="44.53282" lon="0.68946">
        <ele>132.5</ele>
        <time>2014-7-5T11:5:12.000Z</time>
      </trkpt>
      <trkpt lat="44.53282" lon="0.68946">
        <ele>132.5</ele>
        <time>2014-7-5T11:5:12.000Z</time>
      </trkpt>
      <trkpt lat="44.53284" lon="0.68942">
        <ele>132.5</ele>
        <time>2014-7-5T11:5:12.000Z</time>
      </trkpt>
      <trkpt lat="44.53284" lon="0.68942">
        <ele>132.5</ele>
        <time>2014-7-5T11:5:12.000Z</time>
      </trkpt>
      <trkpt lat="44.53286" lon="0.68938">
        <ele>132.5</ele>
        <time>2014-7-5T11:5:12.000Z</time>
      </trkpt>
      <trkpt lat="44.53286" lon="0.68938">
        <ele>132.5</ele>
        <time>2014-7-5T11:5:12.000Z</time>
      </trkpt>
      <trkpt lat="44.53288" lon="0.68935">
        <ele>131.5</ele>
        <time>2014-7-5T11:5:12.000Z</time>
      </trkpt>
      <trkpt lat="44.53288" lon="0.68935">
        <ele>131.5</ele>
        <time>2014-7-5T11:5:12.000Z</time>
      </trkpt>
      <trkpt lat="44.53291" lon="0.68931">
        <ele>132.5</ele>
        <time>2014-7-5T11:5:12.000Z</time>
      </trkpt>
      <trkpt lat="44.53291" lon="0.68931">
        <ele>132.5</ele>
        <time>2014-7-5T11:5:12.000Z</time>
      </trkpt>
      <trkpt lat="44.53293" lon="0.68928">
        <ele>132.5</ele>
        <time>2014-7-5T11:5:12.000Z</time>
      </trkpt>
      <trkpt lat="44.53293" lon="0.68928">
        <ele>132.5</ele>
        <time>2014-7-5T11:5:12.000Z</time>
      </trkpt>
      <trkpt lat="44.53295" lon="0.68924">
        <ele>132.5</ele>
        <time>2014-7-5T11:5:12.000Z</time>
      </trkpt>
      <trkpt lat="44.53295" lon="0.68924">
        <ele>132.5</ele>
        <time>2014-7-5T11:5:12.000Z</time>
      </trkpt>
      <trkpt lat="44.53297" lon="0.6892">
        <ele>132.5</ele>
        <time>2014-7-5T11:5:12.000Z</time>
      </trkpt>
      <trkpt lat="44.53297" lon="0.6892">
        <ele>132.5</ele>
        <time>2014-7-5T11:5:12.000Z</time>
      </trkpt>
      <trkpt lat="44.53298" lon="0.68917">
        <ele>132.5</ele>
        <time>2014-7-5T11:5:12.000Z</time>
      </trkpt>
      <trkpt lat="44.53298" lon="0.68917">
        <ele>132.5</ele>
        <time>2014-7-5T11:5:12.000Z</time>
      </trkpt>
      <trkpt lat="44.533" lon="0.68913">
        <ele>132.5</ele>
        <time>2014-7-5T11:5:12.000Z</time>
      </trkpt>
      <trkpt lat="44.533" lon="0.68913">
        <ele>132.5</ele>
        <time>2014-7-5T11:5:12.000Z</time>
      </trkpt>
      <trkpt lat="44.53302" lon="0.6891">
        <ele>132.5</ele>
        <time>2014-7-5T11:5:12.000Z</time>
      </trkpt>
      <trkpt lat="44.53302" lon="0.6891">
        <ele>132.5</ele>
        <time>2014-7-5T11:5:12.000Z</time>
      </trkpt>
      <trkpt lat="44.53305" lon="0.68906">
        <ele>132.5</ele>
        <time>2014-7-5T11:5:12.000Z</time>
      </trkpt>
      <trkpt lat="44.53305" lon="0.68906">
        <ele>132.5</ele>
        <time>2014-7-5T11:5:12.000Z</time>
      </trkpt>
      <trkpt lat="44.53307" lon="0.68903">
        <ele>132.5</ele>
        <time>2014-7-5T11:5:12.000Z</time>
      </trkpt>
      <trkpt lat="44.53307" lon="0.68903">
        <ele>132.5</ele>
        <time>2014-7-5T11:5:12.000Z</time>
      </trkpt>
      <trkpt lat="44.5331" lon="0.68899">
        <ele>132.5</ele>
        <time>2014-7-5T11:5:12.000Z</time>
      </trkpt>
      <trkpt lat="44.5331" lon="0.68899">
        <ele>132.5</ele>
        <time>2014-7-5T11:5:12.000Z</time>
      </trkpt>
      <trkpt lat="44.53313" lon="0.68895">
        <ele>132.5</ele>
        <time>2014-7-5T11:5:12.000Z</time>
      </trkpt>
      <trkpt lat="44.53313" lon="0.68895">
        <ele>132.5</ele>
        <time>2014-7-5T11:5:12.000Z</time>
      </trkpt>
      <trkpt lat="44.53316" lon="0.68891">
        <ele>131.5</ele>
        <time>2014-7-5T11:5:12.000Z</time>
      </trkpt>
      <trkpt lat="44.53316" lon="0.68891">
        <ele>131.5</ele>
        <time>2014-7-5T11:5:12.000Z</time>
      </trkpt>
      <trkpt lat="44.53318" lon="0.68886">
        <ele>130.5</ele>
        <time>2014-7-5T11:5:12.000Z</time>
      </trkpt>
      <trkpt lat="44.53318" lon="0.68886">
        <ele>130.5</ele>
        <time>2014-7-5T11:5:12.000Z</time>
      </trkpt>
      <trkpt lat="44.53321" lon="0.68883">
        <ele>130.5</ele>
        <time>2014-7-5T11:5:12.000Z</time>
      </trkpt>
      <trkpt lat="44.53321" lon="0.68883">
        <ele>130.5</ele>
        <time>2014-7-5T11:5:12.000Z</time>
      </trkpt>
      <trkpt lat="44.53324" lon="0.68879">
        <ele>130.5</ele>
        <time>2014-7-5T11:5:12.000Z</time>
      </trkpt>
      <trkpt lat="44.53324" lon="0.68879">
        <ele>130.5</ele>
        <time>2014-7-5T11:5:12.000Z</time>
      </trkpt>
      <trkpt lat="44.53327" lon="0.68876">
        <ele>130.5</ele>
        <time>2014-7-5T11:5:12.000Z</time>
      </trkpt>
      <trkpt lat="44.53327" lon="0.68876">
        <ele>130.5</ele>
        <time>2014-7-5T11:5:12.000Z</time>
      </trkpt>
      <trkpt lat="44.53331" lon="0.68872">
        <ele>129.5</ele>
        <time>2014-7-5T11:5:12.000Z</time>
      </trkpt>
      <trkpt lat="44.53331" lon="0.68872">
        <ele>129.5</ele>
        <time>2014-7-5T11:5:12.000Z</time>
      </trkpt>
      <trkpt lat="44.53333" lon="0.68868">
        <ele>130.5</ele>
        <time>2014-7-5T11:5:12.000Z</time>
      </trkpt>
      <trkpt lat="44.53333" lon="0.68868">
        <ele>130.5</ele>
        <time>2014-7-5T11:5:12.000Z</time>
      </trkpt>
      <trkpt lat="44.53336" lon="0.68864">
        <ele>129.5</ele>
        <time>2014-7-5T11:5:12.000Z</time>
      </trkpt>
      <trkpt lat="44.53336" lon="0.68864">
        <ele>129.5</ele>
        <time>2014-7-5T11:5:12.000Z</time>
      </trkpt>
      <trkpt lat="44.53339" lon="0.68859">
        <ele>129.5</ele>
        <time>2014-7-5T11:5:12.000Z</time>
      </trkpt>
      <trkpt lat="44.53339" lon="0.68859">
        <ele>129.5</ele>
        <time>2014-7-5T11:5:12.000Z</time>
      </trkpt>
      <trkpt lat="44.53341" lon="0.68855">
        <ele>129.5</ele>
        <time>2014-7-5T11:5:12.000Z</time>
      </trkpt>
      <trkpt lat="44.53341" lon="0.68855">
        <ele>129.5</ele>
        <time>2014-7-5T11:5:12.000Z</time>
      </trkpt>
      <trkpt lat="44.53344" lon="0.6885">
        <ele>129.5</ele>
        <time>2014-7-5T11:5:12.000Z</time>
      </trkpt>
      <trkpt lat="44.53344" lon="0.6885">
        <ele>129.5</ele>
        <time>2014-7-5T11:5:12.000Z</time>
      </trkpt>
      <trkpt lat="44.53345" lon="0.68847">
        <ele>129.5</ele>
        <time>2014-7-5T11:5:12.000Z</time>
      </trkpt>
      <trkpt lat="44.53345" lon="0.68847">
        <ele>129.5</ele>
        <time>2014-7-5T11:5:12.000Z</time>
      </trkpt>
      <trkpt lat="44.53347" lon="0.68843">
        <ele>129.5</ele>
        <time>2014-7-5T11:5:12.000Z</time>
      </trkpt>
      <trkpt lat="44.53347" lon="0.68843">
        <ele>129.5</ele>
        <time>2014-7-5T11:5:12.000Z</time>
      </trkpt>
      <trkpt lat="44.53349" lon="0.68838">
        <ele>129.5</ele>
        <time>2014-7-5T11:5:12.000Z</time>
      </trkpt>
      <trkpt lat="44.53349" lon="0.68838">
        <ele>129.5</ele>
        <time>2014-7-5T11:5:12.000Z</time>
      </trkpt>
      <trkpt lat="44.53351" lon="0.68834">
        <ele>129.5</ele>
        <time>2014-7-5T11:5:12.000Z</time>
      </trkpt>
      <trkpt lat="44.53351" lon="0.68834">
        <ele>129.5</ele>
        <time>2014-7-5T11:5:12.000Z</time>
      </trkpt>
      <trkpt lat="44.53353" lon="0.6883">
        <ele>129.5</ele>
        <time>2014-7-5T11:5:12.000Z</time>
      </trkpt>
      <trkpt lat="44.53353" lon="0.6883">
        <ele>129.5</ele>
        <time>2014-7-5T11:5:12.000Z</time>
      </trkpt>
      <trkpt lat="44.53355" lon="0.68825">
        <ele>129.5</ele>
        <time>2014-7-5T11:5:12.000Z</time>
      </trkpt>
      <trkpt lat="44.53355" lon="0.68825">
        <ele>129.5</ele>
        <time>2014-7-5T11:5:12.000Z</time>
      </trkpt>
      <trkpt lat="44.53357" lon="0.68821">
        <ele>129.5</ele>
        <time>2014-7-5T11:5:12.000Z</time>
      </trkpt>
      <trkpt lat="44.53357" lon="0.68821">
        <ele>129.5</ele>
        <time>2014-7-5T11:5:12.000Z</time>
      </trkpt>
      <trkpt lat="44.53359" lon="0.68815">
        <ele>129.5</ele>
        <time>2014-7-5T11:5:12.000Z</time>
      </trkpt>
      <trkpt lat="44.53359" lon="0.68815">
        <ele>129.5</ele>
        <time>2014-7-5T11:5:12.000Z</time>
      </trkpt>
      <trkpt lat="44.5336" lon="0.68811">
        <ele>129.5</ele>
        <time>2014-7-5T11:5:12.000Z</time>
      </trkpt>
      <trkpt lat="44.5336" lon="0.68811">
        <ele>129.5</ele>
        <time>2014-7-5T11:5:12.000Z</time>
      </trkpt>
      <trkpt lat="44.53362" lon="0.68806">
        <ele>129.5</ele>
        <time>2014-7-5T11:5:12.000Z</time>
      </trkpt>
      <trkpt lat="44.53362" lon="0.68806">
        <ele>129.5</ele>
        <time>2014-7-5T11:5:12.000Z</time>
      </trkpt>
      <trkpt lat="44.53364" lon="0.68801">
        <ele>130.5</ele>
        <time>2014-7-5T11:5:12.000Z</time>
      </trkpt>
      <trkpt lat="44.53364" lon="0.68801">
        <ele>130.5</ele>
        <time>2014-7-5T11:5:12.000Z</time>
      </trkpt>
      <trkpt lat="44.53365" lon="0.68796">
        <ele>129.5</ele>
        <time>2014-7-5T11:5:12.000Z</time>
      </trkpt>
      <trkpt lat="44.53365" lon="0.68796">
        <ele>129.5</ele>
        <time>2014-7-5T11:5:12.000Z</time>
      </trkpt>
      <trkpt lat="44.53367" lon="0.6879">
        <ele>130.5</ele>
        <time>2014-7-5T11:5:12.000Z</time>
      </trkpt>
      <trkpt lat="44.53367" lon="0.6879">
        <ele>130.5</ele>
        <time>2014-7-5T11:5:12.000Z</time>
      </trkpt>
      <trkpt lat="44.53368" lon="0.68785">
        <ele>129.5</ele>
        <time>2014-7-5T11:5:12.000Z</time>
      </trkpt>
      <trkpt lat="44.53368" lon="0.68785">
        <ele>129.5</ele>
        <time>2014-7-5T11:5:12.000Z</time>
      </trkpt>
      <trkpt lat="44.53369" lon="0.68779">
        <ele>129.5</ele>
        <time>2014-7-5T11:5:12.000Z</time>
      </trkpt>
      <trkpt lat="44.53369" lon="0.68779">
        <ele>129.5</ele>
        <time>2014-7-5T11:5:12.000Z</time>
      </trkpt>
      <trkpt lat="44.53371" lon="0.68767">
        <ele>128.5</ele>
        <time>2014-7-5T11:5:12.000Z</time>
      </trkpt>
      <trkpt lat="44.53371" lon="0.68767">
        <ele>128.5</ele>
        <time>2014-7-5T11:5:12.000Z</time>
      </trkpt>
      <trkpt lat="44.53374" lon="0.68762">
        <ele>126.5</ele>
        <time>2014-7-5T11:5:12.000Z</time>
      </trkpt>
      <trkpt lat="44.53374" lon="0.68762">
        <ele>126.5</ele>
        <time>2014-7-5T11:5:12.000Z</time>
      </trkpt>
      <trkpt lat="44.53375" lon="0.68752">
        <ele>125.5</ele>
        <time>2014-7-5T11:5:12.000Z</time>
      </trkpt>
      <trkpt lat="44.53375" lon="0.68752">
        <ele>125.5</ele>
        <time>2014-7-5T11:5:12.000Z</time>
      </trkpt>
      <trkpt lat="44.53377" lon="0.68745">
        <ele>126.5</ele>
        <time>2014-7-5T11:5:12.000Z</time>
      </trkpt>
      <trkpt lat="44.53377" lon="0.68745">
        <ele>126.5</ele>
        <time>2014-7-5T11:5:12.000Z</time>
      </trkpt>
      <trkpt lat="44.53377" lon="0.6874">
        <ele>125.5</ele>
        <time>2014-7-5T11:5:12.000Z</time>
      </trkpt>
      <trkpt lat="44.53377" lon="0.6874">
        <ele>125.5</ele>
        <time>2014-7-5T11:5:12.000Z</time>
      </trkpt>
      <trkpt lat="44.53378" lon="0.68735">
        <ele>125.5</ele>
        <time>2014-7-5T11:6:1.000Z</time>
      </trkpt>
      <trkpt lat="44.53378" lon="0.68735">
        <ele>125.5</ele>
        <time>2014-7-5T11:6:1.000Z</time>
      </trkpt>
      <trkpt lat="44.53378" lon="0.6873">
        <ele>125.5</ele>
        <time>2014-7-5T11:6:1.000Z</time>
      </trkpt>
      <trkpt lat="44.53378" lon="0.6873">
        <ele>125.5</ele>
        <time>2014-7-5T11:6:1.000Z</time>
      </trkpt>
      <trkpt lat="44.53378" lon="0.68725">
        <ele>125.5</ele>
        <time>2014-7-5T11:6:1.000Z</time>
      </trkpt>
      <trkpt lat="44.53378" lon="0.68725">
        <ele>125.5</ele>
        <time>2014-7-5T11:6:1.000Z</time>
      </trkpt>
      <trkpt lat="44.5338" lon="0.68722">
        <ele>124.5</ele>
        <time>2014-7-5T11:6:1.000Z</time>
      </trkpt>
      <trkpt lat="44.5338" lon="0.68722">
        <ele>124.5</ele>
        <time>2014-7-5T11:6:1.000Z</time>
      </trkpt>
      <trkpt lat="44.53383" lon="0.6872">
        <ele>123.5</ele>
        <time>2014-7-5T11:6:1.000Z</time>
      </trkpt>
      <trkpt lat="44.53383" lon="0.6872">
        <ele>123.5</ele>
        <time>2014-7-5T11:6:1.000Z</time>
      </trkpt>
      <trkpt lat="44.53386" lon="0.68717">
        <ele>124.5</ele>
        <time>2014-7-5T11:6:1.000Z</time>
      </trkpt>
      <trkpt lat="44.53386" lon="0.68717">
        <ele>124.5</ele>
        <time>2014-7-5T11:6:1.000Z</time>
      </trkpt>
      <trkpt lat="44.53389" lon="0.68712">
        <ele>124.5</ele>
        <time>2014-7-5T11:6:1.000Z</time>
      </trkpt>
      <trkpt lat="44.53389" lon="0.68712">
        <ele>124.5</ele>
        <time>2014-7-5T11:6:1.000Z</time>
      </trkpt>
      <trkpt lat="44.53392" lon="0.6871">
        <ele>124.5</ele>
        <time>2014-7-5T11:6:1.000Z</time>
      </trkpt>
      <trkpt lat="44.53392" lon="0.6871">
        <ele>124.5</ele>
        <time>2014-7-5T11:6:1.000Z</time>
      </trkpt>
      <trkpt lat="44.53396" lon="0.68706">
        <ele>124.5</ele>
        <time>2014-7-5T11:6:1.000Z</time>
      </trkpt>
      <trkpt lat="44.53396" lon="0.68706">
        <ele>124.5</ele>
        <time>2014-7-5T11:6:1.000Z</time>
      </trkpt>
      <trkpt lat="44.534" lon="0.68704">
        <ele>124.5</ele>
        <time>2014-7-5T11:6:1.000Z</time>
      </trkpt>
      <trkpt lat="44.534" lon="0.68704">
        <ele>124.5</ele>
        <time>2014-7-5T11:6:1.000Z</time>
      </trkpt>
      <trkpt lat="44.53403" lon="0.687">
        <ele>124.5</ele>
        <time>2014-7-5T11:6:1.000Z</time>
      </trkpt>
      <trkpt lat="44.53403" lon="0.687">
        <ele>124.5</ele>
        <time>2014-7-5T11:6:1.000Z</time>
      </trkpt>
      <trkpt lat="44.53409" lon="0.68697">
        <ele>124.5</ele>
        <time>2014-7-5T11:6:1.000Z</time>
      </trkpt>
      <trkpt lat="44.53409" lon="0.68697">
        <ele>124.5</ele>
        <time>2014-7-5T11:6:1.000Z</time>
      </trkpt>
      <trkpt lat="44.53413" lon="0.68694">
        <ele>124.5</ele>
        <time>2014-7-5T11:6:1.000Z</time>
      </trkpt>
      <trkpt lat="44.53413" lon="0.68694">
        <ele>124.5</ele>
        <time>2014-7-5T11:6:1.000Z</time>
      </trkpt>
      <trkpt lat="44.53418" lon="0.68691">
        <ele>124.5</ele>
        <time>2014-7-5T11:6:1.000Z</time>
      </trkpt>
      <trkpt lat="44.53418" lon="0.68691">
        <ele>124.5</ele>
        <time>2014-7-5T11:6:1.000Z</time>
      </trkpt>
      <trkpt lat="44.53423" lon="0.68687">
        <ele>124.5</ele>
        <time>2014-7-5T11:6:1.000Z</time>
      </trkpt>
      <trkpt lat="44.53423" lon="0.68687">
        <ele>124.5</ele>
        <time>2014-7-5T11:6:1.000Z</time>
      </trkpt>
      <trkpt lat="44.53427" lon="0.68683">
        <ele>124.5</ele>
        <time>2014-7-5T11:6:1.000Z</time>
      </trkpt>
      <trkpt lat="44.53427" lon="0.68683">
        <ele>124.5</ele>
        <time>2014-7-5T11:6:1.000Z</time>
      </trkpt>
      <trkpt lat="44.53432" lon="0.68678">
        <ele>123.5</ele>
        <time>2014-7-5T11:6:1.000Z</time>
      </trkpt>
      <trkpt lat="44.53432" lon="0.68678">
        <ele>123.5</ele>
        <time>2014-7-5T11:6:1.000Z</time>
      </trkpt>
      <trkpt lat="44.53436" lon="0.68672">
        <ele>123.5</ele>
        <time>2014-7-5T11:6:1.000Z</time>
      </trkpt>
      <trkpt lat="44.53436" lon="0.68672">
        <ele>123.5</ele>
        <time>2014-7-5T11:6:1.000Z</time>
      </trkpt>
      <trkpt lat="44.53442" lon="0.68667">
        <ele>123.5</ele>
        <time>2014-7-5T11:6:1.000Z</time>
      </trkpt>
      <trkpt lat="44.53442" lon="0.68667">
        <ele>123.5</ele>
        <time>2014-7-5T11:6:1.000Z</time>
      </trkpt>
      <trkpt lat="44.53446" lon="0.68661">
        <ele>123.5</ele>
        <time>2014-7-5T11:6:1.000Z</time>
      </trkpt>
      <trkpt lat="44.53446" lon="0.68661">
        <ele>123.5</ele>
        <time>2014-7-5T11:6:1.000Z</time>
      </trkpt>
      <trkpt lat="44.5345" lon="0.68658">
        <ele>122.5</ele>
        <time>2014-7-5T11:6:1.000Z</time>
      </trkpt>
      <trkpt lat="44.5345" lon="0.68658">
        <ele>122.5</ele>
        <time>2014-7-5T11:6:1.000Z</time>
      </trkpt>
      <trkpt lat="44.53458" lon="0.68652">
        <ele>122.5</ele>
        <time>2014-7-5T11:6:1.000Z</time>
      </trkpt>
      <trkpt lat="44.53458" lon="0.68652">
        <ele>122.5</ele>
        <time>2014-7-5T11:6:1.000Z</time>
      </trkpt>
      <trkpt lat="44.53461" lon="0.68648">
        <ele>122.5</ele>
        <time>2014-7-5T11:6:1.000Z</time>
      </trkpt>
      <trkpt lat="44.53461" lon="0.68648">
        <ele>122.5</ele>
        <time>2014-7-5T11:6:1.000Z</time>
      </trkpt>
      <trkpt lat="44.53464" lon="0.68644">
        <ele>122.5</ele>
        <time>2014-7-5T11:6:1.000Z</time>
      </trkpt>
      <trkpt lat="44.53464" lon="0.68644">
        <ele>122.5</ele>
        <time>2014-7-5T11:6:1.000Z</time>
      </trkpt>
      <trkpt lat="44.53468" lon="0.68642">
        <ele>122.5</ele>
        <time>2014-7-5T11:6:1.000Z</time>
      </trkpt>
      <trkpt lat="44.53468" lon="0.68642">
        <ele>122.5</ele>
        <time>2014-7-5T11:6:1.000Z</time>
      </trkpt>
      <trkpt lat="44.53471" lon="0.68638">
        <ele>122.5</ele>
        <time>2014-7-5T11:6:1.000Z</time>
      </trkpt>
      <trkpt lat="44.53471" lon="0.68638">
        <ele>122.5</ele>
        <time>2014-7-5T11:6:1.000Z</time>
      </trkpt>
      <trkpt lat="44.53475" lon="0.68634">
        <ele>121.5</ele>
        <time>2014-7-5T11:6:1.000Z</time>
      </trkpt>
      <trkpt lat="44.53475" lon="0.68634">
        <ele>121.5</ele>
        <time>2014-7-5T11:6:1.000Z</time>
      </trkpt>
      <trkpt lat="44.53479" lon="0.6863">
        <ele>121.5</ele>
        <time>2014-7-5T11:6:1.000Z</time>
      </trkpt>
      <trkpt lat="44.53479" lon="0.6863">
        <ele>121.5</ele>
        <time>2014-7-5T11:6:1.000Z</time>
      </trkpt>
      <trkpt lat="44.53483" lon="0.68626">
        <ele>120.5</ele>
        <time>2014-7-5T11:6:1.000Z</time>
      </trkpt>
      <trkpt lat="44.53483" lon="0.68626">
        <ele>120.5</ele>
        <time>2014-7-5T11:6:1.000Z</time>
      </trkpt>
      <trkpt lat="44.53488" lon="0.68622">
        <ele>121.5</ele>
        <time>2014-7-5T11:6:1.000Z</time>
      </trkpt>
      <trkpt lat="44.53488" lon="0.68622">
        <ele>121.5</ele>
        <time>2014-7-5T11:6:1.000Z</time>
      </trkpt>
      <trkpt lat="44.53492" lon="0.68619">
        <ele>121.5</ele>
        <time>2014-7-5T11:6:1.000Z</time>
      </trkpt>
      <trkpt lat="44.53492" lon="0.68619">
        <ele>121.5</ele>
        <time>2014-7-5T11:6:1.000Z</time>
      </trkpt>
      <trkpt lat="44.53495" lon="0.68616">
        <ele>121.5</ele>
        <time>2014-7-5T11:6:1.000Z</time>
      </trkpt>
      <trkpt lat="44.53495" lon="0.68616">
        <ele>121.5</ele>
        <time>2014-7-5T11:6:1.000Z</time>
      </trkpt>
      <trkpt lat="44.53499" lon="0.68612">
        <ele>121.5</ele>
        <time>2014-7-5T11:6:1.000Z</time>
      </trkpt>
      <trkpt lat="44.53499" lon="0.68612">
        <ele>121.5</ele>
        <time>2014-7-5T11:6:1.000Z</time>
      </trkpt>
      <trkpt lat="44.53502" lon="0.68608">
        <ele>122.5</ele>
        <time>2014-7-5T11:6:1.000Z</time>
      </trkpt>
      <trkpt lat="44.53502" lon="0.68608">
        <ele>122.5</ele>
        <time>2014-7-5T11:6:1.000Z</time>
      </trkpt>
      <trkpt lat="44.53505" lon="0.68604">
        <ele>122.5</ele>
        <time>2014-7-5T11:6:1.000Z</time>
      </trkpt>
      <trkpt lat="44.53505" lon="0.68604">
        <ele>122.5</ele>
        <time>2014-7-5T11:6:1.000Z</time>
      </trkpt>
      <trkpt lat="44.53508" lon="0.68601">
        <ele>121.5</ele>
        <time>2014-7-5T11:6:1.000Z</time>
      </trkpt>
      <trkpt lat="44.53508" lon="0.68601">
        <ele>121.5</ele>
        <time>2014-7-5T11:6:1.000Z</time>
      </trkpt>
      <trkpt lat="44.53511" lon="0.68598">
        <ele>121.5</ele>
        <time>2014-7-5T11:6:1.000Z</time>
      </trkpt>
      <trkpt lat="44.53511" lon="0.68598">
        <ele>121.5</ele>
        <time>2014-7-5T11:6:1.000Z</time>
      </trkpt>
      <trkpt lat="44.53514" lon="0.68595">
        <ele>121.5</ele>
        <time>2014-7-5T11:6:1.000Z</time>
      </trkpt>
      <trkpt lat="44.53514" lon="0.68595">
        <ele>121.5</ele>
        <time>2014-7-5T11:6:1.000Z</time>
      </trkpt>
      <trkpt lat="44.53517" lon="0.68593">
        <ele>120.5</ele>
        <time>2014-7-5T11:6:1.000Z</time>
      </trkpt>
      <trkpt lat="44.53517" lon="0.68593">
        <ele>120.5</ele>
        <time>2014-7-5T11:6:1.000Z</time>
      </trkpt>
      <trkpt lat="44.5352" lon="0.6859">
        <ele>121.5</ele>
        <time>2014-7-5T11:6:1.000Z</time>
      </trkpt>
      <trkpt lat="44.5352" lon="0.6859">
        <ele>121.5</ele>
        <time>2014-7-5T11:6:1.000Z</time>
      </trkpt>
      <trkpt lat="44.53522" lon="0.68587">
        <ele>121.5</ele>
        <time>2014-7-5T11:6:1.000Z</time>
      </trkpt>
      <trkpt lat="44.53522" lon="0.68587">
        <ele>121.5</ele>
        <time>2014-7-5T11:6:1.000Z</time>
      </trkpt>
      <trkpt lat="44.53524" lon="0.68584">
        <ele>120.5</ele>
        <time>2014-7-5T11:6:1.000Z</time>
      </trkpt>
      <trkpt lat="44.53524" lon="0.68584">
        <ele>120.5</ele>
        <time>2014-7-5T11:6:1.000Z</time>
      </trkpt>
      <trkpt lat="44.53527" lon="0.68581">
        <ele>120.5</ele>
        <time>2014-7-5T11:6:1.000Z</time>
      </trkpt>
      <trkpt lat="44.53527" lon="0.68581">
        <ele>120.5</ele>
        <time>2014-7-5T11:6:1.000Z</time>
      </trkpt>
      <trkpt lat="44.53529" lon="0.68577">
        <ele>120.5</ele>
        <time>2014-7-5T11:6:1.000Z</time>
      </trkpt>
      <trkpt lat="44.53529" lon="0.68577">
        <ele>120.5</ele>
        <time>2014-7-5T11:6:1.000Z</time>
      </trkpt>
      <trkpt lat="44.53531" lon="0.68575">
        <ele>120.5</ele>
        <time>2014-7-5T11:6:1.000Z</time>
      </trkpt>
      <trkpt lat="44.53531" lon="0.68575">
        <ele>120.5</ele>
        <time>2014-7-5T11:6:1.000Z</time>
      </trkpt>
      <trkpt lat="44.53533" lon="0.68572">
        <ele>120.5</ele>
        <time>2014-7-5T11:6:1.000Z</time>
      </trkpt>
      <trkpt lat="44.53533" lon="0.68572">
        <ele>120.5</ele>
        <time>2014-7-5T11:6:1.000Z</time>
      </trkpt>
      <trkpt lat="44.53535" lon="0.6857">
        <ele>120.5</ele>
        <time>2014-7-5T11:6:1.000Z</time>
      </trkpt>
      <trkpt lat="44.53535" lon="0.6857">
        <ele>120.5</ele>
        <time>2014-7-5T11:6:1.000Z</time>
      </trkpt>
      <trkpt lat="44.53537" lon="0.68567">
        <ele>120.5</ele>
        <time>2014-7-5T11:6:1.000Z</time>
      </trkpt>
      <trkpt lat="44.53537" lon="0.68567">
        <ele>120.5</ele>
        <time>2014-7-5T11:6:1.000Z</time>
      </trkpt>
      <trkpt lat="44.53539" lon="0.68565">
        <ele>120.5</ele>
        <time>2014-7-5T11:6:1.000Z</time>
      </trkpt>
      <trkpt lat="44.53539" lon="0.68565">
        <ele>120.5</ele>
        <time>2014-7-5T11:6:1.000Z</time>
      </trkpt>
      <trkpt lat="44.53542" lon="0.68563">
        <ele>120.5</ele>
        <time>2014-7-5T11:6:1.000Z</time>
      </trkpt>
      <trkpt lat="44.53542" lon="0.68563">
        <ele>120.5</ele>
        <time>2014-7-5T11:6:1.000Z</time>
      </trkpt>
      <trkpt lat="44.53544" lon="0.68562">
        <ele>120.5</ele>
        <time>2014-7-5T11:6:1.000Z</time>
      </trkpt>
      <trkpt lat="44.53544" lon="0.68562">
        <ele>120.5</ele>
        <time>2014-7-5T11:6:56.000Z</time>
      </trkpt>
      <trkpt lat="44.53547" lon="0.6856">
        <ele>120.5</ele>
        <time>2014-7-5T11:6:56.000Z</time>
      </trkpt>
      <trkpt lat="44.53547" lon="0.6856">
        <ele>120.5</ele>
        <time>2014-7-5T11:6:56.000Z</time>
      </trkpt>
      <trkpt lat="44.53549" lon="0.68558">
        <ele>120.5</ele>
        <time>2014-7-5T11:6:56.000Z</time>
      </trkpt>
      <trkpt lat="44.53549" lon="0.68558">
        <ele>120.5</ele>
        <time>2014-7-5T11:6:56.000Z</time>
      </trkpt>
      <trkpt lat="44.53551" lon="0.68555">
        <ele>120.5</ele>
        <time>2014-7-5T11:6:56.000Z</time>
      </trkpt>
      <trkpt lat="44.53551" lon="0.68555">
        <ele>120.5</ele>
        <time>2014-7-5T11:6:56.000Z</time>
      </trkpt>
      <trkpt lat="44.53553" lon="0.68554">
        <ele>120.5</ele>
        <time>2014-7-5T11:6:56.000Z</time>
      </trkpt>
      <trkpt lat="44.53553" lon="0.68554">
        <ele>120.5</ele>
        <time>2014-7-5T11:6:56.000Z</time>
      </trkpt>
      <trkpt lat="44.53556" lon="0.68554">
        <ele>120.5</ele>
        <time>2014-7-5T11:6:56.000Z</time>
      </trkpt>
      <trkpt lat="44.53556" lon="0.68554">
        <ele>120.5</ele>
        <time>2014-7-5T11:6:56.000Z</time>
      </trkpt>
      <trkpt lat="44.53558" lon="0.68557">
        <ele>120.5</ele>
        <time>2014-7-5T11:6:56.000Z</time>
      </trkpt>
      <trkpt lat="44.53558" lon="0.68557">
        <ele>120.5</ele>
        <time>2014-7-5T11:6:56.000Z</time>
      </trkpt>
      <trkpt lat="44.53555" lon="0.68561">
        <ele>120.5</ele>
        <time>2014-7-5T11:6:56.000Z</time>
      </trkpt>
      <trkpt lat="44.53555" lon="0.68561">
        <ele>120.5</ele>
        <time>2014-7-5T11:6:56.000Z</time>
      </trkpt>
      <trkpt lat="44.53552" lon="0.68562">
        <ele>121.5</ele>
        <time>2014-7-5T11:6:56.000Z</time>
      </trkpt>
      <trkpt lat="44.53552" lon="0.68562">
        <ele>121.5</ele>
        <time>2014-7-5T11:6:56.000Z</time>
      </trkpt>
      <trkpt lat="44.53548" lon="0.68563">
        <ele>121.5</ele>
        <time>2014-7-5T11:6:56.000Z</time>
      </trkpt>
      <trkpt lat="44.53548" lon="0.68563">
        <ele>121.5</ele>
        <time>2014-7-5T11:6:56.000Z</time>
      </trkpt>
      <trkpt lat="44.53544" lon="0.68565">
        <ele>121.5</ele>
        <time>2014-7-5T11:6:56.000Z</time>
      </trkpt>
      <trkpt lat="44.53544" lon="0.68565">
        <ele>121.5</ele>
        <time>2014-7-5T11:6:56.000Z</time>
      </trkpt>
      <trkpt lat="44.5354" lon="0.68566">
        <ele>121.5</ele>
        <time>2014-7-5T11:6:56.000Z</time>
      </trkpt>
      <trkpt lat="44.5354" lon="0.68566">
        <ele>121.5</ele>
        <time>2014-7-5T11:6:56.000Z</time>
      </trkpt>
      <trkpt lat="44.53537" lon="0.68568">
        <ele>121.5</ele>
        <time>2014-7-5T11:6:56.000Z</time>
      </trkpt>
      <trkpt lat="44.53537" lon="0.68568">
        <ele>121.5</ele>
        <time>2014-7-5T11:6:56.000Z</time>
      </trkpt>
      <trkpt lat="44.53533" lon="0.68572">
        <ele>122.5</ele>
        <time>2014-7-5T11:6:56.000Z</time>
      </trkpt>
      <trkpt lat="44.53533" lon="0.68572">
        <ele>122.5</ele>
        <time>2014-7-5T11:6:56.000Z</time>
      </trkpt>
      <trkpt lat="44.53531" lon="0.68575">
        <ele>122.5</ele>
        <time>2014-7-5T11:6:56.000Z</time>
      </trkpt>
      <trkpt lat="44.53531" lon="0.68575">
        <ele>122.5</ele>
        <time>2014-7-5T11:6:56.000Z</time>
      </trkpt>
      <trkpt lat="44.53528" lon="0.68578">
        <ele>122.5</ele>
        <time>2014-7-5T11:6:56.000Z</time>
      </trkpt>
      <trkpt lat="44.53528" lon="0.68578">
        <ele>122.5</ele>
        <time>2014-7-5T11:6:56.000Z</time>
      </trkpt>
      <trkpt lat="44.53526" lon="0.68582">
        <ele>121.5</ele>
        <time>2014-7-5T11:6:56.000Z</time>
      </trkpt>
      <trkpt lat="44.53526" lon="0.68582">
        <ele>121.5</ele>
        <time>2014-7-5T11:6:56.000Z</time>
      </trkpt>
      <trkpt lat="44.53524" lon="0.68585">
        <ele>121.5</ele>
        <time>2014-7-5T11:6:56.000Z</time>
      </trkpt>
      <trkpt lat="44.53524" lon="0.68585">
        <ele>121.5</ele>
        <time>2014-7-5T11:6:56.000Z</time>
      </trkpt>
      <trkpt lat="44.53522" lon="0.68587">
        <ele>121.5</ele>
        <time>2014-7-5T11:6:56.000Z</time>
      </trkpt>
      <trkpt lat="44.53522" lon="0.68587">
        <ele>121.5</ele>
        <time>2014-7-5T11:6:56.000Z</time>
      </trkpt>
      <trkpt lat="44.5352" lon="0.6859">
        <ele>121.5</ele>
        <time>2014-7-5T11:6:56.000Z</time>
      </trkpt>
      <trkpt lat="44.5352" lon="0.6859">
        <ele>121.5</ele>
        <time>2014-7-5T11:6:56.000Z</time>
      </trkpt>
      <trkpt lat="44.53518" lon="0.68592">
        <ele>120.5</ele>
        <time>2014-7-5T11:6:56.000Z</time>
      </trkpt>
      <trkpt lat="44.53518" lon="0.68592">
        <ele>120.5</ele>
        <time>2014-7-5T11:6:56.000Z</time>
      </trkpt>
      <trkpt lat="44.53515" lon="0.68595">
        <ele>120.5</ele>
        <time>2014-7-5T11:6:56.000Z</time>
      </trkpt>
      <trkpt lat="44.53515" lon="0.68595">
        <ele>120.5</ele>
        <time>2014-7-5T11:6:56.000Z</time>
      </trkpt>
      <trkpt lat="44.53513" lon="0.68597">
        <ele>120.5</ele>
        <time>2014-7-5T11:6:56.000Z</time>
      </trkpt>
      <trkpt lat="44.53513" lon="0.68597">
        <ele>120.5</ele>
        <time>2014-7-5T11:6:56.000Z</time>
      </trkpt>
      <trkpt lat="44.53511" lon="0.68599">
        <ele>120.5</ele>
        <time>2014-7-5T11:6:56.000Z</time>
      </trkpt>
      <trkpt lat="44.53511" lon="0.68599">
        <ele>120.5</ele>
        <time>2014-7-5T11:6:56.000Z</time>
      </trkpt>
      <trkpt lat="44.53508" lon="0.68601">
        <ele>120.5</ele>
        <time>2014-7-5T11:6:56.000Z</time>
      </trkpt>
      <trkpt lat="44.53508" lon="0.68601">
        <ele>120.5</ele>
        <time>2014-7-5T11:6:56.000Z</time>
      </trkpt>
      <trkpt lat="44.53506" lon="0.68603">
        <ele>121.5</ele>
        <time>2014-7-5T11:6:56.000Z</time>
      </trkpt>
      <trkpt lat="44.53506" lon="0.68603">
        <ele>121.5</ele>
        <time>2014-7-5T11:6:56.000Z</time>
      </trkpt>
      <trkpt lat="44.53504" lon="0.68605">
        <ele>121.5</ele>
        <time>2014-7-5T11:6:56.000Z</time>
      </trkpt>
      <trkpt lat="44.53504" lon="0.68605">
        <ele>121.5</ele>
        <time>2014-7-5T11:6:56.000Z</time>
      </trkpt>
      <trkpt lat="44.53501" lon="0.68607">
        <ele>121.5</ele>
        <time>2014-7-5T11:6:56.000Z</time>
      </trkpt>
      <trkpt lat="44.53501" lon="0.68607">
        <ele>121.5</ele>
        <time>2014-7-5T11:6:56.000Z</time>
      </trkpt>
      <trkpt lat="44.53499" lon="0.68609">
        <ele>121.5</ele>
        <time>2014-7-5T11:6:56.000Z</time>
      </trkpt>
      <trkpt lat="44.53499" lon="0.68609">
        <ele>121.5</ele>
        <time>2014-7-5T11:6:56.000Z</time>
      </trkpt>
      <trkpt lat="44.53497" lon="0.6861">
        <ele>121.5</ele>
        <time>2014-7-5T11:6:56.000Z</time>
      </trkpt>
      <trkpt lat="44.53497" lon="0.6861">
        <ele>121.5</ele>
        <time>2014-7-5T11:6:56.000Z</time>
      </trkpt>
      <trkpt lat="44.53494" lon="0.68612">
        <ele>120.5</ele>
        <time>2014-7-5T11:6:56.000Z</time>
      </trkpt>
      <trkpt lat="44.53494" lon="0.68612">
        <ele>120.5</ele>
        <time>2014-7-5T11:6:56.000Z</time>
      </trkpt>
      <trkpt lat="44.53492" lon="0.68615">
        <ele>120.5</ele>
        <time>2014-7-5T11:6:56.000Z</time>
      </trkpt>
      <trkpt lat="44.53492" lon="0.68615">
        <ele>120.5</ele>
        <time>2014-7-5T11:6:56.000Z</time>
      </trkpt>
      <trkpt lat="44.5349" lon="0.68618">
        <ele>120.5</ele>
        <time>2014-7-5T11:6:56.000Z</time>
      </trkpt>
      <trkpt lat="44.5349" lon="0.68618">
        <ele>120.5</ele>
        <time>2014-7-5T11:6:56.000Z</time>
      </trkpt>
      <trkpt lat="44.53487" lon="0.6862">
        <ele>119.5</ele>
        <time>2014-7-5T11:6:56.000Z</time>
      </trkpt>
      <trkpt lat="44.53487" lon="0.6862">
        <ele>119.5</ele>
        <time>2014-7-5T11:6:56.000Z</time>
      </trkpt>
      <trkpt lat="44.53483" lon="0.68623">
        <ele>120.5</ele>
        <time>2014-7-5T11:6:56.000Z</time>
      </trkpt>
      <trkpt lat="44.53483" lon="0.68623">
        <ele>120.5</ele>
        <time>2014-7-5T11:6:56.000Z</time>
      </trkpt>
      <trkpt lat="44.53481" lon="0.68626">
        <ele>120.5</ele>
        <time>2014-7-5T11:6:56.000Z</time>
      </trkpt>
      <trkpt lat="44.53481" lon="0.68626">
        <ele>120.5</ele>
        <time>2014-7-5T11:6:56.000Z</time>
      </trkpt>
      <trkpt lat="44.53478" lon="0.68628">
        <ele>120.5</ele>
        <time>2014-7-5T11:6:56.000Z</time>
      </trkpt>
      <trkpt lat="44.53478" lon="0.68628">
        <ele>120.5</ele>
        <time>2014-7-5T11:6:56.000Z</time>
      </trkpt>
      <trkpt lat="44.53475" lon="0.68631">
        <ele>120.5</ele>
        <time>2014-7-5T11:6:56.000Z</time>
      </trkpt>
      <trkpt lat="44.53475" lon="0.68631">
        <ele>120.5</ele>
        <time>2014-7-5T11:6:56.000Z</time>
      </trkpt>
      <trkpt lat="44.53474" lon="0.68633">
        <ele>120.5</ele>
        <time>2014-7-5T11:6:56.000Z</time>
      </trkpt>
      <trkpt lat="44.53474" lon="0.68633">
        <ele>120.5</ele>
        <time>2014-7-5T11:6:56.000Z</time>
      </trkpt>
      <trkpt lat="44.53472" lon="0.68635">
        <ele>120.5</ele>
        <time>2014-7-5T11:6:56.000Z</time>
      </trkpt>
      <trkpt lat="44.53472" lon="0.68635">
        <ele>120.5</ele>
        <time>2014-7-5T11:6:56.000Z</time>
      </trkpt>
      <trkpt lat="44.53471" lon="0.68638">
        <ele>120.5</ele>
        <time>2014-7-5T11:6:56.000Z</time>
      </trkpt>
      <trkpt lat="44.53471" lon="0.68638">
        <ele>120.5</ele>
        <time>2014-7-5T11:6:56.000Z</time>
      </trkpt>
      <trkpt lat="44.53469" lon="0.6864">
        <ele>120.5</ele>
        <time>2014-7-5T11:6:56.000Z</time>
      </trkpt>
      <trkpt lat="44.53469" lon="0.6864">
        <ele>120.5</ele>
        <time>2014-7-5T11:6:56.000Z</time>
      </trkpt>
      <trkpt lat="44.53467" lon="0.68642">
        <ele>120.5</ele>
        <time>2014-7-5T11:6:56.000Z</time>
      </trkpt>
      <trkpt lat="44.53467" lon="0.68642">
        <ele>120.5</ele>
        <time>2014-7-5T11:6:56.000Z</time>
      </trkpt>
      <trkpt lat="44.53465" lon="0.68643">
        <ele>120.5</ele>
        <time>2014-7-5T11:6:56.000Z</time>
      </trkpt>
      <trkpt lat="44.53465" lon="0.68643">
        <ele>120.5</ele>
        <time>2014-7-5T11:6:56.000Z</time>
      </trkpt>
      <trkpt lat="44.53463" lon="0.68645">
        <ele>120.5</ele>
        <time>2014-7-5T11:6:56.000Z</time>
      </trkpt>
      <trkpt lat="44.53463" lon="0.68645">
        <ele>120.5</ele>
        <time>2014-7-5T11:6:56.000Z</time>
      </trkpt>
      <trkpt lat="44.53462" lon="0.68646">
        <ele>120.5</ele>
        <time>2014-7-5T11:6:56.000Z</time>
      </trkpt>
      <trkpt lat="44.53462" lon="0.68646">
        <ele>120.5</ele>
        <time>2014-7-5T11:6:56.000Z</time>
      </trkpt>
      <trkpt lat="44.5346" lon="0.68648">
        <ele>121.5</ele>
        <time>2014-7-5T11:6:56.000Z</time>
      </trkpt>
      <trkpt lat="44.5346" lon="0.68648">
        <ele>121.5</ele>
        <time>2014-7-5T11:6:56.000Z</time>
      </trkpt>
      <trkpt lat="44.53459" lon="0.6865">
        <ele>120.5</ele>
        <time>2014-7-5T11:6:56.000Z</time>
      </trkpt>
      <trkpt lat="44.53459" lon="0.6865">
        <ele>120.5</ele>
        <time>2014-7-5T11:6:56.000Z</time>
      </trkpt>
      <trkpt lat="44.53457" lon="0.68651">
        <ele>120.5</ele>
        <time>2014-7-5T11:6:56.000Z</time>
      </trkpt>
      <trkpt lat="44.53457" lon="0.68651">
        <ele>120.5</ele>
        <time>2014-7-5T11:6:56.000Z</time>
      </trkpt>
      <trkpt lat="44.53454" lon="0.68654">
        <ele>121.5</ele>
        <time>2014-7-5T11:6:56.000Z</time>
      </trkpt>
      <trkpt lat="44.53454" lon="0.68654">
        <ele>121.5</ele>
        <time>2014-7-5T11:6:56.000Z</time>
      </trkpt>
      <trkpt lat="44.53451" lon="0.68656">
        <ele>121.5</ele>
        <time>2014-7-5T11:6:56.000Z</time>
      </trkpt>
      <trkpt lat="44.53451" lon="0.68656">
        <ele>121.5</ele>
        <time>2014-7-5T11:6:56.000Z</time>
      </trkpt>
      <trkpt lat="44.53449" lon="0.68658">
        <ele>121.5</ele>
        <time>2014-7-5T11:7:52.000Z</time>
      </trkpt>
      <trkpt lat="44.53449" lon="0.68658">
        <ele>121.5</ele>
        <time>2014-7-5T11:7:52.000Z</time>
      </trkpt>
      <trkpt lat="44.53446" lon="0.68661">
        <ele>121.5</ele>
        <time>2014-7-5T11:7:52.000Z</time>
      </trkpt>
      <trkpt lat="44.53446" lon="0.68661">
        <ele>121.5</ele>
        <time>2014-7-5T11:7:52.000Z</time>
      </trkpt>
      <trkpt lat="44.53445" lon="0.68662">
        <ele>121.5</ele>
        <time>2014-7-5T11:7:52.000Z</time>
      </trkpt>
      <trkpt lat="44.53445" lon="0.68662">
        <ele>121.5</ele>
        <time>2014-7-5T11:7:52.000Z</time>
      </trkpt>
      <trkpt lat="44.53442" lon="0.68664">
        <ele>121.5</ele>
        <time>2014-7-5T11:7:52.000Z</time>
      </trkpt>
      <trkpt lat="44.53442" lon="0.68664">
        <ele>121.5</ele>
        <time>2014-7-5T11:7:52.000Z</time>
      </trkpt>
      <trkpt lat="44.53441" lon="0.68668">
        <ele>121.5</ele>
        <time>2014-7-5T11:7:52.000Z</time>
      </trkpt>
      <trkpt lat="44.53441" lon="0.68668">
        <ele>121.5</ele>
        <time>2014-7-5T11:7:52.000Z</time>
      </trkpt>
      <trkpt lat="44.53442" lon="0.68674">
        <ele>121.5</ele>
        <time>2014-7-5T11:7:52.000Z</time>
      </trkpt>
      <trkpt lat="44.53442" lon="0.68674">
        <ele>121.5</ele>
        <time>2014-7-5T11:7:52.000Z</time>
      </trkpt>
      <trkpt lat="44.53446" lon="0.68678">
        <ele>120.5</ele>
        <time>2014-7-5T11:7:52.000Z</time>
      </trkpt>
      <trkpt lat="44.53446" lon="0.68678">
        <ele>120.5</ele>
        <time>2014-7-5T11:7:52.000Z</time>
      </trkpt>
      <trkpt lat="44.53451" lon="0.68681">
        <ele>120.5</ele>
        <time>2014-7-5T11:7:52.000Z</time>
      </trkpt>
      <trkpt lat="44.53451" lon="0.68681">
        <ele>120.5</ele>
        <time>2014-7-5T11:7:52.000Z</time>
      </trkpt>
      <trkpt lat="44.53459" lon="0.68686">
        <ele>119.5</ele>
        <time>2014-7-5T11:7:52.000Z</time>
      </trkpt>
      <trkpt lat="44.53459" lon="0.68686">
        <ele>119.5</ele>
        <time>2014-7-5T11:7:52.000Z</time>
      </trkpt>
      <trkpt lat="44.53464" lon="0.68691">
        <ele>119.5</ele>
        <time>2014-7-5T11:7:52.000Z</time>
      </trkpt>
      <trkpt lat="44.53464" lon="0.68691">
        <ele>119.5</ele>
        <time>2014-7-5T11:7:52.000Z</time>
      </trkpt>
      <trkpt lat="44.53469" lon="0.68699">
        <ele>119.5</ele>
        <time>2014-7-5T11:7:52.000Z</time>
      </trkpt>
      <trkpt lat="44.53469" lon="0.68699">
        <ele>119.5</ele>
        <time>2014-7-5T11:7:52.000Z</time>
      </trkpt>
      <trkpt lat="44.53474" lon="0.68706">
        <ele>118.5</ele>
        <time>2014-7-5T11:7:52.000Z</time>
      </trkpt>
      <trkpt lat="44.53474" lon="0.68706">
        <ele>118.5</ele>
        <time>2014-7-5T11:7:52.000Z</time>
      </trkpt>
      <trkpt lat="44.5348" lon="0.68713">
        <ele>117.5</ele>
        <time>2014-7-5T11:7:52.000Z</time>
      </trkpt>
      <trkpt lat="44.5348" lon="0.68713">
        <ele>117.5</ele>
        <time>2014-7-5T11:7:52.000Z</time>
      </trkpt>
      <trkpt lat="44.53486" lon="0.68722">
        <ele>116.5</ele>
        <time>2014-7-5T11:7:52.000Z</time>
      </trkpt>
      <trkpt lat="44.53486" lon="0.68722">
        <ele>116.5</ele>
        <time>2014-7-5T11:7:52.000Z</time>
      </trkpt>
      <trkpt lat="44.53492" lon="0.68731">
        <ele>115.5</ele>
        <time>2014-7-5T11:7:52.000Z</time>
      </trkpt>
      <trkpt lat="44.53492" lon="0.68731">
        <ele>115.5</ele>
        <time>2014-7-5T11:7:52.000Z</time>
      </trkpt>
      <trkpt lat="44.53497" lon="0.6874">
        <ele>115.5</ele>
        <time>2014-7-5T11:7:52.000Z</time>
      </trkpt>
      <trkpt lat="44.53497" lon="0.6874">
        <ele>115.5</ele>
        <time>2014-7-5T11:7:52.000Z</time>
      </trkpt>
      <trkpt lat="44.53505" lon="0.68747">
        <ele>114.5</ele>
        <time>2014-7-5T11:7:52.000Z</time>
      </trkpt>
      <trkpt lat="44.53505" lon="0.68747">
        <ele>114.5</ele>
        <time>2014-7-5T11:7:52.000Z</time>
      </trkpt>
      <trkpt lat="44.53513" lon="0.6875">
        <ele>114.5</ele>
        <time>2014-7-5T11:7:52.000Z</time>
      </trkpt>
      <trkpt lat="44.53513" lon="0.6875">
        <ele>114.5</ele>
        <time>2014-7-5T11:7:52.000Z</time>
      </trkpt>
      <trkpt lat="44.53523" lon="0.68744">
        <ele>114.5</ele>
        <time>2014-7-5T11:7:52.000Z</time>
      </trkpt>
      <trkpt lat="44.53523" lon="0.68744">
        <ele>114.5</ele>
        <time>2014-7-5T11:7:52.000Z</time>
      </trkpt>
      <trkpt lat="44.53532" lon="0.68739">
        <ele>113.5</ele>
        <time>2014-7-5T11:7:52.000Z</time>
      </trkpt>
      <trkpt lat="44.53532" lon="0.68739">
        <ele>113.5</ele>
        <time>2014-7-5T11:7:52.000Z</time>
      </trkpt>
      <trkpt lat="44.5354" lon="0.68734">
        <ele>112.5</ele>
        <time>2014-7-5T11:7:52.000Z</time>
      </trkpt>
      <trkpt lat="44.5354" lon="0.68734">
        <ele>112.5</ele>
        <time>2014-7-5T11:7:52.000Z</time>
      </trkpt>
      <trkpt lat="44.53551" lon="0.68729">
        <ele>111.5</ele>
        <time>2014-7-5T11:7:52.000Z</time>
      </trkpt>
      <trkpt lat="44.53551" lon="0.68729">
        <ele>111.5</ele>
        <time>2014-7-5T11:7:52.000Z</time>
      </trkpt>
      <trkpt lat="44.5356" lon="0.68724">
        <ele>110.5</ele>
        <time>2014-7-5T11:7:52.000Z</time>
      </trkpt>
      <trkpt lat="44.5356" lon="0.68724">
        <ele>110.5</ele>
        <time>2014-7-5T11:7:52.000Z</time>
      </trkpt>
      <trkpt lat="44.5357" lon="0.68719">
        <ele>109.5</ele>
        <time>2014-7-5T11:7:52.000Z</time>
      </trkpt>
      <trkpt lat="44.5357" lon="0.68719">
        <ele>109.5</ele>
        <time>2014-7-5T11:7:52.000Z</time>
      </trkpt>
      <trkpt lat="44.5358" lon="0.68714">
        <ele>108.5</ele>
        <time>2014-7-5T11:7:52.000Z</time>
      </trkpt>
      <trkpt lat="44.5358" lon="0.68714">
        <ele>108.5</ele>
        <time>2014-7-5T11:7:52.000Z</time>
      </trkpt>
      <trkpt lat="44.5359" lon="0.68711">
        <ele>107.5</ele>
        <time>2014-7-5T11:7:52.000Z</time>
      </trkpt>
      <trkpt lat="44.5359" lon="0.68711">
        <ele>107.5</ele>
        <time>2014-7-5T11:7:52.000Z</time>
      </trkpt>
      <trkpt lat="44.53601" lon="0.68707">
        <ele>107.5</ele>
        <time>2014-7-5T11:7:52.000Z</time>
      </trkpt>
      <trkpt lat="44.53601" lon="0.68707">
        <ele>107.5</ele>
        <time>2014-7-5T11:7:52.000Z</time>
      </trkpt>
      <trkpt lat="44.53611" lon="0.68706">
        <ele>106.5</ele>
        <time>2014-7-5T11:7:52.000Z</time>
      </trkpt>
      <trkpt lat="44.53611" lon="0.68706">
        <ele>106.5</ele>
        <time>2014-7-5T11:7:52.000Z</time>
      </trkpt>
      <trkpt lat="44.5362" lon="0.68706">
        <ele>105.5</ele>
        <time>2014-7-5T11:7:52.000Z</time>
      </trkpt>
      <trkpt lat="44.5362" lon="0.68706">
        <ele>105.5</ele>
        <time>2014-7-5T11:7:52.000Z</time>
      </trkpt>
      <trkpt lat="44.5363" lon="0.68706">
        <ele>105.5</ele>
        <time>2014-7-5T11:7:52.000Z</time>
      </trkpt>
      <trkpt lat="44.5363" lon="0.68706">
        <ele>105.5</ele>
        <time>2014-7-5T11:7:52.000Z</time>
      </trkpt>
      <trkpt lat="44.53638" lon="0.68706">
        <ele>105.5</ele>
        <time>2014-7-5T11:7:52.000Z</time>
      </trkpt>
      <trkpt lat="44.53638" lon="0.68706">
        <ele>105.5</ele>
        <time>2014-7-5T11:7:52.000Z</time>
      </trkpt>
      <trkpt lat="44.53645" lon="0.68705">
        <ele>105.5</ele>
        <time>2014-7-5T11:7:52.000Z</time>
      </trkpt>
      <trkpt lat="44.53645" lon="0.68705">
        <ele>105.5</ele>
        <time>2014-7-5T11:7:52.000Z</time>
      </trkpt>
      <trkpt lat="44.53654" lon="0.68704">
        <ele>105.5</ele>
        <time>2014-7-5T11:7:52.000Z</time>
      </trkpt>
      <trkpt lat="44.53654" lon="0.68704">
        <ele>105.5</ele>
        <time>2014-7-5T11:7:52.000Z</time>
      </trkpt>
      <trkpt lat="44.53661" lon="0.68702">
        <ele>105.5</ele>
        <time>2014-7-5T11:7:52.000Z</time>
      </trkpt>
      <trkpt lat="44.53661" lon="0.68702">
        <ele>105.5</ele>
        <time>2014-7-5T11:7:52.000Z</time>
      </trkpt>
      <trkpt lat="44.53669" lon="0.68701">
        <ele>106.5</ele>
        <time>2014-7-5T11:7:52.000Z</time>
      </trkpt>
      <trkpt lat="44.53669" lon="0.68701">
        <ele>106.5</ele>
        <time>2014-7-5T11:7:52.000Z</time>
      </trkpt>
      <trkpt lat="44.53675" lon="0.68699">
        <ele>106.5</ele>
        <time>2014-7-5T11:7:52.000Z</time>
      </trkpt>
      <trkpt lat="44.53675" lon="0.68699">
        <ele>106.5</ele>
        <time>2014-7-5T11:7:52.000Z</time>
      </trkpt>
      <trkpt lat="44.53681" lon="0.68698">
        <ele>106.5</ele>
        <time>2014-7-5T11:7:52.000Z</time>
      </trkpt>
      <trkpt lat="44.53681" lon="0.68698">
        <ele>106.5</ele>
        <time>2014-7-5T11:7:52.000Z</time>
      </trkpt>
      <trkpt lat="44.53688" lon="0.68697">
        <ele>106.5</ele>
        <time>2014-7-5T11:7:52.000Z</time>
      </trkpt>
      <trkpt lat="44.53688" lon="0.68697">
        <ele>106.5</ele>
        <time>2014-7-5T11:7:52.000Z</time>
      </trkpt>
      <trkpt lat="44.53693" lon="0.68696">
        <ele>106.5</ele>
        <time>2014-7-5T11:7:52.000Z</time>
      </trkpt>
      <trkpt lat="44.53693" lon="0.68696">
        <ele>106.5</ele>
        <time>2014-7-5T11:7:52.000Z</time>
      </trkpt>
      <trkpt lat="44.53699" lon="0.68695">
        <ele>106.5</ele>
        <time>2014-7-5T11:7:52.000Z</time>
      </trkpt>
      <trkpt lat="44.53699" lon="0.68695">
        <ele>106.5</ele>
        <time>2014-7-5T11:7:52.000Z</time>
      </trkpt>
      <trkpt lat="44.53706" lon="0.68694">
        <ele>106.5</ele>
        <time>2014-7-5T11:7:52.000Z</time>
      </trkpt>
      <trkpt lat="44.53706" lon="0.68694">
        <ele>106.5</ele>
        <time>2014-7-5T11:7:52.000Z</time>
      </trkpt>
      <trkpt lat="44.53711" lon="0.68692">
        <ele>106.5</ele>
        <time>2014-7-5T11:7:52.000Z</time>
      </trkpt>
      <trkpt lat="44.53711" lon="0.68692">
        <ele>106.5</ele>
        <time>2014-7-5T11:7:52.000Z</time>
      </trkpt>
      <trkpt lat="44.53717" lon="0.6869">
        <ele>105.5</ele>
        <time>2014-7-5T11:7:52.000Z</time>
      </trkpt>
      <trkpt lat="44.53717" lon="0.6869">
        <ele>105.5</ele>
        <time>2014-7-5T11:7:52.000Z</time>
      </trkpt>
      <trkpt lat="44.53723" lon="0.6869">
        <ele>105.5</ele>
        <time>2014-7-5T11:7:52.000Z</time>
      </trkpt>
      <trkpt lat="44.53723" lon="0.6869">
        <ele>105.5</ele>
        <time>2014-7-5T11:7:52.000Z</time>
      </trkpt>
      <trkpt lat="44.53729" lon="0.6869">
        <ele>104.5</ele>
        <time>2014-7-5T11:7:52.000Z</time>
      </trkpt>
      <trkpt lat="44.53729" lon="0.6869">
        <ele>104.5</ele>
        <time>2014-7-5T11:7:52.000Z</time>
      </trkpt>
      <trkpt lat="44.53734" lon="0.68689">
        <ele>104.5</ele>
        <time>2014-7-5T11:7:52.000Z</time>
      </trkpt>
      <trkpt lat="44.53734" lon="0.68689">
        <ele>104.5</ele>
        <time>2014-7-5T11:7:52.000Z</time>
      </trkpt>
      <trkpt lat="44.53737" lon="0.68684">
        <ele>104.5</ele>
        <time>2014-7-5T11:7:52.000Z</time>
      </trkpt>
      <trkpt lat="44.53737" lon="0.68684">
        <ele>104.5</ele>
        <time>2014-7-5T11:7:52.000Z</time>
      </trkpt>
      <trkpt lat="44.53738" lon="0.68677">
        <ele>104.5</ele>
        <time>2014-7-5T11:7:52.000Z</time>
      </trkpt>
      <trkpt lat="44.53738" lon="0.68677">
        <ele>104.5</ele>
        <time>2014-7-5T11:7:52.000Z</time>
      </trkpt>
      <trkpt lat="44.53736" lon="0.68671">
        <ele>104.5</ele>
        <time>2014-7-5T11:7:52.000Z</time>
      </trkpt>
      <trkpt lat="44.53736" lon="0.68671">
        <ele>104.5</ele>
        <time>2014-7-5T11:7:52.000Z</time>
      </trkpt>
      <trkpt lat="44.53735" lon="0.68667">
        <ele>105.5</ele>
        <time>2014-7-5T11:7:52.000Z</time>
      </trkpt>
      <trkpt lat="44.53735" lon="0.68667">
        <ele>105.5</ele>
        <time>2014-7-5T11:7:52.000Z</time>
      </trkpt>
      <trkpt lat="44.53733" lon="0.68661">
        <ele>105.5</ele>
        <time>2014-7-5T11:7:52.000Z</time>
      </trkpt>
      <trkpt lat="44.53733" lon="0.68661">
        <ele>105.5</ele>
        <time>2014-7-5T11:8:59.000Z</time>
      </trkpt>
      <trkpt lat="44.53731" lon="0.68656">
        <ele>105.5</ele>
        <time>2014-7-5T11:8:59.000Z</time>
      </trkpt>
      <trkpt lat="44.53731" lon="0.68656">
        <ele>105.5</ele>
        <time>2014-7-5T11:8:59.000Z</time>
      </trkpt>
      <trkpt lat="44.53729" lon="0.6865">
        <ele>105.5</ele>
        <time>2014-7-5T11:8:59.000Z</time>
      </trkpt>
      <trkpt lat="44.53729" lon="0.6865">
        <ele>105.5</ele>
        <time>2014-7-5T11:8:59.000Z</time>
      </trkpt>
      <trkpt lat="44.53728" lon="0.68645">
        <ele>105.5</ele>
        <time>2014-7-5T11:8:59.000Z</time>
      </trkpt>
      <trkpt lat="44.53728" lon="0.68645">
        <ele>105.5</ele>
        <time>2014-7-5T11:8:59.000Z</time>
      </trkpt>
      <trkpt lat="44.53726" lon="0.68641">
        <ele>105.5</ele>
        <time>2014-7-5T11:8:59.000Z</time>
      </trkpt>
      <trkpt lat="44.53726" lon="0.68641">
        <ele>105.5</ele>
        <time>2014-7-5T11:8:59.000Z</time>
      </trkpt>
      <trkpt lat="44.53724" lon="0.68639">
        <ele>104.5</ele>
        <time>2014-7-5T11:8:59.000Z</time>
      </trkpt>
      <trkpt lat="44.53724" lon="0.68639">
        <ele>104.5</ele>
        <time>2014-7-5T11:8:59.000Z</time>
      </trkpt>
      <trkpt lat="44.53725" lon="0.68636">
        <ele>104.5</ele>
        <time>2014-7-5T11:8:59.000Z</time>
      </trkpt>
      <trkpt lat="44.53725" lon="0.68636">
        <ele>104.5</ele>
        <time>2014-7-5T11:8:59.000Z</time>
      </trkpt>
      <trkpt lat="44.53728" lon="0.68639">
        <ele>104.5</ele>
        <time>2014-7-5T11:8:59.000Z</time>
      </trkpt>
      <trkpt lat="44.53728" lon="0.68639">
        <ele>104.5</ele>
        <time>2014-7-5T11:8:59.000Z</time>
      </trkpt>
      <trkpt lat="44.53729" lon="0.6864">
        <ele>103.5</ele>
        <time>2014-7-5T11:8:59.000Z</time>
      </trkpt>
      <trkpt lat="44.53729" lon="0.6864">
        <ele>103.5</ele>
        <time>2014-7-5T11:8:59.000Z</time>
      </trkpt>
      <trkpt lat="44.53731" lon="0.68643">
        <ele>104.5</ele>
        <time>2014-7-5T11:8:59.000Z</time>
      </trkpt>
      <trkpt lat="44.53731" lon="0.68643">
        <ele>104.5</ele>
        <time>2014-7-5T11:8:59.000Z</time>
      </trkpt>
      <trkpt lat="44.53734" lon="0.68647">
        <ele>103.5</ele>
        <time>2014-7-5T11:8:59.000Z</time>
      </trkpt>
      <trkpt lat="44.53734" lon="0.68647">
        <ele>103.5</ele>
        <time>2014-7-5T11:8:59.000Z</time>
      </trkpt>
      <trkpt lat="44.53734" lon="0.68652">
        <ele>103.5</ele>
        <time>2014-7-5T11:8:59.000Z</time>
      </trkpt>
      <trkpt lat="44.53734" lon="0.68652">
        <ele>103.5</ele>
        <time>2014-7-5T11:8:59.000Z</time>
      </trkpt>
      <trkpt lat="44.53732" lon="0.68653">
        <ele>104.5</ele>
        <time>2014-7-5T11:8:59.000Z</time>
      </trkpt>
      <trkpt lat="44.53732" lon="0.68653">
        <ele>104.5</ele>
        <time>2014-7-5T11:8:59.000Z</time>
      </trkpt>
      <trkpt lat="44.53729" lon="0.68652">
        <ele>104.5</ele>
        <time>2014-7-5T11:8:59.000Z</time>
      </trkpt>
      <trkpt lat="44.53729" lon="0.68652">
        <ele>104.5</ele>
        <time>2014-7-5T11:8:59.000Z</time>
      </trkpt>
      <trkpt lat="44.53727" lon="0.68648">
        <ele>104.5</ele>
        <time>2014-7-5T11:8:59.000Z</time>
      </trkpt>
      <trkpt lat="44.53727" lon="0.68648">
        <ele>104.5</ele>
        <time>2014-7-5T11:8:59.000Z</time>
      </trkpt>
      <trkpt lat="44.53726" lon="0.68643">
        <ele>104.5</ele>
        <time>2014-7-5T11:8:59.000Z</time>
      </trkpt>
      <trkpt lat="44.53726" lon="0.68643">
        <ele>104.5</ele>
        <time>2014-7-5T11:8:59.000Z</time>
      </trkpt>
      <trkpt lat="44.53725" lon="0.68637">
        <ele>104.5</ele>
        <time>2014-7-5T11:8:59.000Z</time>
      </trkpt>
      <trkpt lat="44.53725" lon="0.68637">
        <ele>104.5</ele>
        <time>2014-7-5T11:8:59.000Z</time>
      </trkpt>
      <trkpt lat="44.53724" lon="0.68633">
        <ele>104.5</ele>
        <time>2014-7-5T11:8:59.000Z</time>
      </trkpt>
      <trkpt lat="44.53724" lon="0.68633">
        <ele>104.5</ele>
        <time>2014-7-5T11:8:59.000Z</time>
      </trkpt>
      <trkpt lat="44.53721" lon="0.68622">
        <ele>105.5</ele>
        <time>2014-7-5T11:8:59.000Z</time>
      </trkpt>
      <trkpt lat="44.53721" lon="0.68622">
        <ele>105.5</ele>
        <time>2014-7-5T11:8:59.000Z</time>
      </trkpt>
      <trkpt lat="44.5372" lon="0.68617">
        <ele>105.5</ele>
        <time>2014-7-5T11:8:59.000Z</time>
      </trkpt>
      <trkpt lat="44.5372" lon="0.68617">
        <ele>105.5</ele>
        <time>2014-7-5T11:8:59.000Z</time>
      </trkpt>
      <trkpt lat="44.53718" lon="0.68612">
        <ele>105.5</ele>
        <time>2014-7-5T11:8:59.000Z</time>
      </trkpt>
      <trkpt lat="44.53718" lon="0.68612">
        <ele>105.5</ele>
        <time>2014-7-5T11:8:59.000Z</time>
      </trkpt>
      <trkpt lat="44.53717" lon="0.68606">
        <ele>105.5</ele>
        <time>2014-7-5T11:8:59.000Z</time>
      </trkpt>
      <trkpt lat="44.53717" lon="0.68606">
        <ele>105.5</ele>
        <time>2014-7-5T11:8:59.000Z</time>
      </trkpt>
      <trkpt lat="44.53716" lon="0.68601">
        <ele>106.5</ele>
        <time>2014-7-5T11:8:59.000Z</time>
      </trkpt>
      <trkpt lat="44.53716" lon="0.68601">
        <ele>106.5</ele>
        <time>2014-7-5T11:8:59.000Z</time>
      </trkpt>
      <trkpt lat="44.53714" lon="0.68596">
        <ele>106.5</ele>
        <time>2014-7-5T11:8:59.000Z</time>
      </trkpt>
      <trkpt lat="44.53714" lon="0.68596">
        <ele>106.5</ele>
        <time>2014-7-5T11:8:59.000Z</time>
      </trkpt>
      <trkpt lat="44.53713" lon="0.68591">
        <ele>107.5</ele>
        <time>2014-7-5T11:8:59.000Z</time>
      </trkpt>
      <trkpt lat="44.53713" lon="0.68591">
        <ele>107.5</ele>
        <time>2014-7-5T11:8:59.000Z</time>
      </trkpt>
      <trkpt lat="44.53711" lon="0.68585">
        <ele>108.5</ele>
        <time>2014-7-5T11:8:59.000Z</time>
      </trkpt>
      <trkpt lat="44.53711" lon="0.68585">
        <ele>108.5</ele>
        <time>2014-7-5T11:8:59.000Z</time>
      </trkpt>
      <trkpt lat="44.5371" lon="0.6858">
        <ele>108.5</ele>
        <time>2014-7-5T11:8:59.000Z</time>
      </trkpt>
      <trkpt lat="44.5371" lon="0.6858">
        <ele>108.5</ele>
        <time>2014-7-5T11:8:59.000Z</time>
      </trkpt>
      <trkpt lat="44.53708" lon="0.68576">
        <ele>109.5</ele>
        <time>2014-7-5T11:8:59.000Z</time>
      </trkpt>
      <trkpt lat="44.53708" lon="0.68576">
        <ele>109.5</ele>
        <time>2014-7-5T11:8:59.000Z</time>
      </trkpt>
      <trkpt lat="44.53707" lon="0.68572">
        <ele>109.5</ele>
        <time>2014-7-5T11:8:59.000Z</time>
      </trkpt>
      <trkpt lat="44.53707" lon="0.68572">
        <ele>109.5</ele>
        <time>2014-7-5T11:8:59.000Z</time>
      </trkpt>
      <trkpt lat="44.53707" lon="0.68569">
        <ele>109.5</ele>
        <time>2014-7-5T11:8:59.000Z</time>
      </trkpt>
      <trkpt lat="44.53707" lon="0.68569">
        <ele>109.5</ele>
        <time>2014-7-5T11:8:59.000Z</time>
      </trkpt>
      <trkpt lat="44.53706" lon="0.68566">
        <ele>109.5</ele>
        <time>2014-7-5T11:8:59.000Z</time>
      </trkpt>
      <trkpt lat="44.53706" lon="0.68566">
        <ele>109.5</ele>
        <time>2014-7-5T11:8:59.000Z</time>
      </trkpt>
      <trkpt lat="44.53706" lon="0.68562">
        <ele>109.5</ele>
        <time>2014-7-5T11:8:59.000Z</time>
      </trkpt>
      <trkpt lat="44.53706" lon="0.68562">
        <ele>109.5</ele>
        <time>2014-7-5T11:8:59.000Z</time>
      </trkpt>
      <trkpt lat="44.53705" lon="0.68559">
        <ele>109.5</ele>
        <time>2014-7-5T11:8:59.000Z</time>
      </trkpt>
      <trkpt lat="44.53705" lon="0.68559">
        <ele>109.5</ele>
        <time>2014-7-5T11:8:59.000Z</time>
      </trkpt>
      <trkpt lat="44.53704" lon="0.68556">
        <ele>109.5</ele>
        <time>2014-7-5T11:8:59.000Z</time>
      </trkpt>
      <trkpt lat="44.53704" lon="0.68556">
        <ele>109.5</ele>
        <time>2014-7-5T11:8:59.000Z</time>
      </trkpt>
      <trkpt lat="44.53703" lon="0.68552">
        <ele>110.5</ele>
        <time>2014-7-5T11:8:59.000Z</time>
      </trkpt>
      <trkpt lat="44.53703" lon="0.68552">
        <ele>110.5</ele>
        <time>2014-7-5T11:8:59.000Z</time>
      </trkpt>
      <trkpt lat="44.537" lon="0.68549">
        <ele>115.5</ele>
        <time>2014-7-5T11:8:59.000Z</time>
      </trkpt>
      <trkpt lat="44.537" lon="0.68549">
        <ele>115.5</ele>
        <time>2014-7-5T11:8:59.000Z</time>
      </trkpt>
      <trkpt lat="44.53698" lon="0.68546">
        <ele>117.5</ele>
        <time>2014-7-5T11:8:59.000Z</time>
      </trkpt>
      <trkpt lat="44.53698" lon="0.68546">
        <ele>117.5</ele>
        <time>2014-7-5T11:8:59.000Z</time>
      </trkpt>
      <trkpt lat="44.53696" lon="0.68543">
        <ele>117.5</ele>
        <time>2014-7-5T11:8:59.000Z</time>
      </trkpt>
      <trkpt lat="44.53696" lon="0.68543">
        <ele>117.5</ele>
        <time>2014-7-5T11:8:59.000Z</time>
      </trkpt>
      <trkpt lat="44.53696" lon="0.68541">
        <ele>118.5</ele>
        <time>2014-7-5T11:8:59.000Z</time>
      </trkpt>
      <trkpt lat="44.53696" lon="0.68541">
        <ele>118.5</ele>
        <time>2014-7-5T11:8:59.000Z</time>
      </trkpt>
      <trkpt lat="44.53696" lon="0.68537">
        <ele>117.5</ele>
        <time>2014-7-5T11:8:59.000Z</time>
      </trkpt>
      <trkpt lat="44.53696" lon="0.68537">
        <ele>117.5</ele>
        <time>2014-7-5T11:8:59.000Z</time>
      </trkpt>
      <trkpt lat="44.53696" lon="0.68533">
        <ele>117.5</ele>
        <time>2014-7-5T11:8:59.000Z</time>
      </trkpt>
      <trkpt lat="44.53696" lon="0.68533">
        <ele>117.5</ele>
        <time>2014-7-5T11:8:59.000Z</time>
      </trkpt>
      <trkpt lat="44.53695" lon="0.6853">
        <ele>117.5</ele>
        <time>2014-7-5T11:8:59.000Z</time>
      </trkpt>
      <trkpt lat="44.53695" lon="0.6853">
        <ele>117.5</ele>
        <time>2014-7-5T11:8:59.000Z</time>
      </trkpt>
      <trkpt lat="44.53694" lon="0.68526">
        <ele>118.5</ele>
        <time>2014-7-5T11:8:59.000Z</time>
      </trkpt>
      <trkpt lat="44.53694" lon="0.68526">
        <ele>118.5</ele>
        <time>2014-7-5T11:8:59.000Z</time>
      </trkpt>
      <trkpt lat="44.53693" lon="0.68522">
        <ele>118.5</ele>
        <time>2014-7-5T11:8:59.000Z</time>
      </trkpt>
      <trkpt lat="44.53693" lon="0.68522">
        <ele>118.5</ele>
        <time>2014-7-5T11:8:59.000Z</time>
      </trkpt>
      <trkpt lat="44.53691" lon="0.6852">
        <ele>118.5</ele>
        <time>2014-7-5T11:8:59.000Z</time>
      </trkpt>
      <trkpt lat="44.53691" lon="0.6852">
        <ele>118.5</ele>
        <time>2014-7-5T11:8:59.000Z</time>
      </trkpt>
      <trkpt lat="44.5369" lon="0.68517">
        <ele>118.5</ele>
        <time>2014-7-5T11:8:59.000Z</time>
      </trkpt>
      <trkpt lat="44.5369" lon="0.68517">
        <ele>118.5</ele>
        <time>2014-7-5T11:8:59.000Z</time>
      </trkpt>
      <trkpt lat="44.5369" lon="0.68513">
        <ele>118.5</ele>
        <time>2014-7-5T11:8:59.000Z</time>
      </trkpt>
      <trkpt lat="44.5369" lon="0.68513">
        <ele>118.5</ele>
        <time>2014-7-5T11:8:59.000Z</time>
      </trkpt>
      <trkpt lat="44.53689" lon="0.68508">
        <ele>119.5</ele>
        <time>2014-7-5T11:8:59.000Z</time>
      </trkpt>
      <trkpt lat="44.53689" lon="0.68508">
        <ele>119.5</ele>
        <time>2014-7-5T11:8:59.000Z</time>
      </trkpt>
      <trkpt lat="44.53688" lon="0.68506">
        <ele>119.5</ele>
        <time>2014-7-5T11:8:59.000Z</time>
      </trkpt>
      <trkpt lat="44.53688" lon="0.68506">
        <ele>119.5</ele>
        <time>2014-7-5T11:8:59.000Z</time>
      </trkpt>
      <trkpt lat="44.53687" lon="0.68504">
        <ele>119.5</ele>
        <time>2014-7-5T11:8:59.000Z</time>
      </trkpt>
      <trkpt lat="44.53687" lon="0.68504">
        <ele>119.5</ele>
        <time>2014-7-5T11:8:59.000Z</time>
      </trkpt>
      <trkpt lat="44.53686" lon="0.68501">
        <ele>120.5</ele>
        <time>2014-7-5T11:8:59.000Z</time>
      </trkpt>
      <trkpt lat="44.53686" lon="0.68501">
        <ele>120.5</ele>
        <time>2014-7-5T11:8:59.000Z</time>
      </trkpt>
      <trkpt lat="44.53686" lon="0.68496">
        <ele>120.5</ele>
        <time>2014-7-5T11:9:47.000Z</time>
      </trkpt>
      <trkpt lat="44.53686" lon="0.68496">
        <ele>120.5</ele>
        <time>2014-7-5T11:9:47.000Z</time>
      </trkpt>
      <trkpt lat="44.53685" lon="0.68492">
        <ele>120.5</ele>
        <time>2014-7-5T11:9:47.000Z</time>
      </trkpt>
      <trkpt lat="44.53685" lon="0.68492">
        <ele>120.5</ele>
        <time>2014-7-5T11:9:47.000Z</time>
      </trkpt>
      <trkpt lat="44.53686" lon="0.68488">
        <ele>120.5</ele>
        <time>2014-7-5T11:9:47.000Z</time>
      </trkpt>
      <trkpt lat="44.53686" lon="0.68488">
        <ele>120.5</ele>
        <time>2014-7-5T11:9:47.000Z</time>
      </trkpt>
      <trkpt lat="44.53686" lon="0.68484">
        <ele>121.5</ele>
        <time>2014-7-5T11:9:47.000Z</time>
      </trkpt>
      <trkpt lat="44.53686" lon="0.68484">
        <ele>121.5</ele>
        <time>2014-7-5T11:9:47.000Z</time>
      </trkpt>
      <trkpt lat="44.53687" lon="0.6848">
        <ele>121.5</ele>
        <time>2014-7-5T11:9:47.000Z</time>
      </trkpt>
      <trkpt lat="44.53687" lon="0.6848">
        <ele>121.5</ele>
        <time>2014-7-5T11:9:47.000Z</time>
      </trkpt>
      <trkpt lat="44.53688" lon="0.68477">
        <ele>120.5</ele>
        <time>2014-7-5T11:9:47.000Z</time>
      </trkpt>
      <trkpt lat="44.53688" lon="0.68477">
        <ele>120.5</ele>
        <time>2014-7-5T11:9:47.000Z</time>
      </trkpt>
      <trkpt lat="44.53692" lon="0.68476">
        <ele>119.5</ele>
        <time>2014-7-5T11:9:47.000Z</time>
      </trkpt>
      <trkpt lat="44.53692" lon="0.68476">
        <ele>119.5</ele>
        <time>2014-7-5T11:9:47.000Z</time>
      </trkpt>
      <trkpt lat="44.53694" lon="0.68476">
        <ele>119.5</ele>
        <time>2014-7-5T11:9:47.000Z</time>
      </trkpt>
      <trkpt lat="44.53694" lon="0.68476">
        <ele>119.5</ele>
        <time>2014-7-5T11:9:47.000Z</time>
      </trkpt>
      <trkpt lat="44.53697" lon="0.68477">
        <ele>119.5</ele>
        <time>2014-7-5T11:9:47.000Z</time>
      </trkpt>
      <trkpt lat="44.53697" lon="0.68477">
        <ele>119.5</ele>
        <time>2014-7-5T11:9:47.000Z</time>
      </trkpt>
      <trkpt lat="44.53699" lon="0.68478">
        <ele>119.5</ele>
        <time>2014-7-5T11:9:47.000Z</time>
      </trkpt>
      <trkpt lat="44.53699" lon="0.68478">
        <ele>119.5</ele>
        <time>2014-7-5T11:9:47.000Z</time>
      </trkpt>
      <trkpt lat="44.53702" lon="0.68479">
        <ele>119.5</ele>
        <time>2014-7-5T11:9:47.000Z</time>
      </trkpt>
      <trkpt lat="44.53702" lon="0.68479">
        <ele>119.5</ele>
        <time>2014-7-5T11:9:47.000Z</time>
      </trkpt>
      <trkpt lat="44.53704" lon="0.6848">
        <ele>118.5</ele>
        <time>2014-7-5T11:9:47.000Z</time>
      </trkpt>
      <trkpt lat="44.53704" lon="0.6848">
        <ele>118.5</ele>
        <time>2014-7-5T11:9:47.000Z</time>
      </trkpt>
      <trkpt lat="44.53706" lon="0.68479">
        <ele>118.5</ele>
        <time>2014-7-5T11:9:47.000Z</time>
      </trkpt>
      <trkpt lat="44.53706" lon="0.68479">
        <ele>118.5</ele>
        <time>2014-7-5T11:9:47.000Z</time>
      </trkpt>
      <trkpt lat="44.53708" lon="0.68476">
        <ele>117.5</ele>
        <time>2014-7-5T11:9:47.000Z</time>
      </trkpt>
      <trkpt lat="44.53708" lon="0.68476">
        <ele>117.5</ele>
        <time>2014-7-5T11:9:47.000Z</time>
      </trkpt>
      <trkpt lat="44.5371" lon="0.68477">
        <ele>117.5</ele>
        <time>2014-7-5T11:9:47.000Z</time>
      </trkpt>
      <trkpt lat="44.5371" lon="0.68477">
        <ele>117.5</ele>
        <time>2014-7-5T11:9:47.000Z</time>
      </trkpt>
      <trkpt lat="44.53711" lon="0.6848">
        <ele>117.5</ele>
        <time>2014-7-5T11:9:47.000Z</time>
      </trkpt>
      <trkpt lat="44.53711" lon="0.6848">
        <ele>117.5</ele>
        <time>2014-7-5T11:9:47.000Z</time>
      </trkpt>
      <trkpt lat="44.53708" lon="0.68482">
        <ele>116.5</ele>
        <time>2014-7-5T11:9:47.000Z</time>
      </trkpt>
      <trkpt lat="44.53708" lon="0.68482">
        <ele>116.5</ele>
        <time>2014-7-5T11:9:47.000Z</time>
      </trkpt>
      <trkpt lat="44.53706" lon="0.68481">
        <ele>117.5</ele>
        <time>2014-7-5T11:9:47.000Z</time>
      </trkpt>
      <trkpt lat="44.53706" lon="0.68481">
        <ele>117.5</ele>
        <time>2014-7-5T11:9:47.000Z</time>
      </trkpt>
      <trkpt lat="44.53704" lon="0.68478">
        <ele>117.5</ele>
        <time>2014-7-5T11:9:47.000Z</time>
      </trkpt>
      <trkpt lat="44.53704" lon="0.68478">
        <ele>117.5</ele>
        <time>2014-7-5T11:9:47.000Z</time>
      </trkpt>
      <trkpt lat="44.53706" lon="0.68478">
        <ele>115.5</ele>
        <time>2014-7-5T11:11:8.000Z</time>
      </trkpt>
      <trkpt lat="44.53706" lon="0.68478">
        <ele>115.5</ele>
        <time>2014-7-5T11:11:8.000Z</time>
      </trkpt>
      <trkpt lat="44.53704" lon="0.68477">
        <ele>114.5</ele>
        <time>2014-7-5T11:11:8.000Z</time>
      </trkpt>
      <trkpt lat="44.53704" lon="0.68477">
        <ele>114.5</ele>
        <time>2014-7-5T11:11:8.000Z</time>
      </trkpt>
      <trkpt lat="44.53704" lon="0.68475">
        <ele>112.5</ele>
        <time>2014-7-5T11:11:24.000Z</time>
      </trkpt>
      <trkpt lat="44.53704" lon="0.68475">
        <ele>112.5</ele>
        <time>2014-7-5T11:11:24.000Z</time>
      </trkpt>
      <trkpt lat="44.53702" lon="0.68474">
        <ele>111.5</ele>
        <time>2014-7-5T11:12:52.000Z</time>
      </trkpt>
      <trkpt lat="44.53702" lon="0.68474">
        <ele>111.5</ele>
        <time>2014-7-5T11:12:52.000Z</time>
      </trkpt>
      <trkpt lat="44.537" lon="0.68474">
        <ele>112.5</ele>
        <time>2014-7-5T11:12:52.000Z</time>
      </trkpt>
      <trkpt lat="44.537" lon="0.68474">
        <ele>112.5</ele>
        <time>2014-7-5T11:12:52.000Z</time>
      </trkpt>
      <trkpt lat="44.53702" lon="0.68472">
        <ele>114.5</ele>
        <time>2014-7-5T11:12:52.000Z</time>
      </trkpt>
      <trkpt lat="44.53702" lon="0.68472">
        <ele>114.5</ele>
        <time>2014-7-5T11:12:52.000Z</time>
      </trkpt>
      <trkpt lat="44.53699" lon="0.68472">
        <ele>113.5</ele>
        <time>2014-7-5T11:12:52.000Z</time>
      </trkpt>
      <trkpt lat="44.53699" lon="0.68472">
        <ele>113.5</ele>
        <time>2014-7-5T11:12:52.000Z</time>
      </trkpt>
      <trkpt lat="44.53701" lon="0.68474">
        <ele>114.5</ele>
        <time>2014-7-5T11:12:52.000Z</time>
      </trkpt>
      <trkpt lat="44.53701" lon="0.68474">
        <ele>114.5</ele>
        <time>2014-7-5T11:12:52.000Z</time>
      </trkpt>
      <trkpt lat="44.537" lon="0.68474">
        <ele>114.5</ele>
        <time>2014-7-5T11:16:2.000Z</time>
      </trkpt>
      <trkpt lat="44.53698" lon="0.68474">
        <ele>121.5</ele>
        <time>2014-7-5T11:16:2.000Z</time>
      </trkpt>
      <trkpt lat="44.53701" lon="0.68474">
        <ele>119.5</ele>
        <time>2014-7-5T11:16:2.000Z</time>
      </trkpt>
      <trkpt lat="44.537" lon="0.68476">
        <ele>113.5</ele>
        <time>2014-7-5T11:16:2.000Z</time>
      </trkpt>
      <trkpt lat="44.53699" lon="0.68477">
        <ele>112.5</ele>
        <time>2014-7-5T11:16:2.000Z</time>
      </trkpt>
      <trkpt lat="44.53696" lon="0.68477">
        <ele>110.5</ele>
        <time>2014-7-5T11:16:2.000Z</time>
      </trkpt>
      <trkpt lat="44.53698" lon="0.68476">
        <ele>111.5</ele>
        <time>2014-7-5T11:16:2.000Z</time>
      </trkpt>
      <trkpt lat="44.537" lon="0.68475">
        <ele>113.5</ele>
        <time>2014-7-5T11:16:2.000Z</time>
      </trkpt>
      <trkpt lat="44.53702" lon="0.68476">
        <ele>114.5</ele>
        <time>2014-7-5T11:16:2.000Z</time>
      </trkpt>
      <trkpt lat="44.53701" lon="0.68475">
        <ele>113.5</ele>
        <time>2014-7-5T11:16:2.000Z</time>
      </trkpt>
      <trkpt lat="44.53701" lon="0.68475">
        <ele>113.5</ele>
        <time>2014-7-5T11:24:34.000Z</time>
      </trkpt>
      <trkpt lat="44.53701" lon="0.68475">
        <ele>113.5</ele>
        <time>2014-7-5T11:24:34.000Z</time>
      </trkpt>
      <trkpt lat="44.537" lon="0.68472">
        <ele>114.5</ele>
        <time>2014-7-5T11:24:34.000Z</time>
      </trkpt>
      <trkpt lat="44.537" lon="0.68469">
        <ele>116.5</ele>
        <time>2014-7-5T11:24:34.000Z</time>
      </trkpt>
      <trkpt lat="44.53699" lon="0.68472">
        <ele>118.5</ele>
        <time>2014-7-5T11:24:34.000Z</time>
      </trkpt>
      <trkpt lat="44.53699" lon="0.68474">
        <ele>121.5</ele>
        <time>2014-7-5T11:24:34.000Z</time>
      </trkpt>
      <trkpt lat="44.53698" lon="0.68472">
        <ele>120.5</ele>
        <time>2014-7-5T11:24:34.000Z</time>
      </trkpt>
      <trkpt lat="44.537" lon="0.68472">
        <ele>119.5</ele>
        <time>2014-7-5T11:24:34.000Z</time>
      </trkpt>
      <trkpt lat="44.53698" lon="0.68471">
        <ele>118.5</ele>
        <time>2014-7-5T11:24:34.000Z</time>
      </trkpt>
      <trkpt lat="44.53696" lon="0.6847">
        <ele>118.5</ele>
        <time>2014-7-5T11:24:34.000Z</time>
      </trkpt>
      <trkpt lat="44.53695" lon="0.68472">
        <ele>118.5</ele>
        <time>2014-7-5T11:24:34.000Z</time>
      </trkpt>
      <trkpt lat="44.5389" lon="0.68542">
        <ele>97.5</ele>
        <time>2014-7-5T12:16:35.000Z</time>
      </trkpt>
      <trkpt lat="44.53721" lon="0.68453">
        <ele>143.5</ele>
        <time>2014-7-5T12:16:36.000Z</time>
      </trkpt>
      <trkpt lat="44.53721" lon="0.68455">
        <ele>141.5</ele>
        <time>2014-7-5T12:16:36.000Z</time>
      </trkpt>
      <trkpt lat="44.53721" lon="0.68455">
        <ele>139.5</ele>
        <time>2014-7-5T12:16:36.000Z</time>
      </trkpt>
      <trkpt lat="44.53716" lon="0.68459">
        <ele>131.5</ele>
        <time>2014-7-5T12:16:36.000Z</time>
      </trkpt>
      <trkpt lat="44.53713" lon="0.68459">
        <ele>127.5</ele>
        <time>2014-7-5T12:16:36.000Z</time>
      </trkpt>
      <trkpt lat="44.53714" lon="0.68457">
        <ele>131.5</ele>
        <time>2014-7-5T12:16:36.000Z</time>
      </trkpt>
      <trkpt lat="44.53716" lon="0.68457">
        <ele>134.5</ele>
        <time>2014-7-5T12:16:36.000Z</time>
      </trkpt>
      <trkpt lat="44.53716" lon="0.68457">
        <ele>132.5</ele>
        <time>2014-7-5T12:16:36.000Z</time>
      </trkpt>
      <trkpt lat="44.53716" lon="0.68456">
        <ele>127.5</ele>
        <time>2014-7-5T12:16:36.000Z</time>
      </trkpt>
      <trkpt lat="44.53715" lon="0.68456">
        <ele>128.5</ele>
        <time>2014-7-5T12:16:36.000Z</time>
      </trkpt>
      <trkpt lat="44.53715" lon="0.68456">
        <ele>128.5</ele>
        <time>2014-7-5T12:16:36.000Z</time>
      </trkpt>
      <trkpt lat="44.53715" lon="0.68456">
        <ele>129.5</ele>
        <time>2014-7-5T12:16:36.000Z</time>
      </trkpt>
      <trkpt lat="44.53712" lon="0.68457">
        <ele>126.5</ele>
        <time>2014-7-5T12:16:36.000Z</time>
      </trkpt>
      <trkpt lat="44.5371" lon="0.68458">
        <ele>125.5</ele>
        <time>2014-7-5T12:16:36.000Z</time>
      </trkpt>
      <trkpt lat="44.53709" lon="0.68459">
        <ele>124.5</ele>
        <time>2014-7-5T12:16:36.000Z</time>
      </trkpt>
      <trkpt lat="44.53707" lon="0.68461">
        <ele>124.5</ele>
        <time>2014-7-5T12:16:36.000Z</time>
      </trkpt>
      <trkpt lat="44.53706" lon="0.68461">
        <ele>122.5</ele>
        <time>2014-7-5T12:16:36.000Z</time>
      </trkpt>
      <trkpt lat="44.53705" lon="0.68462">
        <ele>122.5</ele>
        <time>2014-7-5T12:16:36.000Z</time>
      </trkpt>
      <trkpt lat="44.53704" lon="0.68462">
        <ele>121.5</ele>
        <time>2014-7-5T12:16:36.000Z</time>
      </trkpt>
      <trkpt lat="44.53703" lon="0.68465">
        <ele>121.5</ele>
        <time>2014-7-5T12:19:40.000Z</time>
      </trkpt>
      <trkpt lat="44.53703" lon="0.68465">
        <ele>121.5</ele>
        <time>2014-7-5T12:19:40.000Z</time>
      </trkpt>
      <trkpt lat="44.53703" lon="0.68465">
        <ele>121.5</ele>
        <time>2014-7-5T12:19:40.000Z</time>
      </trkpt>
      <trkpt lat="44.53703" lon="0.68465">
        <ele>121.5</ele>
        <time>2014-7-5T12:19:40.000Z</time>
      </trkpt>
      <trkpt lat="44.53703" lon="0.68465">
        <ele>120.5</ele>
        <time>2014-7-5T12:19:40.000Z</time>
      </trkpt>
      <trkpt lat="44.53703" lon="0.68465">
        <ele>120.5</ele>
        <time>2014-7-5T12:19:40.000Z</time>
      </trkpt>
      <trkpt lat="44.53701" lon="0.68465">
        <ele>120.5</ele>
        <time>2014-7-5T12:19:40.000Z</time>
      </trkpt>
      <trkpt lat="44.53699" lon="0.68463">
        <ele>115.5</ele>
        <time>2014-7-5T12:19:40.000Z</time>
      </trkpt>
      <trkpt lat="44.53696" lon="0.68463">
        <ele>114.5</ele>
        <time>2014-7-5T12:19:40.000Z</time>
      </trkpt>
      <trkpt lat="44.53694" lon="0.6847">
        <ele>117.5</ele>
        <time>2014-7-5T12:23:22.000Z</time>
      </trkpt>
      <trkpt lat="44.53696" lon="0.68469">
        <ele>116.5</ele>
        <time>2014-7-5T12:23:22.000Z</time>
      </trkpt>
      <trkpt lat="44.53697" lon="0.68468">
        <ele>115.5</ele>
        <time>2014-7-5T12:25:42.000Z</time>
      </trkpt>
      <trkpt lat="44.53695" lon="0.68469">
        <ele>114.5</ele>
        <time>2014-7-5T12:25:42.000Z</time>
      </trkpt>
      <trkpt lat="44.53693" lon="0.68469">
        <ele>114.5</ele>
        <time>2014-7-5T12:25:42.000Z</time>
      </trkpt>
      <trkpt lat="44.53692" lon="0.68471">
        <ele>116.5</ele>
        <time>2014-7-5T12:25:42.000Z</time>
      </trkpt>
      <trkpt lat="44.53694" lon="0.6847">
        <ele>132.5</ele>
        <time>2014-7-5T13:35:52.000Z</time>
      </trkpt>
      <trkpt lat="44.5369" lon="0.68472">
        <ele>138.5</ele>
        <time>2014-7-5T13:35:52.000Z</time>
      </trkpt>
      <trkpt lat="44.53696" lon="0.68474">
        <ele>139.5</ele>
        <time>2014-7-5T13:35:52.000Z</time>
      </trkpt>
      <trkpt lat="44.53706" lon="0.68472">
        <ele>149.5</ele>
        <time>2014-7-5T13:35:52.000Z</time>
      </trkpt>
      <trkpt lat="44.53695" lon="0.68464">
        <ele>134.5</ele>
        <time>2014-7-5T13:35:52.000Z</time>
      </trkpt>
      <trkpt lat="44.53685" lon="0.68461">
        <ele>139.5</ele>
        <time>2014-7-5T13:35:52.000Z</time>
      </trkpt>
      <trkpt lat="44.53703" lon="0.68473">
        <ele>151.5</ele>
        <time>2014-7-5T13:35:52.000Z</time>
      </trkpt>
      <trkpt lat="44.53708" lon="0.68475">
        <ele>157.5</ele>
        <time>2014-7-5T13:35:52.000Z</time>
      </trkpt>
      <trkpt lat="44.53704" lon="0.68467">
        <ele>137.5</ele>
        <time>2014-7-5T13:35:52.000Z</time>
      </trkpt>
      <trkpt lat="44.53706" lon="0.6847">
        <ele>146.5</ele>
        <time>2014-7-5T13:35:52.000Z</time>
      </trkpt>
      <trkpt lat="44.53703" lon="0.6847">
        <ele>124.5</ele>
        <time>2014-7-5T13:35:52.000Z</time>
      </trkpt>
      <trkpt lat="44.53698" lon="0.68462">
        <ele>116.5</ele>
        <time>2014-7-5T13:35:52.000Z</time>
      </trkpt>
      <trkpt lat="44.53694" lon="0.68451">
        <ele>110.5</ele>
        <time>2014-7-5T13:35:52.000Z</time>
      </trkpt>
      <trkpt lat="44.53693" lon="0.68457">
        <ele>110.5</ele>
        <time>2014-7-5T13:35:52.000Z</time>
      </trkpt>
      <trkpt lat="44.53696" lon="0.6846">
        <ele>125.5</ele>
        <time>2014-7-5T13:35:52.000Z</time>
      </trkpt>
      <trkpt lat="44.53702" lon="0.68464">
        <ele>138.5</ele>
        <time>2014-7-5T13:35:52.000Z</time>
      </trkpt>
      <trkpt lat="44.53706" lon="0.68464">
        <ele>143.5</ele>
        <time>2014-7-5T13:35:52.000Z</time>
      </trkpt>
      <trkpt lat="44.53705" lon="0.68469">
        <ele>143.5</ele>
        <time>2014-7-5T13:35:52.000Z</time>
      </trkpt>
      <trkpt lat="44.53701" lon="0.68465">
        <ele>131.5</ele>
        <time>2014-7-5T13:35:52.000Z</time>
      </trkpt>
      <trkpt lat="44.53694" lon="0.68464">
        <ele>117.5</ele>
        <time>2014-7-5T13:35:52.000Z</time>
      </trkpt>
      <trkpt lat="44.53702" lon="0.68467">
        <ele>131.5</ele>
        <time>2014-7-5T13:35:52.000Z</time>
      </trkpt>
      <trkpt lat="44.53694" lon="0.68467">
        <ele>129.5</ele>
        <time>2014-7-5T13:35:52.000Z</time>
      </trkpt>
      <trkpt lat="44.53687" lon="0.68459">
        <ele>130.5</ele>
        <time>2014-7-5T13:35:52.000Z</time>
      </trkpt>
      <trkpt lat="44.53699" lon="0.68461">
        <ele>117.5</ele>
        <time>2014-7-5T13:35:52.000Z</time>
      </trkpt>
      <trkpt lat="44.53698" lon="0.68462">
        <ele>119.5</ele>
        <time>2014-7-5T13:35:52.000Z</time>
      </trkpt>
      <trkpt lat="44.53697" lon="0.6846">
        <ele>114.5</ele>
        <time>2014-7-5T13:45:39.000Z</time>
      </trkpt>
      <trkpt lat="44.53696" lon="0.68462">
        <ele>106.5</ele>
        <time>2014-7-5T13:45:39.000Z</time>
      </trkpt>
      <trkpt lat="44.53697" lon="0.68464">
        <ele>106.5</ele>
        <time>2014-7-5T13:45:39.000Z</time>
      </trkpt>
      <trkpt lat="44.53699" lon="0.68464">
        <ele>104.5</ele>
        <time>2014-7-5T13:45:39.000Z</time>
      </trkpt>
      <trkpt lat="44.53701" lon="0.68464">
        <ele>107.5</ele>
        <time>2014-7-5T13:45:39.000Z</time>
      </trkpt>
      <trkpt lat="44.53701" lon="0.68482">
        <ele>136.5</ele>
        <time>2014-7-6T11:1:22.000Z</time>
      </trkpt>
      <trkpt lat="44.53704" lon="0.68485">
        <ele>129.5</ele>
        <time>2014-7-6T11:1:22.000Z</time>
      </trkpt>
      <trkpt lat="44.53704" lon="0.68482">
        <ele>116.5</ele>
        <time>2014-7-6T11:1:22.000Z</time>
      </trkpt>
      <trkpt lat="44.53706" lon="0.68474">
        <ele>109.5</ele>
        <time>2014-7-6T11:1:22.000Z</time>
      </trkpt>
      <trkpt lat="44.53716" lon="0.68474">
        <ele>124.5</ele>
        <time>2014-7-6T11:1:22.000Z</time>
      </trkpt>
      <trkpt lat="44.53713" lon="0.68476">
        <ele>127.5</ele>
        <time>2014-7-6T11:1:22.000Z</time>
      </trkpt>
      <trkpt lat="44.53711" lon="0.68478">
        <ele>129.5</ele>
        <time>2014-7-6T11:1:22.000Z</time>
      </trkpt>
      <trkpt lat="44.53707" lon="0.68481">
        <ele>134.5</ele>
        <time>2014-7-6T11:1:22.000Z</time>
      </trkpt>
      <trkpt lat="44.53707" lon="0.68474">
        <ele>119.5</ele>
        <time>2014-7-6T11:1:22.000Z</time>
      </trkpt>
      <trkpt lat="44.53705" lon="0.68471">
        <ele>124.5</ele>
        <time>2014-7-6T11:1:22.000Z</time>
      </trkpt>
      <trkpt lat="44.53703" lon="0.68476">
        <ele>119.5</ele>
        <time>2014-7-6T11:1:22.000Z</time>
      </trkpt>
      <trkpt lat="44.53702" lon="0.68479">
        <ele>121.5</ele>
        <time>2014-7-6T11:1:22.000Z</time>
      </trkpt>
      <trkpt lat="44.53703" lon="0.68481">
        <ele>126.5</ele>
        <time>2014-7-6T11:1:22.000Z</time>
      </trkpt>
      <trkpt lat="44.53703" lon="0.68478">
        <ele>131.5</ele>
        <time>2014-7-6T11:1:22.000Z</time>
      </trkpt>
      <trkpt lat="44.53701" lon="0.68477">
        <ele>129.5</ele>
        <time>2014-7-6T11:1:22.000Z</time>
      </trkpt>
      <trkpt lat="44.53703" lon="0.6848">
        <ele>129.5</ele>
        <time>2014-7-6T11:1:22.000Z</time>
      </trkpt>
      <trkpt lat="44.53705" lon="0.68481">
        <ele>127.5</ele>
        <time>2014-7-6T11:1:22.000Z</time>
      </trkpt>
      <trkpt lat="44.53706" lon="0.68483">
        <ele>125.5</ele>
        <time>2014-7-6T11:1:22.000Z</time>
      </trkpt>
      <trkpt lat="44.53705" lon="0.68483">
        <ele>125.5</ele>
        <time>2014-7-6T11:1:22.000Z</time>
      </trkpt>
      <trkpt lat="44.53705" lon="0.68482">
        <ele>125.5</ele>
        <time>2014-7-6T11:1:22.000Z</time>
      </trkpt>
      <trkpt lat="44.53705" lon="0.68482">
        <ele>125.5</ele>
        <time>2014-7-6T11:1:22.000Z</time>
      </trkpt>
      <trkpt lat="44.53704" lon="0.6848">
        <ele>126.5</ele>
        <time>2014-7-6T11:1:22.000Z</time>
      </trkpt>
    </trkseg>
  </trk>
</gpx>